<?xml version="1.0" encoding="utf-8"?>
<gpx xmlns:xsi="http://www.w3.org/2001/XMLSchema-instance" xmlns:xsd="http://www.w3.org/2001/XMLSchema" version="1.1" creator="Shapelink.com" xmlns="http://www.topografix.com/GPX/1/1" xmlns:gpxtpx="http://www.garmin.com/xmlschemas/TrackPointExtension/v1">
  <metadata>
    <name>Sykling 63.40 km, 2013-05-30</name>
    <desc></desc>
    <author><name>Mikael Blom</name></author> 
    <time>2013-05-30T18:08:05Z</time>
  </metadata>
  <trk>
    <name>Sykling 63.40 km, 2013-05-30</name>
    <trkseg>
      <trkpt lat="59.8508984" lon="17.689309">
        <ele>7.82788</ele>
        <time>2013-05-30T18:08:05Z</time>
      </trkpt>
      <trkpt lat="59.8508693" lon="17.6893731">
        <ele>8.30859</ele>
        <time>2013-05-30T18:08:06Z</time>
      </trkpt>
      <trkpt lat="59.8508239" lon="17.6894442">
        <ele>8.78918</ele>
        <time>2013-05-30T18:08:07Z</time>
      </trkpt>
      <trkpt lat="59.8507856" lon="17.6895206">
        <ele>8.78918</ele>
        <time>2013-05-30T18:08:08Z</time>
      </trkpt>
      <trkpt lat="59.8507466" lon="17.6895983">
        <ele>8.78918</ele>
        <time>2013-05-30T18:08:09Z</time>
      </trkpt>
      <trkpt lat="59.850708" lon="17.6896749">
        <ele>8.78918</ele>
        <time>2013-05-30T18:08:10Z</time>
      </trkpt>
      <trkpt lat="59.850669" lon="17.6897512">
        <ele>8.78918</ele>
        <time>2013-05-30T18:08:11Z</time>
      </trkpt>
      <trkpt lat="59.8506287" lon="17.6898287">
        <ele>8.78918</ele>
        <time>2013-05-30T18:08:12Z</time>
      </trkpt>
      <trkpt lat="59.8505851" lon="17.689906">
        <ele>8.78918</ele>
        <time>2013-05-30T18:08:13Z</time>
      </trkpt>
      <trkpt lat="59.8505378" lon="17.6899857">
        <ele>8.30859</ele>
        <time>2013-05-30T18:08:14Z</time>
      </trkpt>
      <trkpt lat="59.8504912" lon="17.6900636">
        <ele>8.30859</ele>
        <time>2013-05-30T18:08:15Z</time>
      </trkpt>
      <trkpt lat="59.8504481" lon="17.6901418">
        <ele>8.30859</ele>
        <time>2013-05-30T18:08:16Z</time>
      </trkpt>
      <trkpt lat="59.8503997" lon="17.6902236">
        <ele>7.82788</ele>
        <time>2013-05-30T18:08:17Z</time>
      </trkpt>
      <trkpt lat="59.8503494" lon="17.6903082">
        <ele>6.86646</ele>
        <time>2013-05-30T18:08:18Z</time>
      </trkpt>
      <trkpt lat="59.8503007" lon="17.6903932">
        <ele>5.90527</ele>
        <time>2013-05-30T18:08:19Z</time>
      </trkpt>
      <trkpt lat="59.8502513" lon="17.6904784">
        <ele>4.46326</ele>
        <time>2013-05-30T18:08:20Z</time>
      </trkpt>
      <trkpt lat="59.8502047" lon="17.6905628">
        <ele>3.02124</ele>
        <time>2013-05-30T18:08:21Z</time>
      </trkpt>
      <trkpt lat="59.8501576" lon="17.690648">
        <ele>1.09863</ele>
        <time>2013-05-30T18:08:22Z</time>
      </trkpt>
      <trkpt lat="59.8501244" lon="17.6907166">
        <ele>1.57935</ele>
        <time>2013-05-30T18:08:23Z</time>
      </trkpt>
      <trkpt lat="59.8500827" lon="17.6907944">
        <ele>1.57935</ele>
        <time>2013-05-30T18:08:24Z</time>
      </trkpt>
      <trkpt lat="59.8500296" lon="17.6908831">
        <ele>0.618042</ele>
        <time>2013-05-30T18:08:25Z</time>
      </trkpt>
      <trkpt lat="59.8499856" lon="17.6909552">
        <ele>0.137451</ele>
        <time>2013-05-30T18:08:26Z</time>
      </trkpt>
      <trkpt lat="59.8499405" lon="17.6910193">
        <ele>0.137451</ele>
        <time>2013-05-30T18:08:27Z</time>
      </trkpt>
      <trkpt lat="59.8498913" lon="17.6910736">
        <ele>0.137451</ele>
        <time>2013-05-30T18:08:28Z</time>
      </trkpt>
      <trkpt lat="59.8498402" lon="17.6911171">
        <ele>0</ele>
        <time>2013-05-30T18:08:29Z</time>
      </trkpt>
      <trkpt lat="59.8497879" lon="17.6911526">
        <ele>0</ele>
        <time>2013-05-30T18:08:30Z</time>
      </trkpt>
      <trkpt lat="59.84974" lon="17.6911695">
        <ele>0</ele>
        <time>2013-05-30T18:08:31Z</time>
      </trkpt>
      <trkpt lat="59.8496858" lon="17.6911788">
        <ele>0</ele>
        <time>2013-05-30T18:08:32Z</time>
      </trkpt>
      <trkpt lat="59.849629" lon="17.6911756">
        <ele>0</ele>
        <time>2013-05-30T18:08:33Z</time>
      </trkpt>
      <trkpt lat="59.8495707" lon="17.6911561">
        <ele>0.137451</ele>
        <time>2013-05-30T18:08:34Z</time>
      </trkpt>
      <trkpt lat="59.8495132" lon="17.6911178">
        <ele>0.618042</ele>
        <time>2013-05-30T18:08:35Z</time>
      </trkpt>
      <trkpt lat="59.8494534" lon="17.6910768">
        <ele>1.09863</ele>
        <time>2013-05-30T18:08:36Z</time>
      </trkpt>
      <trkpt lat="59.8493931" lon="17.6910359">
        <ele>1.57935</ele>
        <time>2013-05-30T18:08:37Z</time>
      </trkpt>
      <trkpt lat="59.8493334" lon="17.6909934">
        <ele>2.06006</ele>
        <time>2013-05-30T18:08:38Z</time>
      </trkpt>
      <trkpt lat="59.8492762" lon="17.6909482">
        <ele>2.06006</ele>
        <time>2013-05-30T18:08:39Z</time>
      </trkpt>
      <trkpt lat="59.8492207" lon="17.6908997">
        <ele>2.06006</ele>
        <time>2013-05-30T18:08:40Z</time>
      </trkpt>
      <trkpt lat="59.8491663" lon="17.6908461">
        <ele>2.06006</ele>
        <time>2013-05-30T18:08:41Z</time>
      </trkpt>
      <trkpt lat="59.8491124" lon="17.6907929">
        <ele>2.06006</ele>
        <time>2013-05-30T18:08:42Z</time>
      </trkpt>
      <trkpt lat="59.8490568" lon="17.6907438">
        <ele>2.54065</ele>
        <time>2013-05-30T18:08:43Z</time>
      </trkpt>
      <trkpt lat="59.8490011" lon="17.6906939">
        <ele>2.54065</ele>
        <time>2013-05-30T18:08:44Z</time>
      </trkpt>
      <trkpt lat="59.8489247" lon="17.6905754">
        <ele>3.02124</ele>
        <time>2013-05-30T18:08:45Z</time>
      </trkpt>
      <trkpt lat="59.848873" lon="17.690532">
        <ele>3.98267</ele>
        <time>2013-05-30T18:08:46Z</time>
      </trkpt>
      <trkpt lat="59.8488321" lon="17.69048">
        <ele>3.50195</ele>
        <time>2013-05-30T18:08:47Z</time>
      </trkpt>
      <trkpt lat="59.8487833" lon="17.6904377">
        <ele>3.50195</ele>
        <time>2013-05-30T18:08:48Z</time>
      </trkpt>
      <trkpt lat="59.848723" lon="17.6903956">
        <ele>3.98267</ele>
        <time>2013-05-30T18:08:49Z</time>
      </trkpt>
      <trkpt lat="59.8486633" lon="17.6903609">
        <ele>4.46326</ele>
        <time>2013-05-30T18:08:50Z</time>
      </trkpt>
      <trkpt lat="59.8486002" lon="17.6903344">
        <ele>4.46326</ele>
        <time>2013-05-30T18:08:51Z</time>
      </trkpt>
      <trkpt lat="59.8485406" lon="17.6903118">
        <ele>4.46326</ele>
        <time>2013-05-30T18:08:52Z</time>
      </trkpt>
      <trkpt lat="59.8484795" lon="17.6902847">
        <ele>5.42456</ele>
        <time>2013-05-30T18:08:53Z</time>
      </trkpt>
      <trkpt lat="59.8484193" lon="17.6902501">
        <ele>4.94385</ele>
        <time>2013-05-30T18:08:54Z</time>
      </trkpt>
      <trkpt lat="59.8483588" lon="17.6902174">
        <ele>4.94385</ele>
        <time>2013-05-30T18:08:55Z</time>
      </trkpt>
      <trkpt lat="59.8482996" lon="17.6901782">
        <ele>4.46326</ele>
        <time>2013-05-30T18:08:56Z</time>
      </trkpt>
      <trkpt lat="59.8482395" lon="17.6901491">
        <ele>3.50195</ele>
        <time>2013-05-30T18:08:57Z</time>
      </trkpt>
      <trkpt lat="59.84818" lon="17.6901274">
        <ele>3.50195</ele>
        <time>2013-05-30T18:08:58Z</time>
      </trkpt>
      <trkpt lat="59.8481192" lon="17.6901107">
        <ele>3.50195</ele>
        <time>2013-05-30T18:08:59Z</time>
      </trkpt>
      <trkpt lat="59.8480592" lon="17.6900966">
        <ele>3.98267</ele>
        <time>2013-05-30T18:09:00Z</time>
      </trkpt>
      <trkpt lat="59.8480033" lon="17.6900849">
        <ele>3.98267</ele>
        <time>2013-05-30T18:09:01Z</time>
      </trkpt>
      <trkpt lat="59.8479489" lon="17.6900754">
        <ele>3.98267</ele>
        <time>2013-05-30T18:09:02Z</time>
      </trkpt>
      <trkpt lat="59.8478915" lon="17.6900618">
        <ele>3.98267</ele>
        <time>2013-05-30T18:09:03Z</time>
      </trkpt>
      <trkpt lat="59.8478343" lon="17.690038">
        <ele>3.98267</ele>
        <time>2013-05-30T18:09:04Z</time>
      </trkpt>
      <trkpt lat="59.8477759" lon="17.6900159">
        <ele>4.46326</ele>
        <time>2013-05-30T18:09:05Z</time>
      </trkpt>
      <trkpt lat="59.8477164" lon="17.6899982">
        <ele>4.46326</ele>
        <time>2013-05-30T18:09:06Z</time>
      </trkpt>
      <trkpt lat="59.8476573" lon="17.6899766">
        <ele>4.94385</ele>
        <time>2013-05-30T18:09:07Z</time>
      </trkpt>
      <trkpt lat="59.8476012" lon="17.6899531">
        <ele>4.94385</ele>
        <time>2013-05-30T18:09:08Z</time>
      </trkpt>
      <trkpt lat="59.8475545" lon="17.6899282">
        <ele>5.42456</ele>
        <time>2013-05-30T18:09:09Z</time>
      </trkpt>
      <trkpt lat="59.8475193" lon="17.6898914">
        <ele>5.42456</ele>
        <time>2013-05-30T18:09:10Z</time>
      </trkpt>
      <trkpt lat="59.8474916" lon="17.6898469">
        <ele>5.42456</ele>
        <time>2013-05-30T18:09:11Z</time>
      </trkpt>
      <trkpt lat="59.8474652" lon="17.6898093">
        <ele>4.94385</ele>
        <time>2013-05-30T18:09:12Z</time>
      </trkpt>
      <trkpt lat="59.8474373" lon="17.6897868">
        <ele>5.42456</ele>
        <time>2013-05-30T18:09:13Z</time>
      </trkpt>
      <trkpt lat="59.8474092" lon="17.6897787">
        <ele>5.42456</ele>
        <time>2013-05-30T18:09:14Z</time>
      </trkpt>
      <trkpt lat="59.8473843" lon="17.6897714">
        <ele>5.42456</ele>
        <time>2013-05-30T18:09:15Z</time>
      </trkpt>
      <trkpt lat="59.8473626" lon="17.6897605">
        <ele>5.42456</ele>
        <time>2013-05-30T18:09:16Z</time>
      </trkpt>
      <trkpt lat="59.8473435" lon="17.6897491">
        <ele>5.42456</ele>
        <time>2013-05-30T18:09:17Z</time>
      </trkpt>
      <trkpt lat="59.8473275" lon="17.6897505">
        <ele>4.94385</ele>
        <time>2013-05-30T18:09:18Z</time>
      </trkpt>
      <trkpt lat="59.847318" lon="17.689757">
        <ele>4.94385</ele>
        <time>2013-05-30T18:09:19Z</time>
      </trkpt>
      <trkpt lat="59.8473128" lon="17.6897631">
        <ele>4.46326</ele>
        <time>2013-05-30T18:09:20Z</time>
      </trkpt>
      <trkpt lat="59.8473128" lon="17.6897647">
        <ele>3.98267</ele>
        <time>2013-05-30T18:09:21Z</time>
      </trkpt>
      <trkpt lat="59.8473137" lon="17.6897671">
        <ele>3.98267</ele>
        <time>2013-05-30T18:09:22Z</time>
      </trkpt>
      <trkpt lat="59.8472968" lon="17.6897707">
        <ele>3.02124</ele>
        <time>2013-05-30T18:09:26Z</time>
      </trkpt>
      <trkpt lat="59.8472781" lon="17.6897751">
        <ele>3.02124</ele>
        <time>2013-05-30T18:09:27Z</time>
      </trkpt>
      <trkpt lat="59.8472563" lon="17.6897881">
        <ele>3.02124</ele>
        <time>2013-05-30T18:09:28Z</time>
      </trkpt>
      <trkpt lat="59.8472337" lon="17.6898025">
        <ele>3.50195</ele>
        <time>2013-05-30T18:09:29Z</time>
      </trkpt>
      <trkpt lat="59.8472082" lon="17.6898238">
        <ele>3.50195</ele>
        <time>2013-05-30T18:09:30Z</time>
      </trkpt>
      <trkpt lat="59.8471835" lon="17.6898539">
        <ele>3.50195</ele>
        <time>2013-05-30T18:09:31Z</time>
      </trkpt>
      <trkpt lat="59.8471596" lon="17.6898886">
        <ele>3.50195</ele>
        <time>2013-05-30T18:09:32Z</time>
      </trkpt>
      <trkpt lat="59.8471283" lon="17.6899241">
        <ele>3.50195</ele>
        <time>2013-05-30T18:09:33Z</time>
      </trkpt>
      <trkpt lat="59.8470968" lon="17.6899465">
        <ele>3.02124</ele>
        <time>2013-05-30T18:09:34Z</time>
      </trkpt>
      <trkpt lat="59.8470558" lon="17.6899673">
        <ele>2.54065</ele>
        <time>2013-05-30T18:09:35Z</time>
      </trkpt>
      <trkpt lat="59.8470106" lon="17.6899776">
        <ele>1.57935</ele>
        <time>2013-05-30T18:09:36Z</time>
      </trkpt>
      <trkpt lat="59.8469671" lon="17.6899762">
        <ele>1.57935</ele>
        <time>2013-05-30T18:09:37Z</time>
      </trkpt>
      <trkpt lat="59.8469238" lon="17.6899701">
        <ele>2.06006</ele>
        <time>2013-05-30T18:09:38Z</time>
      </trkpt>
      <trkpt lat="59.8468756" lon="17.6899648">
        <ele>2.06006</ele>
        <time>2013-05-30T18:09:39Z</time>
      </trkpt>
      <trkpt lat="59.8468259" lon="17.6899585">
        <ele>2.06006</ele>
        <time>2013-05-30T18:09:40Z</time>
      </trkpt>
      <trkpt lat="59.8467731" lon="17.6899542">
        <ele>1.57935</ele>
        <time>2013-05-30T18:09:41Z</time>
      </trkpt>
      <trkpt lat="59.8467192" lon="17.6899527">
        <ele>1.09863</ele>
        <time>2013-05-30T18:09:42Z</time>
      </trkpt>
      <trkpt lat="59.8466679" lon="17.689952">
        <ele>0.618042</ele>
        <time>2013-05-30T18:09:43Z</time>
      </trkpt>
      <trkpt lat="59.8466149" lon="17.6899522">
        <ele>0.137451</ele>
        <time>2013-05-30T18:09:44Z</time>
      </trkpt>
      <trkpt lat="59.8465603" lon="17.6899537">
        <ele>0</ele>
        <time>2013-05-30T18:09:45Z</time>
      </trkpt>
      <trkpt lat="59.8465082" lon="17.6899528">
        <ele>0</ele>
        <time>2013-05-30T18:09:46Z</time>
      </trkpt>
      <trkpt lat="59.8464618" lon="17.6899455">
        <ele>0</ele>
        <time>2013-05-30T18:09:47Z</time>
      </trkpt>
      <trkpt lat="59.8464116" lon="17.6899434">
        <ele>0</ele>
        <time>2013-05-30T18:09:48Z</time>
      </trkpt>
      <trkpt lat="59.8463623" lon="17.6899403">
        <ele>0</ele>
        <time>2013-05-30T18:09:49Z</time>
      </trkpt>
      <trkpt lat="59.8463155" lon="17.6899341">
        <ele>0</ele>
        <time>2013-05-30T18:09:50Z</time>
      </trkpt>
      <trkpt lat="59.8462764" lon="17.689918">
        <ele>0.137451</ele>
        <time>2013-05-30T18:09:51Z</time>
      </trkpt>
      <trkpt lat="59.8462378" lon="17.6899021">
        <ele>1.09863</ele>
        <time>2013-05-30T18:09:52Z</time>
      </trkpt>
      <trkpt lat="59.8461883" lon="17.6899007">
        <ele>0.618042</ele>
        <time>2013-05-30T18:09:53Z</time>
      </trkpt>
      <trkpt lat="59.8461409" lon="17.6898967">
        <ele>0.618042</ele>
        <time>2013-05-30T18:09:54Z</time>
      </trkpt>
      <trkpt lat="59.8460954" lon="17.6898917">
        <ele>0.618042</ele>
        <time>2013-05-30T18:09:55Z</time>
      </trkpt>
      <trkpt lat="59.8460497" lon="17.6898832">
        <ele>0.618042</ele>
        <time>2013-05-30T18:09:56Z</time>
      </trkpt>
      <trkpt lat="59.8460038" lon="17.6898745">
        <ele>1.09863</ele>
        <time>2013-05-30T18:09:57Z</time>
      </trkpt>
      <trkpt lat="59.8459513" lon="17.6898745">
        <ele>1.09863</ele>
        <time>2013-05-30T18:09:58Z</time>
      </trkpt>
      <trkpt lat="59.8458965" lon="17.6898744">
        <ele>0.618042</ele>
        <time>2013-05-30T18:09:59Z</time>
      </trkpt>
      <trkpt lat="59.8458425" lon="17.6898693">
        <ele>0.137451</ele>
        <time>2013-05-30T18:10:00Z</time>
      </trkpt>
      <trkpt lat="59.8457895" lon="17.6898667">
        <ele>0.137451</ele>
        <time>2013-05-30T18:10:01Z</time>
      </trkpt>
      <trkpt lat="59.8457421" lon="17.6898595">
        <ele>0.137451</ele>
        <time>2013-05-30T18:10:02Z</time>
      </trkpt>
      <trkpt lat="59.8457004" lon="17.6898506">
        <ele>0.137451</ele>
        <time>2013-05-30T18:10:03Z</time>
      </trkpt>
      <trkpt lat="59.8456552" lon="17.6898391">
        <ele>0.137451</ele>
        <time>2013-05-30T18:10:04Z</time>
      </trkpt>
      <trkpt lat="59.8456168" lon="17.6897998">
        <ele>0.137451</ele>
        <time>2013-05-30T18:10:05Z</time>
      </trkpt>
      <trkpt lat="59.8455836" lon="17.6897453">
        <ele>0.137451</ele>
        <time>2013-05-30T18:10:06Z</time>
      </trkpt>
      <trkpt lat="59.8455506" lon="17.6897103">
        <ele>0</ele>
        <time>2013-05-30T18:10:07Z</time>
      </trkpt>
      <trkpt lat="59.8455168" lon="17.6896927">
        <ele>0</ele>
        <time>2013-05-30T18:10:08Z</time>
      </trkpt>
      <trkpt lat="59.8454838" lon="17.6896887">
        <ele>0</ele>
        <time>2013-05-30T18:10:09Z</time>
      </trkpt>
      <trkpt lat="59.8454563" lon="17.6897192">
        <ele>0</ele>
        <time>2013-05-30T18:10:10Z</time>
      </trkpt>
      <trkpt lat="59.8454304" lon="17.6897734">
        <ele>0</ele>
        <time>2013-05-30T18:10:11Z</time>
      </trkpt>
      <trkpt lat="59.8454002" lon="17.6898228">
        <ele>0</ele>
        <time>2013-05-30T18:10:12Z</time>
      </trkpt>
      <trkpt lat="59.8453629" lon="17.6898677">
        <ele>0</ele>
        <time>2013-05-30T18:10:13Z</time>
      </trkpt>
      <trkpt lat="59.8453195" lon="17.6899112">
        <ele>0</ele>
        <time>2013-05-30T18:10:14Z</time>
      </trkpt>
      <trkpt lat="59.8452724" lon="17.6899492">
        <ele>0</ele>
        <time>2013-05-30T18:10:15Z</time>
      </trkpt>
      <trkpt lat="59.8452189" lon="17.6899758">
        <ele>0</ele>
        <time>2013-05-30T18:10:16Z</time>
      </trkpt>
      <trkpt lat="59.8451551" lon="17.6899968">
        <ele>0</ele>
        <time>2013-05-30T18:10:17Z</time>
      </trkpt>
      <trkpt lat="59.8450881" lon="17.6900095">
        <ele>0</ele>
        <time>2013-05-30T18:10:18Z</time>
      </trkpt>
      <trkpt lat="59.8450257" lon="17.6900113">
        <ele>0</ele>
        <time>2013-05-30T18:10:19Z</time>
      </trkpt>
      <trkpt lat="59.8449704" lon="17.6900028">
        <ele>0</ele>
        <time>2013-05-30T18:10:20Z</time>
      </trkpt>
      <trkpt lat="59.8449106" lon="17.6900033">
        <ele>0</ele>
        <time>2013-05-30T18:10:21Z</time>
      </trkpt>
      <trkpt lat="59.8448524" lon="17.6900039">
        <ele>0</ele>
        <time>2013-05-30T18:10:22Z</time>
      </trkpt>
      <trkpt lat="59.8447939" lon="17.6900059">
        <ele>0</ele>
        <time>2013-05-30T18:10:23Z</time>
      </trkpt>
      <trkpt lat="59.8447397" lon="17.6900046">
        <ele>0</ele>
        <time>2013-05-30T18:10:24Z</time>
      </trkpt>
      <trkpt lat="59.8446858" lon="17.6900075">
        <ele>0</ele>
        <time>2013-05-30T18:10:25Z</time>
      </trkpt>
      <trkpt lat="59.8446341" lon="17.6900128">
        <ele>0</ele>
        <time>2013-05-30T18:10:26Z</time>
      </trkpt>
      <trkpt lat="59.8445802" lon="17.6900232">
        <ele>0</ele>
        <time>2013-05-30T18:10:27Z</time>
      </trkpt>
      <trkpt lat="59.8445268" lon="17.6900299">
        <ele>0</ele>
        <time>2013-05-30T18:10:28Z</time>
      </trkpt>
      <trkpt lat="59.8444696" lon="17.6900387">
        <ele>0</ele>
        <time>2013-05-30T18:10:29Z</time>
      </trkpt>
      <trkpt lat="59.8444126" lon="17.6900448">
        <ele>0</ele>
        <time>2013-05-30T18:10:30Z</time>
      </trkpt>
      <trkpt lat="59.8443543" lon="17.6900504">
        <ele>0</ele>
        <time>2013-05-30T18:10:31Z</time>
      </trkpt>
      <trkpt lat="59.8442954" lon="17.6900561">
        <ele>0</ele>
        <time>2013-05-30T18:10:32Z</time>
      </trkpt>
      <trkpt lat="59.8442411" lon="17.6900568">
        <ele>0</ele>
        <time>2013-05-30T18:10:33Z</time>
      </trkpt>
      <trkpt lat="59.8441939" lon="17.6900517">
        <ele>0</ele>
        <time>2013-05-30T18:10:34Z</time>
      </trkpt>
      <trkpt lat="59.8441497" lon="17.6900482">
        <ele>0</ele>
        <time>2013-05-30T18:10:35Z</time>
      </trkpt>
      <trkpt lat="59.8441111" lon="17.6900445">
        <ele>0</ele>
        <time>2013-05-30T18:10:36Z</time>
      </trkpt>
      <trkpt lat="59.8440792" lon="17.6900432">
        <ele>0</ele>
        <time>2013-05-30T18:10:37Z</time>
      </trkpt>
      <trkpt lat="59.8440618" lon="17.6900355">
        <ele>0</ele>
        <time>2013-05-30T18:10:38Z</time>
      </trkpt>
      <trkpt lat="59.8440493" lon="17.6900365">
        <ele>0</ele>
        <time>2013-05-30T18:10:39Z</time>
      </trkpt>
      <trkpt lat="59.8440471" lon="17.690036">
        <ele>0</ele>
        <time>2013-05-30T18:10:40Z</time>
      </trkpt>
      <trkpt lat="59.8440519" lon="17.6900305">
        <ele>0</ele>
        <time>2013-05-30T18:10:41Z</time>
      </trkpt>
      <trkpt lat="59.8440561" lon="17.6900262">
        <ele>0</ele>
        <time>2013-05-30T18:10:42Z</time>
      </trkpt>
      <trkpt lat="59.8440599" lon="17.6900214">
        <ele>0</ele>
        <time>2013-05-30T18:10:43Z</time>
      </trkpt>
      <trkpt lat="59.8440648" lon="17.6900154">
        <ele>0</ele>
        <time>2013-05-30T18:10:44Z</time>
      </trkpt>
      <trkpt lat="59.8440683" lon="17.6900108">
        <ele>0</ele>
        <time>2013-05-30T18:10:45Z</time>
      </trkpt>
      <trkpt lat="59.8440712" lon="17.6900067">
        <ele>0</ele>
        <time>2013-05-30T18:10:46Z</time>
      </trkpt>
      <trkpt lat="59.8440747" lon="17.6900029">
        <ele>0</ele>
        <time>2013-05-30T18:10:47Z</time>
      </trkpt>
      <trkpt lat="59.8440778" lon="17.6899991">
        <ele>0</ele>
        <time>2013-05-30T18:10:48Z</time>
      </trkpt>
      <trkpt lat="59.8440801" lon="17.6899962">
        <ele>0</ele>
        <time>2013-05-30T18:10:49Z</time>
      </trkpt>
      <trkpt lat="59.8440349" lon="17.6900009">
        <ele>0</ele>
        <time>2013-05-30T18:11:19Z</time>
      </trkpt>
      <trkpt lat="59.8440131" lon="17.6899932">
        <ele>0</ele>
        <time>2013-05-30T18:11:20Z</time>
      </trkpt>
      <trkpt lat="59.8439851" lon="17.6899874">
        <ele>0</ele>
        <time>2013-05-30T18:11:21Z</time>
      </trkpt>
      <trkpt lat="59.8439484" lon="17.6899789">
        <ele>0</ele>
        <time>2013-05-30T18:11:22Z</time>
      </trkpt>
      <trkpt lat="59.8439036" lon="17.6899671">
        <ele>0</ele>
        <time>2013-05-30T18:11:23Z</time>
      </trkpt>
      <trkpt lat="59.8438484" lon="17.6899543">
        <ele>0</ele>
        <time>2013-05-30T18:11:24Z</time>
      </trkpt>
      <trkpt lat="59.8437863" lon="17.6899425">
        <ele>0</ele>
        <time>2013-05-30T18:11:25Z</time>
      </trkpt>
      <trkpt lat="59.843722" lon="17.6899274">
        <ele>0</ele>
        <time>2013-05-30T18:11:26Z</time>
      </trkpt>
      <trkpt lat="59.8436571" lon="17.689914">
        <ele>0</ele>
        <time>2013-05-30T18:11:27Z</time>
      </trkpt>
      <trkpt lat="59.8435921" lon="17.6898999">
        <ele>0</ele>
        <time>2013-05-30T18:11:28Z</time>
      </trkpt>
      <trkpt lat="59.8435256" lon="17.6898827">
        <ele>0</ele>
        <time>2013-05-30T18:11:29Z</time>
      </trkpt>
      <trkpt lat="59.8434559" lon="17.6898705">
        <ele>0</ele>
        <time>2013-05-30T18:11:30Z</time>
      </trkpt>
      <trkpt lat="59.8433852" lon="17.6898637">
        <ele>0</ele>
        <time>2013-05-30T18:11:31Z</time>
      </trkpt>
      <trkpt lat="59.8433132" lon="17.6898588">
        <ele>0</ele>
        <time>2013-05-30T18:11:32Z</time>
      </trkpt>
      <trkpt lat="59.8432418" lon="17.6898507">
        <ele>0</ele>
        <time>2013-05-30T18:11:33Z</time>
      </trkpt>
      <trkpt lat="59.8431698" lon="17.6898418">
        <ele>0</ele>
        <time>2013-05-30T18:11:34Z</time>
      </trkpt>
      <trkpt lat="59.8430971" lon="17.6898355">
        <ele>0</ele>
        <time>2013-05-30T18:11:35Z</time>
      </trkpt>
      <trkpt lat="59.8430225" lon="17.6898314">
        <ele>0</ele>
        <time>2013-05-30T18:11:36Z</time>
      </trkpt>
      <trkpt lat="59.8429497" lon="17.6898225">
        <ele>0</ele>
        <time>2013-05-30T18:11:37Z</time>
      </trkpt>
      <trkpt lat="59.8428781" lon="17.6898133">
        <ele>0</ele>
        <time>2013-05-30T18:11:38Z</time>
      </trkpt>
      <trkpt lat="59.8428093" lon="17.689804">
        <ele>0</ele>
        <time>2013-05-30T18:11:39Z</time>
      </trkpt>
      <trkpt lat="59.8427398" lon="17.6897999">
        <ele>0</ele>
        <time>2013-05-30T18:11:40Z</time>
      </trkpt>
      <trkpt lat="59.8426754" lon="17.689787">
        <ele>0</ele>
        <time>2013-05-30T18:11:41Z</time>
      </trkpt>
      <trkpt lat="59.8426044" lon="17.6897702">
        <ele>0</ele>
        <time>2013-05-30T18:11:42Z</time>
      </trkpt>
      <trkpt lat="59.8425338" lon="17.6897544">
        <ele>0</ele>
        <time>2013-05-30T18:11:43Z</time>
      </trkpt>
      <trkpt lat="59.8424654" lon="17.6897398">
        <ele>0</ele>
        <time>2013-05-30T18:11:44Z</time>
      </trkpt>
      <trkpt lat="59.8423974" lon="17.689726">
        <ele>0</ele>
        <time>2013-05-30T18:11:45Z</time>
      </trkpt>
      <trkpt lat="59.8423291" lon="17.6897123">
        <ele>0.137451</ele>
        <time>2013-05-30T18:11:46Z</time>
      </trkpt>
      <trkpt lat="59.8422617" lon="17.6896974">
        <ele>0.618042</ele>
        <time>2013-05-30T18:11:47Z</time>
      </trkpt>
      <trkpt lat="59.8421942" lon="17.6896814">
        <ele>0.618042</ele>
        <time>2013-05-30T18:11:48Z</time>
      </trkpt>
      <trkpt lat="59.842126" lon="17.6896663">
        <ele>1.09863</ele>
        <time>2013-05-30T18:11:49Z</time>
      </trkpt>
      <trkpt lat="59.8420565" lon="17.6896519">
        <ele>1.09863</ele>
        <time>2013-05-30T18:11:50Z</time>
      </trkpt>
      <trkpt lat="59.8419867" lon="17.6896382">
        <ele>1.09863</ele>
        <time>2013-05-30T18:11:51Z</time>
      </trkpt>
      <trkpt lat="59.8419165" lon="17.6896248">
        <ele>1.57935</ele>
        <time>2013-05-30T18:11:52Z</time>
      </trkpt>
      <trkpt lat="59.8418452" lon="17.6896124">
        <ele>1.57935</ele>
        <time>2013-05-30T18:11:53Z</time>
      </trkpt>
      <trkpt lat="59.8417747" lon="17.6895978">
        <ele>1.57935</ele>
        <time>2013-05-30T18:11:54Z</time>
      </trkpt>
      <trkpt lat="59.8417043" lon="17.6895813">
        <ele>2.06006</ele>
        <time>2013-05-30T18:11:55Z</time>
      </trkpt>
      <trkpt lat="59.8416339" lon="17.6895652">
        <ele>2.06006</ele>
        <time>2013-05-30T18:11:56Z</time>
      </trkpt>
      <trkpt lat="59.841564" lon="17.6895507">
        <ele>2.06006</ele>
        <time>2013-05-30T18:11:57Z</time>
      </trkpt>
      <trkpt lat="59.8414941" lon="17.6895368">
        <ele>2.06006</ele>
        <time>2013-05-30T18:11:58Z</time>
      </trkpt>
      <trkpt lat="59.841424" lon="17.6895224">
        <ele>2.54065</ele>
        <time>2013-05-30T18:11:59Z</time>
      </trkpt>
      <trkpt lat="59.8413534" lon="17.6895088">
        <ele>2.54065</ele>
        <time>2013-05-30T18:12:00Z</time>
      </trkpt>
      <trkpt lat="59.8412832" lon="17.6894949">
        <ele>2.54065</ele>
        <time>2013-05-30T18:12:01Z</time>
      </trkpt>
      <trkpt lat="59.8412137" lon="17.6894806">
        <ele>2.54065</ele>
        <time>2013-05-30T18:12:02Z</time>
      </trkpt>
      <trkpt lat="59.8411439" lon="17.6894667">
        <ele>3.02124</ele>
        <time>2013-05-30T18:12:03Z</time>
      </trkpt>
      <trkpt lat="59.8410748" lon="17.6894522">
        <ele>3.02124</ele>
        <time>2013-05-30T18:12:04Z</time>
      </trkpt>
      <trkpt lat="59.8410053" lon="17.6894394">
        <ele>3.02124</ele>
        <time>2013-05-30T18:12:05Z</time>
      </trkpt>
      <trkpt lat="59.8409341" lon="17.689429">
        <ele>3.02124</ele>
        <time>2013-05-30T18:12:06Z</time>
      </trkpt>
      <trkpt lat="59.8408646" lon="17.6894145">
        <ele>3.02124</ele>
        <time>2013-05-30T18:12:07Z</time>
      </trkpt>
      <trkpt lat="59.8407937" lon="17.6894006">
        <ele>3.02124</ele>
        <time>2013-05-30T18:12:08Z</time>
      </trkpt>
      <trkpt lat="59.8407212" lon="17.6893866">
        <ele>3.02124</ele>
        <time>2013-05-30T18:12:09Z</time>
      </trkpt>
      <trkpt lat="59.8406481" lon="17.6893745">
        <ele>3.02124</ele>
        <time>2013-05-30T18:12:10Z</time>
      </trkpt>
      <trkpt lat="59.8405747" lon="17.6893643">
        <ele>3.02124</ele>
        <time>2013-05-30T18:12:11Z</time>
      </trkpt>
      <trkpt lat="59.8405011" lon="17.6893544">
        <ele>3.02124</ele>
        <time>2013-05-30T18:12:12Z</time>
      </trkpt>
      <trkpt lat="59.8404284" lon="17.6893415">
        <ele>2.54065</ele>
        <time>2013-05-30T18:12:13Z</time>
      </trkpt>
      <trkpt lat="59.8403552" lon="17.6893286">
        <ele>2.54065</ele>
        <time>2013-05-30T18:12:14Z</time>
      </trkpt>
      <trkpt lat="59.8402822" lon="17.6893151">
        <ele>2.54065</ele>
        <time>2013-05-30T18:12:15Z</time>
      </trkpt>
      <trkpt lat="59.8402094" lon="17.6893016">
        <ele>2.54065</ele>
        <time>2013-05-30T18:12:16Z</time>
      </trkpt>
      <trkpt lat="59.8401369" lon="17.6892892">
        <ele>2.54065</ele>
        <time>2013-05-30T18:12:17Z</time>
      </trkpt>
      <trkpt lat="59.8400646" lon="17.6892773">
        <ele>2.54065</ele>
        <time>2013-05-30T18:12:18Z</time>
      </trkpt>
      <trkpt lat="59.8399913" lon="17.6892674">
        <ele>2.54065</ele>
        <time>2013-05-30T18:12:19Z</time>
      </trkpt>
      <trkpt lat="59.8399142" lon="17.6892623">
        <ele>2.54065</ele>
        <time>2013-05-30T18:12:20Z</time>
      </trkpt>
      <trkpt lat="59.8398374" lon="17.6892565">
        <ele>2.54065</ele>
        <time>2013-05-30T18:12:21Z</time>
      </trkpt>
      <trkpt lat="59.8397627" lon="17.6892501">
        <ele>2.54065</ele>
        <time>2013-05-30T18:12:22Z</time>
      </trkpt>
      <trkpt lat="59.8396881" lon="17.6892482">
        <ele>2.54065</ele>
        <time>2013-05-30T18:12:23Z</time>
      </trkpt>
      <trkpt lat="59.8396109" lon="17.6892549">
        <ele>2.06006</ele>
        <time>2013-05-30T18:12:24Z</time>
      </trkpt>
      <trkpt lat="59.8395338" lon="17.6892657">
        <ele>1.57935</ele>
        <time>2013-05-30T18:12:25Z</time>
      </trkpt>
      <trkpt lat="59.8394602" lon="17.689275">
        <ele>1.57935</ele>
        <time>2013-05-30T18:12:26Z</time>
      </trkpt>
      <trkpt lat="59.8393868" lon="17.6892874">
        <ele>2.06006</ele>
        <time>2013-05-30T18:12:27Z</time>
      </trkpt>
      <trkpt lat="59.8393071" lon="17.6893126">
        <ele>1.57935</ele>
        <time>2013-05-30T18:12:28Z</time>
      </trkpt>
      <trkpt lat="59.8392262" lon="17.689341">
        <ele>0.618042</ele>
        <time>2013-05-30T18:12:29Z</time>
      </trkpt>
      <trkpt lat="59.8391469" lon="17.6893695">
        <ele>0</ele>
        <time>2013-05-30T18:12:30Z</time>
      </trkpt>
      <trkpt lat="59.8390628" lon="17.6894092">
        <ele>0</ele>
        <time>2013-05-30T18:12:31Z</time>
      </trkpt>
      <trkpt lat="59.8389863" lon="17.6894441">
        <ele>0</ele>
        <time>2013-05-30T18:12:32Z</time>
      </trkpt>
      <trkpt lat="59.8389131" lon="17.6894785">
        <ele>0</ele>
        <time>2013-05-30T18:12:33Z</time>
      </trkpt>
      <trkpt lat="59.8388396" lon="17.689516">
        <ele>0</ele>
        <time>2013-05-30T18:12:34Z</time>
      </trkpt>
      <trkpt lat="59.8387675" lon="17.6895554">
        <ele>0</ele>
        <time>2013-05-30T18:12:35Z</time>
      </trkpt>
      <trkpt lat="59.8386958" lon="17.6895995">
        <ele>0</ele>
        <time>2013-05-30T18:12:36Z</time>
      </trkpt>
      <trkpt lat="59.8386313" lon="17.6896407">
        <ele>0</ele>
        <time>2013-05-30T18:12:37Z</time>
      </trkpt>
      <trkpt lat="59.8385657" lon="17.6896845">
        <ele>0</ele>
        <time>2013-05-30T18:12:38Z</time>
      </trkpt>
      <trkpt lat="59.8384998" lon="17.6897315">
        <ele>0</ele>
        <time>2013-05-30T18:12:39Z</time>
      </trkpt>
      <trkpt lat="59.8384381" lon="17.6897785">
        <ele>0</ele>
        <time>2013-05-30T18:12:40Z</time>
      </trkpt>
      <trkpt lat="59.8383747" lon="17.6898334">
        <ele>0</ele>
        <time>2013-05-30T18:12:41Z</time>
      </trkpt>
      <trkpt lat="59.838311" lon="17.6898937">
        <ele>0</ele>
        <time>2013-05-30T18:12:42Z</time>
      </trkpt>
      <trkpt lat="59.8382478" lon="17.6899584">
        <ele>0</ele>
        <time>2013-05-30T18:12:43Z</time>
      </trkpt>
      <trkpt lat="59.8381874" lon="17.6900238">
        <ele>0</ele>
        <time>2013-05-30T18:12:44Z</time>
      </trkpt>
      <trkpt lat="59.8381253" lon="17.6900912">
        <ele>0</ele>
        <time>2013-05-30T18:12:45Z</time>
      </trkpt>
      <trkpt lat="59.8380648" lon="17.6901602">
        <ele>0</ele>
        <time>2013-05-30T18:12:46Z</time>
      </trkpt>
      <trkpt lat="59.8380037" lon="17.6902271">
        <ele>0</ele>
        <time>2013-05-30T18:12:47Z</time>
      </trkpt>
      <trkpt lat="59.8379414" lon="17.6902947">
        <ele>0</ele>
        <time>2013-05-30T18:12:48Z</time>
      </trkpt>
      <trkpt lat="59.8378792" lon="17.6903625">
        <ele>0</ele>
        <time>2013-05-30T18:12:49Z</time>
      </trkpt>
      <trkpt lat="59.8378173" lon="17.6904301">
        <ele>0</ele>
        <time>2013-05-30T18:12:50Z</time>
      </trkpt>
      <trkpt lat="59.8377556" lon="17.6904975">
        <ele>0</ele>
        <time>2013-05-30T18:12:51Z</time>
      </trkpt>
      <trkpt lat="59.8376953" lon="17.6905617">
        <ele>0</ele>
        <time>2013-05-30T18:12:52Z</time>
      </trkpt>
      <trkpt lat="59.8376341" lon="17.6906256">
        <ele>0</ele>
        <time>2013-05-30T18:12:53Z</time>
      </trkpt>
      <trkpt lat="59.8375733" lon="17.6906884">
        <ele>0</ele>
        <time>2013-05-30T18:12:54Z</time>
      </trkpt>
      <trkpt lat="59.8375112" lon="17.69075">
        <ele>0</ele>
        <time>2013-05-30T18:12:55Z</time>
      </trkpt>
      <trkpt lat="59.8374469" lon="17.6908109">
        <ele>0</ele>
        <time>2013-05-30T18:12:56Z</time>
      </trkpt>
      <trkpt lat="59.8373817" lon="17.6908707">
        <ele>0.137451</ele>
        <time>2013-05-30T18:12:57Z</time>
      </trkpt>
      <trkpt lat="59.8373162" lon="17.6909285">
        <ele>0.137451</ele>
        <time>2013-05-30T18:12:58Z</time>
      </trkpt>
      <trkpt lat="59.8372541" lon="17.6909811">
        <ele>0.618042</ele>
        <time>2013-05-30T18:12:59Z</time>
      </trkpt>
      <trkpt lat="59.8371881" lon="17.6910388">
        <ele>1.09863</ele>
        <time>2013-05-30T18:13:00Z</time>
      </trkpt>
      <trkpt lat="59.8371219" lon="17.6910951">
        <ele>1.09863</ele>
        <time>2013-05-30T18:13:01Z</time>
      </trkpt>
      <trkpt lat="59.8370562" lon="17.6911481">
        <ele>1.09863</ele>
        <time>2013-05-30T18:13:02Z</time>
      </trkpt>
      <trkpt lat="59.8369903" lon="17.691199">
        <ele>1.09863</ele>
        <time>2013-05-30T18:13:03Z</time>
      </trkpt>
      <trkpt lat="59.8369232" lon="17.6912468">
        <ele>1.09863</ele>
        <time>2013-05-30T18:13:04Z</time>
      </trkpt>
      <trkpt lat="59.8368569" lon="17.6912917">
        <ele>1.09863</ele>
        <time>2013-05-30T18:13:05Z</time>
      </trkpt>
      <trkpt lat="59.8367963" lon="17.6913265">
        <ele>1.57935</ele>
        <time>2013-05-30T18:13:06Z</time>
      </trkpt>
      <trkpt lat="59.8367297" lon="17.6913643">
        <ele>1.57935</ele>
        <time>2013-05-30T18:13:07Z</time>
      </trkpt>
      <trkpt lat="59.8366621" lon="17.6913963">
        <ele>1.09863</ele>
        <time>2013-05-30T18:13:08Z</time>
      </trkpt>
      <trkpt lat="59.8365957" lon="17.6914172">
        <ele>1.09863</ele>
        <time>2013-05-30T18:13:09Z</time>
      </trkpt>
      <trkpt lat="59.8365274" lon="17.6914368">
        <ele>1.09863</ele>
        <time>2013-05-30T18:13:10Z</time>
      </trkpt>
      <trkpt lat="59.8364614" lon="17.6914565">
        <ele>1.09863</ele>
        <time>2013-05-30T18:13:11Z</time>
      </trkpt>
      <trkpt lat="59.8364023" lon="17.691486">
        <ele>0.618042</ele>
        <time>2013-05-30T18:13:12Z</time>
      </trkpt>
      <trkpt lat="59.8363417" lon="17.691556">
        <ele>0.618042</ele>
        <time>2013-05-30T18:13:13Z</time>
      </trkpt>
      <trkpt lat="59.8362958" lon="17.6916584">
        <ele>0</ele>
        <time>2013-05-30T18:13:14Z</time>
      </trkpt>
      <trkpt lat="59.836276" lon="17.6917777">
        <ele>0</ele>
        <time>2013-05-30T18:13:15Z</time>
      </trkpt>
      <trkpt lat="59.8362619" lon="17.6919002">
        <ele>0</ele>
        <time>2013-05-30T18:13:16Z</time>
      </trkpt>
      <trkpt lat="59.83624" lon="17.6920205">
        <ele>0</ele>
        <time>2013-05-30T18:13:17Z</time>
      </trkpt>
      <trkpt lat="59.8362011" lon="17.6921205">
        <ele>0</ele>
        <time>2013-05-30T18:13:18Z</time>
      </trkpt>
      <trkpt lat="59.8361553" lon="17.6922033">
        <ele>0</ele>
        <time>2013-05-30T18:13:19Z</time>
      </trkpt>
      <trkpt lat="59.8361026" lon="17.6922604">
        <ele>0</ele>
        <time>2013-05-30T18:13:20Z</time>
      </trkpt>
      <trkpt lat="59.836043" lon="17.6922957">
        <ele>0</ele>
        <time>2013-05-30T18:13:21Z</time>
      </trkpt>
      <trkpt lat="59.8359877" lon="17.6923055">
        <ele>0</ele>
        <time>2013-05-30T18:13:22Z</time>
      </trkpt>
      <trkpt lat="59.8359265" lon="17.6923138">
        <ele>0</ele>
        <time>2013-05-30T18:13:23Z</time>
      </trkpt>
      <trkpt lat="59.8358607" lon="17.6923221">
        <ele>0</ele>
        <time>2013-05-30T18:13:24Z</time>
      </trkpt>
      <trkpt lat="59.8357958" lon="17.6923267">
        <ele>0</ele>
        <time>2013-05-30T18:13:25Z</time>
      </trkpt>
      <trkpt lat="59.8357276" lon="17.6923349">
        <ele>0</ele>
        <time>2013-05-30T18:13:26Z</time>
      </trkpt>
      <trkpt lat="59.8356574" lon="17.6923454">
        <ele>0</ele>
        <time>2013-05-30T18:13:27Z</time>
      </trkpt>
      <trkpt lat="59.8355861" lon="17.6923571">
        <ele>0</ele>
        <time>2013-05-30T18:13:28Z</time>
      </trkpt>
      <trkpt lat="59.8355136" lon="17.6923691">
        <ele>0</ele>
        <time>2013-05-30T18:13:29Z</time>
      </trkpt>
      <trkpt lat="59.8354442" lon="17.6923827">
        <ele>0</ele>
        <time>2013-05-30T18:13:30Z</time>
      </trkpt>
      <trkpt lat="59.8353742" lon="17.6923944">
        <ele>0</ele>
        <time>2013-05-30T18:13:31Z</time>
      </trkpt>
      <trkpt lat="59.8353037" lon="17.6924036">
        <ele>0</ele>
        <time>2013-05-30T18:13:32Z</time>
      </trkpt>
      <trkpt lat="59.8352307" lon="17.6924144">
        <ele>0</ele>
        <time>2013-05-30T18:13:33Z</time>
      </trkpt>
      <trkpt lat="59.835157" lon="17.692426">
        <ele>0</ele>
        <time>2013-05-30T18:13:34Z</time>
      </trkpt>
      <trkpt lat="59.8350827" lon="17.6924392">
        <ele>0</ele>
        <time>2013-05-30T18:13:35Z</time>
      </trkpt>
      <trkpt lat="59.8350089" lon="17.6924515">
        <ele>0</ele>
        <time>2013-05-30T18:13:36Z</time>
      </trkpt>
      <trkpt lat="59.8349355" lon="17.6924646">
        <ele>0</ele>
        <time>2013-05-30T18:13:37Z</time>
      </trkpt>
      <trkpt lat="59.834863" lon="17.6924851">
        <ele>0</ele>
        <time>2013-05-30T18:13:38Z</time>
      </trkpt>
      <trkpt lat="59.8347978" lon="17.6925076">
        <ele>0</ele>
        <time>2013-05-30T18:13:39Z</time>
      </trkpt>
      <trkpt lat="59.8347304" lon="17.6925405">
        <ele>0</ele>
        <time>2013-05-30T18:13:40Z</time>
      </trkpt>
      <trkpt lat="59.8346636" lon="17.692578">
        <ele>0</ele>
        <time>2013-05-30T18:13:41Z</time>
      </trkpt>
      <trkpt lat="59.8345978" lon="17.6926213">
        <ele>0</ele>
        <time>2013-05-30T18:13:42Z</time>
      </trkpt>
      <trkpt lat="59.8345304" lon="17.6926754">
        <ele>0</ele>
        <time>2013-05-30T18:13:43Z</time>
      </trkpt>
      <trkpt lat="59.834464" lon="17.6927356">
        <ele>0</ele>
        <time>2013-05-30T18:13:44Z</time>
      </trkpt>
      <trkpt lat="59.8343995" lon="17.6928013">
        <ele>0</ele>
        <time>2013-05-30T18:13:45Z</time>
      </trkpt>
      <trkpt lat="59.8343376" lon="17.6928696">
        <ele>0</ele>
        <time>2013-05-30T18:13:46Z</time>
      </trkpt>
      <trkpt lat="59.8342786" lon="17.6929391">
        <ele>0</ele>
        <time>2013-05-30T18:13:47Z</time>
      </trkpt>
      <trkpt lat="59.834223" lon="17.6930085">
        <ele>0</ele>
        <time>2013-05-30T18:13:48Z</time>
      </trkpt>
      <trkpt lat="59.8341683" lon="17.693085">
        <ele>0</ele>
        <time>2013-05-30T18:13:49Z</time>
      </trkpt>
      <trkpt lat="59.8341148" lon="17.6931706">
        <ele>0</ele>
        <time>2013-05-30T18:13:50Z</time>
      </trkpt>
      <trkpt lat="59.8340659" lon="17.6932583">
        <ele>0</ele>
        <time>2013-05-30T18:13:51Z</time>
      </trkpt>
      <trkpt lat="59.83402" lon="17.6933463">
        <ele>0</ele>
        <time>2013-05-30T18:13:52Z</time>
      </trkpt>
      <trkpt lat="59.8339736" lon="17.6934403">
        <ele>0</ele>
        <time>2013-05-30T18:13:53Z</time>
      </trkpt>
      <trkpt lat="59.8339289" lon="17.6935285">
        <ele>0</ele>
        <time>2013-05-30T18:13:54Z</time>
      </trkpt>
      <trkpt lat="59.8338798" lon="17.6936226">
        <ele>0</ele>
        <time>2013-05-30T18:13:55Z</time>
      </trkpt>
      <trkpt lat="59.8338311" lon="17.6937157">
        <ele>0</ele>
        <time>2013-05-30T18:13:56Z</time>
      </trkpt>
      <trkpt lat="59.8337845" lon="17.6938078">
        <ele>0</ele>
        <time>2013-05-30T18:13:57Z</time>
      </trkpt>
      <trkpt lat="59.8337405" lon="17.6938972">
        <ele>0</ele>
        <time>2013-05-30T18:13:58Z</time>
      </trkpt>
      <trkpt lat="59.8337014" lon="17.6939775">
        <ele>0</ele>
        <time>2013-05-30T18:13:59Z</time>
      </trkpt>
      <trkpt lat="59.833661" lon="17.6940591">
        <ele>0</ele>
        <time>2013-05-30T18:14:00Z</time>
      </trkpt>
      <trkpt lat="59.8336115" lon="17.6941543">
        <ele>0</ele>
        <time>2013-05-30T18:14:01Z</time>
      </trkpt>
      <trkpt lat="59.8335592" lon="17.6942548">
        <ele>0</ele>
        <time>2013-05-30T18:14:02Z</time>
      </trkpt>
      <trkpt lat="59.8335125" lon="17.6943455">
        <ele>0</ele>
        <time>2013-05-30T18:14:03Z</time>
      </trkpt>
      <trkpt lat="59.8334654" lon="17.6944402">
        <ele>0</ele>
        <time>2013-05-30T18:14:04Z</time>
      </trkpt>
      <trkpt lat="59.8334253" lon="17.6945231">
        <ele>0</ele>
        <time>2013-05-30T18:14:05Z</time>
      </trkpt>
      <trkpt lat="59.83338" lon="17.6946154">
        <ele>0.137451</ele>
        <time>2013-05-30T18:14:06Z</time>
      </trkpt>
      <trkpt lat="59.8333329" lon="17.6947094">
        <ele>0.618042</ele>
        <time>2013-05-30T18:14:07Z</time>
      </trkpt>
      <trkpt lat="59.833285" lon="17.6948035">
        <ele>0.618042</ele>
        <time>2013-05-30T18:14:08Z</time>
      </trkpt>
      <trkpt lat="59.8332389" lon="17.6948971">
        <ele>1.09863</ele>
        <time>2013-05-30T18:14:09Z</time>
      </trkpt>
      <trkpt lat="59.8331928" lon="17.6949886">
        <ele>1.09863</ele>
        <time>2013-05-30T18:14:10Z</time>
      </trkpt>
      <trkpt lat="59.8331459" lon="17.6950798">
        <ele>1.09863</ele>
        <time>2013-05-30T18:14:11Z</time>
      </trkpt>
      <trkpt lat="59.8330986" lon="17.6951707">
        <ele>1.57935</ele>
        <time>2013-05-30T18:14:12Z</time>
      </trkpt>
      <trkpt lat="59.8330523" lon="17.6952613">
        <ele>1.57935</ele>
        <time>2013-05-30T18:14:13Z</time>
      </trkpt>
      <trkpt lat="59.8330053" lon="17.6953526">
        <ele>1.09863</ele>
        <time>2013-05-30T18:14:14Z</time>
      </trkpt>
      <trkpt lat="59.8329582" lon="17.6954441">
        <ele>1.09863</ele>
        <time>2013-05-30T18:14:15Z</time>
      </trkpt>
      <trkpt lat="59.8329111" lon="17.6955367">
        <ele>1.09863</ele>
        <time>2013-05-30T18:14:16Z</time>
      </trkpt>
      <trkpt lat="59.8328631" lon="17.6956312">
        <ele>0.618042</ele>
        <time>2013-05-30T18:14:17Z</time>
      </trkpt>
      <trkpt lat="59.8328153" lon="17.695726">
        <ele>0.618042</ele>
        <time>2013-05-30T18:14:18Z</time>
      </trkpt>
      <trkpt lat="59.8327685" lon="17.6958192">
        <ele>0.618042</ele>
        <time>2013-05-30T18:14:19Z</time>
      </trkpt>
      <trkpt lat="59.8327239" lon="17.6959114">
        <ele>0.618042</ele>
        <time>2013-05-30T18:14:20Z</time>
      </trkpt>
      <trkpt lat="59.8326792" lon="17.6960062">
        <ele>0.618042</ele>
        <time>2013-05-30T18:14:21Z</time>
      </trkpt>
      <trkpt lat="59.8326354" lon="17.6961046">
        <ele>1.09863</ele>
        <time>2013-05-30T18:14:22Z</time>
      </trkpt>
      <trkpt lat="59.8325929" lon="17.6962025">
        <ele>0.618042</ele>
        <time>2013-05-30T18:14:23Z</time>
      </trkpt>
      <trkpt lat="59.8325511" lon="17.6962992">
        <ele>0.618042</ele>
        <time>2013-05-30T18:14:24Z</time>
      </trkpt>
      <trkpt lat="59.8325096" lon="17.6963988">
        <ele>1.09863</ele>
        <time>2013-05-30T18:14:25Z</time>
      </trkpt>
      <trkpt lat="59.8324668" lon="17.6965026">
        <ele>1.09863</ele>
        <time>2013-05-30T18:14:26Z</time>
      </trkpt>
      <trkpt lat="59.8324258" lon="17.6966086">
        <ele>1.09863</ele>
        <time>2013-05-30T18:14:27Z</time>
      </trkpt>
      <trkpt lat="59.8323852" lon="17.6967153">
        <ele>1.09863</ele>
        <time>2013-05-30T18:14:28Z</time>
      </trkpt>
      <trkpt lat="59.8323455" lon="17.6968217">
        <ele>1.09863</ele>
        <time>2013-05-30T18:14:29Z</time>
      </trkpt>
      <trkpt lat="59.8323061" lon="17.696931">
        <ele>1.09863</ele>
        <time>2013-05-30T18:14:30Z</time>
      </trkpt>
      <trkpt lat="59.8322663" lon="17.6970431">
        <ele>1.09863</ele>
        <time>2013-05-30T18:14:31Z</time>
      </trkpt>
      <trkpt lat="59.8322271" lon="17.6971562">
        <ele>1.09863</ele>
        <time>2013-05-30T18:14:32Z</time>
      </trkpt>
      <trkpt lat="59.8321902" lon="17.6972638">
        <ele>1.09863</ele>
        <time>2013-05-30T18:14:33Z</time>
      </trkpt>
      <trkpt lat="59.8321554" lon="17.6973699">
        <ele>1.57935</ele>
        <time>2013-05-30T18:14:34Z</time>
      </trkpt>
      <trkpt lat="59.832121" lon="17.6974767">
        <ele>1.57935</ele>
        <time>2013-05-30T18:14:35Z</time>
      </trkpt>
      <trkpt lat="59.8320865" lon="17.6975857">
        <ele>2.06006</ele>
        <time>2013-05-30T18:14:36Z</time>
      </trkpt>
      <trkpt lat="59.8320522" lon="17.697698">
        <ele>2.06006</ele>
        <time>2013-05-30T18:14:37Z</time>
      </trkpt>
      <trkpt lat="59.8320182" lon="17.6978142">
        <ele>2.06006</ele>
        <time>2013-05-30T18:14:38Z</time>
      </trkpt>
      <trkpt lat="59.8319856" lon="17.6979309">
        <ele>2.54065</ele>
        <time>2013-05-30T18:14:39Z</time>
      </trkpt>
      <trkpt lat="59.8319542" lon="17.6980464">
        <ele>2.54065</ele>
        <time>2013-05-30T18:14:40Z</time>
      </trkpt>
      <trkpt lat="59.8319227" lon="17.6981611">
        <ele>2.54065</ele>
        <time>2013-05-30T18:14:41Z</time>
      </trkpt>
      <trkpt lat="59.8318921" lon="17.6982761">
        <ele>2.54065</ele>
        <time>2013-05-30T18:14:42Z</time>
      </trkpt>
      <trkpt lat="59.8318575" lon="17.6983982">
        <ele>2.54065</ele>
        <time>2013-05-30T18:14:43Z</time>
      </trkpt>
      <trkpt lat="59.8318203" lon="17.6985218">
        <ele>2.06006</ele>
        <time>2013-05-30T18:14:44Z</time>
      </trkpt>
      <trkpt lat="59.8318003" lon="17.6986211">
        <ele>3.02124</ele>
        <time>2013-05-30T18:14:45Z</time>
      </trkpt>
      <trkpt lat="59.8317703" lon="17.6987326">
        <ele>3.50195</ele>
        <time>2013-05-30T18:14:46Z</time>
      </trkpt>
      <trkpt lat="59.8317378" lon="17.6988464">
        <ele>3.50195</ele>
        <time>2013-05-30T18:14:47Z</time>
      </trkpt>
      <trkpt lat="59.8317057" lon="17.698959">
        <ele>3.50195</ele>
        <time>2013-05-30T18:14:48Z</time>
      </trkpt>
      <trkpt lat="59.8316783" lon="17.6990713">
        <ele>3.50195</ele>
        <time>2013-05-30T18:14:49Z</time>
      </trkpt>
      <trkpt lat="59.8316513" lon="17.6991821">
        <ele>3.50195</ele>
        <time>2013-05-30T18:14:50Z</time>
      </trkpt>
      <trkpt lat="59.8316218" lon="17.6992946">
        <ele>3.50195</ele>
        <time>2013-05-30T18:14:51Z</time>
      </trkpt>
      <trkpt lat="59.8315912" lon="17.6994086">
        <ele>3.50195</ele>
        <time>2013-05-30T18:14:52Z</time>
      </trkpt>
      <trkpt lat="59.8315616" lon="17.6995234">
        <ele>3.50195</ele>
        <time>2013-05-30T18:14:53Z</time>
      </trkpt>
      <trkpt lat="59.8315309" lon="17.6996391">
        <ele>3.02124</ele>
        <time>2013-05-30T18:14:54Z</time>
      </trkpt>
      <trkpt lat="59.8314984" lon="17.6997564">
        <ele>2.54065</ele>
        <time>2013-05-30T18:14:55Z</time>
      </trkpt>
      <trkpt lat="59.8314674" lon="17.6998701">
        <ele>2.54065</ele>
        <time>2013-05-30T18:14:56Z</time>
      </trkpt>
      <trkpt lat="59.8314358" lon="17.6999848">
        <ele>2.54065</ele>
        <time>2013-05-30T18:14:57Z</time>
      </trkpt>
      <trkpt lat="59.8314046" lon="17.7000989">
        <ele>2.54065</ele>
        <time>2013-05-30T18:14:58Z</time>
      </trkpt>
      <trkpt lat="59.8313737" lon="17.700212">
        <ele>2.54065</ele>
        <time>2013-05-30T18:14:59Z</time>
      </trkpt>
      <trkpt lat="59.8313427" lon="17.7003252">
        <ele>2.54065</ele>
        <time>2013-05-30T18:15:00Z</time>
      </trkpt>
      <trkpt lat="59.8313119" lon="17.7004384">
        <ele>2.54065</ele>
        <time>2013-05-30T18:15:01Z</time>
      </trkpt>
      <trkpt lat="59.8312811" lon="17.7005534">
        <ele>2.54065</ele>
        <time>2013-05-30T18:15:02Z</time>
      </trkpt>
      <trkpt lat="59.8312499" lon="17.7006696">
        <ele>2.54065</ele>
        <time>2013-05-30T18:15:03Z</time>
      </trkpt>
      <trkpt lat="59.8312186" lon="17.700786">
        <ele>2.54065</ele>
        <time>2013-05-30T18:15:04Z</time>
      </trkpt>
      <trkpt lat="59.8311873" lon="17.7009038">
        <ele>2.54065</ele>
        <time>2013-05-30T18:15:05Z</time>
      </trkpt>
      <trkpt lat="59.831155" lon="17.7010222">
        <ele>2.54065</ele>
        <time>2013-05-30T18:15:06Z</time>
      </trkpt>
      <trkpt lat="59.8311224" lon="17.7011417">
        <ele>2.54065</ele>
        <time>2013-05-30T18:15:07Z</time>
      </trkpt>
      <trkpt lat="59.8310909" lon="17.7012605">
        <ele>2.54065</ele>
        <time>2013-05-30T18:15:08Z</time>
      </trkpt>
      <trkpt lat="59.8310597" lon="17.7013776">
        <ele>2.54065</ele>
        <time>2013-05-30T18:15:09Z</time>
      </trkpt>
      <trkpt lat="59.8310282" lon="17.7014943">
        <ele>2.54065</ele>
        <time>2013-05-30T18:15:10Z</time>
      </trkpt>
      <trkpt lat="59.8309975" lon="17.7016114">
        <ele>2.54065</ele>
        <time>2013-05-30T18:15:11Z</time>
      </trkpt>
      <trkpt lat="59.830967" lon="17.7017276">
        <ele>2.54065</ele>
        <time>2013-05-30T18:15:12Z</time>
      </trkpt>
      <trkpt lat="59.8309355" lon="17.7018442">
        <ele>2.54065</ele>
        <time>2013-05-30T18:15:13Z</time>
      </trkpt>
      <trkpt lat="59.8309038" lon="17.7019627">
        <ele>2.54065</ele>
        <time>2013-05-30T18:15:14Z</time>
      </trkpt>
      <trkpt lat="59.8308702" lon="17.7020838">
        <ele>2.54065</ele>
        <time>2013-05-30T18:15:15Z</time>
      </trkpt>
      <trkpt lat="59.8308354" lon="17.7022048">
        <ele>2.54065</ele>
        <time>2013-05-30T18:15:16Z</time>
      </trkpt>
      <trkpt lat="59.8308028" lon="17.7023222">
        <ele>2.54065</ele>
        <time>2013-05-30T18:15:17Z</time>
      </trkpt>
      <trkpt lat="59.8307702" lon="17.7024397">
        <ele>2.54065</ele>
        <time>2013-05-30T18:15:18Z</time>
      </trkpt>
      <trkpt lat="59.8307384" lon="17.7025568">
        <ele>2.54065</ele>
        <time>2013-05-30T18:15:19Z</time>
      </trkpt>
      <trkpt lat="59.8307073" lon="17.7026734">
        <ele>2.54065</ele>
        <time>2013-05-30T18:15:20Z</time>
      </trkpt>
      <trkpt lat="59.8306762" lon="17.7027891">
        <ele>3.02124</ele>
        <time>2013-05-30T18:15:21Z</time>
      </trkpt>
      <trkpt lat="59.8306443" lon="17.7029046">
        <ele>3.02124</ele>
        <time>2013-05-30T18:15:22Z</time>
      </trkpt>
      <trkpt lat="59.8306132" lon="17.7030207">
        <ele>3.02124</ele>
        <time>2013-05-30T18:15:23Z</time>
      </trkpt>
      <trkpt lat="59.830582" lon="17.7031362">
        <ele>3.02124</ele>
        <time>2013-05-30T18:15:24Z</time>
      </trkpt>
      <trkpt lat="59.8305505" lon="17.7032515">
        <ele>3.02124</ele>
        <time>2013-05-30T18:15:25Z</time>
      </trkpt>
      <trkpt lat="59.8305199" lon="17.7033669">
        <ele>3.50195</ele>
        <time>2013-05-30T18:15:26Z</time>
      </trkpt>
      <trkpt lat="59.8304879" lon="17.7034837">
        <ele>3.50195</ele>
        <time>2013-05-30T18:15:27Z</time>
      </trkpt>
      <trkpt lat="59.8304562" lon="17.7035997">
        <ele>3.50195</ele>
        <time>2013-05-30T18:15:28Z</time>
      </trkpt>
      <trkpt lat="59.8304253" lon="17.7037136">
        <ele>3.50195</ele>
        <time>2013-05-30T18:15:29Z</time>
      </trkpt>
      <trkpt lat="59.830396" lon="17.7038262">
        <ele>3.98267</ele>
        <time>2013-05-30T18:15:30Z</time>
      </trkpt>
      <trkpt lat="59.830366" lon="17.7039375">
        <ele>3.98267</ele>
        <time>2013-05-30T18:15:31Z</time>
      </trkpt>
      <trkpt lat="59.830335" lon="17.7040497">
        <ele>3.98267</ele>
        <time>2013-05-30T18:15:32Z</time>
      </trkpt>
      <trkpt lat="59.830304" lon="17.7041631">
        <ele>3.98267</ele>
        <time>2013-05-30T18:15:33Z</time>
      </trkpt>
      <trkpt lat="59.8302727" lon="17.7042777">
        <ele>3.98267</ele>
        <time>2013-05-30T18:15:34Z</time>
      </trkpt>
      <trkpt lat="59.8302417" lon="17.7043918">
        <ele>3.98267</ele>
        <time>2013-05-30T18:15:35Z</time>
      </trkpt>
      <trkpt lat="59.8302112" lon="17.7045057">
        <ele>3.98267</ele>
        <time>2013-05-30T18:15:36Z</time>
      </trkpt>
      <trkpt lat="59.83018" lon="17.704619">
        <ele>3.98267</ele>
        <time>2013-05-30T18:15:37Z</time>
      </trkpt>
      <trkpt lat="59.8301487" lon="17.7047336">
        <ele>3.98267</ele>
        <time>2013-05-30T18:15:38Z</time>
      </trkpt>
      <trkpt lat="59.8301181" lon="17.7048492">
        <ele>3.98267</ele>
        <time>2013-05-30T18:15:39Z</time>
      </trkpt>
      <trkpt lat="59.8300869" lon="17.7049658">
        <ele>3.98267</ele>
        <time>2013-05-30T18:15:40Z</time>
      </trkpt>
      <trkpt lat="59.8300546" lon="17.7050827">
        <ele>3.98267</ele>
        <time>2013-05-30T18:15:41Z</time>
      </trkpt>
      <trkpt lat="59.8300218" lon="17.7052009">
        <ele>3.98267</ele>
        <time>2013-05-30T18:15:42Z</time>
      </trkpt>
      <trkpt lat="59.8299901" lon="17.7053205">
        <ele>3.50195</ele>
        <time>2013-05-30T18:15:43Z</time>
      </trkpt>
      <trkpt lat="59.8299586" lon="17.7054401">
        <ele>3.50195</ele>
        <time>2013-05-30T18:15:44Z</time>
      </trkpt>
      <trkpt lat="59.8299267" lon="17.7055595">
        <ele>3.50195</ele>
        <time>2013-05-30T18:15:45Z</time>
      </trkpt>
      <trkpt lat="59.8298948" lon="17.7056793">
        <ele>3.50195</ele>
        <time>2013-05-30T18:15:46Z</time>
      </trkpt>
      <trkpt lat="59.8298632" lon="17.705798">
        <ele>3.50195</ele>
        <time>2013-05-30T18:15:47Z</time>
      </trkpt>
      <trkpt lat="59.8298321" lon="17.7059153">
        <ele>3.50195</ele>
        <time>2013-05-30T18:15:48Z</time>
      </trkpt>
      <trkpt lat="59.8298013" lon="17.7060322">
        <ele>3.50195</ele>
        <time>2013-05-30T18:15:49Z</time>
      </trkpt>
      <trkpt lat="59.8297699" lon="17.7061503">
        <ele>3.50195</ele>
        <time>2013-05-30T18:15:50Z</time>
      </trkpt>
      <trkpt lat="59.8297387" lon="17.706269">
        <ele>3.50195</ele>
        <time>2013-05-30T18:15:51Z</time>
      </trkpt>
      <trkpt lat="59.8297075" lon="17.7063864">
        <ele>3.50195</ele>
        <time>2013-05-30T18:15:52Z</time>
      </trkpt>
      <trkpt lat="59.8296763" lon="17.706503">
        <ele>3.50195</ele>
        <time>2013-05-30T18:15:53Z</time>
      </trkpt>
      <trkpt lat="59.8296451" lon="17.7066181">
        <ele>3.02124</ele>
        <time>2013-05-30T18:15:54Z</time>
      </trkpt>
      <trkpt lat="59.8295834" lon="17.7068492">
        <ele>3.02124</ele>
        <time>2013-05-30T18:15:55Z</time>
      </trkpt>
      <trkpt lat="59.8295513" lon="17.7069674">
        <ele>3.02124</ele>
        <time>2013-05-30T18:15:56Z</time>
      </trkpt>
      <trkpt lat="59.8295196" lon="17.7070868">
        <ele>3.02124</ele>
        <time>2013-05-30T18:15:57Z</time>
      </trkpt>
      <trkpt lat="59.8294881" lon="17.7072061">
        <ele>3.02124</ele>
        <time>2013-05-30T18:15:58Z</time>
      </trkpt>
      <trkpt lat="59.8294565" lon="17.7073258">
        <ele>3.02124</ele>
        <time>2013-05-30T18:15:59Z</time>
      </trkpt>
      <trkpt lat="59.8294245" lon="17.7074444">
        <ele>3.02124</ele>
        <time>2013-05-30T18:16:00Z</time>
      </trkpt>
      <trkpt lat="59.8293931" lon="17.7075625">
        <ele>3.02124</ele>
        <time>2013-05-30T18:16:01Z</time>
      </trkpt>
      <trkpt lat="59.8293613" lon="17.7076812">
        <ele>3.02124</ele>
        <time>2013-05-30T18:16:02Z</time>
      </trkpt>
      <trkpt lat="59.8293302" lon="17.7077993">
        <ele>3.02124</ele>
        <time>2013-05-30T18:16:03Z</time>
      </trkpt>
      <trkpt lat="59.8292997" lon="17.7079154">
        <ele>3.02124</ele>
        <time>2013-05-30T18:16:04Z</time>
      </trkpt>
      <trkpt lat="59.8292721" lon="17.7080344">
        <ele>3.02124</ele>
        <time>2013-05-30T18:16:05Z</time>
      </trkpt>
      <trkpt lat="59.8292441" lon="17.7081105">
        <ele>3.50195</ele>
        <time>2013-05-30T18:16:06Z</time>
      </trkpt>
      <trkpt lat="59.8292167" lon="17.7082245">
        <ele>3.50195</ele>
        <time>2013-05-30T18:16:07Z</time>
      </trkpt>
      <trkpt lat="59.8291855" lon="17.7083636">
        <ele>3.50195</ele>
        <time>2013-05-30T18:16:08Z</time>
      </trkpt>
      <trkpt lat="59.8291557" lon="17.7084962">
        <ele>3.50195</ele>
        <time>2013-05-30T18:16:09Z</time>
      </trkpt>
      <trkpt lat="59.8291302" lon="17.708626">
        <ele>3.50195</ele>
        <time>2013-05-30T18:16:10Z</time>
      </trkpt>
      <trkpt lat="59.829108" lon="17.7087485">
        <ele>3.50195</ele>
        <time>2013-05-30T18:16:11Z</time>
      </trkpt>
      <trkpt lat="59.8290959" lon="17.7088816">
        <ele>4.46326</ele>
        <time>2013-05-30T18:16:12Z</time>
      </trkpt>
      <trkpt lat="59.8290806" lon="17.709014">
        <ele>4.94385</ele>
        <time>2013-05-30T18:16:13Z</time>
      </trkpt>
      <trkpt lat="59.8290611" lon="17.7091444">
        <ele>5.42456</ele>
        <time>2013-05-30T18:16:14Z</time>
      </trkpt>
      <trkpt lat="59.8290417" lon="17.7092714">
        <ele>5.42456</ele>
        <time>2013-05-30T18:16:15Z</time>
      </trkpt>
      <trkpt lat="59.8290251" lon="17.7094034">
        <ele>5.42456</ele>
        <time>2013-05-30T18:16:16Z</time>
      </trkpt>
      <trkpt lat="59.8290043" lon="17.7095273">
        <ele>5.90527</ele>
        <time>2013-05-30T18:16:17Z</time>
      </trkpt>
      <trkpt lat="59.8289835" lon="17.7096464">
        <ele>5.90527</ele>
        <time>2013-05-30T18:16:18Z</time>
      </trkpt>
      <trkpt lat="59.8289642" lon="17.7097656">
        <ele>5.90527</ele>
        <time>2013-05-30T18:16:19Z</time>
      </trkpt>
      <trkpt lat="59.8289459" lon="17.7098847">
        <ele>5.90527</ele>
        <time>2013-05-30T18:16:20Z</time>
      </trkpt>
      <trkpt lat="59.8289276" lon="17.7100052">
        <ele>5.90527</ele>
        <time>2013-05-30T18:16:21Z</time>
      </trkpt>
      <trkpt lat="59.8289095" lon="17.7101278">
        <ele>6.38586</ele>
        <time>2013-05-30T18:16:22Z</time>
      </trkpt>
      <trkpt lat="59.8288907" lon="17.7102515">
        <ele>6.38586</ele>
        <time>2013-05-30T18:16:23Z</time>
      </trkpt>
      <trkpt lat="59.828872" lon="17.7103757">
        <ele>6.38586</ele>
        <time>2013-05-30T18:16:24Z</time>
      </trkpt>
      <trkpt lat="59.8288533" lon="17.7105037">
        <ele>5.90527</ele>
        <time>2013-05-30T18:16:25Z</time>
      </trkpt>
      <trkpt lat="59.8288352" lon="17.7106347">
        <ele>5.90527</ele>
        <time>2013-05-30T18:16:26Z</time>
      </trkpt>
      <trkpt lat="59.8288138" lon="17.7107634">
        <ele>6.38586</ele>
        <time>2013-05-30T18:16:27Z</time>
      </trkpt>
      <trkpt lat="59.8287909" lon="17.7108912">
        <ele>6.38586</ele>
        <time>2013-05-30T18:16:28Z</time>
      </trkpt>
      <trkpt lat="59.8287706" lon="17.7110212">
        <ele>6.38586</ele>
        <time>2013-05-30T18:16:29Z</time>
      </trkpt>
      <trkpt lat="59.8287499" lon="17.7111522">
        <ele>6.38586</ele>
        <time>2013-05-30T18:16:30Z</time>
      </trkpt>
      <trkpt lat="59.8287334" lon="17.7112911">
        <ele>7.34717</ele>
        <time>2013-05-30T18:16:31Z</time>
      </trkpt>
      <trkpt lat="59.8287169" lon="17.7114299">
        <ele>7.82788</ele>
        <time>2013-05-30T18:16:32Z</time>
      </trkpt>
      <trkpt lat="59.828695" lon="17.7115666">
        <ele>8.30859</ele>
        <time>2013-05-30T18:16:33Z</time>
      </trkpt>
      <trkpt lat="59.8286711" lon="17.7116962">
        <ele>9.2699</ele>
        <time>2013-05-30T18:16:34Z</time>
      </trkpt>
      <trkpt lat="59.8286475" lon="17.7118185">
        <ele>9.2699</ele>
        <time>2013-05-30T18:16:35Z</time>
      </trkpt>
      <trkpt lat="59.8286237" lon="17.7119329">
        <ele>9.2699</ele>
        <time>2013-05-30T18:16:36Z</time>
      </trkpt>
      <trkpt lat="59.8286021" lon="17.7120488">
        <ele>9.2699</ele>
        <time>2013-05-30T18:16:37Z</time>
      </trkpt>
      <trkpt lat="59.8285946" lon="17.7121544">
        <ele>9.75061</ele>
        <time>2013-05-30T18:16:38Z</time>
      </trkpt>
      <trkpt lat="59.828575" lon="17.7122726">
        <ele>9.75061</ele>
        <time>2013-05-30T18:16:39Z</time>
      </trkpt>
      <trkpt lat="59.8285562" lon="17.7123846">
        <ele>9.2699</ele>
        <time>2013-05-30T18:16:40Z</time>
      </trkpt>
      <trkpt lat="59.8285365" lon="17.712509">
        <ele>8.78918</ele>
        <time>2013-05-30T18:16:41Z</time>
      </trkpt>
      <trkpt lat="59.8285139" lon="17.7126526">
        <ele>8.78918</ele>
        <time>2013-05-30T18:16:42Z</time>
      </trkpt>
      <trkpt lat="59.8284959" lon="17.7127934">
        <ele>9.75061</ele>
        <time>2013-05-30T18:16:43Z</time>
      </trkpt>
      <trkpt lat="59.8284744" lon="17.7129302">
        <ele>9.2699</ele>
        <time>2013-05-30T18:16:44Z</time>
      </trkpt>
      <trkpt lat="59.8284511" lon="17.7130638">
        <ele>8.78918</ele>
        <time>2013-05-30T18:16:45Z</time>
      </trkpt>
      <trkpt lat="59.8284257" lon="17.7131974">
        <ele>8.30859</ele>
        <time>2013-05-30T18:16:46Z</time>
      </trkpt>
      <trkpt lat="59.8284019" lon="17.7133299">
        <ele>7.34717</ele>
        <time>2013-05-30T18:16:47Z</time>
      </trkpt>
      <trkpt lat="59.828389" lon="17.7134637">
        <ele>7.82788</ele>
        <time>2013-05-30T18:16:48Z</time>
      </trkpt>
      <trkpt lat="59.8283683" lon="17.7135884">
        <ele>7.34717</ele>
        <time>2013-05-30T18:16:49Z</time>
      </trkpt>
      <trkpt lat="59.828349" lon="17.7137137">
        <ele>7.34717</ele>
        <time>2013-05-30T18:16:50Z</time>
      </trkpt>
      <trkpt lat="59.8283309" lon="17.7138407">
        <ele>7.34717</ele>
        <time>2013-05-30T18:16:51Z</time>
      </trkpt>
      <trkpt lat="59.8283122" lon="17.7139683">
        <ele>7.34717</ele>
        <time>2013-05-30T18:16:52Z</time>
      </trkpt>
      <trkpt lat="59.8282911" lon="17.7140949">
        <ele>6.38586</ele>
        <time>2013-05-30T18:16:53Z</time>
      </trkpt>
      <trkpt lat="59.8282725" lon="17.7142195">
        <ele>6.38586</ele>
        <time>2013-05-30T18:16:54Z</time>
      </trkpt>
      <trkpt lat="59.8282537" lon="17.7143417">
        <ele>5.90527</ele>
        <time>2013-05-30T18:16:55Z</time>
      </trkpt>
      <trkpt lat="59.8282336" lon="17.7144642">
        <ele>5.90527</ele>
        <time>2013-05-30T18:16:56Z</time>
      </trkpt>
      <trkpt lat="59.8282112" lon="17.7145877">
        <ele>5.90527</ele>
        <time>2013-05-30T18:16:57Z</time>
      </trkpt>
      <trkpt lat="59.8281896" lon="17.7147125">
        <ele>5.90527</ele>
        <time>2013-05-30T18:16:58Z</time>
      </trkpt>
      <trkpt lat="59.8281682" lon="17.7148369">
        <ele>5.90527</ele>
        <time>2013-05-30T18:16:59Z</time>
      </trkpt>
      <trkpt lat="59.8281461" lon="17.7149616">
        <ele>5.42456</ele>
        <time>2013-05-30T18:17:00Z</time>
      </trkpt>
      <trkpt lat="59.8281237" lon="17.7150871">
        <ele>5.42456</ele>
        <time>2013-05-30T18:17:01Z</time>
      </trkpt>
      <trkpt lat="59.8281023" lon="17.7152135">
        <ele>5.90527</ele>
        <time>2013-05-30T18:17:02Z</time>
      </trkpt>
      <trkpt lat="59.8280815" lon="17.7153394">
        <ele>5.90527</ele>
        <time>2013-05-30T18:17:03Z</time>
      </trkpt>
      <trkpt lat="59.8280619" lon="17.7154671">
        <ele>5.90527</ele>
        <time>2013-05-30T18:17:04Z</time>
      </trkpt>
      <trkpt lat="59.8280406" lon="17.7155947">
        <ele>6.38586</ele>
        <time>2013-05-30T18:17:05Z</time>
      </trkpt>
      <trkpt lat="59.8280195" lon="17.7157236">
        <ele>6.38586</ele>
        <time>2013-05-30T18:17:06Z</time>
      </trkpt>
      <trkpt lat="59.8279979" lon="17.7158549">
        <ele>6.86646</ele>
        <time>2013-05-30T18:17:07Z</time>
      </trkpt>
      <trkpt lat="59.8279758" lon="17.7159869">
        <ele>6.86646</ele>
        <time>2013-05-30T18:17:08Z</time>
      </trkpt>
      <trkpt lat="59.8279533" lon="17.7161178">
        <ele>6.86646</ele>
        <time>2013-05-30T18:17:09Z</time>
      </trkpt>
      <trkpt lat="59.8279315" lon="17.7162457">
        <ele>7.34717</ele>
        <time>2013-05-30T18:17:10Z</time>
      </trkpt>
      <trkpt lat="59.8279097" lon="17.7163728">
        <ele>7.34717</ele>
        <time>2013-05-30T18:17:11Z</time>
      </trkpt>
      <trkpt lat="59.8278878" lon="17.7165002">
        <ele>7.34717</ele>
        <time>2013-05-30T18:17:12Z</time>
      </trkpt>
      <trkpt lat="59.8278637" lon="17.7166265">
        <ele>7.34717</ele>
        <time>2013-05-30T18:17:13Z</time>
      </trkpt>
      <trkpt lat="59.8278408" lon="17.7167531">
        <ele>7.34717</ele>
        <time>2013-05-30T18:17:14Z</time>
      </trkpt>
      <trkpt lat="59.8278173" lon="17.7168794">
        <ele>7.82788</ele>
        <time>2013-05-30T18:17:15Z</time>
      </trkpt>
      <trkpt lat="59.8277948" lon="17.7170082">
        <ele>7.82788</ele>
        <time>2013-05-30T18:17:16Z</time>
      </trkpt>
      <trkpt lat="59.8277726" lon="17.717139">
        <ele>7.82788</ele>
        <time>2013-05-30T18:17:17Z</time>
      </trkpt>
      <trkpt lat="59.8277491" lon="17.7172699">
        <ele>7.82788</ele>
        <time>2013-05-30T18:17:18Z</time>
      </trkpt>
      <trkpt lat="59.8277243" lon="17.717399">
        <ele>7.82788</ele>
        <time>2013-05-30T18:17:19Z</time>
      </trkpt>
      <trkpt lat="59.8277009" lon="17.7175273">
        <ele>7.82788</ele>
        <time>2013-05-30T18:17:20Z</time>
      </trkpt>
      <trkpt lat="59.8276777" lon="17.7176553">
        <ele>7.82788</ele>
        <time>2013-05-30T18:17:21Z</time>
      </trkpt>
      <trkpt lat="59.8276549" lon="17.7177818">
        <ele>7.82788</ele>
        <time>2013-05-30T18:17:22Z</time>
      </trkpt>
      <trkpt lat="59.8276322" lon="17.7179077">
        <ele>7.82788</ele>
        <time>2013-05-30T18:17:23Z</time>
      </trkpt>
      <trkpt lat="59.8276096" lon="17.7180345">
        <ele>7.82788</ele>
        <time>2013-05-30T18:17:24Z</time>
      </trkpt>
      <trkpt lat="59.8275875" lon="17.7181593">
        <ele>8.30859</ele>
        <time>2013-05-30T18:17:25Z</time>
      </trkpt>
      <trkpt lat="59.8275658" lon="17.7182823">
        <ele>8.30859</ele>
        <time>2013-05-30T18:17:26Z</time>
      </trkpt>
      <trkpt lat="59.8275438" lon="17.718406">
        <ele>8.30859</ele>
        <time>2013-05-30T18:17:27Z</time>
      </trkpt>
      <trkpt lat="59.8275218" lon="17.7185289">
        <ele>8.30859</ele>
        <time>2013-05-30T18:17:28Z</time>
      </trkpt>
      <trkpt lat="59.8275016" lon="17.7186532">
        <ele>8.78918</ele>
        <time>2013-05-30T18:17:29Z</time>
      </trkpt>
      <trkpt lat="59.8274783" lon="17.718773">
        <ele>8.78918</ele>
        <time>2013-05-30T18:17:30Z</time>
      </trkpt>
      <trkpt lat="59.8274559" lon="17.7188945">
        <ele>8.30859</ele>
        <time>2013-05-30T18:17:31Z</time>
      </trkpt>
      <trkpt lat="59.8274332" lon="17.7190152">
        <ele>8.30859</ele>
        <time>2013-05-30T18:17:32Z</time>
      </trkpt>
      <trkpt lat="59.827411" lon="17.7191351">
        <ele>8.30859</ele>
        <time>2013-05-30T18:17:33Z</time>
      </trkpt>
      <trkpt lat="59.8273896" lon="17.7192584">
        <ele>8.30859</ele>
        <time>2013-05-30T18:17:34Z</time>
      </trkpt>
      <trkpt lat="59.827367" lon="17.7193824">
        <ele>7.82788</ele>
        <time>2013-05-30T18:17:35Z</time>
      </trkpt>
      <trkpt lat="59.8273444" lon="17.7195058">
        <ele>7.82788</ele>
        <time>2013-05-30T18:17:36Z</time>
      </trkpt>
      <trkpt lat="59.8273218" lon="17.7196312">
        <ele>7.82788</ele>
        <time>2013-05-30T18:17:37Z</time>
      </trkpt>
      <trkpt lat="59.8272999" lon="17.7197583">
        <ele>7.82788</ele>
        <time>2013-05-30T18:17:38Z</time>
      </trkpt>
      <trkpt lat="59.8272771" lon="17.7198864">
        <ele>7.82788</ele>
        <time>2013-05-30T18:17:39Z</time>
      </trkpt>
      <trkpt lat="59.8272524" lon="17.7200139">
        <ele>7.34717</ele>
        <time>2013-05-30T18:17:40Z</time>
      </trkpt>
      <trkpt lat="59.827233" lon="17.7201378">
        <ele>7.82788</ele>
        <time>2013-05-30T18:17:41Z</time>
      </trkpt>
      <trkpt lat="59.8272116" lon="17.7202683">
        <ele>7.82788</ele>
        <time>2013-05-30T18:17:42Z</time>
      </trkpt>
      <trkpt lat="59.8271926" lon="17.7204029">
        <ele>7.82788</ele>
        <time>2013-05-30T18:17:43Z</time>
      </trkpt>
      <trkpt lat="59.8271695" lon="17.7205358">
        <ele>7.82788</ele>
        <time>2013-05-30T18:17:44Z</time>
      </trkpt>
      <trkpt lat="59.8271446" lon="17.7206665">
        <ele>7.34717</ele>
        <time>2013-05-30T18:17:45Z</time>
      </trkpt>
      <trkpt lat="59.827123" lon="17.7207985">
        <ele>7.82788</ele>
        <time>2013-05-30T18:17:46Z</time>
      </trkpt>
      <trkpt lat="59.8271042" lon="17.7209249">
        <ele>7.82788</ele>
        <time>2013-05-30T18:17:47Z</time>
      </trkpt>
      <trkpt lat="59.8270838" lon="17.7210494">
        <ele>8.30859</ele>
        <time>2013-05-30T18:17:48Z</time>
      </trkpt>
      <trkpt lat="59.8270624" lon="17.7211722">
        <ele>8.30859</ele>
        <time>2013-05-30T18:17:49Z</time>
      </trkpt>
      <trkpt lat="59.827042" lon="17.7212922">
        <ele>8.30859</ele>
        <time>2013-05-30T18:17:50Z</time>
      </trkpt>
      <trkpt lat="59.8270212" lon="17.7214131">
        <ele>8.30859</ele>
        <time>2013-05-30T18:17:51Z</time>
      </trkpt>
      <trkpt lat="59.8270018" lon="17.7215361">
        <ele>9.2699</ele>
        <time>2013-05-30T18:17:52Z</time>
      </trkpt>
      <trkpt lat="59.8269788" lon="17.7216605">
        <ele>8.78918</ele>
        <time>2013-05-30T18:17:53Z</time>
      </trkpt>
      <trkpt lat="59.8269551" lon="17.7217834">
        <ele>8.78918</ele>
        <time>2013-05-30T18:17:54Z</time>
      </trkpt>
      <trkpt lat="59.8269333" lon="17.7219057">
        <ele>8.30859</ele>
        <time>2013-05-30T18:17:55Z</time>
      </trkpt>
      <trkpt lat="59.8269116" lon="17.7220295">
        <ele>8.78918</ele>
        <time>2013-05-30T18:17:56Z</time>
      </trkpt>
      <trkpt lat="59.8268906" lon="17.7221521">
        <ele>8.78918</ele>
        <time>2013-05-30T18:17:57Z</time>
      </trkpt>
      <trkpt lat="59.8268668" lon="17.7222727">
        <ele>8.78918</ele>
        <time>2013-05-30T18:17:58Z</time>
      </trkpt>
      <trkpt lat="59.8268432" lon="17.7223922">
        <ele>8.78918</ele>
        <time>2013-05-30T18:17:59Z</time>
      </trkpt>
      <trkpt lat="59.8268219" lon="17.7225103">
        <ele>8.30859</ele>
        <time>2013-05-30T18:18:00Z</time>
      </trkpt>
      <trkpt lat="59.8268015" lon="17.7226226">
        <ele>8.30859</ele>
        <time>2013-05-30T18:18:01Z</time>
      </trkpt>
      <trkpt lat="59.8267819" lon="17.7227346">
        <ele>8.30859</ele>
        <time>2013-05-30T18:18:02Z</time>
      </trkpt>
      <trkpt lat="59.8267603" lon="17.7228474">
        <ele>8.30859</ele>
        <time>2013-05-30T18:18:03Z</time>
      </trkpt>
      <trkpt lat="59.8267376" lon="17.7229629">
        <ele>8.30859</ele>
        <time>2013-05-30T18:18:04Z</time>
      </trkpt>
      <trkpt lat="59.8267157" lon="17.7230805">
        <ele>7.82788</ele>
        <time>2013-05-30T18:18:05Z</time>
      </trkpt>
      <trkpt lat="59.8266954" lon="17.7232001">
        <ele>8.30859</ele>
        <time>2013-05-30T18:18:06Z</time>
      </trkpt>
      <trkpt lat="59.8266747" lon="17.7233174">
        <ele>8.30859</ele>
        <time>2013-05-30T18:18:07Z</time>
      </trkpt>
      <trkpt lat="59.8266547" lon="17.7234331">
        <ele>7.82788</ele>
        <time>2013-05-30T18:18:08Z</time>
      </trkpt>
      <trkpt lat="59.8266368" lon="17.7235411">
        <ele>7.82788</ele>
        <time>2013-05-30T18:18:09Z</time>
      </trkpt>
      <trkpt lat="59.8266193" lon="17.7236503">
        <ele>7.82788</ele>
        <time>2013-05-30T18:18:10Z</time>
      </trkpt>
      <trkpt lat="59.8266021" lon="17.7237659">
        <ele>8.30859</ele>
        <time>2013-05-30T18:18:11Z</time>
      </trkpt>
      <trkpt lat="59.8265836" lon="17.7238802">
        <ele>8.30859</ele>
        <time>2013-05-30T18:18:12Z</time>
      </trkpt>
      <trkpt lat="59.8265645" lon="17.7239949">
        <ele>8.30859</ele>
        <time>2013-05-30T18:18:13Z</time>
      </trkpt>
      <trkpt lat="59.8265463" lon="17.7241125">
        <ele>8.30859</ele>
        <time>2013-05-30T18:18:14Z</time>
      </trkpt>
      <trkpt lat="59.8265272" lon="17.7242315">
        <ele>8.30859</ele>
        <time>2013-05-30T18:18:15Z</time>
      </trkpt>
      <trkpt lat="59.8265097" lon="17.724349">
        <ele>8.30859</ele>
        <time>2013-05-30T18:18:16Z</time>
      </trkpt>
      <trkpt lat="59.8264943" lon="17.7244652">
        <ele>8.30859</ele>
        <time>2013-05-30T18:18:17Z</time>
      </trkpt>
      <trkpt lat="59.8264795" lon="17.7245791">
        <ele>8.30859</ele>
        <time>2013-05-30T18:18:18Z</time>
      </trkpt>
      <trkpt lat="59.8264655" lon="17.7246915">
        <ele>8.30859</ele>
        <time>2013-05-30T18:18:19Z</time>
      </trkpt>
      <trkpt lat="59.8264522" lon="17.7248039">
        <ele>8.30859</ele>
        <time>2013-05-30T18:18:20Z</time>
      </trkpt>
      <trkpt lat="59.8264402" lon="17.724918">
        <ele>8.30859</ele>
        <time>2013-05-30T18:18:21Z</time>
      </trkpt>
      <trkpt lat="59.8264303" lon="17.7250355">
        <ele>8.78918</ele>
        <time>2013-05-30T18:18:22Z</time>
      </trkpt>
      <trkpt lat="59.8264199" lon="17.725156">
        <ele>8.78918</ele>
        <time>2013-05-30T18:18:23Z</time>
      </trkpt>
      <trkpt lat="59.8264149" lon="17.7252732">
        <ele>8.78918</ele>
        <time>2013-05-30T18:18:24Z</time>
      </trkpt>
      <trkpt lat="59.8264085" lon="17.7253878">
        <ele>8.78918</ele>
        <time>2013-05-30T18:18:25Z</time>
      </trkpt>
      <trkpt lat="59.8264029" lon="17.7255046">
        <ele>8.78918</ele>
        <time>2013-05-30T18:18:26Z</time>
      </trkpt>
      <trkpt lat="59.8263971" lon="17.7256265">
        <ele>8.78918</ele>
        <time>2013-05-30T18:18:27Z</time>
      </trkpt>
      <trkpt lat="59.8263899" lon="17.7257517">
        <ele>8.30859</ele>
        <time>2013-05-30T18:18:28Z</time>
      </trkpt>
      <trkpt lat="59.8263847" lon="17.7258807">
        <ele>8.30859</ele>
        <time>2013-05-30T18:18:29Z</time>
      </trkpt>
      <trkpt lat="59.8263797" lon="17.7260126">
        <ele>8.78918</ele>
        <time>2013-05-30T18:18:30Z</time>
      </trkpt>
      <trkpt lat="59.8263713" lon="17.7261466">
        <ele>8.30859</ele>
        <time>2013-05-30T18:18:31Z</time>
      </trkpt>
      <trkpt lat="59.8263649" lon="17.7262817">
        <ele>8.78918</ele>
        <time>2013-05-30T18:18:32Z</time>
      </trkpt>
      <trkpt lat="59.8263593" lon="17.7264155">
        <ele>8.30859</ele>
        <time>2013-05-30T18:18:33Z</time>
      </trkpt>
      <trkpt lat="59.8263529" lon="17.726542">
        <ele>7.82788</ele>
        <time>2013-05-30T18:18:34Z</time>
      </trkpt>
      <trkpt lat="59.82635" lon="17.7266678">
        <ele>7.82788</ele>
        <time>2013-05-30T18:18:35Z</time>
      </trkpt>
      <trkpt lat="59.826349" lon="17.726791">
        <ele>7.82788</ele>
        <time>2013-05-30T18:18:36Z</time>
      </trkpt>
      <trkpt lat="59.8263459" lon="17.7269156">
        <ele>7.82788</ele>
        <time>2013-05-30T18:18:37Z</time>
      </trkpt>
      <trkpt lat="59.826342" lon="17.7270324">
        <ele>7.82788</ele>
        <time>2013-05-30T18:18:38Z</time>
      </trkpt>
      <trkpt lat="59.8263351" lon="17.727149">
        <ele>7.82788</ele>
        <time>2013-05-30T18:18:39Z</time>
      </trkpt>
      <trkpt lat="59.8263298" lon="17.7272695">
        <ele>7.82788</ele>
        <time>2013-05-30T18:18:40Z</time>
      </trkpt>
      <trkpt lat="59.826324" lon="17.7273966">
        <ele>7.34717</ele>
        <time>2013-05-30T18:18:41Z</time>
      </trkpt>
      <trkpt lat="59.8263224" lon="17.7275334">
        <ele>7.82788</ele>
        <time>2013-05-30T18:18:42Z</time>
      </trkpt>
      <trkpt lat="59.8263189" lon="17.7276691">
        <ele>7.82788</ele>
        <time>2013-05-30T18:18:43Z</time>
      </trkpt>
      <trkpt lat="59.8263146" lon="17.7278067">
        <ele>7.82788</ele>
        <time>2013-05-30T18:18:44Z</time>
      </trkpt>
      <trkpt lat="59.8263092" lon="17.7279468">
        <ele>7.82788</ele>
        <time>2013-05-30T18:18:45Z</time>
      </trkpt>
      <trkpt lat="59.8263045" lon="17.728089">
        <ele>8.30859</ele>
        <time>2013-05-30T18:18:46Z</time>
      </trkpt>
      <trkpt lat="59.8262993" lon="17.72823">
        <ele>8.30859</ele>
        <time>2013-05-30T18:18:47Z</time>
      </trkpt>
      <trkpt lat="59.8262933" lon="17.7283709">
        <ele>8.30859</ele>
        <time>2013-05-30T18:18:48Z</time>
      </trkpt>
      <trkpt lat="59.8262873" lon="17.7285104">
        <ele>8.30859</ele>
        <time>2013-05-30T18:18:49Z</time>
      </trkpt>
      <trkpt lat="59.826279" lon="17.7286485">
        <ele>8.30859</ele>
        <time>2013-05-30T18:18:50Z</time>
      </trkpt>
      <trkpt lat="59.8262729" lon="17.7287802">
        <ele>8.30859</ele>
        <time>2013-05-30T18:18:51Z</time>
      </trkpt>
      <trkpt lat="59.8262641" lon="17.7289088">
        <ele>8.30859</ele>
        <time>2013-05-30T18:18:52Z</time>
      </trkpt>
      <trkpt lat="59.8262438" lon="17.7290464">
        <ele>7.34717</ele>
        <time>2013-05-30T18:18:53Z</time>
      </trkpt>
      <trkpt lat="59.8262226" lon="17.7291847">
        <ele>7.34717</ele>
        <time>2013-05-30T18:18:54Z</time>
      </trkpt>
      <trkpt lat="59.8262001" lon="17.729322">
        <ele>7.34717</ele>
        <time>2013-05-30T18:18:55Z</time>
      </trkpt>
      <trkpt lat="59.8261708" lon="17.7294563">
        <ele>7.34717</ele>
        <time>2013-05-30T18:18:56Z</time>
      </trkpt>
      <trkpt lat="59.8261395" lon="17.7295899">
        <ele>7.34717</ele>
        <time>2013-05-30T18:18:57Z</time>
      </trkpt>
      <trkpt lat="59.8261049" lon="17.7297215">
        <ele>7.34717</ele>
        <time>2013-05-30T18:18:58Z</time>
      </trkpt>
      <trkpt lat="59.8260652" lon="17.7298488">
        <ele>7.82788</ele>
        <time>2013-05-30T18:18:59Z</time>
      </trkpt>
      <trkpt lat="59.8260222" lon="17.7299737">
        <ele>7.82788</ele>
        <time>2013-05-30T18:19:00Z</time>
      </trkpt>
      <trkpt lat="59.8259765" lon="17.7300927">
        <ele>7.82788</ele>
        <time>2013-05-30T18:19:01Z</time>
      </trkpt>
      <trkpt lat="59.8259257" lon="17.7302078">
        <ele>7.34717</ele>
        <time>2013-05-30T18:19:02Z</time>
      </trkpt>
      <trkpt lat="59.8258729" lon="17.730315">
        <ele>7.34717</ele>
        <time>2013-05-30T18:19:03Z</time>
      </trkpt>
      <trkpt lat="59.8258192" lon="17.7304155">
        <ele>7.34717</ele>
        <time>2013-05-30T18:19:04Z</time>
      </trkpt>
      <trkpt lat="59.825767" lon="17.7305049">
        <ele>7.82788</ele>
        <time>2013-05-30T18:19:05Z</time>
      </trkpt>
      <trkpt lat="59.8257134" lon="17.7305879">
        <ele>8.30859</ele>
        <time>2013-05-30T18:19:06Z</time>
      </trkpt>
      <trkpt lat="59.8256586" lon="17.7306657">
        <ele>8.78918</ele>
        <time>2013-05-30T18:19:07Z</time>
      </trkpt>
      <trkpt lat="59.8255967" lon="17.730749">
        <ele>8.30859</ele>
        <time>2013-05-30T18:19:08Z</time>
      </trkpt>
      <trkpt lat="59.8255366" lon="17.7308273">
        <ele>7.34717</ele>
        <time>2013-05-30T18:19:09Z</time>
      </trkpt>
      <trkpt lat="59.8254728" lon="17.7309076">
        <ele>6.86646</ele>
        <time>2013-05-30T18:19:10Z</time>
      </trkpt>
      <trkpt lat="59.8254154" lon="17.7309815">
        <ele>5.90527</ele>
        <time>2013-05-30T18:19:11Z</time>
      </trkpt>
      <trkpt lat="59.8253591" lon="17.7310554">
        <ele>5.90527</ele>
        <time>2013-05-30T18:19:12Z</time>
      </trkpt>
      <trkpt lat="59.8253001" lon="17.7311324">
        <ele>5.42456</ele>
        <time>2013-05-30T18:19:13Z</time>
      </trkpt>
      <trkpt lat="59.8252423" lon="17.731208">
        <ele>5.42456</ele>
        <time>2013-05-30T18:19:14Z</time>
      </trkpt>
      <trkpt lat="59.8251832" lon="17.7312842">
        <ele>5.42456</ele>
        <time>2013-05-30T18:19:15Z</time>
      </trkpt>
      <trkpt lat="59.8251257" lon="17.7313619">
        <ele>5.42456</ele>
        <time>2013-05-30T18:19:16Z</time>
      </trkpt>
      <trkpt lat="59.825067" lon="17.7314405">
        <ele>5.90527</ele>
        <time>2013-05-30T18:19:17Z</time>
      </trkpt>
      <trkpt lat="59.8250037" lon="17.7315206">
        <ele>5.42456</ele>
        <time>2013-05-30T18:19:18Z</time>
      </trkpt>
      <trkpt lat="59.8249411" lon="17.7316019">
        <ele>4.94385</ele>
        <time>2013-05-30T18:19:19Z</time>
      </trkpt>
      <trkpt lat="59.8248821" lon="17.7316791">
        <ele>4.94385</ele>
        <time>2013-05-30T18:19:20Z</time>
      </trkpt>
      <trkpt lat="59.8248219" lon="17.731759">
        <ele>4.94385</ele>
        <time>2013-05-30T18:19:21Z</time>
      </trkpt>
      <trkpt lat="59.8247631" lon="17.7318381">
        <ele>4.46326</ele>
        <time>2013-05-30T18:19:22Z</time>
      </trkpt>
      <trkpt lat="59.8247053" lon="17.7319148">
        <ele>4.46326</ele>
        <time>2013-05-30T18:19:23Z</time>
      </trkpt>
      <trkpt lat="59.8246559" lon="17.7319798">
        <ele>4.46326</ele>
        <time>2013-05-30T18:19:24Z</time>
      </trkpt>
      <trkpt lat="59.8246053" lon="17.732041">
        <ele>4.46326</ele>
        <time>2013-05-30T18:19:25Z</time>
      </trkpt>
      <trkpt lat="59.8245596" lon="17.732096">
        <ele>4.46326</ele>
        <time>2013-05-30T18:19:26Z</time>
      </trkpt>
      <trkpt lat="59.8245171" lon="17.7321453">
        <ele>3.98267</ele>
        <time>2013-05-30T18:19:27Z</time>
      </trkpt>
      <trkpt lat="59.8244748" lon="17.7321909">
        <ele>3.98267</ele>
        <time>2013-05-30T18:19:28Z</time>
      </trkpt>
      <trkpt lat="59.8244339" lon="17.7322322">
        <ele>3.50195</ele>
        <time>2013-05-30T18:19:29Z</time>
      </trkpt>
      <trkpt lat="59.8243939" lon="17.7322701">
        <ele>3.50195</ele>
        <time>2013-05-30T18:19:30Z</time>
      </trkpt>
      <trkpt lat="59.8243544" lon="17.7323083">
        <ele>2.54065</ele>
        <time>2013-05-30T18:19:31Z</time>
      </trkpt>
      <trkpt lat="59.8243211" lon="17.732343">
        <ele>1.57935</ele>
        <time>2013-05-30T18:19:32Z</time>
      </trkpt>
      <trkpt lat="59.8242883" lon="17.7323751">
        <ele>0.618042</ele>
        <time>2013-05-30T18:19:33Z</time>
      </trkpt>
      <trkpt lat="59.8242577" lon="17.7324064">
        <ele>0.137451</ele>
        <time>2013-05-30T18:19:34Z</time>
      </trkpt>
      <trkpt lat="59.8242429" lon="17.7324229">
        <ele>0.618042</ele>
        <time>2013-05-30T18:19:35Z</time>
      </trkpt>
      <trkpt lat="59.8242246" lon="17.7324451">
        <ele>1.09863</ele>
        <time>2013-05-30T18:19:36Z</time>
      </trkpt>
      <trkpt lat="59.824207" lon="17.7324693">
        <ele>1.57935</ele>
        <time>2013-05-30T18:19:37Z</time>
      </trkpt>
      <trkpt lat="59.8241837" lon="17.732498">
        <ele>1.09863</ele>
        <time>2013-05-30T18:19:38Z</time>
      </trkpt>
      <trkpt lat="59.8241643" lon="17.7325238">
        <ele>0.618042</ele>
        <time>2013-05-30T18:19:39Z</time>
      </trkpt>
      <trkpt lat="59.8241459" lon="17.73255">
        <ele>0.137451</ele>
        <time>2013-05-30T18:19:40Z</time>
      </trkpt>
      <trkpt lat="59.8241289" lon="17.7325736">
        <ele>0.137451</ele>
        <time>2013-05-30T18:19:41Z</time>
      </trkpt>
      <trkpt lat="59.8241136" lon="17.7325938">
        <ele>0</ele>
        <time>2013-05-30T18:19:42Z</time>
      </trkpt>
      <trkpt lat="59.8241001" lon="17.7326114">
        <ele>0</ele>
        <time>2013-05-30T18:19:43Z</time>
      </trkpt>
      <trkpt lat="59.8240882" lon="17.7326273">
        <ele>0</ele>
        <time>2013-05-30T18:19:44Z</time>
      </trkpt>
      <trkpt lat="59.8240809" lon="17.7326373">
        <ele>0</ele>
        <time>2013-05-30T18:19:45Z</time>
      </trkpt>
      <trkpt lat="59.8240792" lon="17.7326412">
        <ele>0</ele>
        <time>2013-05-30T18:19:46Z</time>
      </trkpt>
      <trkpt lat="59.8240797" lon="17.7326417">
        <ele>0</ele>
        <time>2013-05-30T18:19:47Z</time>
      </trkpt>
      <trkpt lat="59.8241134" lon="17.7326974">
        <ele>6.38586</ele>
        <time>2013-05-30T18:23:51Z</time>
      </trkpt>
      <trkpt lat="59.8240966" lon="17.7327198">
        <ele>6.38586</ele>
        <time>2013-05-30T18:23:52Z</time>
      </trkpt>
      <trkpt lat="59.8240802" lon="17.732744">
        <ele>6.38586</ele>
        <time>2013-05-30T18:23:53Z</time>
      </trkpt>
      <trkpt lat="59.8240625" lon="17.732775">
        <ele>6.38586</ele>
        <time>2013-05-30T18:23:54Z</time>
      </trkpt>
      <trkpt lat="59.8240428" lon="17.7328081">
        <ele>6.38586</ele>
        <time>2013-05-30T18:23:55Z</time>
      </trkpt>
      <trkpt lat="59.824022" lon="17.732842">
        <ele>6.38586</ele>
        <time>2013-05-30T18:23:56Z</time>
      </trkpt>
      <trkpt lat="59.8239978" lon="17.7328802">
        <ele>6.38586</ele>
        <time>2013-05-30T18:23:57Z</time>
      </trkpt>
      <trkpt lat="59.8239688" lon="17.7329227">
        <ele>6.38586</ele>
        <time>2013-05-30T18:23:58Z</time>
      </trkpt>
      <trkpt lat="59.8239355" lon="17.7329696">
        <ele>6.86646</ele>
        <time>2013-05-30T18:23:59Z</time>
      </trkpt>
      <trkpt lat="59.8238972" lon="17.7330175">
        <ele>6.38586</ele>
        <time>2013-05-30T18:24:00Z</time>
      </trkpt>
      <trkpt lat="59.8238563" lon="17.7330696">
        <ele>6.86646</ele>
        <time>2013-05-30T18:24:01Z</time>
      </trkpt>
      <trkpt lat="59.8238154" lon="17.733122">
        <ele>6.86646</ele>
        <time>2013-05-30T18:24:02Z</time>
      </trkpt>
      <trkpt lat="59.8237735" lon="17.7331755">
        <ele>6.86646</ele>
        <time>2013-05-30T18:24:03Z</time>
      </trkpt>
      <trkpt lat="59.823731" lon="17.7332298">
        <ele>6.86646</ele>
        <time>2013-05-30T18:24:04Z</time>
      </trkpt>
      <trkpt lat="59.8236874" lon="17.7332865">
        <ele>7.34717</ele>
        <time>2013-05-30T18:24:05Z</time>
      </trkpt>
      <trkpt lat="59.8236406" lon="17.7333474">
        <ele>6.86646</ele>
        <time>2013-05-30T18:24:06Z</time>
      </trkpt>
      <trkpt lat="59.823595" lon="17.7334066">
        <ele>7.34717</ele>
        <time>2013-05-30T18:24:07Z</time>
      </trkpt>
      <trkpt lat="59.8235515" lon="17.7334643">
        <ele>7.34717</ele>
        <time>2013-05-30T18:24:08Z</time>
      </trkpt>
      <trkpt lat="59.8235077" lon="17.7335216">
        <ele>7.34717</ele>
        <time>2013-05-30T18:24:09Z</time>
      </trkpt>
      <trkpt lat="59.8234635" lon="17.7335795">
        <ele>7.34717</ele>
        <time>2013-05-30T18:24:10Z</time>
      </trkpt>
      <trkpt lat="59.8234196" lon="17.7336375">
        <ele>7.82788</ele>
        <time>2013-05-30T18:24:11Z</time>
      </trkpt>
      <trkpt lat="59.8233745" lon="17.7336976">
        <ele>7.82788</ele>
        <time>2013-05-30T18:24:12Z</time>
      </trkpt>
      <trkpt lat="59.823331" lon="17.7337563">
        <ele>7.82788</ele>
        <time>2013-05-30T18:24:13Z</time>
      </trkpt>
      <trkpt lat="59.8232886" lon="17.7338147">
        <ele>7.82788</ele>
        <time>2013-05-30T18:24:14Z</time>
      </trkpt>
      <trkpt lat="59.8232425" lon="17.7338754">
        <ele>7.82788</ele>
        <time>2013-05-30T18:24:15Z</time>
      </trkpt>
      <trkpt lat="59.8231957" lon="17.7339366">
        <ele>7.82788</ele>
        <time>2013-05-30T18:24:16Z</time>
      </trkpt>
      <trkpt lat="59.8231464" lon="17.734">
        <ele>7.82788</ele>
        <time>2013-05-30T18:24:17Z</time>
      </trkpt>
      <trkpt lat="59.8231024" lon="17.7340608">
        <ele>7.82788</ele>
        <time>2013-05-30T18:24:18Z</time>
      </trkpt>
      <trkpt lat="59.8230512" lon="17.7341282">
        <ele>7.34717</ele>
        <time>2013-05-30T18:24:19Z</time>
      </trkpt>
      <trkpt lat="59.8230021" lon="17.7341921">
        <ele>7.34717</ele>
        <time>2013-05-30T18:24:20Z</time>
      </trkpt>
      <trkpt lat="59.8229524" lon="17.7342585">
        <ele>7.34717</ele>
        <time>2013-05-30T18:24:21Z</time>
      </trkpt>
      <trkpt lat="59.8229036" lon="17.7343247">
        <ele>7.34717</ele>
        <time>2013-05-30T18:24:22Z</time>
      </trkpt>
      <trkpt lat="59.8228524" lon="17.7343918">
        <ele>7.34717</ele>
        <time>2013-05-30T18:24:23Z</time>
      </trkpt>
      <trkpt lat="59.822803" lon="17.7344626">
        <ele>7.82788</ele>
        <time>2013-05-30T18:24:24Z</time>
      </trkpt>
      <trkpt lat="59.822753" lon="17.7345321">
        <ele>7.82788</ele>
        <time>2013-05-30T18:24:25Z</time>
      </trkpt>
      <trkpt lat="59.8227016" lon="17.7346012">
        <ele>7.82788</ele>
        <time>2013-05-30T18:24:26Z</time>
      </trkpt>
      <trkpt lat="59.8226488" lon="17.73467">
        <ele>7.82788</ele>
        <time>2013-05-30T18:24:27Z</time>
      </trkpt>
      <trkpt lat="59.8225953" lon="17.7347383">
        <ele>7.82788</ele>
        <time>2013-05-30T18:24:28Z</time>
      </trkpt>
      <trkpt lat="59.8225425" lon="17.7348082">
        <ele>7.82788</ele>
        <time>2013-05-30T18:24:29Z</time>
      </trkpt>
      <trkpt lat="59.8224901" lon="17.7348801">
        <ele>7.82788</ele>
        <time>2013-05-30T18:24:30Z</time>
      </trkpt>
      <trkpt lat="59.82244" lon="17.7349505">
        <ele>7.82788</ele>
        <time>2013-05-30T18:24:31Z</time>
      </trkpt>
      <trkpt lat="59.8223872" lon="17.7350215">
        <ele>7.34717</ele>
        <time>2013-05-30T18:24:32Z</time>
      </trkpt>
      <trkpt lat="59.8223332" lon="17.7350931">
        <ele>7.34717</ele>
        <time>2013-05-30T18:24:33Z</time>
      </trkpt>
      <trkpt lat="59.8222819" lon="17.7351629">
        <ele>6.86646</ele>
        <time>2013-05-30T18:24:34Z</time>
      </trkpt>
      <trkpt lat="59.8222281" lon="17.7352376">
        <ele>6.38586</ele>
        <time>2013-05-30T18:24:35Z</time>
      </trkpt>
      <trkpt lat="59.8221806" lon="17.7353019">
        <ele>5.90527</ele>
        <time>2013-05-30T18:24:36Z</time>
      </trkpt>
      <trkpt lat="59.8221292" lon="17.7353737">
        <ele>5.42456</ele>
        <time>2013-05-30T18:24:37Z</time>
      </trkpt>
      <trkpt lat="59.8220807" lon="17.7354377">
        <ele>4.94385</ele>
        <time>2013-05-30T18:24:38Z</time>
      </trkpt>
      <trkpt lat="59.8220324" lon="17.7355014">
        <ele>3.98267</ele>
        <time>2013-05-30T18:24:39Z</time>
      </trkpt>
      <trkpt lat="59.8219868" lon="17.7355667">
        <ele>4.46326</ele>
        <time>2013-05-30T18:24:40Z</time>
      </trkpt>
      <trkpt lat="59.8219418" lon="17.7356296">
        <ele>4.46326</ele>
        <time>2013-05-30T18:24:41Z</time>
      </trkpt>
      <trkpt lat="59.8218831" lon="17.7357018">
        <ele>3.98267</ele>
        <time>2013-05-30T18:24:42Z</time>
      </trkpt>
      <trkpt lat="59.8218235" lon="17.7357738">
        <ele>3.98267</ele>
        <time>2013-05-30T18:24:43Z</time>
      </trkpt>
      <trkpt lat="59.8217693" lon="17.7358443">
        <ele>3.98267</ele>
        <time>2013-05-30T18:24:44Z</time>
      </trkpt>
      <trkpt lat="59.8217174" lon="17.7359178">
        <ele>3.98267</ele>
        <time>2013-05-30T18:24:45Z</time>
      </trkpt>
      <trkpt lat="59.821665" lon="17.7359874">
        <ele>3.50195</ele>
        <time>2013-05-30T18:24:46Z</time>
      </trkpt>
      <trkpt lat="59.8216075" lon="17.7360586">
        <ele>3.02124</ele>
        <time>2013-05-30T18:24:47Z</time>
      </trkpt>
      <trkpt lat="59.8215435" lon="17.7361367">
        <ele>2.54065</ele>
        <time>2013-05-30T18:24:48Z</time>
      </trkpt>
      <trkpt lat="59.821488" lon="17.7362062">
        <ele>2.06006</ele>
        <time>2013-05-30T18:24:49Z</time>
      </trkpt>
      <trkpt lat="59.821437" lon="17.7362701">
        <ele>1.09863</ele>
        <time>2013-05-30T18:24:50Z</time>
      </trkpt>
      <trkpt lat="59.8213875" lon="17.7363362">
        <ele>0.618042</ele>
        <time>2013-05-30T18:24:51Z</time>
      </trkpt>
      <trkpt lat="59.8213362" lon="17.7364052">
        <ele>0.618042</ele>
        <time>2013-05-30T18:24:52Z</time>
      </trkpt>
      <trkpt lat="59.8212844" lon="17.7364746">
        <ele>0.618042</ele>
        <time>2013-05-30T18:24:53Z</time>
      </trkpt>
      <trkpt lat="59.8212347" lon="17.7365413">
        <ele>0.137451</ele>
        <time>2013-05-30T18:24:54Z</time>
      </trkpt>
      <trkpt lat="59.8211799" lon="17.7366114">
        <ele>0</ele>
        <time>2013-05-30T18:24:55Z</time>
      </trkpt>
      <trkpt lat="59.8211202" lon="17.7366835">
        <ele>0</ele>
        <time>2013-05-30T18:24:56Z</time>
      </trkpt>
      <trkpt lat="59.8210669" lon="17.7367504">
        <ele>0</ele>
        <time>2013-05-30T18:24:57Z</time>
      </trkpt>
      <trkpt lat="59.8210112" lon="17.7368212">
        <ele>0</ele>
        <time>2013-05-30T18:24:58Z</time>
      </trkpt>
      <trkpt lat="59.8209648" lon="17.7368855">
        <ele>0</ele>
        <time>2013-05-30T18:24:59Z</time>
      </trkpt>
      <trkpt lat="59.8209174" lon="17.7369601">
        <ele>0</ele>
        <time>2013-05-30T18:25:00Z</time>
      </trkpt>
      <trkpt lat="59.8208819" lon="17.737014">
        <ele>0</ele>
        <time>2013-05-30T18:25:01Z</time>
      </trkpt>
      <trkpt lat="59.8208452" lon="17.7370606">
        <ele>0</ele>
        <time>2013-05-30T18:25:02Z</time>
      </trkpt>
      <trkpt lat="59.820798" lon="17.7371208">
        <ele>0</ele>
        <time>2013-05-30T18:25:03Z</time>
      </trkpt>
      <trkpt lat="59.8207477" lon="17.7371839">
        <ele>0</ele>
        <time>2013-05-30T18:25:04Z</time>
      </trkpt>
      <trkpt lat="59.8207037" lon="17.7372373">
        <ele>0</ele>
        <time>2013-05-30T18:25:05Z</time>
      </trkpt>
      <trkpt lat="59.8206555" lon="17.7372987">
        <ele>0</ele>
        <time>2013-05-30T18:25:06Z</time>
      </trkpt>
      <trkpt lat="59.8206032" lon="17.7373527">
        <ele>0</ele>
        <time>2013-05-30T18:25:07Z</time>
      </trkpt>
      <trkpt lat="59.8205566" lon="17.7374176">
        <ele>0</ele>
        <time>2013-05-30T18:25:08Z</time>
      </trkpt>
      <trkpt lat="59.8205043" lon="17.7374848">
        <ele>0.618042</ele>
        <time>2013-05-30T18:25:09Z</time>
      </trkpt>
      <trkpt lat="59.8204603" lon="17.7375392">
        <ele>1.09863</ele>
        <time>2013-05-30T18:25:10Z</time>
      </trkpt>
      <trkpt lat="59.8204116" lon="17.7376013">
        <ele>1.57935</ele>
        <time>2013-05-30T18:25:11Z</time>
      </trkpt>
      <trkpt lat="59.8203655" lon="17.7376578">
        <ele>2.06006</ele>
        <time>2013-05-30T18:25:12Z</time>
      </trkpt>
      <trkpt lat="59.8203167" lon="17.7377216">
        <ele>3.02124</ele>
        <time>2013-05-30T18:25:13Z</time>
      </trkpt>
      <trkpt lat="59.8202655" lon="17.737779">
        <ele>3.98267</ele>
        <time>2013-05-30T18:25:14Z</time>
      </trkpt>
      <trkpt lat="59.820207" lon="17.7378439">
        <ele>3.98267</ele>
        <time>2013-05-30T18:25:15Z</time>
      </trkpt>
      <trkpt lat="59.8201632" lon="17.7378992">
        <ele>5.42456</ele>
        <time>2013-05-30T18:25:16Z</time>
      </trkpt>
      <trkpt lat="59.8201202" lon="17.7379563">
        <ele>6.38586</ele>
        <time>2013-05-30T18:25:17Z</time>
      </trkpt>
      <trkpt lat="59.8200723" lon="17.7380159">
        <ele>7.34717</ele>
        <time>2013-05-30T18:25:18Z</time>
      </trkpt>
      <trkpt lat="59.820022" lon="17.7380698">
        <ele>8.30859</ele>
        <time>2013-05-30T18:25:19Z</time>
      </trkpt>
      <trkpt lat="59.8199682" lon="17.7381369">
        <ele>8.78918</ele>
        <time>2013-05-30T18:25:20Z</time>
      </trkpt>
      <trkpt lat="59.8199172" lon="17.7381989">
        <ele>8.30859</ele>
        <time>2013-05-30T18:25:21Z</time>
      </trkpt>
      <trkpt lat="59.8198572" lon="17.7382665">
        <ele>9.75061</ele>
        <time>2013-05-30T18:25:22Z</time>
      </trkpt>
      <trkpt lat="59.8197949" lon="17.7383359">
        <ele>10.2312</ele>
        <time>2013-05-30T18:25:23Z</time>
      </trkpt>
      <trkpt lat="59.8197258" lon="17.738408">
        <ele>10.2312</ele>
        <time>2013-05-30T18:25:24Z</time>
      </trkpt>
      <trkpt lat="59.8196733" lon="17.7384696">
        <ele>11.1925</ele>
        <time>2013-05-30T18:25:25Z</time>
      </trkpt>
      <trkpt lat="59.8196185" lon="17.7385398">
        <ele>11.6732</ele>
        <time>2013-05-30T18:25:26Z</time>
      </trkpt>
      <trkpt lat="59.8195578" lon="17.7386054">
        <ele>9.75061</ele>
        <time>2013-05-30T18:25:27Z</time>
      </trkpt>
      <trkpt lat="59.8195059" lon="17.7386685">
        <ele>9.75061</ele>
        <time>2013-05-30T18:25:28Z</time>
      </trkpt>
      <trkpt lat="59.819452" lon="17.738734">
        <ele>8.78918</ele>
        <time>2013-05-30T18:25:29Z</time>
      </trkpt>
      <trkpt lat="59.8193962" lon="17.7388068">
        <ele>9.2699</ele>
        <time>2013-05-30T18:25:30Z</time>
      </trkpt>
      <trkpt lat="59.8193424" lon="17.7388758">
        <ele>9.2699</ele>
        <time>2013-05-30T18:25:31Z</time>
      </trkpt>
      <trkpt lat="59.8192854" lon="17.7389446">
        <ele>10.2312</ele>
        <time>2013-05-30T18:25:32Z</time>
      </trkpt>
      <trkpt lat="59.8192242" lon="17.7390196">
        <ele>10.7118</ele>
        <time>2013-05-30T18:25:33Z</time>
      </trkpt>
      <trkpt lat="59.8191616" lon="17.7390963">
        <ele>10.7118</ele>
        <time>2013-05-30T18:25:34Z</time>
      </trkpt>
      <trkpt lat="59.8190989" lon="17.7391715">
        <ele>11.1925</ele>
        <time>2013-05-30T18:25:35Z</time>
      </trkpt>
      <trkpt lat="59.8190348" lon="17.7392472">
        <ele>11.6732</ele>
        <time>2013-05-30T18:25:36Z</time>
      </trkpt>
      <trkpt lat="59.8189663" lon="17.7393238">
        <ele>11.1925</ele>
        <time>2013-05-30T18:25:37Z</time>
      </trkpt>
      <trkpt lat="59.8189005" lon="17.7393994">
        <ele>11.6732</ele>
        <time>2013-05-30T18:25:38Z</time>
      </trkpt>
      <trkpt lat="59.8188348" lon="17.7394736">
        <ele>12.1538</ele>
        <time>2013-05-30T18:25:39Z</time>
      </trkpt>
      <trkpt lat="59.8187665" lon="17.7395475">
        <ele>11.6732</ele>
        <time>2013-05-30T18:25:40Z</time>
      </trkpt>
      <trkpt lat="59.8187035" lon="17.7396188">
        <ele>12.1538</ele>
        <time>2013-05-30T18:25:41Z</time>
      </trkpt>
      <trkpt lat="59.8186388" lon="17.7396941">
        <ele>13.1151</ele>
        <time>2013-05-30T18:25:42Z</time>
      </trkpt>
      <trkpt lat="59.8185714" lon="17.7397704">
        <ele>13.5958</ele>
        <time>2013-05-30T18:25:43Z</time>
      </trkpt>
      <trkpt lat="59.8185049" lon="17.7398494">
        <ele>15.0377</ele>
        <time>2013-05-30T18:25:44Z</time>
      </trkpt>
      <trkpt lat="59.8184399" lon="17.7399298">
        <ele>15.999</ele>
        <time>2013-05-30T18:25:45Z</time>
      </trkpt>
      <trkpt lat="59.8183752" lon="17.7400065">
        <ele>15.999</ele>
        <time>2013-05-30T18:25:46Z</time>
      </trkpt>
      <trkpt lat="59.8183041" lon="17.7400857">
        <ele>14.0764</ele>
        <time>2013-05-30T18:25:47Z</time>
      </trkpt>
      <trkpt lat="59.8182385" lon="17.7401613">
        <ele>12.1538</ele>
        <time>2013-05-30T18:25:48Z</time>
      </trkpt>
      <trkpt lat="59.8181763" lon="17.7402285">
        <ele>12.6344</ele>
        <time>2013-05-30T18:25:49Z</time>
      </trkpt>
      <trkpt lat="59.8181073" lon="17.7403018">
        <ele>10.2312</ele>
        <time>2013-05-30T18:25:50Z</time>
      </trkpt>
      <trkpt lat="59.8180384" lon="17.7403765">
        <ele>9.2699</ele>
        <time>2013-05-30T18:25:51Z</time>
      </trkpt>
      <trkpt lat="59.8179674" lon="17.740454">
        <ele>7.82788</ele>
        <time>2013-05-30T18:25:52Z</time>
      </trkpt>
      <trkpt lat="59.8179026" lon="17.7405275">
        <ele>8.30859</ele>
        <time>2013-05-30T18:25:53Z</time>
      </trkpt>
      <trkpt lat="59.8178412" lon="17.7405966">
        <ele>8.30859</ele>
        <time>2013-05-30T18:25:54Z</time>
      </trkpt>
      <trkpt lat="59.8177775" lon="17.7406685">
        <ele>7.82788</ele>
        <time>2013-05-30T18:25:55Z</time>
      </trkpt>
      <trkpt lat="59.8177185" lon="17.7407344">
        <ele>7.34717</ele>
        <time>2013-05-30T18:25:56Z</time>
      </trkpt>
      <trkpt lat="59.8176624" lon="17.7407981">
        <ele>6.86646</ele>
        <time>2013-05-30T18:25:57Z</time>
      </trkpt>
      <trkpt lat="59.8176061" lon="17.7408622">
        <ele>6.86646</ele>
        <time>2013-05-30T18:25:58Z</time>
      </trkpt>
      <trkpt lat="59.8175467" lon="17.7409291">
        <ele>6.38586</ele>
        <time>2013-05-30T18:25:59Z</time>
      </trkpt>
      <trkpt lat="59.8174852" lon="17.7409964">
        <ele>4.94385</ele>
        <time>2013-05-30T18:26:00Z</time>
      </trkpt>
      <trkpt lat="59.8174243" lon="17.7410585">
        <ele>3.50195</ele>
        <time>2013-05-30T18:26:01Z</time>
      </trkpt>
      <trkpt lat="59.8173677" lon="17.7411221">
        <ele>4.46326</ele>
        <time>2013-05-30T18:26:02Z</time>
      </trkpt>
      <trkpt lat="59.81731" lon="17.7411853">
        <ele>4.94385</ele>
        <time>2013-05-30T18:26:03Z</time>
      </trkpt>
      <trkpt lat="59.8172494" lon="17.7412544">
        <ele>5.90527</ele>
        <time>2013-05-30T18:26:04Z</time>
      </trkpt>
      <trkpt lat="59.817186" lon="17.741321">
        <ele>5.90527</ele>
        <time>2013-05-30T18:26:05Z</time>
      </trkpt>
      <trkpt lat="59.8171192" lon="17.7413868">
        <ele>4.46326</ele>
        <time>2013-05-30T18:26:06Z</time>
      </trkpt>
      <trkpt lat="59.8170603" lon="17.7414522">
        <ele>5.42456</ele>
        <time>2013-05-30T18:26:07Z</time>
      </trkpt>
      <trkpt lat="59.816998" lon="17.7415272">
        <ele>5.42456</ele>
        <time>2013-05-30T18:26:08Z</time>
      </trkpt>
      <trkpt lat="59.8169366" lon="17.7416025">
        <ele>6.38586</ele>
        <time>2013-05-30T18:26:09Z</time>
      </trkpt>
      <trkpt lat="59.8168708" lon="17.7416805">
        <ele>7.34717</ele>
        <time>2013-05-30T18:26:10Z</time>
      </trkpt>
      <trkpt lat="59.8167984" lon="17.7417561">
        <ele>7.34717</ele>
        <time>2013-05-30T18:26:11Z</time>
      </trkpt>
      <trkpt lat="59.816733" lon="17.7418221">
        <ele>7.82788</ele>
        <time>2013-05-30T18:26:12Z</time>
      </trkpt>
      <trkpt lat="59.8166693" lon="17.7418878">
        <ele>8.30859</ele>
        <time>2013-05-30T18:26:13Z</time>
      </trkpt>
      <trkpt lat="59.8166021" lon="17.7419587">
        <ele>9.2699</ele>
        <time>2013-05-30T18:26:14Z</time>
      </trkpt>
      <trkpt lat="59.8165416" lon="17.7420272">
        <ele>10.2312</ele>
        <time>2013-05-30T18:26:15Z</time>
      </trkpt>
      <trkpt lat="59.8164674" lon="17.7421163">
        <ele>9.2699</ele>
        <time>2013-05-30T18:26:16Z</time>
      </trkpt>
      <trkpt lat="59.8163928" lon="17.7422148">
        <ele>9.2699</ele>
        <time>2013-05-30T18:26:17Z</time>
      </trkpt>
      <trkpt lat="59.8163224" lon="17.7423166">
        <ele>9.2699</ele>
        <time>2013-05-30T18:26:18Z</time>
      </trkpt>
      <trkpt lat="59.8162483" lon="17.7424273">
        <ele>9.2699</ele>
        <time>2013-05-30T18:26:19Z</time>
      </trkpt>
      <trkpt lat="59.8161839" lon="17.7425401">
        <ele>9.75061</ele>
        <time>2013-05-30T18:26:20Z</time>
      </trkpt>
      <trkpt lat="59.8161262" lon="17.7426513">
        <ele>10.7118</ele>
        <time>2013-05-30T18:26:21Z</time>
      </trkpt>
      <trkpt lat="59.816068" lon="17.7427621">
        <ele>10.7118</ele>
        <time>2013-05-30T18:26:22Z</time>
      </trkpt>
      <trkpt lat="59.8160074" lon="17.7428789">
        <ele>10.7118</ele>
        <time>2013-05-30T18:26:23Z</time>
      </trkpt>
      <trkpt lat="59.8159526" lon="17.7429937">
        <ele>8.78918</ele>
        <time>2013-05-30T18:26:24Z</time>
      </trkpt>
      <trkpt lat="59.8158972" lon="17.7431136">
        <ele>9.2699</ele>
        <time>2013-05-30T18:26:25Z</time>
      </trkpt>
      <trkpt lat="59.8158365" lon="17.7432415">
        <ele>9.2699</ele>
        <time>2013-05-30T18:26:26Z</time>
      </trkpt>
      <trkpt lat="59.8157723" lon="17.7433746">
        <ele>7.82788</ele>
        <time>2013-05-30T18:26:27Z</time>
      </trkpt>
      <trkpt lat="59.8157069" lon="17.7435113">
        <ele>4.94385</ele>
        <time>2013-05-30T18:26:28Z</time>
      </trkpt>
      <trkpt lat="59.815636" lon="17.7436569">
        <ele>3.02124</ele>
        <time>2013-05-30T18:26:29Z</time>
      </trkpt>
      <trkpt lat="59.8155617" lon="17.7438085">
        <ele>2.54065</ele>
        <time>2013-05-30T18:26:30Z</time>
      </trkpt>
      <trkpt lat="59.8154852" lon="17.7439599">
        <ele>2.06006</ele>
        <time>2013-05-30T18:26:31Z</time>
      </trkpt>
      <trkpt lat="59.8154125" lon="17.7441101">
        <ele>2.54065</ele>
        <time>2013-05-30T18:26:32Z</time>
      </trkpt>
      <trkpt lat="59.8153426" lon="17.7442592">
        <ele>2.06006</ele>
        <time>2013-05-30T18:26:33Z</time>
      </trkpt>
      <trkpt lat="59.8152733" lon="17.7444094">
        <ele>2.06006</ele>
        <time>2013-05-30T18:26:34Z</time>
      </trkpt>
      <trkpt lat="59.815204" lon="17.7445598">
        <ele>2.06006</ele>
        <time>2013-05-30T18:26:35Z</time>
      </trkpt>
      <trkpt lat="59.8151416" lon="17.7447012">
        <ele>2.06006</ele>
        <time>2013-05-30T18:26:36Z</time>
      </trkpt>
      <trkpt lat="59.8150774" lon="17.7448421">
        <ele>2.06006</ele>
        <time>2013-05-30T18:26:37Z</time>
      </trkpt>
      <trkpt lat="59.8150147" lon="17.7449804">
        <ele>2.06006</ele>
        <time>2013-05-30T18:26:38Z</time>
      </trkpt>
      <trkpt lat="59.8149562" lon="17.7451144">
        <ele>1.57935</ele>
        <time>2013-05-30T18:26:39Z</time>
      </trkpt>
      <trkpt lat="59.8148911" lon="17.7452564">
        <ele>1.57935</ele>
        <time>2013-05-30T18:26:40Z</time>
      </trkpt>
      <trkpt lat="59.8148243" lon="17.7453988">
        <ele>1.09863</ele>
        <time>2013-05-30T18:26:41Z</time>
      </trkpt>
      <trkpt lat="59.814759" lon="17.7455404">
        <ele>0.618042</ele>
        <time>2013-05-30T18:26:42Z</time>
      </trkpt>
      <trkpt lat="59.8146946" lon="17.7456785">
        <ele>0.137451</ele>
        <time>2013-05-30T18:26:43Z</time>
      </trkpt>
      <trkpt lat="59.8146307" lon="17.7458155">
        <ele>0</ele>
        <time>2013-05-30T18:26:44Z</time>
      </trkpt>
      <trkpt lat="59.8145653" lon="17.7459534">
        <ele>0</ele>
        <time>2013-05-30T18:26:45Z</time>
      </trkpt>
      <trkpt lat="59.8145008" lon="17.7460931">
        <ele>0</ele>
        <time>2013-05-30T18:26:46Z</time>
      </trkpt>
      <trkpt lat="59.8144358" lon="17.7462322">
        <ele>0</ele>
        <time>2013-05-30T18:26:47Z</time>
      </trkpt>
      <trkpt lat="59.8143717" lon="17.7463687">
        <ele>0</ele>
        <time>2013-05-30T18:26:48Z</time>
      </trkpt>
      <trkpt lat="59.8143094" lon="17.7465044">
        <ele>0</ele>
        <time>2013-05-30T18:26:49Z</time>
      </trkpt>
      <trkpt lat="59.8142581" lon="17.7466241">
        <ele>0</ele>
        <time>2013-05-30T18:26:50Z</time>
      </trkpt>
      <trkpt lat="59.8141997" lon="17.746749">
        <ele>0</ele>
        <time>2013-05-30T18:26:51Z</time>
      </trkpt>
      <trkpt lat="59.8141431" lon="17.7468753">
        <ele>0</ele>
        <time>2013-05-30T18:26:52Z</time>
      </trkpt>
      <trkpt lat="59.8140802" lon="17.7470126">
        <ele>0</ele>
        <time>2013-05-30T18:26:53Z</time>
      </trkpt>
      <trkpt lat="59.8140219" lon="17.7471401">
        <ele>0</ele>
        <time>2013-05-30T18:26:54Z</time>
      </trkpt>
      <trkpt lat="59.813965" lon="17.7472648">
        <ele>0</ele>
        <time>2013-05-30T18:26:55Z</time>
      </trkpt>
      <trkpt lat="59.8139145" lon="17.7473825">
        <ele>0</ele>
        <time>2013-05-30T18:26:56Z</time>
      </trkpt>
      <trkpt lat="59.8138635" lon="17.747499">
        <ele>0.137451</ele>
        <time>2013-05-30T18:26:57Z</time>
      </trkpt>
      <trkpt lat="59.8138057" lon="17.7476241">
        <ele>0.618042</ele>
        <time>2013-05-30T18:26:58Z</time>
      </trkpt>
      <trkpt lat="59.8137459" lon="17.7477485">
        <ele>0.618042</ele>
        <time>2013-05-30T18:26:59Z</time>
      </trkpt>
      <trkpt lat="59.8136903" lon="17.747873">
        <ele>0.618042</ele>
        <time>2013-05-30T18:27:00Z</time>
      </trkpt>
      <trkpt lat="59.8136316" lon="17.7480003">
        <ele>0.618042</ele>
        <time>2013-05-30T18:27:01Z</time>
      </trkpt>
      <trkpt lat="59.8135722" lon="17.7481285">
        <ele>1.09863</ele>
        <time>2013-05-30T18:27:02Z</time>
      </trkpt>
      <trkpt lat="59.81352" lon="17.7482619">
        <ele>1.09863</ele>
        <time>2013-05-30T18:27:03Z</time>
      </trkpt>
      <trkpt lat="59.8134645" lon="17.74839">
        <ele>1.57935</ele>
        <time>2013-05-30T18:27:04Z</time>
      </trkpt>
      <trkpt lat="59.8134054" lon="17.7485143">
        <ele>1.57935</ele>
        <time>2013-05-30T18:27:05Z</time>
      </trkpt>
      <trkpt lat="59.8133593" lon="17.7486224">
        <ele>1.57935</ele>
        <time>2013-05-30T18:27:06Z</time>
      </trkpt>
      <trkpt lat="59.8133058" lon="17.7487365">
        <ele>2.06006</ele>
        <time>2013-05-30T18:27:07Z</time>
      </trkpt>
      <trkpt lat="59.8132576" lon="17.7488466">
        <ele>2.06006</ele>
        <time>2013-05-30T18:27:08Z</time>
      </trkpt>
      <trkpt lat="59.8132039" lon="17.7489658">
        <ele>2.06006</ele>
        <time>2013-05-30T18:27:09Z</time>
      </trkpt>
      <trkpt lat="59.813147" lon="17.7490867">
        <ele>2.54065</ele>
        <time>2013-05-30T18:27:10Z</time>
      </trkpt>
      <trkpt lat="59.8130952" lon="17.7491991">
        <ele>3.02124</ele>
        <time>2013-05-30T18:27:11Z</time>
      </trkpt>
      <trkpt lat="59.8130378" lon="17.7493229">
        <ele>3.02124</ele>
        <time>2013-05-30T18:27:12Z</time>
      </trkpt>
      <trkpt lat="59.8129791" lon="17.7494457">
        <ele>3.02124</ele>
        <time>2013-05-30T18:27:13Z</time>
      </trkpt>
      <trkpt lat="59.8129235" lon="17.7495687">
        <ele>3.02124</ele>
        <time>2013-05-30T18:27:14Z</time>
      </trkpt>
      <trkpt lat="59.812866" lon="17.7496886">
        <ele>3.02124</ele>
        <time>2013-05-30T18:27:15Z</time>
      </trkpt>
      <trkpt lat="59.8128107" lon="17.7498103">
        <ele>3.50195</ele>
        <time>2013-05-30T18:27:16Z</time>
      </trkpt>
      <trkpt lat="59.8127527" lon="17.7499294">
        <ele>3.50195</ele>
        <time>2013-05-30T18:27:17Z</time>
      </trkpt>
      <trkpt lat="59.8126962" lon="17.7500477">
        <ele>3.50195</ele>
        <time>2013-05-30T18:27:18Z</time>
      </trkpt>
      <trkpt lat="59.8126409" lon="17.7501682">
        <ele>3.98267</ele>
        <time>2013-05-30T18:27:19Z</time>
      </trkpt>
      <trkpt lat="59.8125852" lon="17.7502858">
        <ele>3.98267</ele>
        <time>2013-05-30T18:27:20Z</time>
      </trkpt>
      <trkpt lat="59.8125284" lon="17.7503997">
        <ele>4.46326</ele>
        <time>2013-05-30T18:27:21Z</time>
      </trkpt>
      <trkpt lat="59.8124723" lon="17.7505106">
        <ele>4.46326</ele>
        <time>2013-05-30T18:27:22Z</time>
      </trkpt>
      <trkpt lat="59.8124197" lon="17.7506184">
        <ele>4.46326</ele>
        <time>2013-05-30T18:27:23Z</time>
      </trkpt>
      <trkpt lat="59.8123673" lon="17.7507224">
        <ele>4.46326</ele>
        <time>2013-05-30T18:27:24Z</time>
      </trkpt>
      <trkpt lat="59.8123149" lon="17.750825">
        <ele>4.46326</ele>
        <time>2013-05-30T18:27:25Z</time>
      </trkpt>
      <trkpt lat="59.8122648" lon="17.7509268">
        <ele>3.98267</ele>
        <time>2013-05-30T18:27:26Z</time>
      </trkpt>
      <trkpt lat="59.8122161" lon="17.7510282">
        <ele>3.50195</ele>
        <time>2013-05-30T18:27:27Z</time>
      </trkpt>
      <trkpt lat="59.8121668" lon="17.7511256">
        <ele>3.02124</ele>
        <time>2013-05-30T18:27:28Z</time>
      </trkpt>
      <trkpt lat="59.812119" lon="17.7512241">
        <ele>3.02124</ele>
        <time>2013-05-30T18:27:29Z</time>
      </trkpt>
      <trkpt lat="59.8120717" lon="17.7513234">
        <ele>2.54065</ele>
        <time>2013-05-30T18:27:30Z</time>
      </trkpt>
      <trkpt lat="59.8120224" lon="17.7514333">
        <ele>3.02124</ele>
        <time>2013-05-30T18:27:31Z</time>
      </trkpt>
      <trkpt lat="59.8119748" lon="17.7515332">
        <ele>2.54065</ele>
        <time>2013-05-30T18:27:32Z</time>
      </trkpt>
      <trkpt lat="59.8119255" lon="17.7516306">
        <ele>2.54065</ele>
        <time>2013-05-30T18:27:33Z</time>
      </trkpt>
      <trkpt lat="59.8118771" lon="17.7517276">
        <ele>2.06006</ele>
        <time>2013-05-30T18:27:34Z</time>
      </trkpt>
      <trkpt lat="59.8118291" lon="17.7518248">
        <ele>2.06006</ele>
        <time>2013-05-30T18:27:35Z</time>
      </trkpt>
      <trkpt lat="59.8117805" lon="17.7519213">
        <ele>2.06006</ele>
        <time>2013-05-30T18:27:36Z</time>
      </trkpt>
      <trkpt lat="59.8117314" lon="17.7520186">
        <ele>1.57935</ele>
        <time>2013-05-30T18:27:37Z</time>
      </trkpt>
      <trkpt lat="59.8116834" lon="17.752118">
        <ele>2.06006</ele>
        <time>2013-05-30T18:27:38Z</time>
      </trkpt>
      <trkpt lat="59.811637" lon="17.7522156">
        <ele>2.06006</ele>
        <time>2013-05-30T18:27:39Z</time>
      </trkpt>
      <trkpt lat="59.8115924" lon="17.7523107">
        <ele>2.06006</ele>
        <time>2013-05-30T18:27:40Z</time>
      </trkpt>
      <trkpt lat="59.8115489" lon="17.752404">
        <ele>2.06006</ele>
        <time>2013-05-30T18:27:41Z</time>
      </trkpt>
      <trkpt lat="59.8115064" lon="17.7524952">
        <ele>2.54065</ele>
        <time>2013-05-30T18:27:42Z</time>
      </trkpt>
      <trkpt lat="59.8114632" lon="17.7525865">
        <ele>2.54065</ele>
        <time>2013-05-30T18:27:43Z</time>
      </trkpt>
      <trkpt lat="59.8114179" lon="17.7526801">
        <ele>2.54065</ele>
        <time>2013-05-30T18:27:44Z</time>
      </trkpt>
      <trkpt lat="59.8113718" lon="17.7527737">
        <ele>2.54065</ele>
        <time>2013-05-30T18:27:45Z</time>
      </trkpt>
      <trkpt lat="59.8113272" lon="17.7528712">
        <ele>3.02124</ele>
        <time>2013-05-30T18:27:46Z</time>
      </trkpt>
      <trkpt lat="59.8112857" lon="17.7529734">
        <ele>3.02124</ele>
        <time>2013-05-30T18:27:47Z</time>
      </trkpt>
      <trkpt lat="59.8112412" lon="17.7530748">
        <ele>3.50195</ele>
        <time>2013-05-30T18:27:48Z</time>
      </trkpt>
      <trkpt lat="59.8111972" lon="17.7531754">
        <ele>3.98267</ele>
        <time>2013-05-30T18:27:49Z</time>
      </trkpt>
      <trkpt lat="59.8111519" lon="17.7532743">
        <ele>4.94385</ele>
        <time>2013-05-30T18:27:50Z</time>
      </trkpt>
      <trkpt lat="59.8111096" lon="17.7533686">
        <ele>5.90527</ele>
        <time>2013-05-30T18:27:51Z</time>
      </trkpt>
      <trkpt lat="59.8110723" lon="17.7534551">
        <ele>7.34717</ele>
        <time>2013-05-30T18:27:52Z</time>
      </trkpt>
      <trkpt lat="59.8110283" lon="17.7535509">
        <ele>7.82788</ele>
        <time>2013-05-30T18:27:53Z</time>
      </trkpt>
      <trkpt lat="59.8109834" lon="17.7536486">
        <ele>8.78918</ele>
        <time>2013-05-30T18:27:54Z</time>
      </trkpt>
      <trkpt lat="59.8109377" lon="17.7537503">
        <ele>9.2699</ele>
        <time>2013-05-30T18:27:55Z</time>
      </trkpt>
      <trkpt lat="59.810894" lon="17.7538477">
        <ele>9.75061</ele>
        <time>2013-05-30T18:27:56Z</time>
      </trkpt>
      <trkpt lat="59.8108475" lon="17.7539456">
        <ele>9.75061</ele>
        <time>2013-05-30T18:27:57Z</time>
      </trkpt>
      <trkpt lat="59.8108031" lon="17.7540377">
        <ele>10.7118</ele>
        <time>2013-05-30T18:27:58Z</time>
      </trkpt>
      <trkpt lat="59.8107589" lon="17.7541325">
        <ele>11.6732</ele>
        <time>2013-05-30T18:27:59Z</time>
      </trkpt>
      <trkpt lat="59.8107128" lon="17.7542306">
        <ele>12.1538</ele>
        <time>2013-05-30T18:28:00Z</time>
      </trkpt>
      <trkpt lat="59.8106669" lon="17.7543287">
        <ele>12.6344</ele>
        <time>2013-05-30T18:28:01Z</time>
      </trkpt>
      <trkpt lat="59.8106212" lon="17.7544269">
        <ele>13.1151</ele>
        <time>2013-05-30T18:28:02Z</time>
      </trkpt>
      <trkpt lat="59.8105781" lon="17.7545196">
        <ele>13.1151</ele>
        <time>2013-05-30T18:28:03Z</time>
      </trkpt>
      <trkpt lat="59.8105284" lon="17.7546179">
        <ele>13.1151</ele>
        <time>2013-05-30T18:28:04Z</time>
      </trkpt>
      <trkpt lat="59.8104776" lon="17.7547175">
        <ele>12.6344</ele>
        <time>2013-05-30T18:28:05Z</time>
      </trkpt>
      <trkpt lat="59.8104257" lon="17.754819">
        <ele>12.6344</ele>
        <time>2013-05-30T18:28:06Z</time>
      </trkpt>
      <trkpt lat="59.8103724" lon="17.7549219">
        <ele>11.1925</ele>
        <time>2013-05-30T18:28:07Z</time>
      </trkpt>
      <trkpt lat="59.8103223" lon="17.7550218">
        <ele>11.1925</ele>
        <time>2013-05-30T18:28:08Z</time>
      </trkpt>
      <trkpt lat="59.8102789" lon="17.7551096">
        <ele>11.6732</ele>
        <time>2013-05-30T18:28:09Z</time>
      </trkpt>
      <trkpt lat="59.8102294" lon="17.7551959">
        <ele>9.75061</ele>
        <time>2013-05-30T18:28:10Z</time>
      </trkpt>
      <trkpt lat="59.8101807" lon="17.7552805">
        <ele>9.75061</ele>
        <time>2013-05-30T18:28:11Z</time>
      </trkpt>
      <trkpt lat="59.8101309" lon="17.7553654">
        <ele>10.2312</ele>
        <time>2013-05-30T18:28:12Z</time>
      </trkpt>
      <trkpt lat="59.8100777" lon="17.7554469">
        <ele>9.2699</ele>
        <time>2013-05-30T18:28:13Z</time>
      </trkpt>
      <trkpt lat="59.8100259" lon="17.7555254">
        <ele>9.2699</ele>
        <time>2013-05-30T18:28:14Z</time>
      </trkpt>
      <trkpt lat="59.8099724" lon="17.755601">
        <ele>9.75061</ele>
        <time>2013-05-30T18:28:15Z</time>
      </trkpt>
      <trkpt lat="59.8099173" lon="17.7556726">
        <ele>9.75061</ele>
        <time>2013-05-30T18:28:16Z</time>
      </trkpt>
      <trkpt lat="59.8098605" lon="17.7557424">
        <ele>9.2699</ele>
        <time>2013-05-30T18:28:17Z</time>
      </trkpt>
      <trkpt lat="59.8098017" lon="17.755811">
        <ele>9.2699</ele>
        <time>2013-05-30T18:28:18Z</time>
      </trkpt>
      <trkpt lat="59.8097424" lon="17.7558786">
        <ele>9.2699</ele>
        <time>2013-05-30T18:28:19Z</time>
      </trkpt>
      <trkpt lat="59.8096834" lon="17.7559431">
        <ele>9.75061</ele>
        <time>2013-05-30T18:28:20Z</time>
      </trkpt>
      <trkpt lat="59.8096246" lon="17.7560011">
        <ele>8.78918</ele>
        <time>2013-05-30T18:28:21Z</time>
      </trkpt>
      <trkpt lat="59.8095717" lon="17.7560494">
        <ele>9.2699</ele>
        <time>2013-05-30T18:28:22Z</time>
      </trkpt>
      <trkpt lat="59.8095034" lon="17.7561143">
        <ele>8.30859</ele>
        <time>2013-05-30T18:28:23Z</time>
      </trkpt>
      <trkpt lat="59.8094443" lon="17.7561641">
        <ele>8.30859</ele>
        <time>2013-05-30T18:28:24Z</time>
      </trkpt>
      <trkpt lat="59.8093817" lon="17.7562138">
        <ele>7.34717</ele>
        <time>2013-05-30T18:28:25Z</time>
      </trkpt>
      <trkpt lat="59.8093158" lon="17.7562653">
        <ele>6.86646</ele>
        <time>2013-05-30T18:28:26Z</time>
      </trkpt>
      <trkpt lat="59.8092617" lon="17.7562993">
        <ele>7.82788</ele>
        <time>2013-05-30T18:28:27Z</time>
      </trkpt>
      <trkpt lat="59.8092122" lon="17.7563195">
        <ele>8.30859</ele>
        <time>2013-05-30T18:28:28Z</time>
      </trkpt>
      <trkpt lat="59.8091666" lon="17.7563315">
        <ele>9.2699</ele>
        <time>2013-05-30T18:28:29Z</time>
      </trkpt>
      <trkpt lat="59.8091037" lon="17.7563601">
        <ele>9.2699</ele>
        <time>2013-05-30T18:28:30Z</time>
      </trkpt>
      <trkpt lat="59.8090417" lon="17.7563827">
        <ele>9.2699</ele>
        <time>2013-05-30T18:28:31Z</time>
      </trkpt>
      <trkpt lat="59.8089821" lon="17.7564051">
        <ele>9.75061</ele>
        <time>2013-05-30T18:28:32Z</time>
      </trkpt>
      <trkpt lat="59.80892" lon="17.7564258">
        <ele>9.75061</ele>
        <time>2013-05-30T18:28:33Z</time>
      </trkpt>
      <trkpt lat="59.8088572" lon="17.7564425">
        <ele>10.2312</ele>
        <time>2013-05-30T18:28:34Z</time>
      </trkpt>
      <trkpt lat="59.8087929" lon="17.7564588">
        <ele>10.2312</ele>
        <time>2013-05-30T18:28:35Z</time>
      </trkpt>
      <trkpt lat="59.808718" lon="17.756488">
        <ele>9.75061</ele>
        <time>2013-05-30T18:28:36Z</time>
      </trkpt>
      <trkpt lat="59.8086554" lon="17.7564972">
        <ele>10.2312</ele>
        <time>2013-05-30T18:28:37Z</time>
      </trkpt>
      <trkpt lat="59.8085911" lon="17.7565036">
        <ele>10.2312</ele>
        <time>2013-05-30T18:28:38Z</time>
      </trkpt>
      <trkpt lat="59.8085272" lon="17.7565067">
        <ele>10.7118</ele>
        <time>2013-05-30T18:28:39Z</time>
      </trkpt>
      <trkpt lat="59.8084616" lon="17.7565082">
        <ele>10.7118</ele>
        <time>2013-05-30T18:28:40Z</time>
      </trkpt>
      <trkpt lat="59.8083942" lon="17.7565092">
        <ele>10.7118</ele>
        <time>2013-05-30T18:28:41Z</time>
      </trkpt>
      <trkpt lat="59.808328" lon="17.7565077">
        <ele>11.1925</ele>
        <time>2013-05-30T18:28:42Z</time>
      </trkpt>
      <trkpt lat="59.8082549" lon="17.7565186">
        <ele>10.2312</ele>
        <time>2013-05-30T18:28:43Z</time>
      </trkpt>
      <trkpt lat="59.8081897" lon="17.7565189">
        <ele>10.2312</ele>
        <time>2013-05-30T18:28:44Z</time>
      </trkpt>
      <trkpt lat="59.8081265" lon="17.7565186">
        <ele>10.2312</ele>
        <time>2013-05-30T18:28:45Z</time>
      </trkpt>
      <trkpt lat="59.8080643" lon="17.7565182">
        <ele>9.75061</ele>
        <time>2013-05-30T18:28:46Z</time>
      </trkpt>
      <trkpt lat="59.808003" lon="17.7565158">
        <ele>10.2312</ele>
        <time>2013-05-30T18:28:47Z</time>
      </trkpt>
      <trkpt lat="59.8079419" lon="17.7565119">
        <ele>10.2312</ele>
        <time>2013-05-30T18:28:48Z</time>
      </trkpt>
      <trkpt lat="59.8078802" lon="17.7565103">
        <ele>10.2312</ele>
        <time>2013-05-30T18:28:49Z</time>
      </trkpt>
      <trkpt lat="59.8078178" lon="17.7565108">
        <ele>10.7118</ele>
        <time>2013-05-30T18:28:50Z</time>
      </trkpt>
      <trkpt lat="59.8077567" lon="17.756513">
        <ele>10.7118</ele>
        <time>2013-05-30T18:28:51Z</time>
      </trkpt>
      <trkpt lat="59.8076938" lon="17.7565196">
        <ele>10.7118</ele>
        <time>2013-05-30T18:28:52Z</time>
      </trkpt>
      <trkpt lat="59.8076296" lon="17.7565293">
        <ele>10.7118</ele>
        <time>2013-05-30T18:28:53Z</time>
      </trkpt>
      <trkpt lat="59.8075654" lon="17.7565408">
        <ele>10.7118</ele>
        <time>2013-05-30T18:28:54Z</time>
      </trkpt>
      <trkpt lat="59.8075" lon="17.7565532">
        <ele>10.7118</ele>
        <time>2013-05-30T18:28:55Z</time>
      </trkpt>
      <trkpt lat="59.8074329" lon="17.7565692">
        <ele>11.1925</ele>
        <time>2013-05-30T18:28:56Z</time>
      </trkpt>
      <trkpt lat="59.8073654" lon="17.7565901">
        <ele>11.1925</ele>
        <time>2013-05-30T18:28:57Z</time>
      </trkpt>
      <trkpt lat="59.8072977" lon="17.7566143">
        <ele>11.1925</ele>
        <time>2013-05-30T18:28:58Z</time>
      </trkpt>
      <trkpt lat="59.8072297" lon="17.756642">
        <ele>11.1925</ele>
        <time>2013-05-30T18:28:59Z</time>
      </trkpt>
      <trkpt lat="59.8071618" lon="17.756675">
        <ele>11.1925</ele>
        <time>2013-05-30T18:29:00Z</time>
      </trkpt>
      <trkpt lat="59.8070925" lon="17.7567121">
        <ele>11.1925</ele>
        <time>2013-05-30T18:29:01Z</time>
      </trkpt>
      <trkpt lat="59.8070254" lon="17.7567522">
        <ele>11.1925</ele>
        <time>2013-05-30T18:29:02Z</time>
      </trkpt>
      <trkpt lat="59.8069592" lon="17.7567974">
        <ele>11.1925</ele>
        <time>2013-05-30T18:29:03Z</time>
      </trkpt>
      <trkpt lat="59.8068926" lon="17.7568475">
        <ele>11.1925</ele>
        <time>2013-05-30T18:29:04Z</time>
      </trkpt>
      <trkpt lat="59.8068266" lon="17.7569022">
        <ele>11.1925</ele>
        <time>2013-05-30T18:29:05Z</time>
      </trkpt>
      <trkpt lat="59.8067599" lon="17.7569562">
        <ele>11.1925</ele>
        <time>2013-05-30T18:29:06Z</time>
      </trkpt>
      <trkpt lat="59.8066913" lon="17.7570084">
        <ele>10.2312</ele>
        <time>2013-05-30T18:29:07Z</time>
      </trkpt>
      <trkpt lat="59.8066274" lon="17.7570638">
        <ele>10.2312</ele>
        <time>2013-05-30T18:29:08Z</time>
      </trkpt>
      <trkpt lat="59.8065646" lon="17.7571267">
        <ele>9.75061</ele>
        <time>2013-05-30T18:29:09Z</time>
      </trkpt>
      <trkpt lat="59.8065075" lon="17.7571961">
        <ele>10.7118</ele>
        <time>2013-05-30T18:29:10Z</time>
      </trkpt>
      <trkpt lat="59.8064481" lon="17.7572654">
        <ele>11.6732</ele>
        <time>2013-05-30T18:29:11Z</time>
      </trkpt>
      <trkpt lat="59.8063901" lon="17.7573389">
        <ele>11.6732</ele>
        <time>2013-05-30T18:29:12Z</time>
      </trkpt>
      <trkpt lat="59.8063294" lon="17.7574178">
        <ele>12.1538</ele>
        <time>2013-05-30T18:29:13Z</time>
      </trkpt>
      <trkpt lat="59.8062719" lon="17.7574996">
        <ele>12.1538</ele>
        <time>2013-05-30T18:29:14Z</time>
      </trkpt>
      <trkpt lat="59.8062179" lon="17.7575822">
        <ele>12.6344</ele>
        <time>2013-05-30T18:29:15Z</time>
      </trkpt>
      <trkpt lat="59.8061661" lon="17.7576654">
        <ele>12.6344</ele>
        <time>2013-05-30T18:29:16Z</time>
      </trkpt>
      <trkpt lat="59.8061159" lon="17.7577497">
        <ele>12.6344</ele>
        <time>2013-05-30T18:29:17Z</time>
      </trkpt>
      <trkpt lat="59.8060693" lon="17.7578337">
        <ele>13.1151</ele>
        <time>2013-05-30T18:29:18Z</time>
      </trkpt>
      <trkpt lat="59.8060257" lon="17.7579161">
        <ele>13.5958</ele>
        <time>2013-05-30T18:29:19Z</time>
      </trkpt>
      <trkpt lat="59.8059796" lon="17.7580021">
        <ele>13.1151</ele>
        <time>2013-05-30T18:29:20Z</time>
      </trkpt>
      <trkpt lat="59.8059343" lon="17.7580917">
        <ele>13.1151</ele>
        <time>2013-05-30T18:29:21Z</time>
      </trkpt>
      <trkpt lat="59.8058865" lon="17.7581828">
        <ele>12.6344</ele>
        <time>2013-05-30T18:29:22Z</time>
      </trkpt>
      <trkpt lat="59.8058399" lon="17.7582773">
        <ele>12.6344</ele>
        <time>2013-05-30T18:29:23Z</time>
      </trkpt>
      <trkpt lat="59.8057957" lon="17.7583775">
        <ele>12.6344</ele>
        <time>2013-05-30T18:29:24Z</time>
      </trkpt>
      <trkpt lat="59.805753" lon="17.7584832">
        <ele>12.1538</ele>
        <time>2013-05-30T18:29:25Z</time>
      </trkpt>
      <trkpt lat="59.8057108" lon="17.758591">
        <ele>12.1538</ele>
        <time>2013-05-30T18:29:26Z</time>
      </trkpt>
      <trkpt lat="59.8056675" lon="17.758701">
        <ele>11.6732</ele>
        <time>2013-05-30T18:29:27Z</time>
      </trkpt>
      <trkpt lat="59.8056245" lon="17.7588129">
        <ele>11.1925</ele>
        <time>2013-05-30T18:29:28Z</time>
      </trkpt>
      <trkpt lat="59.8055835" lon="17.758922">
        <ele>10.7118</ele>
        <time>2013-05-30T18:29:29Z</time>
      </trkpt>
      <trkpt lat="59.8055483" lon="17.7590392">
        <ele>10.7118</ele>
        <time>2013-05-30T18:29:30Z</time>
      </trkpt>
      <trkpt lat="59.8055149" lon="17.7591625">
        <ele>11.6732</ele>
        <time>2013-05-30T18:29:31Z</time>
      </trkpt>
      <trkpt lat="59.8054774" lon="17.7592842">
        <ele>10.7118</ele>
        <time>2013-05-30T18:29:32Z</time>
      </trkpt>
      <trkpt lat="59.8054448" lon="17.7594152">
        <ele>10.2312</ele>
        <time>2013-05-30T18:29:33Z</time>
      </trkpt>
      <trkpt lat="59.8054079" lon="17.7595416">
        <ele>9.2699</ele>
        <time>2013-05-30T18:29:34Z</time>
      </trkpt>
      <trkpt lat="59.8053731" lon="17.7596697">
        <ele>8.78918</ele>
        <time>2013-05-30T18:29:35Z</time>
      </trkpt>
      <trkpt lat="59.8053472" lon="17.7598017">
        <ele>8.78918</ele>
        <time>2013-05-30T18:29:36Z</time>
      </trkpt>
      <trkpt lat="59.8053208" lon="17.7599336">
        <ele>8.78918</ele>
        <time>2013-05-30T18:29:37Z</time>
      </trkpt>
      <trkpt lat="59.8052972" lon="17.7600644">
        <ele>8.30859</ele>
        <time>2013-05-30T18:29:38Z</time>
      </trkpt>
      <trkpt lat="59.8052749" lon="17.7601933">
        <ele>8.30859</ele>
        <time>2013-05-30T18:29:39Z</time>
      </trkpt>
      <trkpt lat="59.8052562" lon="17.7603314">
        <ele>8.78918</ele>
        <time>2013-05-30T18:29:40Z</time>
      </trkpt>
      <trkpt lat="59.8052406" lon="17.7604742">
        <ele>9.2699</ele>
        <time>2013-05-30T18:29:41Z</time>
      </trkpt>
      <trkpt lat="59.8052306" lon="17.7606311">
        <ele>10.7118</ele>
        <time>2013-05-30T18:29:42Z</time>
      </trkpt>
      <trkpt lat="59.8052213" lon="17.7607895">
        <ele>12.1538</ele>
        <time>2013-05-30T18:29:43Z</time>
      </trkpt>
      <trkpt lat="59.8052137" lon="17.7609502">
        <ele>14.0764</ele>
        <time>2013-05-30T18:29:44Z</time>
      </trkpt>
      <trkpt lat="59.8052046" lon="17.7611061">
        <ele>15.0377</ele>
        <time>2013-05-30T18:29:45Z</time>
      </trkpt>
      <trkpt lat="59.8051965" lon="17.7612635">
        <ele>16.4797</ele>
        <time>2013-05-30T18:29:46Z</time>
      </trkpt>
      <trkpt lat="59.8051878" lon="17.7614184">
        <ele>17.4412</ele>
        <time>2013-05-30T18:29:47Z</time>
      </trkpt>
      <trkpt lat="59.8051845" lon="17.7615643">
        <ele>18.4023</ele>
        <time>2013-05-30T18:29:48Z</time>
      </trkpt>
      <trkpt lat="59.8051796" lon="17.7617125">
        <ele>18.8831</ele>
        <time>2013-05-30T18:29:49Z</time>
      </trkpt>
      <trkpt lat="59.8051629" lon="17.7618555">
        <ele>18.4023</ele>
        <time>2013-05-30T18:29:50Z</time>
      </trkpt>
      <trkpt lat="59.8051669" lon="17.7619976">
        <ele>17.4412</ele>
        <time>2013-05-30T18:29:51Z</time>
      </trkpt>
      <trkpt lat="59.805156" lon="17.7622006">
        <ele>16.4797</ele>
        <time>2013-05-30T18:29:52Z</time>
      </trkpt>
      <trkpt lat="59.8051718" lon="17.7623456">
        <ele>17.4412</ele>
        <time>2013-05-30T18:29:53Z</time>
      </trkpt>
      <trkpt lat="59.8051727" lon="17.762467">
        <ele>18.4023</ele>
        <time>2013-05-30T18:29:54Z</time>
      </trkpt>
      <trkpt lat="59.8051484" lon="17.7626395">
        <ele>20.325</ele>
        <time>2013-05-30T18:29:55Z</time>
      </trkpt>
      <trkpt lat="59.8051297" lon="17.7628234">
        <ele>20.8057</ele>
        <time>2013-05-30T18:29:56Z</time>
      </trkpt>
      <trkpt lat="59.8051181" lon="17.7629816">
        <ele>20.8057</ele>
        <time>2013-05-30T18:29:57Z</time>
      </trkpt>
      <trkpt lat="59.8051083" lon="17.7631137">
        <ele>19.8444</ele>
        <time>2013-05-30T18:29:58Z</time>
      </trkpt>
      <trkpt lat="59.8050967" lon="17.7632412">
        <ele>18.4023</ele>
        <time>2013-05-30T18:29:59Z</time>
      </trkpt>
      <trkpt lat="59.8050819" lon="17.7633743">
        <ele>17.4412</ele>
        <time>2013-05-30T18:30:00Z</time>
      </trkpt>
      <trkpt lat="59.8050658" lon="17.7635204">
        <ele>16.4797</ele>
        <time>2013-05-30T18:30:01Z</time>
      </trkpt>
      <trkpt lat="59.8050519" lon="17.7636666">
        <ele>15.5184</ele>
        <time>2013-05-30T18:30:02Z</time>
      </trkpt>
      <trkpt lat="59.805038" lon="17.7638095">
        <ele>15.0377</ele>
        <time>2013-05-30T18:30:03Z</time>
      </trkpt>
      <trkpt lat="59.8050241" lon="17.7639482">
        <ele>14.557</ele>
        <time>2013-05-30T18:30:04Z</time>
      </trkpt>
      <trkpt lat="59.8050094" lon="17.7640858">
        <ele>14.0764</ele>
        <time>2013-05-30T18:30:05Z</time>
      </trkpt>
      <trkpt lat="59.8049924" lon="17.7642209">
        <ele>13.1151</ele>
        <time>2013-05-30T18:30:06Z</time>
      </trkpt>
      <trkpt lat="59.8049747" lon="17.7643555">
        <ele>12.6344</ele>
        <time>2013-05-30T18:30:07Z</time>
      </trkpt>
      <trkpt lat="59.8049562" lon="17.7644918">
        <ele>12.1538</ele>
        <time>2013-05-30T18:30:08Z</time>
      </trkpt>
      <trkpt lat="59.8049368" lon="17.7646295">
        <ele>12.1538</ele>
        <time>2013-05-30T18:30:09Z</time>
      </trkpt>
      <trkpt lat="59.8049174" lon="17.7647668">
        <ele>11.6732</ele>
        <time>2013-05-30T18:30:10Z</time>
      </trkpt>
      <trkpt lat="59.8048969" lon="17.7649015">
        <ele>11.1925</ele>
        <time>2013-05-30T18:30:11Z</time>
      </trkpt>
      <trkpt lat="59.8048749" lon="17.7650339">
        <ele>11.1925</ele>
        <time>2013-05-30T18:30:12Z</time>
      </trkpt>
      <trkpt lat="59.8048511" lon="17.7651657">
        <ele>10.7118</ele>
        <time>2013-05-30T18:30:13Z</time>
      </trkpt>
      <trkpt lat="59.8048265" lon="17.7652981">
        <ele>10.7118</ele>
        <time>2013-05-30T18:30:14Z</time>
      </trkpt>
      <trkpt lat="59.8048055" lon="17.7654385">
        <ele>11.1925</ele>
        <time>2013-05-30T18:30:15Z</time>
      </trkpt>
      <trkpt lat="59.8047796" lon="17.7655675">
        <ele>10.7118</ele>
        <time>2013-05-30T18:30:16Z</time>
      </trkpt>
      <trkpt lat="59.8047535" lon="17.7656954">
        <ele>10.7118</ele>
        <time>2013-05-30T18:30:17Z</time>
      </trkpt>
      <trkpt lat="59.8047257" lon="17.7658231">
        <ele>10.7118</ele>
        <time>2013-05-30T18:30:18Z</time>
      </trkpt>
      <trkpt lat="59.8046962" lon="17.765952">
        <ele>10.2312</ele>
        <time>2013-05-30T18:30:19Z</time>
      </trkpt>
      <trkpt lat="59.8046661" lon="17.7660816">
        <ele>10.2312</ele>
        <time>2013-05-30T18:30:20Z</time>
      </trkpt>
      <trkpt lat="59.8046403" lon="17.7662166">
        <ele>10.7118</ele>
        <time>2013-05-30T18:30:21Z</time>
      </trkpt>
      <trkpt lat="59.8046127" lon="17.7663437">
        <ele>11.1925</ele>
        <time>2013-05-30T18:30:22Z</time>
      </trkpt>
      <trkpt lat="59.8045827" lon="17.7664701">
        <ele>11.1925</ele>
        <time>2013-05-30T18:30:23Z</time>
      </trkpt>
      <trkpt lat="59.8045505" lon="17.7665965">
        <ele>11.1925</ele>
        <time>2013-05-30T18:30:24Z</time>
      </trkpt>
      <trkpt lat="59.804518" lon="17.7667224">
        <ele>11.1925</ele>
        <time>2013-05-30T18:30:25Z</time>
      </trkpt>
      <trkpt lat="59.8044786" lon="17.7668436">
        <ele>9.2699</ele>
        <time>2013-05-30T18:30:26Z</time>
      </trkpt>
      <trkpt lat="59.8044422" lon="17.7669596">
        <ele>9.2699</ele>
        <time>2013-05-30T18:30:27Z</time>
      </trkpt>
      <trkpt lat="59.8044056" lon="17.7670755">
        <ele>9.2699</ele>
        <time>2013-05-30T18:30:28Z</time>
      </trkpt>
      <trkpt lat="59.8043673" lon="17.7671914">
        <ele>9.2699</ele>
        <time>2013-05-30T18:30:29Z</time>
      </trkpt>
      <trkpt lat="59.8043283" lon="17.7673066">
        <ele>9.2699</ele>
        <time>2013-05-30T18:30:30Z</time>
      </trkpt>
      <trkpt lat="59.8042914" lon="17.7674257">
        <ele>9.75061</ele>
        <time>2013-05-30T18:30:31Z</time>
      </trkpt>
      <trkpt lat="59.8042544" lon="17.7675429">
        <ele>10.2312</ele>
        <time>2013-05-30T18:30:32Z</time>
      </trkpt>
      <trkpt lat="59.8042129" lon="17.7676553">
        <ele>10.2312</ele>
        <time>2013-05-30T18:30:33Z</time>
      </trkpt>
      <trkpt lat="59.8041678" lon="17.7677668">
        <ele>9.2699</ele>
        <time>2013-05-30T18:30:34Z</time>
      </trkpt>
      <trkpt lat="59.8041197" lon="17.7678801">
        <ele>7.82788</ele>
        <time>2013-05-30T18:30:35Z</time>
      </trkpt>
      <trkpt lat="59.8040683" lon="17.767993">
        <ele>6.38586</ele>
        <time>2013-05-30T18:30:36Z</time>
      </trkpt>
      <trkpt lat="59.8040153" lon="17.7681068">
        <ele>5.42456</ele>
        <time>2013-05-30T18:30:37Z</time>
      </trkpt>
      <trkpt lat="59.8039617" lon="17.7682205">
        <ele>4.46326</ele>
        <time>2013-05-30T18:30:38Z</time>
      </trkpt>
      <trkpt lat="59.8039092" lon="17.7683323">
        <ele>3.50195</ele>
        <time>2013-05-30T18:30:39Z</time>
      </trkpt>
      <trkpt lat="59.803856" lon="17.7684386">
        <ele>2.54065</ele>
        <time>2013-05-30T18:30:40Z</time>
      </trkpt>
      <trkpt lat="59.8038067" lon="17.7685451">
        <ele>2.54065</ele>
        <time>2013-05-30T18:30:41Z</time>
      </trkpt>
      <trkpt lat="59.8037595" lon="17.768646">
        <ele>2.06006</ele>
        <time>2013-05-30T18:30:42Z</time>
      </trkpt>
      <trkpt lat="59.803714" lon="17.7687432">
        <ele>2.54065</ele>
        <time>2013-05-30T18:30:43Z</time>
      </trkpt>
      <trkpt lat="59.8036711" lon="17.768845">
        <ele>3.02124</ele>
        <time>2013-05-30T18:30:44Z</time>
      </trkpt>
      <trkpt lat="59.8036312" lon="17.7689507">
        <ele>3.98267</ele>
        <time>2013-05-30T18:30:45Z</time>
      </trkpt>
      <trkpt lat="59.8035871" lon="17.7690501">
        <ele>4.46326</ele>
        <time>2013-05-30T18:30:46Z</time>
      </trkpt>
      <trkpt lat="59.8035424" lon="17.7691472">
        <ele>4.46326</ele>
        <time>2013-05-30T18:30:47Z</time>
      </trkpt>
      <trkpt lat="59.8034973" lon="17.7692439">
        <ele>4.94385</ele>
        <time>2013-05-30T18:30:48Z</time>
      </trkpt>
      <trkpt lat="59.8034524" lon="17.7693393">
        <ele>4.94385</ele>
        <time>2013-05-30T18:30:49Z</time>
      </trkpt>
      <trkpt lat="59.8034079" lon="17.7694361">
        <ele>4.94385</ele>
        <time>2013-05-30T18:30:50Z</time>
      </trkpt>
      <trkpt lat="59.8033645" lon="17.7695354">
        <ele>5.42456</ele>
        <time>2013-05-30T18:30:51Z</time>
      </trkpt>
      <trkpt lat="59.8033214" lon="17.769635">
        <ele>5.90527</ele>
        <time>2013-05-30T18:30:52Z</time>
      </trkpt>
      <trkpt lat="59.8032784" lon="17.7697324">
        <ele>6.38586</ele>
        <time>2013-05-30T18:30:53Z</time>
      </trkpt>
      <trkpt lat="59.8032362" lon="17.7698309">
        <ele>6.86646</ele>
        <time>2013-05-30T18:30:54Z</time>
      </trkpt>
      <trkpt lat="59.8031889" lon="17.7699257">
        <ele>6.38586</ele>
        <time>2013-05-30T18:30:55Z</time>
      </trkpt>
      <trkpt lat="59.8031469" lon="17.7700194">
        <ele>6.86646</ele>
        <time>2013-05-30T18:30:56Z</time>
      </trkpt>
      <trkpt lat="59.8031028" lon="17.7701117">
        <ele>6.86646</ele>
        <time>2013-05-30T18:30:57Z</time>
      </trkpt>
      <trkpt lat="59.8030581" lon="17.770206">
        <ele>6.86646</ele>
        <time>2013-05-30T18:30:58Z</time>
      </trkpt>
      <trkpt lat="59.8030121" lon="17.7702967">
        <ele>6.38586</ele>
        <time>2013-05-30T18:30:59Z</time>
      </trkpt>
      <trkpt lat="59.8029717" lon="17.7703922">
        <ele>7.82788</ele>
        <time>2013-05-30T18:31:00Z</time>
      </trkpt>
      <trkpt lat="59.8029266" lon="17.7704887">
        <ele>7.82788</ele>
        <time>2013-05-30T18:31:01Z</time>
      </trkpt>
      <trkpt lat="59.8028805" lon="17.7705847">
        <ele>7.82788</ele>
        <time>2013-05-30T18:31:02Z</time>
      </trkpt>
      <trkpt lat="59.8028356" lon="17.7706804">
        <ele>7.82788</ele>
        <time>2013-05-30T18:31:03Z</time>
      </trkpt>
      <trkpt lat="59.802792" lon="17.7707751">
        <ele>7.82788</ele>
        <time>2013-05-30T18:31:04Z</time>
      </trkpt>
      <trkpt lat="59.8027552" lon="17.7708726">
        <ele>9.2699</ele>
        <time>2013-05-30T18:31:05Z</time>
      </trkpt>
      <trkpt lat="59.8027163" lon="17.770966">
        <ele>10.2312</ele>
        <time>2013-05-30T18:31:06Z</time>
      </trkpt>
      <trkpt lat="59.8026763" lon="17.7710571">
        <ele>11.1925</ele>
        <time>2013-05-30T18:31:07Z</time>
      </trkpt>
      <trkpt lat="59.8026358" lon="17.7711485">
        <ele>11.6732</ele>
        <time>2013-05-30T18:31:08Z</time>
      </trkpt>
      <trkpt lat="59.8025946" lon="17.7712408">
        <ele>12.6344</ele>
        <time>2013-05-30T18:31:09Z</time>
      </trkpt>
      <trkpt lat="59.802553" lon="17.7713341">
        <ele>13.1151</ele>
        <time>2013-05-30T18:31:10Z</time>
      </trkpt>
      <trkpt lat="59.8025122" lon="17.7714284">
        <ele>14.0764</ele>
        <time>2013-05-30T18:31:11Z</time>
      </trkpt>
      <trkpt lat="59.8024723" lon="17.7715197">
        <ele>14.557</ele>
        <time>2013-05-30T18:31:12Z</time>
      </trkpt>
      <trkpt lat="59.8024323" lon="17.7716077">
        <ele>15.0377</ele>
        <time>2013-05-30T18:31:13Z</time>
      </trkpt>
      <trkpt lat="59.8023852" lon="17.7716952">
        <ele>13.5958</ele>
        <time>2013-05-30T18:31:14Z</time>
      </trkpt>
      <trkpt lat="59.8023371" lon="17.7717842">
        <ele>12.6344</ele>
        <time>2013-05-30T18:31:15Z</time>
      </trkpt>
      <trkpt lat="59.8022894" lon="17.7718755">
        <ele>12.1538</ele>
        <time>2013-05-30T18:31:16Z</time>
      </trkpt>
      <trkpt lat="59.8022421" lon="17.7719685">
        <ele>11.6732</ele>
        <time>2013-05-30T18:31:17Z</time>
      </trkpt>
      <trkpt lat="59.8021946" lon="17.7720614">
        <ele>10.7118</ele>
        <time>2013-05-30T18:31:18Z</time>
      </trkpt>
      <trkpt lat="59.8021475" lon="17.7721527">
        <ele>10.2312</ele>
        <time>2013-05-30T18:31:19Z</time>
      </trkpt>
      <trkpt lat="59.8021009" lon="17.772242">
        <ele>9.75061</ele>
        <time>2013-05-30T18:31:20Z</time>
      </trkpt>
      <trkpt lat="59.8020539" lon="17.7723313">
        <ele>9.2699</ele>
        <time>2013-05-30T18:31:21Z</time>
      </trkpt>
      <trkpt lat="59.8020056" lon="17.772422">
        <ele>8.30859</ele>
        <time>2013-05-30T18:31:22Z</time>
      </trkpt>
      <trkpt lat="59.8019569" lon="17.7725147">
        <ele>8.30859</ele>
        <time>2013-05-30T18:31:23Z</time>
      </trkpt>
      <trkpt lat="59.8019075" lon="17.7726089">
        <ele>7.82788</ele>
        <time>2013-05-30T18:31:24Z</time>
      </trkpt>
      <trkpt lat="59.8018594" lon="17.7727034">
        <ele>6.86646</ele>
        <time>2013-05-30T18:31:25Z</time>
      </trkpt>
      <trkpt lat="59.8018138" lon="17.7727969">
        <ele>6.86646</ele>
        <time>2013-05-30T18:31:26Z</time>
      </trkpt>
      <trkpt lat="59.8017673" lon="17.7728872">
        <ele>6.38586</ele>
        <time>2013-05-30T18:31:27Z</time>
      </trkpt>
      <trkpt lat="59.8017189" lon="17.7729745">
        <ele>5.90527</ele>
        <time>2013-05-30T18:31:28Z</time>
      </trkpt>
      <trkpt lat="59.8016731" lon="17.7730672">
        <ele>6.38586</ele>
        <time>2013-05-30T18:31:29Z</time>
      </trkpt>
      <trkpt lat="59.8016279" lon="17.77316">
        <ele>6.38586</ele>
        <time>2013-05-30T18:31:30Z</time>
      </trkpt>
      <trkpt lat="59.8015818" lon="17.7732529">
        <ele>6.86646</ele>
        <time>2013-05-30T18:31:31Z</time>
      </trkpt>
      <trkpt lat="59.8015347" lon="17.7733451">
        <ele>6.86646</ele>
        <time>2013-05-30T18:31:32Z</time>
      </trkpt>
      <trkpt lat="59.8014871" lon="17.7734363">
        <ele>6.86646</ele>
        <time>2013-05-30T18:31:33Z</time>
      </trkpt>
      <trkpt lat="59.8014397" lon="17.7735296">
        <ele>6.38586</ele>
        <time>2013-05-30T18:31:34Z</time>
      </trkpt>
      <trkpt lat="59.8013928" lon="17.7736259">
        <ele>6.38586</ele>
        <time>2013-05-30T18:31:35Z</time>
      </trkpt>
      <trkpt lat="59.8013483" lon="17.7737244">
        <ele>6.86646</ele>
        <time>2013-05-30T18:31:36Z</time>
      </trkpt>
      <trkpt lat="59.8013032" lon="17.7738218">
        <ele>7.34717</ele>
        <time>2013-05-30T18:31:37Z</time>
      </trkpt>
      <trkpt lat="59.8012586" lon="17.7739206">
        <ele>7.82788</ele>
        <time>2013-05-30T18:31:38Z</time>
      </trkpt>
      <trkpt lat="59.8012136" lon="17.7740193">
        <ele>8.78918</ele>
        <time>2013-05-30T18:31:39Z</time>
      </trkpt>
      <trkpt lat="59.801157" lon="17.7741033">
        <ele>7.34717</ele>
        <time>2013-05-30T18:31:40Z</time>
      </trkpt>
      <trkpt lat="59.8011161" lon="17.7742127">
        <ele>8.30859</ele>
        <time>2013-05-30T18:31:41Z</time>
      </trkpt>
      <trkpt lat="59.8010726" lon="17.7743152">
        <ele>9.2699</ele>
        <time>2013-05-30T18:31:42Z</time>
      </trkpt>
      <trkpt lat="59.8010279" lon="17.774417">
        <ele>9.75061</ele>
        <time>2013-05-30T18:31:43Z</time>
      </trkpt>
      <trkpt lat="59.8009831" lon="17.774521">
        <ele>10.2312</ele>
        <time>2013-05-30T18:31:44Z</time>
      </trkpt>
      <trkpt lat="59.8009364" lon="17.7746203">
        <ele>10.7118</ele>
        <time>2013-05-30T18:31:45Z</time>
      </trkpt>
      <trkpt lat="59.8008891" lon="17.7747204">
        <ele>10.7118</ele>
        <time>2013-05-30T18:31:46Z</time>
      </trkpt>
      <trkpt lat="59.8008411" lon="17.7748203">
        <ele>10.7118</ele>
        <time>2013-05-30T18:31:47Z</time>
      </trkpt>
      <trkpt lat="59.8007908" lon="17.7749141">
        <ele>10.2312</ele>
        <time>2013-05-30T18:31:48Z</time>
      </trkpt>
      <trkpt lat="59.8007435" lon="17.7750103">
        <ele>10.2312</ele>
        <time>2013-05-30T18:31:49Z</time>
      </trkpt>
      <trkpt lat="59.8006914" lon="17.775098">
        <ele>9.75061</ele>
        <time>2013-05-30T18:31:50Z</time>
      </trkpt>
      <trkpt lat="59.8006359" lon="17.7751798">
        <ele>7.82788</ele>
        <time>2013-05-30T18:31:51Z</time>
      </trkpt>
      <trkpt lat="59.8005835" lon="17.7752648">
        <ele>6.86646</ele>
        <time>2013-05-30T18:31:52Z</time>
      </trkpt>
      <trkpt lat="59.8005375" lon="17.7753546">
        <ele>6.86646</ele>
        <time>2013-05-30T18:31:53Z</time>
      </trkpt>
      <trkpt lat="59.8004921" lon="17.7754435">
        <ele>7.34717</ele>
        <time>2013-05-30T18:31:54Z</time>
      </trkpt>
      <trkpt lat="59.800446" lon="17.7755299">
        <ele>7.34717</ele>
        <time>2013-05-30T18:31:55Z</time>
      </trkpt>
      <trkpt lat="59.8004022" lon="17.7756185">
        <ele>8.30859</ele>
        <time>2013-05-30T18:31:56Z</time>
      </trkpt>
      <trkpt lat="59.8003582" lon="17.7757101">
        <ele>8.78918</ele>
        <time>2013-05-30T18:31:57Z</time>
      </trkpt>
      <trkpt lat="59.8003141" lon="17.7758005">
        <ele>8.78918</ele>
        <time>2013-05-30T18:31:58Z</time>
      </trkpt>
      <trkpt lat="59.8002729" lon="17.775888">
        <ele>10.2312</ele>
        <time>2013-05-30T18:31:59Z</time>
      </trkpt>
      <trkpt lat="59.8002351" lon="17.7759767">
        <ele>12.1538</ele>
        <time>2013-05-30T18:32:00Z</time>
      </trkpt>
      <trkpt lat="59.8001915" lon="17.7760629">
        <ele>12.6344</ele>
        <time>2013-05-30T18:32:01Z</time>
      </trkpt>
      <trkpt lat="59.8001455" lon="17.7761473">
        <ele>13.1151</ele>
        <time>2013-05-30T18:32:02Z</time>
      </trkpt>
      <trkpt lat="59.8000991" lon="17.776232">
        <ele>13.5958</ele>
        <time>2013-05-30T18:32:03Z</time>
      </trkpt>
      <trkpt lat="59.80005" lon="17.7763096">
        <ele>13.1151</ele>
        <time>2013-05-30T18:32:04Z</time>
      </trkpt>
      <trkpt lat="59.8000018" lon="17.776392">
        <ele>13.1151</ele>
        <time>2013-05-30T18:32:05Z</time>
      </trkpt>
      <trkpt lat="59.7999505" lon="17.7764687">
        <ele>12.6344</ele>
        <time>2013-05-30T18:32:06Z</time>
      </trkpt>
      <trkpt lat="59.799902" lon="17.7765526">
        <ele>12.6344</ele>
        <time>2013-05-30T18:32:07Z</time>
      </trkpt>
      <trkpt lat="59.7998544" lon="17.7766457">
        <ele>12.6344</ele>
        <time>2013-05-30T18:32:08Z</time>
      </trkpt>
      <trkpt lat="59.799804" lon="17.7767406">
        <ele>12.6344</ele>
        <time>2013-05-30T18:32:09Z</time>
      </trkpt>
      <trkpt lat="59.7997522" lon="17.7768391">
        <ele>12.6344</ele>
        <time>2013-05-30T18:32:10Z</time>
      </trkpt>
      <trkpt lat="59.7996987" lon="17.7769412">
        <ele>12.6344</ele>
        <time>2013-05-30T18:32:11Z</time>
      </trkpt>
      <trkpt lat="59.7996435" lon="17.777041">
        <ele>13.1151</ele>
        <time>2013-05-30T18:32:12Z</time>
      </trkpt>
      <trkpt lat="59.7995845" lon="17.7771272">
        <ele>12.1538</ele>
        <time>2013-05-30T18:32:13Z</time>
      </trkpt>
      <trkpt lat="59.7995306" lon="17.7772144">
        <ele>12.1538</ele>
        <time>2013-05-30T18:32:14Z</time>
      </trkpt>
      <trkpt lat="59.7994781" lon="17.7772903">
        <ele>12.6344</ele>
        <time>2013-05-30T18:32:15Z</time>
      </trkpt>
      <trkpt lat="59.7994317" lon="17.7773778">
        <ele>13.1151</ele>
        <time>2013-05-30T18:32:16Z</time>
      </trkpt>
      <trkpt lat="59.7993903" lon="17.7774704">
        <ele>14.0764</ele>
        <time>2013-05-30T18:32:17Z</time>
      </trkpt>
      <trkpt lat="59.7993482" lon="17.7775566">
        <ele>14.557</ele>
        <time>2013-05-30T18:32:18Z</time>
      </trkpt>
      <trkpt lat="59.7993045" lon="17.7776353">
        <ele>15.0377</ele>
        <time>2013-05-30T18:32:19Z</time>
      </trkpt>
      <trkpt lat="59.7992595" lon="17.7777143">
        <ele>15.0377</ele>
        <time>2013-05-30T18:32:20Z</time>
      </trkpt>
      <trkpt lat="59.7992141" lon="17.7777923">
        <ele>15.5184</ele>
        <time>2013-05-30T18:32:21Z</time>
      </trkpt>
      <trkpt lat="59.7991695" lon="17.7778724">
        <ele>15.5184</ele>
        <time>2013-05-30T18:32:22Z</time>
      </trkpt>
      <trkpt lat="59.7991214" lon="17.777948">
        <ele>15.5184</ele>
        <time>2013-05-30T18:32:23Z</time>
      </trkpt>
      <trkpt lat="59.7990617" lon="17.7780094">
        <ele>14.0764</ele>
        <time>2013-05-30T18:32:24Z</time>
      </trkpt>
      <trkpt lat="59.7990058" lon="17.7780708">
        <ele>14.0764</ele>
        <time>2013-05-30T18:32:25Z</time>
      </trkpt>
      <trkpt lat="59.7989442" lon="17.7781267">
        <ele>12.1538</ele>
        <time>2013-05-30T18:32:26Z</time>
      </trkpt>
      <trkpt lat="59.7988873" lon="17.7781868">
        <ele>11.1925</ele>
        <time>2013-05-30T18:32:27Z</time>
      </trkpt>
      <trkpt lat="59.7988349" lon="17.7782536">
        <ele>11.1925</ele>
        <time>2013-05-30T18:32:28Z</time>
      </trkpt>
      <trkpt lat="59.7987832" lon="17.7783164">
        <ele>11.1925</ele>
        <time>2013-05-30T18:32:29Z</time>
      </trkpt>
      <trkpt lat="59.7987352" lon="17.7783803">
        <ele>11.1925</ele>
        <time>2013-05-30T18:32:30Z</time>
      </trkpt>
      <trkpt lat="59.7986884" lon="17.778446">
        <ele>11.1925</ele>
        <time>2013-05-30T18:32:31Z</time>
      </trkpt>
      <trkpt lat="59.7986387" lon="17.7785097">
        <ele>11.1925</ele>
        <time>2013-05-30T18:32:32Z</time>
      </trkpt>
      <trkpt lat="59.7985878" lon="17.7785778">
        <ele>11.1925</ele>
        <time>2013-05-30T18:32:33Z</time>
      </trkpt>
      <trkpt lat="59.7985358" lon="17.7786478">
        <ele>10.7118</ele>
        <time>2013-05-30T18:32:34Z</time>
      </trkpt>
      <trkpt lat="59.7984824" lon="17.7787205">
        <ele>10.7118</ele>
        <time>2013-05-30T18:32:35Z</time>
      </trkpt>
      <trkpt lat="59.7984288" lon="17.7787978">
        <ele>10.7118</ele>
        <time>2013-05-30T18:32:36Z</time>
      </trkpt>
      <trkpt lat="59.7983765" lon="17.7788778">
        <ele>10.2312</ele>
        <time>2013-05-30T18:32:37Z</time>
      </trkpt>
      <trkpt lat="59.7983262" lon="17.7789599">
        <ele>10.2312</ele>
        <time>2013-05-30T18:32:38Z</time>
      </trkpt>
      <trkpt lat="59.7982761" lon="17.779044">
        <ele>10.2312</ele>
        <time>2013-05-30T18:32:39Z</time>
      </trkpt>
      <trkpt lat="59.7982191" lon="17.779121">
        <ele>8.78918</ele>
        <time>2013-05-30T18:32:40Z</time>
      </trkpt>
      <trkpt lat="59.7981646" lon="17.7792031">
        <ele>7.82788</ele>
        <time>2013-05-30T18:32:41Z</time>
      </trkpt>
      <trkpt lat="59.7981211" lon="17.7792948">
        <ele>8.78918</ele>
        <time>2013-05-30T18:32:42Z</time>
      </trkpt>
      <trkpt lat="59.7980812" lon="17.7793885">
        <ele>9.75061</ele>
        <time>2013-05-30T18:32:43Z</time>
      </trkpt>
      <trkpt lat="59.7980318" lon="17.7794695">
        <ele>9.2699</ele>
        <time>2013-05-30T18:32:44Z</time>
      </trkpt>
      <trkpt lat="59.7979796" lon="17.7795567">
        <ele>8.30859</ele>
        <time>2013-05-30T18:32:45Z</time>
      </trkpt>
      <trkpt lat="59.7979271" lon="17.7796491">
        <ele>7.34717</ele>
        <time>2013-05-30T18:32:46Z</time>
      </trkpt>
      <trkpt lat="59.797874" lon="17.7797463">
        <ele>5.90527</ele>
        <time>2013-05-30T18:32:47Z</time>
      </trkpt>
      <trkpt lat="59.7978207" lon="17.7798528">
        <ele>4.94385</ele>
        <time>2013-05-30T18:32:48Z</time>
      </trkpt>
      <trkpt lat="59.7977699" lon="17.7799642">
        <ele>4.46326</ele>
        <time>2013-05-30T18:32:49Z</time>
      </trkpt>
      <trkpt lat="59.797723" lon="17.7800842">
        <ele>3.98267</ele>
        <time>2013-05-30T18:32:50Z</time>
      </trkpt>
      <trkpt lat="59.7976776" lon="17.7802118">
        <ele>3.50195</ele>
        <time>2013-05-30T18:32:51Z</time>
      </trkpt>
      <trkpt lat="59.7976443" lon="17.7803636">
        <ele>4.94385</ele>
        <time>2013-05-30T18:32:52Z</time>
      </trkpt>
      <trkpt lat="59.797606" lon="17.7804998">
        <ele>5.42456</ele>
        <time>2013-05-30T18:32:53Z</time>
      </trkpt>
      <trkpt lat="59.7975652" lon="17.7806242">
        <ele>5.90527</ele>
        <time>2013-05-30T18:32:54Z</time>
      </trkpt>
      <trkpt lat="59.7975227" lon="17.7807429">
        <ele>5.42456</ele>
        <time>2013-05-30T18:32:55Z</time>
      </trkpt>
      <trkpt lat="59.7974828" lon="17.7808681">
        <ele>5.42456</ele>
        <time>2013-05-30T18:32:56Z</time>
      </trkpt>
      <trkpt lat="59.7974464" lon="17.7809995">
        <ele>6.38586</ele>
        <time>2013-05-30T18:32:57Z</time>
      </trkpt>
      <trkpt lat="59.7974062" lon="17.7811187">
        <ele>6.38586</ele>
        <time>2013-05-30T18:32:58Z</time>
      </trkpt>
      <trkpt lat="59.7973671" lon="17.7812442">
        <ele>6.86646</ele>
        <time>2013-05-30T18:32:59Z</time>
      </trkpt>
      <trkpt lat="59.797327" lon="17.7813741">
        <ele>7.34717</ele>
        <time>2013-05-30T18:33:00Z</time>
      </trkpt>
      <trkpt lat="59.7972853" lon="17.7814975">
        <ele>7.82788</ele>
        <time>2013-05-30T18:33:01Z</time>
      </trkpt>
      <trkpt lat="59.7972405" lon="17.7816162">
        <ele>6.38586</ele>
        <time>2013-05-30T18:33:02Z</time>
      </trkpt>
      <trkpt lat="59.7971985" lon="17.7817426">
        <ele>6.38586</ele>
        <time>2013-05-30T18:33:03Z</time>
      </trkpt>
      <trkpt lat="59.797156" lon="17.7818923">
        <ele>5.90527</ele>
        <time>2013-05-30T18:33:04Z</time>
      </trkpt>
      <trkpt lat="59.7971081" lon="17.7820347">
        <ele>6.86646</ele>
        <time>2013-05-30T18:33:05Z</time>
      </trkpt>
      <trkpt lat="59.7970643" lon="17.7821501">
        <ele>7.34717</ele>
        <time>2013-05-30T18:33:06Z</time>
      </trkpt>
      <trkpt lat="59.7970183" lon="17.7822512">
        <ele>7.34717</ele>
        <time>2013-05-30T18:33:07Z</time>
      </trkpt>
      <trkpt lat="59.7969698" lon="17.7823612">
        <ele>6.86646</ele>
        <time>2013-05-30T18:33:08Z</time>
      </trkpt>
      <trkpt lat="59.7969163" lon="17.7824579">
        <ele>5.42456</ele>
        <time>2013-05-30T18:33:09Z</time>
      </trkpt>
      <trkpt lat="59.7968628" lon="17.7825438">
        <ele>3.98267</ele>
        <time>2013-05-30T18:33:10Z</time>
      </trkpt>
      <trkpt lat="59.7968078" lon="17.782624">
        <ele>2.06006</ele>
        <time>2013-05-30T18:33:11Z</time>
      </trkpt>
      <trkpt lat="59.7967561" lon="17.7827242">
        <ele>0.137451</ele>
        <time>2013-05-30T18:33:12Z</time>
      </trkpt>
      <trkpt lat="59.7967088" lon="17.7828283">
        <ele>0</ele>
        <time>2013-05-30T18:33:13Z</time>
      </trkpt>
      <trkpt lat="59.7966607" lon="17.782934">
        <ele>0</ele>
        <time>2013-05-30T18:33:14Z</time>
      </trkpt>
      <trkpt lat="59.7966116" lon="17.7830438">
        <ele>0</ele>
        <time>2013-05-30T18:33:15Z</time>
      </trkpt>
      <trkpt lat="59.7965634" lon="17.7831531">
        <ele>0</ele>
        <time>2013-05-30T18:33:16Z</time>
      </trkpt>
      <trkpt lat="59.7965151" lon="17.7832577">
        <ele>0</ele>
        <time>2013-05-30T18:33:17Z</time>
      </trkpt>
      <trkpt lat="59.7964681" lon="17.7833613">
        <ele>0</ele>
        <time>2013-05-30T18:33:18Z</time>
      </trkpt>
      <trkpt lat="59.7964241" lon="17.7834717">
        <ele>0</ele>
        <time>2013-05-30T18:33:19Z</time>
      </trkpt>
      <trkpt lat="59.79638" lon="17.7835836">
        <ele>0</ele>
        <time>2013-05-30T18:33:20Z</time>
      </trkpt>
      <trkpt lat="59.7963381" lon="17.7836987">
        <ele>0</ele>
        <time>2013-05-30T18:33:21Z</time>
      </trkpt>
      <trkpt lat="59.7962997" lon="17.7838197">
        <ele>0</ele>
        <time>2013-05-30T18:33:22Z</time>
      </trkpt>
      <trkpt lat="59.7962607" lon="17.7839401">
        <ele>0</ele>
        <time>2013-05-30T18:33:23Z</time>
      </trkpt>
      <trkpt lat="59.7962324" lon="17.7840884">
        <ele>0</ele>
        <time>2013-05-30T18:33:24Z</time>
      </trkpt>
      <trkpt lat="59.7962075" lon="17.7842446">
        <ele>0</ele>
        <time>2013-05-30T18:33:25Z</time>
      </trkpt>
      <trkpt lat="59.796177" lon="17.7843749">
        <ele>0</ele>
        <time>2013-05-30T18:33:26Z</time>
      </trkpt>
      <trkpt lat="59.7961442" lon="17.7844938">
        <ele>0</ele>
        <time>2013-05-30T18:33:27Z</time>
      </trkpt>
      <trkpt lat="59.796117" lon="17.784614">
        <ele>0</ele>
        <time>2013-05-30T18:33:28Z</time>
      </trkpt>
      <trkpt lat="59.7960955" lon="17.7847292">
        <ele>0</ele>
        <time>2013-05-30T18:33:29Z</time>
      </trkpt>
      <trkpt lat="59.7960742" lon="17.7848416">
        <ele>0</ele>
        <time>2013-05-30T18:33:30Z</time>
      </trkpt>
      <trkpt lat="59.7960559" lon="17.7849542">
        <ele>0</ele>
        <time>2013-05-30T18:33:31Z</time>
      </trkpt>
      <trkpt lat="59.7960362" lon="17.7850704">
        <ele>0</ele>
        <time>2013-05-30T18:33:32Z</time>
      </trkpt>
      <trkpt lat="59.7960154" lon="17.7851806">
        <ele>0</ele>
        <time>2013-05-30T18:33:33Z</time>
      </trkpt>
      <trkpt lat="59.7959976" lon="17.7852914">
        <ele>1.57935</ele>
        <time>2013-05-30T18:33:34Z</time>
      </trkpt>
      <trkpt lat="59.7959769" lon="17.7854141">
        <ele>2.06006</ele>
        <time>2013-05-30T18:33:35Z</time>
      </trkpt>
      <trkpt lat="59.7959515" lon="17.7855298">
        <ele>3.02124</ele>
        <time>2013-05-30T18:33:36Z</time>
      </trkpt>
      <trkpt lat="59.7959256" lon="17.7856401">
        <ele>4.46326</ele>
        <time>2013-05-30T18:33:37Z</time>
      </trkpt>
      <trkpt lat="59.7959004" lon="17.7857499">
        <ele>6.38586</ele>
        <time>2013-05-30T18:33:38Z</time>
      </trkpt>
      <trkpt lat="59.7958688" lon="17.7858548">
        <ele>6.86646</ele>
        <time>2013-05-30T18:33:39Z</time>
      </trkpt>
      <trkpt lat="59.7958324" lon="17.7859509">
        <ele>6.86646</ele>
        <time>2013-05-30T18:33:40Z</time>
      </trkpt>
      <trkpt lat="59.7957878" lon="17.7860311">
        <ele>5.42456</ele>
        <time>2013-05-30T18:33:41Z</time>
      </trkpt>
      <trkpt lat="59.7957527" lon="17.7861289">
        <ele>5.90527</ele>
        <time>2013-05-30T18:33:42Z</time>
      </trkpt>
      <trkpt lat="59.7957147" lon="17.7862162">
        <ele>5.42456</ele>
        <time>2013-05-30T18:33:43Z</time>
      </trkpt>
      <trkpt lat="59.7956786" lon="17.7863026">
        <ele>6.38586</ele>
        <time>2013-05-30T18:33:44Z</time>
      </trkpt>
      <trkpt lat="59.7956393" lon="17.7863844">
        <ele>6.86646</ele>
        <time>2013-05-30T18:33:45Z</time>
      </trkpt>
      <trkpt lat="59.7955989" lon="17.7864656">
        <ele>7.34717</ele>
        <time>2013-05-30T18:33:46Z</time>
      </trkpt>
      <trkpt lat="59.7955575" lon="17.7865454">
        <ele>7.34717</ele>
        <time>2013-05-30T18:33:47Z</time>
      </trkpt>
      <trkpt lat="59.7955158" lon="17.7866241">
        <ele>7.34717</ele>
        <time>2013-05-30T18:33:48Z</time>
      </trkpt>
      <trkpt lat="59.795475" lon="17.7867018">
        <ele>7.82788</ele>
        <time>2013-05-30T18:33:49Z</time>
      </trkpt>
      <trkpt lat="59.7954343" lon="17.7867775">
        <ele>7.82788</ele>
        <time>2013-05-30T18:33:50Z</time>
      </trkpt>
      <trkpt lat="59.7953943" lon="17.7868558">
        <ele>7.82788</ele>
        <time>2013-05-30T18:33:51Z</time>
      </trkpt>
      <trkpt lat="59.7953586" lon="17.7869409">
        <ele>8.78918</ele>
        <time>2013-05-30T18:33:52Z</time>
      </trkpt>
      <trkpt lat="59.7953155" lon="17.7870183">
        <ele>8.78918</ele>
        <time>2013-05-30T18:33:53Z</time>
      </trkpt>
      <trkpt lat="59.7952725" lon="17.7871022">
        <ele>8.78918</ele>
        <time>2013-05-30T18:33:54Z</time>
      </trkpt>
      <trkpt lat="59.7952267" lon="17.7871878">
        <ele>8.78918</ele>
        <time>2013-05-30T18:33:55Z</time>
      </trkpt>
      <trkpt lat="59.7951792" lon="17.7872749">
        <ele>8.78918</ele>
        <time>2013-05-30T18:33:56Z</time>
      </trkpt>
      <trkpt lat="59.7951301" lon="17.7873629">
        <ele>8.78918</ele>
        <time>2013-05-30T18:33:57Z</time>
      </trkpt>
      <trkpt lat="59.7950775" lon="17.7874491">
        <ele>7.82788</ele>
        <time>2013-05-30T18:33:58Z</time>
      </trkpt>
      <trkpt lat="59.79503" lon="17.7875417">
        <ele>7.82788</ele>
        <time>2013-05-30T18:33:59Z</time>
      </trkpt>
      <trkpt lat="59.7949831" lon="17.7876298">
        <ele>7.34717</ele>
        <time>2013-05-30T18:34:00Z</time>
      </trkpt>
      <trkpt lat="59.7949357" lon="17.7877177">
        <ele>6.86646</ele>
        <time>2013-05-30T18:34:01Z</time>
      </trkpt>
      <trkpt lat="59.79489" lon="17.7878177">
        <ele>6.86646</ele>
        <time>2013-05-30T18:34:02Z</time>
      </trkpt>
      <trkpt lat="59.7948444" lon="17.7879192">
        <ele>6.86646</ele>
        <time>2013-05-30T18:34:03Z</time>
      </trkpt>
      <trkpt lat="59.7947999" lon="17.7880198">
        <ele>6.86646</ele>
        <time>2013-05-30T18:34:04Z</time>
      </trkpt>
      <trkpt lat="59.7947576" lon="17.7881213">
        <ele>6.86646</ele>
        <time>2013-05-30T18:34:05Z</time>
      </trkpt>
      <trkpt lat="59.7947166" lon="17.7882286">
        <ele>7.34717</ele>
        <time>2013-05-30T18:34:06Z</time>
      </trkpt>
      <trkpt lat="59.794678" lon="17.7883415">
        <ele>7.34717</ele>
        <time>2013-05-30T18:34:07Z</time>
      </trkpt>
      <trkpt lat="59.7946446" lon="17.7884596">
        <ele>8.30859</ele>
        <time>2013-05-30T18:34:08Z</time>
      </trkpt>
      <trkpt lat="59.7946131" lon="17.7885803">
        <ele>8.78918</ele>
        <time>2013-05-30T18:34:09Z</time>
      </trkpt>
      <trkpt lat="59.7945835" lon="17.7887041">
        <ele>9.75061</ele>
        <time>2013-05-30T18:34:10Z</time>
      </trkpt>
      <trkpt lat="59.7945531" lon="17.7888227">
        <ele>10.2312</ele>
        <time>2013-05-30T18:34:11Z</time>
      </trkpt>
      <trkpt lat="59.794525" lon="17.7889418">
        <ele>10.2312</ele>
        <time>2013-05-30T18:34:12Z</time>
      </trkpt>
      <trkpt lat="59.7944965" lon="17.7890614">
        <ele>10.2312</ele>
        <time>2013-05-30T18:34:13Z</time>
      </trkpt>
      <trkpt lat="59.794471" lon="17.7891879">
        <ele>11.1925</ele>
        <time>2013-05-30T18:34:14Z</time>
      </trkpt>
      <trkpt lat="59.7944433" lon="17.7893066">
        <ele>11.6732</ele>
        <time>2013-05-30T18:34:15Z</time>
      </trkpt>
      <trkpt lat="59.7944141" lon="17.7894355">
        <ele>12.1538</ele>
        <time>2013-05-30T18:34:16Z</time>
      </trkpt>
      <trkpt lat="59.794382" lon="17.7895635">
        <ele>12.1538</ele>
        <time>2013-05-30T18:34:17Z</time>
      </trkpt>
      <trkpt lat="59.7943446" lon="17.7896829">
        <ele>12.1538</ele>
        <time>2013-05-30T18:34:18Z</time>
      </trkpt>
      <trkpt lat="59.7943062" lon="17.7898036">
        <ele>11.6732</ele>
        <time>2013-05-30T18:34:19Z</time>
      </trkpt>
      <trkpt lat="59.794265" lon="17.7899214">
        <ele>11.1925</ele>
        <time>2013-05-30T18:34:20Z</time>
      </trkpt>
      <trkpt lat="59.7942228" lon="17.790038">
        <ele>11.1925</ele>
        <time>2013-05-30T18:34:21Z</time>
      </trkpt>
      <trkpt lat="59.7941779" lon="17.7901507">
        <ele>10.7118</ele>
        <time>2013-05-30T18:34:22Z</time>
      </trkpt>
      <trkpt lat="59.794135" lon="17.7902685">
        <ele>11.1925</ele>
        <time>2013-05-30T18:34:23Z</time>
      </trkpt>
      <trkpt lat="59.7940868" lon="17.7903742">
        <ele>11.1925</ele>
        <time>2013-05-30T18:34:24Z</time>
      </trkpt>
      <trkpt lat="59.7940355" lon="17.7904687">
        <ele>10.2312</ele>
        <time>2013-05-30T18:34:25Z</time>
      </trkpt>
      <trkpt lat="59.7939868" lon="17.7905678">
        <ele>9.75061</ele>
        <time>2013-05-30T18:34:26Z</time>
      </trkpt>
      <trkpt lat="59.7939421" lon="17.79067">
        <ele>10.7118</ele>
        <time>2013-05-30T18:34:27Z</time>
      </trkpt>
      <trkpt lat="59.793898" lon="17.7907736">
        <ele>11.1925</ele>
        <time>2013-05-30T18:34:28Z</time>
      </trkpt>
      <trkpt lat="59.7938491" lon="17.7908733">
        <ele>11.1925</ele>
        <time>2013-05-30T18:34:29Z</time>
      </trkpt>
      <trkpt lat="59.7938003" lon="17.7909764">
        <ele>11.1925</ele>
        <time>2013-05-30T18:34:30Z</time>
      </trkpt>
      <trkpt lat="59.7937515" lon="17.7910807">
        <ele>11.6732</ele>
        <time>2013-05-30T18:34:31Z</time>
      </trkpt>
      <trkpt lat="59.7937055" lon="17.7911895">
        <ele>12.1538</ele>
        <time>2013-05-30T18:34:32Z</time>
      </trkpt>
      <trkpt lat="59.7936574" lon="17.791295">
        <ele>12.6344</ele>
        <time>2013-05-30T18:34:33Z</time>
      </trkpt>
      <trkpt lat="59.7936103" lon="17.7914007">
        <ele>13.1151</ele>
        <time>2013-05-30T18:34:34Z</time>
      </trkpt>
      <trkpt lat="59.7935631" lon="17.7915024">
        <ele>13.1151</ele>
        <time>2013-05-30T18:34:35Z</time>
      </trkpt>
      <trkpt lat="59.7935164" lon="17.7916008">
        <ele>13.1151</ele>
        <time>2013-05-30T18:34:36Z</time>
      </trkpt>
      <trkpt lat="59.7934691" lon="17.791696">
        <ele>13.1151</ele>
        <time>2013-05-30T18:34:37Z</time>
      </trkpt>
      <trkpt lat="59.793423" lon="17.7917935">
        <ele>13.5958</ele>
        <time>2013-05-30T18:34:38Z</time>
      </trkpt>
      <trkpt lat="59.7933767" lon="17.79189">
        <ele>13.5958</ele>
        <time>2013-05-30T18:34:39Z</time>
      </trkpt>
      <trkpt lat="59.7933303" lon="17.7919818">
        <ele>13.5958</ele>
        <time>2013-05-30T18:34:40Z</time>
      </trkpt>
      <trkpt lat="59.7932832" lon="17.7920737">
        <ele>14.0764</ele>
        <time>2013-05-30T18:34:41Z</time>
      </trkpt>
      <trkpt lat="59.7932358" lon="17.7921717">
        <ele>14.0764</ele>
        <time>2013-05-30T18:34:42Z</time>
      </trkpt>
      <trkpt lat="59.7931847" lon="17.7922675">
        <ele>13.1151</ele>
        <time>2013-05-30T18:34:43Z</time>
      </trkpt>
      <trkpt lat="59.7931357" lon="17.7923684">
        <ele>13.1151</ele>
        <time>2013-05-30T18:34:44Z</time>
      </trkpt>
      <trkpt lat="59.7930886" lon="17.7924717">
        <ele>13.5958</ele>
        <time>2013-05-30T18:34:45Z</time>
      </trkpt>
      <trkpt lat="59.793042" lon="17.7925758">
        <ele>14.0764</ele>
        <time>2013-05-30T18:34:46Z</time>
      </trkpt>
      <trkpt lat="59.7929958" lon="17.7926809">
        <ele>15.0377</ele>
        <time>2013-05-30T18:34:47Z</time>
      </trkpt>
      <trkpt lat="59.7929465" lon="17.7927845">
        <ele>15.5184</ele>
        <time>2013-05-30T18:34:48Z</time>
      </trkpt>
      <trkpt lat="59.7928962" lon="17.7928882">
        <ele>15.5184</ele>
        <time>2013-05-30T18:34:49Z</time>
      </trkpt>
      <trkpt lat="59.7928461" lon="17.7929936">
        <ele>15.5184</ele>
        <time>2013-05-30T18:34:50Z</time>
      </trkpt>
      <trkpt lat="59.7927963" lon="17.7931026">
        <ele>15.999</ele>
        <time>2013-05-30T18:34:51Z</time>
      </trkpt>
      <trkpt lat="59.7927463" lon="17.7932139">
        <ele>15.999</ele>
        <time>2013-05-30T18:34:52Z</time>
      </trkpt>
      <trkpt lat="59.7926954" lon="17.7933251">
        <ele>16.4797</ele>
        <time>2013-05-30T18:34:53Z</time>
      </trkpt>
      <trkpt lat="59.7926447" lon="17.7934367">
        <ele>16.9604</ele>
        <time>2013-05-30T18:34:54Z</time>
      </trkpt>
      <trkpt lat="59.7925937" lon="17.7935464">
        <ele>16.9604</ele>
        <time>2013-05-30T18:34:55Z</time>
      </trkpt>
      <trkpt lat="59.7925429" lon="17.793655">
        <ele>16.9604</ele>
        <time>2013-05-30T18:34:56Z</time>
      </trkpt>
      <trkpt lat="59.7924925" lon="17.7937615">
        <ele>17.4412</ele>
        <time>2013-05-30T18:34:57Z</time>
      </trkpt>
      <trkpt lat="59.7924401" lon="17.793865">
        <ele>16.9604</ele>
        <time>2013-05-30T18:34:58Z</time>
      </trkpt>
      <trkpt lat="59.7923875" lon="17.7939685">
        <ele>16.4797</ele>
        <time>2013-05-30T18:34:59Z</time>
      </trkpt>
      <trkpt lat="59.7923357" lon="17.7940713">
        <ele>15.999</ele>
        <time>2013-05-30T18:35:00Z</time>
      </trkpt>
      <trkpt lat="59.7922844" lon="17.7941739">
        <ele>15.5184</ele>
        <time>2013-05-30T18:35:01Z</time>
      </trkpt>
      <trkpt lat="59.7922334" lon="17.7942758">
        <ele>15.5184</ele>
        <time>2013-05-30T18:35:02Z</time>
      </trkpt>
      <trkpt lat="59.792182" lon="17.7943773">
        <ele>15.0377</ele>
        <time>2013-05-30T18:35:03Z</time>
      </trkpt>
      <trkpt lat="59.7921296" lon="17.7944788">
        <ele>15.0377</ele>
        <time>2013-05-30T18:35:04Z</time>
      </trkpt>
      <trkpt lat="59.7920769" lon="17.7945805">
        <ele>14.557</ele>
        <time>2013-05-30T18:35:05Z</time>
      </trkpt>
      <trkpt lat="59.7920262" lon="17.7946836">
        <ele>15.0377</ele>
        <time>2013-05-30T18:35:06Z</time>
      </trkpt>
      <trkpt lat="59.7919759" lon="17.7947865">
        <ele>15.0377</ele>
        <time>2013-05-30T18:35:07Z</time>
      </trkpt>
      <trkpt lat="59.7919247" lon="17.7948871">
        <ele>15.5184</ele>
        <time>2013-05-30T18:35:08Z</time>
      </trkpt>
      <trkpt lat="59.7918743" lon="17.794986">
        <ele>15.5184</ele>
        <time>2013-05-30T18:35:09Z</time>
      </trkpt>
      <trkpt lat="59.791825" lon="17.7950818">
        <ele>15.999</ele>
        <time>2013-05-30T18:35:10Z</time>
      </trkpt>
      <trkpt lat="59.7917796" lon="17.7951783">
        <ele>16.4797</ele>
        <time>2013-05-30T18:35:11Z</time>
      </trkpt>
      <trkpt lat="59.791733" lon="17.7952771">
        <ele>16.4797</ele>
        <time>2013-05-30T18:35:12Z</time>
      </trkpt>
      <trkpt lat="59.7916863" lon="17.7953827">
        <ele>16.9604</ele>
        <time>2013-05-30T18:35:13Z</time>
      </trkpt>
      <trkpt lat="59.791637" lon="17.7954842">
        <ele>15.999</ele>
        <time>2013-05-30T18:35:14Z</time>
      </trkpt>
      <trkpt lat="59.7915961" lon="17.7955986">
        <ele>16.9604</ele>
        <time>2013-05-30T18:35:15Z</time>
      </trkpt>
      <trkpt lat="59.791553" lon="17.7957133">
        <ele>16.9604</ele>
        <time>2013-05-30T18:35:16Z</time>
      </trkpt>
      <trkpt lat="59.7915087" lon="17.7958244">
        <ele>16.4797</ele>
        <time>2013-05-30T18:35:17Z</time>
      </trkpt>
      <trkpt lat="59.7914653" lon="17.7959361">
        <ele>16.4797</ele>
        <time>2013-05-30T18:35:18Z</time>
      </trkpt>
      <trkpt lat="59.7914274" lon="17.7960532">
        <ele>16.9604</ele>
        <time>2013-05-30T18:35:19Z</time>
      </trkpt>
      <trkpt lat="59.7913909" lon="17.7961706">
        <ele>16.9604</ele>
        <time>2013-05-30T18:35:20Z</time>
      </trkpt>
      <trkpt lat="59.7913533" lon="17.7962941">
        <ele>16.4797</ele>
        <time>2013-05-30T18:35:21Z</time>
      </trkpt>
      <trkpt lat="59.7913154" lon="17.7964186">
        <ele>15.999</ele>
        <time>2013-05-30T18:35:22Z</time>
      </trkpt>
      <trkpt lat="59.791275" lon="17.7965419">
        <ele>15.5184</ele>
        <time>2013-05-30T18:35:23Z</time>
      </trkpt>
      <trkpt lat="59.7912398" lon="17.7966752">
        <ele>16.4797</ele>
        <time>2013-05-30T18:35:24Z</time>
      </trkpt>
      <trkpt lat="59.7912028" lon="17.7968068">
        <ele>16.9604</ele>
        <time>2013-05-30T18:35:25Z</time>
      </trkpt>
      <trkpt lat="59.7911663" lon="17.7969362">
        <ele>16.9604</ele>
        <time>2013-05-30T18:35:26Z</time>
      </trkpt>
      <trkpt lat="59.7911304" lon="17.7970643">
        <ele>17.4412</ele>
        <time>2013-05-30T18:35:27Z</time>
      </trkpt>
      <trkpt lat="59.7910868" lon="17.7971818">
        <ele>15.5184</ele>
        <time>2013-05-30T18:35:28Z</time>
      </trkpt>
      <trkpt lat="59.7910506" lon="17.7973114">
        <ele>15.5184</ele>
        <time>2013-05-30T18:35:29Z</time>
      </trkpt>
      <trkpt lat="59.7910145" lon="17.7974398">
        <ele>15.0377</ele>
        <time>2013-05-30T18:35:30Z</time>
      </trkpt>
      <trkpt lat="59.7909751" lon="17.7975599">
        <ele>14.0764</ele>
        <time>2013-05-30T18:35:31Z</time>
      </trkpt>
      <trkpt lat="59.7909389" lon="17.7976889">
        <ele>13.5958</ele>
        <time>2013-05-30T18:35:32Z</time>
      </trkpt>
      <trkpt lat="59.7909037" lon="17.7978174">
        <ele>13.5958</ele>
        <time>2013-05-30T18:35:33Z</time>
      </trkpt>
      <trkpt lat="59.7908684" lon="17.7979428">
        <ele>13.1151</ele>
        <time>2013-05-30T18:35:34Z</time>
      </trkpt>
      <trkpt lat="59.7908333" lon="17.7980634">
        <ele>13.1151</ele>
        <time>2013-05-30T18:35:35Z</time>
      </trkpt>
      <trkpt lat="59.7908011" lon="17.7981806">
        <ele>12.6344</ele>
        <time>2013-05-30T18:35:36Z</time>
      </trkpt>
      <trkpt lat="59.7907742" lon="17.7983002">
        <ele>13.5958</ele>
        <time>2013-05-30T18:35:37Z</time>
      </trkpt>
      <trkpt lat="59.7907465" lon="17.7984171">
        <ele>14.0764</ele>
        <time>2013-05-30T18:35:38Z</time>
      </trkpt>
      <trkpt lat="59.7907156" lon="17.7985288">
        <ele>14.0764</ele>
        <time>2013-05-30T18:35:39Z</time>
      </trkpt>
      <trkpt lat="59.790684" lon="17.7986424">
        <ele>14.0764</ele>
        <time>2013-05-30T18:35:40Z</time>
      </trkpt>
      <trkpt lat="59.7906513" lon="17.7987571">
        <ele>14.0764</ele>
        <time>2013-05-30T18:35:41Z</time>
      </trkpt>
      <trkpt lat="59.7906182" lon="17.7988707">
        <ele>14.0764</ele>
        <time>2013-05-30T18:35:42Z</time>
      </trkpt>
      <trkpt lat="59.7905834" lon="17.7989843">
        <ele>14.557</ele>
        <time>2013-05-30T18:35:43Z</time>
      </trkpt>
      <trkpt lat="59.7905463" lon="17.7990979">
        <ele>14.557</ele>
        <time>2013-05-30T18:35:44Z</time>
      </trkpt>
      <trkpt lat="59.7905078" lon="17.7992097">
        <ele>14.0764</ele>
        <time>2013-05-30T18:35:45Z</time>
      </trkpt>
      <trkpt lat="59.7904622" lon="17.7993118">
        <ele>13.1151</ele>
        <time>2013-05-30T18:35:46Z</time>
      </trkpt>
      <trkpt lat="59.7904142" lon="17.7994041">
        <ele>12.1538</ele>
        <time>2013-05-30T18:35:47Z</time>
      </trkpt>
      <trkpt lat="59.7903691" lon="17.7994974">
        <ele>11.6732</ele>
        <time>2013-05-30T18:35:48Z</time>
      </trkpt>
      <trkpt lat="59.7903253" lon="17.7995945">
        <ele>11.1925</ele>
        <time>2013-05-30T18:35:49Z</time>
      </trkpt>
      <trkpt lat="59.790281" lon="17.7996947">
        <ele>11.1925</ele>
        <time>2013-05-30T18:35:50Z</time>
      </trkpt>
      <trkpt lat="59.7902348" lon="17.7997947">
        <ele>11.6732</ele>
        <time>2013-05-30T18:35:51Z</time>
      </trkpt>
      <trkpt lat="59.7901862" lon="17.7998922">
        <ele>11.6732</ele>
        <time>2013-05-30T18:35:52Z</time>
      </trkpt>
      <trkpt lat="59.7901368" lon="17.7999864">
        <ele>12.1538</ele>
        <time>2013-05-30T18:35:53Z</time>
      </trkpt>
      <trkpt lat="59.7900871" lon="17.8000795">
        <ele>12.1538</ele>
        <time>2013-05-30T18:35:54Z</time>
      </trkpt>
      <trkpt lat="59.790037" lon="17.8001731">
        <ele>12.1538</ele>
        <time>2013-05-30T18:35:55Z</time>
      </trkpt>
      <trkpt lat="59.789986" lon="17.8002635">
        <ele>12.1538</ele>
        <time>2013-05-30T18:35:56Z</time>
      </trkpt>
      <trkpt lat="59.7899353" lon="17.8003531">
        <ele>12.1538</ele>
        <time>2013-05-30T18:35:57Z</time>
      </trkpt>
      <trkpt lat="59.7898871" lon="17.8004437">
        <ele>12.6344</ele>
        <time>2013-05-30T18:35:58Z</time>
      </trkpt>
      <trkpt lat="59.7898406" lon="17.8005344">
        <ele>13.1151</ele>
        <time>2013-05-30T18:35:59Z</time>
      </trkpt>
      <trkpt lat="59.7897941" lon="17.8006261">
        <ele>13.1151</ele>
        <time>2013-05-30T18:36:00Z</time>
      </trkpt>
      <trkpt lat="59.7897481" lon="17.8007213">
        <ele>13.5958</ele>
        <time>2013-05-30T18:36:01Z</time>
      </trkpt>
      <trkpt lat="59.7896947" lon="17.800812">
        <ele>12.1538</ele>
        <time>2013-05-30T18:36:02Z</time>
      </trkpt>
      <trkpt lat="59.7896462" lon="17.8009111">
        <ele>12.1538</ele>
        <time>2013-05-30T18:36:03Z</time>
      </trkpt>
      <trkpt lat="59.7895976" lon="17.801012">
        <ele>11.6732</ele>
        <time>2013-05-30T18:36:04Z</time>
      </trkpt>
      <trkpt lat="59.7895496" lon="17.801117">
        <ele>11.6732</ele>
        <time>2013-05-30T18:36:05Z</time>
      </trkpt>
      <trkpt lat="59.7895024" lon="17.8012244">
        <ele>11.1925</ele>
        <time>2013-05-30T18:36:06Z</time>
      </trkpt>
      <trkpt lat="59.7894582" lon="17.8013356">
        <ele>10.7118</ele>
        <time>2013-05-30T18:36:07Z</time>
      </trkpt>
      <trkpt lat="59.7894152" lon="17.8014508">
        <ele>10.7118</ele>
        <time>2013-05-30T18:36:08Z</time>
      </trkpt>
      <trkpt lat="59.7893724" lon="17.8015702">
        <ele>10.2312</ele>
        <time>2013-05-30T18:36:09Z</time>
      </trkpt>
      <trkpt lat="59.7893298" lon="17.8016932">
        <ele>10.2312</ele>
        <time>2013-05-30T18:36:10Z</time>
      </trkpt>
      <trkpt lat="59.7892885" lon="17.8018176">
        <ele>10.2312</ele>
        <time>2013-05-30T18:36:11Z</time>
      </trkpt>
      <trkpt lat="59.7892507" lon="17.8019427">
        <ele>9.75061</ele>
        <time>2013-05-30T18:36:12Z</time>
      </trkpt>
      <trkpt lat="59.7892142" lon="17.8020673">
        <ele>9.75061</ele>
        <time>2013-05-30T18:36:13Z</time>
      </trkpt>
      <trkpt lat="59.7891776" lon="17.8021924">
        <ele>9.75061</ele>
        <time>2013-05-30T18:36:14Z</time>
      </trkpt>
      <trkpt lat="59.7891411" lon="17.8023185">
        <ele>9.75061</ele>
        <time>2013-05-30T18:36:15Z</time>
      </trkpt>
      <trkpt lat="59.789108" lon="17.8024516">
        <ele>10.2312</ele>
        <time>2013-05-30T18:36:16Z</time>
      </trkpt>
      <trkpt lat="59.789075" lon="17.8025884">
        <ele>10.7118</ele>
        <time>2013-05-30T18:36:17Z</time>
      </trkpt>
      <trkpt lat="59.7890402" lon="17.8027233">
        <ele>11.1925</ele>
        <time>2013-05-30T18:36:18Z</time>
      </trkpt>
      <trkpt lat="59.7890054" lon="17.8028587">
        <ele>11.6732</ele>
        <time>2013-05-30T18:36:19Z</time>
      </trkpt>
      <trkpt lat="59.7889694" lon="17.8029942">
        <ele>12.1538</ele>
        <time>2013-05-30T18:36:20Z</time>
      </trkpt>
      <trkpt lat="59.7889331" lon="17.8031313">
        <ele>12.1538</ele>
        <time>2013-05-30T18:36:21Z</time>
      </trkpt>
      <trkpt lat="59.7888958" lon="17.8032695">
        <ele>12.6344</ele>
        <time>2013-05-30T18:36:22Z</time>
      </trkpt>
      <trkpt lat="59.7888565" lon="17.8034053">
        <ele>12.6344</ele>
        <time>2013-05-30T18:36:23Z</time>
      </trkpt>
      <trkpt lat="59.7888186" lon="17.8035399">
        <ele>12.6344</ele>
        <time>2013-05-30T18:36:24Z</time>
      </trkpt>
      <trkpt lat="59.7887829" lon="17.803673">
        <ele>12.6344</ele>
        <time>2013-05-30T18:36:25Z</time>
      </trkpt>
      <trkpt lat="59.788747" lon="17.8038045">
        <ele>12.6344</ele>
        <time>2013-05-30T18:36:26Z</time>
      </trkpt>
      <trkpt lat="59.7887115" lon="17.8039339">
        <ele>12.6344</ele>
        <time>2013-05-30T18:36:27Z</time>
      </trkpt>
      <trkpt lat="59.7886772" lon="17.8040679">
        <ele>12.6344</ele>
        <time>2013-05-30T18:36:28Z</time>
      </trkpt>
      <trkpt lat="59.788643" lon="17.8042007">
        <ele>12.6344</ele>
        <time>2013-05-30T18:36:29Z</time>
      </trkpt>
      <trkpt lat="59.7886083" lon="17.8043303">
        <ele>12.6344</ele>
        <time>2013-05-30T18:36:30Z</time>
      </trkpt>
      <trkpt lat="59.7885735" lon="17.8044569">
        <ele>12.6344</ele>
        <time>2013-05-30T18:36:31Z</time>
      </trkpt>
      <trkpt lat="59.7885387" lon="17.8045822">
        <ele>12.6344</ele>
        <time>2013-05-30T18:36:32Z</time>
      </trkpt>
      <trkpt lat="59.7885042" lon="17.8047091">
        <ele>12.6344</ele>
        <time>2013-05-30T18:36:33Z</time>
      </trkpt>
      <trkpt lat="59.7884716" lon="17.8048396">
        <ele>13.1151</ele>
        <time>2013-05-30T18:36:34Z</time>
      </trkpt>
      <trkpt lat="59.788437" lon="17.8049634">
        <ele>13.1151</ele>
        <time>2013-05-30T18:36:35Z</time>
      </trkpt>
      <trkpt lat="59.7884041" lon="17.8050857">
        <ele>13.1151</ele>
        <time>2013-05-30T18:36:36Z</time>
      </trkpt>
      <trkpt lat="59.7883714" lon="17.8052089">
        <ele>13.1151</ele>
        <time>2013-05-30T18:36:37Z</time>
      </trkpt>
      <trkpt lat="59.7883384" lon="17.8053311">
        <ele>13.1151</ele>
        <time>2013-05-30T18:36:38Z</time>
      </trkpt>
      <trkpt lat="59.7883049" lon="17.8054535">
        <ele>13.5958</ele>
        <time>2013-05-30T18:36:39Z</time>
      </trkpt>
      <trkpt lat="59.7882704" lon="17.8055755">
        <ele>13.5958</ele>
        <time>2013-05-30T18:36:40Z</time>
      </trkpt>
      <trkpt lat="59.7882351" lon="17.8056967">
        <ele>13.5958</ele>
        <time>2013-05-30T18:36:41Z</time>
      </trkpt>
      <trkpt lat="59.7882005" lon="17.8058155">
        <ele>13.5958</ele>
        <time>2013-05-30T18:36:42Z</time>
      </trkpt>
      <trkpt lat="59.7881664" lon="17.8059321">
        <ele>13.1151</ele>
        <time>2013-05-30T18:36:43Z</time>
      </trkpt>
      <trkpt lat="59.7881337" lon="17.8060486">
        <ele>13.5958</ele>
        <time>2013-05-30T18:36:44Z</time>
      </trkpt>
      <trkpt lat="59.7881006" lon="17.806165">
        <ele>13.5958</ele>
        <time>2013-05-30T18:36:45Z</time>
      </trkpt>
      <trkpt lat="59.7880673" lon="17.8062803">
        <ele>14.0764</ele>
        <time>2013-05-30T18:36:46Z</time>
      </trkpt>
      <trkpt lat="59.7880333" lon="17.8063955">
        <ele>14.0764</ele>
        <time>2013-05-30T18:36:47Z</time>
      </trkpt>
      <trkpt lat="59.7880002" lon="17.8065112">
        <ele>14.0764</ele>
        <time>2013-05-30T18:36:48Z</time>
      </trkpt>
      <trkpt lat="59.7879671" lon="17.8066277">
        <ele>14.0764</ele>
        <time>2013-05-30T18:36:49Z</time>
      </trkpt>
      <trkpt lat="59.7879328" lon="17.8067451">
        <ele>14.0764</ele>
        <time>2013-05-30T18:36:50Z</time>
      </trkpt>
      <trkpt lat="59.7878981" lon="17.806864">
        <ele>14.557</ele>
        <time>2013-05-30T18:36:51Z</time>
      </trkpt>
      <trkpt lat="59.7878629" lon="17.806983">
        <ele>14.557</ele>
        <time>2013-05-30T18:36:52Z</time>
      </trkpt>
      <trkpt lat="59.7878282" lon="17.8071032">
        <ele>14.557</ele>
        <time>2013-05-30T18:36:53Z</time>
      </trkpt>
      <trkpt lat="59.7877941" lon="17.8072244">
        <ele>15.0377</ele>
        <time>2013-05-30T18:36:54Z</time>
      </trkpt>
      <trkpt lat="59.7877604" lon="17.807345">
        <ele>15.0377</ele>
        <time>2013-05-30T18:36:55Z</time>
      </trkpt>
      <trkpt lat="59.7877263" lon="17.8074685">
        <ele>15.5184</ele>
        <time>2013-05-30T18:36:56Z</time>
      </trkpt>
      <trkpt lat="59.7876913" lon="17.8075928">
        <ele>15.5184</ele>
        <time>2013-05-30T18:36:57Z</time>
      </trkpt>
      <trkpt lat="59.7876551" lon="17.8077186">
        <ele>15.5184</ele>
        <time>2013-05-30T18:36:58Z</time>
      </trkpt>
      <trkpt lat="59.7876184" lon="17.8078438">
        <ele>15.5184</ele>
        <time>2013-05-30T18:36:59Z</time>
      </trkpt>
      <trkpt lat="59.7875816" lon="17.8079692">
        <ele>15.5184</ele>
        <time>2013-05-30T18:37:00Z</time>
      </trkpt>
      <trkpt lat="59.7875453" lon="17.808093">
        <ele>15.5184</ele>
        <time>2013-05-30T18:37:01Z</time>
      </trkpt>
      <trkpt lat="59.7875107" lon="17.8082137">
        <ele>15.5184</ele>
        <time>2013-05-30T18:37:02Z</time>
      </trkpt>
      <trkpt lat="59.7874758" lon="17.8083315">
        <ele>15.5184</ele>
        <time>2013-05-30T18:37:03Z</time>
      </trkpt>
      <trkpt lat="59.7874413" lon="17.808446">
        <ele>15.5184</ele>
        <time>2013-05-30T18:37:04Z</time>
      </trkpt>
      <trkpt lat="59.7874106" lon="17.8085594">
        <ele>15.999</ele>
        <time>2013-05-30T18:37:05Z</time>
      </trkpt>
      <trkpt lat="59.7873781" lon="17.8086673">
        <ele>15.999</ele>
        <time>2013-05-30T18:37:06Z</time>
      </trkpt>
      <trkpt lat="59.7873442" lon="17.8087701">
        <ele>15.999</ele>
        <time>2013-05-30T18:37:07Z</time>
      </trkpt>
      <trkpt lat="59.7873127" lon="17.8088739">
        <ele>15.999</ele>
        <time>2013-05-30T18:37:08Z</time>
      </trkpt>
      <trkpt lat="59.7872839" lon="17.8089762">
        <ele>15.999</ele>
        <time>2013-05-30T18:37:09Z</time>
      </trkpt>
      <trkpt lat="59.7872571" lon="17.8090782">
        <ele>16.9604</ele>
        <time>2013-05-30T18:37:10Z</time>
      </trkpt>
      <trkpt lat="59.7872304" lon="17.8091774">
        <ele>17.4412</ele>
        <time>2013-05-30T18:37:11Z</time>
      </trkpt>
      <trkpt lat="59.7872045" lon="17.8092731">
        <ele>18.4023</ele>
        <time>2013-05-30T18:37:12Z</time>
      </trkpt>
      <trkpt lat="59.787179" lon="17.809364">
        <ele>18.8831</ele>
        <time>2013-05-30T18:37:13Z</time>
      </trkpt>
      <trkpt lat="59.7871533" lon="17.8094509">
        <ele>19.3638</ele>
        <time>2013-05-30T18:37:14Z</time>
      </trkpt>
      <trkpt lat="59.7871242" lon="17.8095352">
        <ele>19.3638</ele>
        <time>2013-05-30T18:37:15Z</time>
      </trkpt>
      <trkpt lat="59.7870941" lon="17.809622">
        <ele>18.8831</ele>
        <time>2013-05-30T18:37:16Z</time>
      </trkpt>
      <trkpt lat="59.7870677" lon="17.8097121">
        <ele>19.3638</ele>
        <time>2013-05-30T18:37:17Z</time>
      </trkpt>
      <trkpt lat="59.7870423" lon="17.8098031">
        <ele>19.3638</ele>
        <time>2013-05-30T18:37:18Z</time>
      </trkpt>
      <trkpt lat="59.7870155" lon="17.8098948">
        <ele>18.8831</ele>
        <time>2013-05-30T18:37:19Z</time>
      </trkpt>
      <trkpt lat="59.7869889" lon="17.8099861">
        <ele>18.4023</ele>
        <time>2013-05-30T18:37:20Z</time>
      </trkpt>
      <trkpt lat="59.7869621" lon="17.8100796">
        <ele>17.9218</ele>
        <time>2013-05-30T18:37:21Z</time>
      </trkpt>
      <trkpt lat="59.7869356" lon="17.8101778">
        <ele>17.4412</ele>
        <time>2013-05-30T18:37:22Z</time>
      </trkpt>
      <trkpt lat="59.7869107" lon="17.8102813">
        <ele>16.9604</ele>
        <time>2013-05-30T18:37:23Z</time>
      </trkpt>
      <trkpt lat="59.7868905" lon="17.8103902">
        <ele>16.9604</ele>
        <time>2013-05-30T18:37:24Z</time>
      </trkpt>
      <trkpt lat="59.7868723" lon="17.8105021">
        <ele>15.999</ele>
        <time>2013-05-30T18:37:25Z</time>
      </trkpt>
      <trkpt lat="59.7868554" lon="17.8106167">
        <ele>15.5184</ele>
        <time>2013-05-30T18:37:26Z</time>
      </trkpt>
      <trkpt lat="59.7868398" lon="17.8107345">
        <ele>15.5184</ele>
        <time>2013-05-30T18:37:27Z</time>
      </trkpt>
      <trkpt lat="59.786822" lon="17.8108557">
        <ele>15.0377</ele>
        <time>2013-05-30T18:37:28Z</time>
      </trkpt>
      <trkpt lat="59.7867979" lon="17.810982">
        <ele>14.0764</ele>
        <time>2013-05-30T18:37:29Z</time>
      </trkpt>
      <trkpt lat="59.7867783" lon="17.8111111">
        <ele>13.5958</ele>
        <time>2013-05-30T18:37:30Z</time>
      </trkpt>
      <trkpt lat="59.7867615" lon="17.8112409">
        <ele>14.0764</ele>
        <time>2013-05-30T18:37:31Z</time>
      </trkpt>
      <trkpt lat="59.7867436" lon="17.8113732">
        <ele>13.5958</ele>
        <time>2013-05-30T18:37:32Z</time>
      </trkpt>
      <trkpt lat="59.7867258" lon="17.8115038">
        <ele>13.1151</ele>
        <time>2013-05-30T18:37:33Z</time>
      </trkpt>
      <trkpt lat="59.7867087" lon="17.8116351">
        <ele>13.1151</ele>
        <time>2013-05-30T18:37:34Z</time>
      </trkpt>
      <trkpt lat="59.7866918" lon="17.8117664">
        <ele>12.6344</ele>
        <time>2013-05-30T18:37:35Z</time>
      </trkpt>
      <trkpt lat="59.786673" lon="17.8118973">
        <ele>12.1538</ele>
        <time>2013-05-30T18:37:36Z</time>
      </trkpt>
      <trkpt lat="59.7866534" lon="17.81203">
        <ele>11.6732</ele>
        <time>2013-05-30T18:37:37Z</time>
      </trkpt>
      <trkpt lat="59.7866342" lon="17.8121617">
        <ele>11.1925</ele>
        <time>2013-05-30T18:37:38Z</time>
      </trkpt>
      <trkpt lat="59.7866157" lon="17.8122922">
        <ele>11.1925</ele>
        <time>2013-05-30T18:37:39Z</time>
      </trkpt>
      <trkpt lat="59.7865913" lon="17.8124269">
        <ele>9.75061</ele>
        <time>2013-05-30T18:37:40Z</time>
      </trkpt>
      <trkpt lat="59.7865651" lon="17.8125603">
        <ele>8.78918</ele>
        <time>2013-05-30T18:37:41Z</time>
      </trkpt>
      <trkpt lat="59.7865415" lon="17.8126931">
        <ele>9.2699</ele>
        <time>2013-05-30T18:37:42Z</time>
      </trkpt>
      <trkpt lat="59.786513" lon="17.8128252">
        <ele>9.2699</ele>
        <time>2013-05-30T18:37:43Z</time>
      </trkpt>
      <trkpt lat="59.7864809" lon="17.8129563">
        <ele>9.2699</ele>
        <time>2013-05-30T18:37:44Z</time>
      </trkpt>
      <trkpt lat="59.7864471" lon="17.8130832">
        <ele>9.2699</ele>
        <time>2013-05-30T18:37:45Z</time>
      </trkpt>
      <trkpt lat="59.7864094" lon="17.8132008">
        <ele>9.2699</ele>
        <time>2013-05-30T18:37:46Z</time>
      </trkpt>
      <trkpt lat="59.7863647" lon="17.8133035">
        <ele>9.2699</ele>
        <time>2013-05-30T18:37:47Z</time>
      </trkpt>
      <trkpt lat="59.7863182" lon="17.8133976">
        <ele>9.2699</ele>
        <time>2013-05-30T18:37:48Z</time>
      </trkpt>
      <trkpt lat="59.7862701" lon="17.8134883">
        <ele>9.2699</ele>
        <time>2013-05-30T18:37:49Z</time>
      </trkpt>
      <trkpt lat="59.7862178" lon="17.8135766">
        <ele>8.78918</ele>
        <time>2013-05-30T18:37:50Z</time>
      </trkpt>
      <trkpt lat="59.7861647" lon="17.8136624">
        <ele>8.78918</ele>
        <time>2013-05-30T18:37:51Z</time>
      </trkpt>
      <trkpt lat="59.7861116" lon="17.8137469">
        <ele>8.30859</ele>
        <time>2013-05-30T18:37:52Z</time>
      </trkpt>
      <trkpt lat="59.7860494" lon="17.8138213">
        <ele>6.38586</ele>
        <time>2013-05-30T18:37:53Z</time>
      </trkpt>
      <trkpt lat="59.786" lon="17.8139049">
        <ele>6.86646</ele>
        <time>2013-05-30T18:37:54Z</time>
      </trkpt>
      <trkpt lat="59.7859524" lon="17.8139901">
        <ele>7.82788</ele>
        <time>2013-05-30T18:37:55Z</time>
      </trkpt>
      <trkpt lat="59.7859052" lon="17.8140751">
        <ele>8.30859</ele>
        <time>2013-05-30T18:37:56Z</time>
      </trkpt>
      <trkpt lat="59.7858603" lon="17.814161">
        <ele>9.2699</ele>
        <time>2013-05-30T18:37:57Z</time>
      </trkpt>
      <trkpt lat="59.7858157" lon="17.8142483">
        <ele>10.2312</ele>
        <time>2013-05-30T18:37:58Z</time>
      </trkpt>
      <trkpt lat="59.7857722" lon="17.8143348">
        <ele>11.1925</ele>
        <time>2013-05-30T18:37:59Z</time>
      </trkpt>
      <trkpt lat="59.7857277" lon="17.8144189">
        <ele>12.6344</ele>
        <time>2013-05-30T18:38:00Z</time>
      </trkpt>
      <trkpt lat="59.7856825" lon="17.8145011">
        <ele>13.5958</ele>
        <time>2013-05-30T18:38:01Z</time>
      </trkpt>
      <trkpt lat="59.7856361" lon="17.8145847">
        <ele>14.557</ele>
        <time>2013-05-30T18:38:02Z</time>
      </trkpt>
      <trkpt lat="59.7855889" lon="17.8146704">
        <ele>15.5184</ele>
        <time>2013-05-30T18:38:03Z</time>
      </trkpt>
      <trkpt lat="59.7855412" lon="17.8147574">
        <ele>16.4797</ele>
        <time>2013-05-30T18:38:04Z</time>
      </trkpt>
      <trkpt lat="59.7854946" lon="17.8148453">
        <ele>17.4412</ele>
        <time>2013-05-30T18:38:05Z</time>
      </trkpt>
      <trkpt lat="59.7854446" lon="17.8149315">
        <ele>17.9218</ele>
        <time>2013-05-30T18:38:06Z</time>
      </trkpt>
      <trkpt lat="59.7853952" lon="17.8150157">
        <ele>18.4023</ele>
        <time>2013-05-30T18:38:07Z</time>
      </trkpt>
      <trkpt lat="59.7853469" lon="17.8150976">
        <ele>18.8831</ele>
        <time>2013-05-30T18:38:08Z</time>
      </trkpt>
      <trkpt lat="59.7853007" lon="17.8151786">
        <ele>19.3638</ele>
        <time>2013-05-30T18:38:09Z</time>
      </trkpt>
      <trkpt lat="59.7852552" lon="17.8152584">
        <ele>20.325</ele>
        <time>2013-05-30T18:38:10Z</time>
      </trkpt>
      <trkpt lat="59.7852091" lon="17.8153385">
        <ele>20.8057</ele>
        <time>2013-05-30T18:38:11Z</time>
      </trkpt>
      <trkpt lat="59.7851644" lon="17.8154188">
        <ele>21.2864</ele>
        <time>2013-05-30T18:38:12Z</time>
      </trkpt>
      <trkpt lat="59.7851199" lon="17.8154993">
        <ele>22.2476</ele>
        <time>2013-05-30T18:38:13Z</time>
      </trkpt>
      <trkpt lat="59.7850741" lon="17.8155799">
        <ele>22.7283</ele>
        <time>2013-05-30T18:38:14Z</time>
      </trkpt>
      <trkpt lat="59.7850279" lon="17.8156588">
        <ele>22.7283</ele>
        <time>2013-05-30T18:38:15Z</time>
      </trkpt>
      <trkpt lat="59.784982" lon="17.8157378">
        <ele>22.7283</ele>
        <time>2013-05-30T18:38:16Z</time>
      </trkpt>
      <trkpt lat="59.7849362" lon="17.8158178">
        <ele>22.7283</ele>
        <time>2013-05-30T18:38:17Z</time>
      </trkpt>
      <trkpt lat="59.7848911" lon="17.8159017">
        <ele>22.7283</ele>
        <time>2013-05-30T18:38:18Z</time>
      </trkpt>
      <trkpt lat="59.7848484" lon="17.8159913">
        <ele>22.7283</ele>
        <time>2013-05-30T18:38:19Z</time>
      </trkpt>
      <trkpt lat="59.7848067" lon="17.8160871">
        <ele>22.7283</ele>
        <time>2013-05-30T18:38:20Z</time>
      </trkpt>
      <trkpt lat="59.7847663" lon="17.8161881">
        <ele>22.7283</ele>
        <time>2013-05-30T18:38:21Z</time>
      </trkpt>
      <trkpt lat="59.7847273" lon="17.8162929">
        <ele>23.209</ele>
        <time>2013-05-30T18:38:22Z</time>
      </trkpt>
      <trkpt lat="59.7846895" lon="17.8164">
        <ele>23.209</ele>
        <time>2013-05-30T18:38:23Z</time>
      </trkpt>
      <trkpt lat="59.7846533" lon="17.8165105">
        <ele>23.209</ele>
        <time>2013-05-30T18:38:24Z</time>
      </trkpt>
      <trkpt lat="59.7846176" lon="17.8166251">
        <ele>22.7283</ele>
        <time>2013-05-30T18:38:25Z</time>
      </trkpt>
      <trkpt lat="59.7845827" lon="17.8167407">
        <ele>22.2476</ele>
        <time>2013-05-30T18:38:26Z</time>
      </trkpt>
      <trkpt lat="59.7845478" lon="17.8168559">
        <ele>22.2476</ele>
        <time>2013-05-30T18:38:27Z</time>
      </trkpt>
      <trkpt lat="59.7845144" lon="17.8169717">
        <ele>22.2476</ele>
        <time>2013-05-30T18:38:28Z</time>
      </trkpt>
      <trkpt lat="59.7844818" lon="17.8170893">
        <ele>22.2476</ele>
        <time>2013-05-30T18:38:29Z</time>
      </trkpt>
      <trkpt lat="59.7844488" lon="17.8172084">
        <ele>22.2476</ele>
        <time>2013-05-30T18:38:30Z</time>
      </trkpt>
      <trkpt lat="59.7844165" lon="17.8173268">
        <ele>21.767</ele>
        <time>2013-05-30T18:38:31Z</time>
      </trkpt>
      <trkpt lat="59.7843843" lon="17.8174449">
        <ele>21.767</ele>
        <time>2013-05-30T18:38:32Z</time>
      </trkpt>
      <trkpt lat="59.7843524" lon="17.8175619">
        <ele>21.767</ele>
        <time>2013-05-30T18:38:33Z</time>
      </trkpt>
      <trkpt lat="59.78432" lon="17.8176778">
        <ele>21.767</ele>
        <time>2013-05-30T18:38:34Z</time>
      </trkpt>
      <trkpt lat="59.7842886" lon="17.8177932">
        <ele>22.2476</ele>
        <time>2013-05-30T18:38:35Z</time>
      </trkpt>
      <trkpt lat="59.7842601" lon="17.8179116">
        <ele>22.7283</ele>
        <time>2013-05-30T18:38:36Z</time>
      </trkpt>
      <trkpt lat="59.7842286" lon="17.8180281">
        <ele>23.209</ele>
        <time>2013-05-30T18:38:37Z</time>
      </trkpt>
      <trkpt lat="59.7841965" lon="17.8181442">
        <ele>23.6896</ele>
        <time>2013-05-30T18:38:38Z</time>
      </trkpt>
      <trkpt lat="59.7841657" lon="17.818258">
        <ele>24.1703</ele>
        <time>2013-05-30T18:38:39Z</time>
      </trkpt>
      <trkpt lat="59.7841337" lon="17.81838">
        <ele>24.1703</ele>
        <time>2013-05-30T18:38:40Z</time>
      </trkpt>
      <trkpt lat="59.7841062" lon="17.818489">
        <ele>24.651</ele>
        <time>2013-05-30T18:38:41Z</time>
      </trkpt>
      <trkpt lat="59.784079" lon="17.8185974">
        <ele>24.651</ele>
        <time>2013-05-30T18:38:42Z</time>
      </trkpt>
      <trkpt lat="59.7840522" lon="17.8187088">
        <ele>24.651</ele>
        <time>2013-05-30T18:38:43Z</time>
      </trkpt>
      <trkpt lat="59.7840245" lon="17.8188221">
        <ele>24.651</ele>
        <time>2013-05-30T18:38:44Z</time>
      </trkpt>
      <trkpt lat="59.7839974" lon="17.8189399">
        <ele>24.651</ele>
        <time>2013-05-30T18:38:45Z</time>
      </trkpt>
      <trkpt lat="59.7839716" lon="17.8190636">
        <ele>25.1317</ele>
        <time>2013-05-30T18:38:46Z</time>
      </trkpt>
      <trkpt lat="59.7839452" lon="17.8191895">
        <ele>24.651</ele>
        <time>2013-05-30T18:38:47Z</time>
      </trkpt>
      <trkpt lat="59.7839189" lon="17.8193157">
        <ele>24.651</ele>
        <time>2013-05-30T18:38:48Z</time>
      </trkpt>
      <trkpt lat="59.7838932" lon="17.8194412">
        <ele>24.1703</ele>
        <time>2013-05-30T18:38:49Z</time>
      </trkpt>
      <trkpt lat="59.7838683" lon="17.8195661">
        <ele>24.1703</ele>
        <time>2013-05-30T18:38:50Z</time>
      </trkpt>
      <trkpt lat="59.7838452" lon="17.8196879">
        <ele>23.6896</ele>
        <time>2013-05-30T18:38:51Z</time>
      </trkpt>
      <trkpt lat="59.7838243" lon="17.8198068">
        <ele>23.6896</ele>
        <time>2013-05-30T18:38:52Z</time>
      </trkpt>
      <trkpt lat="59.7838048" lon="17.8199259">
        <ele>23.6896</ele>
        <time>2013-05-30T18:38:53Z</time>
      </trkpt>
      <trkpt lat="59.7837893" lon="17.8200357">
        <ele>23.6896</ele>
        <time>2013-05-30T18:38:54Z</time>
      </trkpt>
      <trkpt lat="59.7837743" lon="17.8201517">
        <ele>23.6896</ele>
        <time>2013-05-30T18:38:55Z</time>
      </trkpt>
      <trkpt lat="59.7837598" lon="17.820281">
        <ele>23.6896</ele>
        <time>2013-05-30T18:38:56Z</time>
      </trkpt>
      <trkpt lat="59.7837463" lon="17.8204038">
        <ele>23.209</ele>
        <time>2013-05-30T18:38:57Z</time>
      </trkpt>
      <trkpt lat="59.7837344" lon="17.8205213">
        <ele>23.209</ele>
        <time>2013-05-30T18:38:58Z</time>
      </trkpt>
      <trkpt lat="59.7837204" lon="17.8206506">
        <ele>22.7283</ele>
        <time>2013-05-30T18:38:59Z</time>
      </trkpt>
      <trkpt lat="59.7837048" lon="17.8207827">
        <ele>22.7283</ele>
        <time>2013-05-30T18:39:00Z</time>
      </trkpt>
      <trkpt lat="59.7836888" lon="17.8209146">
        <ele>22.7283</ele>
        <time>2013-05-30T18:39:01Z</time>
      </trkpt>
      <trkpt lat="59.7836731" lon="17.8210435">
        <ele>22.7283</ele>
        <time>2013-05-30T18:39:02Z</time>
      </trkpt>
      <trkpt lat="59.7836582" lon="17.8211705">
        <ele>22.2476</ele>
        <time>2013-05-30T18:39:03Z</time>
      </trkpt>
      <trkpt lat="59.7836411" lon="17.8212984">
        <ele>22.2476</ele>
        <time>2013-05-30T18:39:04Z</time>
      </trkpt>
      <trkpt lat="59.7836251" lon="17.82143">
        <ele>22.2476</ele>
        <time>2013-05-30T18:39:05Z</time>
      </trkpt>
      <trkpt lat="59.7836094" lon="17.8215659">
        <ele>22.2476</ele>
        <time>2013-05-30T18:39:06Z</time>
      </trkpt>
      <trkpt lat="59.783593" lon="17.8217011">
        <ele>21.767</ele>
        <time>2013-05-30T18:39:07Z</time>
      </trkpt>
      <trkpt lat="59.7835738" lon="17.8218333">
        <ele>21.767</ele>
        <time>2013-05-30T18:39:08Z</time>
      </trkpt>
      <trkpt lat="59.7835542" lon="17.8219677">
        <ele>21.767</ele>
        <time>2013-05-30T18:39:09Z</time>
      </trkpt>
      <trkpt lat="59.7835366" lon="17.8221089">
        <ele>21.767</ele>
        <time>2013-05-30T18:39:10Z</time>
      </trkpt>
      <trkpt lat="59.7835183" lon="17.8222428">
        <ele>21.767</ele>
        <time>2013-05-30T18:39:11Z</time>
      </trkpt>
      <trkpt lat="59.7834983" lon="17.8223825">
        <ele>21.767</ele>
        <time>2013-05-30T18:39:12Z</time>
      </trkpt>
      <trkpt lat="59.7834773" lon="17.8225206">
        <ele>21.767</ele>
        <time>2013-05-30T18:39:13Z</time>
      </trkpt>
      <trkpt lat="59.7834572" lon="17.8226729">
        <ele>21.2864</ele>
        <time>2013-05-30T18:39:14Z</time>
      </trkpt>
      <trkpt lat="59.7834376" lon="17.8228141">
        <ele>20.8057</ele>
        <time>2013-05-30T18:39:15Z</time>
      </trkpt>
      <trkpt lat="59.7834148" lon="17.8229616">
        <ele>20.8057</ele>
        <time>2013-05-30T18:39:16Z</time>
      </trkpt>
      <trkpt lat="59.7833957" lon="17.8231148">
        <ele>20.325</ele>
        <time>2013-05-30T18:39:17Z</time>
      </trkpt>
      <trkpt lat="59.7833764" lon="17.8232673">
        <ele>19.8444</ele>
        <time>2013-05-30T18:39:18Z</time>
      </trkpt>
      <trkpt lat="59.7833627" lon="17.8234258">
        <ele>19.8444</ele>
        <time>2013-05-30T18:39:19Z</time>
      </trkpt>
      <trkpt lat="59.7833474" lon="17.8235815">
        <ele>19.8444</ele>
        <time>2013-05-30T18:39:20Z</time>
      </trkpt>
      <trkpt lat="59.7833242" lon="17.8237395">
        <ele>18.4023</ele>
        <time>2013-05-30T18:39:21Z</time>
      </trkpt>
      <trkpt lat="59.783308" lon="17.8238892">
        <ele>17.4412</ele>
        <time>2013-05-30T18:39:22Z</time>
      </trkpt>
      <trkpt lat="59.7832967" lon="17.8240327">
        <ele>16.9604</ele>
        <time>2013-05-30T18:39:23Z</time>
      </trkpt>
      <trkpt lat="59.7832853" lon="17.8241728">
        <ele>16.4797</ele>
        <time>2013-05-30T18:39:24Z</time>
      </trkpt>
      <trkpt lat="59.7832708" lon="17.8243116">
        <ele>15.0377</ele>
        <time>2013-05-30T18:39:25Z</time>
      </trkpt>
      <trkpt lat="59.7832588" lon="17.8244484">
        <ele>14.0764</ele>
        <time>2013-05-30T18:39:26Z</time>
      </trkpt>
      <trkpt lat="59.7832459" lon="17.8245815">
        <ele>13.1151</ele>
        <time>2013-05-30T18:39:27Z</time>
      </trkpt>
      <trkpt lat="59.78324" lon="17.8247155">
        <ele>13.1151</ele>
        <time>2013-05-30T18:39:28Z</time>
      </trkpt>
      <trkpt lat="59.7832324" lon="17.8248488">
        <ele>12.6344</ele>
        <time>2013-05-30T18:39:29Z</time>
      </trkpt>
      <trkpt lat="59.783223" lon="17.8249796">
        <ele>12.1538</ele>
        <time>2013-05-30T18:39:30Z</time>
      </trkpt>
      <trkpt lat="59.7832173" lon="17.8251101">
        <ele>12.1538</ele>
        <time>2013-05-30T18:39:31Z</time>
      </trkpt>
      <trkpt lat="59.7832112" lon="17.8252414">
        <ele>12.1538</ele>
        <time>2013-05-30T18:39:32Z</time>
      </trkpt>
      <trkpt lat="59.7832082" lon="17.8253785">
        <ele>11.6732</ele>
        <time>2013-05-30T18:39:33Z</time>
      </trkpt>
      <trkpt lat="59.7832074" lon="17.8255158">
        <ele>12.1538</ele>
        <time>2013-05-30T18:39:34Z</time>
      </trkpt>
      <trkpt lat="59.7832085" lon="17.8256517">
        <ele>12.1538</ele>
        <time>2013-05-30T18:39:35Z</time>
      </trkpt>
      <trkpt lat="59.7832101" lon="17.8257878">
        <ele>12.6344</ele>
        <time>2013-05-30T18:39:36Z</time>
      </trkpt>
      <trkpt lat="59.7832112" lon="17.8259271">
        <ele>12.6344</ele>
        <time>2013-05-30T18:39:37Z</time>
      </trkpt>
      <trkpt lat="59.7832128" lon="17.82607">
        <ele>12.6344</ele>
        <time>2013-05-30T18:39:38Z</time>
      </trkpt>
      <trkpt lat="59.7832151" lon="17.8262168">
        <ele>12.1538</ele>
        <time>2013-05-30T18:39:39Z</time>
      </trkpt>
      <trkpt lat="59.7832169" lon="17.8263669">
        <ele>12.1538</ele>
        <time>2013-05-30T18:39:40Z</time>
      </trkpt>
      <trkpt lat="59.783218" lon="17.8265184">
        <ele>11.6732</ele>
        <time>2013-05-30T18:39:41Z</time>
      </trkpt>
      <trkpt lat="59.7832173" lon="17.8266702">
        <ele>11.1925</ele>
        <time>2013-05-30T18:39:42Z</time>
      </trkpt>
      <trkpt lat="59.7832146" lon="17.8268203">
        <ele>11.1925</ele>
        <time>2013-05-30T18:39:43Z</time>
      </trkpt>
      <trkpt lat="59.7832134" lon="17.8269776">
        <ele>11.1925</ele>
        <time>2013-05-30T18:39:44Z</time>
      </trkpt>
      <trkpt lat="59.783212" lon="17.8271312">
        <ele>11.1925</ele>
        <time>2013-05-30T18:39:45Z</time>
      </trkpt>
      <trkpt lat="59.7832081" lon="17.8272813">
        <ele>11.1925</ele>
        <time>2013-05-30T18:39:46Z</time>
      </trkpt>
      <trkpt lat="59.7832023" lon="17.8274293">
        <ele>10.7118</ele>
        <time>2013-05-30T18:39:47Z</time>
      </trkpt>
      <trkpt lat="59.783193" lon="17.8275743">
        <ele>10.7118</ele>
        <time>2013-05-30T18:39:48Z</time>
      </trkpt>
      <trkpt lat="59.7831809" lon="17.827717">
        <ele>10.7118</ele>
        <time>2013-05-30T18:39:49Z</time>
      </trkpt>
      <trkpt lat="59.7831656" lon="17.8278578">
        <ele>10.2312</ele>
        <time>2013-05-30T18:39:50Z</time>
      </trkpt>
      <trkpt lat="59.7831475" lon="17.8279915">
        <ele>10.2312</ele>
        <time>2013-05-30T18:39:51Z</time>
      </trkpt>
      <trkpt lat="59.7831286" lon="17.8281239">
        <ele>10.7118</ele>
        <time>2013-05-30T18:39:52Z</time>
      </trkpt>
      <trkpt lat="59.7831044" lon="17.8282568">
        <ele>9.2699</ele>
        <time>2013-05-30T18:39:53Z</time>
      </trkpt>
      <trkpt lat="59.7830822" lon="17.82839">
        <ele>8.78918</ele>
        <time>2013-05-30T18:39:54Z</time>
      </trkpt>
      <trkpt lat="59.78306" lon="17.8285249">
        <ele>8.30859</ele>
        <time>2013-05-30T18:39:55Z</time>
      </trkpt>
      <trkpt lat="59.7830382" lon="17.8286647">
        <ele>7.82788</ele>
        <time>2013-05-30T18:39:56Z</time>
      </trkpt>
      <trkpt lat="59.7830169" lon="17.8288052">
        <ele>7.82788</ele>
        <time>2013-05-30T18:39:57Z</time>
      </trkpt>
      <trkpt lat="59.7829958" lon="17.8289457">
        <ele>7.82788</ele>
        <time>2013-05-30T18:39:58Z</time>
      </trkpt>
      <trkpt lat="59.7829739" lon="17.829085">
        <ele>7.82788</ele>
        <time>2013-05-30T18:39:59Z</time>
      </trkpt>
      <trkpt lat="59.7829528" lon="17.8292218">
        <ele>7.82788</ele>
        <time>2013-05-30T18:40:00Z</time>
      </trkpt>
      <trkpt lat="59.7829315" lon="17.8293575">
        <ele>8.30859</ele>
        <time>2013-05-30T18:40:01Z</time>
      </trkpt>
      <trkpt lat="59.7829103" lon="17.8294921">
        <ele>8.30859</ele>
        <time>2013-05-30T18:40:02Z</time>
      </trkpt>
      <trkpt lat="59.7828901" lon="17.8296248">
        <ele>8.30859</ele>
        <time>2013-05-30T18:40:03Z</time>
      </trkpt>
      <trkpt lat="59.7828702" lon="17.8297569">
        <ele>8.78918</ele>
        <time>2013-05-30T18:40:04Z</time>
      </trkpt>
      <trkpt lat="59.7828499" lon="17.8298895">
        <ele>8.78918</ele>
        <time>2013-05-30T18:40:05Z</time>
      </trkpt>
      <trkpt lat="59.7828292" lon="17.8300233">
        <ele>8.78918</ele>
        <time>2013-05-30T18:40:06Z</time>
      </trkpt>
      <trkpt lat="59.7828091" lon="17.8301597">
        <ele>9.2699</ele>
        <time>2013-05-30T18:40:07Z</time>
      </trkpt>
      <trkpt lat="59.782789" lon="17.8302941">
        <ele>9.2699</ele>
        <time>2013-05-30T18:40:08Z</time>
      </trkpt>
      <trkpt lat="59.7827688" lon="17.8304275">
        <ele>9.75061</ele>
        <time>2013-05-30T18:40:09Z</time>
      </trkpt>
      <trkpt lat="59.7827481" lon="17.8305597">
        <ele>9.75061</ele>
        <time>2013-05-30T18:40:10Z</time>
      </trkpt>
      <trkpt lat="59.7827268" lon="17.8306924">
        <ele>9.75061</ele>
        <time>2013-05-30T18:40:11Z</time>
      </trkpt>
      <trkpt lat="59.7827057" lon="17.8308261">
        <ele>9.75061</ele>
        <time>2013-05-30T18:40:12Z</time>
      </trkpt>
      <trkpt lat="59.7826855" lon="17.8309587">
        <ele>10.2312</ele>
        <time>2013-05-30T18:40:13Z</time>
      </trkpt>
      <trkpt lat="59.7826652" lon="17.8310913">
        <ele>10.2312</ele>
        <time>2013-05-30T18:40:14Z</time>
      </trkpt>
      <trkpt lat="59.7826443" lon="17.8312244">
        <ele>10.2312</ele>
        <time>2013-05-30T18:40:15Z</time>
      </trkpt>
      <trkpt lat="59.782623" lon="17.8313573">
        <ele>10.2312</ele>
        <time>2013-05-30T18:40:16Z</time>
      </trkpt>
      <trkpt lat="59.7826019" lon="17.8314928">
        <ele>10.2312</ele>
        <time>2013-05-30T18:40:17Z</time>
      </trkpt>
      <trkpt lat="59.7825804" lon="17.8316293">
        <ele>10.2312</ele>
        <time>2013-05-30T18:40:18Z</time>
      </trkpt>
      <trkpt lat="59.782559" lon="17.8317657">
        <ele>10.2312</ele>
        <time>2013-05-30T18:40:19Z</time>
      </trkpt>
      <trkpt lat="59.7825377" lon="17.8319021">
        <ele>10.2312</ele>
        <time>2013-05-30T18:40:20Z</time>
      </trkpt>
      <trkpt lat="59.7825156" lon="17.8320382">
        <ele>10.2312</ele>
        <time>2013-05-30T18:40:21Z</time>
      </trkpt>
      <trkpt lat="59.7824936" lon="17.832174">
        <ele>10.2312</ele>
        <time>2013-05-30T18:40:22Z</time>
      </trkpt>
      <trkpt lat="59.7824718" lon="17.8323089">
        <ele>10.2312</ele>
        <time>2013-05-30T18:40:23Z</time>
      </trkpt>
      <trkpt lat="59.7824498" lon="17.8324428">
        <ele>10.2312</ele>
        <time>2013-05-30T18:40:24Z</time>
      </trkpt>
      <trkpt lat="59.7824275" lon="17.8325762">
        <ele>10.2312</ele>
        <time>2013-05-30T18:40:25Z</time>
      </trkpt>
      <trkpt lat="59.7824053" lon="17.8327089">
        <ele>10.7118</ele>
        <time>2013-05-30T18:40:26Z</time>
      </trkpt>
      <trkpt lat="59.7823833" lon="17.8328421">
        <ele>10.7118</ele>
        <time>2013-05-30T18:40:27Z</time>
      </trkpt>
      <trkpt lat="59.7823604" lon="17.8329756">
        <ele>10.7118</ele>
        <time>2013-05-30T18:40:28Z</time>
      </trkpt>
      <trkpt lat="59.7823369" lon="17.8331085">
        <ele>10.7118</ele>
        <time>2013-05-30T18:40:29Z</time>
      </trkpt>
      <trkpt lat="59.7823131" lon="17.8332425">
        <ele>10.7118</ele>
        <time>2013-05-30T18:40:30Z</time>
      </trkpt>
      <trkpt lat="59.7822896" lon="17.8333757">
        <ele>10.7118</ele>
        <time>2013-05-30T18:40:31Z</time>
      </trkpt>
      <trkpt lat="59.7822667" lon="17.8335097">
        <ele>10.7118</ele>
        <time>2013-05-30T18:40:32Z</time>
      </trkpt>
      <trkpt lat="59.782245" lon="17.8336465">
        <ele>10.7118</ele>
        <time>2013-05-30T18:40:33Z</time>
      </trkpt>
      <trkpt lat="59.7822209" lon="17.8337808">
        <ele>10.7118</ele>
        <time>2013-05-30T18:40:34Z</time>
      </trkpt>
      <trkpt lat="59.7821943" lon="17.8339128">
        <ele>10.2312</ele>
        <time>2013-05-30T18:40:35Z</time>
      </trkpt>
      <trkpt lat="59.7821703" lon="17.8340516">
        <ele>10.2312</ele>
        <time>2013-05-30T18:40:36Z</time>
      </trkpt>
      <trkpt lat="59.7821223" lon="17.8343163">
        <ele>9.75061</ele>
        <time>2013-05-30T18:40:37Z</time>
      </trkpt>
      <trkpt lat="59.7820983" lon="17.834445">
        <ele>10.2312</ele>
        <time>2013-05-30T18:40:38Z</time>
      </trkpt>
      <trkpt lat="59.7820736" lon="17.8345713">
        <ele>10.2312</ele>
        <time>2013-05-30T18:40:39Z</time>
      </trkpt>
      <trkpt lat="59.7820502" lon="17.8347032">
        <ele>10.2312</ele>
        <time>2013-05-30T18:40:40Z</time>
      </trkpt>
      <trkpt lat="59.7820249" lon="17.8348294">
        <ele>10.7118</ele>
        <time>2013-05-30T18:40:41Z</time>
      </trkpt>
      <trkpt lat="59.7820033" lon="17.8349599">
        <ele>11.1925</ele>
        <time>2013-05-30T18:40:42Z</time>
      </trkpt>
      <trkpt lat="59.7819794" lon="17.835087">
        <ele>11.6732</ele>
        <time>2013-05-30T18:40:43Z</time>
      </trkpt>
      <trkpt lat="59.7819566" lon="17.8352162">
        <ele>13.1151</ele>
        <time>2013-05-30T18:40:44Z</time>
      </trkpt>
      <trkpt lat="59.7819315" lon="17.8353445">
        <ele>14.0764</ele>
        <time>2013-05-30T18:40:45Z</time>
      </trkpt>
      <trkpt lat="59.7819048" lon="17.8354732">
        <ele>14.557</ele>
        <time>2013-05-30T18:40:46Z</time>
      </trkpt>
      <trkpt lat="59.7818759" lon="17.8355964">
        <ele>14.557</ele>
        <time>2013-05-30T18:40:47Z</time>
      </trkpt>
      <trkpt lat="59.7818479" lon="17.8357191">
        <ele>15.0377</ele>
        <time>2013-05-30T18:40:48Z</time>
      </trkpt>
      <trkpt lat="59.7818198" lon="17.8358378">
        <ele>15.0377</ele>
        <time>2013-05-30T18:40:49Z</time>
      </trkpt>
      <trkpt lat="59.7817913" lon="17.8359524">
        <ele>14.557</ele>
        <time>2013-05-30T18:40:50Z</time>
      </trkpt>
      <trkpt lat="59.7817634" lon="17.836059">
        <ele>14.557</ele>
        <time>2013-05-30T18:40:51Z</time>
      </trkpt>
      <trkpt lat="59.7817369" lon="17.8361567">
        <ele>14.557</ele>
        <time>2013-05-30T18:40:52Z</time>
      </trkpt>
      <trkpt lat="59.7817072" lon="17.8362438">
        <ele>14.0764</ele>
        <time>2013-05-30T18:40:53Z</time>
      </trkpt>
      <trkpt lat="59.7816685" lon="17.8363082">
        <ele>14.0764</ele>
        <time>2013-05-30T18:40:54Z</time>
      </trkpt>
      <trkpt lat="59.7816184" lon="17.8363336">
        <ele>14.0764</ele>
        <time>2013-05-30T18:40:55Z</time>
      </trkpt>
      <trkpt lat="59.7815647" lon="17.8362993">
        <ele>14.0764</ele>
        <time>2013-05-30T18:40:56Z</time>
      </trkpt>
      <trkpt lat="59.7815125" lon="17.8362237">
        <ele>13.5958</ele>
        <time>2013-05-30T18:40:57Z</time>
      </trkpt>
      <trkpt lat="59.7814663" lon="17.8361197">
        <ele>13.5958</ele>
        <time>2013-05-30T18:40:58Z</time>
      </trkpt>
      <trkpt lat="59.7814173" lon="17.8360208">
        <ele>14.0764</ele>
        <time>2013-05-30T18:40:59Z</time>
      </trkpt>
      <trkpt lat="59.7813629" lon="17.8359198">
        <ele>13.1151</ele>
        <time>2013-05-30T18:41:00Z</time>
      </trkpt>
      <trkpt lat="59.781307" lon="17.8358228">
        <ele>13.1151</ele>
        <time>2013-05-30T18:41:01Z</time>
      </trkpt>
      <trkpt lat="59.7812503" lon="17.835727">
        <ele>12.6344</ele>
        <time>2013-05-30T18:41:02Z</time>
      </trkpt>
      <trkpt lat="59.7811941" lon="17.8356337">
        <ele>12.6344</ele>
        <time>2013-05-30T18:41:03Z</time>
      </trkpt>
      <trkpt lat="59.7811397" lon="17.8355431">
        <ele>12.6344</ele>
        <time>2013-05-30T18:41:04Z</time>
      </trkpt>
      <trkpt lat="59.7810869" lon="17.8354581">
        <ele>12.6344</ele>
        <time>2013-05-30T18:41:05Z</time>
      </trkpt>
      <trkpt lat="59.7810362" lon="17.8353767">
        <ele>12.6344</ele>
        <time>2013-05-30T18:41:06Z</time>
      </trkpt>
      <trkpt lat="59.7809866" lon="17.8352965">
        <ele>13.1151</ele>
        <time>2013-05-30T18:41:07Z</time>
      </trkpt>
      <trkpt lat="59.7809364" lon="17.835216">
        <ele>12.6344</ele>
        <time>2013-05-30T18:41:08Z</time>
      </trkpt>
      <trkpt lat="59.7808872" lon="17.8351375">
        <ele>13.1151</ele>
        <time>2013-05-30T18:41:09Z</time>
      </trkpt>
      <trkpt lat="59.7808372" lon="17.8350592">
        <ele>12.6344</ele>
        <time>2013-05-30T18:41:10Z</time>
      </trkpt>
      <trkpt lat="59.7807869" lon="17.8349855">
        <ele>12.6344</ele>
        <time>2013-05-30T18:41:11Z</time>
      </trkpt>
      <trkpt lat="59.7807364" lon="17.8349189">
        <ele>12.6344</ele>
        <time>2013-05-30T18:41:12Z</time>
      </trkpt>
      <trkpt lat="59.7806831" lon="17.8348505">
        <ele>11.6732</ele>
        <time>2013-05-30T18:41:13Z</time>
      </trkpt>
      <trkpt lat="59.7806293" lon="17.8347692">
        <ele>10.7118</ele>
        <time>2013-05-30T18:41:14Z</time>
      </trkpt>
      <trkpt lat="59.7805824" lon="17.8346852">
        <ele>10.7118</ele>
        <time>2013-05-30T18:41:15Z</time>
      </trkpt>
      <trkpt lat="59.7805355" lon="17.8346053">
        <ele>10.7118</ele>
        <time>2013-05-30T18:41:16Z</time>
      </trkpt>
      <trkpt lat="59.7804886" lon="17.8345331">
        <ele>11.6732</ele>
        <time>2013-05-30T18:41:17Z</time>
      </trkpt>
      <trkpt lat="59.7804428" lon="17.8344641">
        <ele>12.6344</ele>
        <time>2013-05-30T18:41:18Z</time>
      </trkpt>
      <trkpt lat="59.7803901" lon="17.8343858">
        <ele>11.6732</ele>
        <time>2013-05-30T18:41:19Z</time>
      </trkpt>
      <trkpt lat="59.7803387" lon="17.8343096">
        <ele>11.1925</ele>
        <time>2013-05-30T18:41:20Z</time>
      </trkpt>
      <trkpt lat="59.7802833" lon="17.8342299">
        <ele>10.2312</ele>
        <time>2013-05-30T18:41:21Z</time>
      </trkpt>
      <trkpt lat="59.7802321" lon="17.8341572">
        <ele>9.75061</ele>
        <time>2013-05-30T18:41:22Z</time>
      </trkpt>
      <trkpt lat="59.7801794" lon="17.8340838">
        <ele>8.78918</ele>
        <time>2013-05-30T18:41:23Z</time>
      </trkpt>
      <trkpt lat="59.7801285" lon="17.8340149">
        <ele>8.30859</ele>
        <time>2013-05-30T18:41:24Z</time>
      </trkpt>
      <trkpt lat="59.7800797" lon="17.8339507">
        <ele>8.30859</ele>
        <time>2013-05-30T18:41:25Z</time>
      </trkpt>
      <trkpt lat="59.780031" lon="17.8338904">
        <ele>8.30859</ele>
        <time>2013-05-30T18:41:26Z</time>
      </trkpt>
      <trkpt lat="59.7799819" lon="17.833834">
        <ele>8.30859</ele>
        <time>2013-05-30T18:41:27Z</time>
      </trkpt>
      <trkpt lat="59.779934" lon="17.8337823">
        <ele>8.30859</ele>
        <time>2013-05-30T18:41:28Z</time>
      </trkpt>
      <trkpt lat="59.779888" lon="17.8337397">
        <ele>8.30859</ele>
        <time>2013-05-30T18:41:29Z</time>
      </trkpt>
      <trkpt lat="59.7798403" lon="17.8337036">
        <ele>8.78918</ele>
        <time>2013-05-30T18:41:30Z</time>
      </trkpt>
      <trkpt lat="59.7797891" lon="17.8336671">
        <ele>8.78918</ele>
        <time>2013-05-30T18:41:31Z</time>
      </trkpt>
      <trkpt lat="59.7797359" lon="17.8336306">
        <ele>8.30859</ele>
        <time>2013-05-30T18:41:32Z</time>
      </trkpt>
      <trkpt lat="59.7796831" lon="17.8336009">
        <ele>8.30859</ele>
        <time>2013-05-30T18:41:33Z</time>
      </trkpt>
      <trkpt lat="59.7796282" lon="17.8335741">
        <ele>7.82788</ele>
        <time>2013-05-30T18:41:34Z</time>
      </trkpt>
      <trkpt lat="59.7795722" lon="17.8335486">
        <ele>7.82788</ele>
        <time>2013-05-30T18:41:35Z</time>
      </trkpt>
      <trkpt lat="59.7795113" lon="17.8335259">
        <ele>7.82788</ele>
        <time>2013-05-30T18:41:36Z</time>
      </trkpt>
      <trkpt lat="59.7794529" lon="17.833506">
        <ele>8.30859</ele>
        <time>2013-05-30T18:41:37Z</time>
      </trkpt>
      <trkpt lat="59.7793946" lon="17.833491">
        <ele>9.2699</ele>
        <time>2013-05-30T18:41:38Z</time>
      </trkpt>
      <trkpt lat="59.779338" lon="17.8334761">
        <ele>10.7118</ele>
        <time>2013-05-30T18:41:39Z</time>
      </trkpt>
      <trkpt lat="59.7792784" lon="17.8334579">
        <ele>10.7118</ele>
        <time>2013-05-30T18:41:40Z</time>
      </trkpt>
      <trkpt lat="59.7792211" lon="17.83344">
        <ele>11.1925</ele>
        <time>2013-05-30T18:41:41Z</time>
      </trkpt>
      <trkpt lat="59.7791639" lon="17.8334247">
        <ele>10.7118</ele>
        <time>2013-05-30T18:41:42Z</time>
      </trkpt>
      <trkpt lat="59.7791148" lon="17.8334094">
        <ele>11.1925</ele>
        <time>2013-05-30T18:41:43Z</time>
      </trkpt>
      <trkpt lat="59.7790635" lon="17.8333964">
        <ele>11.1925</ele>
        <time>2013-05-30T18:41:44Z</time>
      </trkpt>
      <trkpt lat="59.7790136" lon="17.8333835">
        <ele>11.6732</ele>
        <time>2013-05-30T18:41:45Z</time>
      </trkpt>
      <trkpt lat="59.7789677" lon="17.8333711">
        <ele>14.0764</ele>
        <time>2013-05-30T18:41:46Z</time>
      </trkpt>
      <trkpt lat="59.7789113" lon="17.8333532">
        <ele>13.5958</ele>
        <time>2013-05-30T18:41:47Z</time>
      </trkpt>
      <trkpt lat="59.7788524" lon="17.8333374">
        <ele>12.6344</ele>
        <time>2013-05-30T18:41:48Z</time>
      </trkpt>
      <trkpt lat="59.7787936" lon="17.8333121">
        <ele>12.1538</ele>
        <time>2013-05-30T18:41:49Z</time>
      </trkpt>
      <trkpt lat="59.7787319" lon="17.8332821">
        <ele>11.1925</ele>
        <time>2013-05-30T18:41:50Z</time>
      </trkpt>
      <trkpt lat="59.7786729" lon="17.8332448">
        <ele>10.2312</ele>
        <time>2013-05-30T18:41:51Z</time>
      </trkpt>
      <trkpt lat="59.778615" lon="17.8332028">
        <ele>9.2699</ele>
        <time>2013-05-30T18:41:52Z</time>
      </trkpt>
      <trkpt lat="59.7785549" lon="17.8331536">
        <ele>8.30859</ele>
        <time>2013-05-30T18:41:53Z</time>
      </trkpt>
      <trkpt lat="59.7784964" lon="17.8331008">
        <ele>8.78918</ele>
        <time>2013-05-30T18:41:54Z</time>
      </trkpt>
      <trkpt lat="59.7784438" lon="17.8330502">
        <ele>10.7118</ele>
        <time>2013-05-30T18:41:55Z</time>
      </trkpt>
      <trkpt lat="59.7783779" lon="17.8329709">
        <ele>7.82788</ele>
        <time>2013-05-30T18:41:56Z</time>
      </trkpt>
      <trkpt lat="59.7783185" lon="17.8328975">
        <ele>6.86646</ele>
        <time>2013-05-30T18:41:57Z</time>
      </trkpt>
      <trkpt lat="59.778259" lon="17.8328224">
        <ele>5.42456</ele>
        <time>2013-05-30T18:41:58Z</time>
      </trkpt>
      <trkpt lat="59.7782013" lon="17.8327448">
        <ele>3.98267</ele>
        <time>2013-05-30T18:41:59Z</time>
      </trkpt>
      <trkpt lat="59.7781498" lon="17.8326726">
        <ele>3.50195</ele>
        <time>2013-05-30T18:42:00Z</time>
      </trkpt>
      <trkpt lat="59.7780989" lon="17.8326013">
        <ele>3.50195</ele>
        <time>2013-05-30T18:42:01Z</time>
      </trkpt>
      <trkpt lat="59.7780441" lon="17.8325281">
        <ele>2.54065</ele>
        <time>2013-05-30T18:42:02Z</time>
      </trkpt>
      <trkpt lat="59.7779906" lon="17.8324587">
        <ele>1.09863</ele>
        <time>2013-05-30T18:42:03Z</time>
      </trkpt>
      <trkpt lat="59.7779341" lon="17.8323859">
        <ele>0</ele>
        <time>2013-05-30T18:42:04Z</time>
      </trkpt>
      <trkpt lat="59.7778791" lon="17.8323196">
        <ele>0</ele>
        <time>2013-05-30T18:42:05Z</time>
      </trkpt>
      <trkpt lat="59.7778314" lon="17.8322702">
        <ele>0.137451</ele>
        <time>2013-05-30T18:42:06Z</time>
      </trkpt>
      <trkpt lat="59.7777713" lon="17.8322163">
        <ele>0</ele>
        <time>2013-05-30T18:42:07Z</time>
      </trkpt>
      <trkpt lat="59.7777167" lon="17.832173">
        <ele>0.618042</ele>
        <time>2013-05-30T18:42:08Z</time>
      </trkpt>
      <trkpt lat="59.7776618" lon="17.8321354">
        <ele>2.06006</ele>
        <time>2013-05-30T18:42:09Z</time>
      </trkpt>
      <trkpt lat="59.7776007" lon="17.8320957">
        <ele>2.06006</ele>
        <time>2013-05-30T18:42:10Z</time>
      </trkpt>
      <trkpt lat="59.7775431" lon="17.8320606">
        <ele>3.02124</ele>
        <time>2013-05-30T18:42:11Z</time>
      </trkpt>
      <trkpt lat="59.7774823" lon="17.8320176">
        <ele>3.02124</ele>
        <time>2013-05-30T18:42:12Z</time>
      </trkpt>
      <trkpt lat="59.7774303" lon="17.8319771">
        <ele>4.94385</ele>
        <time>2013-05-30T18:42:13Z</time>
      </trkpt>
      <trkpt lat="59.7773772" lon="17.8319261">
        <ele>4.94385</ele>
        <time>2013-05-30T18:42:14Z</time>
      </trkpt>
      <trkpt lat="59.7773279" lon="17.83188">
        <ele>7.34717</ele>
        <time>2013-05-30T18:42:15Z</time>
      </trkpt>
      <trkpt lat="59.7772782" lon="17.8318289">
        <ele>8.30859</ele>
        <time>2013-05-30T18:42:16Z</time>
      </trkpt>
      <trkpt lat="59.7772327" lon="17.8317827">
        <ele>10.7118</ele>
        <time>2013-05-30T18:42:17Z</time>
      </trkpt>
      <trkpt lat="59.7771909" lon="17.8317226">
        <ele>13.1151</ele>
        <time>2013-05-30T18:42:18Z</time>
      </trkpt>
      <trkpt lat="59.7771381" lon="17.8316554">
        <ele>13.1151</ele>
        <time>2013-05-30T18:42:19Z</time>
      </trkpt>
      <trkpt lat="59.7770893" lon="17.8315881">
        <ele>13.1151</ele>
        <time>2013-05-30T18:42:20Z</time>
      </trkpt>
      <trkpt lat="59.7770444" lon="17.8315022">
        <ele>12.1538</ele>
        <time>2013-05-30T18:42:21Z</time>
      </trkpt>
      <trkpt lat="59.7770023" lon="17.8314227">
        <ele>13.1151</ele>
        <time>2013-05-30T18:42:22Z</time>
      </trkpt>
      <trkpt lat="59.7769576" lon="17.8313388">
        <ele>12.6344</ele>
        <time>2013-05-30T18:42:23Z</time>
      </trkpt>
      <trkpt lat="59.7769152" lon="17.8312591">
        <ele>14.0764</ele>
        <time>2013-05-30T18:42:24Z</time>
      </trkpt>
      <trkpt lat="59.7768752" lon="17.8311835">
        <ele>15.5184</ele>
        <time>2013-05-30T18:42:25Z</time>
      </trkpt>
      <trkpt lat="59.7768365" lon="17.831104">
        <ele>16.4797</ele>
        <time>2013-05-30T18:42:26Z</time>
      </trkpt>
      <trkpt lat="59.776798" lon="17.8310303">
        <ele>18.4023</ele>
        <time>2013-05-30T18:42:27Z</time>
      </trkpt>
      <trkpt lat="59.7767593" lon="17.8309518">
        <ele>19.3638</ele>
        <time>2013-05-30T18:42:28Z</time>
      </trkpt>
      <trkpt lat="59.776716" lon="17.830871">
        <ele>19.3638</ele>
        <time>2013-05-30T18:42:29Z</time>
      </trkpt>
      <trkpt lat="59.7766785" lon="17.8307839">
        <ele>19.8444</ele>
        <time>2013-05-30T18:42:30Z</time>
      </trkpt>
      <trkpt lat="59.7766429" lon="17.8307033">
        <ele>20.8057</ele>
        <time>2013-05-30T18:42:31Z</time>
      </trkpt>
      <trkpt lat="59.7766075" lon="17.8306171">
        <ele>21.2864</ele>
        <time>2013-05-30T18:42:32Z</time>
      </trkpt>
      <trkpt lat="59.7765821" lon="17.8305318">
        <ele>24.1703</ele>
        <time>2013-05-30T18:42:33Z</time>
      </trkpt>
      <trkpt lat="59.7765406" lon="17.8304239">
        <ele>22.2476</ele>
        <time>2013-05-30T18:42:34Z</time>
      </trkpt>
      <trkpt lat="59.7764941" lon="17.8303123">
        <ele>20.325</ele>
        <time>2013-05-30T18:42:35Z</time>
      </trkpt>
      <trkpt lat="59.7764538" lon="17.8302034">
        <ele>20.325</ele>
        <time>2013-05-30T18:42:36Z</time>
      </trkpt>
      <trkpt lat="59.7764107" lon="17.8300872">
        <ele>18.4023</ele>
        <time>2013-05-30T18:42:37Z</time>
      </trkpt>
      <trkpt lat="59.7763812" lon="17.8299909">
        <ele>19.3638</ele>
        <time>2013-05-30T18:42:38Z</time>
      </trkpt>
      <trkpt lat="59.7763538" lon="17.8298955">
        <ele>20.325</ele>
        <time>2013-05-30T18:42:39Z</time>
      </trkpt>
      <trkpt lat="59.7763214" lon="17.829804">
        <ele>20.8057</ele>
        <time>2013-05-30T18:42:40Z</time>
      </trkpt>
      <trkpt lat="59.7762858" lon="17.8297088">
        <ele>20.8057</ele>
        <time>2013-05-30T18:42:41Z</time>
      </trkpt>
      <trkpt lat="59.7762548" lon="17.829621">
        <ele>22.7283</ele>
        <time>2013-05-30T18:42:42Z</time>
      </trkpt>
      <trkpt lat="59.7762244" lon="17.8295391">
        <ele>24.651</ele>
        <time>2013-05-30T18:42:43Z</time>
      </trkpt>
      <trkpt lat="59.7761922" lon="17.8294544">
        <ele>23.6896</ele>
        <time>2013-05-30T18:42:44Z</time>
      </trkpt>
      <trkpt lat="59.7761657" lon="17.8293731">
        <ele>22.2476</ele>
        <time>2013-05-30T18:42:45Z</time>
      </trkpt>
      <trkpt lat="59.7761443" lon="17.8293008">
        <ele>22.2476</ele>
        <time>2013-05-30T18:42:46Z</time>
      </trkpt>
      <trkpt lat="59.7761231" lon="17.8292307">
        <ele>22.2476</ele>
        <time>2013-05-30T18:42:47Z</time>
      </trkpt>
      <trkpt lat="59.7761047" lon="17.8291617">
        <ele>22.7283</ele>
        <time>2013-05-30T18:42:48Z</time>
      </trkpt>
      <trkpt lat="59.7760777" lon="17.8290808">
        <ele>22.2476</ele>
        <time>2013-05-30T18:42:49Z</time>
      </trkpt>
      <trkpt lat="59.7760537" lon="17.8290053">
        <ele>21.767</ele>
        <time>2013-05-30T18:42:50Z</time>
      </trkpt>
      <trkpt lat="59.776029" lon="17.8289229">
        <ele>21.767</ele>
        <time>2013-05-30T18:42:51Z</time>
      </trkpt>
      <trkpt lat="59.7760168" lon="17.8288424">
        <ele>25.1317</ele>
        <time>2013-05-30T18:42:52Z</time>
      </trkpt>
      <trkpt lat="59.7759992" lon="17.8287684">
        <ele>27.0543</ele>
        <time>2013-05-30T18:42:53Z</time>
      </trkpt>
      <trkpt lat="59.7759611" lon="17.8286751">
        <ele>27.0543</ele>
        <time>2013-05-30T18:42:54Z</time>
      </trkpt>
      <trkpt lat="59.7759301" lon="17.828579">
        <ele>28.0155</ele>
        <time>2013-05-30T18:42:55Z</time>
      </trkpt>
      <trkpt lat="59.7758983" lon="17.8284847">
        <ele>28.0155</ele>
        <time>2013-05-30T18:42:56Z</time>
      </trkpt>
      <trkpt lat="59.7758744" lon="17.8283903">
        <ele>28.9769</ele>
        <time>2013-05-30T18:42:57Z</time>
      </trkpt>
      <trkpt lat="59.7758352" lon="17.8282769">
        <ele>28.0155</ele>
        <time>2013-05-30T18:42:58Z</time>
      </trkpt>
      <trkpt lat="59.7758043" lon="17.8281675">
        <ele>27.5349</ele>
        <time>2013-05-30T18:42:59Z</time>
      </trkpt>
      <trkpt lat="59.7757694" lon="17.8280599">
        <ele>27.0543</ele>
        <time>2013-05-30T18:43:00Z</time>
      </trkpt>
      <trkpt lat="59.7757347" lon="17.8279506">
        <ele>25.6123</ele>
        <time>2013-05-30T18:43:01Z</time>
      </trkpt>
      <trkpt lat="59.7757007" lon="17.8278439">
        <ele>24.651</ele>
        <time>2013-05-30T18:43:02Z</time>
      </trkpt>
      <trkpt lat="59.7756722" lon="17.827743">
        <ele>25.6123</ele>
        <time>2013-05-30T18:43:03Z</time>
      </trkpt>
      <trkpt lat="59.7756706" lon="17.8276652">
        <ele>28.9769</ele>
        <time>2013-05-30T18:43:04Z</time>
      </trkpt>
      <trkpt lat="59.7756659" lon="17.827587">
        <ele>32.3416</ele>
        <time>2013-05-30T18:43:05Z</time>
      </trkpt>
      <trkpt lat="59.7756368" lon="17.8274866">
        <ele>32.8223</ele>
        <time>2013-05-30T18:43:06Z</time>
      </trkpt>
      <trkpt lat="59.7756202" lon="17.8273839">
        <ele>35.2255</ele>
        <time>2013-05-30T18:43:07Z</time>
      </trkpt>
      <trkpt lat="59.7756022" lon="17.8272679">
        <ele>36.6675</ele>
        <time>2013-05-30T18:43:08Z</time>
      </trkpt>
      <trkpt lat="59.775585" lon="17.827158">
        <ele>39.0707</ele>
        <time>2013-05-30T18:43:09Z</time>
      </trkpt>
      <trkpt lat="59.7755683" lon="17.8270377">
        <ele>37.6287</ele>
        <time>2013-05-30T18:43:10Z</time>
      </trkpt>
      <trkpt lat="59.7755504" lon="17.8269223">
        <ele>34.7449</ele>
        <time>2013-05-30T18:43:11Z</time>
      </trkpt>
      <trkpt lat="59.7755254" lon="17.826813">
        <ele>34.2642</ele>
        <time>2013-05-30T18:43:12Z</time>
      </trkpt>
      <trkpt lat="59.7755187" lon="17.826717">
        <ele>34.2642</ele>
        <time>2013-05-30T18:43:13Z</time>
      </trkpt>
      <trkpt lat="59.7754975" lon="17.8266017">
        <ele>32.3416</ele>
        <time>2013-05-30T18:43:14Z</time>
      </trkpt>
      <trkpt lat="59.7754681" lon="17.8264788">
        <ele>30.4188</ele>
        <time>2013-05-30T18:43:15Z</time>
      </trkpt>
      <trkpt lat="59.7754356" lon="17.826363">
        <ele>30.4188</ele>
        <time>2013-05-30T18:43:16Z</time>
      </trkpt>
      <trkpt lat="59.7753986" lon="17.826248">
        <ele>29.4575</ele>
        <time>2013-05-30T18:43:17Z</time>
      </trkpt>
      <trkpt lat="59.7753705" lon="17.8261433">
        <ele>29.4575</ele>
        <time>2013-05-30T18:43:18Z</time>
      </trkpt>
      <trkpt lat="59.7753395" lon="17.8260429">
        <ele>28.4962</ele>
        <time>2013-05-30T18:43:19Z</time>
      </trkpt>
      <trkpt lat="59.7753043" lon="17.825933">
        <ele>28.0155</ele>
        <time>2013-05-30T18:43:20Z</time>
      </trkpt>
      <trkpt lat="59.7752756" lon="17.8258325">
        <ele>28.0155</ele>
        <time>2013-05-30T18:43:21Z</time>
      </trkpt>
      <trkpt lat="59.7752436" lon="17.8257419">
        <ele>28.0155</ele>
        <time>2013-05-30T18:43:22Z</time>
      </trkpt>
      <trkpt lat="59.7752162" lon="17.8256624">
        <ele>28.4962</ele>
        <time>2013-05-30T18:43:23Z</time>
      </trkpt>
      <trkpt lat="59.7751863" lon="17.8255657">
        <ele>29.4575</ele>
        <time>2013-05-30T18:43:24Z</time>
      </trkpt>
      <trkpt lat="59.7751484" lon="17.8254569">
        <ele>30.4188</ele>
        <time>2013-05-30T18:43:25Z</time>
      </trkpt>
      <trkpt lat="59.7751027" lon="17.8253388">
        <ele>30.8995</ele>
        <time>2013-05-30T18:43:26Z</time>
      </trkpt>
      <trkpt lat="59.7750603" lon="17.8252254">
        <ele>30.8995</ele>
        <time>2013-05-30T18:43:27Z</time>
      </trkpt>
      <trkpt lat="59.7750121" lon="17.8251073">
        <ele>29.9381</ele>
        <time>2013-05-30T18:43:28Z</time>
      </trkpt>
      <trkpt lat="59.7749563" lon="17.824975">
        <ele>27.0543</ele>
        <time>2013-05-30T18:43:29Z</time>
      </trkpt>
      <trkpt lat="59.7749151" lon="17.8248555">
        <ele>26.5736</ele>
        <time>2013-05-30T18:43:30Z</time>
      </trkpt>
      <trkpt lat="59.7748655" lon="17.824727">
        <ele>24.1703</ele>
        <time>2013-05-30T18:43:31Z</time>
      </trkpt>
      <trkpt lat="59.7748116" lon="17.8245935">
        <ele>20.325</ele>
        <time>2013-05-30T18:43:32Z</time>
      </trkpt>
      <trkpt lat="59.7747722" lon="17.8244806">
        <ele>19.3638</ele>
        <time>2013-05-30T18:43:33Z</time>
      </trkpt>
      <trkpt lat="59.7747306" lon="17.8243679">
        <ele>19.8444</ele>
        <time>2013-05-30T18:43:34Z</time>
      </trkpt>
      <trkpt lat="59.7746975" lon="17.8242592">
        <ele>19.3638</ele>
        <time>2013-05-30T18:43:35Z</time>
      </trkpt>
      <trkpt lat="59.7746548" lon="17.8241402">
        <ele>16.9604</ele>
        <time>2013-05-30T18:43:36Z</time>
      </trkpt>
      <trkpt lat="59.7746189" lon="17.8240324">
        <ele>16.9604</ele>
        <time>2013-05-30T18:43:37Z</time>
      </trkpt>
      <trkpt lat="59.7745822" lon="17.823927">
        <ele>16.9604</ele>
        <time>2013-05-30T18:43:38Z</time>
      </trkpt>
      <trkpt lat="59.7745494" lon="17.8238339">
        <ele>18.4023</ele>
        <time>2013-05-30T18:43:39Z</time>
      </trkpt>
      <trkpt lat="59.7745174" lon="17.8237433">
        <ele>20.325</ele>
        <time>2013-05-30T18:43:40Z</time>
      </trkpt>
      <trkpt lat="59.7744801" lon="17.8236631">
        <ele>22.7283</ele>
        <time>2013-05-30T18:43:41Z</time>
      </trkpt>
      <trkpt lat="59.7744303" lon="17.8235776">
        <ele>22.2476</ele>
        <time>2013-05-30T18:43:42Z</time>
      </trkpt>
      <trkpt lat="59.7743768" lon="17.8234957">
        <ele>22.7283</ele>
        <time>2013-05-30T18:43:43Z</time>
      </trkpt>
      <trkpt lat="59.7743217" lon="17.8234227">
        <ele>24.1703</ele>
        <time>2013-05-30T18:43:44Z</time>
      </trkpt>
      <trkpt lat="59.7742693" lon="17.8233558">
        <ele>25.6123</ele>
        <time>2013-05-30T18:43:45Z</time>
      </trkpt>
      <trkpt lat="59.7742204" lon="17.8232873">
        <ele>26.5736</ele>
        <time>2013-05-30T18:43:46Z</time>
      </trkpt>
      <trkpt lat="59.7741655" lon="17.8232175">
        <ele>26.5736</ele>
        <time>2013-05-30T18:43:47Z</time>
      </trkpt>
      <trkpt lat="59.7741101" lon="17.8231456">
        <ele>27.0543</ele>
        <time>2013-05-30T18:43:48Z</time>
      </trkpt>
      <trkpt lat="59.7740585" lon="17.82307">
        <ele>28.0155</ele>
        <time>2013-05-30T18:43:49Z</time>
      </trkpt>
      <trkpt lat="59.7740044" lon="17.822992">
        <ele>28.9769</ele>
        <time>2013-05-30T18:43:50Z</time>
      </trkpt>
      <trkpt lat="59.773947" lon="17.8229076">
        <ele>28.9769</ele>
        <time>2013-05-30T18:43:51Z</time>
      </trkpt>
      <trkpt lat="59.7738834" lon="17.822813">
        <ele>27.0543</ele>
        <time>2013-05-30T18:43:52Z</time>
      </trkpt>
      <trkpt lat="59.7738254" lon="17.8227316">
        <ele>26.5736</ele>
        <time>2013-05-30T18:43:53Z</time>
      </trkpt>
      <trkpt lat="59.773771" lon="17.8226508">
        <ele>26.5736</ele>
        <time>2013-05-30T18:43:54Z</time>
      </trkpt>
      <trkpt lat="59.7737103" lon="17.8225709">
        <ele>25.1317</ele>
        <time>2013-05-30T18:43:55Z</time>
      </trkpt>
      <trkpt lat="59.7736559" lon="17.8224983">
        <ele>25.1317</ele>
        <time>2013-05-30T18:43:56Z</time>
      </trkpt>
      <trkpt lat="59.7735943" lon="17.8224158">
        <ele>23.209</ele>
        <time>2013-05-30T18:43:57Z</time>
      </trkpt>
      <trkpt lat="59.7735327" lon="17.8223316">
        <ele>23.209</ele>
        <time>2013-05-30T18:43:58Z</time>
      </trkpt>
      <trkpt lat="59.7734748" lon="17.8222555">
        <ele>24.1703</ele>
        <time>2013-05-30T18:43:59Z</time>
      </trkpt>
      <trkpt lat="59.7734103" lon="17.8221681">
        <ele>23.209</ele>
        <time>2013-05-30T18:44:00Z</time>
      </trkpt>
      <trkpt lat="59.7733501" lon="17.8220909">
        <ele>23.6896</ele>
        <time>2013-05-30T18:44:01Z</time>
      </trkpt>
      <trkpt lat="59.7732949" lon="17.8220213">
        <ele>25.6123</ele>
        <time>2013-05-30T18:44:02Z</time>
      </trkpt>
      <trkpt lat="59.773227" lon="17.8219334">
        <ele>24.1703</ele>
        <time>2013-05-30T18:44:03Z</time>
      </trkpt>
      <trkpt lat="59.7731662" lon="17.8218547">
        <ele>23.6896</ele>
        <time>2013-05-30T18:44:04Z</time>
      </trkpt>
      <trkpt lat="59.7731104" lon="17.8217757">
        <ele>23.6896</ele>
        <time>2013-05-30T18:44:05Z</time>
      </trkpt>
      <trkpt lat="59.773052" lon="17.8216961">
        <ele>22.7283</ele>
        <time>2013-05-30T18:44:06Z</time>
      </trkpt>
      <trkpt lat="59.7730015" lon="17.8216282">
        <ele>23.209</ele>
        <time>2013-05-30T18:44:07Z</time>
      </trkpt>
      <trkpt lat="59.7729544" lon="17.8215584">
        <ele>24.651</ele>
        <time>2013-05-30T18:44:08Z</time>
      </trkpt>
      <trkpt lat="59.7729022" lon="17.821475">
        <ele>24.1703</ele>
        <time>2013-05-30T18:44:09Z</time>
      </trkpt>
      <trkpt lat="59.7728485" lon="17.8213966">
        <ele>23.6896</ele>
        <time>2013-05-30T18:44:10Z</time>
      </trkpt>
      <trkpt lat="59.772794" lon="17.8213184">
        <ele>22.7283</ele>
        <time>2013-05-30T18:44:11Z</time>
      </trkpt>
      <trkpt lat="59.7727358" lon="17.8212465">
        <ele>21.2864</ele>
        <time>2013-05-30T18:44:12Z</time>
      </trkpt>
      <trkpt lat="59.772683" lon="17.8211779">
        <ele>21.2864</ele>
        <time>2013-05-30T18:44:13Z</time>
      </trkpt>
      <trkpt lat="59.7726299" lon="17.821115">
        <ele>21.2864</ele>
        <time>2013-05-30T18:44:14Z</time>
      </trkpt>
      <trkpt lat="59.7725791" lon="17.821056">
        <ele>21.767</ele>
        <time>2013-05-30T18:44:15Z</time>
      </trkpt>
      <trkpt lat="59.7725322" lon="17.821003">
        <ele>21.767</ele>
        <time>2013-05-30T18:44:16Z</time>
      </trkpt>
      <trkpt lat="59.7724841" lon="17.8209475">
        <ele>20.8057</ele>
        <time>2013-05-30T18:44:17Z</time>
      </trkpt>
      <trkpt lat="59.7724339" lon="17.8208963">
        <ele>18.8831</ele>
        <time>2013-05-30T18:44:18Z</time>
      </trkpt>
      <trkpt lat="59.7723846" lon="17.8208506">
        <ele>18.4023</ele>
        <time>2013-05-30T18:44:19Z</time>
      </trkpt>
      <trkpt lat="59.7723304" lon="17.8208001">
        <ele>18.4023</ele>
        <time>2013-05-30T18:44:20Z</time>
      </trkpt>
      <trkpt lat="59.7722703" lon="17.8207527">
        <ele>17.4412</ele>
        <time>2013-05-30T18:44:21Z</time>
      </trkpt>
      <trkpt lat="59.7722077" lon="17.8207026">
        <ele>15.999</ele>
        <time>2013-05-30T18:44:22Z</time>
      </trkpt>
      <trkpt lat="59.772147" lon="17.8206575">
        <ele>15.999</ele>
        <time>2013-05-30T18:44:23Z</time>
      </trkpt>
      <trkpt lat="59.7720919" lon="17.8206134">
        <ele>16.9604</ele>
        <time>2013-05-30T18:44:24Z</time>
      </trkpt>
      <trkpt lat="59.7720325" lon="17.8205577">
        <ele>16.9604</ele>
        <time>2013-05-30T18:44:25Z</time>
      </trkpt>
      <trkpt lat="59.7719753" lon="17.8205191">
        <ele>17.9218</ele>
        <time>2013-05-30T18:44:26Z</time>
      </trkpt>
      <trkpt lat="59.7719135" lon="17.8204805">
        <ele>18.4023</ele>
        <time>2013-05-30T18:44:27Z</time>
      </trkpt>
      <trkpt lat="59.7718523" lon="17.8204442">
        <ele>19.8444</ele>
        <time>2013-05-30T18:44:28Z</time>
      </trkpt>
      <trkpt lat="59.7717911" lon="17.8204079">
        <ele>21.767</ele>
        <time>2013-05-30T18:44:29Z</time>
      </trkpt>
      <trkpt lat="59.7717282" lon="17.8203676">
        <ele>23.6896</ele>
        <time>2013-05-30T18:44:30Z</time>
      </trkpt>
      <trkpt lat="59.7716653" lon="17.8203264">
        <ele>25.6123</ele>
        <time>2013-05-30T18:44:31Z</time>
      </trkpt>
      <trkpt lat="59.7716011" lon="17.8202833">
        <ele>27.5349</ele>
        <time>2013-05-30T18:44:32Z</time>
      </trkpt>
      <trkpt lat="59.7715373" lon="17.8202453">
        <ele>29.4575</ele>
        <time>2013-05-30T18:44:33Z</time>
      </trkpt>
      <trkpt lat="59.7714737" lon="17.8202015">
        <ele>30.8995</ele>
        <time>2013-05-30T18:44:34Z</time>
      </trkpt>
      <trkpt lat="59.7714083" lon="17.8201497">
        <ele>31.3801</ele>
        <time>2013-05-30T18:44:35Z</time>
      </trkpt>
      <trkpt lat="59.7713358" lon="17.820095">
        <ele>30.4188</ele>
        <time>2013-05-30T18:44:36Z</time>
      </trkpt>
      <trkpt lat="59.7712651" lon="17.8200422">
        <ele>29.4575</ele>
        <time>2013-05-30T18:44:37Z</time>
      </trkpt>
      <trkpt lat="59.7711999" lon="17.8199814">
        <ele>28.9769</ele>
        <time>2013-05-30T18:44:38Z</time>
      </trkpt>
      <trkpt lat="59.7711374" lon="17.8199186">
        <ele>27.5349</ele>
        <time>2013-05-30T18:44:39Z</time>
      </trkpt>
      <trkpt lat="59.7710771" lon="17.8198629">
        <ele>26.5736</ele>
        <time>2013-05-30T18:44:40Z</time>
      </trkpt>
      <trkpt lat="59.7710152" lon="17.8198133">
        <ele>24.651</ele>
        <time>2013-05-30T18:44:41Z</time>
      </trkpt>
      <trkpt lat="59.7709644" lon="17.8197748">
        <ele>26.0929</ele>
        <time>2013-05-30T18:44:42Z</time>
      </trkpt>
      <trkpt lat="59.7709028" lon="17.8197211">
        <ele>25.1317</ele>
        <time>2013-05-30T18:44:43Z</time>
      </trkpt>
      <trkpt lat="59.7708393" lon="17.8196711">
        <ele>23.6896</ele>
        <time>2013-05-30T18:44:44Z</time>
      </trkpt>
      <trkpt lat="59.770784" lon="17.8196302">
        <ele>23.6896</ele>
        <time>2013-05-30T18:44:45Z</time>
      </trkpt>
      <trkpt lat="59.7707311" lon="17.8196063">
        <ele>25.1317</ele>
        <time>2013-05-30T18:44:46Z</time>
      </trkpt>
      <trkpt lat="59.7706748" lon="17.8195681">
        <ele>24.651</ele>
        <time>2013-05-30T18:44:47Z</time>
      </trkpt>
      <trkpt lat="59.7706215" lon="17.8195345">
        <ele>25.6123</ele>
        <time>2013-05-30T18:44:48Z</time>
      </trkpt>
      <trkpt lat="59.7705701" lon="17.8195045">
        <ele>27.0543</ele>
        <time>2013-05-30T18:44:49Z</time>
      </trkpt>
      <trkpt lat="59.7705152" lon="17.8194711">
        <ele>28.9769</ele>
        <time>2013-05-30T18:44:50Z</time>
      </trkpt>
      <trkpt lat="59.7704576" lon="17.8194417">
        <ele>30.8995</ele>
        <time>2013-05-30T18:44:51Z</time>
      </trkpt>
      <trkpt lat="59.7704011" lon="17.8194065">
        <ele>32.3416</ele>
        <time>2013-05-30T18:44:52Z</time>
      </trkpt>
      <trkpt lat="59.770345" lon="17.8193723">
        <ele>32.8223</ele>
        <time>2013-05-30T18:44:53Z</time>
      </trkpt>
      <trkpt lat="59.7702877" lon="17.819333">
        <ele>32.8223</ele>
        <time>2013-05-30T18:44:54Z</time>
      </trkpt>
      <trkpt lat="59.7702308" lon="17.8192916">
        <ele>32.8223</ele>
        <time>2013-05-30T18:44:55Z</time>
      </trkpt>
      <trkpt lat="59.7701883" lon="17.8192574">
        <ele>36.1868</ele>
        <time>2013-05-30T18:44:56Z</time>
      </trkpt>
      <trkpt lat="59.7701335" lon="17.8192215">
        <ele>37.1481</ele>
        <time>2013-05-30T18:44:57Z</time>
      </trkpt>
      <trkpt lat="59.7700746" lon="17.8191848">
        <ele>37.6287</ele>
        <time>2013-05-30T18:44:58Z</time>
      </trkpt>
      <trkpt lat="59.7700102" lon="17.8191433">
        <ele>36.6675</ele>
        <time>2013-05-30T18:44:59Z</time>
      </trkpt>
      <trkpt lat="59.7699518" lon="17.8190986">
        <ele>37.1481</ele>
        <time>2013-05-30T18:45:00Z</time>
      </trkpt>
      <trkpt lat="59.7699026" lon="17.8190639">
        <ele>39.5513</ele>
        <time>2013-05-30T18:45:01Z</time>
      </trkpt>
      <trkpt lat="59.7698521" lon="17.8190242">
        <ele>42.4354</ele>
        <time>2013-05-30T18:45:02Z</time>
      </trkpt>
      <trkpt lat="59.7698003" lon="17.8189889">
        <ele>43.3966</ele>
        <time>2013-05-30T18:45:03Z</time>
      </trkpt>
      <trkpt lat="59.7697481" lon="17.8189517">
        <ele>44.8386</ele>
        <time>2013-05-30T18:45:04Z</time>
      </trkpt>
      <trkpt lat="59.7696969" lon="17.8189117">
        <ele>46.2806</ele>
        <time>2013-05-30T18:45:05Z</time>
      </trkpt>
      <trkpt lat="59.7696373" lon="17.8188694">
        <ele>46.2806</ele>
        <time>2013-05-30T18:45:06Z</time>
      </trkpt>
      <trkpt lat="59.7695739" lon="17.8188226">
        <ele>46.2806</ele>
        <time>2013-05-30T18:45:07Z</time>
      </trkpt>
      <trkpt lat="59.7695135" lon="17.8187735">
        <ele>46.2806</ele>
        <time>2013-05-30T18:45:08Z</time>
      </trkpt>
      <trkpt lat="59.76944" lon="17.818729">
        <ele>44.8386</ele>
        <time>2013-05-30T18:45:09Z</time>
      </trkpt>
      <trkpt lat="59.7693662" lon="17.8186802">
        <ele>43.3966</ele>
        <time>2013-05-30T18:45:10Z</time>
      </trkpt>
      <trkpt lat="59.7693016" lon="17.8186276">
        <ele>42.916</ele>
        <time>2013-05-30T18:45:11Z</time>
      </trkpt>
      <trkpt lat="59.7692342" lon="17.8185803">
        <ele>43.8773</ele>
        <time>2013-05-30T18:45:12Z</time>
      </trkpt>
      <trkpt lat="59.7691679" lon="17.8185321">
        <ele>44.8386</ele>
        <time>2013-05-30T18:45:13Z</time>
      </trkpt>
      <trkpt lat="59.7690942" lon="17.8184841">
        <ele>43.8773</ele>
        <time>2013-05-30T18:45:14Z</time>
      </trkpt>
      <trkpt lat="59.7690302" lon="17.8184436">
        <ele>45.3192</ele>
        <time>2013-05-30T18:45:15Z</time>
      </trkpt>
      <trkpt lat="59.7689645" lon="17.8183964">
        <ele>44.8386</ele>
        <time>2013-05-30T18:45:16Z</time>
      </trkpt>
      <trkpt lat="59.7689125" lon="17.8183515">
        <ele>47.2418</ele>
        <time>2013-05-30T18:45:17Z</time>
      </trkpt>
      <trkpt lat="59.7688483" lon="17.8183058">
        <ele>47.7225</ele>
        <time>2013-05-30T18:45:18Z</time>
      </trkpt>
      <trkpt lat="59.7687852" lon="17.8182641">
        <ele>48.684</ele>
        <time>2013-05-30T18:45:19Z</time>
      </trkpt>
      <trkpt lat="59.7687234" lon="17.8182225">
        <ele>49.1646</ele>
        <time>2013-05-30T18:45:20Z</time>
      </trkpt>
      <trkpt lat="59.7686556" lon="17.8181761">
        <ele>48.684</ele>
        <time>2013-05-30T18:45:21Z</time>
      </trkpt>
      <trkpt lat="59.7685893" lon="17.8181264">
        <ele>48.2034</ele>
        <time>2013-05-30T18:45:22Z</time>
      </trkpt>
      <trkpt lat="59.7685181" lon="17.818075">
        <ele>47.7225</ele>
        <time>2013-05-30T18:45:23Z</time>
      </trkpt>
      <trkpt lat="59.768447" lon="17.8180245">
        <ele>46.7612</ele>
        <time>2013-05-30T18:45:24Z</time>
      </trkpt>
      <trkpt lat="59.7683814" lon="17.8179784">
        <ele>46.7612</ele>
        <time>2013-05-30T18:45:25Z</time>
      </trkpt>
      <trkpt lat="59.7683121" lon="17.8179349">
        <ele>46.7612</ele>
        <time>2013-05-30T18:45:26Z</time>
      </trkpt>
      <trkpt lat="59.7682417" lon="17.8178901">
        <ele>46.7612</ele>
        <time>2013-05-30T18:45:27Z</time>
      </trkpt>
      <trkpt lat="59.7681753" lon="17.8178437">
        <ele>48.2034</ele>
        <time>2013-05-30T18:45:28Z</time>
      </trkpt>
      <trkpt lat="59.7680985" lon="17.8177986">
        <ele>47.2418</ele>
        <time>2013-05-30T18:45:29Z</time>
      </trkpt>
      <trkpt lat="59.7680214" lon="17.8177503">
        <ele>46.2806</ele>
        <time>2013-05-30T18:45:30Z</time>
      </trkpt>
      <trkpt lat="59.767949" lon="17.8177093">
        <ele>46.7612</ele>
        <time>2013-05-30T18:45:31Z</time>
      </trkpt>
      <trkpt lat="59.7678719" lon="17.8176682">
        <ele>45.7999</ele>
        <time>2013-05-30T18:45:32Z</time>
      </trkpt>
      <trkpt lat="59.7678039" lon="17.817621">
        <ele>46.2806</ele>
        <time>2013-05-30T18:45:33Z</time>
      </trkpt>
      <trkpt lat="59.7677325" lon="17.8175707">
        <ele>45.3192</ele>
        <time>2013-05-30T18:45:34Z</time>
      </trkpt>
      <trkpt lat="59.7676641" lon="17.8175177">
        <ele>45.3192</ele>
        <time>2013-05-30T18:45:35Z</time>
      </trkpt>
      <trkpt lat="59.7675936" lon="17.8174664">
        <ele>45.3192</ele>
        <time>2013-05-30T18:45:36Z</time>
      </trkpt>
      <trkpt lat="59.7675222" lon="17.8174132">
        <ele>45.3192</ele>
        <time>2013-05-30T18:45:37Z</time>
      </trkpt>
      <trkpt lat="59.7674445" lon="17.8173654">
        <ele>43.8773</ele>
        <time>2013-05-30T18:45:38Z</time>
      </trkpt>
      <trkpt lat="59.7673635" lon="17.8173101">
        <ele>42.4354</ele>
        <time>2013-05-30T18:45:39Z</time>
      </trkpt>
      <trkpt lat="59.7672876" lon="17.8172484">
        <ele>40.9934</ele>
        <time>2013-05-30T18:45:40Z</time>
      </trkpt>
      <trkpt lat="59.7672081" lon="17.8171854">
        <ele>39.5513</ele>
        <time>2013-05-30T18:45:41Z</time>
      </trkpt>
      <trkpt lat="59.767128" lon="17.8171267">
        <ele>38.5901</ele>
        <time>2013-05-30T18:45:42Z</time>
      </trkpt>
      <trkpt lat="59.7670486" lon="17.8170678">
        <ele>37.6287</ele>
        <time>2013-05-30T18:45:43Z</time>
      </trkpt>
      <trkpt lat="59.7669779" lon="17.8170256">
        <ele>37.6287</ele>
        <time>2013-05-30T18:45:44Z</time>
      </trkpt>
      <trkpt lat="59.7669061" lon="17.816972">
        <ele>36.6675</ele>
        <time>2013-05-30T18:45:45Z</time>
      </trkpt>
      <trkpt lat="59.7668322" lon="17.8169178">
        <ele>36.6675</ele>
        <time>2013-05-30T18:45:46Z</time>
      </trkpt>
      <trkpt lat="59.7667483" lon="17.8168606">
        <ele>35.2255</ele>
        <time>2013-05-30T18:45:47Z</time>
      </trkpt>
      <trkpt lat="59.7666608" lon="17.8167953">
        <ele>34.2642</ele>
        <time>2013-05-30T18:45:48Z</time>
      </trkpt>
      <trkpt lat="59.7665785" lon="17.8167386">
        <ele>32.8223</ele>
        <time>2013-05-30T18:45:49Z</time>
      </trkpt>
      <trkpt lat="59.766497" lon="17.8166835">
        <ele>31.3801</ele>
        <time>2013-05-30T18:45:50Z</time>
      </trkpt>
      <trkpt lat="59.7664157" lon="17.8166247">
        <ele>30.4188</ele>
        <time>2013-05-30T18:45:51Z</time>
      </trkpt>
      <trkpt lat="59.7663322" lon="17.8165642">
        <ele>29.9381</ele>
        <time>2013-05-30T18:45:52Z</time>
      </trkpt>
      <trkpt lat="59.7662548" lon="17.8165108">
        <ele>29.9381</ele>
        <time>2013-05-30T18:45:53Z</time>
      </trkpt>
      <trkpt lat="59.7661826" lon="17.8164602">
        <ele>30.8995</ele>
        <time>2013-05-30T18:45:54Z</time>
      </trkpt>
      <trkpt lat="59.7661007" lon="17.8164005">
        <ele>30.4188</ele>
        <time>2013-05-30T18:45:55Z</time>
      </trkpt>
      <trkpt lat="59.7660236" lon="17.8163467">
        <ele>30.8995</ele>
        <time>2013-05-30T18:45:56Z</time>
      </trkpt>
      <trkpt lat="59.7659438" lon="17.8162895">
        <ele>30.8995</ele>
        <time>2013-05-30T18:45:57Z</time>
      </trkpt>
      <trkpt lat="59.7658642" lon="17.8162292">
        <ele>30.8995</ele>
        <time>2013-05-30T18:45:58Z</time>
      </trkpt>
      <trkpt lat="59.7657864" lon="17.8161769">
        <ele>31.8607</ele>
        <time>2013-05-30T18:45:59Z</time>
      </trkpt>
      <trkpt lat="59.7657051" lon="17.8161168">
        <ele>31.3801</ele>
        <time>2013-05-30T18:46:00Z</time>
      </trkpt>
      <trkpt lat="59.7656248" lon="17.8160575">
        <ele>32.3416</ele>
        <time>2013-05-30T18:46:01Z</time>
      </trkpt>
      <trkpt lat="59.7655434" lon="17.8159979">
        <ele>33.3029</ele>
        <time>2013-05-30T18:46:02Z</time>
      </trkpt>
      <trkpt lat="59.765463" lon="17.8159378">
        <ele>34.2642</ele>
        <time>2013-05-30T18:46:03Z</time>
      </trkpt>
      <trkpt lat="59.7653802" lon="17.8158768">
        <ele>34.7449</ele>
        <time>2013-05-30T18:46:04Z</time>
      </trkpt>
      <trkpt lat="59.765294" lon="17.8158143">
        <ele>34.7449</ele>
        <time>2013-05-30T18:46:05Z</time>
      </trkpt>
      <trkpt lat="59.7652035" lon="17.8157513">
        <ele>35.2255</ele>
        <time>2013-05-30T18:46:06Z</time>
      </trkpt>
      <trkpt lat="59.7651073" lon="17.8156871">
        <ele>35.2255</ele>
        <time>2013-05-30T18:46:07Z</time>
      </trkpt>
      <trkpt lat="59.7650086" lon="17.8156162">
        <ele>34.2642</ele>
        <time>2013-05-30T18:46:08Z</time>
      </trkpt>
      <trkpt lat="59.7649119" lon="17.8155457">
        <ele>34.2642</ele>
        <time>2013-05-30T18:46:09Z</time>
      </trkpt>
      <trkpt lat="59.7648156" lon="17.8154821">
        <ele>34.2642</ele>
        <time>2013-05-30T18:46:10Z</time>
      </trkpt>
      <trkpt lat="59.7647175" lon="17.8154216">
        <ele>34.2642</ele>
        <time>2013-05-30T18:46:11Z</time>
      </trkpt>
      <trkpt lat="59.7646239" lon="17.8153531">
        <ele>34.7449</ele>
        <time>2013-05-30T18:46:12Z</time>
      </trkpt>
      <trkpt lat="59.7645285" lon="17.8152892">
        <ele>34.2642</ele>
        <time>2013-05-30T18:46:13Z</time>
      </trkpt>
      <trkpt lat="59.7644406" lon="17.8152354">
        <ele>35.2255</ele>
        <time>2013-05-30T18:46:14Z</time>
      </trkpt>
      <trkpt lat="59.7643547" lon="17.8151711">
        <ele>34.7449</ele>
        <time>2013-05-30T18:46:15Z</time>
      </trkpt>
      <trkpt lat="59.7642639" lon="17.8151092">
        <ele>34.2642</ele>
        <time>2013-05-30T18:46:16Z</time>
      </trkpt>
      <trkpt lat="59.7641763" lon="17.8150469">
        <ele>34.2642</ele>
        <time>2013-05-30T18:46:17Z</time>
      </trkpt>
      <trkpt lat="59.7640888" lon="17.8149815">
        <ele>33.3029</ele>
        <time>2013-05-30T18:46:18Z</time>
      </trkpt>
      <trkpt lat="59.7639985" lon="17.8149221">
        <ele>32.8223</ele>
        <time>2013-05-30T18:46:19Z</time>
      </trkpt>
      <trkpt lat="59.7639123" lon="17.8148559">
        <ele>32.3416</ele>
        <time>2013-05-30T18:46:20Z</time>
      </trkpt>
      <trkpt lat="59.7638339" lon="17.8147873">
        <ele>32.3416</ele>
        <time>2013-05-30T18:46:21Z</time>
      </trkpt>
      <trkpt lat="59.7637636" lon="17.8147176">
        <ele>33.3029</ele>
        <time>2013-05-30T18:46:22Z</time>
      </trkpt>
      <trkpt lat="59.7636799" lon="17.8146506">
        <ele>33.3029</ele>
        <time>2013-05-30T18:46:23Z</time>
      </trkpt>
      <trkpt lat="59.7635926" lon="17.8145866">
        <ele>32.8223</ele>
        <time>2013-05-30T18:46:24Z</time>
      </trkpt>
      <trkpt lat="59.7635035" lon="17.8145202">
        <ele>31.8607</ele>
        <time>2013-05-30T18:46:25Z</time>
      </trkpt>
      <trkpt lat="59.7634129" lon="17.8144514">
        <ele>30.8995</ele>
        <time>2013-05-30T18:46:26Z</time>
      </trkpt>
      <trkpt lat="59.763324" lon="17.8143879">
        <ele>31.3801</ele>
        <time>2013-05-30T18:46:27Z</time>
      </trkpt>
      <trkpt lat="59.7632335" lon="17.8143228">
        <ele>30.8995</ele>
        <time>2013-05-30T18:46:28Z</time>
      </trkpt>
      <trkpt lat="59.7631356" lon="17.8142535">
        <ele>28.9769</ele>
        <time>2013-05-30T18:46:29Z</time>
      </trkpt>
      <trkpt lat="59.763035" lon="17.814181">
        <ele>27.0543</ele>
        <time>2013-05-30T18:46:30Z</time>
      </trkpt>
      <trkpt lat="59.7629367" lon="17.814113">
        <ele>26.5736</ele>
        <time>2013-05-30T18:46:31Z</time>
      </trkpt>
      <trkpt lat="59.7628345" lon="17.8140405">
        <ele>25.6123</ele>
        <time>2013-05-30T18:46:32Z</time>
      </trkpt>
      <trkpt lat="59.7627399" lon="17.8139726">
        <ele>25.1317</ele>
        <time>2013-05-30T18:46:33Z</time>
      </trkpt>
      <trkpt lat="59.7626502" lon="17.8139102">
        <ele>24.651</ele>
        <time>2013-05-30T18:46:34Z</time>
      </trkpt>
      <trkpt lat="59.7625633" lon="17.8138517">
        <ele>24.651</ele>
        <time>2013-05-30T18:46:35Z</time>
      </trkpt>
      <trkpt lat="59.7624784" lon="17.8137929">
        <ele>24.1703</ele>
        <time>2013-05-30T18:46:36Z</time>
      </trkpt>
      <trkpt lat="59.7623955" lon="17.8137359">
        <ele>24.1703</ele>
        <time>2013-05-30T18:46:37Z</time>
      </trkpt>
      <trkpt lat="59.7623136" lon="17.8136793">
        <ele>24.1703</ele>
        <time>2013-05-30T18:46:38Z</time>
      </trkpt>
      <trkpt lat="59.7622316" lon="17.8136214">
        <ele>24.1703</ele>
        <time>2013-05-30T18:46:39Z</time>
      </trkpt>
      <trkpt lat="59.7621477" lon="17.8135629">
        <ele>24.651</ele>
        <time>2013-05-30T18:46:40Z</time>
      </trkpt>
      <trkpt lat="59.7620634" lon="17.8135048">
        <ele>24.651</ele>
        <time>2013-05-30T18:46:41Z</time>
      </trkpt>
      <trkpt lat="59.7619789" lon="17.8134469">
        <ele>24.651</ele>
        <time>2013-05-30T18:46:42Z</time>
      </trkpt>
      <trkpt lat="59.7618935" lon="17.8133884">
        <ele>24.651</ele>
        <time>2013-05-30T18:46:43Z</time>
      </trkpt>
      <trkpt lat="59.7618094" lon="17.8133308">
        <ele>25.1317</ele>
        <time>2013-05-30T18:46:44Z</time>
      </trkpt>
      <trkpt lat="59.7617263" lon="17.8132727">
        <ele>25.1317</ele>
        <time>2013-05-30T18:46:45Z</time>
      </trkpt>
      <trkpt lat="59.7616448" lon="17.8132143">
        <ele>25.1317</ele>
        <time>2013-05-30T18:46:46Z</time>
      </trkpt>
      <trkpt lat="59.7615636" lon="17.8131567">
        <ele>25.1317</ele>
        <time>2013-05-30T18:46:47Z</time>
      </trkpt>
      <trkpt lat="59.7614801" lon="17.8130978">
        <ele>25.1317</ele>
        <time>2013-05-30T18:46:48Z</time>
      </trkpt>
      <trkpt lat="59.7613951" lon="17.8130396">
        <ele>25.1317</ele>
        <time>2013-05-30T18:46:49Z</time>
      </trkpt>
      <trkpt lat="59.7613097" lon="17.8129818">
        <ele>25.1317</ele>
        <time>2013-05-30T18:46:50Z</time>
      </trkpt>
      <trkpt lat="59.7612244" lon="17.8129245">
        <ele>25.6123</ele>
        <time>2013-05-30T18:46:51Z</time>
      </trkpt>
      <trkpt lat="59.7611399" lon="17.8128682">
        <ele>25.6123</ele>
        <time>2013-05-30T18:46:52Z</time>
      </trkpt>
      <trkpt lat="59.7610584" lon="17.8128138">
        <ele>25.6123</ele>
        <time>2013-05-30T18:46:53Z</time>
      </trkpt>
      <trkpt lat="59.7609782" lon="17.8127584">
        <ele>26.0929</ele>
        <time>2013-05-30T18:46:54Z</time>
      </trkpt>
      <trkpt lat="59.7609" lon="17.8127041">
        <ele>26.0929</ele>
        <time>2013-05-30T18:46:55Z</time>
      </trkpt>
      <trkpt lat="59.7608217" lon="17.8126504">
        <ele>26.5736</ele>
        <time>2013-05-30T18:46:56Z</time>
      </trkpt>
      <trkpt lat="59.760742" lon="17.8125947">
        <ele>26.0929</ele>
        <time>2013-05-30T18:46:57Z</time>
      </trkpt>
      <trkpt lat="59.7606632" lon="17.8125394">
        <ele>25.6123</ele>
        <time>2013-05-30T18:46:58Z</time>
      </trkpt>
      <trkpt lat="59.7605851" lon="17.8124884">
        <ele>25.6123</ele>
        <time>2013-05-30T18:46:59Z</time>
      </trkpt>
      <trkpt lat="59.7605114" lon="17.8124382">
        <ele>26.0929</ele>
        <time>2013-05-30T18:47:00Z</time>
      </trkpt>
      <trkpt lat="59.7604403" lon="17.8123868">
        <ele>26.5736</ele>
        <time>2013-05-30T18:47:01Z</time>
      </trkpt>
      <trkpt lat="59.760368" lon="17.8123352">
        <ele>27.5349</ele>
        <time>2013-05-30T18:47:02Z</time>
      </trkpt>
      <trkpt lat="59.7602942" lon="17.8122838">
        <ele>28.4962</ele>
        <time>2013-05-30T18:47:03Z</time>
      </trkpt>
      <trkpt lat="59.7602199" lon="17.8122326">
        <ele>28.9769</ele>
        <time>2013-05-30T18:47:04Z</time>
      </trkpt>
      <trkpt lat="59.7601461" lon="17.8121811">
        <ele>29.4575</ele>
        <time>2013-05-30T18:47:05Z</time>
      </trkpt>
      <trkpt lat="59.7600718" lon="17.8121285">
        <ele>29.9381</ele>
        <time>2013-05-30T18:47:06Z</time>
      </trkpt>
      <trkpt lat="59.7599981" lon="17.8120766">
        <ele>30.4188</ele>
        <time>2013-05-30T18:47:07Z</time>
      </trkpt>
      <trkpt lat="59.7599245" lon="17.8120252">
        <ele>31.3801</ele>
        <time>2013-05-30T18:47:08Z</time>
      </trkpt>
      <trkpt lat="59.7598498" lon="17.8119724">
        <ele>31.3801</ele>
        <time>2013-05-30T18:47:09Z</time>
      </trkpt>
      <trkpt lat="59.7597744" lon="17.8119199">
        <ele>31.3801</ele>
        <time>2013-05-30T18:47:10Z</time>
      </trkpt>
      <trkpt lat="59.7596988" lon="17.8118658">
        <ele>31.8607</ele>
        <time>2013-05-30T18:47:11Z</time>
      </trkpt>
      <trkpt lat="59.759624" lon="17.811812">
        <ele>32.3416</ele>
        <time>2013-05-30T18:47:12Z</time>
      </trkpt>
      <trkpt lat="59.7595494" lon="17.8117607">
        <ele>32.3416</ele>
        <time>2013-05-30T18:47:13Z</time>
      </trkpt>
      <trkpt lat="59.7594756" lon="17.8117114">
        <ele>32.8223</ele>
        <time>2013-05-30T18:47:14Z</time>
      </trkpt>
      <trkpt lat="59.759403" lon="17.8116607">
        <ele>33.3029</ele>
        <time>2013-05-30T18:47:15Z</time>
      </trkpt>
      <trkpt lat="59.7593324" lon="17.8116113">
        <ele>33.7834</ele>
        <time>2013-05-30T18:47:16Z</time>
      </trkpt>
      <trkpt lat="59.759264" lon="17.8115639">
        <ele>34.2642</ele>
        <time>2013-05-30T18:47:17Z</time>
      </trkpt>
      <trkpt lat="59.7591991" lon="17.8115156">
        <ele>35.2255</ele>
        <time>2013-05-30T18:47:18Z</time>
      </trkpt>
      <trkpt lat="59.7591292" lon="17.8114593">
        <ele>34.7449</ele>
        <time>2013-05-30T18:47:19Z</time>
      </trkpt>
      <trkpt lat="59.75906" lon="17.811401">
        <ele>34.2642</ele>
        <time>2013-05-30T18:47:20Z</time>
      </trkpt>
      <trkpt lat="59.7589894" lon="17.8113435">
        <ele>33.7834</ele>
        <time>2013-05-30T18:47:21Z</time>
      </trkpt>
      <trkpt lat="59.7589145" lon="17.8112821">
        <ele>32.8223</ele>
        <time>2013-05-30T18:47:22Z</time>
      </trkpt>
      <trkpt lat="59.7588388" lon="17.8112199">
        <ele>31.3801</ele>
        <time>2013-05-30T18:47:23Z</time>
      </trkpt>
      <trkpt lat="59.7587682" lon="17.8111619">
        <ele>30.8995</ele>
        <time>2013-05-30T18:47:24Z</time>
      </trkpt>
      <trkpt lat="59.7587027" lon="17.8111137">
        <ele>31.3801</ele>
        <time>2013-05-30T18:47:25Z</time>
      </trkpt>
      <trkpt lat="59.7586368" lon="17.8110661">
        <ele>31.3801</ele>
        <time>2013-05-30T18:47:26Z</time>
      </trkpt>
      <trkpt lat="59.7585746" lon="17.8110184">
        <ele>31.3801</ele>
        <time>2013-05-30T18:47:27Z</time>
      </trkpt>
      <trkpt lat="59.7585071" lon="17.8109702">
        <ele>30.8995</ele>
        <time>2013-05-30T18:47:28Z</time>
      </trkpt>
      <trkpt lat="59.7584349" lon="17.8109201">
        <ele>29.9381</ele>
        <time>2013-05-30T18:47:29Z</time>
      </trkpt>
      <trkpt lat="59.7583683" lon="17.8108716">
        <ele>29.9381</ele>
        <time>2013-05-30T18:47:30Z</time>
      </trkpt>
      <trkpt lat="59.7582953" lon="17.8108159">
        <ele>29.4575</ele>
        <time>2013-05-30T18:47:31Z</time>
      </trkpt>
      <trkpt lat="59.758225" lon="17.8107665">
        <ele>29.4575</ele>
        <time>2013-05-30T18:47:32Z</time>
      </trkpt>
      <trkpt lat="59.7581545" lon="17.8107133">
        <ele>29.9381</ele>
        <time>2013-05-30T18:47:33Z</time>
      </trkpt>
      <trkpt lat="59.7580815" lon="17.8106594">
        <ele>29.4575</ele>
        <time>2013-05-30T18:47:34Z</time>
      </trkpt>
      <trkpt lat="59.758013" lon="17.8106056">
        <ele>28.9769</ele>
        <time>2013-05-30T18:47:35Z</time>
      </trkpt>
      <trkpt lat="59.757954" lon="17.8105615">
        <ele>30.4188</ele>
        <time>2013-05-30T18:47:36Z</time>
      </trkpt>
      <trkpt lat="59.7578914" lon="17.8105132">
        <ele>30.8995</ele>
        <time>2013-05-30T18:47:37Z</time>
      </trkpt>
      <trkpt lat="59.757825" lon="17.8104686">
        <ele>30.8995</ele>
        <time>2013-05-30T18:47:38Z</time>
      </trkpt>
      <trkpt lat="59.7577588" lon="17.8104207">
        <ele>30.4188</ele>
        <time>2013-05-30T18:47:39Z</time>
      </trkpt>
      <trkpt lat="59.7576941" lon="17.8103718">
        <ele>29.9381</ele>
        <time>2013-05-30T18:47:40Z</time>
      </trkpt>
      <trkpt lat="59.7576302" lon="17.8103235">
        <ele>30.4188</ele>
        <time>2013-05-30T18:47:41Z</time>
      </trkpt>
      <trkpt lat="59.7575677" lon="17.8102774">
        <ele>30.8995</ele>
        <time>2013-05-30T18:47:42Z</time>
      </trkpt>
      <trkpt lat="59.7575097" lon="17.8102308">
        <ele>31.8607</ele>
        <time>2013-05-30T18:47:43Z</time>
      </trkpt>
      <trkpt lat="59.757453" lon="17.8101844">
        <ele>32.8223</ele>
        <time>2013-05-30T18:47:44Z</time>
      </trkpt>
      <trkpt lat="59.7573905" lon="17.8101409">
        <ele>32.8223</ele>
        <time>2013-05-30T18:47:45Z</time>
      </trkpt>
      <trkpt lat="59.7573271" lon="17.8100973">
        <ele>32.8223</ele>
        <time>2013-05-30T18:47:46Z</time>
      </trkpt>
      <trkpt lat="59.7572635" lon="17.8100513">
        <ele>32.8223</ele>
        <time>2013-05-30T18:47:47Z</time>
      </trkpt>
      <trkpt lat="59.7572036" lon="17.8100087">
        <ele>33.3029</ele>
        <time>2013-05-30T18:47:48Z</time>
      </trkpt>
      <trkpt lat="59.7571427" lon="17.8099644">
        <ele>33.3029</ele>
        <time>2013-05-30T18:47:49Z</time>
      </trkpt>
      <trkpt lat="59.7570779" lon="17.8099167">
        <ele>32.8223</ele>
        <time>2013-05-30T18:47:50Z</time>
      </trkpt>
      <trkpt lat="59.7570137" lon="17.8098726">
        <ele>32.8223</ele>
        <time>2013-05-30T18:47:51Z</time>
      </trkpt>
      <trkpt lat="59.7569515" lon="17.8098316">
        <ele>33.3029</ele>
        <time>2013-05-30T18:47:52Z</time>
      </trkpt>
      <trkpt lat="59.7568878" lon="17.8097879">
        <ele>33.3029</ele>
        <time>2013-05-30T18:47:53Z</time>
      </trkpt>
      <trkpt lat="59.7568206" lon="17.8097403">
        <ele>33.3029</ele>
        <time>2013-05-30T18:47:54Z</time>
      </trkpt>
      <trkpt lat="59.7567497" lon="17.8096892">
        <ele>32.8223</ele>
        <time>2013-05-30T18:47:55Z</time>
      </trkpt>
      <trkpt lat="59.7566714" lon="17.8096321">
        <ele>31.3801</ele>
        <time>2013-05-30T18:47:56Z</time>
      </trkpt>
      <trkpt lat="59.7565901" lon="17.8095695">
        <ele>29.9381</ele>
        <time>2013-05-30T18:47:57Z</time>
      </trkpt>
      <trkpt lat="59.7565186" lon="17.8095182">
        <ele>30.4188</ele>
        <time>2013-05-30T18:47:58Z</time>
      </trkpt>
      <trkpt lat="59.7564487" lon="17.8094688">
        <ele>30.8995</ele>
        <time>2013-05-30T18:47:59Z</time>
      </trkpt>
      <trkpt lat="59.7563757" lon="17.8094148">
        <ele>30.4188</ele>
        <time>2013-05-30T18:48:00Z</time>
      </trkpt>
      <trkpt lat="59.7563029" lon="17.8093597">
        <ele>30.8995</ele>
        <time>2013-05-30T18:48:01Z</time>
      </trkpt>
      <trkpt lat="59.7562306" lon="17.8093043">
        <ele>30.8995</ele>
        <time>2013-05-30T18:48:02Z</time>
      </trkpt>
      <trkpt lat="59.756159" lon="17.8092511">
        <ele>30.4188</ele>
        <time>2013-05-30T18:48:03Z</time>
      </trkpt>
      <trkpt lat="59.7560897" lon="17.8092016">
        <ele>30.8995</ele>
        <time>2013-05-30T18:48:04Z</time>
      </trkpt>
      <trkpt lat="59.7560217" lon="17.8091515">
        <ele>30.8995</ele>
        <time>2013-05-30T18:48:05Z</time>
      </trkpt>
      <trkpt lat="59.7559544" lon="17.809101">
        <ele>31.3801</ele>
        <time>2013-05-30T18:48:06Z</time>
      </trkpt>
      <trkpt lat="59.7558881" lon="17.8090488">
        <ele>31.3801</ele>
        <time>2013-05-30T18:48:07Z</time>
      </trkpt>
      <trkpt lat="59.7558183" lon="17.8089934">
        <ele>30.8995</ele>
        <time>2013-05-30T18:48:08Z</time>
      </trkpt>
      <trkpt lat="59.7557458" lon="17.8089382">
        <ele>30.8995</ele>
        <time>2013-05-30T18:48:09Z</time>
      </trkpt>
      <trkpt lat="59.7556707" lon="17.8088831">
        <ele>29.9381</ele>
        <time>2013-05-30T18:48:10Z</time>
      </trkpt>
      <trkpt lat="59.755598" lon="17.8088313">
        <ele>29.9381</ele>
        <time>2013-05-30T18:48:11Z</time>
      </trkpt>
      <trkpt lat="59.7555261" lon="17.8087745">
        <ele>30.4188</ele>
        <time>2013-05-30T18:48:12Z</time>
      </trkpt>
      <trkpt lat="59.7554522" lon="17.8087151">
        <ele>29.9381</ele>
        <time>2013-05-30T18:48:13Z</time>
      </trkpt>
      <trkpt lat="59.7553832" lon="17.8086577">
        <ele>29.4575</ele>
        <time>2013-05-30T18:48:14Z</time>
      </trkpt>
      <trkpt lat="59.7553172" lon="17.8086027">
        <ele>29.9381</ele>
        <time>2013-05-30T18:48:15Z</time>
      </trkpt>
      <trkpt lat="59.755251" lon="17.8085491">
        <ele>29.4575</ele>
        <time>2013-05-30T18:48:16Z</time>
      </trkpt>
      <trkpt lat="59.7551868" lon="17.8084958">
        <ele>29.9381</ele>
        <time>2013-05-30T18:48:17Z</time>
      </trkpt>
      <trkpt lat="59.7551212" lon="17.8084392">
        <ele>29.9381</ele>
        <time>2013-05-30T18:48:18Z</time>
      </trkpt>
      <trkpt lat="59.7550525" lon="17.8083812">
        <ele>29.4575</ele>
        <time>2013-05-30T18:48:19Z</time>
      </trkpt>
      <trkpt lat="59.7549857" lon="17.8083247">
        <ele>29.9381</ele>
        <time>2013-05-30T18:48:20Z</time>
      </trkpt>
      <trkpt lat="59.7549134" lon="17.8082636">
        <ele>30.4188</ele>
        <time>2013-05-30T18:48:21Z</time>
      </trkpt>
      <trkpt lat="59.754838" lon="17.8081883">
        <ele>29.9381</ele>
        <time>2013-05-30T18:48:22Z</time>
      </trkpt>
      <trkpt lat="59.7547615" lon="17.8081087">
        <ele>29.4575</ele>
        <time>2013-05-30T18:48:23Z</time>
      </trkpt>
      <trkpt lat="59.7546783" lon="17.8080262">
        <ele>27.0543</ele>
        <time>2013-05-30T18:48:24Z</time>
      </trkpt>
      <trkpt lat="59.7546005" lon="17.8079399">
        <ele>26.0929</ele>
        <time>2013-05-30T18:48:25Z</time>
      </trkpt>
      <trkpt lat="59.7545213" lon="17.80785">
        <ele>25.1317</ele>
        <time>2013-05-30T18:48:26Z</time>
      </trkpt>
      <trkpt lat="59.7544443" lon="17.8077637">
        <ele>25.1317</ele>
        <time>2013-05-30T18:48:27Z</time>
      </trkpt>
      <trkpt lat="59.7543669" lon="17.807684">
        <ele>25.6123</ele>
        <time>2013-05-30T18:48:28Z</time>
      </trkpt>
      <trkpt lat="59.7542886" lon="17.8075914">
        <ele>25.6123</ele>
        <time>2013-05-30T18:48:29Z</time>
      </trkpt>
      <trkpt lat="59.7542131" lon="17.807497">
        <ele>26.0929</ele>
        <time>2013-05-30T18:48:30Z</time>
      </trkpt>
      <trkpt lat="59.754133" lon="17.8074203">
        <ele>25.1317</ele>
        <time>2013-05-30T18:48:31Z</time>
      </trkpt>
      <trkpt lat="59.7540563" lon="17.8073624">
        <ele>25.1317</ele>
        <time>2013-05-30T18:48:32Z</time>
      </trkpt>
      <trkpt lat="59.7539897" lon="17.8073241">
        <ele>25.1317</ele>
        <time>2013-05-30T18:48:33Z</time>
      </trkpt>
      <trkpt lat="59.7538965" lon="17.8072945">
        <ele>25.6123</ele>
        <time>2013-05-30T18:48:34Z</time>
      </trkpt>
      <trkpt lat="59.7538027" lon="17.8071955">
        <ele>25.6123</ele>
        <time>2013-05-30T18:48:35Z</time>
      </trkpt>
      <trkpt lat="59.7537201" lon="17.8071213">
        <ele>25.6123</ele>
        <time>2013-05-30T18:48:36Z</time>
      </trkpt>
      <trkpt lat="59.7536397" lon="17.8070562">
        <ele>24.651</ele>
        <time>2013-05-30T18:48:37Z</time>
      </trkpt>
      <trkpt lat="59.7535624" lon="17.8070017">
        <ele>24.1703</ele>
        <time>2013-05-30T18:48:38Z</time>
      </trkpt>
      <trkpt lat="59.7534852" lon="17.8069598">
        <ele>24.651</ele>
        <time>2013-05-30T18:48:39Z</time>
      </trkpt>
      <trkpt lat="59.7534083" lon="17.8069329">
        <ele>24.651</ele>
        <time>2013-05-30T18:48:40Z</time>
      </trkpt>
      <trkpt lat="59.7533282" lon="17.8069152">
        <ele>25.1317</ele>
        <time>2013-05-30T18:48:41Z</time>
      </trkpt>
      <trkpt lat="59.7532543" lon="17.806898">
        <ele>25.6123</ele>
        <time>2013-05-30T18:48:42Z</time>
      </trkpt>
      <trkpt lat="59.753181" lon="17.8068856">
        <ele>26.5736</ele>
        <time>2013-05-30T18:48:43Z</time>
      </trkpt>
      <trkpt lat="59.7531094" lon="17.8068807">
        <ele>27.0543</ele>
        <time>2013-05-30T18:48:44Z</time>
      </trkpt>
      <trkpt lat="59.7530416" lon="17.8068846">
        <ele>28.4962</ele>
        <time>2013-05-30T18:48:45Z</time>
      </trkpt>
      <trkpt lat="59.7529711" lon="17.8068935">
        <ele>28.4962</ele>
        <time>2013-05-30T18:48:46Z</time>
      </trkpt>
      <trkpt lat="59.7528998" lon="17.8069053">
        <ele>28.4962</ele>
        <time>2013-05-30T18:48:47Z</time>
      </trkpt>
      <trkpt lat="59.7528292" lon="17.8069233">
        <ele>28.4962</ele>
        <time>2013-05-30T18:48:48Z</time>
      </trkpt>
      <trkpt lat="59.752759" lon="17.8069503">
        <ele>29.4575</ele>
        <time>2013-05-30T18:48:49Z</time>
      </trkpt>
      <trkpt lat="59.7526937" lon="17.8069801">
        <ele>30.4188</ele>
        <time>2013-05-30T18:48:50Z</time>
      </trkpt>
      <trkpt lat="59.7526299" lon="17.8070143">
        <ele>30.8995</ele>
        <time>2013-05-30T18:48:51Z</time>
      </trkpt>
      <trkpt lat="59.7525673" lon="17.8070655">
        <ele>32.3416</ele>
        <time>2013-05-30T18:48:52Z</time>
      </trkpt>
      <trkpt lat="59.752506" lon="17.8071205">
        <ele>33.7834</ele>
        <time>2013-05-30T18:48:53Z</time>
      </trkpt>
      <trkpt lat="59.7524572" lon="17.8071753">
        <ele>36.6675</ele>
        <time>2013-05-30T18:48:54Z</time>
      </trkpt>
      <trkpt lat="59.7523975" lon="17.8072235">
        <ele>38.1094</ele>
        <time>2013-05-30T18:48:55Z</time>
      </trkpt>
      <trkpt lat="59.7523317" lon="17.8072746">
        <ele>37.6287</ele>
        <time>2013-05-30T18:48:56Z</time>
      </trkpt>
      <trkpt lat="59.7522714" lon="17.8073396">
        <ele>38.1094</ele>
        <time>2013-05-30T18:48:57Z</time>
      </trkpt>
      <trkpt lat="59.7522128" lon="17.8074223">
        <ele>39.0707</ele>
        <time>2013-05-30T18:48:58Z</time>
      </trkpt>
      <trkpt lat="59.7521584" lon="17.8075047">
        <ele>39.5513</ele>
        <time>2013-05-30T18:48:59Z</time>
      </trkpt>
      <trkpt lat="59.7521104" lon="17.8075974">
        <ele>40.5128</ele>
        <time>2013-05-30T18:49:00Z</time>
      </trkpt>
      <trkpt lat="59.7520623" lon="17.8076854">
        <ele>41.474</ele>
        <time>2013-05-30T18:49:01Z</time>
      </trkpt>
      <trkpt lat="59.7520093" lon="17.8077705">
        <ele>41.9547</ele>
        <time>2013-05-30T18:49:02Z</time>
      </trkpt>
      <trkpt lat="59.7519496" lon="17.8078497">
        <ele>42.4354</ele>
        <time>2013-05-30T18:49:03Z</time>
      </trkpt>
      <trkpt lat="59.7518898" lon="17.8079289">
        <ele>41.9547</ele>
        <time>2013-05-30T18:49:04Z</time>
      </trkpt>
      <trkpt lat="59.7518266" lon="17.8079952">
        <ele>40.5128</ele>
        <time>2013-05-30T18:49:05Z</time>
      </trkpt>
      <trkpt lat="59.7517664" lon="17.8080739">
        <ele>40.0321</ele>
        <time>2013-05-30T18:49:06Z</time>
      </trkpt>
      <trkpt lat="59.7517089" lon="17.8081645">
        <ele>40.5128</ele>
        <time>2013-05-30T18:49:07Z</time>
      </trkpt>
      <trkpt lat="59.7516463" lon="17.8082318">
        <ele>39.0707</ele>
        <time>2013-05-30T18:49:08Z</time>
      </trkpt>
      <trkpt lat="59.7515867" lon="17.8083109">
        <ele>39.0707</ele>
        <time>2013-05-30T18:49:09Z</time>
      </trkpt>
      <trkpt lat="59.751527" lon="17.8083894">
        <ele>38.5901</ele>
        <time>2013-05-30T18:49:10Z</time>
      </trkpt>
      <trkpt lat="59.7514649" lon="17.8084631">
        <ele>38.5901</ele>
        <time>2013-05-30T18:49:11Z</time>
      </trkpt>
      <trkpt lat="59.7513975" lon="17.80853">
        <ele>38.1094</ele>
        <time>2013-05-30T18:49:12Z</time>
      </trkpt>
      <trkpt lat="59.7513266" lon="17.8085858">
        <ele>37.6287</ele>
        <time>2013-05-30T18:49:13Z</time>
      </trkpt>
      <trkpt lat="59.7512578" lon="17.8086382">
        <ele>37.6287</ele>
        <time>2013-05-30T18:49:14Z</time>
      </trkpt>
      <trkpt lat="59.751186" lon="17.8086875">
        <ele>37.1481</ele>
        <time>2013-05-30T18:49:15Z</time>
      </trkpt>
      <trkpt lat="59.7511153" lon="17.8087304">
        <ele>36.1868</ele>
        <time>2013-05-30T18:49:16Z</time>
      </trkpt>
      <trkpt lat="59.75105" lon="17.8087644">
        <ele>36.1868</ele>
        <time>2013-05-30T18:49:17Z</time>
      </trkpt>
      <trkpt lat="59.7509806" lon="17.8087933">
        <ele>35.2255</ele>
        <time>2013-05-30T18:49:18Z</time>
      </trkpt>
      <trkpt lat="59.7509077" lon="17.8088222">
        <ele>34.2642</ele>
        <time>2013-05-30T18:49:19Z</time>
      </trkpt>
      <trkpt lat="59.7508323" lon="17.8088467">
        <ele>32.8223</ele>
        <time>2013-05-30T18:49:20Z</time>
      </trkpt>
      <trkpt lat="59.7507554" lon="17.80887">
        <ele>31.8607</ele>
        <time>2013-05-30T18:49:21Z</time>
      </trkpt>
      <trkpt lat="59.7506781" lon="17.8088925">
        <ele>31.3801</ele>
        <time>2013-05-30T18:49:22Z</time>
      </trkpt>
      <trkpt lat="59.7506015" lon="17.8089168">
        <ele>31.3801</ele>
        <time>2013-05-30T18:49:23Z</time>
      </trkpt>
      <trkpt lat="59.7505228" lon="17.8089303">
        <ele>30.8995</ele>
        <time>2013-05-30T18:49:24Z</time>
      </trkpt>
      <trkpt lat="59.7504424" lon="17.8089351">
        <ele>30.4188</ele>
        <time>2013-05-30T18:49:25Z</time>
      </trkpt>
      <trkpt lat="59.7503612" lon="17.8089265">
        <ele>29.9381</ele>
        <time>2013-05-30T18:49:26Z</time>
      </trkpt>
      <trkpt lat="59.7502814" lon="17.8089194">
        <ele>29.4575</ele>
        <time>2013-05-30T18:49:27Z</time>
      </trkpt>
      <trkpt lat="59.7502023" lon="17.8089148">
        <ele>29.4575</ele>
        <time>2013-05-30T18:49:28Z</time>
      </trkpt>
      <trkpt lat="59.7501241" lon="17.8089132">
        <ele>29.4575</ele>
        <time>2013-05-30T18:49:29Z</time>
      </trkpt>
      <trkpt lat="59.7500404" lon="17.8089211">
        <ele>29.4575</ele>
        <time>2013-05-30T18:49:30Z</time>
      </trkpt>
      <trkpt lat="59.7499525" lon="17.8089474">
        <ele>29.4575</ele>
        <time>2013-05-30T18:49:31Z</time>
      </trkpt>
      <trkpt lat="59.7498649" lon="17.8089724">
        <ele>28.9769</ele>
        <time>2013-05-30T18:49:32Z</time>
      </trkpt>
      <trkpt lat="59.7497722" lon="17.8090171">
        <ele>28.9769</ele>
        <time>2013-05-30T18:49:33Z</time>
      </trkpt>
      <trkpt lat="59.7496838" lon="17.8090593">
        <ele>28.9769</ele>
        <time>2013-05-30T18:49:34Z</time>
      </trkpt>
      <trkpt lat="59.7495928" lon="17.8091024">
        <ele>28.9769</ele>
        <time>2013-05-30T18:49:35Z</time>
      </trkpt>
      <trkpt lat="59.7494963" lon="17.8091463">
        <ele>28.9769</ele>
        <time>2013-05-30T18:49:36Z</time>
      </trkpt>
      <trkpt lat="59.7494067" lon="17.8092006">
        <ele>28.9769</ele>
        <time>2013-05-30T18:49:37Z</time>
      </trkpt>
      <trkpt lat="59.7493191" lon="17.8092414">
        <ele>28.9769</ele>
        <time>2013-05-30T18:49:38Z</time>
      </trkpt>
      <trkpt lat="59.7492308" lon="17.809288">
        <ele>29.4575</ele>
        <time>2013-05-30T18:49:39Z</time>
      </trkpt>
      <trkpt lat="59.7491454" lon="17.8093411">
        <ele>29.9381</ele>
        <time>2013-05-30T18:49:40Z</time>
      </trkpt>
      <trkpt lat="59.7490628" lon="17.8093683">
        <ele>29.4575</ele>
        <time>2013-05-30T18:49:41Z</time>
      </trkpt>
      <trkpt lat="59.7489853" lon="17.8094069">
        <ele>29.9381</ele>
        <time>2013-05-30T18:49:42Z</time>
      </trkpt>
      <trkpt lat="59.7489104" lon="17.809424">
        <ele>29.4575</ele>
        <time>2013-05-30T18:49:43Z</time>
      </trkpt>
      <trkpt lat="59.7488344" lon="17.8094514">
        <ele>28.9769</ele>
        <time>2013-05-30T18:49:44Z</time>
      </trkpt>
      <trkpt lat="59.7487691" lon="17.809482">
        <ele>29.9381</ele>
        <time>2013-05-30T18:49:45Z</time>
      </trkpt>
      <trkpt lat="59.7487024" lon="17.8095084">
        <ele>30.4188</ele>
        <time>2013-05-30T18:49:46Z</time>
      </trkpt>
      <trkpt lat="59.748637" lon="17.8095466">
        <ele>31.3801</ele>
        <time>2013-05-30T18:49:47Z</time>
      </trkpt>
      <trkpt lat="59.7485675" lon="17.8095787">
        <ele>32.3416</ele>
        <time>2013-05-30T18:49:48Z</time>
      </trkpt>
      <trkpt lat="59.7484983" lon="17.8096042">
        <ele>33.3029</ele>
        <time>2013-05-30T18:49:49Z</time>
      </trkpt>
      <trkpt lat="59.7484323" lon="17.8096203">
        <ele>34.2642</ele>
        <time>2013-05-30T18:49:50Z</time>
      </trkpt>
      <trkpt lat="59.7483636" lon="17.8096435">
        <ele>35.2255</ele>
        <time>2013-05-30T18:49:51Z</time>
      </trkpt>
      <trkpt lat="59.7482978" lon="17.8096541">
        <ele>36.1868</ele>
        <time>2013-05-30T18:49:52Z</time>
      </trkpt>
      <trkpt lat="59.7482329" lon="17.8096563">
        <ele>36.6675</ele>
        <time>2013-05-30T18:49:53Z</time>
      </trkpt>
      <trkpt lat="59.7481617" lon="17.8096589">
        <ele>36.1868</ele>
        <time>2013-05-30T18:49:54Z</time>
      </trkpt>
      <trkpt lat="59.7480878" lon="17.8096906">
        <ele>36.1868</ele>
        <time>2013-05-30T18:49:55Z</time>
      </trkpt>
      <trkpt lat="59.7480021" lon="17.809723">
        <ele>34.7449</ele>
        <time>2013-05-30T18:49:56Z</time>
      </trkpt>
      <trkpt lat="59.7479293" lon="17.8097607">
        <ele>34.7449</ele>
        <time>2013-05-30T18:49:57Z</time>
      </trkpt>
      <trkpt lat="59.7478545" lon="17.8097773">
        <ele>33.3029</ele>
        <time>2013-05-30T18:49:58Z</time>
      </trkpt>
      <trkpt lat="59.7477807" lon="17.809813">
        <ele>32.3416</ele>
        <time>2013-05-30T18:49:59Z</time>
      </trkpt>
      <trkpt lat="59.7476989" lon="17.8098558">
        <ele>30.8995</ele>
        <time>2013-05-30T18:50:00Z</time>
      </trkpt>
      <trkpt lat="59.7476247" lon="17.809892">
        <ele>30.8995</ele>
        <time>2013-05-30T18:50:01Z</time>
      </trkpt>
      <trkpt lat="59.7475545" lon="17.8099305">
        <ele>31.8607</ele>
        <time>2013-05-30T18:50:02Z</time>
      </trkpt>
      <trkpt lat="59.7474813" lon="17.8099684">
        <ele>32.3416</ele>
        <time>2013-05-30T18:50:03Z</time>
      </trkpt>
      <trkpt lat="59.7474077" lon="17.8100008">
        <ele>32.8223</ele>
        <time>2013-05-30T18:50:04Z</time>
      </trkpt>
      <trkpt lat="59.7473353" lon="17.8100233">
        <ele>32.3416</ele>
        <time>2013-05-30T18:50:05Z</time>
      </trkpt>
      <trkpt lat="59.747266" lon="17.8100451">
        <ele>32.8223</ele>
        <time>2013-05-30T18:50:06Z</time>
      </trkpt>
      <trkpt lat="59.7471919" lon="17.8100641">
        <ele>32.8223</ele>
        <time>2013-05-30T18:50:07Z</time>
      </trkpt>
      <trkpt lat="59.7471169" lon="17.8100823">
        <ele>32.8223</ele>
        <time>2013-05-30T18:50:08Z</time>
      </trkpt>
      <trkpt lat="59.7470418" lon="17.8101077">
        <ele>34.2642</ele>
        <time>2013-05-30T18:50:09Z</time>
      </trkpt>
      <trkpt lat="59.7469708" lon="17.8101195">
        <ele>35.2255</ele>
        <time>2013-05-30T18:50:10Z</time>
      </trkpt>
      <trkpt lat="59.7468965" lon="17.8101254">
        <ele>35.2255</ele>
        <time>2013-05-30T18:50:11Z</time>
      </trkpt>
      <trkpt lat="59.7468209" lon="17.8101269">
        <ele>35.7061</ele>
        <time>2013-05-30T18:50:12Z</time>
      </trkpt>
      <trkpt lat="59.7467443" lon="17.8101236">
        <ele>35.7061</ele>
        <time>2013-05-30T18:50:13Z</time>
      </trkpt>
      <trkpt lat="59.746669" lon="17.8101171">
        <ele>35.7061</ele>
        <time>2013-05-30T18:50:14Z</time>
      </trkpt>
      <trkpt lat="59.7465929" lon="17.8101171">
        <ele>35.7061</ele>
        <time>2013-05-30T18:50:15Z</time>
      </trkpt>
      <trkpt lat="59.7465165" lon="17.8101109">
        <ele>35.7061</ele>
        <time>2013-05-30T18:50:16Z</time>
      </trkpt>
      <trkpt lat="59.7464402" lon="17.8101014">
        <ele>35.7061</ele>
        <time>2013-05-30T18:50:17Z</time>
      </trkpt>
      <trkpt lat="59.7463656" lon="17.8100912">
        <ele>35.7061</ele>
        <time>2013-05-30T18:50:18Z</time>
      </trkpt>
      <trkpt lat="59.7462919" lon="17.8100806">
        <ele>35.7061</ele>
        <time>2013-05-30T18:50:19Z</time>
      </trkpt>
      <trkpt lat="59.746218" lon="17.8100694">
        <ele>35.2255</ele>
        <time>2013-05-30T18:50:20Z</time>
      </trkpt>
      <trkpt lat="59.746144" lon="17.8100557">
        <ele>35.2255</ele>
        <time>2013-05-30T18:50:21Z</time>
      </trkpt>
      <trkpt lat="59.7460722" lon="17.8100409">
        <ele>35.7061</ele>
        <time>2013-05-30T18:50:22Z</time>
      </trkpt>
      <trkpt lat="59.7459987" lon="17.810028">
        <ele>35.7061</ele>
        <time>2013-05-30T18:50:23Z</time>
      </trkpt>
      <trkpt lat="59.7459212" lon="17.8100073">
        <ele>35.2255</ele>
        <time>2013-05-30T18:50:24Z</time>
      </trkpt>
      <trkpt lat="59.7458409" lon="17.8099793">
        <ele>33.7834</ele>
        <time>2013-05-30T18:50:25Z</time>
      </trkpt>
      <trkpt lat="59.7457662" lon="17.8099647">
        <ele>33.7834</ele>
        <time>2013-05-30T18:50:26Z</time>
      </trkpt>
      <trkpt lat="59.7456912" lon="17.8099487">
        <ele>33.7834</ele>
        <time>2013-05-30T18:50:27Z</time>
      </trkpt>
      <trkpt lat="59.7456079" lon="17.809917">
        <ele>31.8607</ele>
        <time>2013-05-30T18:50:28Z</time>
      </trkpt>
      <trkpt lat="59.7455318" lon="17.8098974">
        <ele>31.8607</ele>
        <time>2013-05-30T18:50:29Z</time>
      </trkpt>
      <trkpt lat="59.7454538" lon="17.809871">
        <ele>30.8995</ele>
        <time>2013-05-30T18:50:30Z</time>
      </trkpt>
      <trkpt lat="59.7453799" lon="17.809853">
        <ele>30.8995</ele>
        <time>2013-05-30T18:50:31Z</time>
      </trkpt>
      <trkpt lat="59.7453062" lon="17.8098354">
        <ele>30.4188</ele>
        <time>2013-05-30T18:50:32Z</time>
      </trkpt>
      <trkpt lat="59.7452316" lon="17.8098156">
        <ele>30.4188</ele>
        <time>2013-05-30T18:50:33Z</time>
      </trkpt>
      <trkpt lat="59.745157" lon="17.8097964">
        <ele>29.9381</ele>
        <time>2013-05-30T18:50:34Z</time>
      </trkpt>
      <trkpt lat="59.7450747" lon="17.8097664">
        <ele>28.4962</ele>
        <time>2013-05-30T18:50:35Z</time>
      </trkpt>
      <trkpt lat="59.7450006" lon="17.8097477">
        <ele>28.0155</ele>
        <time>2013-05-30T18:50:36Z</time>
      </trkpt>
      <trkpt lat="59.7449269" lon="17.8097278">
        <ele>28.0155</ele>
        <time>2013-05-30T18:50:37Z</time>
      </trkpt>
      <trkpt lat="59.7448516" lon="17.8097057">
        <ele>27.5349</ele>
        <time>2013-05-30T18:50:38Z</time>
      </trkpt>
      <trkpt lat="59.744776" lon="17.8096848">
        <ele>27.0543</ele>
        <time>2013-05-30T18:50:39Z</time>
      </trkpt>
      <trkpt lat="59.7447022" lon="17.8096663">
        <ele>26.5736</ele>
        <time>2013-05-30T18:50:40Z</time>
      </trkpt>
      <trkpt lat="59.7446277" lon="17.8096523">
        <ele>26.0929</ele>
        <time>2013-05-30T18:50:41Z</time>
      </trkpt>
      <trkpt lat="59.7445521" lon="17.8096442">
        <ele>26.0929</ele>
        <time>2013-05-30T18:50:42Z</time>
      </trkpt>
      <trkpt lat="59.7444769" lon="17.8096391">
        <ele>26.0929</ele>
        <time>2013-05-30T18:50:43Z</time>
      </trkpt>
      <trkpt lat="59.7444019" lon="17.8096367">
        <ele>25.6123</ele>
        <time>2013-05-30T18:50:44Z</time>
      </trkpt>
      <trkpt lat="59.7443262" lon="17.809641">
        <ele>25.6123</ele>
        <time>2013-05-30T18:50:45Z</time>
      </trkpt>
      <trkpt lat="59.7442536" lon="17.8096556">
        <ele>25.6123</ele>
        <time>2013-05-30T18:50:46Z</time>
      </trkpt>
      <trkpt lat="59.7441802" lon="17.8096729">
        <ele>26.0929</ele>
        <time>2013-05-30T18:50:47Z</time>
      </trkpt>
      <trkpt lat="59.7441039" lon="17.8096892">
        <ele>26.0929</ele>
        <time>2013-05-30T18:50:48Z</time>
      </trkpt>
      <trkpt lat="59.7440283" lon="17.8097089">
        <ele>26.0929</ele>
        <time>2013-05-30T18:50:49Z</time>
      </trkpt>
      <trkpt lat="59.743952" lon="17.8097327">
        <ele>26.0929</ele>
        <time>2013-05-30T18:50:50Z</time>
      </trkpt>
      <trkpt lat="59.743874" lon="17.8097591">
        <ele>25.6123</ele>
        <time>2013-05-30T18:50:51Z</time>
      </trkpt>
      <trkpt lat="59.7437963" lon="17.8097897">
        <ele>25.6123</ele>
        <time>2013-05-30T18:50:52Z</time>
      </trkpt>
      <trkpt lat="59.7437208" lon="17.8098266">
        <ele>25.1317</ele>
        <time>2013-05-30T18:50:53Z</time>
      </trkpt>
      <trkpt lat="59.7436466" lon="17.8098682">
        <ele>25.1317</ele>
        <time>2013-05-30T18:50:54Z</time>
      </trkpt>
      <trkpt lat="59.7435749" lon="17.809915">
        <ele>25.1317</ele>
        <time>2013-05-30T18:50:55Z</time>
      </trkpt>
      <trkpt lat="59.7435045" lon="17.8099673">
        <ele>25.1317</ele>
        <time>2013-05-30T18:50:56Z</time>
      </trkpt>
      <trkpt lat="59.7434354" lon="17.8100186">
        <ele>25.1317</ele>
        <time>2013-05-30T18:50:57Z</time>
      </trkpt>
      <trkpt lat="59.7433685" lon="17.8100689">
        <ele>25.1317</ele>
        <time>2013-05-30T18:50:58Z</time>
      </trkpt>
      <trkpt lat="59.7433035" lon="17.8101222">
        <ele>25.1317</ele>
        <time>2013-05-30T18:50:59Z</time>
      </trkpt>
      <trkpt lat="59.7432385" lon="17.8101813">
        <ele>25.6123</ele>
        <time>2013-05-30T18:51:00Z</time>
      </trkpt>
      <trkpt lat="59.7431712" lon="17.810244">
        <ele>25.6123</ele>
        <time>2013-05-30T18:51:01Z</time>
      </trkpt>
      <trkpt lat="59.7431042" lon="17.810309">
        <ele>25.1317</ele>
        <time>2013-05-30T18:51:02Z</time>
      </trkpt>
      <trkpt lat="59.7430396" lon="17.8103735">
        <ele>25.1317</ele>
        <time>2013-05-30T18:51:03Z</time>
      </trkpt>
      <trkpt lat="59.742973" lon="17.8104357">
        <ele>25.1317</ele>
        <time>2013-05-30T18:51:04Z</time>
      </trkpt>
      <trkpt lat="59.7429073" lon="17.8104978">
        <ele>24.651</ele>
        <time>2013-05-30T18:51:05Z</time>
      </trkpt>
      <trkpt lat="59.7428354" lon="17.8105791">
        <ele>24.651</ele>
        <time>2013-05-30T18:51:06Z</time>
      </trkpt>
      <trkpt lat="59.7427608" lon="17.8106468">
        <ele>24.651</ele>
        <time>2013-05-30T18:51:07Z</time>
      </trkpt>
      <trkpt lat="59.7426965" lon="17.8107076">
        <ele>25.1317</ele>
        <time>2013-05-30T18:51:08Z</time>
      </trkpt>
      <trkpt lat="59.7426311" lon="17.8107716">
        <ele>25.6123</ele>
        <time>2013-05-30T18:51:09Z</time>
      </trkpt>
      <trkpt lat="59.7425671" lon="17.8108371">
        <ele>26.0929</ele>
        <time>2013-05-30T18:51:10Z</time>
      </trkpt>
      <trkpt lat="59.7425049" lon="17.8109024">
        <ele>26.5736</ele>
        <time>2013-05-30T18:51:11Z</time>
      </trkpt>
      <trkpt lat="59.7424428" lon="17.8109685">
        <ele>27.0543</ele>
        <time>2013-05-30T18:51:12Z</time>
      </trkpt>
      <trkpt lat="59.7423754" lon="17.8110396">
        <ele>27.0543</ele>
        <time>2013-05-30T18:51:13Z</time>
      </trkpt>
      <trkpt lat="59.7423095" lon="17.8111049">
        <ele>27.0543</ele>
        <time>2013-05-30T18:51:14Z</time>
      </trkpt>
      <trkpt lat="59.7422444" lon="17.8111682">
        <ele>27.0543</ele>
        <time>2013-05-30T18:51:15Z</time>
      </trkpt>
      <trkpt lat="59.7421807" lon="17.8112344">
        <ele>27.5349</ele>
        <time>2013-05-30T18:51:16Z</time>
      </trkpt>
      <trkpt lat="59.7421162" lon="17.8113011">
        <ele>27.5349</ele>
        <time>2013-05-30T18:51:17Z</time>
      </trkpt>
      <trkpt lat="59.7420506" lon="17.8113676">
        <ele>28.0155</ele>
        <time>2013-05-30T18:51:18Z</time>
      </trkpt>
      <trkpt lat="59.7419859" lon="17.811436">
        <ele>28.0155</ele>
        <time>2013-05-30T18:51:19Z</time>
      </trkpt>
      <trkpt lat="59.7419209" lon="17.8115046">
        <ele>28.0155</ele>
        <time>2013-05-30T18:51:20Z</time>
      </trkpt>
      <trkpt lat="59.7418553" lon="17.8115711">
        <ele>28.0155</ele>
        <time>2013-05-30T18:51:21Z</time>
      </trkpt>
      <trkpt lat="59.7417893" lon="17.8116343">
        <ele>28.0155</ele>
        <time>2013-05-30T18:51:22Z</time>
      </trkpt>
      <trkpt lat="59.7417223" lon="17.8116948">
        <ele>28.0155</ele>
        <time>2013-05-30T18:51:23Z</time>
      </trkpt>
      <trkpt lat="59.7416554" lon="17.8117527">
        <ele>28.0155</ele>
        <time>2013-05-30T18:51:24Z</time>
      </trkpt>
      <trkpt lat="59.7415852" lon="17.8118041">
        <ele>27.0543</ele>
        <time>2013-05-30T18:51:25Z</time>
      </trkpt>
      <trkpt lat="59.74152" lon="17.811855">
        <ele>27.5349</ele>
        <time>2013-05-30T18:51:26Z</time>
      </trkpt>
      <trkpt lat="59.7414539" lon="17.811899">
        <ele>27.5349</ele>
        <time>2013-05-30T18:51:27Z</time>
      </trkpt>
      <trkpt lat="59.741388" lon="17.8119356">
        <ele>27.0543</ele>
        <time>2013-05-30T18:51:28Z</time>
      </trkpt>
      <trkpt lat="59.7413276" lon="17.8119592">
        <ele>28.0155</ele>
        <time>2013-05-30T18:51:29Z</time>
      </trkpt>
      <trkpt lat="59.7412608" lon="17.8119734">
        <ele>27.5349</ele>
        <time>2013-05-30T18:51:30Z</time>
      </trkpt>
      <trkpt lat="59.7411917" lon="17.8119739">
        <ele>26.5736</ele>
        <time>2013-05-30T18:51:31Z</time>
      </trkpt>
      <trkpt lat="59.7411238" lon="17.8119848">
        <ele>26.5736</ele>
        <time>2013-05-30T18:51:32Z</time>
      </trkpt>
      <trkpt lat="59.7410596" lon="17.8119969">
        <ele>27.0543</ele>
        <time>2013-05-30T18:51:33Z</time>
      </trkpt>
      <trkpt lat="59.7409966" lon="17.8120063">
        <ele>27.0543</ele>
        <time>2013-05-30T18:51:34Z</time>
      </trkpt>
      <trkpt lat="59.7409386" lon="17.8120128">
        <ele>27.5349</ele>
        <time>2013-05-30T18:51:35Z</time>
      </trkpt>
      <trkpt lat="59.7408864" lon="17.8120191">
        <ele>27.5349</ele>
        <time>2013-05-30T18:51:36Z</time>
      </trkpt>
      <trkpt lat="59.74084" lon="17.8120213">
        <ele>27.5349</ele>
        <time>2013-05-30T18:51:37Z</time>
      </trkpt>
      <trkpt lat="59.7408028" lon="17.8120238">
        <ele>27.5349</ele>
        <time>2013-05-30T18:51:38Z</time>
      </trkpt>
      <trkpt lat="59.7407701" lon="17.8120213">
        <ele>28.0155</ele>
        <time>2013-05-30T18:51:39Z</time>
      </trkpt>
      <trkpt lat="59.7407471" lon="17.8120124">
        <ele>28.9769</ele>
        <time>2013-05-30T18:51:40Z</time>
      </trkpt>
      <trkpt lat="59.7407349" lon="17.8119994">
        <ele>29.4575</ele>
        <time>2013-05-30T18:51:41Z</time>
      </trkpt>
      <trkpt lat="59.7407283" lon="17.8119903">
        <ele>29.9381</ele>
        <time>2013-05-30T18:51:42Z</time>
      </trkpt>
      <trkpt lat="59.740728" lon="17.8119929">
        <ele>31.3801</ele>
        <time>2013-05-30T18:51:43Z</time>
      </trkpt>
      <trkpt lat="59.7407177" lon="17.8119789">
        <ele>29.9381</ele>
        <time>2013-05-30T18:51:44Z</time>
      </trkpt>
      <trkpt lat="59.7407174" lon="17.8119751">
        <ele>29.4575</ele>
        <time>2013-05-30T18:51:45Z</time>
      </trkpt>
      <trkpt lat="59.7407231" lon="17.8119694">
        <ele>29.4575</ele>
        <time>2013-05-30T18:51:46Z</time>
      </trkpt>
      <trkpt lat="59.7407239" lon="17.811961">
        <ele>29.9381</ele>
        <time>2013-05-30T18:51:47Z</time>
      </trkpt>
      <trkpt lat="59.7407244" lon="17.8119461">
        <ele>30.4188</ele>
        <time>2013-05-30T18:51:48Z</time>
      </trkpt>
      <trkpt lat="59.7407198" lon="17.811926">
        <ele>29.9381</ele>
        <time>2013-05-30T18:51:49Z</time>
      </trkpt>
      <trkpt lat="59.7407143" lon="17.8119011">
        <ele>29.9381</ele>
        <time>2013-05-30T18:51:50Z</time>
      </trkpt>
      <trkpt lat="59.7407075" lon="17.8118525">
        <ele>29.9381</ele>
        <time>2013-05-30T18:51:51Z</time>
      </trkpt>
      <trkpt lat="59.7407005" lon="17.8117888">
        <ele>29.4575</ele>
        <time>2013-05-30T18:51:52Z</time>
      </trkpt>
      <trkpt lat="59.7406955" lon="17.8117203">
        <ele>28.9769</ele>
        <time>2013-05-30T18:51:53Z</time>
      </trkpt>
      <trkpt lat="59.7406991" lon="17.8116607">
        <ele>28.4962</ele>
        <time>2013-05-30T18:51:54Z</time>
      </trkpt>
      <trkpt lat="59.7407051" lon="17.8116072">
        <ele>28.4962</ele>
        <time>2013-05-30T18:51:55Z</time>
      </trkpt>
      <trkpt lat="59.7407022" lon="17.8115419">
        <ele>28.0155</ele>
        <time>2013-05-30T18:51:56Z</time>
      </trkpt>
      <trkpt lat="59.7406986" lon="17.8114742">
        <ele>27.5349</ele>
        <time>2013-05-30T18:51:57Z</time>
      </trkpt>
      <trkpt lat="59.7407017" lon="17.8114074">
        <ele>27.5349</ele>
        <time>2013-05-30T18:51:58Z</time>
      </trkpt>
      <trkpt lat="59.7407026" lon="17.8113306">
        <ele>26.5736</ele>
        <time>2013-05-30T18:51:59Z</time>
      </trkpt>
      <trkpt lat="59.7407099" lon="17.8112529">
        <ele>26.5736</ele>
        <time>2013-05-30T18:52:00Z</time>
      </trkpt>
      <trkpt lat="59.7407183" lon="17.8111676">
        <ele>26.5736</ele>
        <time>2013-05-30T18:52:01Z</time>
      </trkpt>
      <trkpt lat="59.7407292" lon="17.81108">
        <ele>26.5736</ele>
        <time>2013-05-30T18:52:02Z</time>
      </trkpt>
      <trkpt lat="59.7407437" lon="17.8109926">
        <ele>27.0543</ele>
        <time>2013-05-30T18:52:03Z</time>
      </trkpt>
      <trkpt lat="59.7407514" lon="17.8109003">
        <ele>27.5349</ele>
        <time>2013-05-30T18:52:04Z</time>
      </trkpt>
      <trkpt lat="59.7407518" lon="17.8107975">
        <ele>27.0543</ele>
        <time>2013-05-30T18:52:05Z</time>
      </trkpt>
      <trkpt lat="59.7407611" lon="17.8107025">
        <ele>27.5349</ele>
        <time>2013-05-30T18:52:06Z</time>
      </trkpt>
      <trkpt lat="59.7407712" lon="17.8106048">
        <ele>27.5349</ele>
        <time>2013-05-30T18:52:07Z</time>
      </trkpt>
      <trkpt lat="59.7407803" lon="17.8105023">
        <ele>27.5349</ele>
        <time>2013-05-30T18:52:08Z</time>
      </trkpt>
      <trkpt lat="59.7407899" lon="17.8103994">
        <ele>28.0155</ele>
        <time>2013-05-30T18:52:09Z</time>
      </trkpt>
      <trkpt lat="59.7407858" lon="17.8102826">
        <ele>27.0543</ele>
        <time>2013-05-30T18:52:10Z</time>
      </trkpt>
      <trkpt lat="59.7407761" lon="17.8101607">
        <ele>25.6123</ele>
        <time>2013-05-30T18:52:11Z</time>
      </trkpt>
      <trkpt lat="59.7407747" lon="17.8100511">
        <ele>25.1317</ele>
        <time>2013-05-30T18:52:12Z</time>
      </trkpt>
      <trkpt lat="59.7407722" lon="17.8099447">
        <ele>25.1317</ele>
        <time>2013-05-30T18:52:13Z</time>
      </trkpt>
      <trkpt lat="59.7407753" lon="17.8098426">
        <ele>24.651</ele>
        <time>2013-05-30T18:52:14Z</time>
      </trkpt>
      <trkpt lat="59.7407761" lon="17.8097465">
        <ele>25.6123</ele>
        <time>2013-05-30T18:52:15Z</time>
      </trkpt>
      <trkpt lat="59.7407766" lon="17.8096448">
        <ele>25.6123</ele>
        <time>2013-05-30T18:52:16Z</time>
      </trkpt>
      <trkpt lat="59.7407794" lon="17.8095457">
        <ele>26.0929</ele>
        <time>2013-05-30T18:52:17Z</time>
      </trkpt>
      <trkpt lat="59.7407696" lon="17.8094292">
        <ele>25.1317</ele>
        <time>2013-05-30T18:52:18Z</time>
      </trkpt>
      <trkpt lat="59.7407551" lon="17.8093083">
        <ele>23.209</ele>
        <time>2013-05-30T18:52:19Z</time>
      </trkpt>
      <trkpt lat="59.7407473" lon="17.8092042">
        <ele>24.1703</ele>
        <time>2013-05-30T18:52:20Z</time>
      </trkpt>
      <trkpt lat="59.7407406" lon="17.8090993">
        <ele>24.1703</ele>
        <time>2013-05-30T18:52:21Z</time>
      </trkpt>
      <trkpt lat="59.7407235" lon="17.8089816">
        <ele>23.6896</ele>
        <time>2013-05-30T18:52:22Z</time>
      </trkpt>
      <trkpt lat="59.7407192" lon="17.8088779">
        <ele>23.6896</ele>
        <time>2013-05-30T18:52:23Z</time>
      </trkpt>
      <trkpt lat="59.7407204" lon="17.8087779">
        <ele>24.1703</ele>
        <time>2013-05-30T18:52:24Z</time>
      </trkpt>
      <trkpt lat="59.7407199" lon="17.8086744">
        <ele>24.651</ele>
        <time>2013-05-30T18:52:25Z</time>
      </trkpt>
      <trkpt lat="59.7407043" lon="17.8085552">
        <ele>23.6896</ele>
        <time>2013-05-30T18:52:26Z</time>
      </trkpt>
      <trkpt lat="59.7406941" lon="17.8084452">
        <ele>24.1703</ele>
        <time>2013-05-30T18:52:27Z</time>
      </trkpt>
      <trkpt lat="59.7406826" lon="17.8083363">
        <ele>25.1317</ele>
        <time>2013-05-30T18:52:28Z</time>
      </trkpt>
      <trkpt lat="59.7406686" lon="17.8082274">
        <ele>25.1317</ele>
        <time>2013-05-30T18:52:29Z</time>
      </trkpt>
      <trkpt lat="59.7406508" lon="17.808116">
        <ele>25.1317</ele>
        <time>2013-05-30T18:52:30Z</time>
      </trkpt>
      <trkpt lat="59.7406368" lon="17.8080117">
        <ele>25.6123</ele>
        <time>2013-05-30T18:52:31Z</time>
      </trkpt>
      <trkpt lat="59.7406209" lon="17.8079065">
        <ele>26.0929</ele>
        <time>2013-05-30T18:52:32Z</time>
      </trkpt>
      <trkpt lat="59.7406049" lon="17.8078005">
        <ele>27.0543</ele>
        <time>2013-05-30T18:52:33Z</time>
      </trkpt>
      <trkpt lat="59.7405872" lon="17.8076959">
        <ele>27.5349</ele>
        <time>2013-05-30T18:52:34Z</time>
      </trkpt>
      <trkpt lat="59.7405687" lon="17.807591">
        <ele>28.4962</ele>
        <time>2013-05-30T18:52:35Z</time>
      </trkpt>
      <trkpt lat="59.7405477" lon="17.8074875">
        <ele>29.4575</ele>
        <time>2013-05-30T18:52:36Z</time>
      </trkpt>
      <trkpt lat="59.7405301" lon="17.8073819">
        <ele>29.9381</ele>
        <time>2013-05-30T18:52:37Z</time>
      </trkpt>
      <trkpt lat="59.7405116" lon="17.8072761">
        <ele>30.8995</ele>
        <time>2013-05-30T18:52:38Z</time>
      </trkpt>
      <trkpt lat="59.7404914" lon="17.807168">
        <ele>32.3416</ele>
        <time>2013-05-30T18:52:39Z</time>
      </trkpt>
      <trkpt lat="59.740465" lon="17.8070585">
        <ele>32.8223</ele>
        <time>2013-05-30T18:52:40Z</time>
      </trkpt>
      <trkpt lat="59.7404399" lon="17.8069503">
        <ele>34.2642</ele>
        <time>2013-05-30T18:52:41Z</time>
      </trkpt>
      <trkpt lat="59.7404147" lon="17.8068433">
        <ele>35.2255</ele>
        <time>2013-05-30T18:52:42Z</time>
      </trkpt>
      <trkpt lat="59.7403873" lon="17.8067355">
        <ele>36.1868</ele>
        <time>2013-05-30T18:52:43Z</time>
      </trkpt>
      <trkpt lat="59.7403501" lon="17.8066132">
        <ele>35.2255</ele>
        <time>2013-05-30T18:52:44Z</time>
      </trkpt>
      <trkpt lat="59.7403199" lon="17.8065043">
        <ele>36.1868</ele>
        <time>2013-05-30T18:52:45Z</time>
      </trkpt>
      <trkpt lat="59.7402904" lon="17.8064022">
        <ele>37.6287</ele>
        <time>2013-05-30T18:52:46Z</time>
      </trkpt>
      <trkpt lat="59.740246" lon="17.8062833">
        <ele>36.6675</ele>
        <time>2013-05-30T18:52:47Z</time>
      </trkpt>
      <trkpt lat="59.7402079" lon="17.8061776">
        <ele>36.1868</ele>
        <time>2013-05-30T18:52:48Z</time>
      </trkpt>
      <trkpt lat="59.7401749" lon="17.806077">
        <ele>37.1481</ele>
        <time>2013-05-30T18:52:49Z</time>
      </trkpt>
      <trkpt lat="59.7401344" lon="17.8059663">
        <ele>37.1481</ele>
        <time>2013-05-30T18:52:50Z</time>
      </trkpt>
      <trkpt lat="59.7401009" lon="17.805864">
        <ele>38.1094</ele>
        <time>2013-05-30T18:52:51Z</time>
      </trkpt>
      <trkpt lat="59.7400703" lon="17.8057637">
        <ele>39.0707</ele>
        <time>2013-05-30T18:52:52Z</time>
      </trkpt>
      <trkpt lat="59.7400344" lon="17.8056542">
        <ele>39.5513</ele>
        <time>2013-05-30T18:52:53Z</time>
      </trkpt>
      <trkpt lat="59.739994" lon="17.8055394">
        <ele>39.0707</ele>
        <time>2013-05-30T18:52:54Z</time>
      </trkpt>
      <trkpt lat="59.7399639" lon="17.8054326">
        <ele>39.0707</ele>
        <time>2013-05-30T18:52:55Z</time>
      </trkpt>
      <trkpt lat="59.7399351" lon="17.805316">
        <ele>38.5901</ele>
        <time>2013-05-30T18:52:56Z</time>
      </trkpt>
      <trkpt lat="59.7399153" lon="17.805197">
        <ele>38.1094</ele>
        <time>2013-05-30T18:52:57Z</time>
      </trkpt>
      <trkpt lat="59.7398883" lon="17.8050824">
        <ele>38.1094</ele>
        <time>2013-05-30T18:52:58Z</time>
      </trkpt>
      <trkpt lat="59.7398537" lon="17.8049844">
        <ele>37.6287</ele>
        <time>2013-05-30T18:52:59Z</time>
      </trkpt>
      <trkpt lat="59.7398029" lon="17.8048996">
        <ele>37.1481</ele>
        <time>2013-05-30T18:53:00Z</time>
      </trkpt>
      <trkpt lat="59.739746" lon="17.8048313">
        <ele>37.1481</ele>
        <time>2013-05-30T18:53:01Z</time>
      </trkpt>
      <trkpt lat="59.7396869" lon="17.8047682">
        <ele>36.6675</ele>
        <time>2013-05-30T18:53:02Z</time>
      </trkpt>
      <trkpt lat="59.7396294" lon="17.8047042">
        <ele>36.6675</ele>
        <time>2013-05-30T18:53:03Z</time>
      </trkpt>
      <trkpt lat="59.7395728" lon="17.8046365">
        <ele>36.1868</ele>
        <time>2013-05-30T18:53:04Z</time>
      </trkpt>
      <trkpt lat="59.7395171" lon="17.8045669">
        <ele>35.7061</ele>
        <time>2013-05-30T18:53:05Z</time>
      </trkpt>
      <trkpt lat="59.7394633" lon="17.8044936">
        <ele>35.7061</ele>
        <time>2013-05-30T18:53:06Z</time>
      </trkpt>
      <trkpt lat="59.7394134" lon="17.8044143">
        <ele>36.1868</ele>
        <time>2013-05-30T18:53:07Z</time>
      </trkpt>
      <trkpt lat="59.7393631" lon="17.8043299">
        <ele>36.1868</ele>
        <time>2013-05-30T18:53:08Z</time>
      </trkpt>
      <trkpt lat="59.7393165" lon="17.8042452">
        <ele>37.1481</ele>
        <time>2013-05-30T18:53:09Z</time>
      </trkpt>
      <trkpt lat="59.7392762" lon="17.8041615">
        <ele>39.0707</ele>
        <time>2013-05-30T18:53:10Z</time>
      </trkpt>
      <trkpt lat="59.7392345" lon="17.8040746">
        <ele>40.5128</ele>
        <time>2013-05-30T18:53:11Z</time>
      </trkpt>
      <trkpt lat="59.7391913" lon="17.8039859">
        <ele>41.9547</ele>
        <time>2013-05-30T18:53:12Z</time>
      </trkpt>
      <trkpt lat="59.739146" lon="17.8038945">
        <ele>42.916</ele>
        <time>2013-05-30T18:53:13Z</time>
      </trkpt>
      <trkpt lat="59.7390948" lon="17.8038013">
        <ele>43.3966</ele>
        <time>2013-05-30T18:53:14Z</time>
      </trkpt>
      <trkpt lat="59.739042" lon="17.803708">
        <ele>43.3966</ele>
        <time>2013-05-30T18:53:15Z</time>
      </trkpt>
      <trkpt lat="59.7389897" lon="17.8036135">
        <ele>43.3966</ele>
        <time>2013-05-30T18:53:16Z</time>
      </trkpt>
      <trkpt lat="59.7389333" lon="17.8035171">
        <ele>43.3966</ele>
        <time>2013-05-30T18:53:17Z</time>
      </trkpt>
      <trkpt lat="59.7388788" lon="17.803424">
        <ele>42.916</ele>
        <time>2013-05-30T18:53:18Z</time>
      </trkpt>
      <trkpt lat="59.7388323" lon="17.8033357">
        <ele>43.8773</ele>
        <time>2013-05-30T18:53:19Z</time>
      </trkpt>
      <trkpt lat="59.7387834" lon="17.8032472">
        <ele>43.8773</ele>
        <time>2013-05-30T18:53:20Z</time>
      </trkpt>
      <trkpt lat="59.7387326" lon="17.8031582">
        <ele>43.8773</ele>
        <time>2013-05-30T18:53:21Z</time>
      </trkpt>
      <trkpt lat="59.7386828" lon="17.8030686">
        <ele>43.8773</ele>
        <time>2013-05-30T18:53:22Z</time>
      </trkpt>
      <trkpt lat="59.7386317" lon="17.8029788">
        <ele>43.8773</ele>
        <time>2013-05-30T18:53:23Z</time>
      </trkpt>
      <trkpt lat="59.7385746" lon="17.802887">
        <ele>42.916</ele>
        <time>2013-05-30T18:53:24Z</time>
      </trkpt>
      <trkpt lat="59.7385219" lon="17.802794">
        <ele>42.4354</ele>
        <time>2013-05-30T18:53:25Z</time>
      </trkpt>
      <trkpt lat="59.7384701" lon="17.8026991">
        <ele>42.4354</ele>
        <time>2013-05-30T18:53:26Z</time>
      </trkpt>
      <trkpt lat="59.738415" lon="17.8026024">
        <ele>41.474</ele>
        <time>2013-05-30T18:53:27Z</time>
      </trkpt>
      <trkpt lat="59.7383578" lon="17.8025058">
        <ele>40.5128</ele>
        <time>2013-05-30T18:53:28Z</time>
      </trkpt>
      <trkpt lat="59.7383053" lon="17.80241">
        <ele>40.5128</ele>
        <time>2013-05-30T18:53:29Z</time>
      </trkpt>
      <trkpt lat="59.7382485" lon="17.8023125">
        <ele>40.0321</ele>
        <time>2013-05-30T18:53:30Z</time>
      </trkpt>
      <trkpt lat="59.7381928" lon="17.8022148">
        <ele>39.5513</ele>
        <time>2013-05-30T18:53:31Z</time>
      </trkpt>
      <trkpt lat="59.7381361" lon="17.802118">
        <ele>39.0707</ele>
        <time>2013-05-30T18:53:32Z</time>
      </trkpt>
      <trkpt lat="59.7380843" lon="17.8020216">
        <ele>39.0707</ele>
        <time>2013-05-30T18:53:33Z</time>
      </trkpt>
      <trkpt lat="59.7380304" lon="17.801925">
        <ele>39.0707</ele>
        <time>2013-05-30T18:53:34Z</time>
      </trkpt>
      <trkpt lat="59.7379759" lon="17.8018279">
        <ele>39.0707</ele>
        <time>2013-05-30T18:53:35Z</time>
      </trkpt>
      <trkpt lat="59.7379204" lon="17.8017325">
        <ele>39.0707</ele>
        <time>2013-05-30T18:53:36Z</time>
      </trkpt>
      <trkpt lat="59.7378661" lon="17.8016366">
        <ele>38.5901</ele>
        <time>2013-05-30T18:53:37Z</time>
      </trkpt>
      <trkpt lat="59.7378149" lon="17.8015402">
        <ele>39.0707</ele>
        <time>2013-05-30T18:53:38Z</time>
      </trkpt>
      <trkpt lat="59.7377584" lon="17.8014495">
        <ele>39.5513</ele>
        <time>2013-05-30T18:53:39Z</time>
      </trkpt>
      <trkpt lat="59.7377045" lon="17.8013561">
        <ele>39.5513</ele>
        <time>2013-05-30T18:53:40Z</time>
      </trkpt>
      <trkpt lat="59.737657" lon="17.8012623">
        <ele>40.5128</ele>
        <time>2013-05-30T18:53:41Z</time>
      </trkpt>
      <trkpt lat="59.7376047" lon="17.8011674">
        <ele>40.5128</ele>
        <time>2013-05-30T18:53:42Z</time>
      </trkpt>
      <trkpt lat="59.7375522" lon="17.8010712">
        <ele>40.0321</ele>
        <time>2013-05-30T18:53:43Z</time>
      </trkpt>
      <trkpt lat="59.7374948" lon="17.8009729">
        <ele>39.0707</ele>
        <time>2013-05-30T18:53:44Z</time>
      </trkpt>
      <trkpt lat="59.737434" lon="17.8008727">
        <ele>38.1094</ele>
        <time>2013-05-30T18:53:45Z</time>
      </trkpt>
      <trkpt lat="59.7373778" lon="17.8007702">
        <ele>37.6287</ele>
        <time>2013-05-30T18:53:46Z</time>
      </trkpt>
      <trkpt lat="59.7373244" lon="17.8006669">
        <ele>38.1094</ele>
        <time>2013-05-30T18:53:47Z</time>
      </trkpt>
      <trkpt lat="59.73727" lon="17.8005633">
        <ele>38.1094</ele>
        <time>2013-05-30T18:53:48Z</time>
      </trkpt>
      <trkpt lat="59.7372139" lon="17.8004603">
        <ele>37.6287</ele>
        <time>2013-05-30T18:53:49Z</time>
      </trkpt>
      <trkpt lat="59.7371611" lon="17.8003567">
        <ele>37.6287</ele>
        <time>2013-05-30T18:53:50Z</time>
      </trkpt>
      <trkpt lat="59.7370995" lon="17.8002525">
        <ele>36.6675</ele>
        <time>2013-05-30T18:53:51Z</time>
      </trkpt>
      <trkpt lat="59.7370419" lon="17.8001485">
        <ele>36.6675</ele>
        <time>2013-05-30T18:53:52Z</time>
      </trkpt>
      <trkpt lat="59.7369825" lon="17.8000418">
        <ele>36.6675</ele>
        <time>2013-05-30T18:53:53Z</time>
      </trkpt>
      <trkpt lat="59.7369211" lon="17.7999345">
        <ele>36.1868</ele>
        <time>2013-05-30T18:53:54Z</time>
      </trkpt>
      <trkpt lat="59.7368658" lon="17.799825">
        <ele>36.6675</ele>
        <time>2013-05-30T18:53:55Z</time>
      </trkpt>
      <trkpt lat="59.7368068" lon="17.799715">
        <ele>36.6675</ele>
        <time>2013-05-30T18:53:56Z</time>
      </trkpt>
      <trkpt lat="59.7367483" lon="17.7996049">
        <ele>36.1868</ele>
        <time>2013-05-30T18:53:57Z</time>
      </trkpt>
      <trkpt lat="59.7366895" lon="17.7994953">
        <ele>35.7061</ele>
        <time>2013-05-30T18:53:58Z</time>
      </trkpt>
      <trkpt lat="59.7366328" lon="17.7993856">
        <ele>36.1868</ele>
        <time>2013-05-30T18:53:59Z</time>
      </trkpt>
      <trkpt lat="59.7365746" lon="17.7992762">
        <ele>36.1868</ele>
        <time>2013-05-30T18:54:00Z</time>
      </trkpt>
      <trkpt lat="59.7365126" lon="17.7991674">
        <ele>35.7061</ele>
        <time>2013-05-30T18:54:01Z</time>
      </trkpt>
      <trkpt lat="59.7364551" lon="17.7990603">
        <ele>36.1868</ele>
        <time>2013-05-30T18:54:02Z</time>
      </trkpt>
      <trkpt lat="59.7363965" lon="17.7989533">
        <ele>36.1868</ele>
        <time>2013-05-30T18:54:03Z</time>
      </trkpt>
      <trkpt lat="59.7363352" lon="17.7988446">
        <ele>35.2255</ele>
        <time>2013-05-30T18:54:04Z</time>
      </trkpt>
      <trkpt lat="59.7362702" lon="17.7987365">
        <ele>34.2642</ele>
        <time>2013-05-30T18:54:05Z</time>
      </trkpt>
      <trkpt lat="59.7362136" lon="17.7986292">
        <ele>35.2255</ele>
        <time>2013-05-30T18:54:06Z</time>
      </trkpt>
      <trkpt lat="59.7361561" lon="17.7985199">
        <ele>35.7061</ele>
        <time>2013-05-30T18:54:07Z</time>
      </trkpt>
      <trkpt lat="59.7360992" lon="17.7984117">
        <ele>36.6675</ele>
        <time>2013-05-30T18:54:08Z</time>
      </trkpt>
      <trkpt lat="59.7360382" lon="17.7983033">
        <ele>37.1481</ele>
        <time>2013-05-30T18:54:09Z</time>
      </trkpt>
      <trkpt lat="59.735976" lon="17.7981914">
        <ele>36.6675</ele>
        <time>2013-05-30T18:54:10Z</time>
      </trkpt>
      <trkpt lat="59.7359126" lon="17.7980754">
        <ele>36.6675</ele>
        <time>2013-05-30T18:54:11Z</time>
      </trkpt>
      <trkpt lat="59.7358489" lon="17.7979594">
        <ele>37.1481</ele>
        <time>2013-05-30T18:54:12Z</time>
      </trkpt>
      <trkpt lat="59.7357906" lon="17.7978447">
        <ele>38.1094</ele>
        <time>2013-05-30T18:54:13Z</time>
      </trkpt>
      <trkpt lat="59.7357227" lon="17.7977331">
        <ele>37.6287</ele>
        <time>2013-05-30T18:54:14Z</time>
      </trkpt>
      <trkpt lat="59.7356598" lon="17.7976241">
        <ele>38.5901</ele>
        <time>2013-05-30T18:54:15Z</time>
      </trkpt>
      <trkpt lat="59.7355853" lon="17.797518">
        <ele>37.6287</ele>
        <time>2013-05-30T18:54:16Z</time>
      </trkpt>
      <trkpt lat="59.7355101" lon="17.7974144">
        <ele>37.1481</ele>
        <time>2013-05-30T18:54:17Z</time>
      </trkpt>
      <trkpt lat="59.7354351" lon="17.7973142">
        <ele>36.6675</ele>
        <time>2013-05-30T18:54:18Z</time>
      </trkpt>
      <trkpt lat="59.7353568" lon="17.797215">
        <ele>35.2255</ele>
        <time>2013-05-30T18:54:19Z</time>
      </trkpt>
      <trkpt lat="59.7352847" lon="17.7971234">
        <ele>35.2255</ele>
        <time>2013-05-30T18:54:20Z</time>
      </trkpt>
      <trkpt lat="59.7352071" lon="17.7970341">
        <ele>35.2255</ele>
        <time>2013-05-30T18:54:21Z</time>
      </trkpt>
      <trkpt lat="59.7351212" lon="17.7969394">
        <ele>34.2642</ele>
        <time>2013-05-30T18:54:22Z</time>
      </trkpt>
      <trkpt lat="59.7350435" lon="17.7968525">
        <ele>34.2642</ele>
        <time>2013-05-30T18:54:23Z</time>
      </trkpt>
      <trkpt lat="59.7349651" lon="17.7967681">
        <ele>34.2642</ele>
        <time>2013-05-30T18:54:24Z</time>
      </trkpt>
      <trkpt lat="59.7348855" lon="17.7966897">
        <ele>34.2642</ele>
        <time>2013-05-30T18:54:25Z</time>
      </trkpt>
      <trkpt lat="59.7348072" lon="17.796616">
        <ele>34.2642</ele>
        <time>2013-05-30T18:54:26Z</time>
      </trkpt>
      <trkpt lat="59.7347223" lon="17.7965352">
        <ele>34.2642</ele>
        <time>2013-05-30T18:54:27Z</time>
      </trkpt>
      <trkpt lat="59.7346374" lon="17.7964575">
        <ele>33.7834</ele>
        <time>2013-05-30T18:54:28Z</time>
      </trkpt>
      <trkpt lat="59.7345559" lon="17.7963871">
        <ele>33.7834</ele>
        <time>2013-05-30T18:54:29Z</time>
      </trkpt>
      <trkpt lat="59.7344776" lon="17.7963285">
        <ele>34.7449</ele>
        <time>2013-05-30T18:54:30Z</time>
      </trkpt>
      <trkpt lat="59.7343974" lon="17.7962717">
        <ele>34.7449</ele>
        <time>2013-05-30T18:54:31Z</time>
      </trkpt>
      <trkpt lat="59.734322" lon="17.7962251">
        <ele>35.7061</ele>
        <time>2013-05-30T18:54:32Z</time>
      </trkpt>
      <trkpt lat="59.7342422" lon="17.7961795">
        <ele>35.7061</ele>
        <time>2013-05-30T18:54:33Z</time>
      </trkpt>
      <trkpt lat="59.7341639" lon="17.7961354">
        <ele>36.6675</ele>
        <time>2013-05-30T18:54:34Z</time>
      </trkpt>
      <trkpt lat="59.7340892" lon="17.7960939">
        <ele>37.6287</ele>
        <time>2013-05-30T18:54:35Z</time>
      </trkpt>
      <trkpt lat="59.734015" lon="17.7960576">
        <ele>38.1094</ele>
        <time>2013-05-30T18:54:36Z</time>
      </trkpt>
      <trkpt lat="59.7339396" lon="17.7960254">
        <ele>39.0707</ele>
        <time>2013-05-30T18:54:37Z</time>
      </trkpt>
      <trkpt lat="59.733864" lon="17.7959973">
        <ele>39.0707</ele>
        <time>2013-05-30T18:54:38Z</time>
      </trkpt>
      <trkpt lat="59.7337894" lon="17.7959664">
        <ele>39.0707</ele>
        <time>2013-05-30T18:54:39Z</time>
      </trkpt>
      <trkpt lat="59.7337154" lon="17.795932">
        <ele>39.5513</ele>
        <time>2013-05-30T18:54:40Z</time>
      </trkpt>
      <trkpt lat="59.7336423" lon="17.7959029">
        <ele>39.5513</ele>
        <time>2013-05-30T18:54:41Z</time>
      </trkpt>
      <trkpt lat="59.7335635" lon="17.7958681">
        <ele>39.0707</ele>
        <time>2013-05-30T18:54:42Z</time>
      </trkpt>
      <trkpt lat="59.7334853" lon="17.7958413">
        <ele>38.5901</ele>
        <time>2013-05-30T18:54:43Z</time>
      </trkpt>
      <trkpt lat="59.7334118" lon="17.7958236">
        <ele>39.5513</ele>
        <time>2013-05-30T18:54:44Z</time>
      </trkpt>
      <trkpt lat="59.7333398" lon="17.7958112">
        <ele>40.5128</ele>
        <time>2013-05-30T18:54:45Z</time>
      </trkpt>
      <trkpt lat="59.733266" lon="17.795796">
        <ele>41.474</ele>
        <time>2013-05-30T18:54:46Z</time>
      </trkpt>
      <trkpt lat="59.7331897" lon="17.795777">
        <ele>40.9934</ele>
        <time>2013-05-30T18:54:47Z</time>
      </trkpt>
      <trkpt lat="59.7331118" lon="17.7957589">
        <ele>40.9934</ele>
        <time>2013-05-30T18:54:48Z</time>
      </trkpt>
      <trkpt lat="59.7330315" lon="17.7957417">
        <ele>40.5128</ele>
        <time>2013-05-30T18:54:49Z</time>
      </trkpt>
      <trkpt lat="59.7329514" lon="17.7957246">
        <ele>39.5513</ele>
        <time>2013-05-30T18:54:50Z</time>
      </trkpt>
      <trkpt lat="59.7328714" lon="17.795708">
        <ele>39.0707</ele>
        <time>2013-05-30T18:54:51Z</time>
      </trkpt>
      <trkpt lat="59.7327907" lon="17.7956941">
        <ele>39.0707</ele>
        <time>2013-05-30T18:54:52Z</time>
      </trkpt>
      <trkpt lat="59.7327088" lon="17.7956787">
        <ele>39.0707</ele>
        <time>2013-05-30T18:54:53Z</time>
      </trkpt>
      <trkpt lat="59.732627" lon="17.7956645">
        <ele>39.0707</ele>
        <time>2013-05-30T18:54:54Z</time>
      </trkpt>
      <trkpt lat="59.7325447" lon="17.7956501">
        <ele>39.5513</ele>
        <time>2013-05-30T18:54:55Z</time>
      </trkpt>
      <trkpt lat="59.7324672" lon="17.7956318">
        <ele>40.5128</ele>
        <time>2013-05-30T18:54:56Z</time>
      </trkpt>
      <trkpt lat="59.7323851" lon="17.7956081">
        <ele>40.5128</ele>
        <time>2013-05-30T18:54:57Z</time>
      </trkpt>
      <trkpt lat="59.7323048" lon="17.795576">
        <ele>40.5128</ele>
        <time>2013-05-30T18:54:58Z</time>
      </trkpt>
      <trkpt lat="59.7322287" lon="17.7955324">
        <ele>41.474</ele>
        <time>2013-05-30T18:54:59Z</time>
      </trkpt>
      <trkpt lat="59.7321525" lon="17.7954781">
        <ele>42.4354</ele>
        <time>2013-05-30T18:55:00Z</time>
      </trkpt>
      <trkpt lat="59.7320619" lon="17.7954149">
        <ele>41.474</ele>
        <time>2013-05-30T18:55:01Z</time>
      </trkpt>
      <trkpt lat="59.73198" lon="17.7953541">
        <ele>41.474</ele>
        <time>2013-05-30T18:55:02Z</time>
      </trkpt>
      <trkpt lat="59.7318976" lon="17.7952866">
        <ele>40.9934</ele>
        <time>2013-05-30T18:55:03Z</time>
      </trkpt>
      <trkpt lat="59.7318189" lon="17.7952117">
        <ele>40.9934</ele>
        <time>2013-05-30T18:55:04Z</time>
      </trkpt>
      <trkpt lat="59.7317381" lon="17.7951274">
        <ele>40.5128</ele>
        <time>2013-05-30T18:55:05Z</time>
      </trkpt>
      <trkpt lat="59.7316551" lon="17.7950342">
        <ele>39.5513</ele>
        <time>2013-05-30T18:55:06Z</time>
      </trkpt>
      <trkpt lat="59.7315734" lon="17.7949337">
        <ele>38.5901</ele>
        <time>2013-05-30T18:55:07Z</time>
      </trkpt>
      <trkpt lat="59.7314992" lon="17.7948281">
        <ele>39.0707</ele>
        <time>2013-05-30T18:55:08Z</time>
      </trkpt>
      <trkpt lat="59.7314263" lon="17.7947212">
        <ele>39.5513</ele>
        <time>2013-05-30T18:55:09Z</time>
      </trkpt>
      <trkpt lat="59.7313552" lon="17.7946156">
        <ele>40.0321</ele>
        <time>2013-05-30T18:55:10Z</time>
      </trkpt>
      <trkpt lat="59.7312886" lon="17.7945063">
        <ele>40.9934</ele>
        <time>2013-05-30T18:55:11Z</time>
      </trkpt>
      <trkpt lat="59.7312168" lon="17.7943996">
        <ele>40.5128</ele>
        <time>2013-05-30T18:55:12Z</time>
      </trkpt>
      <trkpt lat="59.7311446" lon="17.7942946">
        <ele>40.5128</ele>
        <time>2013-05-30T18:55:13Z</time>
      </trkpt>
      <trkpt lat="59.7310736" lon="17.7941891">
        <ele>40.0321</ele>
        <time>2013-05-30T18:55:14Z</time>
      </trkpt>
      <trkpt lat="59.7309997" lon="17.7940825">
        <ele>39.0707</ele>
        <time>2013-05-30T18:55:15Z</time>
      </trkpt>
      <trkpt lat="59.730928" lon="17.7939759">
        <ele>38.5901</ele>
        <time>2013-05-30T18:55:16Z</time>
      </trkpt>
      <trkpt lat="59.7308563" lon="17.7938712">
        <ele>38.1094</ele>
        <time>2013-05-30T18:55:17Z</time>
      </trkpt>
      <trkpt lat="59.7307855" lon="17.793764">
        <ele>37.1481</ele>
        <time>2013-05-30T18:55:18Z</time>
      </trkpt>
      <trkpt lat="59.7307164" lon="17.7936502">
        <ele>36.1868</ele>
        <time>2013-05-30T18:55:19Z</time>
      </trkpt>
      <trkpt lat="59.7306513" lon="17.7935344">
        <ele>36.1868</ele>
        <time>2013-05-30T18:55:20Z</time>
      </trkpt>
      <trkpt lat="59.7305809" lon="17.7934108">
        <ele>34.2642</ele>
        <time>2013-05-30T18:55:21Z</time>
      </trkpt>
      <trkpt lat="59.7305109" lon="17.7932865">
        <ele>33.7834</ele>
        <time>2013-05-30T18:55:22Z</time>
      </trkpt>
      <trkpt lat="59.7304415" lon="17.7931515">
        <ele>33.7834</ele>
        <time>2013-05-30T18:55:23Z</time>
      </trkpt>
      <trkpt lat="59.7303755" lon="17.7930082">
        <ele>32.8223</ele>
        <time>2013-05-30T18:55:24Z</time>
      </trkpt>
      <trkpt lat="59.730311" lon="17.7928559">
        <ele>31.3801</ele>
        <time>2013-05-30T18:55:25Z</time>
      </trkpt>
      <trkpt lat="59.7302487" lon="17.7926922">
        <ele>29.4575</ele>
        <time>2013-05-30T18:55:26Z</time>
      </trkpt>
      <trkpt lat="59.7301952" lon="17.7925299">
        <ele>28.9769</ele>
        <time>2013-05-30T18:55:27Z</time>
      </trkpt>
      <trkpt lat="59.7301396" lon="17.7923638">
        <ele>28.0155</ele>
        <time>2013-05-30T18:55:28Z</time>
      </trkpt>
      <trkpt lat="59.7300914" lon="17.7922057">
        <ele>27.5349</ele>
        <time>2013-05-30T18:55:29Z</time>
      </trkpt>
      <trkpt lat="59.730054" lon="17.7920644">
        <ele>28.0155</ele>
        <time>2013-05-30T18:55:30Z</time>
      </trkpt>
      <trkpt lat="59.730016" lon="17.79192">
        <ele>28.0155</ele>
        <time>2013-05-30T18:55:31Z</time>
      </trkpt>
      <trkpt lat="59.7299851" lon="17.791782">
        <ele>28.0155</ele>
        <time>2013-05-30T18:55:32Z</time>
      </trkpt>
      <trkpt lat="59.7299695" lon="17.7916661">
        <ele>28.9769</ele>
        <time>2013-05-30T18:55:33Z</time>
      </trkpt>
      <trkpt lat="59.7299446" lon="17.7915515">
        <ele>29.9381</ele>
        <time>2013-05-30T18:55:34Z</time>
      </trkpt>
      <trkpt lat="59.729914" lon="17.7914397">
        <ele>29.4575</ele>
        <time>2013-05-30T18:55:35Z</time>
      </trkpt>
      <trkpt lat="59.7298862" lon="17.7913656">
        <ele>29.9381</ele>
        <time>2013-05-30T18:55:36Z</time>
      </trkpt>
      <trkpt lat="59.7298412" lon="17.7913105">
        <ele>29.4575</ele>
        <time>2013-05-30T18:55:37Z</time>
      </trkpt>
      <trkpt lat="59.7297985" lon="17.7912829">
        <ele>29.4575</ele>
        <time>2013-05-30T18:55:38Z</time>
      </trkpt>
      <trkpt lat="59.7297503" lon="17.791295">
        <ele>30.4188</ele>
        <time>2013-05-30T18:55:39Z</time>
      </trkpt>
      <trkpt lat="59.7296882" lon="17.7913408">
        <ele>31.3801</ele>
        <time>2013-05-30T18:55:40Z</time>
      </trkpt>
      <trkpt lat="59.7296225" lon="17.7913911">
        <ele>31.8607</ele>
        <time>2013-05-30T18:55:41Z</time>
      </trkpt>
      <trkpt lat="59.7295405" lon="17.7914442">
        <ele>29.9381</ele>
        <time>2013-05-30T18:55:42Z</time>
      </trkpt>
      <trkpt lat="59.7294576" lon="17.7914952">
        <ele>28.4962</ele>
        <time>2013-05-30T18:55:43Z</time>
      </trkpt>
      <trkpt lat="59.7293707" lon="17.7915417">
        <ele>26.5736</ele>
        <time>2013-05-30T18:55:44Z</time>
      </trkpt>
      <trkpt lat="59.7292823" lon="17.7915836">
        <ele>24.651</ele>
        <time>2013-05-30T18:55:45Z</time>
      </trkpt>
      <trkpt lat="59.7292024" lon="17.7916223">
        <ele>25.1317</ele>
        <time>2013-05-30T18:55:46Z</time>
      </trkpt>
      <trkpt lat="59.7291216" lon="17.7916482">
        <ele>24.651</ele>
        <time>2013-05-30T18:55:47Z</time>
      </trkpt>
      <trkpt lat="59.7290361" lon="17.7916635">
        <ele>24.1703</ele>
        <time>2013-05-30T18:55:48Z</time>
      </trkpt>
      <trkpt lat="59.7289506" lon="17.7916681">
        <ele>24.1703</ele>
        <time>2013-05-30T18:55:49Z</time>
      </trkpt>
      <trkpt lat="59.7288663" lon="17.79165">
        <ele>24.1703</ele>
        <time>2013-05-30T18:55:50Z</time>
      </trkpt>
      <trkpt lat="59.7287816" lon="17.7916128">
        <ele>23.6896</ele>
        <time>2013-05-30T18:55:51Z</time>
      </trkpt>
      <trkpt lat="59.7286964" lon="17.7915683">
        <ele>23.209</ele>
        <time>2013-05-30T18:55:52Z</time>
      </trkpt>
      <trkpt lat="59.7286102" lon="17.7915231">
        <ele>23.209</ele>
        <time>2013-05-30T18:55:53Z</time>
      </trkpt>
      <trkpt lat="59.7285218" lon="17.791477">
        <ele>22.7283</ele>
        <time>2013-05-30T18:55:54Z</time>
      </trkpt>
      <trkpt lat="59.7284323" lon="17.791426">
        <ele>22.2476</ele>
        <time>2013-05-30T18:55:55Z</time>
      </trkpt>
      <trkpt lat="59.7283414" lon="17.7913729">
        <ele>21.767</ele>
        <time>2013-05-30T18:55:56Z</time>
      </trkpt>
      <trkpt lat="59.7282483" lon="17.7913199">
        <ele>21.2864</ele>
        <time>2013-05-30T18:55:57Z</time>
      </trkpt>
      <trkpt lat="59.728154" lon="17.791266">
        <ele>20.325</ele>
        <time>2013-05-30T18:55:58Z</time>
      </trkpt>
      <trkpt lat="59.7280588" lon="17.7912128">
        <ele>19.8444</ele>
        <time>2013-05-30T18:55:59Z</time>
      </trkpt>
      <trkpt lat="59.7279642" lon="17.791161">
        <ele>19.3638</ele>
        <time>2013-05-30T18:56:00Z</time>
      </trkpt>
      <trkpt lat="59.7278711" lon="17.7911117">
        <ele>18.8831</ele>
        <time>2013-05-30T18:56:01Z</time>
      </trkpt>
      <trkpt lat="59.7277831" lon="17.7910584">
        <ele>18.8831</ele>
        <time>2013-05-30T18:56:02Z</time>
      </trkpt>
      <trkpt lat="59.7276929" lon="17.7910068">
        <ele>18.8831</ele>
        <time>2013-05-30T18:56:03Z</time>
      </trkpt>
      <trkpt lat="59.727601" lon="17.7909518">
        <ele>19.3638</ele>
        <time>2013-05-30T18:56:04Z</time>
      </trkpt>
      <trkpt lat="59.7275173" lon="17.7908932">
        <ele>19.8444</ele>
        <time>2013-05-30T18:56:05Z</time>
      </trkpt>
      <trkpt lat="59.7274401" lon="17.7908334">
        <ele>19.8444</ele>
        <time>2013-05-30T18:56:06Z</time>
      </trkpt>
      <trkpt lat="59.7273479" lon="17.7907891">
        <ele>21.2864</ele>
        <time>2013-05-30T18:56:07Z</time>
      </trkpt>
      <trkpt lat="59.7272568" lon="17.7907513">
        <ele>22.2476</ele>
        <time>2013-05-30T18:56:08Z</time>
      </trkpt>
      <trkpt lat="59.7271768" lon="17.7906984">
        <ele>21.2864</ele>
        <time>2013-05-30T18:56:09Z</time>
      </trkpt>
      <trkpt lat="59.7270851" lon="17.7906614">
        <ele>20.8057</ele>
        <time>2013-05-30T18:56:10Z</time>
      </trkpt>
      <trkpt lat="59.7269957" lon="17.7906254">
        <ele>20.8057</ele>
        <time>2013-05-30T18:56:11Z</time>
      </trkpt>
      <trkpt lat="59.7269077" lon="17.7905872">
        <ele>20.325</ele>
        <time>2013-05-30T18:56:12Z</time>
      </trkpt>
      <trkpt lat="59.7268199" lon="17.7905485">
        <ele>19.8444</ele>
        <time>2013-05-30T18:56:13Z</time>
      </trkpt>
      <trkpt lat="59.7267363" lon="17.790512">
        <ele>19.3638</ele>
        <time>2013-05-30T18:56:14Z</time>
      </trkpt>
      <trkpt lat="59.7266521" lon="17.7904791">
        <ele>19.3638</ele>
        <time>2013-05-30T18:56:15Z</time>
      </trkpt>
      <trkpt lat="59.7265687" lon="17.7904441">
        <ele>18.8831</ele>
        <time>2013-05-30T18:56:16Z</time>
      </trkpt>
      <trkpt lat="59.7264901" lon="17.7904123">
        <ele>18.8831</ele>
        <time>2013-05-30T18:56:17Z</time>
      </trkpt>
      <trkpt lat="59.7264159" lon="17.7903814">
        <ele>18.4023</ele>
        <time>2013-05-30T18:56:18Z</time>
      </trkpt>
      <trkpt lat="59.7263491" lon="17.7903502">
        <ele>17.9218</ele>
        <time>2013-05-30T18:56:19Z</time>
      </trkpt>
      <trkpt lat="59.7262882" lon="17.7903221">
        <ele>17.4412</ele>
        <time>2013-05-30T18:56:20Z</time>
      </trkpt>
      <trkpt lat="59.7262297" lon="17.7902962">
        <ele>16.9604</ele>
        <time>2013-05-30T18:56:21Z</time>
      </trkpt>
      <trkpt lat="59.7261703" lon="17.7902771">
        <ele>16.4797</ele>
        <time>2013-05-30T18:56:22Z</time>
      </trkpt>
      <trkpt lat="59.7261056" lon="17.7902748">
        <ele>15.999</ele>
        <time>2013-05-30T18:56:23Z</time>
      </trkpt>
      <trkpt lat="59.7260427" lon="17.790303">
        <ele>16.4797</ele>
        <time>2013-05-30T18:56:24Z</time>
      </trkpt>
      <trkpt lat="59.7259788" lon="17.7903435">
        <ele>16.4797</ele>
        <time>2013-05-30T18:56:25Z</time>
      </trkpt>
      <trkpt lat="59.7259092" lon="17.7903896">
        <ele>17.4412</ele>
        <time>2013-05-30T18:56:26Z</time>
      </trkpt>
      <trkpt lat="59.7258367" lon="17.7904461">
        <ele>16.4797</ele>
        <time>2013-05-30T18:56:27Z</time>
      </trkpt>
      <trkpt lat="59.7257634" lon="17.7904988">
        <ele>15.999</ele>
        <time>2013-05-30T18:56:28Z</time>
      </trkpt>
      <trkpt lat="59.7256934" lon="17.7905566">
        <ele>15.999</ele>
        <time>2013-05-30T18:56:29Z</time>
      </trkpt>
      <trkpt lat="59.7256204" lon="17.7906319">
        <ele>15.999</ele>
        <time>2013-05-30T18:56:30Z</time>
      </trkpt>
      <trkpt lat="59.7255406" lon="17.790685">
        <ele>14.557</ele>
        <time>2013-05-30T18:56:31Z</time>
      </trkpt>
      <trkpt lat="59.7254661" lon="17.7907434">
        <ele>14.0764</ele>
        <time>2013-05-30T18:56:32Z</time>
      </trkpt>
      <trkpt lat="59.7253954" lon="17.7908023">
        <ele>14.0764</ele>
        <time>2013-05-30T18:56:33Z</time>
      </trkpt>
      <trkpt lat="59.7253293" lon="17.7908637">
        <ele>14.557</ele>
        <time>2013-05-30T18:56:34Z</time>
      </trkpt>
      <trkpt lat="59.7252676" lon="17.7909246">
        <ele>15.5184</ele>
        <time>2013-05-30T18:56:35Z</time>
      </trkpt>
      <trkpt lat="59.7252003" lon="17.7909803">
        <ele>15.999</ele>
        <time>2013-05-30T18:56:36Z</time>
      </trkpt>
      <trkpt lat="59.7251372" lon="17.7910419">
        <ele>16.9604</ele>
        <time>2013-05-30T18:56:37Z</time>
      </trkpt>
      <trkpt lat="59.7250749" lon="17.7911005">
        <ele>17.4412</ele>
        <time>2013-05-30T18:56:38Z</time>
      </trkpt>
      <trkpt lat="59.7250186" lon="17.7911629">
        <ele>18.4023</ele>
        <time>2013-05-30T18:56:39Z</time>
      </trkpt>
      <trkpt lat="59.7249634" lon="17.7912233">
        <ele>18.4023</ele>
        <time>2013-05-30T18:56:40Z</time>
      </trkpt>
      <trkpt lat="59.7249096" lon="17.7912817">
        <ele>18.4023</ele>
        <time>2013-05-30T18:56:41Z</time>
      </trkpt>
      <trkpt lat="59.7248613" lon="17.7913514">
        <ele>19.3638</ele>
        <time>2013-05-30T18:56:42Z</time>
      </trkpt>
      <trkpt lat="59.7248093" lon="17.7914129">
        <ele>20.8057</ele>
        <time>2013-05-30T18:56:43Z</time>
      </trkpt>
      <trkpt lat="59.7247653" lon="17.7914738">
        <ele>21.767</ele>
        <time>2013-05-30T18:56:44Z</time>
      </trkpt>
      <trkpt lat="59.724719" lon="17.7915359">
        <ele>22.2476</ele>
        <time>2013-05-30T18:56:45Z</time>
      </trkpt>
      <trkpt lat="59.7246727" lon="17.7916028">
        <ele>22.2476</ele>
        <time>2013-05-30T18:56:46Z</time>
      </trkpt>
      <trkpt lat="59.7246248" lon="17.7916666">
        <ele>23.209</ele>
        <time>2013-05-30T18:56:47Z</time>
      </trkpt>
      <trkpt lat="59.7245802" lon="17.7917277">
        <ele>23.209</ele>
        <time>2013-05-30T18:56:48Z</time>
      </trkpt>
      <trkpt lat="59.7245357" lon="17.7917903">
        <ele>23.209</ele>
        <time>2013-05-30T18:56:49Z</time>
      </trkpt>
      <trkpt lat="59.72449" lon="17.7918547">
        <ele>23.209</ele>
        <time>2013-05-30T18:56:50Z</time>
      </trkpt>
      <trkpt lat="59.7244435" lon="17.7919195">
        <ele>22.7283</ele>
        <time>2013-05-30T18:56:51Z</time>
      </trkpt>
      <trkpt lat="59.7243947" lon="17.7919841">
        <ele>22.7283</ele>
        <time>2013-05-30T18:56:52Z</time>
      </trkpt>
      <trkpt lat="59.7243456" lon="17.7920498">
        <ele>22.7283</ele>
        <time>2013-05-30T18:56:53Z</time>
      </trkpt>
      <trkpt lat="59.7242905" lon="17.7921046">
        <ele>21.767</ele>
        <time>2013-05-30T18:56:54Z</time>
      </trkpt>
      <trkpt lat="59.7242395" lon="17.7921665">
        <ele>21.767</ele>
        <time>2013-05-30T18:56:55Z</time>
      </trkpt>
      <trkpt lat="59.7241903" lon="17.7922324">
        <ele>22.2476</ele>
        <time>2013-05-30T18:56:56Z</time>
      </trkpt>
      <trkpt lat="59.7241414" lon="17.7922986">
        <ele>22.2476</ele>
        <time>2013-05-30T18:56:57Z</time>
      </trkpt>
      <trkpt lat="59.7240947" lon="17.7923647">
        <ele>22.2476</ele>
        <time>2013-05-30T18:56:58Z</time>
      </trkpt>
      <trkpt lat="59.7240503" lon="17.7924343">
        <ele>23.209</ele>
        <time>2013-05-30T18:56:59Z</time>
      </trkpt>
      <trkpt lat="59.7240046" lon="17.7925059">
        <ele>24.1703</ele>
        <time>2013-05-30T18:57:00Z</time>
      </trkpt>
      <trkpt lat="59.7239582" lon="17.7925763">
        <ele>24.651</ele>
        <time>2013-05-30T18:57:01Z</time>
      </trkpt>
      <trkpt lat="59.7239113" lon="17.7926503">
        <ele>25.1317</ele>
        <time>2013-05-30T18:57:02Z</time>
      </trkpt>
      <trkpt lat="59.7238606" lon="17.7927228">
        <ele>25.1317</ele>
        <time>2013-05-30T18:57:03Z</time>
      </trkpt>
      <trkpt lat="59.7238063" lon="17.7927964">
        <ele>25.1317</ele>
        <time>2013-05-30T18:57:04Z</time>
      </trkpt>
      <trkpt lat="59.7237513" lon="17.7928711">
        <ele>25.1317</ele>
        <time>2013-05-30T18:57:05Z</time>
      </trkpt>
      <trkpt lat="59.7236965" lon="17.7929441">
        <ele>25.1317</ele>
        <time>2013-05-30T18:57:06Z</time>
      </trkpt>
      <trkpt lat="59.7236416" lon="17.7930175">
        <ele>24.651</ele>
        <time>2013-05-30T18:57:07Z</time>
      </trkpt>
      <trkpt lat="59.7235856" lon="17.7930956">
        <ele>24.651</ele>
        <time>2013-05-30T18:57:08Z</time>
      </trkpt>
      <trkpt lat="59.7235318" lon="17.7931734">
        <ele>25.1317</ele>
        <time>2013-05-30T18:57:09Z</time>
      </trkpt>
      <trkpt lat="59.7234794" lon="17.7932503">
        <ele>25.6123</ele>
        <time>2013-05-30T18:57:10Z</time>
      </trkpt>
      <trkpt lat="59.7234277" lon="17.7933279">
        <ele>25.6123</ele>
        <time>2013-05-30T18:57:11Z</time>
      </trkpt>
      <trkpt lat="59.7233777" lon="17.7934041">
        <ele>26.0929</ele>
        <time>2013-05-30T18:57:12Z</time>
      </trkpt>
      <trkpt lat="59.7233267" lon="17.7934781">
        <ele>26.0929</ele>
        <time>2013-05-30T18:57:13Z</time>
      </trkpt>
      <trkpt lat="59.7232743" lon="17.7935499">
        <ele>26.0929</ele>
        <time>2013-05-30T18:57:14Z</time>
      </trkpt>
      <trkpt lat="59.723222" lon="17.7936231">
        <ele>26.0929</ele>
        <time>2013-05-30T18:57:15Z</time>
      </trkpt>
      <trkpt lat="59.7231702" lon="17.7936989">
        <ele>25.6123</ele>
        <time>2013-05-30T18:57:16Z</time>
      </trkpt>
      <trkpt lat="59.7231203" lon="17.7937812">
        <ele>25.6123</ele>
        <time>2013-05-30T18:57:17Z</time>
      </trkpt>
      <trkpt lat="59.7230724" lon="17.7938593">
        <ele>25.6123</ele>
        <time>2013-05-30T18:57:18Z</time>
      </trkpt>
      <trkpt lat="59.7230247" lon="17.7939267">
        <ele>25.1317</ele>
        <time>2013-05-30T18:57:19Z</time>
      </trkpt>
      <trkpt lat="59.7229708" lon="17.7939951">
        <ele>24.651</ele>
        <time>2013-05-30T18:57:20Z</time>
      </trkpt>
      <trkpt lat="59.7229154" lon="17.7940694">
        <ele>24.1703</ele>
        <time>2013-05-30T18:57:21Z</time>
      </trkpt>
      <trkpt lat="59.7228583" lon="17.7941471">
        <ele>23.6896</ele>
        <time>2013-05-30T18:57:22Z</time>
      </trkpt>
      <trkpt lat="59.7228024" lon="17.7942253">
        <ele>23.209</ele>
        <time>2013-05-30T18:57:23Z</time>
      </trkpt>
      <trkpt lat="59.7227496" lon="17.7943073">
        <ele>23.6896</ele>
        <time>2013-05-30T18:57:24Z</time>
      </trkpt>
      <trkpt lat="59.7226941" lon="17.7943851">
        <ele>23.209</ele>
        <time>2013-05-30T18:57:25Z</time>
      </trkpt>
      <trkpt lat="59.7226387" lon="17.7944638">
        <ele>22.7283</ele>
        <time>2013-05-30T18:57:26Z</time>
      </trkpt>
      <trkpt lat="59.7225818" lon="17.7945399">
        <ele>21.767</ele>
        <time>2013-05-30T18:57:27Z</time>
      </trkpt>
      <trkpt lat="59.7225279" lon="17.7946124">
        <ele>21.767</ele>
        <time>2013-05-30T18:57:28Z</time>
      </trkpt>
      <trkpt lat="59.7224734" lon="17.7946861">
        <ele>21.767</ele>
        <time>2013-05-30T18:57:29Z</time>
      </trkpt>
      <trkpt lat="59.722416" lon="17.7947592">
        <ele>21.767</ele>
        <time>2013-05-30T18:57:30Z</time>
      </trkpt>
      <trkpt lat="59.72236" lon="17.7948302">
        <ele>21.767</ele>
        <time>2013-05-30T18:57:31Z</time>
      </trkpt>
      <trkpt lat="59.722303" lon="17.7949118">
        <ele>21.2864</ele>
        <time>2013-05-30T18:57:32Z</time>
      </trkpt>
      <trkpt lat="59.7222454" lon="17.7949894">
        <ele>20.8057</ele>
        <time>2013-05-30T18:57:33Z</time>
      </trkpt>
      <trkpt lat="59.7221879" lon="17.7950671">
        <ele>19.8444</ele>
        <time>2013-05-30T18:57:34Z</time>
      </trkpt>
      <trkpt lat="59.7221316" lon="17.7951417">
        <ele>19.3638</ele>
        <time>2013-05-30T18:57:35Z</time>
      </trkpt>
      <trkpt lat="59.7220839" lon="17.7952228">
        <ele>20.325</ele>
        <time>2013-05-30T18:57:36Z</time>
      </trkpt>
      <trkpt lat="59.7220371" lon="17.7953021">
        <ele>20.8057</ele>
        <time>2013-05-30T18:57:37Z</time>
      </trkpt>
      <trkpt lat="59.721985" lon="17.7953765">
        <ele>20.8057</ele>
        <time>2013-05-30T18:57:38Z</time>
      </trkpt>
      <trkpt lat="59.7219328" lon="17.7954515">
        <ele>20.325</ele>
        <time>2013-05-30T18:57:39Z</time>
      </trkpt>
      <trkpt lat="59.7218789" lon="17.7955225">
        <ele>19.8444</ele>
        <time>2013-05-30T18:57:40Z</time>
      </trkpt>
      <trkpt lat="59.7218256" lon="17.7955962">
        <ele>20.325</ele>
        <time>2013-05-30T18:57:41Z</time>
      </trkpt>
      <trkpt lat="59.7217696" lon="17.7956654">
        <ele>19.8444</ele>
        <time>2013-05-30T18:57:42Z</time>
      </trkpt>
      <trkpt lat="59.7217154" lon="17.7957393">
        <ele>20.325</ele>
        <time>2013-05-30T18:57:43Z</time>
      </trkpt>
      <trkpt lat="59.7216617" lon="17.7958167">
        <ele>20.325</ele>
        <time>2013-05-30T18:57:44Z</time>
      </trkpt>
      <trkpt lat="59.7216058" lon="17.7958935">
        <ele>20.8057</ele>
        <time>2013-05-30T18:57:45Z</time>
      </trkpt>
      <trkpt lat="59.7215495" lon="17.7959675">
        <ele>20.8057</ele>
        <time>2013-05-30T18:57:46Z</time>
      </trkpt>
      <trkpt lat="59.7214939" lon="17.7960385">
        <ele>20.8057</ele>
        <time>2013-05-30T18:57:47Z</time>
      </trkpt>
      <trkpt lat="59.7214406" lon="17.7961106">
        <ele>21.2864</ele>
        <time>2013-05-30T18:57:48Z</time>
      </trkpt>
      <trkpt lat="59.7213898" lon="17.7961825">
        <ele>21.767</ele>
        <time>2013-05-30T18:57:49Z</time>
      </trkpt>
      <trkpt lat="59.721337" lon="17.7962478">
        <ele>22.2476</ele>
        <time>2013-05-30T18:57:50Z</time>
      </trkpt>
      <trkpt lat="59.7212841" lon="17.796309">
        <ele>22.7283</ele>
        <time>2013-05-30T18:57:51Z</time>
      </trkpt>
      <trkpt lat="59.7212307" lon="17.7963684">
        <ele>22.7283</ele>
        <time>2013-05-30T18:57:52Z</time>
      </trkpt>
      <trkpt lat="59.7211786" lon="17.7964274">
        <ele>23.6896</ele>
        <time>2013-05-30T18:57:53Z</time>
      </trkpt>
      <trkpt lat="59.7211288" lon="17.7964746">
        <ele>24.651</ele>
        <time>2013-05-30T18:57:54Z</time>
      </trkpt>
      <trkpt lat="59.7210763" lon="17.796515">
        <ele>25.1317</ele>
        <time>2013-05-30T18:57:55Z</time>
      </trkpt>
      <trkpt lat="59.7210218" lon="17.7965559">
        <ele>25.1317</ele>
        <time>2013-05-30T18:57:56Z</time>
      </trkpt>
      <trkpt lat="59.7209681" lon="17.7965881">
        <ele>25.1317</ele>
        <time>2013-05-30T18:57:57Z</time>
      </trkpt>
      <trkpt lat="59.7209123" lon="17.7966182">
        <ele>24.651</ele>
        <time>2013-05-30T18:57:58Z</time>
      </trkpt>
      <trkpt lat="59.7208572" lon="17.7966429">
        <ele>24.1703</ele>
        <time>2013-05-30T18:57:59Z</time>
      </trkpt>
      <trkpt lat="59.720802" lon="17.7966655">
        <ele>24.1703</ele>
        <time>2013-05-30T18:58:00Z</time>
      </trkpt>
      <trkpt lat="59.7207413" lon="17.7966916">
        <ele>23.209</ele>
        <time>2013-05-30T18:58:01Z</time>
      </trkpt>
      <trkpt lat="59.7206826" lon="17.7967083">
        <ele>23.209</ele>
        <time>2013-05-30T18:58:02Z</time>
      </trkpt>
      <trkpt lat="59.7206233" lon="17.796727">
        <ele>22.7283</ele>
        <time>2013-05-30T18:58:03Z</time>
      </trkpt>
      <trkpt lat="59.7205656" lon="17.7967461">
        <ele>21.2864</ele>
        <time>2013-05-30T18:58:04Z</time>
      </trkpt>
      <trkpt lat="59.7205066" lon="17.7967643">
        <ele>20.325</ele>
        <time>2013-05-30T18:58:05Z</time>
      </trkpt>
      <trkpt lat="59.7204494" lon="17.7967814">
        <ele>19.3638</ele>
        <time>2013-05-30T18:58:06Z</time>
      </trkpt>
      <trkpt lat="59.720392" lon="17.7968038">
        <ele>18.8831</ele>
        <time>2013-05-30T18:58:07Z</time>
      </trkpt>
      <trkpt lat="59.7203326" lon="17.7968196">
        <ele>18.8831</ele>
        <time>2013-05-30T18:58:08Z</time>
      </trkpt>
      <trkpt lat="59.7202694" lon="17.7968416">
        <ele>18.8831</ele>
        <time>2013-05-30T18:58:09Z</time>
      </trkpt>
      <trkpt lat="59.7202086" lon="17.7968805">
        <ele>20.325</ele>
        <time>2013-05-30T18:58:10Z</time>
      </trkpt>
      <trkpt lat="59.7201454" lon="17.796913">
        <ele>21.2864</ele>
        <time>2013-05-30T18:58:11Z</time>
      </trkpt>
      <trkpt lat="59.7200804" lon="17.79694">
        <ele>21.767</ele>
        <time>2013-05-30T18:58:12Z</time>
      </trkpt>
      <trkpt lat="59.7200151" lon="17.7969644">
        <ele>21.767</ele>
        <time>2013-05-30T18:58:13Z</time>
      </trkpt>
      <trkpt lat="59.719947" lon="17.796983">
        <ele>22.2476</ele>
        <time>2013-05-30T18:58:14Z</time>
      </trkpt>
      <trkpt lat="59.7198768" lon="17.7969938">
        <ele>22.2476</ele>
        <time>2013-05-30T18:58:15Z</time>
      </trkpt>
      <trkpt lat="59.719805" lon="17.7970074">
        <ele>21.767</ele>
        <time>2013-05-30T18:58:16Z</time>
      </trkpt>
      <trkpt lat="59.7197333" lon="17.7970309">
        <ele>21.767</ele>
        <time>2013-05-30T18:58:17Z</time>
      </trkpt>
      <trkpt lat="59.7196605" lon="17.7970683">
        <ele>22.2476</ele>
        <time>2013-05-30T18:58:18Z</time>
      </trkpt>
      <trkpt lat="59.7195923" lon="17.7971078">
        <ele>23.209</ele>
        <time>2013-05-30T18:58:19Z</time>
      </trkpt>
      <trkpt lat="59.719511" lon="17.7971454">
        <ele>22.2476</ele>
        <time>2013-05-30T18:58:20Z</time>
      </trkpt>
      <trkpt lat="59.7194327" lon="17.7971901">
        <ele>21.767</ele>
        <time>2013-05-30T18:58:21Z</time>
      </trkpt>
      <trkpt lat="59.7193554" lon="17.7972324">
        <ele>20.8057</ele>
        <time>2013-05-30T18:58:22Z</time>
      </trkpt>
      <trkpt lat="59.7192768" lon="17.7972689">
        <ele>18.8831</ele>
        <time>2013-05-30T18:58:23Z</time>
      </trkpt>
      <trkpt lat="59.7192106" lon="17.7973252">
        <ele>19.3638</ele>
        <time>2013-05-30T18:58:24Z</time>
      </trkpt>
      <trkpt lat="59.7191366" lon="17.7973844">
        <ele>18.4023</ele>
        <time>2013-05-30T18:58:25Z</time>
      </trkpt>
      <trkpt lat="59.7190627" lon="17.7974481">
        <ele>17.4412</ele>
        <time>2013-05-30T18:58:26Z</time>
      </trkpt>
      <trkpt lat="59.7189933" lon="17.7975204">
        <ele>16.4797</ele>
        <time>2013-05-30T18:58:27Z</time>
      </trkpt>
      <trkpt lat="59.7189236" lon="17.7975994">
        <ele>15.5184</ele>
        <time>2013-05-30T18:58:28Z</time>
      </trkpt>
      <trkpt lat="59.7188603" lon="17.7976831">
        <ele>15.0377</ele>
        <time>2013-05-30T18:58:29Z</time>
      </trkpt>
      <trkpt lat="59.7188018" lon="17.7977728">
        <ele>15.0377</ele>
        <time>2013-05-30T18:58:30Z</time>
      </trkpt>
      <trkpt lat="59.7187405" lon="17.797863">
        <ele>14.0764</ele>
        <time>2013-05-30T18:58:31Z</time>
      </trkpt>
      <trkpt lat="59.7186766" lon="17.7979542">
        <ele>12.6344</ele>
        <time>2013-05-30T18:58:32Z</time>
      </trkpt>
      <trkpt lat="59.7186201" lon="17.7980481">
        <ele>12.1538</ele>
        <time>2013-05-30T18:58:33Z</time>
      </trkpt>
      <trkpt lat="59.7185805" lon="17.7981697">
        <ele>13.5958</ele>
        <time>2013-05-30T18:58:34Z</time>
      </trkpt>
      <trkpt lat="59.718533" lon="17.798283">
        <ele>13.1151</ele>
        <time>2013-05-30T18:58:35Z</time>
      </trkpt>
      <trkpt lat="59.7184997" lon="17.79843">
        <ele>14.0764</ele>
        <time>2013-05-30T18:58:36Z</time>
      </trkpt>
      <trkpt lat="59.7184755" lon="17.7985924">
        <ele>15.5184</ele>
        <time>2013-05-30T18:58:37Z</time>
      </trkpt>
      <trkpt lat="59.7184459" lon="17.7987437">
        <ele>15.5184</ele>
        <time>2013-05-30T18:58:38Z</time>
      </trkpt>
      <trkpt lat="59.7184155" lon="17.7988955">
        <ele>15.5184</ele>
        <time>2013-05-30T18:58:39Z</time>
      </trkpt>
      <trkpt lat="59.7183879" lon="17.7990529">
        <ele>15.999</ele>
        <time>2013-05-30T18:58:40Z</time>
      </trkpt>
      <trkpt lat="59.7183616" lon="17.7992084">
        <ele>15.999</ele>
        <time>2013-05-30T18:58:41Z</time>
      </trkpt>
      <trkpt lat="59.7183434" lon="17.7993661">
        <ele>17.4412</ele>
        <time>2013-05-30T18:58:42Z</time>
      </trkpt>
      <trkpt lat="59.7183295" lon="17.799517">
        <ele>18.8831</ele>
        <time>2013-05-30T18:58:43Z</time>
      </trkpt>
      <trkpt lat="59.7183129" lon="17.7996707">
        <ele>19.8444</ele>
        <time>2013-05-30T18:58:44Z</time>
      </trkpt>
      <trkpt lat="59.7182916" lon="17.7998258">
        <ele>20.325</ele>
        <time>2013-05-30T18:58:45Z</time>
      </trkpt>
      <trkpt lat="59.7182719" lon="17.7999614">
        <ele>19.8444</ele>
        <time>2013-05-30T18:58:46Z</time>
      </trkpt>
      <trkpt lat="59.718253" lon="17.8001009">
        <ele>19.8444</ele>
        <time>2013-05-30T18:58:47Z</time>
      </trkpt>
      <trkpt lat="59.718233" lon="17.8002288">
        <ele>19.3638</ele>
        <time>2013-05-30T18:58:48Z</time>
      </trkpt>
      <trkpt lat="59.7182134" lon="17.800351">
        <ele>18.8831</ele>
        <time>2013-05-30T18:58:49Z</time>
      </trkpt>
      <trkpt lat="59.7181941" lon="17.8004711">
        <ele>18.8831</ele>
        <time>2013-05-30T18:58:50Z</time>
      </trkpt>
      <trkpt lat="59.7181765" lon="17.8005888">
        <ele>19.3638</ele>
        <time>2013-05-30T18:58:51Z</time>
      </trkpt>
      <trkpt lat="59.7181604" lon="17.8007025">
        <ele>20.325</ele>
        <time>2013-05-30T18:58:52Z</time>
      </trkpt>
      <trkpt lat="59.7181408" lon="17.8008134">
        <ele>20.325</ele>
        <time>2013-05-30T18:58:53Z</time>
      </trkpt>
      <trkpt lat="59.7181092" lon="17.8009032">
        <ele>19.8444</ele>
        <time>2013-05-30T18:58:54Z</time>
      </trkpt>
      <trkpt lat="59.7180796" lon="17.800998">
        <ele>19.3638</ele>
        <time>2013-05-30T18:58:55Z</time>
      </trkpt>
      <trkpt lat="59.7180486" lon="17.8010919">
        <ele>19.8444</ele>
        <time>2013-05-30T18:58:56Z</time>
      </trkpt>
      <trkpt lat="59.7180185" lon="17.8011844">
        <ele>20.8057</ele>
        <time>2013-05-30T18:58:57Z</time>
      </trkpt>
      <trkpt lat="59.7179866" lon="17.8012768">
        <ele>21.767</ele>
        <time>2013-05-30T18:58:58Z</time>
      </trkpt>
      <trkpt lat="59.7179506" lon="17.8013571">
        <ele>21.767</ele>
        <time>2013-05-30T18:58:59Z</time>
      </trkpt>
      <trkpt lat="59.7179114" lon="17.8014305">
        <ele>21.2864</ele>
        <time>2013-05-30T18:59:00Z</time>
      </trkpt>
      <trkpt lat="59.7178757" lon="17.8015034">
        <ele>21.2864</ele>
        <time>2013-05-30T18:59:01Z</time>
      </trkpt>
      <trkpt lat="59.7178383" lon="17.8015751">
        <ele>21.767</ele>
        <time>2013-05-30T18:59:02Z</time>
      </trkpt>
      <trkpt lat="59.7177977" lon="17.8016436">
        <ele>22.2476</ele>
        <time>2013-05-30T18:59:03Z</time>
      </trkpt>
      <trkpt lat="59.7177554" lon="17.8017094">
        <ele>22.2476</ele>
        <time>2013-05-30T18:59:04Z</time>
      </trkpt>
      <trkpt lat="59.7177165" lon="17.8017797">
        <ele>22.7283</ele>
        <time>2013-05-30T18:59:05Z</time>
      </trkpt>
      <trkpt lat="59.7176758" lon="17.8018496">
        <ele>23.6896</ele>
        <time>2013-05-30T18:59:06Z</time>
      </trkpt>
      <trkpt lat="59.7176341" lon="17.8019157">
        <ele>23.6896</ele>
        <time>2013-05-30T18:59:07Z</time>
      </trkpt>
      <trkpt lat="59.7175825" lon="17.8019697">
        <ele>22.7283</ele>
        <time>2013-05-30T18:59:08Z</time>
      </trkpt>
      <trkpt lat="59.7175342" lon="17.8020297">
        <ele>22.7283</ele>
        <time>2013-05-30T18:59:09Z</time>
      </trkpt>
      <trkpt lat="59.7174805" lon="17.8020821">
        <ele>22.2476</ele>
        <time>2013-05-30T18:59:10Z</time>
      </trkpt>
      <trkpt lat="59.7174218" lon="17.8021231">
        <ele>21.767</ele>
        <time>2013-05-30T18:59:11Z</time>
      </trkpt>
      <trkpt lat="59.7173611" lon="17.8021542">
        <ele>20.8057</ele>
        <time>2013-05-30T18:59:12Z</time>
      </trkpt>
      <trkpt lat="59.7172986" lon="17.8021785">
        <ele>19.8444</ele>
        <time>2013-05-30T18:59:13Z</time>
      </trkpt>
      <trkpt lat="59.7172383" lon="17.8022001">
        <ele>19.8444</ele>
        <time>2013-05-30T18:59:14Z</time>
      </trkpt>
      <trkpt lat="59.7171754" lon="17.802216">
        <ele>19.8444</ele>
        <time>2013-05-30T18:59:15Z</time>
      </trkpt>
      <trkpt lat="59.717111" lon="17.8022183">
        <ele>18.8831</ele>
        <time>2013-05-30T18:59:16Z</time>
      </trkpt>
      <trkpt lat="59.7170448" lon="17.80223">
        <ele>18.8831</ele>
        <time>2013-05-30T18:59:17Z</time>
      </trkpt>
      <trkpt lat="59.716982" lon="17.8022486">
        <ele>19.3638</ele>
        <time>2013-05-30T18:59:18Z</time>
      </trkpt>
      <trkpt lat="59.7169194" lon="17.8022636">
        <ele>19.8444</ele>
        <time>2013-05-30T18:59:19Z</time>
      </trkpt>
      <trkpt lat="59.7168577" lon="17.8022682">
        <ele>20.325</ele>
        <time>2013-05-30T18:59:20Z</time>
      </trkpt>
      <trkpt lat="59.7167955" lon="17.8022757">
        <ele>20.325</ele>
        <time>2013-05-30T18:59:21Z</time>
      </trkpt>
      <trkpt lat="59.716735" lon="17.8022869">
        <ele>21.767</ele>
        <time>2013-05-30T18:59:22Z</time>
      </trkpt>
      <trkpt lat="59.7166696" lon="17.8023014">
        <ele>22.2476</ele>
        <time>2013-05-30T18:59:23Z</time>
      </trkpt>
      <trkpt lat="59.7166022" lon="17.8023184">
        <ele>22.7283</ele>
        <time>2013-05-30T18:59:24Z</time>
      </trkpt>
      <trkpt lat="59.7165346" lon="17.8023364">
        <ele>23.209</ele>
        <time>2013-05-30T18:59:25Z</time>
      </trkpt>
      <trkpt lat="59.7164667" lon="17.8023651">
        <ele>24.1703</ele>
        <time>2013-05-30T18:59:26Z</time>
      </trkpt>
      <trkpt lat="59.7163978" lon="17.802395">
        <ele>24.651</ele>
        <time>2013-05-30T18:59:27Z</time>
      </trkpt>
      <trkpt lat="59.7163278" lon="17.8024223">
        <ele>25.6123</ele>
        <time>2013-05-30T18:59:28Z</time>
      </trkpt>
      <trkpt lat="59.7162542" lon="17.8024374">
        <ele>26.0929</ele>
        <time>2013-05-30T18:59:29Z</time>
      </trkpt>
      <trkpt lat="59.7161776" lon="17.8024343">
        <ele>25.6123</ele>
        <time>2013-05-30T18:59:30Z</time>
      </trkpt>
      <trkpt lat="59.7160997" lon="17.8024218">
        <ele>25.6123</ele>
        <time>2013-05-30T18:59:31Z</time>
      </trkpt>
      <trkpt lat="59.7160212" lon="17.802403">
        <ele>25.6123</ele>
        <time>2013-05-30T18:59:32Z</time>
      </trkpt>
      <trkpt lat="59.7159437" lon="17.802379">
        <ele>25.1317</ele>
        <time>2013-05-30T18:59:33Z</time>
      </trkpt>
      <trkpt lat="59.7158631" lon="17.8023519">
        <ele>24.651</ele>
        <time>2013-05-30T18:59:34Z</time>
      </trkpt>
      <trkpt lat="59.7157817" lon="17.8023272">
        <ele>24.1703</ele>
        <time>2013-05-30T18:59:35Z</time>
      </trkpt>
      <trkpt lat="59.7157008" lon="17.8022968">
        <ele>24.1703</ele>
        <time>2013-05-30T18:59:36Z</time>
      </trkpt>
      <trkpt lat="59.7156241" lon="17.8022666">
        <ele>23.6896</ele>
        <time>2013-05-30T18:59:37Z</time>
      </trkpt>
      <trkpt lat="59.7155476" lon="17.802239">
        <ele>23.209</ele>
        <time>2013-05-30T18:59:38Z</time>
      </trkpt>
      <trkpt lat="59.7154767" lon="17.8022071">
        <ele>23.209</ele>
        <time>2013-05-30T18:59:39Z</time>
      </trkpt>
      <trkpt lat="59.7154012" lon="17.802173">
        <ele>22.2476</ele>
        <time>2013-05-30T18:59:40Z</time>
      </trkpt>
      <trkpt lat="59.7153332" lon="17.8021457">
        <ele>21.767</ele>
        <time>2013-05-30T18:59:41Z</time>
      </trkpt>
      <trkpt lat="59.7152649" lon="17.8021143">
        <ele>21.2864</ele>
        <time>2013-05-30T18:59:42Z</time>
      </trkpt>
      <trkpt lat="59.7151953" lon="17.8020849">
        <ele>20.325</ele>
        <time>2013-05-30T18:59:43Z</time>
      </trkpt>
      <trkpt lat="59.7151279" lon="17.8020604">
        <ele>20.325</ele>
        <time>2013-05-30T18:59:44Z</time>
      </trkpt>
      <trkpt lat="59.7150608" lon="17.8020278">
        <ele>19.8444</ele>
        <time>2013-05-30T18:59:45Z</time>
      </trkpt>
      <trkpt lat="59.7149942" lon="17.8019957">
        <ele>19.3638</ele>
        <time>2013-05-30T18:59:46Z</time>
      </trkpt>
      <trkpt lat="59.7149326" lon="17.8019662">
        <ele>19.8444</ele>
        <time>2013-05-30T18:59:47Z</time>
      </trkpt>
      <trkpt lat="59.7148673" lon="17.8019325">
        <ele>19.8444</ele>
        <time>2013-05-30T18:59:48Z</time>
      </trkpt>
      <trkpt lat="59.714798" lon="17.8019009">
        <ele>20.325</ele>
        <time>2013-05-30T18:59:49Z</time>
      </trkpt>
      <trkpt lat="59.7147216" lon="17.8018652">
        <ele>19.3638</ele>
        <time>2013-05-30T18:59:50Z</time>
      </trkpt>
      <trkpt lat="59.7146514" lon="17.801846">
        <ele>19.3638</ele>
        <time>2013-05-30T18:59:51Z</time>
      </trkpt>
      <trkpt lat="59.7145762" lon="17.8018253">
        <ele>18.4023</ele>
        <time>2013-05-30T18:59:52Z</time>
      </trkpt>
      <trkpt lat="59.7145021" lon="17.8018114">
        <ele>17.9218</ele>
        <time>2013-05-30T18:59:53Z</time>
      </trkpt>
      <trkpt lat="59.7144267" lon="17.8018041">
        <ele>17.9218</ele>
        <time>2013-05-30T18:59:54Z</time>
      </trkpt>
      <trkpt lat="59.7143514" lon="17.8018013">
        <ele>17.4412</ele>
        <time>2013-05-30T18:59:55Z</time>
      </trkpt>
      <trkpt lat="59.7142708" lon="17.8017932">
        <ele>16.4797</ele>
        <time>2013-05-30T18:59:56Z</time>
      </trkpt>
      <trkpt lat="59.7141932" lon="17.8017891">
        <ele>15.999</ele>
        <time>2013-05-30T18:59:57Z</time>
      </trkpt>
      <trkpt lat="59.714117" lon="17.8017858">
        <ele>15.999</ele>
        <time>2013-05-30T18:59:58Z</time>
      </trkpt>
      <trkpt lat="59.7140432" lon="17.8017833">
        <ele>15.999</ele>
        <time>2013-05-30T18:59:59Z</time>
      </trkpt>
      <trkpt lat="59.7139704" lon="17.8017823">
        <ele>15.5184</ele>
        <time>2013-05-30T19:00:00Z</time>
      </trkpt>
      <trkpt lat="59.7138999" lon="17.8017837">
        <ele>15.999</ele>
        <time>2013-05-30T19:00:01Z</time>
      </trkpt>
      <trkpt lat="59.7138292" lon="17.8017847">
        <ele>16.4797</ele>
        <time>2013-05-30T19:00:02Z</time>
      </trkpt>
      <trkpt lat="59.7137568" lon="17.8017838">
        <ele>16.4797</ele>
        <time>2013-05-30T19:00:03Z</time>
      </trkpt>
      <trkpt lat="59.7136834" lon="17.8017823">
        <ele>16.4797</ele>
        <time>2013-05-30T19:00:04Z</time>
      </trkpt>
      <trkpt lat="59.7136108" lon="17.8017824">
        <ele>16.9604</ele>
        <time>2013-05-30T19:00:05Z</time>
      </trkpt>
      <trkpt lat="59.7135395" lon="17.8017849">
        <ele>17.4412</ele>
        <time>2013-05-30T19:00:06Z</time>
      </trkpt>
      <trkpt lat="59.7134697" lon="17.8017968">
        <ele>17.4412</ele>
        <time>2013-05-30T19:00:07Z</time>
      </trkpt>
      <trkpt lat="59.7134016" lon="17.8018184">
        <ele>17.4412</ele>
        <time>2013-05-30T19:00:08Z</time>
      </trkpt>
      <trkpt lat="59.7133359" lon="17.801847">
        <ele>17.9218</ele>
        <time>2013-05-30T19:00:09Z</time>
      </trkpt>
      <trkpt lat="59.7132709" lon="17.8018775">
        <ele>17.4412</ele>
        <time>2013-05-30T19:00:10Z</time>
      </trkpt>
      <trkpt lat="59.7132058" lon="17.8019148">
        <ele>17.4412</ele>
        <time>2013-05-30T19:00:11Z</time>
      </trkpt>
      <trkpt lat="59.7131418" lon="17.8019615">
        <ele>17.4412</ele>
        <time>2013-05-30T19:00:12Z</time>
      </trkpt>
      <trkpt lat="59.713076" lon="17.8020114">
        <ele>17.4412</ele>
        <time>2013-05-30T19:00:13Z</time>
      </trkpt>
      <trkpt lat="59.7130099" lon="17.8020625">
        <ele>17.4412</ele>
        <time>2013-05-30T19:00:14Z</time>
      </trkpt>
      <trkpt lat="59.7129467" lon="17.8021136">
        <ele>17.4412</ele>
        <time>2013-05-30T19:00:15Z</time>
      </trkpt>
      <trkpt lat="59.712883" lon="17.8021666">
        <ele>17.4412</ele>
        <time>2013-05-30T19:00:16Z</time>
      </trkpt>
      <trkpt lat="59.7128198" lon="17.802217">
        <ele>17.4412</ele>
        <time>2013-05-30T19:00:17Z</time>
      </trkpt>
      <trkpt lat="59.7127568" lon="17.8022656">
        <ele>17.9218</ele>
        <time>2013-05-30T19:00:18Z</time>
      </trkpt>
      <trkpt lat="59.7126928" lon="17.802311">
        <ele>17.9218</ele>
        <time>2013-05-30T19:00:19Z</time>
      </trkpt>
      <trkpt lat="59.7126286" lon="17.8023405">
        <ele>17.9218</ele>
        <time>2013-05-30T19:00:20Z</time>
      </trkpt>
      <trkpt lat="59.7125635" lon="17.8023608">
        <ele>17.9218</ele>
        <time>2013-05-30T19:00:21Z</time>
      </trkpt>
      <trkpt lat="59.7124954" lon="17.8023754">
        <ele>18.4023</ele>
        <time>2013-05-30T19:00:22Z</time>
      </trkpt>
      <trkpt lat="59.7124287" lon="17.8023899">
        <ele>19.3638</ele>
        <time>2013-05-30T19:00:23Z</time>
      </trkpt>
      <trkpt lat="59.7123625" lon="17.802399">
        <ele>19.3638</ele>
        <time>2013-05-30T19:00:24Z</time>
      </trkpt>
      <trkpt lat="59.7122889" lon="17.8023966">
        <ele>19.8444</ele>
        <time>2013-05-30T19:00:25Z</time>
      </trkpt>
      <trkpt lat="59.7122136" lon="17.8023856">
        <ele>20.8057</ele>
        <time>2013-05-30T19:00:26Z</time>
      </trkpt>
      <trkpt lat="59.7121384" lon="17.8023626">
        <ele>21.767</ele>
        <time>2013-05-30T19:00:27Z</time>
      </trkpt>
      <trkpt lat="59.7120639" lon="17.802327">
        <ele>22.2476</ele>
        <time>2013-05-30T19:00:28Z</time>
      </trkpt>
      <trkpt lat="59.711988" lon="17.8022745">
        <ele>22.2476</ele>
        <time>2013-05-30T19:00:29Z</time>
      </trkpt>
      <trkpt lat="59.7119121" lon="17.8022159">
        <ele>22.2476</ele>
        <time>2013-05-30T19:00:30Z</time>
      </trkpt>
      <trkpt lat="59.7118362" lon="17.8021525">
        <ele>22.2476</ele>
        <time>2013-05-30T19:00:31Z</time>
      </trkpt>
      <trkpt lat="59.7117626" lon="17.8020854">
        <ele>21.767</ele>
        <time>2013-05-30T19:00:32Z</time>
      </trkpt>
      <trkpt lat="59.7116891" lon="17.8020191">
        <ele>21.2864</ele>
        <time>2013-05-30T19:00:33Z</time>
      </trkpt>
      <trkpt lat="59.7116165" lon="17.8019572">
        <ele>21.2864</ele>
        <time>2013-05-30T19:00:34Z</time>
      </trkpt>
      <trkpt lat="59.711545" lon="17.8018963">
        <ele>21.2864</ele>
        <time>2013-05-30T19:00:35Z</time>
      </trkpt>
      <trkpt lat="59.711472" lon="17.8018289">
        <ele>20.8057</ele>
        <time>2013-05-30T19:00:36Z</time>
      </trkpt>
      <trkpt lat="59.7113978" lon="17.8017612">
        <ele>20.8057</ele>
        <time>2013-05-30T19:00:37Z</time>
      </trkpt>
      <trkpt lat="59.7113202" lon="17.8016992">
        <ele>20.325</ele>
        <time>2013-05-30T19:00:38Z</time>
      </trkpt>
      <trkpt lat="59.7112384" lon="17.8016466">
        <ele>19.8444</ele>
        <time>2013-05-30T19:00:39Z</time>
      </trkpt>
      <trkpt lat="59.7111525" lon="17.8015994">
        <ele>19.8444</ele>
        <time>2013-05-30T19:00:40Z</time>
      </trkpt>
      <trkpt lat="59.7110631" lon="17.8015605">
        <ele>19.3638</ele>
        <time>2013-05-30T19:00:41Z</time>
      </trkpt>
      <trkpt lat="59.7109705" lon="17.8015334">
        <ele>19.3638</ele>
        <time>2013-05-30T19:00:42Z</time>
      </trkpt>
      <trkpt lat="59.7108766" lon="17.8015194">
        <ele>19.3638</ele>
        <time>2013-05-30T19:00:43Z</time>
      </trkpt>
      <trkpt lat="59.7107836" lon="17.8015233">
        <ele>19.8444</ele>
        <time>2013-05-30T19:00:44Z</time>
      </trkpt>
      <trkpt lat="59.7106909" lon="17.8015327">
        <ele>19.8444</ele>
        <time>2013-05-30T19:00:45Z</time>
      </trkpt>
      <trkpt lat="59.7105981" lon="17.8015462">
        <ele>19.8444</ele>
        <time>2013-05-30T19:00:46Z</time>
      </trkpt>
      <trkpt lat="59.7105057" lon="17.8015689">
        <ele>19.8444</ele>
        <time>2013-05-30T19:00:47Z</time>
      </trkpt>
      <trkpt lat="59.7104155" lon="17.8015922">
        <ele>19.8444</ele>
        <time>2013-05-30T19:00:48Z</time>
      </trkpt>
      <trkpt lat="59.710327" lon="17.8016202">
        <ele>19.3638</ele>
        <time>2013-05-30T19:00:49Z</time>
      </trkpt>
      <trkpt lat="59.7102394" lon="17.8016502">
        <ele>19.3638</ele>
        <time>2013-05-30T19:00:50Z</time>
      </trkpt>
      <trkpt lat="59.7101529" lon="17.8016901">
        <ele>19.3638</ele>
        <time>2013-05-30T19:00:51Z</time>
      </trkpt>
      <trkpt lat="59.710068" lon="17.8017351">
        <ele>19.3638</ele>
        <time>2013-05-30T19:00:52Z</time>
      </trkpt>
      <trkpt lat="59.7099848" lon="17.8017783">
        <ele>19.3638</ele>
        <time>2013-05-30T19:00:53Z</time>
      </trkpt>
      <trkpt lat="59.7099013" lon="17.8018259">
        <ele>18.8831</ele>
        <time>2013-05-30T19:00:54Z</time>
      </trkpt>
      <trkpt lat="59.7098186" lon="17.8018774">
        <ele>18.4023</ele>
        <time>2013-05-30T19:00:55Z</time>
      </trkpt>
      <trkpt lat="59.7097371" lon="17.801931">
        <ele>18.4023</ele>
        <time>2013-05-30T19:00:56Z</time>
      </trkpt>
      <trkpt lat="59.7096553" lon="17.8019857">
        <ele>17.9218</ele>
        <time>2013-05-30T19:00:57Z</time>
      </trkpt>
      <trkpt lat="59.709574" lon="17.8020397">
        <ele>17.9218</ele>
        <time>2013-05-30T19:00:58Z</time>
      </trkpt>
      <trkpt lat="59.7094927" lon="17.8020918">
        <ele>17.4412</ele>
        <time>2013-05-30T19:00:59Z</time>
      </trkpt>
      <trkpt lat="59.7094122" lon="17.8021428">
        <ele>16.9604</ele>
        <time>2013-05-30T19:01:00Z</time>
      </trkpt>
      <trkpt lat="59.7093325" lon="17.8021946">
        <ele>16.4797</ele>
        <time>2013-05-30T19:01:01Z</time>
      </trkpt>
      <trkpt lat="59.7092523" lon="17.8022473">
        <ele>16.4797</ele>
        <time>2013-05-30T19:01:02Z</time>
      </trkpt>
      <trkpt lat="59.7091718" lon="17.8023003">
        <ele>16.4797</ele>
        <time>2013-05-30T19:01:03Z</time>
      </trkpt>
      <trkpt lat="59.7090922" lon="17.8023552">
        <ele>15.999</ele>
        <time>2013-05-30T19:01:04Z</time>
      </trkpt>
      <trkpt lat="59.709014" lon="17.8024117">
        <ele>15.999</ele>
        <time>2013-05-30T19:01:05Z</time>
      </trkpt>
      <trkpt lat="59.7089367" lon="17.8024728">
        <ele>15.999</ele>
        <time>2013-05-30T19:01:06Z</time>
      </trkpt>
      <trkpt lat="59.7088597" lon="17.8025376">
        <ele>15.5184</ele>
        <time>2013-05-30T19:01:07Z</time>
      </trkpt>
      <trkpt lat="59.7087825" lon="17.8026044">
        <ele>15.5184</ele>
        <time>2013-05-30T19:01:08Z</time>
      </trkpt>
      <trkpt lat="59.7087047" lon="17.80267">
        <ele>15.5184</ele>
        <time>2013-05-30T19:01:09Z</time>
      </trkpt>
      <trkpt lat="59.7086253" lon="17.8027313">
        <ele>15.0377</ele>
        <time>2013-05-30T19:01:10Z</time>
      </trkpt>
      <trkpt lat="59.7085463" lon="17.8027922">
        <ele>14.557</ele>
        <time>2013-05-30T19:01:11Z</time>
      </trkpt>
      <trkpt lat="59.7084691" lon="17.8028541">
        <ele>14.0764</ele>
        <time>2013-05-30T19:01:12Z</time>
      </trkpt>
      <trkpt lat="59.7083919" lon="17.8029146">
        <ele>14.0764</ele>
        <time>2013-05-30T19:01:13Z</time>
      </trkpt>
      <trkpt lat="59.7083137" lon="17.8029706">
        <ele>13.5958</ele>
        <time>2013-05-30T19:01:14Z</time>
      </trkpt>
      <trkpt lat="59.7082343" lon="17.8030208">
        <ele>13.1151</ele>
        <time>2013-05-30T19:01:15Z</time>
      </trkpt>
      <trkpt lat="59.7081526" lon="17.8030596">
        <ele>13.1151</ele>
        <time>2013-05-30T19:01:16Z</time>
      </trkpt>
      <trkpt lat="59.7080723" lon="17.8031044">
        <ele>14.0764</ele>
        <time>2013-05-30T19:01:17Z</time>
      </trkpt>
      <trkpt lat="59.707989" lon="17.8031136">
        <ele>14.557</ele>
        <time>2013-05-30T19:01:18Z</time>
      </trkpt>
      <trkpt lat="59.7079075" lon="17.8030954">
        <ele>15.0377</ele>
        <time>2013-05-30T19:01:19Z</time>
      </trkpt>
      <trkpt lat="59.7078256" lon="17.8030576">
        <ele>15.5184</ele>
        <time>2013-05-30T19:01:20Z</time>
      </trkpt>
      <trkpt lat="59.7077429" lon="17.803016">
        <ele>15.999</ele>
        <time>2013-05-30T19:01:21Z</time>
      </trkpt>
      <trkpt lat="59.7076623" lon="17.8029753">
        <ele>16.4797</ele>
        <time>2013-05-30T19:01:22Z</time>
      </trkpt>
      <trkpt lat="59.7075776" lon="17.8029517">
        <ele>16.9604</ele>
        <time>2013-05-30T19:01:23Z</time>
      </trkpt>
      <trkpt lat="59.7074847" lon="17.8029569">
        <ele>16.9604</ele>
        <time>2013-05-30T19:01:24Z</time>
      </trkpt>
      <trkpt lat="59.7073928" lon="17.8029893">
        <ele>17.4412</ele>
        <time>2013-05-30T19:01:25Z</time>
      </trkpt>
      <trkpt lat="59.7073168" lon="17.8030846">
        <ele>19.3638</ele>
        <time>2013-05-30T19:01:26Z</time>
      </trkpt>
      <trkpt lat="59.7072387" lon="17.8031672">
        <ele>19.3638</ele>
        <time>2013-05-30T19:01:27Z</time>
      </trkpt>
      <trkpt lat="59.7071797" lon="17.8032866">
        <ele>19.3638</ele>
        <time>2013-05-30T19:01:28Z</time>
      </trkpt>
      <trkpt lat="59.7071217" lon="17.8034011">
        <ele>18.8831</ele>
        <time>2013-05-30T19:01:29Z</time>
      </trkpt>
      <trkpt lat="59.7070635" lon="17.8035046">
        <ele>18.4023</ele>
        <time>2013-05-30T19:01:30Z</time>
      </trkpt>
      <trkpt lat="59.7070031" lon="17.8036037">
        <ele>17.4412</ele>
        <time>2013-05-30T19:01:31Z</time>
      </trkpt>
      <trkpt lat="59.7069435" lon="17.8037122">
        <ele>17.9218</ele>
        <time>2013-05-30T19:01:32Z</time>
      </trkpt>
      <trkpt lat="59.7068818" lon="17.8038151">
        <ele>17.9218</ele>
        <time>2013-05-30T19:01:33Z</time>
      </trkpt>
      <trkpt lat="59.7068183" lon="17.8039142">
        <ele>17.4412</ele>
        <time>2013-05-30T19:01:34Z</time>
      </trkpt>
      <trkpt lat="59.7067602" lon="17.804018">
        <ele>17.9218</ele>
        <time>2013-05-30T19:01:35Z</time>
      </trkpt>
      <trkpt lat="59.706705" lon="17.8041195">
        <ele>17.9218</ele>
        <time>2013-05-30T19:01:36Z</time>
      </trkpt>
      <trkpt lat="59.7066524" lon="17.8042157">
        <ele>18.4023</ele>
        <time>2013-05-30T19:01:37Z</time>
      </trkpt>
      <trkpt lat="59.7066025" lon="17.8043075">
        <ele>18.4023</ele>
        <time>2013-05-30T19:01:38Z</time>
      </trkpt>
      <trkpt lat="59.7065548" lon="17.8043998">
        <ele>18.8831</ele>
        <time>2013-05-30T19:01:39Z</time>
      </trkpt>
      <trkpt lat="59.7065093" lon="17.8044924">
        <ele>19.3638</ele>
        <time>2013-05-30T19:01:40Z</time>
      </trkpt>
      <trkpt lat="59.7064688" lon="17.8046055">
        <ele>20.325</ele>
        <time>2013-05-30T19:01:41Z</time>
      </trkpt>
      <trkpt lat="59.7064255" lon="17.8047057">
        <ele>21.2864</ele>
        <time>2013-05-30T19:01:42Z</time>
      </trkpt>
      <trkpt lat="59.7063789" lon="17.8047987">
        <ele>21.767</ele>
        <time>2013-05-30T19:01:43Z</time>
      </trkpt>
      <trkpt lat="59.7063241" lon="17.804887">
        <ele>21.2864</ele>
        <time>2013-05-30T19:01:44Z</time>
      </trkpt>
      <trkpt lat="59.7062675" lon="17.8049772">
        <ele>20.325</ele>
        <time>2013-05-30T19:01:45Z</time>
      </trkpt>
      <trkpt lat="59.7062187" lon="17.8050935">
        <ele>21.2864</ele>
        <time>2013-05-30T19:01:46Z</time>
      </trkpt>
      <trkpt lat="59.7061648" lon="17.8051816">
        <ele>20.8057</ele>
        <time>2013-05-30T19:01:47Z</time>
      </trkpt>
      <trkpt lat="59.7061178" lon="17.8052875">
        <ele>22.2476</ele>
        <time>2013-05-30T19:01:48Z</time>
      </trkpt>
      <trkpt lat="59.7060686" lon="17.8053704">
        <ele>22.2476</ele>
        <time>2013-05-30T19:01:49Z</time>
      </trkpt>
      <trkpt lat="59.7060151" lon="17.8054451">
        <ele>22.2476</ele>
        <time>2013-05-30T19:01:50Z</time>
      </trkpt>
      <trkpt lat="59.7059614" lon="17.805527">
        <ele>22.2476</ele>
        <time>2013-05-30T19:01:51Z</time>
      </trkpt>
      <trkpt lat="59.7059078" lon="17.8056057">
        <ele>22.2476</ele>
        <time>2013-05-30T19:01:52Z</time>
      </trkpt>
      <trkpt lat="59.7058525" lon="17.8056778">
        <ele>22.7283</ele>
        <time>2013-05-30T19:01:53Z</time>
      </trkpt>
      <trkpt lat="59.7057981" lon="17.8057275">
        <ele>21.767</ele>
        <time>2013-05-30T19:01:54Z</time>
      </trkpt>
      <trkpt lat="59.705746" lon="17.8057956">
        <ele>22.2476</ele>
        <time>2013-05-30T19:01:55Z</time>
      </trkpt>
      <trkpt lat="59.7056946" lon="17.8058533">
        <ele>22.2476</ele>
        <time>2013-05-30T19:01:56Z</time>
      </trkpt>
      <trkpt lat="59.7056416" lon="17.8059088">
        <ele>22.7283</ele>
        <time>2013-05-30T19:01:57Z</time>
      </trkpt>
      <trkpt lat="59.7055868" lon="17.8059818">
        <ele>23.209</ele>
        <time>2013-05-30T19:01:58Z</time>
      </trkpt>
      <trkpt lat="59.7055308" lon="17.8060407">
        <ele>23.6896</ele>
        <time>2013-05-30T19:01:59Z</time>
      </trkpt>
      <trkpt lat="59.7054776" lon="17.806104">
        <ele>23.6896</ele>
        <time>2013-05-30T19:02:00Z</time>
      </trkpt>
      <trkpt lat="59.7054323" lon="17.8061691">
        <ele>24.651</ele>
        <time>2013-05-30T19:02:01Z</time>
      </trkpt>
      <trkpt lat="59.7053849" lon="17.8062346">
        <ele>25.1317</ele>
        <time>2013-05-30T19:02:02Z</time>
      </trkpt>
      <trkpt lat="59.7053397" lon="17.806305">
        <ele>26.0929</ele>
        <time>2013-05-30T19:02:03Z</time>
      </trkpt>
      <trkpt lat="59.7052863" lon="17.8063634">
        <ele>26.0929</ele>
        <time>2013-05-30T19:02:04Z</time>
      </trkpt>
      <trkpt lat="59.7052351" lon="17.8064216">
        <ele>27.0543</ele>
        <time>2013-05-30T19:02:05Z</time>
      </trkpt>
      <trkpt lat="59.7051827" lon="17.8064665">
        <ele>27.5349</ele>
        <time>2013-05-30T19:02:06Z</time>
      </trkpt>
      <trkpt lat="59.7051383" lon="17.8065064">
        <ele>29.4575</ele>
        <time>2013-05-30T19:02:07Z</time>
      </trkpt>
      <trkpt lat="59.7050925" lon="17.8065434">
        <ele>31.8607</ele>
        <time>2013-05-30T19:02:08Z</time>
      </trkpt>
      <trkpt lat="59.7050474" lon="17.8065666">
        <ele>33.3029</ele>
        <time>2013-05-30T19:02:09Z</time>
      </trkpt>
      <trkpt lat="59.7049962" lon="17.8065898">
        <ele>33.7834</ele>
        <time>2013-05-30T19:02:10Z</time>
      </trkpt>
      <trkpt lat="59.7049394" lon="17.8066101">
        <ele>33.7834</ele>
        <time>2013-05-30T19:02:11Z</time>
      </trkpt>
      <trkpt lat="59.7048767" lon="17.8066301">
        <ele>33.7834</ele>
        <time>2013-05-30T19:02:12Z</time>
      </trkpt>
      <trkpt lat="59.704814" lon="17.8066376">
        <ele>33.7834</ele>
        <time>2013-05-30T19:02:13Z</time>
      </trkpt>
      <trkpt lat="59.7047482" lon="17.8066483">
        <ele>34.2642</ele>
        <time>2013-05-30T19:02:14Z</time>
      </trkpt>
      <trkpt lat="59.7046817" lon="17.8066587">
        <ele>34.2642</ele>
        <time>2013-05-30T19:02:15Z</time>
      </trkpt>
      <trkpt lat="59.704612" lon="17.806682">
        <ele>34.7449</ele>
        <time>2013-05-30T19:02:16Z</time>
      </trkpt>
      <trkpt lat="59.7045418" lon="17.8067193">
        <ele>35.2255</ele>
        <time>2013-05-30T19:02:17Z</time>
      </trkpt>
      <trkpt lat="59.7044714" lon="17.806757">
        <ele>35.2255</ele>
        <time>2013-05-30T19:02:18Z</time>
      </trkpt>
      <trkpt lat="59.7044075" lon="17.806819">
        <ele>36.1868</ele>
        <time>2013-05-30T19:02:19Z</time>
      </trkpt>
      <trkpt lat="59.70434" lon="17.8068834">
        <ele>35.7061</ele>
        <time>2013-05-30T19:02:20Z</time>
      </trkpt>
      <trkpt lat="59.7042742" lon="17.8069537">
        <ele>34.7449</ele>
        <time>2013-05-30T19:02:21Z</time>
      </trkpt>
      <trkpt lat="59.7042036" lon="17.8069976">
        <ele>31.8607</ele>
        <time>2013-05-30T19:02:22Z</time>
      </trkpt>
      <trkpt lat="59.7041436" lon="17.8070472">
        <ele>31.3801</ele>
        <time>2013-05-30T19:02:23Z</time>
      </trkpt>
      <trkpt lat="59.7040945" lon="17.8071225">
        <ele>32.3416</ele>
        <time>2013-05-30T19:02:24Z</time>
      </trkpt>
      <trkpt lat="59.7040468" lon="17.8072047">
        <ele>33.3029</ele>
        <time>2013-05-30T19:02:25Z</time>
      </trkpt>
      <trkpt lat="59.703994" lon="17.8072897">
        <ele>32.3416</ele>
        <time>2013-05-30T19:02:26Z</time>
      </trkpt>
      <trkpt lat="59.7039412" lon="17.8073825">
        <ele>32.3416</ele>
        <time>2013-05-30T19:02:27Z</time>
      </trkpt>
      <trkpt lat="59.7038783" lon="17.807468">
        <ele>30.8995</ele>
        <time>2013-05-30T19:02:28Z</time>
      </trkpt>
      <trkpt lat="59.7038095" lon="17.8075452">
        <ele>30.8995</ele>
        <time>2013-05-30T19:02:29Z</time>
      </trkpt>
      <trkpt lat="59.7037345" lon="17.8076031">
        <ele>30.4188</ele>
        <time>2013-05-30T19:02:30Z</time>
      </trkpt>
      <trkpt lat="59.7036566" lon="17.8076429">
        <ele>30.4188</ele>
        <time>2013-05-30T19:02:31Z</time>
      </trkpt>
      <trkpt lat="59.7035816" lon="17.8076545">
        <ele>29.4575</ele>
        <time>2013-05-30T19:02:32Z</time>
      </trkpt>
      <trkpt lat="59.7035098" lon="17.8076441">
        <ele>28.0155</ele>
        <time>2013-05-30T19:02:33Z</time>
      </trkpt>
      <trkpt lat="59.7034308" lon="17.8076201">
        <ele>27.0543</ele>
        <time>2013-05-30T19:02:34Z</time>
      </trkpt>
      <trkpt lat="59.703348" lon="17.8075859">
        <ele>26.5736</ele>
        <time>2013-05-30T19:02:35Z</time>
      </trkpt>
      <trkpt lat="59.7032691" lon="17.8075408">
        <ele>25.1317</ele>
        <time>2013-05-30T19:02:36Z</time>
      </trkpt>
      <trkpt lat="59.7031917" lon="17.8074923">
        <ele>24.1703</ele>
        <time>2013-05-30T19:02:37Z</time>
      </trkpt>
      <trkpt lat="59.703116" lon="17.8074364">
        <ele>23.209</ele>
        <time>2013-05-30T19:02:38Z</time>
      </trkpt>
      <trkpt lat="59.7030429" lon="17.8073755">
        <ele>22.2476</ele>
        <time>2013-05-30T19:02:39Z</time>
      </trkpt>
      <trkpt lat="59.70297" lon="17.8073093">
        <ele>21.2864</ele>
        <time>2013-05-30T19:02:40Z</time>
      </trkpt>
      <trkpt lat="59.7029006" lon="17.807239">
        <ele>20.325</ele>
        <time>2013-05-30T19:02:41Z</time>
      </trkpt>
      <trkpt lat="59.7028351" lon="17.807169">
        <ele>19.8444</ele>
        <time>2013-05-30T19:02:42Z</time>
      </trkpt>
      <trkpt lat="59.7027749" lon="17.8070971">
        <ele>19.3638</ele>
        <time>2013-05-30T19:02:43Z</time>
      </trkpt>
      <trkpt lat="59.7027342" lon="17.8070197">
        <ele>21.2864</ele>
        <time>2013-05-30T19:02:44Z</time>
      </trkpt>
      <trkpt lat="59.7026925" lon="17.8069293">
        <ele>21.2864</ele>
        <time>2013-05-30T19:02:45Z</time>
      </trkpt>
      <trkpt lat="59.7026543" lon="17.8068366">
        <ele>20.8057</ele>
        <time>2013-05-30T19:02:46Z</time>
      </trkpt>
      <trkpt lat="59.7026219" lon="17.8067407">
        <ele>21.2864</ele>
        <time>2013-05-30T19:02:47Z</time>
      </trkpt>
      <trkpt lat="59.7025943" lon="17.8066431">
        <ele>21.767</ele>
        <time>2013-05-30T19:02:48Z</time>
      </trkpt>
      <trkpt lat="59.7025665" lon="17.8065388">
        <ele>21.767</ele>
        <time>2013-05-30T19:02:49Z</time>
      </trkpt>
      <trkpt lat="59.7025491" lon="17.8064438">
        <ele>22.7283</ele>
        <time>2013-05-30T19:02:50Z</time>
      </trkpt>
      <trkpt lat="59.7025269" lon="17.8063388">
        <ele>22.2476</ele>
        <time>2013-05-30T19:02:51Z</time>
      </trkpt>
      <trkpt lat="59.7024985" lon="17.8062356">
        <ele>22.2476</ele>
        <time>2013-05-30T19:02:52Z</time>
      </trkpt>
      <trkpt lat="59.7024739" lon="17.8061324">
        <ele>22.7283</ele>
        <time>2013-05-30T19:02:53Z</time>
      </trkpt>
      <trkpt lat="59.7024431" lon="17.8060247">
        <ele>23.209</ele>
        <time>2013-05-30T19:02:54Z</time>
      </trkpt>
      <trkpt lat="59.7024006" lon="17.805917">
        <ele>22.7283</ele>
        <time>2013-05-30T19:02:55Z</time>
      </trkpt>
      <trkpt lat="59.7023519" lon="17.8058192">
        <ele>23.209</ele>
        <time>2013-05-30T19:02:56Z</time>
      </trkpt>
      <trkpt lat="59.7022958" lon="17.8057274">
        <ele>23.209</ele>
        <time>2013-05-30T19:02:57Z</time>
      </trkpt>
      <trkpt lat="59.7022327" lon="17.8056466">
        <ele>23.209</ele>
        <time>2013-05-30T19:02:58Z</time>
      </trkpt>
      <trkpt lat="59.7021643" lon="17.8055817">
        <ele>23.209</ele>
        <time>2013-05-30T19:02:59Z</time>
      </trkpt>
      <trkpt lat="59.702092" lon="17.8055285">
        <ele>23.6896</ele>
        <time>2013-05-30T19:03:00Z</time>
      </trkpt>
      <trkpt lat="59.7020183" lon="17.8054788">
        <ele>23.6896</ele>
        <time>2013-05-30T19:03:01Z</time>
      </trkpt>
      <trkpt lat="59.7019438" lon="17.8054332">
        <ele>23.209</ele>
        <time>2013-05-30T19:03:02Z</time>
      </trkpt>
      <trkpt lat="59.7018696" lon="17.8053912">
        <ele>23.209</ele>
        <time>2013-05-30T19:03:03Z</time>
      </trkpt>
      <trkpt lat="59.7017949" lon="17.8053472">
        <ele>22.2476</ele>
        <time>2013-05-30T19:03:04Z</time>
      </trkpt>
      <trkpt lat="59.7017198" lon="17.8053046">
        <ele>21.767</ele>
        <time>2013-05-30T19:03:05Z</time>
      </trkpt>
      <trkpt lat="59.7016401" lon="17.8052616">
        <ele>21.2864</ele>
        <time>2013-05-30T19:03:06Z</time>
      </trkpt>
      <trkpt lat="59.7015609" lon="17.8052243">
        <ele>21.2864</ele>
        <time>2013-05-30T19:03:07Z</time>
      </trkpt>
      <trkpt lat="59.7014837" lon="17.8051861">
        <ele>21.2864</ele>
        <time>2013-05-30T19:03:08Z</time>
      </trkpt>
      <trkpt lat="59.7014074" lon="17.8051519">
        <ele>21.2864</ele>
        <time>2013-05-30T19:03:09Z</time>
      </trkpt>
      <trkpt lat="59.7013315" lon="17.8051203">
        <ele>21.2864</ele>
        <time>2013-05-30T19:03:10Z</time>
      </trkpt>
      <trkpt lat="59.7012598" lon="17.8050929">
        <ele>21.767</ele>
        <time>2013-05-30T19:03:11Z</time>
      </trkpt>
      <trkpt lat="59.7011895" lon="17.8050691">
        <ele>21.767</ele>
        <time>2013-05-30T19:03:12Z</time>
      </trkpt>
      <trkpt lat="59.7011195" lon="17.8050489">
        <ele>21.767</ele>
        <time>2013-05-30T19:03:13Z</time>
      </trkpt>
      <trkpt lat="59.7010496" lon="17.8050314">
        <ele>22.2476</ele>
        <time>2013-05-30T19:03:14Z</time>
      </trkpt>
      <trkpt lat="59.7009803" lon="17.8050172">
        <ele>22.2476</ele>
        <time>2013-05-30T19:03:15Z</time>
      </trkpt>
      <trkpt lat="59.7009108" lon="17.8050038">
        <ele>22.7283</ele>
        <time>2013-05-30T19:03:16Z</time>
      </trkpt>
      <trkpt lat="59.7008403" lon="17.8049914">
        <ele>22.7283</ele>
        <time>2013-05-30T19:03:17Z</time>
      </trkpt>
      <trkpt lat="59.7007677" lon="17.8049826">
        <ele>22.7283</ele>
        <time>2013-05-30T19:03:18Z</time>
      </trkpt>
      <trkpt lat="59.7006926" lon="17.8049785">
        <ele>23.6896</ele>
        <time>2013-05-30T19:03:19Z</time>
      </trkpt>
      <trkpt lat="59.7006155" lon="17.8049761">
        <ele>23.6896</ele>
        <time>2013-05-30T19:03:20Z</time>
      </trkpt>
      <trkpt lat="59.7005358" lon="17.8049753">
        <ele>23.6896</ele>
        <time>2013-05-30T19:03:21Z</time>
      </trkpt>
      <trkpt lat="59.7004544" lon="17.8049784">
        <ele>23.6896</ele>
        <time>2013-05-30T19:03:22Z</time>
      </trkpt>
      <trkpt lat="59.7003715" lon="17.8049862">
        <ele>23.209</ele>
        <time>2013-05-30T19:03:23Z</time>
      </trkpt>
      <trkpt lat="59.700291" lon="17.805">
        <ele>24.1703</ele>
        <time>2013-05-30T19:03:24Z</time>
      </trkpt>
      <trkpt lat="59.700213" lon="17.8050184">
        <ele>24.651</ele>
        <time>2013-05-30T19:03:25Z</time>
      </trkpt>
      <trkpt lat="59.7001368" lon="17.8050398">
        <ele>25.1317</ele>
        <time>2013-05-30T19:03:26Z</time>
      </trkpt>
      <trkpt lat="59.7000618" lon="17.8050619">
        <ele>25.6123</ele>
        <time>2013-05-30T19:03:27Z</time>
      </trkpt>
      <trkpt lat="59.6999897" lon="17.8050856">
        <ele>26.0929</ele>
        <time>2013-05-30T19:03:28Z</time>
      </trkpt>
      <trkpt lat="59.6999192" lon="17.8051126">
        <ele>26.5736</ele>
        <time>2013-05-30T19:03:29Z</time>
      </trkpt>
      <trkpt lat="59.6998494" lon="17.8051437">
        <ele>27.0543</ele>
        <time>2013-05-30T19:03:30Z</time>
      </trkpt>
      <trkpt lat="59.6997811" lon="17.8051778">
        <ele>27.5349</ele>
        <time>2013-05-30T19:03:31Z</time>
      </trkpt>
      <trkpt lat="59.6997141" lon="17.8052165">
        <ele>28.0155</ele>
        <time>2013-05-30T19:03:32Z</time>
      </trkpt>
      <trkpt lat="59.6996469" lon="17.8052574">
        <ele>28.4962</ele>
        <time>2013-05-30T19:03:33Z</time>
      </trkpt>
      <trkpt lat="59.6995785" lon="17.8052965">
        <ele>28.9769</ele>
        <time>2013-05-30T19:03:34Z</time>
      </trkpt>
      <trkpt lat="59.6995137" lon="17.8053318">
        <ele>28.9769</ele>
        <time>2013-05-30T19:03:35Z</time>
      </trkpt>
      <trkpt lat="59.6994483" lon="17.8053752">
        <ele>29.4575</ele>
        <time>2013-05-30T19:03:36Z</time>
      </trkpt>
      <trkpt lat="59.699381" lon="17.8054235">
        <ele>29.9381</ele>
        <time>2013-05-30T19:03:37Z</time>
      </trkpt>
      <trkpt lat="59.6993138" lon="17.8054753">
        <ele>30.4188</ele>
        <time>2013-05-30T19:03:38Z</time>
      </trkpt>
      <trkpt lat="59.6992459" lon="17.8055257">
        <ele>30.4188</ele>
        <time>2013-05-30T19:03:39Z</time>
      </trkpt>
      <trkpt lat="59.6991774" lon="17.805574">
        <ele>30.4188</ele>
        <time>2013-05-30T19:03:40Z</time>
      </trkpt>
      <trkpt lat="59.6991077" lon="17.8056219">
        <ele>30.8995</ele>
        <time>2013-05-30T19:03:41Z</time>
      </trkpt>
      <trkpt lat="59.6990371" lon="17.8056684">
        <ele>30.4188</ele>
        <time>2013-05-30T19:03:42Z</time>
      </trkpt>
      <trkpt lat="59.6989662" lon="17.8057159">
        <ele>29.9381</ele>
        <time>2013-05-30T19:03:43Z</time>
      </trkpt>
      <trkpt lat="59.6988952" lon="17.8057651">
        <ele>29.9381</ele>
        <time>2013-05-30T19:03:44Z</time>
      </trkpt>
      <trkpt lat="59.6988238" lon="17.8058146">
        <ele>29.4575</ele>
        <time>2013-05-30T19:03:45Z</time>
      </trkpt>
      <trkpt lat="59.6987521" lon="17.8058616">
        <ele>28.9769</ele>
        <time>2013-05-30T19:03:46Z</time>
      </trkpt>
      <trkpt lat="59.6986797" lon="17.805908">
        <ele>28.9769</ele>
        <time>2013-05-30T19:03:47Z</time>
      </trkpt>
      <trkpt lat="59.6986067" lon="17.8059557">
        <ele>28.4962</ele>
        <time>2013-05-30T19:03:48Z</time>
      </trkpt>
      <trkpt lat="59.6985366" lon="17.8060077">
        <ele>28.9769</ele>
        <time>2013-05-30T19:03:49Z</time>
      </trkpt>
      <trkpt lat="59.6984671" lon="17.806059">
        <ele>28.9769</ele>
        <time>2013-05-30T19:03:50Z</time>
      </trkpt>
      <trkpt lat="59.6983987" lon="17.8061083">
        <ele>28.9769</ele>
        <time>2013-05-30T19:03:51Z</time>
      </trkpt>
      <trkpt lat="59.6983315" lon="17.8061574">
        <ele>28.9769</ele>
        <time>2013-05-30T19:03:52Z</time>
      </trkpt>
      <trkpt lat="59.6982646" lon="17.8062052">
        <ele>28.9769</ele>
        <time>2013-05-30T19:03:53Z</time>
      </trkpt>
      <trkpt lat="59.6981976" lon="17.8062549">
        <ele>28.9769</ele>
        <time>2013-05-30T19:03:54Z</time>
      </trkpt>
      <trkpt lat="59.6981304" lon="17.8063118">
        <ele>29.4575</ele>
        <time>2013-05-30T19:03:55Z</time>
      </trkpt>
      <trkpt lat="59.6980611" lon="17.8063655">
        <ele>29.4575</ele>
        <time>2013-05-30T19:03:56Z</time>
      </trkpt>
      <trkpt lat="59.6979913" lon="17.8064179">
        <ele>29.4575</ele>
        <time>2013-05-30T19:03:57Z</time>
      </trkpt>
      <trkpt lat="59.6979218" lon="17.8064709">
        <ele>29.4575</ele>
        <time>2013-05-30T19:03:58Z</time>
      </trkpt>
      <trkpt lat="59.6978525" lon="17.8065253">
        <ele>29.4575</ele>
        <time>2013-05-30T19:03:59Z</time>
      </trkpt>
      <trkpt lat="59.6977834" lon="17.8065783">
        <ele>29.4575</ele>
        <time>2013-05-30T19:04:00Z</time>
      </trkpt>
      <trkpt lat="59.6977148" lon="17.8066303">
        <ele>29.4575</ele>
        <time>2013-05-30T19:04:01Z</time>
      </trkpt>
      <trkpt lat="59.6976468" lon="17.8066851">
        <ele>29.4575</ele>
        <time>2013-05-30T19:04:02Z</time>
      </trkpt>
      <trkpt lat="59.6975779" lon="17.80674">
        <ele>28.9769</ele>
        <time>2013-05-30T19:04:03Z</time>
      </trkpt>
      <trkpt lat="59.6975091" lon="17.8067959">
        <ele>28.4962</ele>
        <time>2013-05-30T19:04:04Z</time>
      </trkpt>
      <trkpt lat="59.6974404" lon="17.8068542">
        <ele>28.4962</ele>
        <time>2013-05-30T19:04:05Z</time>
      </trkpt>
      <trkpt lat="59.6973705" lon="17.8069131">
        <ele>28.0155</ele>
        <time>2013-05-30T19:04:06Z</time>
      </trkpt>
      <trkpt lat="59.6973008" lon="17.8069722">
        <ele>27.5349</ele>
        <time>2013-05-30T19:04:07Z</time>
      </trkpt>
      <trkpt lat="59.6972308" lon="17.8070385">
        <ele>28.0155</ele>
        <time>2013-05-30T19:04:08Z</time>
      </trkpt>
      <trkpt lat="59.6971613" lon="17.8071064">
        <ele>28.0155</ele>
        <time>2013-05-30T19:04:09Z</time>
      </trkpt>
      <trkpt lat="59.6970926" lon="17.8071736">
        <ele>28.0155</ele>
        <time>2013-05-30T19:04:10Z</time>
      </trkpt>
      <trkpt lat="59.6970247" lon="17.807239">
        <ele>28.0155</ele>
        <time>2013-05-30T19:04:11Z</time>
      </trkpt>
      <trkpt lat="59.6969563" lon="17.8073039">
        <ele>27.5349</ele>
        <time>2013-05-30T19:04:12Z</time>
      </trkpt>
      <trkpt lat="59.6968874" lon="17.8073681">
        <ele>27.5349</ele>
        <time>2013-05-30T19:04:13Z</time>
      </trkpt>
      <trkpt lat="59.696819" lon="17.8074292">
        <ele>27.0543</ele>
        <time>2013-05-30T19:04:14Z</time>
      </trkpt>
      <trkpt lat="59.6967525" lon="17.8074924">
        <ele>27.0543</ele>
        <time>2013-05-30T19:04:15Z</time>
      </trkpt>
      <trkpt lat="59.6966854" lon="17.8075565">
        <ele>26.0929</ele>
        <time>2013-05-30T19:04:16Z</time>
      </trkpt>
      <trkpt lat="59.6966175" lon="17.8076214">
        <ele>25.6123</ele>
        <time>2013-05-30T19:04:17Z</time>
      </trkpt>
      <trkpt lat="59.6965503" lon="17.8076902">
        <ele>25.6123</ele>
        <time>2013-05-30T19:04:18Z</time>
      </trkpt>
      <trkpt lat="59.6964824" lon="17.8077621">
        <ele>25.1317</ele>
        <time>2013-05-30T19:04:19Z</time>
      </trkpt>
      <trkpt lat="59.6964143" lon="17.807833">
        <ele>24.651</ele>
        <time>2013-05-30T19:04:20Z</time>
      </trkpt>
      <trkpt lat="59.696348" lon="17.807912">
        <ele>24.651</ele>
        <time>2013-05-30T19:04:21Z</time>
      </trkpt>
      <trkpt lat="59.6962834" lon="17.8079926">
        <ele>25.1317</ele>
        <time>2013-05-30T19:04:22Z</time>
      </trkpt>
      <trkpt lat="59.6962193" lon="17.808069">
        <ele>25.1317</ele>
        <time>2013-05-30T19:04:23Z</time>
      </trkpt>
      <trkpt lat="59.6961542" lon="17.8081432">
        <ele>25.1317</ele>
        <time>2013-05-30T19:04:24Z</time>
      </trkpt>
      <trkpt lat="59.69609" lon="17.808218">
        <ele>24.651</ele>
        <time>2013-05-30T19:04:25Z</time>
      </trkpt>
      <trkpt lat="59.6960264" lon="17.8082963">
        <ele>24.651</ele>
        <time>2013-05-30T19:04:26Z</time>
      </trkpt>
      <trkpt lat="59.6959636" lon="17.8083776">
        <ele>24.651</ele>
        <time>2013-05-30T19:04:27Z</time>
      </trkpt>
      <trkpt lat="59.6959004" lon="17.8084588">
        <ele>24.651</ele>
        <time>2013-05-30T19:04:28Z</time>
      </trkpt>
      <trkpt lat="59.695836" lon="17.8085356">
        <ele>24.651</ele>
        <time>2013-05-30T19:04:29Z</time>
      </trkpt>
      <trkpt lat="59.6957727" lon="17.8086133">
        <ele>24.1703</ele>
        <time>2013-05-30T19:04:30Z</time>
      </trkpt>
      <trkpt lat="59.6957082" lon="17.8086913">
        <ele>23.6896</ele>
        <time>2013-05-30T19:04:31Z</time>
      </trkpt>
      <trkpt lat="59.6956458" lon="17.8087752">
        <ele>23.6896</ele>
        <time>2013-05-30T19:04:32Z</time>
      </trkpt>
      <trkpt lat="59.6955862" lon="17.8088591">
        <ele>23.6896</ele>
        <time>2013-05-30T19:04:33Z</time>
      </trkpt>
      <trkpt lat="59.6955283" lon="17.808939">
        <ele>23.209</ele>
        <time>2013-05-30T19:04:34Z</time>
      </trkpt>
      <trkpt lat="59.6954712" lon="17.8090179">
        <ele>23.209</ele>
        <time>2013-05-30T19:04:35Z</time>
      </trkpt>
      <trkpt lat="59.6954142" lon="17.8090957">
        <ele>22.7283</ele>
        <time>2013-05-30T19:04:36Z</time>
      </trkpt>
      <trkpt lat="59.6953588" lon="17.8091748">
        <ele>22.7283</ele>
        <time>2013-05-30T19:04:37Z</time>
      </trkpt>
      <trkpt lat="59.6953045" lon="17.8092552">
        <ele>22.7283</ele>
        <time>2013-05-30T19:04:38Z</time>
      </trkpt>
      <trkpt lat="59.6952504" lon="17.8093363">
        <ele>22.2476</ele>
        <time>2013-05-30T19:04:39Z</time>
      </trkpt>
      <trkpt lat="59.6951978" lon="17.8094192">
        <ele>22.2476</ele>
        <time>2013-05-30T19:04:40Z</time>
      </trkpt>
      <trkpt lat="59.6951447" lon="17.8095025">
        <ele>22.2476</ele>
        <time>2013-05-30T19:04:41Z</time>
      </trkpt>
      <trkpt lat="59.6950909" lon="17.8095861">
        <ele>22.2476</ele>
        <time>2013-05-30T19:04:42Z</time>
      </trkpt>
      <trkpt lat="59.6950386" lon="17.8096707">
        <ele>21.767</ele>
        <time>2013-05-30T19:04:43Z</time>
      </trkpt>
      <trkpt lat="59.6949871" lon="17.809756">
        <ele>21.767</ele>
        <time>2013-05-30T19:04:44Z</time>
      </trkpt>
      <trkpt lat="59.6949354" lon="17.8098414">
        <ele>21.767</ele>
        <time>2013-05-30T19:04:45Z</time>
      </trkpt>
      <trkpt lat="59.6948839" lon="17.8099269">
        <ele>21.767</ele>
        <time>2013-05-30T19:04:46Z</time>
      </trkpt>
      <trkpt lat="59.6948323" lon="17.8100113">
        <ele>21.2864</ele>
        <time>2013-05-30T19:04:47Z</time>
      </trkpt>
      <trkpt lat="59.6947807" lon="17.8100951">
        <ele>21.2864</ele>
        <time>2013-05-30T19:04:48Z</time>
      </trkpt>
      <trkpt lat="59.6947288" lon="17.8101791">
        <ele>20.8057</ele>
        <time>2013-05-30T19:04:49Z</time>
      </trkpt>
      <trkpt lat="59.6946766" lon="17.8102637">
        <ele>20.8057</ele>
        <time>2013-05-30T19:04:50Z</time>
      </trkpt>
      <trkpt lat="59.6946253" lon="17.8103508">
        <ele>20.8057</ele>
        <time>2013-05-30T19:04:51Z</time>
      </trkpt>
      <trkpt lat="59.6945722" lon="17.8104406">
        <ele>20.8057</ele>
        <time>2013-05-30T19:04:52Z</time>
      </trkpt>
      <trkpt lat="59.6945185" lon="17.8105303">
        <ele>20.325</ele>
        <time>2013-05-30T19:04:53Z</time>
      </trkpt>
      <trkpt lat="59.6944647" lon="17.8106206">
        <ele>20.325</ele>
        <time>2013-05-30T19:04:54Z</time>
      </trkpt>
      <trkpt lat="59.6944113" lon="17.810711">
        <ele>20.325</ele>
        <time>2013-05-30T19:04:55Z</time>
      </trkpt>
      <trkpt lat="59.6943589" lon="17.8108013">
        <ele>20.325</ele>
        <time>2013-05-30T19:04:56Z</time>
      </trkpt>
      <trkpt lat="59.694307" lon="17.8108904">
        <ele>20.325</ele>
        <time>2013-05-30T19:04:57Z</time>
      </trkpt>
      <trkpt lat="59.6942552" lon="17.8109755">
        <ele>20.325</ele>
        <time>2013-05-30T19:04:58Z</time>
      </trkpt>
      <trkpt lat="59.6942046" lon="17.8110609">
        <ele>20.325</ele>
        <time>2013-05-30T19:04:59Z</time>
      </trkpt>
      <trkpt lat="59.6941549" lon="17.8111461">
        <ele>20.325</ele>
        <time>2013-05-30T19:05:00Z</time>
      </trkpt>
      <trkpt lat="59.6941089" lon="17.8112375">
        <ele>21.2864</ele>
        <time>2013-05-30T19:05:01Z</time>
      </trkpt>
      <trkpt lat="59.6940628" lon="17.8113287">
        <ele>22.2476</ele>
        <time>2013-05-30T19:05:02Z</time>
      </trkpt>
      <trkpt lat="59.6940157" lon="17.811421">
        <ele>22.7283</ele>
        <time>2013-05-30T19:05:03Z</time>
      </trkpt>
      <trkpt lat="59.6939685" lon="17.8115141">
        <ele>23.209</ele>
        <time>2013-05-30T19:05:04Z</time>
      </trkpt>
      <trkpt lat="59.6939207" lon="17.8116085">
        <ele>23.6896</ele>
        <time>2013-05-30T19:05:05Z</time>
      </trkpt>
      <trkpt lat="59.6938716" lon="17.8117035">
        <ele>24.1703</ele>
        <time>2013-05-30T19:05:06Z</time>
      </trkpt>
      <trkpt lat="59.6938219" lon="17.8118006">
        <ele>24.651</ele>
        <time>2013-05-30T19:05:07Z</time>
      </trkpt>
      <trkpt lat="59.6937716" lon="17.8118958">
        <ele>25.1317</ele>
        <time>2013-05-30T19:05:08Z</time>
      </trkpt>
      <trkpt lat="59.6937209" lon="17.8119908">
        <ele>25.6123</ele>
        <time>2013-05-30T19:05:09Z</time>
      </trkpt>
      <trkpt lat="59.6936711" lon="17.8120875">
        <ele>25.6123</ele>
        <time>2013-05-30T19:05:10Z</time>
      </trkpt>
      <trkpt lat="59.6936213" lon="17.8121834">
        <ele>26.0929</ele>
        <time>2013-05-30T19:05:11Z</time>
      </trkpt>
      <trkpt lat="59.6935696" lon="17.8122757">
        <ele>26.0929</ele>
        <time>2013-05-30T19:05:12Z</time>
      </trkpt>
      <trkpt lat="59.693517" lon="17.8123681">
        <ele>26.5736</ele>
        <time>2013-05-30T19:05:13Z</time>
      </trkpt>
      <trkpt lat="59.6934638" lon="17.8124605">
        <ele>26.5736</ele>
        <time>2013-05-30T19:05:14Z</time>
      </trkpt>
      <trkpt lat="59.693411" lon="17.8125539">
        <ele>26.5736</ele>
        <time>2013-05-30T19:05:15Z</time>
      </trkpt>
      <trkpt lat="59.6933577" lon="17.8126475">
        <ele>26.5736</ele>
        <time>2013-05-30T19:05:16Z</time>
      </trkpt>
      <trkpt lat="59.6933032" lon="17.8127414">
        <ele>27.0543</ele>
        <time>2013-05-30T19:05:17Z</time>
      </trkpt>
      <trkpt lat="59.6931925" lon="17.8129312">
        <ele>26.5736</ele>
        <time>2013-05-30T19:05:19Z</time>
      </trkpt>
      <trkpt lat="59.6931379" lon="17.8130273">
        <ele>26.5736</ele>
        <time>2013-05-30T19:05:20Z</time>
      </trkpt>
      <trkpt lat="59.693083" lon="17.8131231">
        <ele>26.5736</ele>
        <time>2013-05-30T19:05:21Z</time>
      </trkpt>
      <trkpt lat="59.6930283" lon="17.8132198">
        <ele>26.5736</ele>
        <time>2013-05-30T19:05:22Z</time>
      </trkpt>
      <trkpt lat="59.6929742" lon="17.8133164">
        <ele>26.5736</ele>
        <time>2013-05-30T19:05:23Z</time>
      </trkpt>
      <trkpt lat="59.6929196" lon="17.813413">
        <ele>26.5736</ele>
        <time>2013-05-30T19:05:24Z</time>
      </trkpt>
      <trkpt lat="59.6928639" lon="17.8135094">
        <ele>26.5736</ele>
        <time>2013-05-30T19:05:25Z</time>
      </trkpt>
      <trkpt lat="59.6928066" lon="17.8136058">
        <ele>26.5736</ele>
        <time>2013-05-30T19:05:26Z</time>
      </trkpt>
      <trkpt lat="59.6927495" lon="17.8137021">
        <ele>26.5736</ele>
        <time>2013-05-30T19:05:27Z</time>
      </trkpt>
      <trkpt lat="59.692693" lon="17.8137984">
        <ele>26.0929</ele>
        <time>2013-05-30T19:05:28Z</time>
      </trkpt>
      <trkpt lat="59.6926371" lon="17.8138939">
        <ele>26.0929</ele>
        <time>2013-05-30T19:05:29Z</time>
      </trkpt>
      <trkpt lat="59.6925807" lon="17.8139871">
        <ele>26.0929</ele>
        <time>2013-05-30T19:05:30Z</time>
      </trkpt>
      <trkpt lat="59.6925232" lon="17.8140778">
        <ele>26.0929</ele>
        <time>2013-05-30T19:05:31Z</time>
      </trkpt>
      <trkpt lat="59.6924653" lon="17.8141664">
        <ele>26.0929</ele>
        <time>2013-05-30T19:05:32Z</time>
      </trkpt>
      <trkpt lat="59.6924066" lon="17.8142537">
        <ele>26.0929</ele>
        <time>2013-05-30T19:05:33Z</time>
      </trkpt>
      <trkpt lat="59.6923476" lon="17.814343">
        <ele>26.0929</ele>
        <time>2013-05-30T19:05:34Z</time>
      </trkpt>
      <trkpt lat="59.6922875" lon="17.8144316">
        <ele>26.0929</ele>
        <time>2013-05-30T19:05:35Z</time>
      </trkpt>
      <trkpt lat="59.6922262" lon="17.8145176">
        <ele>26.0929</ele>
        <time>2013-05-30T19:05:36Z</time>
      </trkpt>
      <trkpt lat="59.6921647" lon="17.8146024">
        <ele>26.0929</ele>
        <time>2013-05-30T19:05:37Z</time>
      </trkpt>
      <trkpt lat="59.6921029" lon="17.8146831">
        <ele>26.0929</ele>
        <time>2013-05-30T19:05:38Z</time>
      </trkpt>
      <trkpt lat="59.6920409" lon="17.8147617">
        <ele>26.0929</ele>
        <time>2013-05-30T19:05:39Z</time>
      </trkpt>
      <trkpt lat="59.6919777" lon="17.8148361">
        <ele>26.0929</ele>
        <time>2013-05-30T19:05:40Z</time>
      </trkpt>
      <trkpt lat="59.6919145" lon="17.8149061">
        <ele>25.6123</ele>
        <time>2013-05-30T19:05:41Z</time>
      </trkpt>
      <trkpt lat="59.6918516" lon="17.8149734">
        <ele>26.0929</ele>
        <time>2013-05-30T19:05:42Z</time>
      </trkpt>
      <trkpt lat="59.6917884" lon="17.815039">
        <ele>26.0929</ele>
        <time>2013-05-30T19:05:43Z</time>
      </trkpt>
      <trkpt lat="59.6917234" lon="17.8151033">
        <ele>26.0929</ele>
        <time>2013-05-30T19:05:44Z</time>
      </trkpt>
      <trkpt lat="59.6916565" lon="17.8151665">
        <ele>26.0929</ele>
        <time>2013-05-30T19:05:45Z</time>
      </trkpt>
      <trkpt lat="59.6915833" lon="17.8152204">
        <ele>25.6123</ele>
        <time>2013-05-30T19:05:46Z</time>
      </trkpt>
      <trkpt lat="59.6915105" lon="17.8152744">
        <ele>25.1317</ele>
        <time>2013-05-30T19:05:47Z</time>
      </trkpt>
      <trkpt lat="59.6914373" lon="17.8153251">
        <ele>24.1703</ele>
        <time>2013-05-30T19:05:48Z</time>
      </trkpt>
      <trkpt lat="59.6913645" lon="17.8153733">
        <ele>23.6896</ele>
        <time>2013-05-30T19:05:49Z</time>
      </trkpt>
      <trkpt lat="59.6912925" lon="17.8154206">
        <ele>23.209</ele>
        <time>2013-05-30T19:05:50Z</time>
      </trkpt>
      <trkpt lat="59.6912209" lon="17.8154648">
        <ele>23.209</ele>
        <time>2013-05-30T19:05:51Z</time>
      </trkpt>
      <trkpt lat="59.6911515" lon="17.8155078">
        <ele>22.7283</ele>
        <time>2013-05-30T19:05:52Z</time>
      </trkpt>
      <trkpt lat="59.6910836" lon="17.8155547">
        <ele>22.7283</ele>
        <time>2013-05-30T19:05:53Z</time>
      </trkpt>
      <trkpt lat="59.6910163" lon="17.8156018">
        <ele>23.209</ele>
        <time>2013-05-30T19:05:54Z</time>
      </trkpt>
      <trkpt lat="59.6909493" lon="17.8156536">
        <ele>23.6896</ele>
        <time>2013-05-30T19:05:55Z</time>
      </trkpt>
      <trkpt lat="59.6908821" lon="17.8156996">
        <ele>24.1703</ele>
        <time>2013-05-30T19:05:56Z</time>
      </trkpt>
      <trkpt lat="59.6908135" lon="17.8157415">
        <ele>24.651</ele>
        <time>2013-05-30T19:05:57Z</time>
      </trkpt>
      <trkpt lat="59.6907431" lon="17.815781">
        <ele>24.651</ele>
        <time>2013-05-30T19:05:58Z</time>
      </trkpt>
      <trkpt lat="59.6906724" lon="17.8158198">
        <ele>25.6123</ele>
        <time>2013-05-30T19:05:59Z</time>
      </trkpt>
      <trkpt lat="59.6905957" lon="17.8158559">
        <ele>25.6123</ele>
        <time>2013-05-30T19:06:00Z</time>
      </trkpt>
      <trkpt lat="59.6905199" lon="17.8158868">
        <ele>26.0929</ele>
        <time>2013-05-30T19:06:01Z</time>
      </trkpt>
      <trkpt lat="59.6904418" lon="17.815917">
        <ele>26.0929</ele>
        <time>2013-05-30T19:06:02Z</time>
      </trkpt>
      <trkpt lat="59.6903635" lon="17.8159457">
        <ele>26.0929</ele>
        <time>2013-05-30T19:06:03Z</time>
      </trkpt>
      <trkpt lat="59.6902811" lon="17.8159735">
        <ele>25.6123</ele>
        <time>2013-05-30T19:06:04Z</time>
      </trkpt>
      <trkpt lat="59.6902045" lon="17.8159942">
        <ele>26.0929</ele>
        <time>2013-05-30T19:06:05Z</time>
      </trkpt>
      <trkpt lat="59.6901243" lon="17.8160142">
        <ele>25.6123</ele>
        <time>2013-05-30T19:06:06Z</time>
      </trkpt>
      <trkpt lat="59.690046" lon="17.8160307">
        <ele>25.1317</ele>
        <time>2013-05-30T19:06:07Z</time>
      </trkpt>
      <trkpt lat="59.6899676" lon="17.816039">
        <ele>25.1317</ele>
        <time>2013-05-30T19:06:08Z</time>
      </trkpt>
      <trkpt lat="59.6898894" lon="17.8160429">
        <ele>25.6123</ele>
        <time>2013-05-30T19:06:09Z</time>
      </trkpt>
      <trkpt lat="59.6898129" lon="17.8160489">
        <ele>26.0929</ele>
        <time>2013-05-30T19:06:10Z</time>
      </trkpt>
      <trkpt lat="59.6897352" lon="17.8160519">
        <ele>26.5736</ele>
        <time>2013-05-30T19:06:11Z</time>
      </trkpt>
      <trkpt lat="59.6896571" lon="17.8160488">
        <ele>27.0543</ele>
        <time>2013-05-30T19:06:12Z</time>
      </trkpt>
      <trkpt lat="59.6895783" lon="17.8160444">
        <ele>27.0543</ele>
        <time>2013-05-30T19:06:13Z</time>
      </trkpt>
      <trkpt lat="59.6894963" lon="17.8160209">
        <ele>25.6123</ele>
        <time>2013-05-30T19:06:14Z</time>
      </trkpt>
      <trkpt lat="59.6894145" lon="17.8159965">
        <ele>24.1703</ele>
        <time>2013-05-30T19:06:15Z</time>
      </trkpt>
      <trkpt lat="59.6893341" lon="17.8159735">
        <ele>23.209</ele>
        <time>2013-05-30T19:06:16Z</time>
      </trkpt>
      <trkpt lat="59.6892538" lon="17.8159507">
        <ele>22.7283</ele>
        <time>2013-05-30T19:06:17Z</time>
      </trkpt>
      <trkpt lat="59.6891741" lon="17.815925">
        <ele>22.2476</ele>
        <time>2013-05-30T19:06:18Z</time>
      </trkpt>
      <trkpt lat="59.6890955" lon="17.815898">
        <ele>21.767</ele>
        <time>2013-05-30T19:06:19Z</time>
      </trkpt>
      <trkpt lat="59.6890177" lon="17.8158725">
        <ele>21.2864</ele>
        <time>2013-05-30T19:06:20Z</time>
      </trkpt>
      <trkpt lat="59.6889394" lon="17.8158466">
        <ele>21.2864</ele>
        <time>2013-05-30T19:06:21Z</time>
      </trkpt>
      <trkpt lat="59.6888614" lon="17.8158201">
        <ele>21.2864</ele>
        <time>2013-05-30T19:06:22Z</time>
      </trkpt>
      <trkpt lat="59.6887816" lon="17.8157877">
        <ele>20.8057</ele>
        <time>2013-05-30T19:06:23Z</time>
      </trkpt>
      <trkpt lat="59.6887028" lon="17.8157515">
        <ele>20.325</ele>
        <time>2013-05-30T19:06:24Z</time>
      </trkpt>
      <trkpt lat="59.6886302" lon="17.8157131">
        <ele>20.325</ele>
        <time>2013-05-30T19:06:25Z</time>
      </trkpt>
      <trkpt lat="59.6885586" lon="17.8156742">
        <ele>20.8057</ele>
        <time>2013-05-30T19:06:26Z</time>
      </trkpt>
      <trkpt lat="59.6884885" lon="17.8156349">
        <ele>20.8057</ele>
        <time>2013-05-30T19:06:27Z</time>
      </trkpt>
      <trkpt lat="59.6884204" lon="17.8155936">
        <ele>20.8057</ele>
        <time>2013-05-30T19:06:28Z</time>
      </trkpt>
      <trkpt lat="59.6883532" lon="17.8155572">
        <ele>21.2864</ele>
        <time>2013-05-30T19:06:29Z</time>
      </trkpt>
      <trkpt lat="59.6882852" lon="17.8155163">
        <ele>21.2864</ele>
        <time>2013-05-30T19:06:30Z</time>
      </trkpt>
      <trkpt lat="59.6882185" lon="17.8154777">
        <ele>21.767</ele>
        <time>2013-05-30T19:06:31Z</time>
      </trkpt>
      <trkpt lat="59.6881511" lon="17.8154427">
        <ele>22.7283</ele>
        <time>2013-05-30T19:06:32Z</time>
      </trkpt>
      <trkpt lat="59.6880824" lon="17.8154059">
        <ele>23.209</ele>
        <time>2013-05-30T19:06:33Z</time>
      </trkpt>
      <trkpt lat="59.688013" lon="17.8153646">
        <ele>23.6896</ele>
        <time>2013-05-30T19:06:34Z</time>
      </trkpt>
      <trkpt lat="59.6879474" lon="17.8153283">
        <ele>24.651</ele>
        <time>2013-05-30T19:06:35Z</time>
      </trkpt>
      <trkpt lat="59.6878759" lon="17.8152833">
        <ele>24.651</ele>
        <time>2013-05-30T19:06:36Z</time>
      </trkpt>
      <trkpt lat="59.687804" lon="17.8152392">
        <ele>24.1703</ele>
        <time>2013-05-30T19:06:37Z</time>
      </trkpt>
      <trkpt lat="59.6877321" lon="17.8151942">
        <ele>23.6896</ele>
        <time>2013-05-30T19:06:38Z</time>
      </trkpt>
      <trkpt lat="59.6876601" lon="17.8151493">
        <ele>23.6896</ele>
        <time>2013-05-30T19:06:39Z</time>
      </trkpt>
      <trkpt lat="59.6875866" lon="17.815105">
        <ele>23.209</ele>
        <time>2013-05-30T19:06:40Z</time>
      </trkpt>
      <trkpt lat="59.6875139" lon="17.8150613">
        <ele>23.209</ele>
        <time>2013-05-30T19:06:41Z</time>
      </trkpt>
      <trkpt lat="59.6874419" lon="17.81502">
        <ele>22.2476</ele>
        <time>2013-05-30T19:06:42Z</time>
      </trkpt>
      <trkpt lat="59.687369" lon="17.8149828">
        <ele>22.2476</ele>
        <time>2013-05-30T19:06:43Z</time>
      </trkpt>
      <trkpt lat="59.6872965" lon="17.8149473">
        <ele>22.7283</ele>
        <time>2013-05-30T19:06:44Z</time>
      </trkpt>
      <trkpt lat="59.6872244" lon="17.814916">
        <ele>22.7283</ele>
        <time>2013-05-30T19:06:45Z</time>
      </trkpt>
      <trkpt lat="59.687152" lon="17.8148879">
        <ele>23.209</ele>
        <time>2013-05-30T19:06:46Z</time>
      </trkpt>
      <trkpt lat="59.6870789" lon="17.8148631">
        <ele>23.209</ele>
        <time>2013-05-30T19:06:47Z</time>
      </trkpt>
      <trkpt lat="59.6870053" lon="17.8148429">
        <ele>23.209</ele>
        <time>2013-05-30T19:06:48Z</time>
      </trkpt>
      <trkpt lat="59.6869305" lon="17.8148268">
        <ele>23.209</ele>
        <time>2013-05-30T19:06:49Z</time>
      </trkpt>
      <trkpt lat="59.6868529" lon="17.8148113">
        <ele>23.6896</ele>
        <time>2013-05-30T19:06:50Z</time>
      </trkpt>
      <trkpt lat="59.6867762" lon="17.8147972">
        <ele>23.6896</ele>
        <time>2013-05-30T19:06:51Z</time>
      </trkpt>
      <trkpt lat="59.6866993" lon="17.8147886">
        <ele>24.1703</ele>
        <time>2013-05-30T19:06:52Z</time>
      </trkpt>
      <trkpt lat="59.6866255" lon="17.8147849">
        <ele>24.651</ele>
        <time>2013-05-30T19:06:53Z</time>
      </trkpt>
      <trkpt lat="59.6865499" lon="17.8147843">
        <ele>24.1703</ele>
        <time>2013-05-30T19:06:54Z</time>
      </trkpt>
      <trkpt lat="59.6864749" lon="17.8147899">
        <ele>24.651</ele>
        <time>2013-05-30T19:06:55Z</time>
      </trkpt>
      <trkpt lat="59.6863994" lon="17.8148004">
        <ele>24.651</ele>
        <time>2013-05-30T19:06:56Z</time>
      </trkpt>
      <trkpt lat="59.6863262" lon="17.8148144">
        <ele>25.1317</ele>
        <time>2013-05-30T19:06:57Z</time>
      </trkpt>
      <trkpt lat="59.6862537" lon="17.8148283">
        <ele>25.6123</ele>
        <time>2013-05-30T19:06:58Z</time>
      </trkpt>
      <trkpt lat="59.6861811" lon="17.8148454">
        <ele>25.6123</ele>
        <time>2013-05-30T19:06:59Z</time>
      </trkpt>
      <trkpt lat="59.6861067" lon="17.8148678">
        <ele>26.0929</ele>
        <time>2013-05-30T19:07:00Z</time>
      </trkpt>
      <trkpt lat="59.6860323" lon="17.814896">
        <ele>26.0929</ele>
        <time>2013-05-30T19:07:01Z</time>
      </trkpt>
      <trkpt lat="59.6859587" lon="17.8149276">
        <ele>26.0929</ele>
        <time>2013-05-30T19:07:02Z</time>
      </trkpt>
      <trkpt lat="59.685886" lon="17.8149613">
        <ele>26.0929</ele>
        <time>2013-05-30T19:07:03Z</time>
      </trkpt>
      <trkpt lat="59.6858137" lon="17.8149983">
        <ele>26.0929</ele>
        <time>2013-05-30T19:07:04Z</time>
      </trkpt>
      <trkpt lat="59.6857413" lon="17.8150364">
        <ele>25.6123</ele>
        <time>2013-05-30T19:07:05Z</time>
      </trkpt>
      <trkpt lat="59.6856693" lon="17.8150764">
        <ele>25.6123</ele>
        <time>2013-05-30T19:07:06Z</time>
      </trkpt>
      <trkpt lat="59.6855967" lon="17.8151199">
        <ele>25.6123</ele>
        <time>2013-05-30T19:07:07Z</time>
      </trkpt>
      <trkpt lat="59.6855241" lon="17.8151672">
        <ele>25.6123</ele>
        <time>2013-05-30T19:07:08Z</time>
      </trkpt>
      <trkpt lat="59.6854492" lon="17.8152218">
        <ele>25.6123</ele>
        <time>2013-05-30T19:07:09Z</time>
      </trkpt>
      <trkpt lat="59.6853739" lon="17.8152789">
        <ele>25.1317</ele>
        <time>2013-05-30T19:07:10Z</time>
      </trkpt>
      <trkpt lat="59.6853019" lon="17.8153451">
        <ele>25.6123</ele>
        <time>2013-05-30T19:07:11Z</time>
      </trkpt>
      <trkpt lat="59.6852302" lon="17.8154091">
        <ele>25.1317</ele>
        <time>2013-05-30T19:07:12Z</time>
      </trkpt>
      <trkpt lat="59.6851592" lon="17.8154749">
        <ele>25.1317</ele>
        <time>2013-05-30T19:07:13Z</time>
      </trkpt>
      <trkpt lat="59.6850892" lon="17.8155386">
        <ele>25.1317</ele>
        <time>2013-05-30T19:07:14Z</time>
      </trkpt>
      <trkpt lat="59.6850184" lon="17.8156054">
        <ele>24.651</ele>
        <time>2013-05-30T19:07:15Z</time>
      </trkpt>
      <trkpt lat="59.6849472" lon="17.8156789">
        <ele>24.1703</ele>
        <time>2013-05-30T19:07:16Z</time>
      </trkpt>
      <trkpt lat="59.6848775" lon="17.8157576">
        <ele>23.6896</ele>
        <time>2013-05-30T19:07:17Z</time>
      </trkpt>
      <trkpt lat="59.6848074" lon="17.8158411">
        <ele>23.209</ele>
        <time>2013-05-30T19:07:18Z</time>
      </trkpt>
      <trkpt lat="59.6847423" lon="17.8159248">
        <ele>22.7283</ele>
        <time>2013-05-30T19:07:19Z</time>
      </trkpt>
      <trkpt lat="59.6846805" lon="17.8160172">
        <ele>22.2476</ele>
        <time>2013-05-30T19:07:20Z</time>
      </trkpt>
      <trkpt lat="59.6846186" lon="17.816112">
        <ele>21.767</ele>
        <time>2013-05-30T19:07:21Z</time>
      </trkpt>
      <trkpt lat="59.6845578" lon="17.8162079">
        <ele>21.767</ele>
        <time>2013-05-30T19:07:22Z</time>
      </trkpt>
      <trkpt lat="59.6844975" lon="17.8163064">
        <ele>21.2864</ele>
        <time>2013-05-30T19:07:23Z</time>
      </trkpt>
      <trkpt lat="59.6844396" lon="17.8164227">
        <ele>22.2476</ele>
        <time>2013-05-30T19:07:24Z</time>
      </trkpt>
      <trkpt lat="59.6843832" lon="17.8165314">
        <ele>22.2476</ele>
        <time>2013-05-30T19:07:25Z</time>
      </trkpt>
      <trkpt lat="59.6843294" lon="17.8166398">
        <ele>22.2476</ele>
        <time>2013-05-30T19:07:26Z</time>
      </trkpt>
      <trkpt lat="59.6842776" lon="17.8167601">
        <ele>22.7283</ele>
        <time>2013-05-30T19:07:27Z</time>
      </trkpt>
      <trkpt lat="59.6842271" lon="17.8168953">
        <ele>22.7283</ele>
        <time>2013-05-30T19:07:28Z</time>
      </trkpt>
      <trkpt lat="59.6841765" lon="17.8170339">
        <ele>23.6896</ele>
        <time>2013-05-30T19:07:29Z</time>
      </trkpt>
      <trkpt lat="59.6841237" lon="17.8171528">
        <ele>23.6896</ele>
        <time>2013-05-30T19:07:30Z</time>
      </trkpt>
      <trkpt lat="59.6840704" lon="17.8172686">
        <ele>24.1703</ele>
        <time>2013-05-30T19:07:31Z</time>
      </trkpt>
      <trkpt lat="59.6840159" lon="17.8173805">
        <ele>23.6896</ele>
        <time>2013-05-30T19:07:32Z</time>
      </trkpt>
      <trkpt lat="59.683962" lon="17.8174967">
        <ele>23.209</ele>
        <time>2013-05-30T19:07:33Z</time>
      </trkpt>
      <trkpt lat="59.6839102" lon="17.817613">
        <ele>22.7283</ele>
        <time>2013-05-30T19:07:34Z</time>
      </trkpt>
      <trkpt lat="59.6838574" lon="17.8177282">
        <ele>22.7283</ele>
        <time>2013-05-30T19:07:35Z</time>
      </trkpt>
      <trkpt lat="59.6838043" lon="17.817842">
        <ele>22.2476</ele>
        <time>2013-05-30T19:07:36Z</time>
      </trkpt>
      <trkpt lat="59.6837521" lon="17.8179567">
        <ele>21.767</ele>
        <time>2013-05-30T19:07:37Z</time>
      </trkpt>
      <trkpt lat="59.6836998" lon="17.818075">
        <ele>22.2476</ele>
        <time>2013-05-30T19:07:38Z</time>
      </trkpt>
      <trkpt lat="59.6836466" lon="17.8181922">
        <ele>22.2476</ele>
        <time>2013-05-30T19:07:39Z</time>
      </trkpt>
      <trkpt lat="59.6835936" lon="17.8183057">
        <ele>22.2476</ele>
        <time>2013-05-30T19:07:40Z</time>
      </trkpt>
      <trkpt lat="59.6835402" lon="17.8184183">
        <ele>22.2476</ele>
        <time>2013-05-30T19:07:41Z</time>
      </trkpt>
      <trkpt lat="59.6834886" lon="17.8185295">
        <ele>22.2476</ele>
        <time>2013-05-30T19:07:42Z</time>
      </trkpt>
      <trkpt lat="59.6834391" lon="17.8186405">
        <ele>22.7283</ele>
        <time>2013-05-30T19:07:43Z</time>
      </trkpt>
      <trkpt lat="59.6833896" lon="17.8187498">
        <ele>22.7283</ele>
        <time>2013-05-30T19:07:44Z</time>
      </trkpt>
      <trkpt lat="59.6833399" lon="17.8188583">
        <ele>22.7283</ele>
        <time>2013-05-30T19:07:45Z</time>
      </trkpt>
      <trkpt lat="59.6832907" lon="17.8189673">
        <ele>22.7283</ele>
        <time>2013-05-30T19:07:46Z</time>
      </trkpt>
      <trkpt lat="59.6832415" lon="17.819078">
        <ele>22.7283</ele>
        <time>2013-05-30T19:07:47Z</time>
      </trkpt>
      <trkpt lat="59.6831932" lon="17.8191859">
        <ele>22.7283</ele>
        <time>2013-05-30T19:07:48Z</time>
      </trkpt>
      <trkpt lat="59.6831451" lon="17.8192939">
        <ele>22.7283</ele>
        <time>2013-05-30T19:07:49Z</time>
      </trkpt>
      <trkpt lat="59.6830967" lon="17.8194046">
        <ele>22.7283</ele>
        <time>2013-05-30T19:07:50Z</time>
      </trkpt>
      <trkpt lat="59.6830471" lon="17.8195167">
        <ele>22.7283</ele>
        <time>2013-05-30T19:07:51Z</time>
      </trkpt>
      <trkpt lat="59.6829959" lon="17.8196293">
        <ele>22.2476</ele>
        <time>2013-05-30T19:07:52Z</time>
      </trkpt>
      <trkpt lat="59.6829446" lon="17.8197465">
        <ele>21.767</ele>
        <time>2013-05-30T19:07:53Z</time>
      </trkpt>
      <trkpt lat="59.6828939" lon="17.8198665">
        <ele>21.2864</ele>
        <time>2013-05-30T19:07:54Z</time>
      </trkpt>
      <trkpt lat="59.6828457" lon="17.8199915">
        <ele>21.2864</ele>
        <time>2013-05-30T19:07:55Z</time>
      </trkpt>
      <trkpt lat="59.6827991" lon="17.8201131">
        <ele>21.2864</ele>
        <time>2013-05-30T19:07:56Z</time>
      </trkpt>
      <trkpt lat="59.6827535" lon="17.8202337">
        <ele>21.2864</ele>
        <time>2013-05-30T19:07:57Z</time>
      </trkpt>
      <trkpt lat="59.6827079" lon="17.8203558">
        <ele>21.767</ele>
        <time>2013-05-30T19:07:58Z</time>
      </trkpt>
      <trkpt lat="59.6826618" lon="17.8204789">
        <ele>22.2476</ele>
        <time>2013-05-30T19:07:59Z</time>
      </trkpt>
      <trkpt lat="59.6826181" lon="17.8205993">
        <ele>22.2476</ele>
        <time>2013-05-30T19:08:00Z</time>
      </trkpt>
      <trkpt lat="59.6825707" lon="17.8207115">
        <ele>21.767</ele>
        <time>2013-05-30T19:08:01Z</time>
      </trkpt>
      <trkpt lat="59.6825224" lon="17.820819">
        <ele>20.8057</ele>
        <time>2013-05-30T19:08:02Z</time>
      </trkpt>
      <trkpt lat="59.6824774" lon="17.8209331">
        <ele>20.8057</ele>
        <time>2013-05-30T19:08:03Z</time>
      </trkpt>
      <trkpt lat="59.6824287" lon="17.8210455">
        <ele>19.3638</ele>
        <time>2013-05-30T19:08:04Z</time>
      </trkpt>
      <trkpt lat="59.682384" lon="17.8211616">
        <ele>18.8831</ele>
        <time>2013-05-30T19:08:05Z</time>
      </trkpt>
      <trkpt lat="59.6823447" lon="17.8212896">
        <ele>18.8831</ele>
        <time>2013-05-30T19:08:06Z</time>
      </trkpt>
      <trkpt lat="59.682299" lon="17.8214103">
        <ele>18.4023</ele>
        <time>2013-05-30T19:08:07Z</time>
      </trkpt>
      <trkpt lat="59.6822532" lon="17.8215317">
        <ele>17.9218</ele>
        <time>2013-05-30T19:08:08Z</time>
      </trkpt>
      <trkpt lat="59.682209" lon="17.8216495">
        <ele>16.9604</ele>
        <time>2013-05-30T19:08:09Z</time>
      </trkpt>
      <trkpt lat="59.6821646" lon="17.8217653">
        <ele>16.4797</ele>
        <time>2013-05-30T19:08:10Z</time>
      </trkpt>
      <trkpt lat="59.6821163" lon="17.8218752">
        <ele>15.999</ele>
        <time>2013-05-30T19:08:11Z</time>
      </trkpt>
      <trkpt lat="59.6820682" lon="17.8219876">
        <ele>15.5184</ele>
        <time>2013-05-30T19:08:12Z</time>
      </trkpt>
      <trkpt lat="59.6820203" lon="17.8220981">
        <ele>14.557</ele>
        <time>2013-05-30T19:08:13Z</time>
      </trkpt>
      <trkpt lat="59.6819765" lon="17.8222085">
        <ele>13.1151</ele>
        <time>2013-05-30T19:08:14Z</time>
      </trkpt>
      <trkpt lat="59.6819355" lon="17.8223115">
        <ele>12.1538</ele>
        <time>2013-05-30T19:08:15Z</time>
      </trkpt>
      <trkpt lat="59.6818893" lon="17.8223995">
        <ele>11.1925</ele>
        <time>2013-05-30T19:08:16Z</time>
      </trkpt>
      <trkpt lat="59.6818411" lon="17.8224882">
        <ele>10.2312</ele>
        <time>2013-05-30T19:08:17Z</time>
      </trkpt>
      <trkpt lat="59.6817952" lon="17.8225849">
        <ele>9.75061</ele>
        <time>2013-05-30T19:08:18Z</time>
      </trkpt>
      <trkpt lat="59.6817475" lon="17.822684">
        <ele>9.2699</ele>
        <time>2013-05-30T19:08:19Z</time>
      </trkpt>
      <trkpt lat="59.6816987" lon="17.8227778">
        <ele>8.30859</ele>
        <time>2013-05-30T19:08:20Z</time>
      </trkpt>
      <trkpt lat="59.6816588" lon="17.82289">
        <ele>8.78918</ele>
        <time>2013-05-30T19:08:21Z</time>
      </trkpt>
      <trkpt lat="59.6816248" lon="17.8230155">
        <ele>9.2699</ele>
        <time>2013-05-30T19:08:22Z</time>
      </trkpt>
      <trkpt lat="59.6815875" lon="17.8231388">
        <ele>9.2699</ele>
        <time>2013-05-30T19:08:23Z</time>
      </trkpt>
      <trkpt lat="59.6815507" lon="17.8232615">
        <ele>8.78918</ele>
        <time>2013-05-30T19:08:24Z</time>
      </trkpt>
      <trkpt lat="59.6815165" lon="17.8233874">
        <ele>9.2699</ele>
        <time>2013-05-30T19:08:25Z</time>
      </trkpt>
      <trkpt lat="59.6814813" lon="17.8235149">
        <ele>10.7118</ele>
        <time>2013-05-30T19:08:26Z</time>
      </trkpt>
      <trkpt lat="59.6814417" lon="17.8236323">
        <ele>11.1925</ele>
        <time>2013-05-30T19:08:27Z</time>
      </trkpt>
      <trkpt lat="59.6814025" lon="17.8237521">
        <ele>12.1538</ele>
        <time>2013-05-30T19:08:28Z</time>
      </trkpt>
      <trkpt lat="59.6813616" lon="17.8238946">
        <ele>14.557</ele>
        <time>2013-05-30T19:08:29Z</time>
      </trkpt>
      <trkpt lat="59.6813075" lon="17.823993">
        <ele>15.0377</ele>
        <time>2013-05-30T19:08:30Z</time>
      </trkpt>
      <trkpt lat="59.6812508" lon="17.8240803">
        <ele>16.4797</ele>
        <time>2013-05-30T19:08:31Z</time>
      </trkpt>
      <trkpt lat="59.6811922" lon="17.824148">
        <ele>17.9218</ele>
        <time>2013-05-30T19:08:32Z</time>
      </trkpt>
      <trkpt lat="59.6811415" lon="17.8242057">
        <ele>20.8057</ele>
        <time>2013-05-30T19:08:33Z</time>
      </trkpt>
      <trkpt lat="59.6810912" lon="17.8242671">
        <ele>24.1703</ele>
        <time>2013-05-30T19:08:34Z</time>
      </trkpt>
      <trkpt lat="59.6810447" lon="17.8243432">
        <ele>26.5736</ele>
        <time>2013-05-30T19:08:35Z</time>
      </trkpt>
      <trkpt lat="59.6809938" lon="17.8244088">
        <ele>28.0155</ele>
        <time>2013-05-30T19:08:36Z</time>
      </trkpt>
      <trkpt lat="59.6809436" lon="17.8244748">
        <ele>28.9769</ele>
        <time>2013-05-30T19:08:37Z</time>
      </trkpt>
      <trkpt lat="59.6808906" lon="17.8245519">
        <ele>28.9769</ele>
        <time>2013-05-30T19:08:38Z</time>
      </trkpt>
      <trkpt lat="59.6808445" lon="17.8246325">
        <ele>30.8995</ele>
        <time>2013-05-30T19:08:39Z</time>
      </trkpt>
      <trkpt lat="59.6807955" lon="17.8247265">
        <ele>30.4188</ele>
        <time>2013-05-30T19:08:40Z</time>
      </trkpt>
      <trkpt lat="59.6807467" lon="17.8248235">
        <ele>30.4188</ele>
        <time>2013-05-30T19:08:41Z</time>
      </trkpt>
      <trkpt lat="59.6806956" lon="17.8249342">
        <ele>30.4188</ele>
        <time>2013-05-30T19:08:42Z</time>
      </trkpt>
      <trkpt lat="59.6806451" lon="17.8250705">
        <ele>31.8607</ele>
        <time>2013-05-30T19:08:43Z</time>
      </trkpt>
      <trkpt lat="59.6805909" lon="17.8251964">
        <ele>32.3416</ele>
        <time>2013-05-30T19:08:44Z</time>
      </trkpt>
      <trkpt lat="59.6805391" lon="17.8252949">
        <ele>32.3416</ele>
        <time>2013-05-30T19:08:45Z</time>
      </trkpt>
      <trkpt lat="59.6804946" lon="17.8253945">
        <ele>32.8223</ele>
        <time>2013-05-30T19:08:46Z</time>
      </trkpt>
      <trkpt lat="59.6804484" lon="17.8255051">
        <ele>32.3416</ele>
        <time>2013-05-30T19:08:47Z</time>
      </trkpt>
      <trkpt lat="59.6804044" lon="17.8256117">
        <ele>32.3416</ele>
        <time>2013-05-30T19:08:48Z</time>
      </trkpt>
      <trkpt lat="59.6803586" lon="17.8257035">
        <ele>30.8995</ele>
        <time>2013-05-30T19:08:49Z</time>
      </trkpt>
      <trkpt lat="59.680311" lon="17.8257941">
        <ele>29.4575</ele>
        <time>2013-05-30T19:08:50Z</time>
      </trkpt>
      <trkpt lat="59.6802741" lon="17.8259097">
        <ele>28.4962</ele>
        <time>2013-05-30T19:08:51Z</time>
      </trkpt>
      <trkpt lat="59.6802437" lon="17.8260211">
        <ele>28.0155</ele>
        <time>2013-05-30T19:08:52Z</time>
      </trkpt>
      <trkpt lat="59.6802225" lon="17.8261556">
        <ele>28.0155</ele>
        <time>2013-05-30T19:08:53Z</time>
      </trkpt>
      <trkpt lat="59.6801993" lon="17.8262713">
        <ele>27.5349</ele>
        <time>2013-05-30T19:08:54Z</time>
      </trkpt>
      <trkpt lat="59.6801764" lon="17.8263841">
        <ele>27.5349</ele>
        <time>2013-05-30T19:08:55Z</time>
      </trkpt>
      <trkpt lat="59.6801536" lon="17.8264888">
        <ele>26.5736</ele>
        <time>2013-05-30T19:08:56Z</time>
      </trkpt>
      <trkpt lat="59.6801329" lon="17.8265929">
        <ele>26.5736</ele>
        <time>2013-05-30T19:08:57Z</time>
      </trkpt>
      <trkpt lat="59.6801065" lon="17.826689">
        <ele>25.6123</ele>
        <time>2013-05-30T19:08:58Z</time>
      </trkpt>
      <trkpt lat="59.6800843" lon="17.8267964">
        <ele>25.6123</ele>
        <time>2013-05-30T19:08:59Z</time>
      </trkpt>
      <trkpt lat="59.6800588" lon="17.8269061">
        <ele>26.0929</ele>
        <time>2013-05-30T19:09:00Z</time>
      </trkpt>
      <trkpt lat="59.6800292" lon="17.8270114">
        <ele>26.0929</ele>
        <time>2013-05-30T19:09:01Z</time>
      </trkpt>
      <trkpt lat="59.6799994" lon="17.8271113">
        <ele>26.5736</ele>
        <time>2013-05-30T19:09:02Z</time>
      </trkpt>
      <trkpt lat="59.6799707" lon="17.8272113">
        <ele>27.5349</ele>
        <time>2013-05-30T19:09:03Z</time>
      </trkpt>
      <trkpt lat="59.6799395" lon="17.8273122">
        <ele>28.4962</ele>
        <time>2013-05-30T19:09:04Z</time>
      </trkpt>
      <trkpt lat="59.6799039" lon="17.8274025">
        <ele>28.9769</ele>
        <time>2013-05-30T19:09:05Z</time>
      </trkpt>
      <trkpt lat="59.6798656" lon="17.8274838">
        <ele>28.9769</ele>
        <time>2013-05-30T19:09:06Z</time>
      </trkpt>
      <trkpt lat="59.6798276" lon="17.8275593">
        <ele>28.9769</ele>
        <time>2013-05-30T19:09:07Z</time>
      </trkpt>
      <trkpt lat="59.6797926" lon="17.8276377">
        <ele>30.4188</ele>
        <time>2013-05-30T19:09:08Z</time>
      </trkpt>
      <trkpt lat="59.6797578" lon="17.8277137">
        <ele>30.8995</ele>
        <time>2013-05-30T19:09:09Z</time>
      </trkpt>
      <trkpt lat="59.6797204" lon="17.8277867">
        <ele>31.3801</ele>
        <time>2013-05-30T19:09:10Z</time>
      </trkpt>
      <trkpt lat="59.6796822" lon="17.8278603">
        <ele>31.3801</ele>
        <time>2013-05-30T19:09:11Z</time>
      </trkpt>
      <trkpt lat="59.6796439" lon="17.8279313">
        <ele>32.3416</ele>
        <time>2013-05-30T19:09:12Z</time>
      </trkpt>
      <trkpt lat="59.6796062" lon="17.8280117">
        <ele>32.3416</ele>
        <time>2013-05-30T19:09:13Z</time>
      </trkpt>
      <trkpt lat="59.6795688" lon="17.8280868">
        <ele>32.8223</ele>
        <time>2013-05-30T19:09:14Z</time>
      </trkpt>
      <trkpt lat="59.6795305" lon="17.8281584">
        <ele>33.7834</ele>
        <time>2013-05-30T19:09:15Z</time>
      </trkpt>
      <trkpt lat="59.6794903" lon="17.8282293">
        <ele>34.2642</ele>
        <time>2013-05-30T19:09:16Z</time>
      </trkpt>
      <trkpt lat="59.6794526" lon="17.8282965">
        <ele>35.2255</ele>
        <time>2013-05-30T19:09:17Z</time>
      </trkpt>
      <trkpt lat="59.679409" lon="17.8283489">
        <ele>34.7449</ele>
        <time>2013-05-30T19:09:18Z</time>
      </trkpt>
      <trkpt lat="59.6793667" lon="17.8283868">
        <ele>35.7061</ele>
        <time>2013-05-30T19:09:19Z</time>
      </trkpt>
      <trkpt lat="59.6793222" lon="17.8284101">
        <ele>35.7061</ele>
        <time>2013-05-30T19:09:20Z</time>
      </trkpt>
      <trkpt lat="59.6792777" lon="17.8283977">
        <ele>34.7449</ele>
        <time>2013-05-30T19:09:21Z</time>
      </trkpt>
      <trkpt lat="59.6792336" lon="17.8283729">
        <ele>34.2642</ele>
        <time>2013-05-30T19:09:22Z</time>
      </trkpt>
      <trkpt lat="59.6791894" lon="17.8283572">
        <ele>34.2642</ele>
        <time>2013-05-30T19:09:23Z</time>
      </trkpt>
      <trkpt lat="59.6791373" lon="17.8283417">
        <ele>34.2642</ele>
        <time>2013-05-30T19:09:24Z</time>
      </trkpt>
      <trkpt lat="59.6790886" lon="17.8283205">
        <ele>34.7449</ele>
        <time>2013-05-30T19:09:25Z</time>
      </trkpt>
      <trkpt lat="59.67904" lon="17.8282991">
        <ele>35.2255</ele>
        <time>2013-05-30T19:09:26Z</time>
      </trkpt>
      <trkpt lat="59.6789917" lon="17.8282879">
        <ele>35.7061</ele>
        <time>2013-05-30T19:09:27Z</time>
      </trkpt>
      <trkpt lat="59.6789359" lon="17.8282696">
        <ele>36.1868</ele>
        <time>2013-05-30T19:09:28Z</time>
      </trkpt>
      <trkpt lat="59.6788819" lon="17.8282531">
        <ele>35.2255</ele>
        <time>2013-05-30T19:09:29Z</time>
      </trkpt>
      <trkpt lat="59.6788264" lon="17.8282418">
        <ele>35.2255</ele>
        <time>2013-05-30T19:09:30Z</time>
      </trkpt>
      <trkpt lat="59.6787745" lon="17.8282232">
        <ele>35.2255</ele>
        <time>2013-05-30T19:09:31Z</time>
      </trkpt>
      <trkpt lat="59.6787159" lon="17.8282101">
        <ele>34.7449</ele>
        <time>2013-05-30T19:09:32Z</time>
      </trkpt>
      <trkpt lat="59.6786584" lon="17.8282001">
        <ele>34.7449</ele>
        <time>2013-05-30T19:09:33Z</time>
      </trkpt>
      <trkpt lat="59.6786025" lon="17.8281925">
        <ele>36.1868</ele>
        <time>2013-05-30T19:09:34Z</time>
      </trkpt>
      <trkpt lat="59.6785338" lon="17.8281889">
        <ele>35.2255</ele>
        <time>2013-05-30T19:09:35Z</time>
      </trkpt>
      <trkpt lat="59.6784674" lon="17.8281879">
        <ele>35.2255</ele>
        <time>2013-05-30T19:09:36Z</time>
      </trkpt>
      <trkpt lat="59.6784012" lon="17.8281877">
        <ele>35.2255</ele>
        <time>2013-05-30T19:09:37Z</time>
      </trkpt>
      <trkpt lat="59.678334" lon="17.8281961">
        <ele>35.2255</ele>
        <time>2013-05-30T19:09:38Z</time>
      </trkpt>
      <trkpt lat="59.6782633" lon="17.8282076">
        <ele>35.7061</ele>
        <time>2013-05-30T19:09:39Z</time>
      </trkpt>
      <trkpt lat="59.6781977" lon="17.8282185">
        <ele>36.1868</ele>
        <time>2013-05-30T19:09:40Z</time>
      </trkpt>
      <trkpt lat="59.6781281" lon="17.8282349">
        <ele>35.2255</ele>
        <time>2013-05-30T19:09:41Z</time>
      </trkpt>
      <trkpt lat="59.6780625" lon="17.8282512">
        <ele>35.2255</ele>
        <time>2013-05-30T19:09:42Z</time>
      </trkpt>
      <trkpt lat="59.6779941" lon="17.8282788">
        <ele>35.7061</ele>
        <time>2013-05-30T19:09:43Z</time>
      </trkpt>
      <trkpt lat="59.6779265" lon="17.8283063">
        <ele>35.2255</ele>
        <time>2013-05-30T19:09:44Z</time>
      </trkpt>
      <trkpt lat="59.6778505" lon="17.8283765">
        <ele>34.7449</ele>
        <time>2013-05-30T19:09:45Z</time>
      </trkpt>
      <trkpt lat="59.6777796" lon="17.8284313">
        <ele>34.2642</ele>
        <time>2013-05-30T19:09:46Z</time>
      </trkpt>
      <trkpt lat="59.6776913" lon="17.8284966">
        <ele>33.7834</ele>
        <time>2013-05-30T19:09:47Z</time>
      </trkpt>
      <trkpt lat="59.6776237" lon="17.8285521">
        <ele>33.7834</ele>
        <time>2013-05-30T19:09:48Z</time>
      </trkpt>
      <trkpt lat="59.6775667" lon="17.8286041">
        <ele>33.7834</ele>
        <time>2013-05-30T19:09:49Z</time>
      </trkpt>
      <trkpt lat="59.6775065" lon="17.8286595">
        <ele>33.3029</ele>
        <time>2013-05-30T19:09:50Z</time>
      </trkpt>
      <trkpt lat="59.6774599" lon="17.8287139">
        <ele>33.3029</ele>
        <time>2013-05-30T19:09:51Z</time>
      </trkpt>
      <trkpt lat="59.6774294" lon="17.8287393">
        <ele>33.7834</ele>
        <time>2013-05-30T19:09:52Z</time>
      </trkpt>
      <trkpt lat="59.6774023" lon="17.8287804">
        <ele>32.8223</ele>
        <time>2013-05-30T19:09:53Z</time>
      </trkpt>
      <trkpt lat="59.6773601" lon="17.8287871">
        <ele>32.3416</ele>
        <time>2013-05-30T19:09:54Z</time>
      </trkpt>
      <trkpt lat="59.6773088" lon="17.8287578">
        <ele>31.8607</ele>
        <time>2013-05-30T19:09:55Z</time>
      </trkpt>
      <trkpt lat="59.6772498" lon="17.8287955">
        <ele>31.3801</ele>
        <time>2013-05-30T19:09:56Z</time>
      </trkpt>
      <trkpt lat="59.6771908" lon="17.8288331">
        <ele>31.3801</ele>
        <time>2013-05-30T19:09:57Z</time>
      </trkpt>
      <trkpt lat="59.6770807" lon="17.8289281">
        <ele>27.0543</ele>
        <time>2013-05-30T19:10:00Z</time>
      </trkpt>
      <trkpt lat="59.6770196" lon="17.8290534">
        <ele>27.5349</ele>
        <time>2013-05-30T19:10:01Z</time>
      </trkpt>
      <trkpt lat="59.6769725" lon="17.8291654">
        <ele>28.0155</ele>
        <time>2013-05-30T19:10:02Z</time>
      </trkpt>
      <trkpt lat="59.6769109" lon="17.8292506">
        <ele>27.5349</ele>
        <time>2013-05-30T19:10:03Z</time>
      </trkpt>
      <trkpt lat="59.6768617" lon="17.829342">
        <ele>28.0155</ele>
        <time>2013-05-30T19:10:04Z</time>
      </trkpt>
      <trkpt lat="59.6768243" lon="17.8294552">
        <ele>28.9769</ele>
        <time>2013-05-30T19:10:05Z</time>
      </trkpt>
      <trkpt lat="59.6767651" lon="17.8295373">
        <ele>29.4575</ele>
        <time>2013-05-30T19:10:06Z</time>
      </trkpt>
      <trkpt lat="59.6767095" lon="17.8296237">
        <ele>29.9381</ele>
        <time>2013-05-30T19:10:07Z</time>
      </trkpt>
      <trkpt lat="59.6766544" lon="17.8297155">
        <ele>29.9381</ele>
        <time>2013-05-30T19:10:08Z</time>
      </trkpt>
      <trkpt lat="59.6766022" lon="17.8298036">
        <ele>29.9381</ele>
        <time>2013-05-30T19:10:09Z</time>
      </trkpt>
      <trkpt lat="59.6765551" lon="17.8298945">
        <ele>29.9381</ele>
        <time>2013-05-30T19:10:10Z</time>
      </trkpt>
      <trkpt lat="59.6765098" lon="17.8299868">
        <ele>29.4575</ele>
        <time>2013-05-30T19:10:11Z</time>
      </trkpt>
      <trkpt lat="59.6764667" lon="17.8300827">
        <ele>28.9769</ele>
        <time>2013-05-30T19:10:12Z</time>
      </trkpt>
      <trkpt lat="59.6764263" lon="17.8301804">
        <ele>29.4575</ele>
        <time>2013-05-30T19:10:13Z</time>
      </trkpt>
      <trkpt lat="59.6763888" lon="17.8302902">
        <ele>29.4575</ele>
        <time>2013-05-30T19:10:14Z</time>
      </trkpt>
      <trkpt lat="59.676353" lon="17.8304012">
        <ele>29.9381</ele>
        <time>2013-05-30T19:10:15Z</time>
      </trkpt>
      <trkpt lat="59.6763188" lon="17.8305147">
        <ele>30.4188</ele>
        <time>2013-05-30T19:10:16Z</time>
      </trkpt>
      <trkpt lat="59.6762846" lon="17.8306303">
        <ele>30.4188</ele>
        <time>2013-05-30T19:10:17Z</time>
      </trkpt>
      <trkpt lat="59.6762497" lon="17.8307452">
        <ele>30.4188</ele>
        <time>2013-05-30T19:10:18Z</time>
      </trkpt>
      <trkpt lat="59.6762147" lon="17.8308692">
        <ele>30.4188</ele>
        <time>2013-05-30T19:10:19Z</time>
      </trkpt>
      <trkpt lat="59.6761779" lon="17.8309985">
        <ele>30.8995</ele>
        <time>2013-05-30T19:10:20Z</time>
      </trkpt>
      <trkpt lat="59.6761401" lon="17.831125">
        <ele>30.8995</ele>
        <time>2013-05-30T19:10:21Z</time>
      </trkpt>
      <trkpt lat="59.6761038" lon="17.8312466">
        <ele>30.4188</ele>
        <time>2013-05-30T19:10:22Z</time>
      </trkpt>
      <trkpt lat="59.6760701" lon="17.831363">
        <ele>30.8995</ele>
        <time>2013-05-30T19:10:23Z</time>
      </trkpt>
      <trkpt lat="59.6760335" lon="17.8314666">
        <ele>30.4188</ele>
        <time>2013-05-30T19:10:24Z</time>
      </trkpt>
      <trkpt lat="59.6759939" lon="17.8315591">
        <ele>29.9381</ele>
        <time>2013-05-30T19:10:25Z</time>
      </trkpt>
      <trkpt lat="59.6759608" lon="17.8316536">
        <ele>29.4575</ele>
        <time>2013-05-30T19:10:26Z</time>
      </trkpt>
      <trkpt lat="59.6759304" lon="17.8317523">
        <ele>28.9769</ele>
        <time>2013-05-30T19:10:27Z</time>
      </trkpt>
      <trkpt lat="59.6758995" lon="17.831851">
        <ele>28.9769</ele>
        <time>2013-05-30T19:10:28Z</time>
      </trkpt>
      <trkpt lat="59.6758679" lon="17.8319522">
        <ele>28.9769</ele>
        <time>2013-05-30T19:10:29Z</time>
      </trkpt>
      <trkpt lat="59.6758399" lon="17.8320567">
        <ele>28.9769</ele>
        <time>2013-05-30T19:10:30Z</time>
      </trkpt>
      <trkpt lat="59.6758125" lon="17.8321573">
        <ele>28.9769</ele>
        <time>2013-05-30T19:10:31Z</time>
      </trkpt>
      <trkpt lat="59.6757724" lon="17.8322312">
        <ele>28.0155</ele>
        <time>2013-05-30T19:10:32Z</time>
      </trkpt>
      <trkpt lat="59.6757329" lon="17.8323055">
        <ele>26.5736</ele>
        <time>2013-05-30T19:10:33Z</time>
      </trkpt>
      <trkpt lat="59.6757008" lon="17.8324024">
        <ele>26.0929</ele>
        <time>2013-05-30T19:10:34Z</time>
      </trkpt>
      <trkpt lat="59.6756639" lon="17.832497">
        <ele>26.0929</ele>
        <time>2013-05-30T19:10:35Z</time>
      </trkpt>
      <trkpt lat="59.6756287" lon="17.8325975">
        <ele>26.5736</ele>
        <time>2013-05-30T19:10:36Z</time>
      </trkpt>
      <trkpt lat="59.6755919" lon="17.832698">
        <ele>26.5736</ele>
        <time>2013-05-30T19:10:37Z</time>
      </trkpt>
      <trkpt lat="59.675553" lon="17.8327972">
        <ele>26.5736</ele>
        <time>2013-05-30T19:10:38Z</time>
      </trkpt>
      <trkpt lat="59.6755129" lon="17.8328981">
        <ele>26.5736</ele>
        <time>2013-05-30T19:10:39Z</time>
      </trkpt>
      <trkpt lat="59.6754693" lon="17.8329971">
        <ele>26.5736</ele>
        <time>2013-05-30T19:10:40Z</time>
      </trkpt>
      <trkpt lat="59.6754261" lon="17.8331017">
        <ele>26.5736</ele>
        <time>2013-05-30T19:10:41Z</time>
      </trkpt>
      <trkpt lat="59.6753803" lon="17.8332088">
        <ele>26.5736</ele>
        <time>2013-05-30T19:10:42Z</time>
      </trkpt>
      <trkpt lat="59.6753344" lon="17.8333212">
        <ele>26.5736</ele>
        <time>2013-05-30T19:10:43Z</time>
      </trkpt>
      <trkpt lat="59.6752864" lon="17.8334337">
        <ele>26.5736</ele>
        <time>2013-05-30T19:10:44Z</time>
      </trkpt>
      <trkpt lat="59.6752336" lon="17.8335409">
        <ele>26.5736</ele>
        <time>2013-05-30T19:10:45Z</time>
      </trkpt>
      <trkpt lat="59.6751788" lon="17.8336553">
        <ele>28.0155</ele>
        <time>2013-05-30T19:10:46Z</time>
      </trkpt>
      <trkpt lat="59.6751147" lon="17.8337485">
        <ele>28.9769</ele>
        <time>2013-05-30T19:10:47Z</time>
      </trkpt>
      <trkpt lat="59.6750506" lon="17.833831">
        <ele>29.4575</ele>
        <time>2013-05-30T19:10:48Z</time>
      </trkpt>
      <trkpt lat="59.6749808" lon="17.8338886">
        <ele>28.9769</ele>
        <time>2013-05-30T19:10:49Z</time>
      </trkpt>
      <trkpt lat="59.674906" lon="17.8338974">
        <ele>28.9769</ele>
        <time>2013-05-30T19:10:50Z</time>
      </trkpt>
      <trkpt lat="59.6748388" lon="17.8339145">
        <ele>29.4575</ele>
        <time>2013-05-30T19:10:51Z</time>
      </trkpt>
      <trkpt lat="59.6747802" lon="17.8339393">
        <ele>31.8607</ele>
        <time>2013-05-30T19:10:52Z</time>
      </trkpt>
      <trkpt lat="59.6747175" lon="17.8339441">
        <ele>33.3029</ele>
        <time>2013-05-30T19:10:53Z</time>
      </trkpt>
      <trkpt lat="59.6746595" lon="17.833956">
        <ele>35.2255</ele>
        <time>2013-05-30T19:10:54Z</time>
      </trkpt>
      <trkpt lat="59.6746016" lon="17.8339823">
        <ele>37.1481</ele>
        <time>2013-05-30T19:10:55Z</time>
      </trkpt>
      <trkpt lat="59.6745426" lon="17.8340101">
        <ele>37.6287</ele>
        <time>2013-05-30T19:10:56Z</time>
      </trkpt>
      <trkpt lat="59.674485" lon="17.8340417">
        <ele>38.5901</ele>
        <time>2013-05-30T19:10:57Z</time>
      </trkpt>
      <trkpt lat="59.6744281" lon="17.8340532">
        <ele>38.1094</ele>
        <time>2013-05-30T19:10:58Z</time>
      </trkpt>
      <trkpt lat="59.6743709" lon="17.8340681">
        <ele>38.5901</ele>
        <time>2013-05-30T19:10:59Z</time>
      </trkpt>
      <trkpt lat="59.6743111" lon="17.8340958">
        <ele>38.5901</ele>
        <time>2013-05-30T19:11:00Z</time>
      </trkpt>
      <trkpt lat="59.6742491" lon="17.834137">
        <ele>38.5901</ele>
        <time>2013-05-30T19:11:01Z</time>
      </trkpt>
      <trkpt lat="59.6741894" lon="17.8341821">
        <ele>39.0707</ele>
        <time>2013-05-30T19:11:02Z</time>
      </trkpt>
      <trkpt lat="59.6741271" lon="17.8342318">
        <ele>38.5901</ele>
        <time>2013-05-30T19:11:03Z</time>
      </trkpt>
      <trkpt lat="59.6740795" lon="17.8343268">
        <ele>39.5513</ele>
        <time>2013-05-30T19:11:04Z</time>
      </trkpt>
      <trkpt lat="59.6740261" lon="17.8343945">
        <ele>38.5901</ele>
        <time>2013-05-30T19:11:05Z</time>
      </trkpt>
      <trkpt lat="59.6739844" lon="17.8344918">
        <ele>39.0707</ele>
        <time>2013-05-30T19:11:06Z</time>
      </trkpt>
      <trkpt lat="59.67394" lon="17.8345848">
        <ele>39.5513</ele>
        <time>2013-05-30T19:11:07Z</time>
      </trkpt>
      <trkpt lat="59.6738924" lon="17.8346817">
        <ele>39.5513</ele>
        <time>2013-05-30T19:11:08Z</time>
      </trkpt>
      <trkpt lat="59.6738417" lon="17.8347866">
        <ele>39.5513</ele>
        <time>2013-05-30T19:11:09Z</time>
      </trkpt>
      <trkpt lat="59.673793" lon="17.8349085">
        <ele>40.0321</ele>
        <time>2013-05-30T19:11:10Z</time>
      </trkpt>
      <trkpt lat="59.6737396" lon="17.835014">
        <ele>39.0707</ele>
        <time>2013-05-30T19:11:11Z</time>
      </trkpt>
      <trkpt lat="59.6736931" lon="17.835149">
        <ele>39.0707</ele>
        <time>2013-05-30T19:11:12Z</time>
      </trkpt>
      <trkpt lat="59.6736577" lon="17.8352766">
        <ele>38.1094</ele>
        <time>2013-05-30T19:11:13Z</time>
      </trkpt>
      <trkpt lat="59.6736272" lon="17.8354063">
        <ele>37.6287</ele>
        <time>2013-05-30T19:11:14Z</time>
      </trkpt>
      <trkpt lat="59.6736017" lon="17.8355425">
        <ele>36.6675</ele>
        <time>2013-05-30T19:11:15Z</time>
      </trkpt>
      <trkpt lat="59.6735779" lon="17.8356983">
        <ele>36.6675</ele>
        <time>2013-05-30T19:11:16Z</time>
      </trkpt>
      <trkpt lat="59.6735491" lon="17.8358388">
        <ele>36.1868</ele>
        <time>2013-05-30T19:11:17Z</time>
      </trkpt>
      <trkpt lat="59.6735213" lon="17.8359747">
        <ele>35.7061</ele>
        <time>2013-05-30T19:11:18Z</time>
      </trkpt>
      <trkpt lat="59.6734897" lon="17.8361077">
        <ele>35.2255</ele>
        <time>2013-05-30T19:11:19Z</time>
      </trkpt>
      <trkpt lat="59.6734535" lon="17.836233">
        <ele>34.7449</ele>
        <time>2013-05-30T19:11:20Z</time>
      </trkpt>
      <trkpt lat="59.673412" lon="17.8363522">
        <ele>34.7449</ele>
        <time>2013-05-30T19:11:21Z</time>
      </trkpt>
      <trkpt lat="59.6733699" lon="17.8364702">
        <ele>34.2642</ele>
        <time>2013-05-30T19:11:22Z</time>
      </trkpt>
      <trkpt lat="59.6733323" lon="17.8365992">
        <ele>34.7449</ele>
        <time>2013-05-30T19:11:23Z</time>
      </trkpt>
      <trkpt lat="59.6732988" lon="17.8367314">
        <ele>35.2255</ele>
        <time>2013-05-30T19:11:24Z</time>
      </trkpt>
      <trkpt lat="59.6732693" lon="17.8368556">
        <ele>34.7449</ele>
        <time>2013-05-30T19:11:25Z</time>
      </trkpt>
      <trkpt lat="59.6732478" lon="17.8369951">
        <ele>34.7449</ele>
        <time>2013-05-30T19:11:26Z</time>
      </trkpt>
      <trkpt lat="59.6732163" lon="17.837129">
        <ele>32.8223</ele>
        <time>2013-05-30T19:11:27Z</time>
      </trkpt>
      <trkpt lat="59.6731822" lon="17.8372666">
        <ele>30.4188</ele>
        <time>2013-05-30T19:11:28Z</time>
      </trkpt>
      <trkpt lat="59.6731592" lon="17.8374183">
        <ele>28.9769</ele>
        <time>2013-05-30T19:11:29Z</time>
      </trkpt>
      <trkpt lat="59.6731517" lon="17.8375959">
        <ele>28.9769</ele>
        <time>2013-05-30T19:11:30Z</time>
      </trkpt>
      <trkpt lat="59.6731412" lon="17.8377488">
        <ele>28.0155</ele>
        <time>2013-05-30T19:11:31Z</time>
      </trkpt>
      <trkpt lat="59.6731242" lon="17.8379055">
        <ele>28.0155</ele>
        <time>2013-05-30T19:11:32Z</time>
      </trkpt>
      <trkpt lat="59.6731014" lon="17.8380616">
        <ele>28.0155</ele>
        <time>2013-05-30T19:11:33Z</time>
      </trkpt>
      <trkpt lat="59.673062" lon="17.8382088">
        <ele>27.5349</ele>
        <time>2013-05-30T19:11:34Z</time>
      </trkpt>
      <trkpt lat="59.6730134" lon="17.8383428">
        <ele>27.0543</ele>
        <time>2013-05-30T19:11:35Z</time>
      </trkpt>
      <trkpt lat="59.67295" lon="17.8384609">
        <ele>27.0543</ele>
        <time>2013-05-30T19:11:36Z</time>
      </trkpt>
      <trkpt lat="59.6728922" lon="17.8385703">
        <ele>27.5349</ele>
        <time>2013-05-30T19:11:37Z</time>
      </trkpt>
      <trkpt lat="59.6728396" lon="17.8386815">
        <ele>27.5349</ele>
        <time>2013-05-30T19:11:38Z</time>
      </trkpt>
      <trkpt lat="59.672773" lon="17.8387821">
        <ele>28.0155</ele>
        <time>2013-05-30T19:11:39Z</time>
      </trkpt>
      <trkpt lat="59.6727109" lon="17.8388723">
        <ele>28.9769</ele>
        <time>2013-05-30T19:11:40Z</time>
      </trkpt>
      <trkpt lat="59.6726445" lon="17.8389651">
        <ele>29.4575</ele>
        <time>2013-05-30T19:11:41Z</time>
      </trkpt>
      <trkpt lat="59.6725789" lon="17.8390625">
        <ele>30.8995</ele>
        <time>2013-05-30T19:11:42Z</time>
      </trkpt>
      <trkpt lat="59.6725062" lon="17.8391537">
        <ele>30.8995</ele>
        <time>2013-05-30T19:11:43Z</time>
      </trkpt>
      <trkpt lat="59.6724302" lon="17.8392371">
        <ele>30.4188</ele>
        <time>2013-05-30T19:11:44Z</time>
      </trkpt>
      <trkpt lat="59.6723545" lon="17.8393197">
        <ele>29.9381</ele>
        <time>2013-05-30T19:11:45Z</time>
      </trkpt>
      <trkpt lat="59.6722938" lon="17.8393913">
        <ele>28.4962</ele>
        <time>2013-05-30T19:11:46Z</time>
      </trkpt>
      <trkpt lat="59.6722349" lon="17.8394844">
        <ele>29.4575</ele>
        <time>2013-05-30T19:11:47Z</time>
      </trkpt>
      <trkpt lat="59.6721643" lon="17.8395535">
        <ele>28.4962</ele>
        <time>2013-05-30T19:11:48Z</time>
      </trkpt>
      <trkpt lat="59.6720903" lon="17.8396068">
        <ele>27.5349</ele>
        <time>2013-05-30T19:11:49Z</time>
      </trkpt>
      <trkpt lat="59.6720078" lon="17.8396667">
        <ele>28.0155</ele>
        <time>2013-05-30T19:11:50Z</time>
      </trkpt>
      <trkpt lat="59.6719225" lon="17.8397185">
        <ele>27.5349</ele>
        <time>2013-05-30T19:11:51Z</time>
      </trkpt>
      <trkpt lat="59.6718181" lon="17.8397108">
        <ele>28.0155</ele>
        <time>2013-05-30T19:11:52Z</time>
      </trkpt>
      <trkpt lat="59.671724" lon="17.8397373">
        <ele>28.9769</ele>
        <time>2013-05-30T19:11:53Z</time>
      </trkpt>
      <trkpt lat="59.6716317" lon="17.8397716">
        <ele>28.4962</ele>
        <time>2013-05-30T19:11:54Z</time>
      </trkpt>
      <trkpt lat="59.6715373" lon="17.8398027">
        <ele>28.4962</ele>
        <time>2013-05-30T19:11:55Z</time>
      </trkpt>
      <trkpt lat="59.6714526" lon="17.8398362">
        <ele>28.0155</ele>
        <time>2013-05-30T19:11:56Z</time>
      </trkpt>
      <trkpt lat="59.6713754" lon="17.8398612">
        <ele>27.5349</ele>
        <time>2013-05-30T19:11:57Z</time>
      </trkpt>
      <trkpt lat="59.671288" lon="17.8399035">
        <ele>28.0155</ele>
        <time>2013-05-30T19:11:58Z</time>
      </trkpt>
      <trkpt lat="59.6712024" lon="17.8399429">
        <ele>28.0155</ele>
        <time>2013-05-30T19:11:59Z</time>
      </trkpt>
      <trkpt lat="59.6711181" lon="17.8399765">
        <ele>28.0155</ele>
        <time>2013-05-30T19:12:00Z</time>
      </trkpt>
      <trkpt lat="59.6710334" lon="17.840014">
        <ele>28.0155</ele>
        <time>2013-05-30T19:12:01Z</time>
      </trkpt>
      <trkpt lat="59.6709461" lon="17.840057">
        <ele>28.0155</ele>
        <time>2013-05-30T19:12:02Z</time>
      </trkpt>
      <trkpt lat="59.6708605" lon="17.8401066">
        <ele>27.5349</ele>
        <time>2013-05-30T19:12:03Z</time>
      </trkpt>
      <trkpt lat="59.6707808" lon="17.8401703">
        <ele>27.5349</ele>
        <time>2013-05-30T19:12:04Z</time>
      </trkpt>
      <trkpt lat="59.6706978" lon="17.840245">
        <ele>27.0543</ele>
        <time>2013-05-30T19:12:05Z</time>
      </trkpt>
      <trkpt lat="59.6706196" lon="17.8403274">
        <ele>27.0543</ele>
        <time>2013-05-30T19:12:06Z</time>
      </trkpt>
      <trkpt lat="59.6705469" lon="17.8404253">
        <ele>27.5349</ele>
        <time>2013-05-30T19:12:07Z</time>
      </trkpt>
      <trkpt lat="59.6704809" lon="17.840528">
        <ele>28.4962</ele>
        <time>2013-05-30T19:12:08Z</time>
      </trkpt>
      <trkpt lat="59.6704172" lon="17.8406197">
        <ele>29.4575</ele>
        <time>2013-05-30T19:12:09Z</time>
      </trkpt>
      <trkpt lat="59.6703565" lon="17.8407007">
        <ele>29.4575</ele>
        <time>2013-05-30T19:12:10Z</time>
      </trkpt>
      <trkpt lat="59.6702959" lon="17.8407729">
        <ele>28.9769</ele>
        <time>2013-05-30T19:12:11Z</time>
      </trkpt>
      <trkpt lat="59.6702352" lon="17.8408496">
        <ele>29.4575</ele>
        <time>2013-05-30T19:12:12Z</time>
      </trkpt>
      <trkpt lat="59.6701786" lon="17.8409292">
        <ele>29.9381</ele>
        <time>2013-05-30T19:12:13Z</time>
      </trkpt>
      <trkpt lat="59.6701198" lon="17.8410063">
        <ele>30.4188</ele>
        <time>2013-05-30T19:12:14Z</time>
      </trkpt>
      <trkpt lat="59.6700575" lon="17.841074">
        <ele>30.8995</ele>
        <time>2013-05-30T19:12:15Z</time>
      </trkpt>
      <trkpt lat="59.6699968" lon="17.8411329">
        <ele>31.3801</ele>
        <time>2013-05-30T19:12:16Z</time>
      </trkpt>
      <trkpt lat="59.669936" lon="17.8411833">
        <ele>31.3801</ele>
        <time>2013-05-30T19:12:17Z</time>
      </trkpt>
      <trkpt lat="59.6698768" lon="17.8412244">
        <ele>31.3801</ele>
        <time>2013-05-30T19:12:18Z</time>
      </trkpt>
      <trkpt lat="59.6698162" lon="17.8412601">
        <ele>30.4188</ele>
        <time>2013-05-30T19:12:19Z</time>
      </trkpt>
      <trkpt lat="59.6697556" lon="17.8413005">
        <ele>31.3801</ele>
        <time>2013-05-30T19:12:20Z</time>
      </trkpt>
      <trkpt lat="59.6696974" lon="17.8413365">
        <ele>31.3801</ele>
        <time>2013-05-30T19:12:21Z</time>
      </trkpt>
      <trkpt lat="59.6696396" lon="17.8413759">
        <ele>32.8223</ele>
        <time>2013-05-30T19:12:22Z</time>
      </trkpt>
      <trkpt lat="59.6695765" lon="17.8414187">
        <ele>33.3029</ele>
        <time>2013-05-30T19:12:23Z</time>
      </trkpt>
      <trkpt lat="59.66951" lon="17.8414593">
        <ele>33.7834</ele>
        <time>2013-05-30T19:12:24Z</time>
      </trkpt>
      <trkpt lat="59.6694457" lon="17.8415006">
        <ele>34.7449</ele>
        <time>2013-05-30T19:12:25Z</time>
      </trkpt>
      <trkpt lat="59.6693872" lon="17.8415345">
        <ele>36.1868</ele>
        <time>2013-05-30T19:12:26Z</time>
      </trkpt>
      <trkpt lat="59.6693256" lon="17.8415713">
        <ele>36.6675</ele>
        <time>2013-05-30T19:12:27Z</time>
      </trkpt>
      <trkpt lat="59.66926" lon="17.8416209">
        <ele>37.6287</ele>
        <time>2013-05-30T19:12:28Z</time>
      </trkpt>
      <trkpt lat="59.6691949" lon="17.8416737">
        <ele>38.1094</ele>
        <time>2013-05-30T19:12:29Z</time>
      </trkpt>
      <trkpt lat="59.6691267" lon="17.8417287">
        <ele>38.1094</ele>
        <time>2013-05-30T19:12:30Z</time>
      </trkpt>
      <trkpt lat="59.6690683" lon="17.8417925">
        <ele>38.5901</ele>
        <time>2013-05-30T19:12:31Z</time>
      </trkpt>
      <trkpt lat="59.6690115" lon="17.8418659">
        <ele>39.0707</ele>
        <time>2013-05-30T19:12:32Z</time>
      </trkpt>
      <trkpt lat="59.6689562" lon="17.841933">
        <ele>38.1094</ele>
        <time>2013-05-30T19:12:33Z</time>
      </trkpt>
      <trkpt lat="59.6689008" lon="17.8419967">
        <ele>37.6287</ele>
        <time>2013-05-30T19:12:34Z</time>
      </trkpt>
      <trkpt lat="59.6688592" lon="17.8420664">
        <ele>36.6675</ele>
        <time>2013-05-30T19:12:35Z</time>
      </trkpt>
      <trkpt lat="59.6688119" lon="17.8421488">
        <ele>36.6675</ele>
        <time>2013-05-30T19:12:36Z</time>
      </trkpt>
      <trkpt lat="59.6687604" lon="17.8422259">
        <ele>36.6675</ele>
        <time>2013-05-30T19:12:37Z</time>
      </trkpt>
      <trkpt lat="59.6687108" lon="17.8422937">
        <ele>36.1868</ele>
        <time>2013-05-30T19:12:38Z</time>
      </trkpt>
      <trkpt lat="59.6686491" lon="17.8423487">
        <ele>34.7449</ele>
        <time>2013-05-30T19:12:39Z</time>
      </trkpt>
      <trkpt lat="59.6685925" lon="17.8424186">
        <ele>34.2642</ele>
        <time>2013-05-30T19:12:40Z</time>
      </trkpt>
      <trkpt lat="59.6685269" lon="17.8424775">
        <ele>32.8223</ele>
        <time>2013-05-30T19:12:41Z</time>
      </trkpt>
      <trkpt lat="59.6684716" lon="17.8425544">
        <ele>33.7834</ele>
        <time>2013-05-30T19:12:42Z</time>
      </trkpt>
      <trkpt lat="59.668416" lon="17.8426189">
        <ele>33.7834</ele>
        <time>2013-05-30T19:12:43Z</time>
      </trkpt>
      <trkpt lat="59.6683169" lon="17.8426479">
        <ele>33.3029</ele>
        <time>2013-05-30T19:12:44Z</time>
      </trkpt>
      <trkpt lat="59.6682305" lon="17.8426756">
        <ele>32.8223</ele>
        <time>2013-05-30T19:12:45Z</time>
      </trkpt>
      <trkpt lat="59.6681646" lon="17.8427218">
        <ele>31.8607</ele>
        <time>2013-05-30T19:12:46Z</time>
      </trkpt>
      <trkpt lat="59.668069" lon="17.8427728">
        <ele>31.8607</ele>
        <time>2013-05-30T19:12:47Z</time>
      </trkpt>
      <trkpt lat="59.6679745" lon="17.8428103">
        <ele>30.4188</ele>
        <time>2013-05-30T19:12:48Z</time>
      </trkpt>
      <trkpt lat="59.6678767" lon="17.8428525">
        <ele>29.4575</ele>
        <time>2013-05-30T19:12:49Z</time>
      </trkpt>
      <trkpt lat="59.6677795" lon="17.8429124">
        <ele>28.4962</ele>
        <time>2013-05-30T19:12:50Z</time>
      </trkpt>
      <trkpt lat="59.6676855" lon="17.8429887">
        <ele>28.0155</ele>
        <time>2013-05-30T19:12:51Z</time>
      </trkpt>
      <trkpt lat="59.6675981" lon="17.8430867">
        <ele>28.0155</ele>
        <time>2013-05-30T19:12:52Z</time>
      </trkpt>
      <trkpt lat="59.6675163" lon="17.8431971">
        <ele>28.0155</ele>
        <time>2013-05-30T19:12:53Z</time>
      </trkpt>
      <trkpt lat="59.6674406" lon="17.8433048">
        <ele>27.5349</ele>
        <time>2013-05-30T19:12:54Z</time>
      </trkpt>
      <trkpt lat="59.667363" lon="17.8433987">
        <ele>26.5736</ele>
        <time>2013-05-30T19:12:55Z</time>
      </trkpt>
      <trkpt lat="59.6672863" lon="17.8435073">
        <ele>26.0929</ele>
        <time>2013-05-30T19:12:56Z</time>
      </trkpt>
      <trkpt lat="59.6672202" lon="17.8436327">
        <ele>26.0929</ele>
        <time>2013-05-30T19:12:57Z</time>
      </trkpt>
      <trkpt lat="59.6671596" lon="17.8437612">
        <ele>26.0929</ele>
        <time>2013-05-30T19:12:58Z</time>
      </trkpt>
      <trkpt lat="59.6671132" lon="17.8439084">
        <ele>26.0929</ele>
        <time>2013-05-30T19:12:59Z</time>
      </trkpt>
      <trkpt lat="59.6670801" lon="17.8440641">
        <ele>26.5736</ele>
        <time>2013-05-30T19:13:00Z</time>
      </trkpt>
      <trkpt lat="59.6670591" lon="17.8442285">
        <ele>27.0543</ele>
        <time>2013-05-30T19:13:01Z</time>
      </trkpt>
      <trkpt lat="59.6670324" lon="17.8443928">
        <ele>27.0543</ele>
        <time>2013-05-30T19:13:02Z</time>
      </trkpt>
      <trkpt lat="59.6670063" lon="17.8445564">
        <ele>27.5349</ele>
        <time>2013-05-30T19:13:03Z</time>
      </trkpt>
      <trkpt lat="59.6669775" lon="17.8447042">
        <ele>27.0543</ele>
        <time>2013-05-30T19:13:04Z</time>
      </trkpt>
      <trkpt lat="59.6669423" lon="17.8448377">
        <ele>27.0543</ele>
        <time>2013-05-30T19:13:05Z</time>
      </trkpt>
      <trkpt lat="59.6668962" lon="17.844948">
        <ele>26.0929</ele>
        <time>2013-05-30T19:13:06Z</time>
      </trkpt>
      <trkpt lat="59.6668492" lon="17.8450504">
        <ele>26.0929</ele>
        <time>2013-05-30T19:13:07Z</time>
      </trkpt>
      <trkpt lat="59.6667977" lon="17.8451281">
        <ele>25.1317</ele>
        <time>2013-05-30T19:13:08Z</time>
      </trkpt>
      <trkpt lat="59.6667476" lon="17.8452041">
        <ele>24.1703</ele>
        <time>2013-05-30T19:13:09Z</time>
      </trkpt>
      <trkpt lat="59.6667002" lon="17.8452921">
        <ele>24.651</ele>
        <time>2013-05-30T19:13:10Z</time>
      </trkpt>
      <trkpt lat="59.666651" lon="17.8453779">
        <ele>24.651</ele>
        <time>2013-05-30T19:13:11Z</time>
      </trkpt>
      <trkpt lat="59.6666014" lon="17.8454682">
        <ele>24.651</ele>
        <time>2013-05-30T19:13:12Z</time>
      </trkpt>
      <trkpt lat="59.666551" lon="17.8455635">
        <ele>24.651</ele>
        <time>2013-05-30T19:13:13Z</time>
      </trkpt>
      <trkpt lat="59.6665009" lon="17.8456556">
        <ele>24.1703</ele>
        <time>2013-05-30T19:13:14Z</time>
      </trkpt>
      <trkpt lat="59.6664537" lon="17.8457546">
        <ele>24.651</ele>
        <time>2013-05-30T19:13:15Z</time>
      </trkpt>
      <trkpt lat="59.6664026" lon="17.8458386">
        <ele>25.1317</ele>
        <time>2013-05-30T19:13:16Z</time>
      </trkpt>
      <trkpt lat="59.666349" lon="17.8459204">
        <ele>25.6123</ele>
        <time>2013-05-30T19:13:17Z</time>
      </trkpt>
      <trkpt lat="59.666294" lon="17.8460042">
        <ele>26.0929</ele>
        <time>2013-05-30T19:13:18Z</time>
      </trkpt>
      <trkpt lat="59.6662341" lon="17.8460938">
        <ele>27.0543</ele>
        <time>2013-05-30T19:13:19Z</time>
      </trkpt>
      <trkpt lat="59.6661715" lon="17.8461683">
        <ele>27.5349</ele>
        <time>2013-05-30T19:13:20Z</time>
      </trkpt>
      <trkpt lat="59.666103" lon="17.8462348">
        <ele>28.0155</ele>
        <time>2013-05-30T19:13:21Z</time>
      </trkpt>
      <trkpt lat="59.6660324" lon="17.846297">
        <ele>28.0155</ele>
        <time>2013-05-30T19:13:22Z</time>
      </trkpt>
      <trkpt lat="59.6659595" lon="17.8463467">
        <ele>28.4962</ele>
        <time>2013-05-30T19:13:23Z</time>
      </trkpt>
      <trkpt lat="59.6658861" lon="17.8463792">
        <ele>28.0155</ele>
        <time>2013-05-30T19:13:24Z</time>
      </trkpt>
      <trkpt lat="59.6658099" lon="17.8464212">
        <ele>27.5349</ele>
        <time>2013-05-30T19:13:25Z</time>
      </trkpt>
      <trkpt lat="59.665733" lon="17.8464796">
        <ele>27.5349</ele>
        <time>2013-05-30T19:13:26Z</time>
      </trkpt>
      <trkpt lat="59.6656533" lon="17.8465459">
        <ele>27.0543</ele>
        <time>2013-05-30T19:13:27Z</time>
      </trkpt>
      <trkpt lat="59.6655731" lon="17.8466283">
        <ele>26.5736</ele>
        <time>2013-05-30T19:13:28Z</time>
      </trkpt>
      <trkpt lat="59.6654948" lon="17.8467329">
        <ele>26.0929</ele>
        <time>2013-05-30T19:13:29Z</time>
      </trkpt>
      <trkpt lat="59.6654229" lon="17.8468619">
        <ele>25.1317</ele>
        <time>2013-05-30T19:13:30Z</time>
      </trkpt>
      <trkpt lat="59.665357" lon="17.8470072">
        <ele>24.651</ele>
        <time>2013-05-30T19:13:31Z</time>
      </trkpt>
      <trkpt lat="59.665298" lon="17.8471632">
        <ele>23.6896</ele>
        <time>2013-05-30T19:13:32Z</time>
      </trkpt>
      <trkpt lat="59.6652461" lon="17.8473321">
        <ele>23.209</ele>
        <time>2013-05-30T19:13:33Z</time>
      </trkpt>
      <trkpt lat="59.6652029" lon="17.8475063">
        <ele>22.2476</ele>
        <time>2013-05-30T19:13:34Z</time>
      </trkpt>
      <trkpt lat="59.6651718" lon="17.8476921">
        <ele>21.2864</ele>
        <time>2013-05-30T19:13:35Z</time>
      </trkpt>
      <trkpt lat="59.6651501" lon="17.8478824">
        <ele>20.8057</ele>
        <time>2013-05-30T19:13:36Z</time>
      </trkpt>
      <trkpt lat="59.6651287" lon="17.8480679">
        <ele>19.3638</ele>
        <time>2013-05-30T19:13:37Z</time>
      </trkpt>
      <trkpt lat="59.6651211" lon="17.8482673">
        <ele>19.3638</ele>
        <time>2013-05-30T19:13:38Z</time>
      </trkpt>
      <trkpt lat="59.6651204" lon="17.8484634">
        <ele>19.3638</ele>
        <time>2013-05-30T19:13:39Z</time>
      </trkpt>
      <trkpt lat="59.6651234" lon="17.848653">
        <ele>19.8444</ele>
        <time>2013-05-30T19:13:40Z</time>
      </trkpt>
      <trkpt lat="59.6651261" lon="17.8488387">
        <ele>19.8444</ele>
        <time>2013-05-30T19:13:41Z</time>
      </trkpt>
      <trkpt lat="59.665126" lon="17.8490243">
        <ele>20.325</ele>
        <time>2013-05-30T19:13:42Z</time>
      </trkpt>
      <trkpt lat="59.6651127" lon="17.849178">
        <ele>19.3638</ele>
        <time>2013-05-30T19:13:43Z</time>
      </trkpt>
      <trkpt lat="59.66509" lon="17.8493293">
        <ele>18.8831</ele>
        <time>2013-05-30T19:13:44Z</time>
      </trkpt>
      <trkpt lat="59.6650601" lon="17.8494962">
        <ele>19.3638</ele>
        <time>2013-05-30T19:13:45Z</time>
      </trkpt>
      <trkpt lat="59.6650252" lon="17.8496641">
        <ele>20.325</ele>
        <time>2013-05-30T19:13:46Z</time>
      </trkpt>
      <trkpt lat="59.664991" lon="17.849837">
        <ele>21.2864</ele>
        <time>2013-05-30T19:13:47Z</time>
      </trkpt>
      <trkpt lat="59.6649578" lon="17.8499953">
        <ele>21.767</ele>
        <time>2013-05-30T19:13:48Z</time>
      </trkpt>
      <trkpt lat="59.6649319" lon="17.8501502">
        <ele>21.767</ele>
        <time>2013-05-30T19:13:49Z</time>
      </trkpt>
      <trkpt lat="59.6649173" lon="17.8503008">
        <ele>21.767</ele>
        <time>2013-05-30T19:13:50Z</time>
      </trkpt>
      <trkpt lat="59.6649076" lon="17.8504461">
        <ele>21.767</ele>
        <time>2013-05-30T19:13:51Z</time>
      </trkpt>
      <trkpt lat="59.6649024" lon="17.850586">
        <ele>21.767</ele>
        <time>2013-05-30T19:13:52Z</time>
      </trkpt>
      <trkpt lat="59.6649012" lon="17.8507248">
        <ele>21.2864</ele>
        <time>2013-05-30T19:13:53Z</time>
      </trkpt>
      <trkpt lat="59.6649039" lon="17.8508643">
        <ele>21.767</ele>
        <time>2013-05-30T19:13:54Z</time>
      </trkpt>
      <trkpt lat="59.6649101" lon="17.8510029">
        <ele>21.767</ele>
        <time>2013-05-30T19:13:55Z</time>
      </trkpt>
      <trkpt lat="59.6649205" lon="17.8511402">
        <ele>21.767</ele>
        <time>2013-05-30T19:13:56Z</time>
      </trkpt>
      <trkpt lat="59.6649412" lon="17.8512745">
        <ele>21.767</ele>
        <time>2013-05-30T19:13:57Z</time>
      </trkpt>
      <trkpt lat="59.6649764" lon="17.8513968">
        <ele>21.767</ele>
        <time>2013-05-30T19:13:58Z</time>
      </trkpt>
      <trkpt lat="59.6650278" lon="17.8514974">
        <ele>21.767</ele>
        <time>2013-05-30T19:13:59Z</time>
      </trkpt>
      <trkpt lat="59.6650915" lon="17.8515745">
        <ele>22.2476</ele>
        <time>2013-05-30T19:14:00Z</time>
      </trkpt>
      <trkpt lat="59.6651627" lon="17.8516248">
        <ele>22.7283</ele>
        <time>2013-05-30T19:14:01Z</time>
      </trkpt>
      <trkpt lat="59.6652414" lon="17.8516527">
        <ele>23.209</ele>
        <time>2013-05-30T19:14:02Z</time>
      </trkpt>
      <trkpt lat="59.6653205" lon="17.851658">
        <ele>23.209</ele>
        <time>2013-05-30T19:14:03Z</time>
      </trkpt>
      <trkpt lat="59.6653976" lon="17.8516588">
        <ele>22.7283</ele>
        <time>2013-05-30T19:14:04Z</time>
      </trkpt>
      <trkpt lat="59.6654763" lon="17.8516567">
        <ele>23.209</ele>
        <time>2013-05-30T19:14:05Z</time>
      </trkpt>
      <trkpt lat="59.6655524" lon="17.8516485">
        <ele>23.209</ele>
        <time>2013-05-30T19:14:06Z</time>
      </trkpt>
      <trkpt lat="59.665629" lon="17.8516423">
        <ele>22.7283</ele>
        <time>2013-05-30T19:14:07Z</time>
      </trkpt>
      <trkpt lat="59.6657028" lon="17.8516309">
        <ele>22.7283</ele>
        <time>2013-05-30T19:14:08Z</time>
      </trkpt>
      <trkpt lat="59.6657788" lon="17.8516257">
        <ele>22.7283</ele>
        <time>2013-05-30T19:14:09Z</time>
      </trkpt>
      <trkpt lat="59.6658532" lon="17.8516216">
        <ele>23.209</ele>
        <time>2013-05-30T19:14:10Z</time>
      </trkpt>
      <trkpt lat="59.6659278" lon="17.8516303">
        <ele>23.209</ele>
        <time>2013-05-30T19:14:11Z</time>
      </trkpt>
      <trkpt lat="59.666004" lon="17.8516505">
        <ele>23.209</ele>
        <time>2013-05-30T19:14:12Z</time>
      </trkpt>
      <trkpt lat="59.6660793" lon="17.8516807">
        <ele>23.209</ele>
        <time>2013-05-30T19:14:13Z</time>
      </trkpt>
      <trkpt lat="59.6661516" lon="17.8517203">
        <ele>23.209</ele>
        <time>2013-05-30T19:14:14Z</time>
      </trkpt>
      <trkpt lat="59.6662198" lon="17.8517708">
        <ele>23.209</ele>
        <time>2013-05-30T19:14:15Z</time>
      </trkpt>
      <trkpt lat="59.666286" lon="17.8518293">
        <ele>23.209</ele>
        <time>2013-05-30T19:14:16Z</time>
      </trkpt>
      <trkpt lat="59.6663507" lon="17.8518961">
        <ele>23.6896</ele>
        <time>2013-05-30T19:14:17Z</time>
      </trkpt>
      <trkpt lat="59.6664144" lon="17.8519589">
        <ele>23.209</ele>
        <time>2013-05-30T19:14:18Z</time>
      </trkpt>
      <trkpt lat="59.666478" lon="17.8520272">
        <ele>23.209</ele>
        <time>2013-05-30T19:14:19Z</time>
      </trkpt>
      <trkpt lat="59.666542" lon="17.8520988">
        <ele>22.7283</ele>
        <time>2013-05-30T19:14:20Z</time>
      </trkpt>
      <trkpt lat="59.6666082" lon="17.8521848">
        <ele>22.2476</ele>
        <time>2013-05-30T19:14:21Z</time>
      </trkpt>
      <trkpt lat="59.6666764" lon="17.8522676">
        <ele>22.2476</ele>
        <time>2013-05-30T19:14:22Z</time>
      </trkpt>
      <trkpt lat="59.6667466" lon="17.8523566">
        <ele>22.2476</ele>
        <time>2013-05-30T19:14:23Z</time>
      </trkpt>
      <trkpt lat="59.6668169" lon="17.8524446">
        <ele>21.767</ele>
        <time>2013-05-30T19:14:24Z</time>
      </trkpt>
      <trkpt lat="59.6668893" lon="17.8525381">
        <ele>21.767</ele>
        <time>2013-05-30T19:14:25Z</time>
      </trkpt>
      <trkpt lat="59.6669625" lon="17.8526285">
        <ele>21.2864</ele>
        <time>2013-05-30T19:14:26Z</time>
      </trkpt>
      <trkpt lat="59.6670341" lon="17.8527199">
        <ele>21.2864</ele>
        <time>2013-05-30T19:14:27Z</time>
      </trkpt>
      <trkpt lat="59.6671047" lon="17.8528078">
        <ele>20.8057</ele>
        <time>2013-05-30T19:14:28Z</time>
      </trkpt>
      <trkpt lat="59.6671738" lon="17.8528927">
        <ele>20.8057</ele>
        <time>2013-05-30T19:14:29Z</time>
      </trkpt>
      <trkpt lat="59.6672412" lon="17.852976">
        <ele>20.325</ele>
        <time>2013-05-30T19:14:30Z</time>
      </trkpt>
      <trkpt lat="59.6673076" lon="17.8530544">
        <ele>20.325</ele>
        <time>2013-05-30T19:14:31Z</time>
      </trkpt>
      <trkpt lat="59.6673722" lon="17.853131">
        <ele>19.8444</ele>
        <time>2013-05-30T19:14:32Z</time>
      </trkpt>
      <trkpt lat="59.6674371" lon="17.8532063">
        <ele>19.3638</ele>
        <time>2013-05-30T19:14:33Z</time>
      </trkpt>
      <trkpt lat="59.6675023" lon="17.8532828">
        <ele>19.3638</ele>
        <time>2013-05-30T19:14:34Z</time>
      </trkpt>
      <trkpt lat="59.6675676" lon="17.8533626">
        <ele>19.8444</ele>
        <time>2013-05-30T19:14:35Z</time>
      </trkpt>
      <trkpt lat="59.6676329" lon="17.8534391">
        <ele>19.8444</ele>
        <time>2013-05-30T19:14:36Z</time>
      </trkpt>
      <trkpt lat="59.6676965" lon="17.8535091">
        <ele>19.8444</ele>
        <time>2013-05-30T19:14:37Z</time>
      </trkpt>
      <trkpt lat="59.6677588" lon="17.8535703">
        <ele>19.8444</ele>
        <time>2013-05-30T19:14:38Z</time>
      </trkpt>
      <trkpt lat="59.6678217" lon="17.8536298">
        <ele>19.8444</ele>
        <time>2013-05-30T19:14:39Z</time>
      </trkpt>
      <trkpt lat="59.6678854" lon="17.8536886">
        <ele>19.8444</ele>
        <time>2013-05-30T19:14:40Z</time>
      </trkpt>
      <trkpt lat="59.6679493" lon="17.8537452">
        <ele>20.325</ele>
        <time>2013-05-30T19:14:41Z</time>
      </trkpt>
      <trkpt lat="59.6680133" lon="17.8537993">
        <ele>20.325</ele>
        <time>2013-05-30T19:14:42Z</time>
      </trkpt>
      <trkpt lat="59.6680778" lon="17.8538506">
        <ele>20.325</ele>
        <time>2013-05-30T19:14:43Z</time>
      </trkpt>
      <trkpt lat="59.6681425" lon="17.8539013">
        <ele>20.8057</ele>
        <time>2013-05-30T19:14:44Z</time>
      </trkpt>
      <trkpt lat="59.6682072" lon="17.8539474">
        <ele>21.2864</ele>
        <time>2013-05-30T19:14:45Z</time>
      </trkpt>
      <trkpt lat="59.6682709" lon="17.8539899">
        <ele>21.2864</ele>
        <time>2013-05-30T19:14:46Z</time>
      </trkpt>
      <trkpt lat="59.668333" lon="17.8540325">
        <ele>22.2476</ele>
        <time>2013-05-30T19:14:47Z</time>
      </trkpt>
      <trkpt lat="59.6683952" lon="17.8540666">
        <ele>22.2476</ele>
        <time>2013-05-30T19:14:48Z</time>
      </trkpt>
      <trkpt lat="59.6684569" lon="17.8540992">
        <ele>22.2476</ele>
        <time>2013-05-30T19:14:49Z</time>
      </trkpt>
      <trkpt lat="59.6685206" lon="17.8541293">
        <ele>22.2476</ele>
        <time>2013-05-30T19:14:50Z</time>
      </trkpt>
      <trkpt lat="59.6685859" lon="17.8541581">
        <ele>22.2476</ele>
        <time>2013-05-30T19:14:51Z</time>
      </trkpt>
      <trkpt lat="59.6686528" lon="17.8541852">
        <ele>21.767</ele>
        <time>2013-05-30T19:14:52Z</time>
      </trkpt>
      <trkpt lat="59.6687199" lon="17.8542127">
        <ele>21.767</ele>
        <time>2013-05-30T19:14:53Z</time>
      </trkpt>
      <trkpt lat="59.6687881" lon="17.8542342">
        <ele>21.2864</ele>
        <time>2013-05-30T19:14:54Z</time>
      </trkpt>
      <trkpt lat="59.6688553" lon="17.8542553">
        <ele>21.767</ele>
        <time>2013-05-30T19:14:55Z</time>
      </trkpt>
      <trkpt lat="59.6689231" lon="17.8542738">
        <ele>21.767</ele>
        <time>2013-05-30T19:14:56Z</time>
      </trkpt>
      <trkpt lat="59.668993" lon="17.8542865">
        <ele>20.8057</ele>
        <time>2013-05-30T19:14:57Z</time>
      </trkpt>
      <trkpt lat="59.6690633" lon="17.8543007">
        <ele>20.8057</ele>
        <time>2013-05-30T19:14:58Z</time>
      </trkpt>
      <trkpt lat="59.669133" lon="17.8543124">
        <ele>21.2864</ele>
        <time>2013-05-30T19:14:59Z</time>
      </trkpt>
      <trkpt lat="59.6692049" lon="17.8543143">
        <ele>19.8444</ele>
        <time>2013-05-30T19:15:00Z</time>
      </trkpt>
      <trkpt lat="59.6692749" lon="17.8543266">
        <ele>20.8057</ele>
        <time>2013-05-30T19:15:01Z</time>
      </trkpt>
      <trkpt lat="59.6693442" lon="17.8543427">
        <ele>21.2864</ele>
        <time>2013-05-30T19:15:02Z</time>
      </trkpt>
      <trkpt lat="59.6694128" lon="17.8543567">
        <ele>22.2476</ele>
        <time>2013-05-30T19:15:03Z</time>
      </trkpt>
      <trkpt lat="59.6694816" lon="17.8543691">
        <ele>22.7283</ele>
        <time>2013-05-30T19:15:04Z</time>
      </trkpt>
      <trkpt lat="59.6695514" lon="17.8543772">
        <ele>22.7283</ele>
        <time>2013-05-30T19:15:05Z</time>
      </trkpt>
      <trkpt lat="59.669621" lon="17.8543862">
        <ele>22.7283</ele>
        <time>2013-05-30T19:15:06Z</time>
      </trkpt>
      <trkpt lat="59.6696925" lon="17.8543933">
        <ele>22.7283</ele>
        <time>2013-05-30T19:15:07Z</time>
      </trkpt>
      <trkpt lat="59.6697628" lon="17.8544034">
        <ele>22.7283</ele>
        <time>2013-05-30T19:15:08Z</time>
      </trkpt>
      <trkpt lat="59.6698303" lon="17.8544246">
        <ele>22.7283</ele>
        <time>2013-05-30T19:15:09Z</time>
      </trkpt>
      <trkpt lat="59.6698966" lon="17.8544504">
        <ele>23.209</ele>
        <time>2013-05-30T19:15:10Z</time>
      </trkpt>
      <trkpt lat="59.6699653" lon="17.8544742">
        <ele>23.6896</ele>
        <time>2013-05-30T19:15:11Z</time>
      </trkpt>
      <trkpt lat="59.6700305" lon="17.8545023">
        <ele>23.6896</ele>
        <time>2013-05-30T19:15:12Z</time>
      </trkpt>
      <trkpt lat="59.6700927" lon="17.8545324">
        <ele>24.1703</ele>
        <time>2013-05-30T19:15:13Z</time>
      </trkpt>
      <trkpt lat="59.6701572" lon="17.8545665">
        <ele>25.1317</ele>
        <time>2013-05-30T19:15:14Z</time>
      </trkpt>
      <trkpt lat="59.6702234" lon="17.8545997">
        <ele>26.0929</ele>
        <time>2013-05-30T19:15:15Z</time>
      </trkpt>
      <trkpt lat="59.6702908" lon="17.8546302">
        <ele>27.0543</ele>
        <time>2013-05-30T19:15:16Z</time>
      </trkpt>
      <trkpt lat="59.6703508" lon="17.8546737">
        <ele>27.0543</ele>
        <time>2013-05-30T19:15:17Z</time>
      </trkpt>
      <trkpt lat="59.6704124" lon="17.8547249">
        <ele>27.0543</ele>
        <time>2013-05-30T19:15:18Z</time>
      </trkpt>
      <trkpt lat="59.6704666" lon="17.8547824">
        <ele>27.0543</ele>
        <time>2013-05-30T19:15:19Z</time>
      </trkpt>
      <trkpt lat="59.6705191" lon="17.854827">
        <ele>26.5736</ele>
        <time>2013-05-30T19:15:20Z</time>
      </trkpt>
      <trkpt lat="59.6705735" lon="17.8548809">
        <ele>27.5349</ele>
        <time>2013-05-30T19:15:21Z</time>
      </trkpt>
      <trkpt lat="59.6706294" lon="17.8549276">
        <ele>25.6123</ele>
        <time>2013-05-30T19:15:22Z</time>
      </trkpt>
      <trkpt lat="59.6706886" lon="17.8549784">
        <ele>25.6123</ele>
        <time>2013-05-30T19:15:23Z</time>
      </trkpt>
      <trkpt lat="59.670745" lon="17.8550309">
        <ele>23.209</ele>
        <time>2013-05-30T19:15:24Z</time>
      </trkpt>
      <trkpt lat="59.6708051" lon="17.8550905">
        <ele>22.7283</ele>
        <time>2013-05-30T19:15:25Z</time>
      </trkpt>
      <trkpt lat="59.6708673" lon="17.8551524">
        <ele>22.7283</ele>
        <time>2013-05-30T19:15:26Z</time>
      </trkpt>
      <trkpt lat="59.6709292" lon="17.8552135">
        <ele>22.7283</ele>
        <time>2013-05-30T19:15:27Z</time>
      </trkpt>
      <trkpt lat="59.670991" lon="17.8552844">
        <ele>23.6896</ele>
        <time>2013-05-30T19:15:28Z</time>
      </trkpt>
      <trkpt lat="59.6710561" lon="17.8553564">
        <ele>24.651</ele>
        <time>2013-05-30T19:15:29Z</time>
      </trkpt>
      <trkpt lat="59.6711196" lon="17.8554326">
        <ele>25.1317</ele>
        <time>2013-05-30T19:15:30Z</time>
      </trkpt>
      <trkpt lat="59.6711822" lon="17.8555108">
        <ele>25.6123</ele>
        <time>2013-05-30T19:15:31Z</time>
      </trkpt>
      <trkpt lat="59.6712437" lon="17.8555951">
        <ele>27.5349</ele>
        <time>2013-05-30T19:15:32Z</time>
      </trkpt>
      <trkpt lat="59.6713034" lon="17.8556653">
        <ele>28.0155</ele>
        <time>2013-05-30T19:15:33Z</time>
      </trkpt>
      <trkpt lat="59.6713624" lon="17.855751">
        <ele>29.9381</ele>
        <time>2013-05-30T19:15:34Z</time>
      </trkpt>
      <trkpt lat="59.6714152" lon="17.8558347">
        <ele>31.3801</ele>
        <time>2013-05-30T19:15:35Z</time>
      </trkpt>
      <trkpt lat="59.6714659" lon="17.8559127">
        <ele>31.8607</ele>
        <time>2013-05-30T19:15:36Z</time>
      </trkpt>
      <trkpt lat="59.6715219" lon="17.8559875">
        <ele>34.2642</ele>
        <time>2013-05-30T19:15:37Z</time>
      </trkpt>
      <trkpt lat="59.6715843" lon="17.8560613">
        <ele>38.5901</ele>
        <time>2013-05-30T19:15:38Z</time>
      </trkpt>
      <trkpt lat="59.6716428" lon="17.8561391">
        <ele>42.4354</ele>
        <time>2013-05-30T19:15:39Z</time>
      </trkpt>
      <trkpt lat="59.6716938" lon="17.8562154">
        <ele>44.358</ele>
        <time>2013-05-30T19:15:40Z</time>
      </trkpt>
      <trkpt lat="59.6717418" lon="17.8562909">
        <ele>45.7999</ele>
        <time>2013-05-30T19:15:41Z</time>
      </trkpt>
      <trkpt lat="59.6717846" lon="17.8563708">
        <ele>45.7999</ele>
        <time>2013-05-30T19:15:42Z</time>
      </trkpt>
      <trkpt lat="59.6718334" lon="17.8564541">
        <ele>47.2418</ele>
        <time>2013-05-30T19:15:43Z</time>
      </trkpt>
      <trkpt lat="59.671881" lon="17.8565306">
        <ele>48.2034</ele>
        <time>2013-05-30T19:15:44Z</time>
      </trkpt>
      <trkpt lat="59.6719264" lon="17.8566194">
        <ele>48.684</ele>
        <time>2013-05-30T19:15:45Z</time>
      </trkpt>
      <trkpt lat="59.6719715" lon="17.8567044">
        <ele>49.1646</ele>
        <time>2013-05-30T19:15:46Z</time>
      </trkpt>
      <trkpt lat="59.6720173" lon="17.8567913">
        <ele>50.126</ele>
        <time>2013-05-30T19:15:47Z</time>
      </trkpt>
      <trkpt lat="59.6720626" lon="17.8568758">
        <ele>51.0872</ele>
        <time>2013-05-30T19:15:48Z</time>
      </trkpt>
      <trkpt lat="59.6721104" lon="17.8569532">
        <ele>51.0872</ele>
        <time>2013-05-30T19:15:49Z</time>
      </trkpt>
      <trkpt lat="59.6721544" lon="17.8570425">
        <ele>49.1646</ele>
        <time>2013-05-30T19:15:50Z</time>
      </trkpt>
      <trkpt lat="59.6722035" lon="17.8571223">
        <ele>48.684</ele>
        <time>2013-05-30T19:15:51Z</time>
      </trkpt>
      <trkpt lat="59.6722476" lon="17.8572007">
        <ele>47.2418</ele>
        <time>2013-05-30T19:15:52Z</time>
      </trkpt>
      <trkpt lat="59.6722938" lon="17.8572688">
        <ele>46.2806</ele>
        <time>2013-05-30T19:15:53Z</time>
      </trkpt>
      <trkpt lat="59.6723394" lon="17.8573346">
        <ele>45.7999</ele>
        <time>2013-05-30T19:15:54Z</time>
      </trkpt>
      <trkpt lat="59.6723809" lon="17.8574061">
        <ele>44.8386</ele>
        <time>2013-05-30T19:15:55Z</time>
      </trkpt>
      <trkpt lat="59.6724294" lon="17.8574662">
        <ele>43.8773</ele>
        <time>2013-05-30T19:15:56Z</time>
      </trkpt>
      <trkpt lat="59.6724839" lon="17.857531">
        <ele>44.358</ele>
        <time>2013-05-30T19:15:57Z</time>
      </trkpt>
      <trkpt lat="59.6725285" lon="17.8575997">
        <ele>43.3966</ele>
        <time>2013-05-30T19:15:58Z</time>
      </trkpt>
      <trkpt lat="59.6725782" lon="17.8576897">
        <ele>43.8773</ele>
        <time>2013-05-30T19:15:59Z</time>
      </trkpt>
      <trkpt lat="59.6726237" lon="17.8577905">
        <ele>44.358</ele>
        <time>2013-05-30T19:16:00Z</time>
      </trkpt>
      <trkpt lat="59.6726704" lon="17.8578903">
        <ele>44.358</ele>
        <time>2013-05-30T19:16:01Z</time>
      </trkpt>
      <trkpt lat="59.6727177" lon="17.857987">
        <ele>43.8773</ele>
        <time>2013-05-30T19:16:02Z</time>
      </trkpt>
      <trkpt lat="59.6727674" lon="17.8580831">
        <ele>43.8773</ele>
        <time>2013-05-30T19:16:03Z</time>
      </trkpt>
      <trkpt lat="59.6728195" lon="17.8581734">
        <ele>44.358</ele>
        <time>2013-05-30T19:16:04Z</time>
      </trkpt>
      <trkpt lat="59.6728717" lon="17.858264">
        <ele>44.358</ele>
        <time>2013-05-30T19:16:05Z</time>
      </trkpt>
      <trkpt lat="59.6729249" lon="17.8583677">
        <ele>44.358</ele>
        <time>2013-05-30T19:16:06Z</time>
      </trkpt>
      <trkpt lat="59.6729776" lon="17.858464">
        <ele>43.8773</ele>
        <time>2013-05-30T19:16:07Z</time>
      </trkpt>
      <trkpt lat="59.6730294" lon="17.8585539">
        <ele>43.3966</ele>
        <time>2013-05-30T19:16:08Z</time>
      </trkpt>
      <trkpt lat="59.6730816" lon="17.8586525">
        <ele>42.916</ele>
        <time>2013-05-30T19:16:09Z</time>
      </trkpt>
      <trkpt lat="59.673135" lon="17.85875">
        <ele>42.4354</ele>
        <time>2013-05-30T19:16:10Z</time>
      </trkpt>
      <trkpt lat="59.6731885" lon="17.8588509">
        <ele>42.4354</ele>
        <time>2013-05-30T19:16:11Z</time>
      </trkpt>
      <trkpt lat="59.6732428" lon="17.8589538">
        <ele>41.9547</ele>
        <time>2013-05-30T19:16:12Z</time>
      </trkpt>
      <trkpt lat="59.6732975" lon="17.8590607">
        <ele>41.474</ele>
        <time>2013-05-30T19:16:13Z</time>
      </trkpt>
      <trkpt lat="59.6733515" lon="17.859168">
        <ele>40.9934</ele>
        <time>2013-05-30T19:16:14Z</time>
      </trkpt>
      <trkpt lat="59.6734079" lon="17.8592788">
        <ele>40.0321</ele>
        <time>2013-05-30T19:16:15Z</time>
      </trkpt>
      <trkpt lat="59.6734644" lon="17.8593958">
        <ele>39.0707</ele>
        <time>2013-05-30T19:16:16Z</time>
      </trkpt>
      <trkpt lat="59.6735226" lon="17.859517">
        <ele>39.0707</ele>
        <time>2013-05-30T19:16:17Z</time>
      </trkpt>
      <trkpt lat="59.6735802" lon="17.8596433">
        <ele>38.1094</ele>
        <time>2013-05-30T19:16:18Z</time>
      </trkpt>
      <trkpt lat="59.6736381" lon="17.8597695">
        <ele>37.1481</ele>
        <time>2013-05-30T19:16:19Z</time>
      </trkpt>
      <trkpt lat="59.6736982" lon="17.8598999">
        <ele>36.6675</ele>
        <time>2013-05-30T19:16:20Z</time>
      </trkpt>
      <trkpt lat="59.6737584" lon="17.8600346">
        <ele>36.1868</ele>
        <time>2013-05-30T19:16:21Z</time>
      </trkpt>
      <trkpt lat="59.6738193" lon="17.8601711">
        <ele>35.2255</ele>
        <time>2013-05-30T19:16:22Z</time>
      </trkpt>
      <trkpt lat="59.6738813" lon="17.8603127">
        <ele>34.7449</ele>
        <time>2013-05-30T19:16:23Z</time>
      </trkpt>
      <trkpt lat="59.6739438" lon="17.8604573">
        <ele>33.7834</ele>
        <time>2013-05-30T19:16:24Z</time>
      </trkpt>
      <trkpt lat="59.674006" lon="17.8606042">
        <ele>33.3029</ele>
        <time>2013-05-30T19:16:25Z</time>
      </trkpt>
      <trkpt lat="59.6740664" lon="17.8607546">
        <ele>32.3416</ele>
        <time>2013-05-30T19:16:26Z</time>
      </trkpt>
      <trkpt lat="59.6741251" lon="17.8609064">
        <ele>31.8607</ele>
        <time>2013-05-30T19:16:27Z</time>
      </trkpt>
      <trkpt lat="59.6741831" lon="17.8610593">
        <ele>31.3801</ele>
        <time>2013-05-30T19:16:28Z</time>
      </trkpt>
      <trkpt lat="59.6742412" lon="17.8612135">
        <ele>30.8995</ele>
        <time>2013-05-30T19:16:29Z</time>
      </trkpt>
      <trkpt lat="59.6742995" lon="17.8613686">
        <ele>30.4188</ele>
        <time>2013-05-30T19:16:30Z</time>
      </trkpt>
      <trkpt lat="59.6743566" lon="17.8615221">
        <ele>29.9381</ele>
        <time>2013-05-30T19:16:31Z</time>
      </trkpt>
      <trkpt lat="59.6744135" lon="17.8616731">
        <ele>29.4575</ele>
        <time>2013-05-30T19:16:32Z</time>
      </trkpt>
      <trkpt lat="59.67447" lon="17.8618212">
        <ele>29.4575</ele>
        <time>2013-05-30T19:16:33Z</time>
      </trkpt>
      <trkpt lat="59.6745278" lon="17.8619539">
        <ele>28.4962</ele>
        <time>2013-05-30T19:16:34Z</time>
      </trkpt>
      <trkpt lat="59.6745885" lon="17.8620819">
        <ele>28.0155</ele>
        <time>2013-05-30T19:16:35Z</time>
      </trkpt>
      <trkpt lat="59.6746503" lon="17.8622013">
        <ele>28.0155</ele>
        <time>2013-05-30T19:16:36Z</time>
      </trkpt>
      <trkpt lat="59.6747123" lon="17.8623119">
        <ele>27.5349</ele>
        <time>2013-05-30T19:16:37Z</time>
      </trkpt>
      <trkpt lat="59.6747739" lon="17.8624169">
        <ele>27.0543</ele>
        <time>2013-05-30T19:16:38Z</time>
      </trkpt>
      <trkpt lat="59.6748374" lon="17.862519">
        <ele>27.0543</ele>
        <time>2013-05-30T19:16:39Z</time>
      </trkpt>
      <trkpt lat="59.6749039" lon="17.8626153">
        <ele>27.0543</ele>
        <time>2013-05-30T19:16:40Z</time>
      </trkpt>
      <trkpt lat="59.6749694" lon="17.8627111">
        <ele>26.5736</ele>
        <time>2013-05-30T19:16:41Z</time>
      </trkpt>
      <trkpt lat="59.6750356" lon="17.862794">
        <ele>25.6123</ele>
        <time>2013-05-30T19:16:42Z</time>
      </trkpt>
      <trkpt lat="59.6751066" lon="17.8628769">
        <ele>26.0929</ele>
        <time>2013-05-30T19:16:43Z</time>
      </trkpt>
      <trkpt lat="59.675177" lon="17.8629484">
        <ele>25.1317</ele>
        <time>2013-05-30T19:16:44Z</time>
      </trkpt>
      <trkpt lat="59.6752532" lon="17.8630261">
        <ele>25.1317</ele>
        <time>2013-05-30T19:16:45Z</time>
      </trkpt>
      <trkpt lat="59.675335" lon="17.8630977">
        <ele>25.1317</ele>
        <time>2013-05-30T19:16:46Z</time>
      </trkpt>
      <trkpt lat="59.6754204" lon="17.863151">
        <ele>25.1317</ele>
        <time>2013-05-30T19:16:47Z</time>
      </trkpt>
      <trkpt lat="59.6755017" lon="17.8631954">
        <ele>24.1703</ele>
        <time>2013-05-30T19:16:48Z</time>
      </trkpt>
      <trkpt lat="59.6755854" lon="17.8632292">
        <ele>22.7283</ele>
        <time>2013-05-30T19:16:49Z</time>
      </trkpt>
      <trkpt lat="59.6756738" lon="17.8632534">
        <ele>22.2476</ele>
        <time>2013-05-30T19:16:50Z</time>
      </trkpt>
      <trkpt lat="59.6757627" lon="17.8632722">
        <ele>22.7283</ele>
        <time>2013-05-30T19:16:51Z</time>
      </trkpt>
      <trkpt lat="59.6758536" lon="17.8632866">
        <ele>22.7283</ele>
        <time>2013-05-30T19:16:52Z</time>
      </trkpt>
      <trkpt lat="59.6759437" lon="17.8632923">
        <ele>22.7283</ele>
        <time>2013-05-30T19:16:53Z</time>
      </trkpt>
      <trkpt lat="59.6760353" lon="17.8632903">
        <ele>22.7283</ele>
        <time>2013-05-30T19:16:54Z</time>
      </trkpt>
      <trkpt lat="59.6761243" lon="17.8632866">
        <ele>22.2476</ele>
        <time>2013-05-30T19:16:55Z</time>
      </trkpt>
      <trkpt lat="59.6762165" lon="17.863278">
        <ele>22.2476</ele>
        <time>2013-05-30T19:16:56Z</time>
      </trkpt>
      <trkpt lat="59.676311" lon="17.8632689">
        <ele>21.767</ele>
        <time>2013-05-30T19:16:57Z</time>
      </trkpt>
      <trkpt lat="59.676407" lon="17.8632598">
        <ele>20.325</ele>
        <time>2013-05-30T19:16:58Z</time>
      </trkpt>
      <trkpt lat="59.6765036" lon="17.8632539">
        <ele>20.325</ele>
        <time>2013-05-30T19:16:59Z</time>
      </trkpt>
      <trkpt lat="59.6766032" lon="17.8632503">
        <ele>20.325</ele>
        <time>2013-05-30T19:17:00Z</time>
      </trkpt>
      <trkpt lat="59.6767031" lon="17.8632458">
        <ele>20.325</ele>
        <time>2013-05-30T19:17:01Z</time>
      </trkpt>
      <trkpt lat="59.676802" lon="17.8632411">
        <ele>20.325</ele>
        <time>2013-05-30T19:17:02Z</time>
      </trkpt>
      <trkpt lat="59.6769004" lon="17.8632385">
        <ele>20.325</ele>
        <time>2013-05-30T19:17:03Z</time>
      </trkpt>
      <trkpt lat="59.6769973" lon="17.8632417">
        <ele>20.325</ele>
        <time>2013-05-30T19:17:04Z</time>
      </trkpt>
      <trkpt lat="59.6770936" lon="17.8632477">
        <ele>20.8057</ele>
        <time>2013-05-30T19:17:05Z</time>
      </trkpt>
      <trkpt lat="59.6771897" lon="17.8632497">
        <ele>20.8057</ele>
        <time>2013-05-30T19:17:06Z</time>
      </trkpt>
      <trkpt lat="59.6772844" lon="17.8632517">
        <ele>20.325</ele>
        <time>2013-05-30T19:17:07Z</time>
      </trkpt>
      <trkpt lat="59.6773772" lon="17.8632597">
        <ele>20.8057</ele>
        <time>2013-05-30T19:17:08Z</time>
      </trkpt>
      <trkpt lat="59.6774666" lon="17.8632736">
        <ele>20.8057</ele>
        <time>2013-05-30T19:17:09Z</time>
      </trkpt>
      <trkpt lat="59.6775537" lon="17.8632943">
        <ele>20.8057</ele>
        <time>2013-05-30T19:17:10Z</time>
      </trkpt>
      <trkpt lat="59.6776369" lon="17.8633207">
        <ele>21.2864</ele>
        <time>2013-05-30T19:17:11Z</time>
      </trkpt>
      <trkpt lat="59.6777162" lon="17.8633528">
        <ele>21.767</ele>
        <time>2013-05-30T19:17:12Z</time>
      </trkpt>
      <trkpt lat="59.6777921" lon="17.8633922">
        <ele>22.2476</ele>
        <time>2013-05-30T19:17:13Z</time>
      </trkpt>
      <trkpt lat="59.6778655" lon="17.8634382">
        <ele>22.2476</ele>
        <time>2013-05-30T19:17:14Z</time>
      </trkpt>
      <trkpt lat="59.6779366" lon="17.8634865">
        <ele>22.7283</ele>
        <time>2013-05-30T19:17:15Z</time>
      </trkpt>
      <trkpt lat="59.6780066" lon="17.8635337">
        <ele>23.209</ele>
        <time>2013-05-30T19:17:16Z</time>
      </trkpt>
      <trkpt lat="59.6780752" lon="17.863581">
        <ele>23.6896</ele>
        <time>2013-05-30T19:17:17Z</time>
      </trkpt>
      <trkpt lat="59.678142" lon="17.8636295">
        <ele>23.6896</ele>
        <time>2013-05-30T19:17:18Z</time>
      </trkpt>
      <trkpt lat="59.6782076" lon="17.8636783">
        <ele>24.1703</ele>
        <time>2013-05-30T19:17:19Z</time>
      </trkpt>
      <trkpt lat="59.6782726" lon="17.8637254">
        <ele>24.651</ele>
        <time>2013-05-30T19:17:20Z</time>
      </trkpt>
      <trkpt lat="59.6783373" lon="17.8637725">
        <ele>25.1317</ele>
        <time>2013-05-30T19:17:21Z</time>
      </trkpt>
      <trkpt lat="59.678402" lon="17.863818">
        <ele>25.1317</ele>
        <time>2013-05-30T19:17:22Z</time>
      </trkpt>
      <trkpt lat="59.6784665" lon="17.8638614">
        <ele>25.6123</ele>
        <time>2013-05-30T19:17:23Z</time>
      </trkpt>
      <trkpt lat="59.67853" lon="17.8639045">
        <ele>25.6123</ele>
        <time>2013-05-30T19:17:24Z</time>
      </trkpt>
      <trkpt lat="59.6785921" lon="17.863947">
        <ele>26.0929</ele>
        <time>2013-05-30T19:17:25Z</time>
      </trkpt>
      <trkpt lat="59.6786524" lon="17.8639874">
        <ele>26.5736</ele>
        <time>2013-05-30T19:17:26Z</time>
      </trkpt>
      <trkpt lat="59.678711" lon="17.8640275">
        <ele>27.0543</ele>
        <time>2013-05-30T19:17:27Z</time>
      </trkpt>
      <trkpt lat="59.6787693" lon="17.8640684">
        <ele>27.5349</ele>
        <time>2013-05-30T19:17:28Z</time>
      </trkpt>
      <trkpt lat="59.678827" lon="17.8641116">
        <ele>28.0155</ele>
        <time>2013-05-30T19:17:29Z</time>
      </trkpt>
      <trkpt lat="59.6788845" lon="17.8641512">
        <ele>28.0155</ele>
        <time>2013-05-30T19:17:30Z</time>
      </trkpt>
      <trkpt lat="59.6789418" lon="17.8641875">
        <ele>28.4962</ele>
        <time>2013-05-30T19:17:31Z</time>
      </trkpt>
      <trkpt lat="59.6789988" lon="17.8642258">
        <ele>28.4962</ele>
        <time>2013-05-30T19:17:32Z</time>
      </trkpt>
      <trkpt lat="59.6790559" lon="17.8642653">
        <ele>28.9769</ele>
        <time>2013-05-30T19:17:33Z</time>
      </trkpt>
      <trkpt lat="59.6791134" lon="17.8643045">
        <ele>28.9769</ele>
        <time>2013-05-30T19:17:34Z</time>
      </trkpt>
      <trkpt lat="59.6791711" lon="17.8643434">
        <ele>29.4575</ele>
        <time>2013-05-30T19:17:35Z</time>
      </trkpt>
      <trkpt lat="59.6792295" lon="17.8643817">
        <ele>29.4575</ele>
        <time>2013-05-30T19:17:36Z</time>
      </trkpt>
      <trkpt lat="59.6792878" lon="17.8644164">
        <ele>29.9381</ele>
        <time>2013-05-30T19:17:37Z</time>
      </trkpt>
      <trkpt lat="59.6793471" lon="17.8644517">
        <ele>30.4188</ele>
        <time>2013-05-30T19:17:38Z</time>
      </trkpt>
      <trkpt lat="59.6794066" lon="17.8644889">
        <ele>30.4188</ele>
        <time>2013-05-30T19:17:39Z</time>
      </trkpt>
      <trkpt lat="59.679466" lon="17.8645268">
        <ele>30.8995</ele>
        <time>2013-05-30T19:17:40Z</time>
      </trkpt>
      <trkpt lat="59.6795242" lon="17.8645624">
        <ele>31.3801</ele>
        <time>2013-05-30T19:17:41Z</time>
      </trkpt>
      <trkpt lat="59.6795817" lon="17.8645967">
        <ele>31.3801</ele>
        <time>2013-05-30T19:17:42Z</time>
      </trkpt>
      <trkpt lat="59.6796397" lon="17.864634">
        <ele>31.3801</ele>
        <time>2013-05-30T19:17:43Z</time>
      </trkpt>
      <trkpt lat="59.6796973" lon="17.8646703">
        <ele>31.3801</ele>
        <time>2013-05-30T19:17:44Z</time>
      </trkpt>
      <trkpt lat="59.6797542" lon="17.8647059">
        <ele>31.8607</ele>
        <time>2013-05-30T19:17:45Z</time>
      </trkpt>
      <trkpt lat="59.6798112" lon="17.8647412">
        <ele>31.8607</ele>
        <time>2013-05-30T19:17:46Z</time>
      </trkpt>
      <trkpt lat="59.6798683" lon="17.864777">
        <ele>31.8607</ele>
        <time>2013-05-30T19:17:47Z</time>
      </trkpt>
      <trkpt lat="59.6799255" lon="17.8648144">
        <ele>31.8607</ele>
        <time>2013-05-30T19:17:48Z</time>
      </trkpt>
      <trkpt lat="59.679983" lon="17.8648526">
        <ele>31.8607</ele>
        <time>2013-05-30T19:17:49Z</time>
      </trkpt>
      <trkpt lat="59.6800402" lon="17.8648908">
        <ele>31.3801</ele>
        <time>2013-05-30T19:17:50Z</time>
      </trkpt>
      <trkpt lat="59.6800981" lon="17.8649303">
        <ele>31.3801</ele>
        <time>2013-05-30T19:17:51Z</time>
      </trkpt>
      <trkpt lat="59.6801566" lon="17.8649671">
        <ele>31.3801</ele>
        <time>2013-05-30T19:17:52Z</time>
      </trkpt>
      <trkpt lat="59.6802161" lon="17.8650033">
        <ele>31.3801</ele>
        <time>2013-05-30T19:17:53Z</time>
      </trkpt>
      <trkpt lat="59.6802763" lon="17.8650422">
        <ele>30.8995</ele>
        <time>2013-05-30T19:17:54Z</time>
      </trkpt>
      <trkpt lat="59.6803373" lon="17.8650826">
        <ele>30.8995</ele>
        <time>2013-05-30T19:17:55Z</time>
      </trkpt>
      <trkpt lat="59.680398" lon="17.8651251">
        <ele>30.8995</ele>
        <time>2013-05-30T19:17:56Z</time>
      </trkpt>
      <trkpt lat="59.6804585" lon="17.8651653">
        <ele>30.4188</ele>
        <time>2013-05-30T19:17:57Z</time>
      </trkpt>
      <trkpt lat="59.6805179" lon="17.8652049">
        <ele>30.4188</ele>
        <time>2013-05-30T19:17:58Z</time>
      </trkpt>
      <trkpt lat="59.6805779" lon="17.8652452">
        <ele>29.9381</ele>
        <time>2013-05-30T19:17:59Z</time>
      </trkpt>
      <trkpt lat="59.6806384" lon="17.8652858">
        <ele>29.9381</ele>
        <time>2013-05-30T19:18:00Z</time>
      </trkpt>
      <trkpt lat="59.6806996" lon="17.8653282">
        <ele>29.9381</ele>
        <time>2013-05-30T19:18:01Z</time>
      </trkpt>
      <trkpt lat="59.6807607" lon="17.8653717">
        <ele>29.9381</ele>
        <time>2013-05-30T19:18:02Z</time>
      </trkpt>
      <trkpt lat="59.6808211" lon="17.8654183">
        <ele>30.4188</ele>
        <time>2013-05-30T19:18:03Z</time>
      </trkpt>
      <trkpt lat="59.6808802" lon="17.8654613">
        <ele>30.8995</ele>
        <time>2013-05-30T19:18:04Z</time>
      </trkpt>
      <trkpt lat="59.6809382" lon="17.8655051">
        <ele>31.3801</ele>
        <time>2013-05-30T19:18:05Z</time>
      </trkpt>
      <trkpt lat="59.6809974" lon="17.8655422">
        <ele>31.3801</ele>
        <time>2013-05-30T19:18:06Z</time>
      </trkpt>
      <trkpt lat="59.6810543" lon="17.8655802">
        <ele>30.8995</ele>
        <time>2013-05-30T19:18:07Z</time>
      </trkpt>
      <trkpt lat="59.6811083" lon="17.8656213">
        <ele>31.3801</ele>
        <time>2013-05-30T19:18:08Z</time>
      </trkpt>
      <trkpt lat="59.6811606" lon="17.8656638">
        <ele>31.3801</ele>
        <time>2013-05-30T19:18:09Z</time>
      </trkpt>
      <trkpt lat="59.681215" lon="17.8657073">
        <ele>31.3801</ele>
        <time>2013-05-30T19:18:10Z</time>
      </trkpt>
      <trkpt lat="59.6812734" lon="17.8657492">
        <ele>31.3801</ele>
        <time>2013-05-30T19:18:11Z</time>
      </trkpt>
      <trkpt lat="59.681331" lon="17.8657989">
        <ele>31.8607</ele>
        <time>2013-05-30T19:18:12Z</time>
      </trkpt>
      <trkpt lat="59.6813896" lon="17.8658457">
        <ele>32.8223</ele>
        <time>2013-05-30T19:18:13Z</time>
      </trkpt>
      <trkpt lat="59.6814486" lon="17.8658865">
        <ele>32.3416</ele>
        <time>2013-05-30T19:18:14Z</time>
      </trkpt>
      <trkpt lat="59.6815041" lon="17.8659265">
        <ele>33.3029</ele>
        <time>2013-05-30T19:18:15Z</time>
      </trkpt>
      <trkpt lat="59.6815615" lon="17.865968">
        <ele>33.7834</ele>
        <time>2013-05-30T19:18:16Z</time>
      </trkpt>
      <trkpt lat="59.6816158" lon="17.8660171">
        <ele>33.3029</ele>
        <time>2013-05-30T19:18:17Z</time>
      </trkpt>
      <trkpt lat="59.6816655" lon="17.8660684">
        <ele>32.8223</ele>
        <time>2013-05-30T19:18:18Z</time>
      </trkpt>
      <trkpt lat="59.6817242" lon="17.8661161">
        <ele>32.3416</ele>
        <time>2013-05-30T19:18:19Z</time>
      </trkpt>
      <trkpt lat="59.6817841" lon="17.8661747">
        <ele>31.3801</ele>
        <time>2013-05-30T19:18:20Z</time>
      </trkpt>
      <trkpt lat="59.6818458" lon="17.8662146">
        <ele>29.9381</ele>
        <time>2013-05-30T19:18:21Z</time>
      </trkpt>
      <trkpt lat="59.6819143" lon="17.866247">
        <ele>28.4962</ele>
        <time>2013-05-30T19:18:22Z</time>
      </trkpt>
      <trkpt lat="59.6819831" lon="17.8662935">
        <ele>28.4962</ele>
        <time>2013-05-30T19:18:23Z</time>
      </trkpt>
      <trkpt lat="59.6820495" lon="17.866335">
        <ele>28.4962</ele>
        <time>2013-05-30T19:18:24Z</time>
      </trkpt>
      <trkpt lat="59.6821153" lon="17.8663952">
        <ele>28.9769</ele>
        <time>2013-05-30T19:18:25Z</time>
      </trkpt>
      <trkpt lat="59.6821821" lon="17.8664563">
        <ele>29.4575</ele>
        <time>2013-05-30T19:18:26Z</time>
      </trkpt>
      <trkpt lat="59.6822495" lon="17.8664969">
        <ele>29.4575</ele>
        <time>2013-05-30T19:18:27Z</time>
      </trkpt>
      <trkpt lat="59.6823112" lon="17.8665413">
        <ele>29.9381</ele>
        <time>2013-05-30T19:18:28Z</time>
      </trkpt>
      <trkpt lat="59.6823732" lon="17.8665885">
        <ele>30.4188</ele>
        <time>2013-05-30T19:18:29Z</time>
      </trkpt>
      <trkpt lat="59.6824352" lon="17.8666303">
        <ele>30.4188</ele>
        <time>2013-05-30T19:18:30Z</time>
      </trkpt>
      <trkpt lat="59.6824971" lon="17.8666698">
        <ele>30.4188</ele>
        <time>2013-05-30T19:18:31Z</time>
      </trkpt>
      <trkpt lat="59.6825565" lon="17.8667144">
        <ele>30.4188</ele>
        <time>2013-05-30T19:18:32Z</time>
      </trkpt>
      <trkpt lat="59.682614" lon="17.8667623">
        <ele>30.8995</ele>
        <time>2013-05-30T19:18:33Z</time>
      </trkpt>
      <trkpt lat="59.6826732" lon="17.8668059">
        <ele>30.4188</ele>
        <time>2013-05-30T19:18:34Z</time>
      </trkpt>
      <trkpt lat="59.6827354" lon="17.8668473">
        <ele>29.9381</ele>
        <time>2013-05-30T19:18:35Z</time>
      </trkpt>
      <trkpt lat="59.6827986" lon="17.8668961">
        <ele>29.4575</ele>
        <time>2013-05-30T19:18:36Z</time>
      </trkpt>
      <trkpt lat="59.6828652" lon="17.8669462">
        <ele>29.4575</ele>
        <time>2013-05-30T19:18:37Z</time>
      </trkpt>
      <trkpt lat="59.6829325" lon="17.866994">
        <ele>29.4575</ele>
        <time>2013-05-30T19:18:38Z</time>
      </trkpt>
      <trkpt lat="59.6829997" lon="17.867037">
        <ele>29.4575</ele>
        <time>2013-05-30T19:18:39Z</time>
      </trkpt>
      <trkpt lat="59.6830659" lon="17.8670806">
        <ele>28.9769</ele>
        <time>2013-05-30T19:18:40Z</time>
      </trkpt>
      <trkpt lat="59.6831291" lon="17.867137">
        <ele>30.8995</ele>
        <time>2013-05-30T19:18:41Z</time>
      </trkpt>
      <trkpt lat="59.6831964" lon="17.8671857">
        <ele>31.3801</ele>
        <time>2013-05-30T19:18:42Z</time>
      </trkpt>
      <trkpt lat="59.6832628" lon="17.8672363">
        <ele>32.3416</ele>
        <time>2013-05-30T19:18:43Z</time>
      </trkpt>
      <trkpt lat="59.683331" lon="17.8672891">
        <ele>31.8607</ele>
        <time>2013-05-30T19:18:44Z</time>
      </trkpt>
      <trkpt lat="59.6833989" lon="17.8673393">
        <ele>31.8607</ele>
        <time>2013-05-30T19:18:45Z</time>
      </trkpt>
      <trkpt lat="59.6834682" lon="17.8673795">
        <ele>30.4188</ele>
        <time>2013-05-30T19:18:46Z</time>
      </trkpt>
      <trkpt lat="59.6835388" lon="17.8674189">
        <ele>28.9769</ele>
        <time>2013-05-30T19:18:47Z</time>
      </trkpt>
      <trkpt lat="59.6836073" lon="17.8674735">
        <ele>28.4962</ele>
        <time>2013-05-30T19:18:48Z</time>
      </trkpt>
      <trkpt lat="59.6836756" lon="17.867531">
        <ele>27.0543</ele>
        <time>2013-05-30T19:18:49Z</time>
      </trkpt>
      <trkpt lat="59.683745" lon="17.8675939">
        <ele>26.0929</ele>
        <time>2013-05-30T19:18:50Z</time>
      </trkpt>
      <trkpt lat="59.6838149" lon="17.8676628">
        <ele>25.1317</ele>
        <time>2013-05-30T19:18:51Z</time>
      </trkpt>
      <trkpt lat="59.6838851" lon="17.867741">
        <ele>24.1703</ele>
        <time>2013-05-30T19:18:52Z</time>
      </trkpt>
      <trkpt lat="59.6839558" lon="17.8678275">
        <ele>22.7283</ele>
        <time>2013-05-30T19:18:53Z</time>
      </trkpt>
      <trkpt lat="59.6840273" lon="17.8679317">
        <ele>22.7283</ele>
        <time>2013-05-30T19:18:54Z</time>
      </trkpt>
      <trkpt lat="59.6840997" lon="17.8680495">
        <ele>23.209</ele>
        <time>2013-05-30T19:18:55Z</time>
      </trkpt>
      <trkpt lat="59.6841728" lon="17.8681744">
        <ele>22.2476</ele>
        <time>2013-05-30T19:18:56Z</time>
      </trkpt>
      <trkpt lat="59.6842442" lon="17.8683093">
        <ele>21.767</ele>
        <time>2013-05-30T19:18:57Z</time>
      </trkpt>
      <trkpt lat="59.6843126" lon="17.8684539">
        <ele>21.2864</ele>
        <time>2013-05-30T19:18:58Z</time>
      </trkpt>
      <trkpt lat="59.6843755" lon="17.8686067">
        <ele>20.8057</ele>
        <time>2013-05-30T19:18:59Z</time>
      </trkpt>
      <trkpt lat="59.6844386" lon="17.868776">
        <ele>20.8057</ele>
        <time>2013-05-30T19:19:00Z</time>
      </trkpt>
      <trkpt lat="59.6845013" lon="17.8689426">
        <ele>20.325</ele>
        <time>2013-05-30T19:19:01Z</time>
      </trkpt>
      <trkpt lat="59.6845529" lon="17.8691109">
        <ele>18.4023</ele>
        <time>2013-05-30T19:19:02Z</time>
      </trkpt>
      <trkpt lat="59.6845824" lon="17.8692925">
        <ele>19.3638</ele>
        <time>2013-05-30T19:19:03Z</time>
      </trkpt>
      <trkpt lat="59.6846445" lon="17.869451">
        <ele>19.8444</ele>
        <time>2013-05-30T19:19:04Z</time>
      </trkpt>
      <trkpt lat="59.6846757" lon="17.8696649">
        <ele>19.3638</ele>
        <time>2013-05-30T19:19:05Z</time>
      </trkpt>
      <trkpt lat="59.6846756" lon="17.8698467">
        <ele>19.3638</ele>
        <time>2013-05-30T19:19:06Z</time>
      </trkpt>
      <trkpt lat="59.6846852" lon="17.8700095">
        <ele>19.8444</ele>
        <time>2013-05-30T19:19:07Z</time>
      </trkpt>
      <trkpt lat="59.6846997" lon="17.8701732">
        <ele>21.2864</ele>
        <time>2013-05-30T19:19:08Z</time>
      </trkpt>
      <trkpt lat="59.6847168" lon="17.8703223">
        <ele>22.7283</ele>
        <time>2013-05-30T19:19:09Z</time>
      </trkpt>
      <trkpt lat="59.6847303" lon="17.8704655">
        <ele>23.209</ele>
        <time>2013-05-30T19:19:10Z</time>
      </trkpt>
      <trkpt lat="59.6847419" lon="17.8706128">
        <ele>24.1703</ele>
        <time>2013-05-30T19:19:11Z</time>
      </trkpt>
      <trkpt lat="59.6847542" lon="17.8707533">
        <ele>24.651</ele>
        <time>2013-05-30T19:19:12Z</time>
      </trkpt>
      <trkpt lat="59.6847696" lon="17.87089">
        <ele>25.1317</ele>
        <time>2013-05-30T19:19:13Z</time>
      </trkpt>
      <trkpt lat="59.6847876" lon="17.8710242">
        <ele>25.6123</ele>
        <time>2013-05-30T19:19:14Z</time>
      </trkpt>
      <trkpt lat="59.6848089" lon="17.8711566">
        <ele>26.0929</ele>
        <time>2013-05-30T19:19:15Z</time>
      </trkpt>
      <trkpt lat="59.6848317" lon="17.8712899">
        <ele>26.5736</ele>
        <time>2013-05-30T19:19:16Z</time>
      </trkpt>
      <trkpt lat="59.6848559" lon="17.8714229">
        <ele>27.5349</ele>
        <time>2013-05-30T19:19:17Z</time>
      </trkpt>
      <trkpt lat="59.6848816" lon="17.8715539">
        <ele>28.0155</ele>
        <time>2013-05-30T19:19:18Z</time>
      </trkpt>
      <trkpt lat="59.6849099" lon="17.8716819">
        <ele>28.4962</ele>
        <time>2013-05-30T19:19:19Z</time>
      </trkpt>
      <trkpt lat="59.6849415" lon="17.871809">
        <ele>28.4962</ele>
        <time>2013-05-30T19:19:20Z</time>
      </trkpt>
      <trkpt lat="59.6849771" lon="17.871932">
        <ele>28.9769</ele>
        <time>2013-05-30T19:19:21Z</time>
      </trkpt>
      <trkpt lat="59.6850162" lon="17.8720524">
        <ele>29.4575</ele>
        <time>2013-05-30T19:19:22Z</time>
      </trkpt>
      <trkpt lat="59.6850571" lon="17.8721703">
        <ele>29.9381</ele>
        <time>2013-05-30T19:19:23Z</time>
      </trkpt>
      <trkpt lat="59.6850991" lon="17.8722881">
        <ele>29.9381</ele>
        <time>2013-05-30T19:19:24Z</time>
      </trkpt>
      <trkpt lat="59.685141" lon="17.8724088">
        <ele>30.4188</ele>
        <time>2013-05-30T19:19:25Z</time>
      </trkpt>
      <trkpt lat="59.6851818" lon="17.872529">
        <ele>30.4188</ele>
        <time>2013-05-30T19:19:26Z</time>
      </trkpt>
      <trkpt lat="59.6852228" lon="17.8726488">
        <ele>30.8995</ele>
        <time>2013-05-30T19:19:27Z</time>
      </trkpt>
      <trkpt lat="59.6852643" lon="17.8727681">
        <ele>31.3801</ele>
        <time>2013-05-30T19:19:28Z</time>
      </trkpt>
      <trkpt lat="59.6853071" lon="17.8728857">
        <ele>31.3801</ele>
        <time>2013-05-30T19:19:29Z</time>
      </trkpt>
      <trkpt lat="59.6853498" lon="17.873005">
        <ele>31.8607</ele>
        <time>2013-05-30T19:19:30Z</time>
      </trkpt>
      <trkpt lat="59.6853926" lon="17.8731247">
        <ele>31.8607</ele>
        <time>2013-05-30T19:19:31Z</time>
      </trkpt>
      <trkpt lat="59.6854358" lon="17.8732455">
        <ele>32.3416</ele>
        <time>2013-05-30T19:19:32Z</time>
      </trkpt>
      <trkpt lat="59.6854782" lon="17.873361">
        <ele>32.8223</ele>
        <time>2013-05-30T19:19:33Z</time>
      </trkpt>
      <trkpt lat="59.6855218" lon="17.8734892">
        <ele>33.3029</ele>
        <time>2013-05-30T19:19:34Z</time>
      </trkpt>
      <trkpt lat="59.6855646" lon="17.8736132">
        <ele>33.7834</ele>
        <time>2013-05-30T19:19:35Z</time>
      </trkpt>
      <trkpt lat="59.6856057" lon="17.8737216">
        <ele>34.2642</ele>
        <time>2013-05-30T19:19:36Z</time>
      </trkpt>
      <trkpt lat="59.6856475" lon="17.8738287">
        <ele>34.2642</ele>
        <time>2013-05-30T19:19:37Z</time>
      </trkpt>
      <trkpt lat="59.6856901" lon="17.8739544">
        <ele>34.7449</ele>
        <time>2013-05-30T19:19:38Z</time>
      </trkpt>
      <trkpt lat="59.6857321" lon="17.8740702">
        <ele>35.2255</ele>
        <time>2013-05-30T19:19:39Z</time>
      </trkpt>
      <trkpt lat="59.6857739" lon="17.8741802">
        <ele>35.7061</ele>
        <time>2013-05-30T19:19:40Z</time>
      </trkpt>
      <trkpt lat="59.6858184" lon="17.8742907">
        <ele>36.6675</ele>
        <time>2013-05-30T19:19:41Z</time>
      </trkpt>
      <trkpt lat="59.685861" lon="17.8744185">
        <ele>37.1481</ele>
        <time>2013-05-30T19:19:42Z</time>
      </trkpt>
      <trkpt lat="59.685903" lon="17.8745316">
        <ele>37.1481</ele>
        <time>2013-05-30T19:19:43Z</time>
      </trkpt>
      <trkpt lat="59.6859439" lon="17.8746466">
        <ele>37.6287</ele>
        <time>2013-05-30T19:19:44Z</time>
      </trkpt>
      <trkpt lat="59.6859843" lon="17.8747704">
        <ele>38.1094</ele>
        <time>2013-05-30T19:19:45Z</time>
      </trkpt>
      <trkpt lat="59.6860221" lon="17.8748998">
        <ele>38.5901</ele>
        <time>2013-05-30T19:19:46Z</time>
      </trkpt>
      <trkpt lat="59.6860594" lon="17.8750273">
        <ele>39.0707</ele>
        <time>2013-05-30T19:19:47Z</time>
      </trkpt>
      <trkpt lat="59.6861002" lon="17.8751392">
        <ele>39.5513</ele>
        <time>2013-05-30T19:19:48Z</time>
      </trkpt>
      <trkpt lat="59.6861408" lon="17.8752556">
        <ele>40.0321</ele>
        <time>2013-05-30T19:19:49Z</time>
      </trkpt>
      <trkpt lat="59.6861804" lon="17.8753678">
        <ele>40.0321</ele>
        <time>2013-05-30T19:19:50Z</time>
      </trkpt>
      <trkpt lat="59.6862222" lon="17.8754744">
        <ele>40.0321</ele>
        <time>2013-05-30T19:19:51Z</time>
      </trkpt>
      <trkpt lat="59.6862666" lon="17.8755908">
        <ele>40.9934</ele>
        <time>2013-05-30T19:19:52Z</time>
      </trkpt>
      <trkpt lat="59.6863085" lon="17.8757022">
        <ele>40.9934</ele>
        <time>2013-05-30T19:19:53Z</time>
      </trkpt>
      <trkpt lat="59.6863506" lon="17.8758185">
        <ele>40.9934</ele>
        <time>2013-05-30T19:19:54Z</time>
      </trkpt>
      <trkpt lat="59.686395" lon="17.8759236">
        <ele>40.9934</ele>
        <time>2013-05-30T19:19:55Z</time>
      </trkpt>
      <trkpt lat="59.6864415" lon="17.8760419">
        <ele>41.9547</ele>
        <time>2013-05-30T19:19:56Z</time>
      </trkpt>
      <trkpt lat="59.6864884" lon="17.876168">
        <ele>43.8773</ele>
        <time>2013-05-30T19:19:57Z</time>
      </trkpt>
      <trkpt lat="59.686535" lon="17.8762745">
        <ele>44.358</ele>
        <time>2013-05-30T19:19:58Z</time>
      </trkpt>
      <trkpt lat="59.6865774" lon="17.876369">
        <ele>43.8773</ele>
        <time>2013-05-30T19:19:59Z</time>
      </trkpt>
      <trkpt lat="59.686618" lon="17.8764757">
        <ele>43.8773</ele>
        <time>2013-05-30T19:20:00Z</time>
      </trkpt>
      <trkpt lat="59.6866593" lon="17.8765715">
        <ele>43.8773</ele>
        <time>2013-05-30T19:20:01Z</time>
      </trkpt>
      <trkpt lat="59.6867052" lon="17.8766647">
        <ele>43.8773</ele>
        <time>2013-05-30T19:20:02Z</time>
      </trkpt>
      <trkpt lat="59.6867493" lon="17.876734">
        <ele>39.5513</ele>
        <time>2013-05-30T19:20:03Z</time>
      </trkpt>
      <trkpt lat="59.6867949" lon="17.8768355">
        <ele>40.0321</ele>
        <time>2013-05-30T19:20:04Z</time>
      </trkpt>
      <trkpt lat="59.6868401" lon="17.8769289">
        <ele>38.5901</ele>
        <time>2013-05-30T19:20:05Z</time>
      </trkpt>
      <trkpt lat="59.6868847" lon="17.8770527">
        <ele>40.0321</ele>
        <time>2013-05-30T19:20:06Z</time>
      </trkpt>
      <trkpt lat="59.6869257" lon="17.8771564">
        <ele>37.6287</ele>
        <time>2013-05-30T19:20:07Z</time>
      </trkpt>
      <trkpt lat="59.6869704" lon="17.8772567">
        <ele>37.6287</ele>
        <time>2013-05-30T19:20:08Z</time>
      </trkpt>
      <trkpt lat="59.687015" lon="17.8773452">
        <ele>37.1481</ele>
        <time>2013-05-30T19:20:09Z</time>
      </trkpt>
      <trkpt lat="59.6870595" lon="17.8774525">
        <ele>37.1481</ele>
        <time>2013-05-30T19:20:10Z</time>
      </trkpt>
      <trkpt lat="59.6871033" lon="17.8775692">
        <ele>37.6287</ele>
        <time>2013-05-30T19:20:11Z</time>
      </trkpt>
      <trkpt lat="59.6871474" lon="17.8776921">
        <ele>38.1094</ele>
        <time>2013-05-30T19:20:12Z</time>
      </trkpt>
      <trkpt lat="59.6871906" lon="17.8777912">
        <ele>37.1481</ele>
        <time>2013-05-30T19:20:13Z</time>
      </trkpt>
      <trkpt lat="59.6872352" lon="17.8779008">
        <ele>37.6287</ele>
        <time>2013-05-30T19:20:14Z</time>
      </trkpt>
      <trkpt lat="59.6872819" lon="17.8780236">
        <ele>38.5901</ele>
        <time>2013-05-30T19:20:15Z</time>
      </trkpt>
      <trkpt lat="59.6873269" lon="17.8781585">
        <ele>38.1094</ele>
        <time>2013-05-30T19:20:16Z</time>
      </trkpt>
      <trkpt lat="59.687371" lon="17.8782738">
        <ele>37.6287</ele>
        <time>2013-05-30T19:20:17Z</time>
      </trkpt>
      <trkpt lat="59.6874143" lon="17.878386">
        <ele>36.1868</ele>
        <time>2013-05-30T19:20:18Z</time>
      </trkpt>
      <trkpt lat="59.6874573" lon="17.8784999">
        <ele>34.7449</ele>
        <time>2013-05-30T19:20:19Z</time>
      </trkpt>
      <trkpt lat="59.687501" lon="17.878613">
        <ele>34.2642</ele>
        <time>2013-05-30T19:20:20Z</time>
      </trkpt>
      <trkpt lat="59.6875461" lon="17.8787332">
        <ele>34.7449</ele>
        <time>2013-05-30T19:20:21Z</time>
      </trkpt>
      <trkpt lat="59.6875908" lon="17.878859">
        <ele>34.7449</ele>
        <time>2013-05-30T19:20:22Z</time>
      </trkpt>
      <trkpt lat="59.6876335" lon="17.8789849">
        <ele>33.7834</ele>
        <time>2013-05-30T19:20:23Z</time>
      </trkpt>
      <trkpt lat="59.6876751" lon="17.879145">
        <ele>36.1868</ele>
        <time>2013-05-30T19:20:24Z</time>
      </trkpt>
      <trkpt lat="59.6877141" lon="17.8792945">
        <ele>37.6287</ele>
        <time>2013-05-30T19:20:25Z</time>
      </trkpt>
      <trkpt lat="59.6877496" lon="17.8794335">
        <ele>37.6287</ele>
        <time>2013-05-30T19:20:26Z</time>
      </trkpt>
      <trkpt lat="59.687786" lon="17.8795548">
        <ele>37.6287</ele>
        <time>2013-05-30T19:20:27Z</time>
      </trkpt>
      <trkpt lat="59.6878227" lon="17.879665">
        <ele>36.1868</ele>
        <time>2013-05-30T19:20:28Z</time>
      </trkpt>
      <trkpt lat="59.6878588" lon="17.8797853">
        <ele>34.7449</ele>
        <time>2013-05-30T19:20:29Z</time>
      </trkpt>
      <trkpt lat="59.6878962" lon="17.8799163">
        <ele>34.7449</ele>
        <time>2013-05-30T19:20:30Z</time>
      </trkpt>
      <trkpt lat="59.6879318" lon="17.8800489">
        <ele>33.3029</ele>
        <time>2013-05-30T19:20:31Z</time>
      </trkpt>
      <trkpt lat="59.6879686" lon="17.8801982">
        <ele>32.8223</ele>
        <time>2013-05-30T19:20:32Z</time>
      </trkpt>
      <trkpt lat="59.6880057" lon="17.8803696">
        <ele>33.7834</ele>
        <time>2013-05-30T19:20:33Z</time>
      </trkpt>
      <trkpt lat="59.6880448" lon="17.8805301">
        <ele>33.7834</ele>
        <time>2013-05-30T19:20:34Z</time>
      </trkpt>
      <trkpt lat="59.6880858" lon="17.8806644">
        <ele>32.3416</ele>
        <time>2013-05-30T19:20:35Z</time>
      </trkpt>
      <trkpt lat="59.688128" lon="17.8808211">
        <ele>31.3801</ele>
        <time>2013-05-30T19:20:36Z</time>
      </trkpt>
      <trkpt lat="59.688173" lon="17.8809787">
        <ele>30.4188</ele>
        <time>2013-05-30T19:20:37Z</time>
      </trkpt>
      <trkpt lat="59.6882185" lon="17.8811461">
        <ele>30.4188</ele>
        <time>2013-05-30T19:20:38Z</time>
      </trkpt>
      <trkpt lat="59.688262" lon="17.8813192">
        <ele>30.4188</ele>
        <time>2013-05-30T19:20:39Z</time>
      </trkpt>
      <trkpt lat="59.6883071" lon="17.881492">
        <ele>29.9381</ele>
        <time>2013-05-30T19:20:40Z</time>
      </trkpt>
      <trkpt lat="59.6883515" lon="17.8816647">
        <ele>30.4188</ele>
        <time>2013-05-30T19:20:41Z</time>
      </trkpt>
      <trkpt lat="59.688396" lon="17.881834">
        <ele>29.9381</ele>
        <time>2013-05-30T19:20:42Z</time>
      </trkpt>
      <trkpt lat="59.6884391" lon="17.8819966">
        <ele>29.4575</ele>
        <time>2013-05-30T19:20:43Z</time>
      </trkpt>
      <trkpt lat="59.6884796" lon="17.8821547">
        <ele>29.4575</ele>
        <time>2013-05-30T19:20:44Z</time>
      </trkpt>
      <trkpt lat="59.6885184" lon="17.8823086">
        <ele>29.4575</ele>
        <time>2013-05-30T19:20:45Z</time>
      </trkpt>
      <trkpt lat="59.6885572" lon="17.8824617">
        <ele>29.4575</ele>
        <time>2013-05-30T19:20:46Z</time>
      </trkpt>
      <trkpt lat="59.6885965" lon="17.8826083">
        <ele>29.4575</ele>
        <time>2013-05-30T19:20:47Z</time>
      </trkpt>
      <trkpt lat="59.688638" lon="17.8827561">
        <ele>28.9769</ele>
        <time>2013-05-30T19:20:48Z</time>
      </trkpt>
      <trkpt lat="59.6886816" lon="17.8829135">
        <ele>28.9769</ele>
        <time>2013-05-30T19:20:49Z</time>
      </trkpt>
      <trkpt lat="59.6887246" lon="17.8830742">
        <ele>28.9769</ele>
        <time>2013-05-30T19:20:50Z</time>
      </trkpt>
      <trkpt lat="59.6887664" lon="17.883235">
        <ele>28.9769</ele>
        <time>2013-05-30T19:20:51Z</time>
      </trkpt>
      <trkpt lat="59.6888075" lon="17.8833932">
        <ele>28.9769</ele>
        <time>2013-05-30T19:20:52Z</time>
      </trkpt>
      <trkpt lat="59.6888477" lon="17.88355">
        <ele>28.9769</ele>
        <time>2013-05-30T19:20:53Z</time>
      </trkpt>
      <trkpt lat="59.6888883" lon="17.8837029">
        <ele>29.4575</ele>
        <time>2013-05-30T19:20:54Z</time>
      </trkpt>
      <trkpt lat="59.6889291" lon="17.8838512">
        <ele>29.9381</ele>
        <time>2013-05-30T19:20:55Z</time>
      </trkpt>
      <trkpt lat="59.688969" lon="17.8839972">
        <ele>29.4575</ele>
        <time>2013-05-30T19:20:56Z</time>
      </trkpt>
      <trkpt lat="59.6890083" lon="17.8841428">
        <ele>29.4575</ele>
        <time>2013-05-30T19:20:57Z</time>
      </trkpt>
      <trkpt lat="59.6890466" lon="17.8842887">
        <ele>29.4575</ele>
        <time>2013-05-30T19:20:58Z</time>
      </trkpt>
      <trkpt lat="59.6890844" lon="17.8844334">
        <ele>29.4575</ele>
        <time>2013-05-30T19:20:59Z</time>
      </trkpt>
      <trkpt lat="59.6891227" lon="17.8845761">
        <ele>29.9381</ele>
        <time>2013-05-30T19:21:00Z</time>
      </trkpt>
      <trkpt lat="59.6891618" lon="17.8847184">
        <ele>29.9381</ele>
        <time>2013-05-30T19:21:01Z</time>
      </trkpt>
      <trkpt lat="59.6892006" lon="17.8848618">
        <ele>30.4188</ele>
        <time>2013-05-30T19:21:02Z</time>
      </trkpt>
      <trkpt lat="59.6892386" lon="17.885003">
        <ele>30.4188</ele>
        <time>2013-05-30T19:21:03Z</time>
      </trkpt>
      <trkpt lat="59.6892767" lon="17.8851371">
        <ele>30.4188</ele>
        <time>2013-05-30T19:21:04Z</time>
      </trkpt>
      <trkpt lat="59.6893147" lon="17.8852724">
        <ele>30.4188</ele>
        <time>2013-05-30T19:21:05Z</time>
      </trkpt>
      <trkpt lat="59.689352" lon="17.8854077">
        <ele>30.8995</ele>
        <time>2013-05-30T19:21:06Z</time>
      </trkpt>
      <trkpt lat="59.6893882" lon="17.8855434">
        <ele>30.8995</ele>
        <time>2013-05-30T19:21:07Z</time>
      </trkpt>
      <trkpt lat="59.6894237" lon="17.8856782">
        <ele>30.8995</ele>
        <time>2013-05-30T19:21:08Z</time>
      </trkpt>
      <trkpt lat="59.6894598" lon="17.8858132">
        <ele>30.8995</ele>
        <time>2013-05-30T19:21:09Z</time>
      </trkpt>
      <trkpt lat="59.6894964" lon="17.8859512">
        <ele>30.8995</ele>
        <time>2013-05-30T19:21:10Z</time>
      </trkpt>
      <trkpt lat="59.6895331" lon="17.8860889">
        <ele>31.3801</ele>
        <time>2013-05-30T19:21:11Z</time>
      </trkpt>
      <trkpt lat="59.6895694" lon="17.8862262">
        <ele>31.3801</ele>
        <time>2013-05-30T19:21:12Z</time>
      </trkpt>
      <trkpt lat="59.6896048" lon="17.886364">
        <ele>31.3801</ele>
        <time>2013-05-30T19:21:13Z</time>
      </trkpt>
      <trkpt lat="59.6896404" lon="17.8865013">
        <ele>31.3801</ele>
        <time>2013-05-30T19:21:14Z</time>
      </trkpt>
      <trkpt lat="59.6896762" lon="17.886637">
        <ele>31.8607</ele>
        <time>2013-05-30T19:21:15Z</time>
      </trkpt>
      <trkpt lat="59.6897117" lon="17.8867725">
        <ele>31.8607</ele>
        <time>2013-05-30T19:21:16Z</time>
      </trkpt>
      <trkpt lat="59.6897464" lon="17.8869079">
        <ele>31.8607</ele>
        <time>2013-05-30T19:21:17Z</time>
      </trkpt>
      <trkpt lat="59.6897814" lon="17.8870426">
        <ele>32.3416</ele>
        <time>2013-05-30T19:21:18Z</time>
      </trkpt>
      <trkpt lat="59.689816" lon="17.8871731">
        <ele>32.3416</ele>
        <time>2013-05-30T19:21:19Z</time>
      </trkpt>
      <trkpt lat="59.6898501" lon="17.8873015">
        <ele>32.3416</ele>
        <time>2013-05-30T19:21:20Z</time>
      </trkpt>
      <trkpt lat="59.689883" lon="17.8874293">
        <ele>32.3416</ele>
        <time>2013-05-30T19:21:21Z</time>
      </trkpt>
      <trkpt lat="59.6899153" lon="17.8875534">
        <ele>32.3416</ele>
        <time>2013-05-30T19:21:22Z</time>
      </trkpt>
      <trkpt lat="59.689948" lon="17.8876766">
        <ele>32.3416</ele>
        <time>2013-05-30T19:21:23Z</time>
      </trkpt>
      <trkpt lat="59.6899812" lon="17.8877973">
        <ele>32.3416</ele>
        <time>2013-05-30T19:21:24Z</time>
      </trkpt>
      <trkpt lat="59.6900143" lon="17.8879227">
        <ele>32.3416</ele>
        <time>2013-05-30T19:21:25Z</time>
      </trkpt>
      <trkpt lat="59.6900467" lon="17.8880525">
        <ele>32.3416</ele>
        <time>2013-05-30T19:21:26Z</time>
      </trkpt>
      <trkpt lat="59.6900791" lon="17.8881722">
        <ele>32.8223</ele>
        <time>2013-05-30T19:21:27Z</time>
      </trkpt>
      <trkpt lat="59.6901087" lon="17.8882925">
        <ele>32.3416</ele>
        <time>2013-05-30T19:21:28Z</time>
      </trkpt>
      <trkpt lat="59.6901356" lon="17.8884032">
        <ele>31.3801</ele>
        <time>2013-05-30T19:21:29Z</time>
      </trkpt>
      <trkpt lat="59.6901634" lon="17.888526">
        <ele>31.8607</ele>
        <time>2013-05-30T19:21:30Z</time>
      </trkpt>
      <trkpt lat="59.6901917" lon="17.8886339">
        <ele>31.3801</ele>
        <time>2013-05-30T19:21:31Z</time>
      </trkpt>
      <trkpt lat="59.6902218" lon="17.8887437">
        <ele>31.8607</ele>
        <time>2013-05-30T19:21:32Z</time>
      </trkpt>
      <trkpt lat="59.6902522" lon="17.8888537">
        <ele>32.3416</ele>
        <time>2013-05-30T19:21:33Z</time>
      </trkpt>
      <trkpt lat="59.6902822" lon="17.8889644">
        <ele>32.8223</ele>
        <time>2013-05-30T19:21:34Z</time>
      </trkpt>
      <trkpt lat="59.6903124" lon="17.8890747">
        <ele>33.3029</ele>
        <time>2013-05-30T19:21:35Z</time>
      </trkpt>
      <trkpt lat="59.6903422" lon="17.8891888">
        <ele>33.7834</ele>
        <time>2013-05-30T19:21:36Z</time>
      </trkpt>
      <trkpt lat="59.6903719" lon="17.8893058">
        <ele>33.7834</ele>
        <time>2013-05-30T19:21:37Z</time>
      </trkpt>
      <trkpt lat="59.690403" lon="17.8894213">
        <ele>34.2642</ele>
        <time>2013-05-30T19:21:38Z</time>
      </trkpt>
      <trkpt lat="59.6904324" lon="17.8895425">
        <ele>33.7834</ele>
        <time>2013-05-30T19:21:39Z</time>
      </trkpt>
      <trkpt lat="59.6904625" lon="17.8896662">
        <ele>32.8223</ele>
        <time>2013-05-30T19:21:40Z</time>
      </trkpt>
      <trkpt lat="59.6904967" lon="17.8897906">
        <ele>33.3029</ele>
        <time>2013-05-30T19:21:41Z</time>
      </trkpt>
      <trkpt lat="59.6905309" lon="17.8899169">
        <ele>33.3029</ele>
        <time>2013-05-30T19:21:42Z</time>
      </trkpt>
      <trkpt lat="59.6905651" lon="17.890047">
        <ele>33.3029</ele>
        <time>2013-05-30T19:21:43Z</time>
      </trkpt>
      <trkpt lat="59.6905996" lon="17.8901836">
        <ele>33.3029</ele>
        <time>2013-05-30T19:21:44Z</time>
      </trkpt>
      <trkpt lat="59.6906345" lon="17.890321">
        <ele>32.8223</ele>
        <time>2013-05-30T19:21:45Z</time>
      </trkpt>
      <trkpt lat="59.6906702" lon="17.8904569">
        <ele>32.3416</ele>
        <time>2013-05-30T19:21:46Z</time>
      </trkpt>
      <trkpt lat="59.6907059" lon="17.8905946">
        <ele>31.8607</ele>
        <time>2013-05-30T19:21:47Z</time>
      </trkpt>
      <trkpt lat="59.6907433" lon="17.8907358">
        <ele>31.8607</ele>
        <time>2013-05-30T19:21:48Z</time>
      </trkpt>
      <trkpt lat="59.6907802" lon="17.8908803">
        <ele>31.8607</ele>
        <time>2013-05-30T19:21:49Z</time>
      </trkpt>
      <trkpt lat="59.6908182" lon="17.891024">
        <ele>31.3801</ele>
        <time>2013-05-30T19:21:50Z</time>
      </trkpt>
      <trkpt lat="59.6908563" lon="17.8911725">
        <ele>31.3801</ele>
        <time>2013-05-30T19:21:51Z</time>
      </trkpt>
      <trkpt lat="59.6908952" lon="17.8913225">
        <ele>31.3801</ele>
        <time>2013-05-30T19:21:52Z</time>
      </trkpt>
      <trkpt lat="59.690935" lon="17.8914762">
        <ele>31.3801</ele>
        <time>2013-05-30T19:21:53Z</time>
      </trkpt>
      <trkpt lat="59.6909751" lon="17.8916332">
        <ele>31.3801</ele>
        <time>2013-05-30T19:21:54Z</time>
      </trkpt>
      <trkpt lat="59.6910152" lon="17.8917896">
        <ele>31.3801</ele>
        <time>2013-05-30T19:21:55Z</time>
      </trkpt>
      <trkpt lat="59.6910563" lon="17.8919433">
        <ele>31.3801</ele>
        <time>2013-05-30T19:21:56Z</time>
      </trkpt>
      <trkpt lat="59.6910974" lon="17.892099">
        <ele>30.8995</ele>
        <time>2013-05-30T19:21:57Z</time>
      </trkpt>
      <trkpt lat="59.6911368" lon="17.8922542">
        <ele>29.9381</ele>
        <time>2013-05-30T19:21:58Z</time>
      </trkpt>
      <trkpt lat="59.6911767" lon="17.8924086">
        <ele>29.4575</ele>
        <time>2013-05-30T19:21:59Z</time>
      </trkpt>
      <trkpt lat="59.6912166" lon="17.892561">
        <ele>29.4575</ele>
        <time>2013-05-30T19:22:00Z</time>
      </trkpt>
      <trkpt lat="59.6912559" lon="17.892713">
        <ele>29.4575</ele>
        <time>2013-05-30T19:22:01Z</time>
      </trkpt>
      <trkpt lat="59.6912943" lon="17.8928628">
        <ele>28.9769</ele>
        <time>2013-05-30T19:22:02Z</time>
      </trkpt>
      <trkpt lat="59.6913324" lon="17.893008">
        <ele>28.9769</ele>
        <time>2013-05-30T19:22:03Z</time>
      </trkpt>
      <trkpt lat="59.6913701" lon="17.8931495">
        <ele>28.9769</ele>
        <time>2013-05-30T19:22:04Z</time>
      </trkpt>
      <trkpt lat="59.691407" lon="17.8932881">
        <ele>29.4575</ele>
        <time>2013-05-30T19:22:05Z</time>
      </trkpt>
      <trkpt lat="59.6914426" lon="17.893423">
        <ele>29.4575</ele>
        <time>2013-05-30T19:22:06Z</time>
      </trkpt>
      <trkpt lat="59.6914779" lon="17.8935577">
        <ele>29.9381</ele>
        <time>2013-05-30T19:22:07Z</time>
      </trkpt>
      <trkpt lat="59.6915134" lon="17.8936891">
        <ele>30.4188</ele>
        <time>2013-05-30T19:22:08Z</time>
      </trkpt>
      <trkpt lat="59.6915478" lon="17.8938169">
        <ele>30.4188</ele>
        <time>2013-05-30T19:22:09Z</time>
      </trkpt>
      <trkpt lat="59.6915809" lon="17.8939414">
        <ele>30.8995</ele>
        <time>2013-05-30T19:22:10Z</time>
      </trkpt>
      <trkpt lat="59.691614" lon="17.8940666">
        <ele>30.8995</ele>
        <time>2013-05-30T19:22:11Z</time>
      </trkpt>
      <trkpt lat="59.6916462" lon="17.8941917">
        <ele>30.8995</ele>
        <time>2013-05-30T19:22:12Z</time>
      </trkpt>
      <trkpt lat="59.6916784" lon="17.8943161">
        <ele>31.3801</ele>
        <time>2013-05-30T19:22:13Z</time>
      </trkpt>
      <trkpt lat="59.6917116" lon="17.8944403">
        <ele>31.3801</ele>
        <time>2013-05-30T19:22:14Z</time>
      </trkpt>
      <trkpt lat="59.6917444" lon="17.8945525">
        <ele>30.8995</ele>
        <time>2013-05-30T19:22:15Z</time>
      </trkpt>
      <trkpt lat="59.6917768" lon="17.8946802">
        <ele>31.3801</ele>
        <time>2013-05-30T19:22:16Z</time>
      </trkpt>
      <trkpt lat="59.6918089" lon="17.8948118">
        <ele>31.3801</ele>
        <time>2013-05-30T19:22:17Z</time>
      </trkpt>
      <trkpt lat="59.6918411" lon="17.8949402">
        <ele>31.3801</ele>
        <time>2013-05-30T19:22:18Z</time>
      </trkpt>
      <trkpt lat="59.6918741" lon="17.8950713">
        <ele>31.3801</ele>
        <time>2013-05-30T19:22:19Z</time>
      </trkpt>
      <trkpt lat="59.6919071" lon="17.8952039">
        <ele>31.8607</ele>
        <time>2013-05-30T19:22:20Z</time>
      </trkpt>
      <trkpt lat="59.6919409" lon="17.895338">
        <ele>31.8607</ele>
        <time>2013-05-30T19:22:21Z</time>
      </trkpt>
      <trkpt lat="59.6919763" lon="17.8954773">
        <ele>31.8607</ele>
        <time>2013-05-30T19:22:22Z</time>
      </trkpt>
      <trkpt lat="59.692013" lon="17.8956184">
        <ele>32.3416</ele>
        <time>2013-05-30T19:22:23Z</time>
      </trkpt>
      <trkpt lat="59.6920503" lon="17.8957575">
        <ele>32.3416</ele>
        <time>2013-05-30T19:22:24Z</time>
      </trkpt>
      <trkpt lat="59.6920876" lon="17.8958974">
        <ele>32.3416</ele>
        <time>2013-05-30T19:22:25Z</time>
      </trkpt>
      <trkpt lat="59.6921238" lon="17.8960353">
        <ele>31.8607</ele>
        <time>2013-05-30T19:22:26Z</time>
      </trkpt>
      <trkpt lat="59.6921605" lon="17.8961756">
        <ele>31.8607</ele>
        <time>2013-05-30T19:22:27Z</time>
      </trkpt>
      <trkpt lat="59.6921973" lon="17.8963174">
        <ele>31.8607</ele>
        <time>2013-05-30T19:22:28Z</time>
      </trkpt>
      <trkpt lat="59.6922341" lon="17.8964585">
        <ele>31.8607</ele>
        <time>2013-05-30T19:22:29Z</time>
      </trkpt>
      <trkpt lat="59.6922709" lon="17.8966005">
        <ele>31.8607</ele>
        <time>2013-05-30T19:22:30Z</time>
      </trkpt>
      <trkpt lat="59.6923065" lon="17.8967485">
        <ele>32.3416</ele>
        <time>2013-05-30T19:22:31Z</time>
      </trkpt>
      <trkpt lat="59.6923414" lon="17.8969004">
        <ele>32.8223</ele>
        <time>2013-05-30T19:22:32Z</time>
      </trkpt>
      <trkpt lat="59.692376" lon="17.8970546">
        <ele>32.8223</ele>
        <time>2013-05-30T19:22:33Z</time>
      </trkpt>
      <trkpt lat="59.6924098" lon="17.8972126">
        <ele>32.8223</ele>
        <time>2013-05-30T19:22:34Z</time>
      </trkpt>
      <trkpt lat="59.6924429" lon="17.8973754">
        <ele>32.8223</ele>
        <time>2013-05-30T19:22:35Z</time>
      </trkpt>
      <trkpt lat="59.6924729" lon="17.8975417">
        <ele>32.3416</ele>
        <time>2013-05-30T19:22:36Z</time>
      </trkpt>
      <trkpt lat="59.692501" lon="17.8977089">
        <ele>32.3416</ele>
        <time>2013-05-30T19:22:37Z</time>
      </trkpt>
      <trkpt lat="59.6925259" lon="17.8978571">
        <ele>30.8995</ele>
        <time>2013-05-30T19:22:38Z</time>
      </trkpt>
      <trkpt lat="59.6925518" lon="17.8980182">
        <ele>30.4188</ele>
        <time>2013-05-30T19:22:39Z</time>
      </trkpt>
      <trkpt lat="59.6925776" lon="17.898183">
        <ele>29.9381</ele>
        <time>2013-05-30T19:22:40Z</time>
      </trkpt>
      <trkpt lat="59.6926003" lon="17.8983305">
        <ele>28.4962</ele>
        <time>2013-05-30T19:22:41Z</time>
      </trkpt>
      <trkpt lat="59.6926226" lon="17.8984933">
        <ele>27.5349</ele>
        <time>2013-05-30T19:22:42Z</time>
      </trkpt>
      <trkpt lat="59.6926447" lon="17.8986564">
        <ele>27.0543</ele>
        <time>2013-05-30T19:22:43Z</time>
      </trkpt>
      <trkpt lat="59.6926673" lon="17.8988175">
        <ele>27.0543</ele>
        <time>2013-05-30T19:22:44Z</time>
      </trkpt>
      <trkpt lat="59.6926901" lon="17.8989796">
        <ele>27.0543</ele>
        <time>2013-05-30T19:22:45Z</time>
      </trkpt>
      <trkpt lat="59.6927128" lon="17.8991463">
        <ele>27.0543</ele>
        <time>2013-05-30T19:22:46Z</time>
      </trkpt>
      <trkpt lat="59.6927351" lon="17.8993137">
        <ele>27.0543</ele>
        <time>2013-05-30T19:22:47Z</time>
      </trkpt>
      <trkpt lat="59.6927571" lon="17.8994804">
        <ele>27.0543</ele>
        <time>2013-05-30T19:22:48Z</time>
      </trkpt>
      <trkpt lat="59.6927796" lon="17.8996436">
        <ele>27.0543</ele>
        <time>2013-05-30T19:22:49Z</time>
      </trkpt>
      <trkpt lat="59.6928028" lon="17.8998059">
        <ele>27.0543</ele>
        <time>2013-05-30T19:22:50Z</time>
      </trkpt>
      <trkpt lat="59.6928258" lon="17.899966">
        <ele>27.0543</ele>
        <time>2013-05-30T19:22:51Z</time>
      </trkpt>
      <trkpt lat="59.692849" lon="17.9001255">
        <ele>27.0543</ele>
        <time>2013-05-30T19:22:52Z</time>
      </trkpt>
      <trkpt lat="59.6928721" lon="17.9002855">
        <ele>27.0543</ele>
        <time>2013-05-30T19:22:53Z</time>
      </trkpt>
      <trkpt lat="59.6928956" lon="17.9004421">
        <ele>26.5736</ele>
        <time>2013-05-30T19:22:54Z</time>
      </trkpt>
      <trkpt lat="59.6929188" lon="17.9005982">
        <ele>26.5736</ele>
        <time>2013-05-30T19:22:55Z</time>
      </trkpt>
      <trkpt lat="59.6929407" lon="17.9007537">
        <ele>26.5736</ele>
        <time>2013-05-30T19:22:56Z</time>
      </trkpt>
      <trkpt lat="59.6929626" lon="17.900904">
        <ele>26.0929</ele>
        <time>2013-05-30T19:22:57Z</time>
      </trkpt>
      <trkpt lat="59.6929851" lon="17.9010558">
        <ele>25.6123</ele>
        <time>2013-05-30T19:22:58Z</time>
      </trkpt>
      <trkpt lat="59.6930075" lon="17.9012126">
        <ele>26.0929</ele>
        <time>2013-05-30T19:22:59Z</time>
      </trkpt>
      <trkpt lat="59.6930302" lon="17.9013702">
        <ele>26.0929</ele>
        <time>2013-05-30T19:23:00Z</time>
      </trkpt>
      <trkpt lat="59.6930536" lon="17.9015278">
        <ele>25.6123</ele>
        <time>2013-05-30T19:23:01Z</time>
      </trkpt>
      <trkpt lat="59.6930772" lon="17.9016878">
        <ele>25.6123</ele>
        <time>2013-05-30T19:23:02Z</time>
      </trkpt>
      <trkpt lat="59.6931013" lon="17.9018503">
        <ele>25.6123</ele>
        <time>2013-05-30T19:23:03Z</time>
      </trkpt>
      <trkpt lat="59.6931261" lon="17.9020162">
        <ele>25.6123</ele>
        <time>2013-05-30T19:23:04Z</time>
      </trkpt>
      <trkpt lat="59.6931506" lon="17.9021861">
        <ele>25.6123</ele>
        <time>2013-05-30T19:23:05Z</time>
      </trkpt>
      <trkpt lat="59.6931751" lon="17.9023533">
        <ele>25.6123</ele>
        <time>2013-05-30T19:23:06Z</time>
      </trkpt>
      <trkpt lat="59.6931992" lon="17.902515">
        <ele>25.6123</ele>
        <time>2013-05-30T19:23:07Z</time>
      </trkpt>
      <trkpt lat="59.693223" lon="17.9026766">
        <ele>25.6123</ele>
        <time>2013-05-30T19:23:08Z</time>
      </trkpt>
      <trkpt lat="59.6932468" lon="17.9028399">
        <ele>25.6123</ele>
        <time>2013-05-30T19:23:09Z</time>
      </trkpt>
      <trkpt lat="59.6932703" lon="17.9030012">
        <ele>25.6123</ele>
        <time>2013-05-30T19:23:10Z</time>
      </trkpt>
      <trkpt lat="59.693293" lon="17.9031587">
        <ele>25.6123</ele>
        <time>2013-05-30T19:23:11Z</time>
      </trkpt>
      <trkpt lat="59.6933156" lon="17.903316">
        <ele>26.0929</ele>
        <time>2013-05-30T19:23:12Z</time>
      </trkpt>
      <trkpt lat="59.693338" lon="17.9034726">
        <ele>26.0929</ele>
        <time>2013-05-30T19:23:13Z</time>
      </trkpt>
      <trkpt lat="59.6933607" lon="17.9036281">
        <ele>26.0929</ele>
        <time>2013-05-30T19:23:14Z</time>
      </trkpt>
      <trkpt lat="59.6933834" lon="17.9037835">
        <ele>26.0929</ele>
        <time>2013-05-30T19:23:15Z</time>
      </trkpt>
      <trkpt lat="59.693407" lon="17.9039379">
        <ele>26.0929</ele>
        <time>2013-05-30T19:23:16Z</time>
      </trkpt>
      <trkpt lat="59.69343" lon="17.9040863">
        <ele>26.0929</ele>
        <time>2013-05-30T19:23:17Z</time>
      </trkpt>
      <trkpt lat="59.6934524" lon="17.9042336">
        <ele>26.5736</ele>
        <time>2013-05-30T19:23:18Z</time>
      </trkpt>
      <trkpt lat="59.6934747" lon="17.9043825">
        <ele>26.5736</ele>
        <time>2013-05-30T19:23:19Z</time>
      </trkpt>
      <trkpt lat="59.693497" lon="17.9045276">
        <ele>26.5736</ele>
        <time>2013-05-30T19:23:20Z</time>
      </trkpt>
      <trkpt lat="59.6935196" lon="17.9046725">
        <ele>26.5736</ele>
        <time>2013-05-30T19:23:21Z</time>
      </trkpt>
      <trkpt lat="59.6935415" lon="17.9048176">
        <ele>26.5736</ele>
        <time>2013-05-30T19:23:22Z</time>
      </trkpt>
      <trkpt lat="59.6935626" lon="17.9049643">
        <ele>27.0543</ele>
        <time>2013-05-30T19:23:23Z</time>
      </trkpt>
      <trkpt lat="59.6935833" lon="17.9051082">
        <ele>27.0543</ele>
        <time>2013-05-30T19:23:24Z</time>
      </trkpt>
      <trkpt lat="59.693604" lon="17.9052557">
        <ele>27.0543</ele>
        <time>2013-05-30T19:23:25Z</time>
      </trkpt>
      <trkpt lat="59.693625" lon="17.9053932">
        <ele>27.5349</ele>
        <time>2013-05-30T19:23:26Z</time>
      </trkpt>
      <trkpt lat="59.693647" lon="17.9055158">
        <ele>27.0543</ele>
        <time>2013-05-30T19:23:27Z</time>
      </trkpt>
      <trkpt lat="59.69367" lon="17.9056416">
        <ele>27.5349</ele>
        <time>2013-05-30T19:23:28Z</time>
      </trkpt>
      <trkpt lat="59.6936921" lon="17.9057814">
        <ele>28.0155</ele>
        <time>2013-05-30T19:23:29Z</time>
      </trkpt>
      <trkpt lat="59.6937136" lon="17.905923">
        <ele>28.4962</ele>
        <time>2013-05-30T19:23:30Z</time>
      </trkpt>
      <trkpt lat="59.6937359" lon="17.9060616">
        <ele>28.9769</ele>
        <time>2013-05-30T19:23:31Z</time>
      </trkpt>
      <trkpt lat="59.6937549" lon="17.906203">
        <ele>28.9769</ele>
        <time>2013-05-30T19:23:32Z</time>
      </trkpt>
      <trkpt lat="59.6937747" lon="17.9063446">
        <ele>28.9769</ele>
        <time>2013-05-30T19:23:33Z</time>
      </trkpt>
      <trkpt lat="59.6937948" lon="17.9064798">
        <ele>28.9769</ele>
        <time>2013-05-30T19:23:34Z</time>
      </trkpt>
      <trkpt lat="59.6938185" lon="17.9066156">
        <ele>30.4188</ele>
        <time>2013-05-30T19:23:35Z</time>
      </trkpt>
      <trkpt lat="59.6938421" lon="17.9067508">
        <ele>30.8995</ele>
        <time>2013-05-30T19:23:36Z</time>
      </trkpt>
      <trkpt lat="59.6938638" lon="17.9068855">
        <ele>30.4188</ele>
        <time>2013-05-30T19:23:37Z</time>
      </trkpt>
      <trkpt lat="59.693883" lon="17.9070154">
        <ele>29.9381</ele>
        <time>2013-05-30T19:23:38Z</time>
      </trkpt>
      <trkpt lat="59.6939056" lon="17.9071441">
        <ele>28.9769</ele>
        <time>2013-05-30T19:23:39Z</time>
      </trkpt>
      <trkpt lat="59.6939288" lon="17.9072598">
        <ele>27.5349</ele>
        <time>2013-05-30T19:23:40Z</time>
      </trkpt>
      <trkpt lat="59.6939517" lon="17.9073771">
        <ele>25.6123</ele>
        <time>2013-05-30T19:23:41Z</time>
      </trkpt>
      <trkpt lat="59.6939746" lon="17.9074922">
        <ele>24.1703</ele>
        <time>2013-05-30T19:23:42Z</time>
      </trkpt>
      <trkpt lat="59.6939977" lon="17.9076134">
        <ele>23.209</ele>
        <time>2013-05-30T19:23:43Z</time>
      </trkpt>
      <trkpt lat="59.6940238" lon="17.9077551">
        <ele>23.209</ele>
        <time>2013-05-30T19:23:44Z</time>
      </trkpt>
      <trkpt lat="59.6940503" lon="17.9078868">
        <ele>23.209</ele>
        <time>2013-05-30T19:23:45Z</time>
      </trkpt>
      <trkpt lat="59.6940752" lon="17.9080058">
        <ele>21.2864</ele>
        <time>2013-05-30T19:23:46Z</time>
      </trkpt>
      <trkpt lat="59.6941011" lon="17.9081418">
        <ele>20.8057</ele>
        <time>2013-05-30T19:23:47Z</time>
      </trkpt>
      <trkpt lat="59.6941291" lon="17.9082783">
        <ele>20.8057</ele>
        <time>2013-05-30T19:23:48Z</time>
      </trkpt>
      <trkpt lat="59.694157" lon="17.9084305">
        <ele>21.2864</ele>
        <time>2013-05-30T19:23:49Z</time>
      </trkpt>
      <trkpt lat="59.6941845" lon="17.9085864">
        <ele>21.767</ele>
        <time>2013-05-30T19:23:50Z</time>
      </trkpt>
      <trkpt lat="59.6942093" lon="17.9087431">
        <ele>22.2476</ele>
        <time>2013-05-30T19:23:51Z</time>
      </trkpt>
      <trkpt lat="59.6942336" lon="17.9088897">
        <ele>22.2476</ele>
        <time>2013-05-30T19:23:52Z</time>
      </trkpt>
      <trkpt lat="59.6942602" lon="17.9090338">
        <ele>21.767</ele>
        <time>2013-05-30T19:23:53Z</time>
      </trkpt>
      <trkpt lat="59.6942868" lon="17.9091786">
        <ele>21.767</ele>
        <time>2013-05-30T19:23:54Z</time>
      </trkpt>
      <trkpt lat="59.6943119" lon="17.9093099">
        <ele>21.2864</ele>
        <time>2013-05-30T19:23:55Z</time>
      </trkpt>
      <trkpt lat="59.6943378" lon="17.9094295">
        <ele>19.8444</ele>
        <time>2013-05-30T19:23:56Z</time>
      </trkpt>
      <trkpt lat="59.6943642" lon="17.9095704">
        <ele>19.8444</ele>
        <time>2013-05-30T19:23:57Z</time>
      </trkpt>
      <trkpt lat="59.694391" lon="17.9097241">
        <ele>19.8444</ele>
        <time>2013-05-30T19:23:58Z</time>
      </trkpt>
      <trkpt lat="59.6944181" lon="17.9098885">
        <ele>20.325</ele>
        <time>2013-05-30T19:23:59Z</time>
      </trkpt>
      <trkpt lat="59.6944456" lon="17.9100359">
        <ele>20.8057</ele>
        <time>2013-05-30T19:24:00Z</time>
      </trkpt>
      <trkpt lat="59.6944723" lon="17.9101876">
        <ele>21.767</ele>
        <time>2013-05-30T19:24:01Z</time>
      </trkpt>
      <trkpt lat="59.694499" lon="17.9103269">
        <ele>21.767</ele>
        <time>2013-05-30T19:24:02Z</time>
      </trkpt>
      <trkpt lat="59.6945242" lon="17.9104748">
        <ele>23.209</ele>
        <time>2013-05-30T19:24:03Z</time>
      </trkpt>
      <trkpt lat="59.6945422" lon="17.9106094">
        <ele>23.6896</ele>
        <time>2013-05-30T19:24:04Z</time>
      </trkpt>
      <trkpt lat="59.6945621" lon="17.9107611">
        <ele>24.651</ele>
        <time>2013-05-30T19:24:05Z</time>
      </trkpt>
      <trkpt lat="59.6945803" lon="17.9109109">
        <ele>25.6123</ele>
        <time>2013-05-30T19:24:06Z</time>
      </trkpt>
      <trkpt lat="59.6946055" lon="17.9110354">
        <ele>25.6123</ele>
        <time>2013-05-30T19:24:07Z</time>
      </trkpt>
      <trkpt lat="59.6946356" lon="17.9111558">
        <ele>24.651</ele>
        <time>2013-05-30T19:24:08Z</time>
      </trkpt>
      <trkpt lat="59.6946642" lon="17.9112931">
        <ele>24.1703</ele>
        <time>2013-05-30T19:24:09Z</time>
      </trkpt>
      <trkpt lat="59.6946919" lon="17.9114196">
        <ele>24.651</ele>
        <time>2013-05-30T19:24:10Z</time>
      </trkpt>
      <trkpt lat="59.6947198" lon="17.9115346">
        <ele>24.1703</ele>
        <time>2013-05-30T19:24:11Z</time>
      </trkpt>
      <trkpt lat="59.694745" lon="17.9116411">
        <ele>23.6896</ele>
        <time>2013-05-30T19:24:12Z</time>
      </trkpt>
      <trkpt lat="59.6947693" lon="17.911774">
        <ele>23.6896</ele>
        <time>2013-05-30T19:24:13Z</time>
      </trkpt>
      <trkpt lat="59.6947931" lon="17.9119046">
        <ele>24.1703</ele>
        <time>2013-05-30T19:24:14Z</time>
      </trkpt>
      <trkpt lat="59.6948185" lon="17.9120397">
        <ele>25.1317</ele>
        <time>2013-05-30T19:24:15Z</time>
      </trkpt>
      <trkpt lat="59.6948416" lon="17.9121532">
        <ele>24.651</ele>
        <time>2013-05-30T19:24:16Z</time>
      </trkpt>
      <trkpt lat="59.6948682" lon="17.9122646">
        <ele>24.651</ele>
        <time>2013-05-30T19:24:17Z</time>
      </trkpt>
      <trkpt lat="59.6948973" lon="17.9123886">
        <ele>25.6123</ele>
        <time>2013-05-30T19:24:18Z</time>
      </trkpt>
      <trkpt lat="59.6949231" lon="17.9125119">
        <ele>25.1317</ele>
        <time>2013-05-30T19:24:19Z</time>
      </trkpt>
      <trkpt lat="59.6949449" lon="17.9126399">
        <ele>25.6123</ele>
        <time>2013-05-30T19:24:20Z</time>
      </trkpt>
      <trkpt lat="59.6949735" lon="17.9127629">
        <ele>26.0929</ele>
        <time>2013-05-30T19:24:21Z</time>
      </trkpt>
      <trkpt lat="59.6950008" lon="17.9128961">
        <ele>26.5736</ele>
        <time>2013-05-30T19:24:22Z</time>
      </trkpt>
      <trkpt lat="59.6950322" lon="17.9130238">
        <ele>26.5736</ele>
        <time>2013-05-30T19:24:23Z</time>
      </trkpt>
      <trkpt lat="59.6950645" lon="17.9131437">
        <ele>25.1317</ele>
        <time>2013-05-30T19:24:24Z</time>
      </trkpt>
      <trkpt lat="59.6950964" lon="17.9132865">
        <ele>24.651</ele>
        <time>2013-05-30T19:24:25Z</time>
      </trkpt>
      <trkpt lat="59.6951278" lon="17.9134399">
        <ele>24.651</ele>
        <time>2013-05-30T19:24:26Z</time>
      </trkpt>
      <trkpt lat="59.6951593" lon="17.9135962">
        <ele>24.651</ele>
        <time>2013-05-30T19:24:27Z</time>
      </trkpt>
      <trkpt lat="59.6951913" lon="17.9137496">
        <ele>24.651</ele>
        <time>2013-05-30T19:24:28Z</time>
      </trkpt>
      <trkpt lat="59.6952246" lon="17.9139145">
        <ele>24.651</ele>
        <time>2013-05-30T19:24:29Z</time>
      </trkpt>
      <trkpt lat="59.6952593" lon="17.9140589">
        <ele>22.7283</ele>
        <time>2013-05-30T19:24:30Z</time>
      </trkpt>
      <trkpt lat="59.6952966" lon="17.9142055">
        <ele>22.2476</ele>
        <time>2013-05-30T19:24:31Z</time>
      </trkpt>
      <trkpt lat="59.6953327" lon="17.9143603">
        <ele>21.2864</ele>
        <time>2013-05-30T19:24:32Z</time>
      </trkpt>
      <trkpt lat="59.695371" lon="17.9145161">
        <ele>20.8057</ele>
        <time>2013-05-30T19:24:33Z</time>
      </trkpt>
      <trkpt lat="59.6954111" lon="17.9146717">
        <ele>19.8444</ele>
        <time>2013-05-30T19:24:34Z</time>
      </trkpt>
      <trkpt lat="59.6954526" lon="17.9148227">
        <ele>19.8444</ele>
        <time>2013-05-30T19:24:35Z</time>
      </trkpt>
      <trkpt lat="59.6954932" lon="17.9149697">
        <ele>20.325</ele>
        <time>2013-05-30T19:24:36Z</time>
      </trkpt>
      <trkpt lat="59.6955333" lon="17.9151113">
        <ele>20.325</ele>
        <time>2013-05-30T19:24:37Z</time>
      </trkpt>
      <trkpt lat="59.6955722" lon="17.9152511">
        <ele>19.8444</ele>
        <time>2013-05-30T19:24:38Z</time>
      </trkpt>
      <trkpt lat="59.69561" lon="17.9153925">
        <ele>20.325</ele>
        <time>2013-05-30T19:24:39Z</time>
      </trkpt>
      <trkpt lat="59.6956483" lon="17.9155321">
        <ele>20.8057</ele>
        <time>2013-05-30T19:24:40Z</time>
      </trkpt>
      <trkpt lat="59.6956865" lon="17.9156617">
        <ele>20.325</ele>
        <time>2013-05-30T19:24:41Z</time>
      </trkpt>
      <trkpt lat="59.6957255" lon="17.9157946">
        <ele>20.325</ele>
        <time>2013-05-30T19:24:42Z</time>
      </trkpt>
      <trkpt lat="59.6957653" lon="17.9159279">
        <ele>20.325</ele>
        <time>2013-05-30T19:24:43Z</time>
      </trkpt>
      <trkpt lat="59.6958048" lon="17.916064">
        <ele>20.8057</ele>
        <time>2013-05-30T19:24:44Z</time>
      </trkpt>
      <trkpt lat="59.6958432" lon="17.9161941">
        <ele>20.8057</ele>
        <time>2013-05-30T19:24:45Z</time>
      </trkpt>
      <trkpt lat="59.6958814" lon="17.9163227">
        <ele>20.8057</ele>
        <time>2013-05-30T19:24:46Z</time>
      </trkpt>
      <trkpt lat="59.6959181" lon="17.9164415">
        <ele>20.325</ele>
        <time>2013-05-30T19:24:47Z</time>
      </trkpt>
      <trkpt lat="59.6959546" lon="17.9165702">
        <ele>20.8057</ele>
        <time>2013-05-30T19:24:48Z</time>
      </trkpt>
      <trkpt lat="59.695991" lon="17.9166988">
        <ele>20.8057</ele>
        <time>2013-05-30T19:24:49Z</time>
      </trkpt>
      <trkpt lat="59.6960283" lon="17.9168337">
        <ele>21.2864</ele>
        <time>2013-05-30T19:24:50Z</time>
      </trkpt>
      <trkpt lat="59.6960657" lon="17.9169613">
        <ele>21.767</ele>
        <time>2013-05-30T19:24:51Z</time>
      </trkpt>
      <trkpt lat="59.6961024" lon="17.9170867">
        <ele>21.767</ele>
        <time>2013-05-30T19:24:52Z</time>
      </trkpt>
      <trkpt lat="59.6961385" lon="17.9172151">
        <ele>21.767</ele>
        <time>2013-05-30T19:24:53Z</time>
      </trkpt>
      <trkpt lat="59.6961746" lon="17.9173363">
        <ele>21.767</ele>
        <time>2013-05-30T19:24:54Z</time>
      </trkpt>
      <trkpt lat="59.6962115" lon="17.9174581">
        <ele>21.767</ele>
        <time>2013-05-30T19:24:55Z</time>
      </trkpt>
      <trkpt lat="59.6962485" lon="17.9175822">
        <ele>21.2864</ele>
        <time>2013-05-30T19:24:56Z</time>
      </trkpt>
      <trkpt lat="59.696286" lon="17.9177063">
        <ele>21.2864</ele>
        <time>2013-05-30T19:24:57Z</time>
      </trkpt>
      <trkpt lat="59.6963229" lon="17.917832">
        <ele>20.8057</ele>
        <time>2013-05-30T19:24:58Z</time>
      </trkpt>
      <trkpt lat="59.6963594" lon="17.9179595">
        <ele>20.8057</ele>
        <time>2013-05-30T19:24:59Z</time>
      </trkpt>
      <trkpt lat="59.6963962" lon="17.9180838">
        <ele>20.8057</ele>
        <time>2013-05-30T19:25:00Z</time>
      </trkpt>
      <trkpt lat="59.6964319" lon="17.9182117">
        <ele>20.325</ele>
        <time>2013-05-30T19:25:01Z</time>
      </trkpt>
      <trkpt lat="59.6964694" lon="17.9183333">
        <ele>20.8057</ele>
        <time>2013-05-30T19:25:02Z</time>
      </trkpt>
      <trkpt lat="59.6965071" lon="17.9184662">
        <ele>21.2864</ele>
        <time>2013-05-30T19:25:03Z</time>
      </trkpt>
      <trkpt lat="59.6965445" lon="17.9185869">
        <ele>21.767</ele>
        <time>2013-05-30T19:25:04Z</time>
      </trkpt>
      <trkpt lat="59.6965803" lon="17.918709">
        <ele>21.767</ele>
        <time>2013-05-30T19:25:05Z</time>
      </trkpt>
      <trkpt lat="59.6966158" lon="17.9188363">
        <ele>21.767</ele>
        <time>2013-05-30T19:25:06Z</time>
      </trkpt>
      <trkpt lat="59.69665" lon="17.9189546">
        <ele>21.2864</ele>
        <time>2013-05-30T19:25:07Z</time>
      </trkpt>
      <trkpt lat="59.6966848" lon="17.9190764">
        <ele>20.8057</ele>
        <time>2013-05-30T19:25:08Z</time>
      </trkpt>
      <trkpt lat="59.6967191" lon="17.9192017">
        <ele>20.325</ele>
        <time>2013-05-30T19:25:09Z</time>
      </trkpt>
      <trkpt lat="59.6967525" lon="17.9193274">
        <ele>20.325</ele>
        <time>2013-05-30T19:25:10Z</time>
      </trkpt>
      <trkpt lat="59.6967893" lon="17.9194558">
        <ele>21.2864</ele>
        <time>2013-05-30T19:25:11Z</time>
      </trkpt>
      <trkpt lat="59.6968243" lon="17.9195746">
        <ele>21.2864</ele>
        <time>2013-05-30T19:25:12Z</time>
      </trkpt>
      <trkpt lat="59.6968597" lon="17.9196928">
        <ele>21.767</ele>
        <time>2013-05-30T19:25:13Z</time>
      </trkpt>
      <trkpt lat="59.6968961" lon="17.9198156">
        <ele>22.7283</ele>
        <time>2013-05-30T19:25:14Z</time>
      </trkpt>
      <trkpt lat="59.6969317" lon="17.9199387">
        <ele>23.209</ele>
        <time>2013-05-30T19:25:15Z</time>
      </trkpt>
      <trkpt lat="59.6969671" lon="17.9200666">
        <ele>23.209</ele>
        <time>2013-05-30T19:25:16Z</time>
      </trkpt>
      <trkpt lat="59.6970034" lon="17.9201984">
        <ele>23.6896</ele>
        <time>2013-05-30T19:25:17Z</time>
      </trkpt>
      <trkpt lat="59.6970392" lon="17.9203313">
        <ele>24.1703</ele>
        <time>2013-05-30T19:25:18Z</time>
      </trkpt>
      <trkpt lat="59.6970745" lon="17.9204645">
        <ele>24.651</ele>
        <time>2013-05-30T19:25:19Z</time>
      </trkpt>
      <trkpt lat="59.6971097" lon="17.9205975">
        <ele>25.1317</ele>
        <time>2013-05-30T19:25:20Z</time>
      </trkpt>
      <trkpt lat="59.6971428" lon="17.9207277">
        <ele>25.6123</ele>
        <time>2013-05-30T19:25:21Z</time>
      </trkpt>
      <trkpt lat="59.6971759" lon="17.9208586">
        <ele>26.0929</ele>
        <time>2013-05-30T19:25:22Z</time>
      </trkpt>
      <trkpt lat="59.6972081" lon="17.9209902">
        <ele>26.5736</ele>
        <time>2013-05-30T19:25:23Z</time>
      </trkpt>
      <trkpt lat="59.6972392" lon="17.921124">
        <ele>27.0543</ele>
        <time>2013-05-30T19:25:24Z</time>
      </trkpt>
      <trkpt lat="59.6972683" lon="17.9212602">
        <ele>27.5349</ele>
        <time>2013-05-30T19:25:25Z</time>
      </trkpt>
      <trkpt lat="59.697297" lon="17.9213975">
        <ele>28.4962</ele>
        <time>2013-05-30T19:25:26Z</time>
      </trkpt>
      <trkpt lat="59.6973241" lon="17.9215341">
        <ele>28.9769</ele>
        <time>2013-05-30T19:25:27Z</time>
      </trkpt>
      <trkpt lat="59.6973501" lon="17.9216716">
        <ele>29.4575</ele>
        <time>2013-05-30T19:25:28Z</time>
      </trkpt>
      <trkpt lat="59.6973743" lon="17.9218086">
        <ele>29.4575</ele>
        <time>2013-05-30T19:25:29Z</time>
      </trkpt>
      <trkpt lat="59.6973982" lon="17.9219439">
        <ele>29.4575</ele>
        <time>2013-05-30T19:25:30Z</time>
      </trkpt>
      <trkpt lat="59.697421" lon="17.9220781">
        <ele>29.4575</ele>
        <time>2013-05-30T19:25:31Z</time>
      </trkpt>
      <trkpt lat="59.6974423" lon="17.9222128">
        <ele>29.9381</ele>
        <time>2013-05-30T19:25:32Z</time>
      </trkpt>
      <trkpt lat="59.6974628" lon="17.9223486">
        <ele>29.9381</ele>
        <time>2013-05-30T19:25:33Z</time>
      </trkpt>
      <trkpt lat="59.6974831" lon="17.9224853">
        <ele>30.4188</ele>
        <time>2013-05-30T19:25:34Z</time>
      </trkpt>
      <trkpt lat="59.6975028" lon="17.9226216">
        <ele>30.4188</ele>
        <time>2013-05-30T19:25:35Z</time>
      </trkpt>
      <trkpt lat="59.6975202" lon="17.9227559">
        <ele>30.4188</ele>
        <time>2013-05-30T19:25:36Z</time>
      </trkpt>
      <trkpt lat="59.6975366" lon="17.9228907">
        <ele>30.4188</ele>
        <time>2013-05-30T19:25:37Z</time>
      </trkpt>
      <trkpt lat="59.6975516" lon="17.9230278">
        <ele>30.4188</ele>
        <time>2013-05-30T19:25:38Z</time>
      </trkpt>
      <trkpt lat="59.6975659" lon="17.9231656">
        <ele>30.4188</ele>
        <time>2013-05-30T19:25:39Z</time>
      </trkpt>
      <trkpt lat="59.6975805" lon="17.9233037">
        <ele>30.4188</ele>
        <time>2013-05-30T19:25:40Z</time>
      </trkpt>
      <trkpt lat="59.697594" lon="17.9234395">
        <ele>30.8995</ele>
        <time>2013-05-30T19:25:41Z</time>
      </trkpt>
      <trkpt lat="59.6976053" lon="17.9235761">
        <ele>30.4188</ele>
        <time>2013-05-30T19:25:42Z</time>
      </trkpt>
      <trkpt lat="59.6976173" lon="17.9237166">
        <ele>30.4188</ele>
        <time>2013-05-30T19:25:43Z</time>
      </trkpt>
      <trkpt lat="59.6976261" lon="17.9238503">
        <ele>29.9381</ele>
        <time>2013-05-30T19:25:44Z</time>
      </trkpt>
      <trkpt lat="59.6976342" lon="17.9239834">
        <ele>29.4575</ele>
        <time>2013-05-30T19:25:45Z</time>
      </trkpt>
      <trkpt lat="59.6976421" lon="17.924116">
        <ele>28.9769</ele>
        <time>2013-05-30T19:25:46Z</time>
      </trkpt>
      <trkpt lat="59.6976508" lon="17.9242476">
        <ele>28.4962</ele>
        <time>2013-05-30T19:25:47Z</time>
      </trkpt>
      <trkpt lat="59.6976601" lon="17.9243807">
        <ele>28.0155</ele>
        <time>2013-05-30T19:25:48Z</time>
      </trkpt>
      <trkpt lat="59.6976671" lon="17.9245121">
        <ele>27.0543</ele>
        <time>2013-05-30T19:25:49Z</time>
      </trkpt>
      <trkpt lat="59.6976775" lon="17.924647">
        <ele>27.5349</ele>
        <time>2013-05-30T19:25:50Z</time>
      </trkpt>
      <trkpt lat="59.6976894" lon="17.9247818">
        <ele>28.0155</ele>
        <time>2013-05-30T19:25:51Z</time>
      </trkpt>
      <trkpt lat="59.6977039" lon="17.9249272">
        <ele>28.4962</ele>
        <time>2013-05-30T19:25:52Z</time>
      </trkpt>
      <trkpt lat="59.6977181" lon="17.925074">
        <ele>28.9769</ele>
        <time>2013-05-30T19:25:53Z</time>
      </trkpt>
      <trkpt lat="59.6977295" lon="17.9252119">
        <ele>28.9769</ele>
        <time>2013-05-30T19:25:54Z</time>
      </trkpt>
      <trkpt lat="59.6977424" lon="17.925352">
        <ele>28.4962</ele>
        <time>2013-05-30T19:25:55Z</time>
      </trkpt>
      <trkpt lat="59.6977545" lon="17.9254873">
        <ele>28.0155</ele>
        <time>2013-05-30T19:25:56Z</time>
      </trkpt>
      <trkpt lat="59.6977657" lon="17.9256214">
        <ele>27.0543</ele>
        <time>2013-05-30T19:25:57Z</time>
      </trkpt>
      <trkpt lat="59.6977789" lon="17.925772">
        <ele>27.0543</ele>
        <time>2013-05-30T19:25:58Z</time>
      </trkpt>
      <trkpt lat="59.6977863" lon="17.9258958">
        <ele>26.0929</ele>
        <time>2013-05-30T19:25:59Z</time>
      </trkpt>
      <trkpt lat="59.6977968" lon="17.9260223">
        <ele>25.1317</ele>
        <time>2013-05-30T19:26:00Z</time>
      </trkpt>
      <trkpt lat="59.6978077" lon="17.9261552">
        <ele>24.651</ele>
        <time>2013-05-30T19:26:01Z</time>
      </trkpt>
      <trkpt lat="59.6978168" lon="17.9262922">
        <ele>24.1703</ele>
        <time>2013-05-30T19:26:02Z</time>
      </trkpt>
      <trkpt lat="59.697826" lon="17.9264212">
        <ele>23.6896</ele>
        <time>2013-05-30T19:26:03Z</time>
      </trkpt>
      <trkpt lat="59.6978373" lon="17.9265604">
        <ele>23.6896</ele>
        <time>2013-05-30T19:26:04Z</time>
      </trkpt>
      <trkpt lat="59.6978488" lon="17.9267024">
        <ele>24.1703</ele>
        <time>2013-05-30T19:26:05Z</time>
      </trkpt>
      <trkpt lat="59.6978608" lon="17.9268435">
        <ele>24.651</ele>
        <time>2013-05-30T19:26:06Z</time>
      </trkpt>
      <trkpt lat="59.6978727" lon="17.9269843">
        <ele>24.651</ele>
        <time>2013-05-30T19:26:07Z</time>
      </trkpt>
      <trkpt lat="59.6978849" lon="17.9271248">
        <ele>25.1317</ele>
        <time>2013-05-30T19:26:08Z</time>
      </trkpt>
      <trkpt lat="59.6978969" lon="17.927265">
        <ele>25.1317</ele>
        <time>2013-05-30T19:26:09Z</time>
      </trkpt>
      <trkpt lat="59.6979033" lon="17.9274039">
        <ele>24.651</ele>
        <time>2013-05-30T19:26:10Z</time>
      </trkpt>
      <trkpt lat="59.6979105" lon="17.92754">
        <ele>24.1703</ele>
        <time>2013-05-30T19:26:11Z</time>
      </trkpt>
      <trkpt lat="59.6979194" lon="17.9276736">
        <ele>24.1703</ele>
        <time>2013-05-30T19:26:12Z</time>
      </trkpt>
      <trkpt lat="59.6979333" lon="17.9278146">
        <ele>24.651</ele>
        <time>2013-05-30T19:26:13Z</time>
      </trkpt>
      <trkpt lat="59.6979441" lon="17.9279422">
        <ele>25.1317</ele>
        <time>2013-05-30T19:26:14Z</time>
      </trkpt>
      <trkpt lat="59.6979553" lon="17.9280708">
        <ele>25.1317</ele>
        <time>2013-05-30T19:26:15Z</time>
      </trkpt>
      <trkpt lat="59.6979647" lon="17.9282001">
        <ele>25.1317</ele>
        <time>2013-05-30T19:26:16Z</time>
      </trkpt>
      <trkpt lat="59.6979773" lon="17.9283404">
        <ele>25.6123</ele>
        <time>2013-05-30T19:26:17Z</time>
      </trkpt>
      <trkpt lat="59.6979885" lon="17.9284782">
        <ele>25.6123</ele>
        <time>2013-05-30T19:26:18Z</time>
      </trkpt>
      <trkpt lat="59.697998" lon="17.9286143">
        <ele>25.6123</ele>
        <time>2013-05-30T19:26:19Z</time>
      </trkpt>
      <trkpt lat="59.6980049" lon="17.9287453">
        <ele>25.1317</ele>
        <time>2013-05-30T19:26:20Z</time>
      </trkpt>
      <trkpt lat="59.6980177" lon="17.9288846">
        <ele>25.6123</ele>
        <time>2013-05-30T19:26:21Z</time>
      </trkpt>
      <trkpt lat="59.6980299" lon="17.929025">
        <ele>26.0929</ele>
        <time>2013-05-30T19:26:22Z</time>
      </trkpt>
      <trkpt lat="59.69804" lon="17.9291651">
        <ele>26.0929</ele>
        <time>2013-05-30T19:26:23Z</time>
      </trkpt>
      <trkpt lat="59.6980498" lon="17.929306">
        <ele>26.5736</ele>
        <time>2013-05-30T19:26:24Z</time>
      </trkpt>
      <trkpt lat="59.6980591" lon="17.9294463">
        <ele>26.5736</ele>
        <time>2013-05-30T19:26:25Z</time>
      </trkpt>
      <trkpt lat="59.6980674" lon="17.92959">
        <ele>27.0543</ele>
        <time>2013-05-30T19:26:26Z</time>
      </trkpt>
      <trkpt lat="59.6980743" lon="17.9297312">
        <ele>27.0543</ele>
        <time>2013-05-30T19:26:27Z</time>
      </trkpt>
      <trkpt lat="59.6980807" lon="17.9298685">
        <ele>27.0543</ele>
        <time>2013-05-30T19:26:28Z</time>
      </trkpt>
      <trkpt lat="59.6980867" lon="17.9300042">
        <ele>27.0543</ele>
        <time>2013-05-30T19:26:29Z</time>
      </trkpt>
      <trkpt lat="59.6980922" lon="17.9301373">
        <ele>27.5349</ele>
        <time>2013-05-30T19:26:30Z</time>
      </trkpt>
      <trkpt lat="59.6980975" lon="17.9302715">
        <ele>28.0155</ele>
        <time>2013-05-30T19:26:31Z</time>
      </trkpt>
      <trkpt lat="59.698101" lon="17.9304027">
        <ele>28.4962</ele>
        <time>2013-05-30T19:26:32Z</time>
      </trkpt>
      <trkpt lat="59.6981037" lon="17.930532">
        <ele>28.4962</ele>
        <time>2013-05-30T19:26:33Z</time>
      </trkpt>
      <trkpt lat="59.6981057" lon="17.9306575">
        <ele>28.4962</ele>
        <time>2013-05-30T19:26:34Z</time>
      </trkpt>
      <trkpt lat="59.6981068" lon="17.9307828">
        <ele>28.9769</ele>
        <time>2013-05-30T19:26:35Z</time>
      </trkpt>
      <trkpt lat="59.6981074" lon="17.9309098">
        <ele>29.4575</ele>
        <time>2013-05-30T19:26:36Z</time>
      </trkpt>
      <trkpt lat="59.6981087" lon="17.931047">
        <ele>30.8995</ele>
        <time>2013-05-30T19:26:37Z</time>
      </trkpt>
      <trkpt lat="59.6981087" lon="17.9311808">
        <ele>31.8607</ele>
        <time>2013-05-30T19:26:38Z</time>
      </trkpt>
      <trkpt lat="59.6981035" lon="17.9312951">
        <ele>31.3801</ele>
        <time>2013-05-30T19:26:39Z</time>
      </trkpt>
      <trkpt lat="59.6980913" lon="17.9313932">
        <ele>30.4188</ele>
        <time>2013-05-30T19:26:40Z</time>
      </trkpt>
      <trkpt lat="59.6980799" lon="17.9314935">
        <ele>30.4188</ele>
        <time>2013-05-30T19:26:41Z</time>
      </trkpt>
      <trkpt lat="59.6980712" lon="17.9316003">
        <ele>30.4188</ele>
        <time>2013-05-30T19:26:42Z</time>
      </trkpt>
      <trkpt lat="59.6980606" lon="17.9316956">
        <ele>30.4188</ele>
        <time>2013-05-30T19:26:43Z</time>
      </trkpt>
      <trkpt lat="59.698056" lon="17.9318033">
        <ele>30.8995</ele>
        <time>2013-05-30T19:26:44Z</time>
      </trkpt>
      <trkpt lat="59.6980457" lon="17.9319054">
        <ele>30.4188</ele>
        <time>2013-05-30T19:26:45Z</time>
      </trkpt>
      <trkpt lat="59.6980348" lon="17.9320085">
        <ele>30.8995</ele>
        <time>2013-05-30T19:26:46Z</time>
      </trkpt>
      <trkpt lat="59.698023" lon="17.9321041">
        <ele>30.4188</ele>
        <time>2013-05-30T19:26:47Z</time>
      </trkpt>
      <trkpt lat="59.6980161" lon="17.9322098">
        <ele>31.3801</ele>
        <time>2013-05-30T19:26:48Z</time>
      </trkpt>
      <trkpt lat="59.6980092" lon="17.9323136">
        <ele>31.8607</ele>
        <time>2013-05-30T19:26:49Z</time>
      </trkpt>
      <trkpt lat="59.6980045" lon="17.9324321">
        <ele>32.8223</ele>
        <time>2013-05-30T19:26:50Z</time>
      </trkpt>
      <trkpt lat="59.6979944" lon="17.9325373">
        <ele>33.3029</ele>
        <time>2013-05-30T19:26:51Z</time>
      </trkpt>
      <trkpt lat="59.6979814" lon="17.9326408">
        <ele>33.7834</ele>
        <time>2013-05-30T19:26:52Z</time>
      </trkpt>
      <trkpt lat="59.6979631" lon="17.9327346">
        <ele>33.7834</ele>
        <time>2013-05-30T19:26:53Z</time>
      </trkpt>
      <trkpt lat="59.6979538" lon="17.9328511">
        <ele>35.2255</ele>
        <time>2013-05-30T19:26:54Z</time>
      </trkpt>
      <trkpt lat="59.6979368" lon="17.9329482">
        <ele>35.2255</ele>
        <time>2013-05-30T19:26:55Z</time>
      </trkpt>
      <trkpt lat="59.6979193" lon="17.9330484">
        <ele>35.2255</ele>
        <time>2013-05-30T19:26:56Z</time>
      </trkpt>
      <trkpt lat="59.6979057" lon="17.9331579">
        <ele>35.7061</ele>
        <time>2013-05-30T19:26:57Z</time>
      </trkpt>
      <trkpt lat="59.6978975" lon="17.9332727">
        <ele>36.6675</ele>
        <time>2013-05-30T19:26:58Z</time>
      </trkpt>
      <trkpt lat="59.697882" lon="17.9333754">
        <ele>37.1481</ele>
        <time>2013-05-30T19:26:59Z</time>
      </trkpt>
      <trkpt lat="59.697865" lon="17.9334776">
        <ele>37.1481</ele>
        <time>2013-05-30T19:27:00Z</time>
      </trkpt>
      <trkpt lat="59.6978519" lon="17.933583">
        <ele>37.6287</ele>
        <time>2013-05-30T19:27:01Z</time>
      </trkpt>
      <trkpt lat="59.6978364" lon="17.9336851">
        <ele>38.1094</ele>
        <time>2013-05-30T19:27:02Z</time>
      </trkpt>
      <trkpt lat="59.6978215" lon="17.9337862">
        <ele>38.5901</ele>
        <time>2013-05-30T19:27:03Z</time>
      </trkpt>
      <trkpt lat="59.6978082" lon="17.9338934">
        <ele>39.0707</ele>
        <time>2013-05-30T19:27:04Z</time>
      </trkpt>
      <trkpt lat="59.6977925" lon="17.9339981">
        <ele>39.5513</ele>
        <time>2013-05-30T19:27:05Z</time>
      </trkpt>
      <trkpt lat="59.697779" lon="17.9341022">
        <ele>40.5128</ele>
        <time>2013-05-30T19:27:06Z</time>
      </trkpt>
      <trkpt lat="59.6977624" lon="17.9341982">
        <ele>40.5128</ele>
        <time>2013-05-30T19:27:07Z</time>
      </trkpt>
      <trkpt lat="59.6977411" lon="17.934287">
        <ele>39.5513</ele>
        <time>2013-05-30T19:27:08Z</time>
      </trkpt>
      <trkpt lat="59.6977269" lon="17.9343778">
        <ele>39.0707</ele>
        <time>2013-05-30T19:27:09Z</time>
      </trkpt>
      <trkpt lat="59.6977125" lon="17.9344823">
        <ele>38.5901</ele>
        <time>2013-05-30T19:27:10Z</time>
      </trkpt>
      <trkpt lat="59.6976955" lon="17.9345855">
        <ele>37.6287</ele>
        <time>2013-05-30T19:27:11Z</time>
      </trkpt>
      <trkpt lat="59.6976735" lon="17.9346824">
        <ele>37.6287</ele>
        <time>2013-05-30T19:27:12Z</time>
      </trkpt>
      <trkpt lat="59.6976544" lon="17.9347855">
        <ele>37.1481</ele>
        <time>2013-05-30T19:27:13Z</time>
      </trkpt>
      <trkpt lat="59.697637" lon="17.9348972">
        <ele>37.1481</ele>
        <time>2013-05-30T19:27:14Z</time>
      </trkpt>
      <trkpt lat="59.6976231" lon="17.9350154">
        <ele>37.6287</ele>
        <time>2013-05-30T19:27:15Z</time>
      </trkpt>
      <trkpt lat="59.6976167" lon="17.935146">
        <ele>39.0707</ele>
        <time>2013-05-30T19:27:16Z</time>
      </trkpt>
      <trkpt lat="59.6976043" lon="17.9352671">
        <ele>40.0321</ele>
        <time>2013-05-30T19:27:17Z</time>
      </trkpt>
      <trkpt lat="59.6975888" lon="17.9353854">
        <ele>40.5128</ele>
        <time>2013-05-30T19:27:18Z</time>
      </trkpt>
      <trkpt lat="59.6975717" lon="17.9355009">
        <ele>40.5128</ele>
        <time>2013-05-30T19:27:19Z</time>
      </trkpt>
      <trkpt lat="59.6975536" lon="17.9356183">
        <ele>40.5128</ele>
        <time>2013-05-30T19:27:20Z</time>
      </trkpt>
      <trkpt lat="59.6975339" lon="17.9357345">
        <ele>40.0321</ele>
        <time>2013-05-30T19:27:21Z</time>
      </trkpt>
      <trkpt lat="59.6975131" lon="17.9358541">
        <ele>39.5513</ele>
        <time>2013-05-30T19:27:22Z</time>
      </trkpt>
      <trkpt lat="59.6974955" lon="17.9359919">
        <ele>40.5128</ele>
        <time>2013-05-30T19:27:23Z</time>
      </trkpt>
      <trkpt lat="59.6974755" lon="17.9361251">
        <ele>40.5128</ele>
        <time>2013-05-30T19:27:24Z</time>
      </trkpt>
      <trkpt lat="59.6974586" lon="17.9362582">
        <ele>40.9934</ele>
        <time>2013-05-30T19:27:25Z</time>
      </trkpt>
      <trkpt lat="59.6974426" lon="17.936393">
        <ele>41.474</ele>
        <time>2013-05-30T19:27:26Z</time>
      </trkpt>
      <trkpt lat="59.6974246" lon="17.9365258">
        <ele>41.9547</ele>
        <time>2013-05-30T19:27:27Z</time>
      </trkpt>
      <trkpt lat="59.6974117" lon="17.9366711">
        <ele>42.916</ele>
        <time>2013-05-30T19:27:28Z</time>
      </trkpt>
      <trkpt lat="59.6973975" lon="17.9368093">
        <ele>43.8773</ele>
        <time>2013-05-30T19:27:29Z</time>
      </trkpt>
      <trkpt lat="59.6973816" lon="17.9369423">
        <ele>44.358</ele>
        <time>2013-05-30T19:27:30Z</time>
      </trkpt>
      <trkpt lat="59.6973655" lon="17.937073">
        <ele>45.3192</ele>
        <time>2013-05-30T19:27:31Z</time>
      </trkpt>
      <trkpt lat="59.6973441" lon="17.9371989">
        <ele>44.8386</ele>
        <time>2013-05-30T19:27:32Z</time>
      </trkpt>
      <trkpt lat="59.697321" lon="17.937317">
        <ele>44.8386</ele>
        <time>2013-05-30T19:27:33Z</time>
      </trkpt>
      <trkpt lat="59.6973061" lon="17.9374429">
        <ele>45.7999</ele>
        <time>2013-05-30T19:27:34Z</time>
      </trkpt>
      <trkpt lat="59.697298" lon="17.9375961">
        <ele>48.2034</ele>
        <time>2013-05-30T19:27:35Z</time>
      </trkpt>
      <trkpt lat="59.6972833" lon="17.9377341">
        <ele>49.6453</ele>
        <time>2013-05-30T19:27:36Z</time>
      </trkpt>
      <trkpt lat="59.6972743" lon="17.9378846">
        <ele>52.5292</ele>
        <time>2013-05-30T19:27:37Z</time>
      </trkpt>
      <trkpt lat="59.6972552" lon="17.9380183">
        <ele>53.4905</ele>
        <time>2013-05-30T19:27:38Z</time>
      </trkpt>
      <trkpt lat="59.6972334" lon="17.9381339">
        <ele>53.0098</ele>
        <time>2013-05-30T19:27:39Z</time>
      </trkpt>
      <trkpt lat="59.6971988" lon="17.9382536">
        <ele>50.6066</ele>
        <time>2013-05-30T19:27:40Z</time>
      </trkpt>
      <trkpt lat="59.6971693" lon="17.938373">
        <ele>49.1646</ele>
        <time>2013-05-30T19:27:41Z</time>
      </trkpt>
      <trkpt lat="59.6971361" lon="17.9384777">
        <ele>47.7225</ele>
        <time>2013-05-30T19:27:42Z</time>
      </trkpt>
      <trkpt lat="59.6971055" lon="17.9385821">
        <ele>46.2806</ele>
        <time>2013-05-30T19:27:43Z</time>
      </trkpt>
      <trkpt lat="59.6970738" lon="17.9386662">
        <ele>44.358</ele>
        <time>2013-05-30T19:27:44Z</time>
      </trkpt>
      <trkpt lat="59.6970535" lon="17.9387906">
        <ele>44.358</ele>
        <time>2013-05-30T19:27:45Z</time>
      </trkpt>
      <trkpt lat="59.6970283" lon="17.9388848">
        <ele>42.4354</ele>
        <time>2013-05-30T19:27:46Z</time>
      </trkpt>
      <trkpt lat="59.6970133" lon="17.9390014">
        <ele>41.9547</ele>
        <time>2013-05-30T19:27:47Z</time>
      </trkpt>
      <trkpt lat="59.696994" lon="17.9391057">
        <ele>40.9934</ele>
        <time>2013-05-30T19:27:48Z</time>
      </trkpt>
      <trkpt lat="59.6969713" lon="17.9392176">
        <ele>40.9934</ele>
        <time>2013-05-30T19:27:49Z</time>
      </trkpt>
      <trkpt lat="59.6969462" lon="17.9393279">
        <ele>40.5128</ele>
        <time>2013-05-30T19:27:50Z</time>
      </trkpt>
      <trkpt lat="59.6969313" lon="17.9394591">
        <ele>41.474</ele>
        <time>2013-05-30T19:27:51Z</time>
      </trkpt>
      <trkpt lat="59.696919" lon="17.9395933">
        <ele>42.4354</ele>
        <time>2013-05-30T19:27:52Z</time>
      </trkpt>
      <trkpt lat="59.6969096" lon="17.939717">
        <ele>43.3966</ele>
        <time>2013-05-30T19:27:53Z</time>
      </trkpt>
      <trkpt lat="59.6969082" lon="17.9398356">
        <ele>43.3966</ele>
        <time>2013-05-30T19:27:54Z</time>
      </trkpt>
      <trkpt lat="59.6969088" lon="17.9399702">
        <ele>44.8386</ele>
        <time>2013-05-30T19:27:55Z</time>
      </trkpt>
      <trkpt lat="59.6969008" lon="17.9400946">
        <ele>44.8386</ele>
        <time>2013-05-30T19:27:56Z</time>
      </trkpt>
      <trkpt lat="59.6968889" lon="17.9402101">
        <ele>44.8386</ele>
        <time>2013-05-30T19:27:57Z</time>
      </trkpt>
      <trkpt lat="59.6968875" lon="17.9403213">
        <ele>45.3192</ele>
        <time>2013-05-30T19:27:58Z</time>
      </trkpt>
      <trkpt lat="59.6968854" lon="17.9404238">
        <ele>44.358</ele>
        <time>2013-05-30T19:27:59Z</time>
      </trkpt>
      <trkpt lat="59.6968844" lon="17.9405513">
        <ele>44.8386</ele>
        <time>2013-05-30T19:28:00Z</time>
      </trkpt>
      <trkpt lat="59.6968888" lon="17.9406691">
        <ele>45.3192</ele>
        <time>2013-05-30T19:28:01Z</time>
      </trkpt>
      <trkpt lat="59.6969002" lon="17.940779">
        <ele>46.7612</ele>
        <time>2013-05-30T19:28:02Z</time>
      </trkpt>
      <trkpt lat="59.6969137" lon="17.9408885">
        <ele>47.7225</ele>
        <time>2013-05-30T19:28:03Z</time>
      </trkpt>
      <trkpt lat="59.6969272" lon="17.9410056">
        <ele>49.6453</ele>
        <time>2013-05-30T19:28:04Z</time>
      </trkpt>
      <trkpt lat="59.6969434" lon="17.9411255">
        <ele>50.126</ele>
        <time>2013-05-30T19:28:05Z</time>
      </trkpt>
      <trkpt lat="59.6969584" lon="17.9412674">
        <ele>52.0486</ele>
        <time>2013-05-30T19:28:06Z</time>
      </trkpt>
      <trkpt lat="59.6969665" lon="17.9413772">
        <ele>52.0486</ele>
        <time>2013-05-30T19:28:07Z</time>
      </trkpt>
      <trkpt lat="59.6969742" lon="17.9414834">
        <ele>52.0486</ele>
        <time>2013-05-30T19:28:08Z</time>
      </trkpt>
      <trkpt lat="59.6969821" lon="17.9415869">
        <ele>51.5679</ele>
        <time>2013-05-30T19:28:09Z</time>
      </trkpt>
      <trkpt lat="59.6969901" lon="17.941695">
        <ele>51.0872</ele>
        <time>2013-05-30T19:28:10Z</time>
      </trkpt>
      <trkpt lat="59.6970071" lon="17.9418478">
        <ele>52.5292</ele>
        <time>2013-05-30T19:28:11Z</time>
      </trkpt>
      <trkpt lat="59.6970217" lon="17.9419844">
        <ele>53.4905</ele>
        <time>2013-05-30T19:28:12Z</time>
      </trkpt>
      <trkpt lat="59.6970274" lon="17.942107">
        <ele>52.5292</ele>
        <time>2013-05-30T19:28:13Z</time>
      </trkpt>
      <trkpt lat="59.6970315" lon="17.9422266">
        <ele>52.0486</ele>
        <time>2013-05-30T19:28:14Z</time>
      </trkpt>
      <trkpt lat="59.6970354" lon="17.9423412">
        <ele>52.0486</ele>
        <time>2013-05-30T19:28:15Z</time>
      </trkpt>
      <trkpt lat="59.697044" lon="17.942463">
        <ele>52.5292</ele>
        <time>2013-05-30T19:28:16Z</time>
      </trkpt>
      <trkpt lat="59.6970543" lon="17.942598">
        <ele>52.5292</ele>
        <time>2013-05-30T19:28:17Z</time>
      </trkpt>
      <trkpt lat="59.6970635" lon="17.9427137">
        <ele>52.0486</ele>
        <time>2013-05-30T19:28:18Z</time>
      </trkpt>
      <trkpt lat="59.6970713" lon="17.942812">
        <ele>51.0872</ele>
        <time>2013-05-30T19:28:19Z</time>
      </trkpt>
      <trkpt lat="59.69708" lon="17.9429115">
        <ele>50.126</ele>
        <time>2013-05-30T19:28:20Z</time>
      </trkpt>
      <trkpt lat="59.6970846" lon="17.943028">
        <ele>50.126</ele>
        <time>2013-05-30T19:28:21Z</time>
      </trkpt>
      <trkpt lat="59.6970811" lon="17.9431358">
        <ele>49.6453</ele>
        <time>2013-05-30T19:28:22Z</time>
      </trkpt>
      <trkpt lat="59.6970841" lon="17.9432482">
        <ele>49.1646</ele>
        <time>2013-05-30T19:28:23Z</time>
      </trkpt>
      <trkpt lat="59.6970921" lon="17.9433602">
        <ele>48.684</ele>
        <time>2013-05-30T19:28:24Z</time>
      </trkpt>
      <trkpt lat="59.6971023" lon="17.9434751">
        <ele>48.2034</ele>
        <time>2013-05-30T19:28:25Z</time>
      </trkpt>
      <trkpt lat="59.6971091" lon="17.9435895">
        <ele>48.2034</ele>
        <time>2013-05-30T19:28:26Z</time>
      </trkpt>
      <trkpt lat="59.6971153" lon="17.943709">
        <ele>47.2418</ele>
        <time>2013-05-30T19:28:27Z</time>
      </trkpt>
      <trkpt lat="59.6971239" lon="17.9438251">
        <ele>45.7999</ele>
        <time>2013-05-30T19:28:28Z</time>
      </trkpt>
      <trkpt lat="59.6971345" lon="17.9439466">
        <ele>44.8386</ele>
        <time>2013-05-30T19:28:29Z</time>
      </trkpt>
      <trkpt lat="59.6971454" lon="17.9440709">
        <ele>44.8386</ele>
        <time>2013-05-30T19:28:30Z</time>
      </trkpt>
      <trkpt lat="59.6971581" lon="17.9441942">
        <ele>44.8386</ele>
        <time>2013-05-30T19:28:31Z</time>
      </trkpt>
      <trkpt lat="59.6971703" lon="17.9443221">
        <ele>44.8386</ele>
        <time>2013-05-30T19:28:32Z</time>
      </trkpt>
      <trkpt lat="59.6971823" lon="17.9444505">
        <ele>44.8386</ele>
        <time>2013-05-30T19:28:33Z</time>
      </trkpt>
      <trkpt lat="59.6971924" lon="17.9445822">
        <ele>44.358</ele>
        <time>2013-05-30T19:28:34Z</time>
      </trkpt>
      <trkpt lat="59.6972018" lon="17.9447214">
        <ele>44.8386</ele>
        <time>2013-05-30T19:28:35Z</time>
      </trkpt>
      <trkpt lat="59.6972116" lon="17.9448572">
        <ele>45.3192</ele>
        <time>2013-05-30T19:28:36Z</time>
      </trkpt>
      <trkpt lat="59.6972223" lon="17.9449878">
        <ele>45.3192</ele>
        <time>2013-05-30T19:28:37Z</time>
      </trkpt>
      <trkpt lat="59.6972323" lon="17.9451189">
        <ele>45.7999</ele>
        <time>2013-05-30T19:28:38Z</time>
      </trkpt>
      <trkpt lat="59.6972448" lon="17.9452602">
        <ele>46.7612</ele>
        <time>2013-05-30T19:28:39Z</time>
      </trkpt>
      <trkpt lat="59.6972593" lon="17.9453974">
        <ele>46.7612</ele>
        <time>2013-05-30T19:28:40Z</time>
      </trkpt>
      <trkpt lat="59.6972671" lon="17.9455332">
        <ele>46.7612</ele>
        <time>2013-05-30T19:28:41Z</time>
      </trkpt>
      <trkpt lat="59.6972806" lon="17.9456765">
        <ele>47.2418</ele>
        <time>2013-05-30T19:28:42Z</time>
      </trkpt>
      <trkpt lat="59.6972946" lon="17.9458238">
        <ele>47.2418</ele>
        <time>2013-05-30T19:28:43Z</time>
      </trkpt>
      <trkpt lat="59.6973044" lon="17.9459693">
        <ele>47.2418</ele>
        <time>2013-05-30T19:28:44Z</time>
      </trkpt>
      <trkpt lat="59.6973143" lon="17.9461227">
        <ele>47.7225</ele>
        <time>2013-05-30T19:28:45Z</time>
      </trkpt>
      <trkpt lat="59.6973182" lon="17.9462618">
        <ele>46.7612</ele>
        <time>2013-05-30T19:28:46Z</time>
      </trkpt>
      <trkpt lat="59.6973262" lon="17.9463981">
        <ele>46.7612</ele>
        <time>2013-05-30T19:28:47Z</time>
      </trkpt>
      <trkpt lat="59.6973358" lon="17.9465318">
        <ele>46.2806</ele>
        <time>2013-05-30T19:28:48Z</time>
      </trkpt>
      <trkpt lat="59.6973463" lon="17.9466645">
        <ele>45.7999</ele>
        <time>2013-05-30T19:28:49Z</time>
      </trkpt>
      <trkpt lat="59.6973573" lon="17.9467981">
        <ele>45.7999</ele>
        <time>2013-05-30T19:28:50Z</time>
      </trkpt>
      <trkpt lat="59.6973632" lon="17.9469142">
        <ele>44.358</ele>
        <time>2013-05-30T19:28:51Z</time>
      </trkpt>
      <trkpt lat="59.6973733" lon="17.9470507">
        <ele>43.8773</ele>
        <time>2013-05-30T19:28:52Z</time>
      </trkpt>
      <trkpt lat="59.6973853" lon="17.947189">
        <ele>43.8773</ele>
        <time>2013-05-30T19:28:53Z</time>
      </trkpt>
      <trkpt lat="59.6973956" lon="17.9473219">
        <ele>43.3966</ele>
        <time>2013-05-30T19:28:54Z</time>
      </trkpt>
      <trkpt lat="59.6974044" lon="17.9474457">
        <ele>42.916</ele>
        <time>2013-05-30T19:28:55Z</time>
      </trkpt>
      <trkpt lat="59.697418" lon="17.947581">
        <ele>42.916</ele>
        <time>2013-05-30T19:28:56Z</time>
      </trkpt>
      <trkpt lat="59.6974288" lon="17.9477197">
        <ele>42.4354</ele>
        <time>2013-05-30T19:28:57Z</time>
      </trkpt>
      <trkpt lat="59.6974401" lon="17.9478496">
        <ele>41.9547</ele>
        <time>2013-05-30T19:28:58Z</time>
      </trkpt>
      <trkpt lat="59.697449" lon="17.947985">
        <ele>41.9547</ele>
        <time>2013-05-30T19:28:59Z</time>
      </trkpt>
      <trkpt lat="59.6974572" lon="17.9481564">
        <ele>43.8773</ele>
        <time>2013-05-30T19:29:00Z</time>
      </trkpt>
      <trkpt lat="59.6974733" lon="17.9483494">
        <ele>47.2418</ele>
        <time>2013-05-30T19:29:01Z</time>
      </trkpt>
      <trkpt lat="59.697479" lon="17.9484973">
        <ele>48.2034</ele>
        <time>2013-05-30T19:29:02Z</time>
      </trkpt>
      <trkpt lat="59.6974919" lon="17.948684">
        <ele>51.0872</ele>
        <time>2013-05-30T19:29:03Z</time>
      </trkpt>
      <trkpt lat="59.6974961" lon="17.9488213">
        <ele>51.0872</ele>
        <time>2013-05-30T19:29:04Z</time>
      </trkpt>
      <trkpt lat="59.6975064" lon="17.9489526">
        <ele>51.0872</ele>
        <time>2013-05-30T19:29:05Z</time>
      </trkpt>
      <trkpt lat="59.6975159" lon="17.9490887">
        <ele>51.0872</ele>
        <time>2013-05-30T19:29:06Z</time>
      </trkpt>
      <trkpt lat="59.6975223" lon="17.9492275">
        <ele>49.6453</ele>
        <time>2013-05-30T19:29:07Z</time>
      </trkpt>
      <trkpt lat="59.6975329" lon="17.9493662">
        <ele>49.6453</ele>
        <time>2013-05-30T19:29:08Z</time>
      </trkpt>
      <trkpt lat="59.6975475" lon="17.9495115">
        <ele>50.6066</ele>
        <time>2013-05-30T19:29:09Z</time>
      </trkpt>
      <trkpt lat="59.6975612" lon="17.9496534">
        <ele>49.6453</ele>
        <time>2013-05-30T19:29:10Z</time>
      </trkpt>
      <trkpt lat="59.6975701" lon="17.9498005">
        <ele>49.1646</ele>
        <time>2013-05-30T19:29:11Z</time>
      </trkpt>
      <trkpt lat="59.6975811" lon="17.9499588">
        <ele>48.684</ele>
        <time>2013-05-30T19:29:12Z</time>
      </trkpt>
      <trkpt lat="59.6975877" lon="17.9501113">
        <ele>47.2418</ele>
        <time>2013-05-30T19:29:13Z</time>
      </trkpt>
      <trkpt lat="59.6975891" lon="17.950273">
        <ele>45.7999</ele>
        <time>2013-05-30T19:29:14Z</time>
      </trkpt>
      <trkpt lat="59.6975972" lon="17.9504544">
        <ele>46.2806</ele>
        <time>2013-05-30T19:29:15Z</time>
      </trkpt>
      <trkpt lat="59.6976142" lon="17.9506445">
        <ele>47.2418</ele>
        <time>2013-05-30T19:29:16Z</time>
      </trkpt>
      <trkpt lat="59.6976332" lon="17.9508205">
        <ele>46.7612</ele>
        <time>2013-05-30T19:29:17Z</time>
      </trkpt>
      <trkpt lat="59.6976554" lon="17.9509991">
        <ele>46.2806</ele>
        <time>2013-05-30T19:29:18Z</time>
      </trkpt>
      <trkpt lat="59.6976784" lon="17.951176">
        <ele>45.3192</ele>
        <time>2013-05-30T19:29:19Z</time>
      </trkpt>
      <trkpt lat="59.6977028" lon="17.9513618">
        <ele>44.8386</ele>
        <time>2013-05-30T19:29:20Z</time>
      </trkpt>
      <trkpt lat="59.6977291" lon="17.951566">
        <ele>44.8386</ele>
        <time>2013-05-30T19:29:21Z</time>
      </trkpt>
      <trkpt lat="59.697754" lon="17.951769">
        <ele>44.358</ele>
        <time>2013-05-30T19:29:22Z</time>
      </trkpt>
      <trkpt lat="59.6977815" lon="17.9519729">
        <ele>44.8386</ele>
        <time>2013-05-30T19:29:23Z</time>
      </trkpt>
      <trkpt lat="59.6978089" lon="17.9521762">
        <ele>44.8386</ele>
        <time>2013-05-30T19:29:24Z</time>
      </trkpt>
      <trkpt lat="59.6978329" lon="17.952363">
        <ele>43.8773</ele>
        <time>2013-05-30T19:29:25Z</time>
      </trkpt>
      <trkpt lat="59.6978576" lon="17.9525527">
        <ele>42.916</ele>
        <time>2013-05-30T19:29:26Z</time>
      </trkpt>
      <trkpt lat="59.697884" lon="17.9527484">
        <ele>42.4354</ele>
        <time>2013-05-30T19:29:27Z</time>
      </trkpt>
      <trkpt lat="59.6979123" lon="17.9529422">
        <ele>41.474</ele>
        <time>2013-05-30T19:29:28Z</time>
      </trkpt>
      <trkpt lat="59.6979421" lon="17.9531552">
        <ele>42.4354</ele>
        <time>2013-05-30T19:29:29Z</time>
      </trkpt>
      <trkpt lat="59.6979654" lon="17.9533489">
        <ele>40.9934</ele>
        <time>2013-05-30T19:29:30Z</time>
      </trkpt>
      <trkpt lat="59.6979924" lon="17.9535333">
        <ele>39.5513</ele>
        <time>2013-05-30T19:29:31Z</time>
      </trkpt>
      <trkpt lat="59.6980181" lon="17.9537352">
        <ele>40.0321</ele>
        <time>2013-05-30T19:29:32Z</time>
      </trkpt>
      <trkpt lat="59.6980393" lon="17.9539264">
        <ele>39.5513</ele>
        <time>2013-05-30T19:29:33Z</time>
      </trkpt>
      <trkpt lat="59.6980629" lon="17.9541295">
        <ele>39.5513</ele>
        <time>2013-05-30T19:29:34Z</time>
      </trkpt>
      <trkpt lat="59.6980866" lon="17.9543205">
        <ele>39.0707</ele>
        <time>2013-05-30T19:29:35Z</time>
      </trkpt>
      <trkpt lat="59.6981083" lon="17.954501">
        <ele>39.5513</ele>
        <time>2013-05-30T19:29:36Z</time>
      </trkpt>
      <trkpt lat="59.6981219" lon="17.9546803">
        <ele>39.0707</ele>
        <time>2013-05-30T19:29:37Z</time>
      </trkpt>
      <trkpt lat="59.6981344" lon="17.9548619">
        <ele>38.5901</ele>
        <time>2013-05-30T19:29:38Z</time>
      </trkpt>
      <trkpt lat="59.6981528" lon="17.9550438">
        <ele>38.5901</ele>
        <time>2013-05-30T19:29:39Z</time>
      </trkpt>
      <trkpt lat="59.6981726" lon="17.9552232">
        <ele>38.1094</ele>
        <time>2013-05-30T19:29:40Z</time>
      </trkpt>
      <trkpt lat="59.6981881" lon="17.9553824">
        <ele>36.6675</ele>
        <time>2013-05-30T19:29:41Z</time>
      </trkpt>
      <trkpt lat="59.6982104" lon="17.9555692">
        <ele>36.1868</ele>
        <time>2013-05-30T19:29:42Z</time>
      </trkpt>
      <trkpt lat="59.6982342" lon="17.9557535">
        <ele>37.6287</ele>
        <time>2013-05-30T19:29:43Z</time>
      </trkpt>
      <trkpt lat="59.6982555" lon="17.9559414">
        <ele>38.5901</ele>
        <time>2013-05-30T19:29:44Z</time>
      </trkpt>
      <trkpt lat="59.6982777" lon="17.9561173">
        <ele>38.1094</ele>
        <time>2013-05-30T19:29:45Z</time>
      </trkpt>
      <trkpt lat="59.6982972" lon="17.9562858">
        <ele>37.1481</ele>
        <time>2013-05-30T19:29:46Z</time>
      </trkpt>
      <trkpt lat="59.6983138" lon="17.9564487">
        <ele>36.1868</ele>
        <time>2013-05-30T19:29:47Z</time>
      </trkpt>
      <trkpt lat="59.6983378" lon="17.9566217">
        <ele>35.7061</ele>
        <time>2013-05-30T19:29:48Z</time>
      </trkpt>
      <trkpt lat="59.6983587" lon="17.956788">
        <ele>33.7834</ele>
        <time>2013-05-30T19:29:49Z</time>
      </trkpt>
      <trkpt lat="59.6983814" lon="17.9569537">
        <ele>32.3416</ele>
        <time>2013-05-30T19:29:50Z</time>
      </trkpt>
      <trkpt lat="59.698405" lon="17.9571231">
        <ele>31.8607</ele>
        <time>2013-05-30T19:29:51Z</time>
      </trkpt>
      <trkpt lat="59.6984272" lon="17.9572925">
        <ele>31.8607</ele>
        <time>2013-05-30T19:29:52Z</time>
      </trkpt>
      <trkpt lat="59.6984483" lon="17.9574655">
        <ele>31.3801</ele>
        <time>2013-05-30T19:29:53Z</time>
      </trkpt>
      <trkpt lat="59.6984694" lon="17.9576467">
        <ele>31.8607</ele>
        <time>2013-05-30T19:29:54Z</time>
      </trkpt>
      <trkpt lat="59.6984926" lon="17.9578276">
        <ele>31.8607</ele>
        <time>2013-05-30T19:29:55Z</time>
      </trkpt>
      <trkpt lat="59.6985156" lon="17.9580093">
        <ele>32.3416</ele>
        <time>2013-05-30T19:29:56Z</time>
      </trkpt>
      <trkpt lat="59.6985383" lon="17.9581902">
        <ele>32.3416</ele>
        <time>2013-05-30T19:29:57Z</time>
      </trkpt>
      <trkpt lat="59.6985607" lon="17.9583695">
        <ele>32.8223</ele>
        <time>2013-05-30T19:29:58Z</time>
      </trkpt>
      <trkpt lat="59.6985835" lon="17.9585502">
        <ele>33.3029</ele>
        <time>2013-05-30T19:29:59Z</time>
      </trkpt>
      <trkpt lat="59.6986041" lon="17.9587279">
        <ele>33.7834</ele>
        <time>2013-05-30T19:30:00Z</time>
      </trkpt>
      <trkpt lat="59.6986258" lon="17.9589029">
        <ele>33.7834</ele>
        <time>2013-05-30T19:30:01Z</time>
      </trkpt>
      <trkpt lat="59.6986729" lon="17.9592485">
        <ele>34.7449</ele>
        <time>2013-05-30T19:30:02Z</time>
      </trkpt>
      <trkpt lat="59.6986954" lon="17.9594225">
        <ele>35.7061</ele>
        <time>2013-05-30T19:30:03Z</time>
      </trkpt>
      <trkpt lat="59.6987166" lon="17.9596016">
        <ele>35.7061</ele>
        <time>2013-05-30T19:30:04Z</time>
      </trkpt>
      <trkpt lat="59.6987392" lon="17.9597827">
        <ele>36.1868</ele>
        <time>2013-05-30T19:30:05Z</time>
      </trkpt>
      <trkpt lat="59.698761" lon="17.959972">
        <ele>36.6675</ele>
        <time>2013-05-30T19:30:06Z</time>
      </trkpt>
      <trkpt lat="59.6987798" lon="17.9601467">
        <ele>35.7061</ele>
        <time>2013-05-30T19:30:07Z</time>
      </trkpt>
      <trkpt lat="59.6988015" lon="17.96034">
        <ele>35.7061</ele>
        <time>2013-05-30T19:30:08Z</time>
      </trkpt>
      <trkpt lat="59.6988217" lon="17.9605281">
        <ele>35.2255</ele>
        <time>2013-05-30T19:30:09Z</time>
      </trkpt>
      <trkpt lat="59.6988422" lon="17.9607167">
        <ele>35.2255</ele>
        <time>2013-05-30T19:30:10Z</time>
      </trkpt>
      <trkpt lat="59.6988639" lon="17.9609073">
        <ele>35.2255</ele>
        <time>2013-05-30T19:30:11Z</time>
      </trkpt>
      <trkpt lat="59.6988853" lon="17.9610953">
        <ele>34.7449</ele>
        <time>2013-05-30T19:30:12Z</time>
      </trkpt>
      <trkpt lat="59.6989061" lon="17.9612805">
        <ele>34.7449</ele>
        <time>2013-05-30T19:30:13Z</time>
      </trkpt>
      <trkpt lat="59.6989273" lon="17.9614634">
        <ele>34.7449</ele>
        <time>2013-05-30T19:30:14Z</time>
      </trkpt>
      <trkpt lat="59.698949" lon="17.9616432">
        <ele>34.7449</ele>
        <time>2013-05-30T19:30:15Z</time>
      </trkpt>
      <trkpt lat="59.6989715" lon="17.961822">
        <ele>34.7449</ele>
        <time>2013-05-30T19:30:16Z</time>
      </trkpt>
      <trkpt lat="59.6989947" lon="17.9619984">
        <ele>34.7449</ele>
        <time>2013-05-30T19:30:17Z</time>
      </trkpt>
      <trkpt lat="59.6990186" lon="17.9621767">
        <ele>34.7449</ele>
        <time>2013-05-30T19:30:18Z</time>
      </trkpt>
      <trkpt lat="59.6990423" lon="17.9623512">
        <ele>34.7449</ele>
        <time>2013-05-30T19:30:19Z</time>
      </trkpt>
      <trkpt lat="59.699067" lon="17.9625228">
        <ele>34.2642</ele>
        <time>2013-05-30T19:30:20Z</time>
      </trkpt>
      <trkpt lat="59.6990919" lon="17.9626939">
        <ele>34.2642</ele>
        <time>2013-05-30T19:30:21Z</time>
      </trkpt>
      <trkpt lat="59.6991164" lon="17.9628623">
        <ele>34.2642</ele>
        <time>2013-05-30T19:30:22Z</time>
      </trkpt>
      <trkpt lat="59.6991391" lon="17.9630246">
        <ele>34.2642</ele>
        <time>2013-05-30T19:30:23Z</time>
      </trkpt>
      <trkpt lat="59.6991607" lon="17.9631847">
        <ele>34.2642</ele>
        <time>2013-05-30T19:30:24Z</time>
      </trkpt>
      <trkpt lat="59.6991807" lon="17.9633359">
        <ele>34.2642</ele>
        <time>2013-05-30T19:30:25Z</time>
      </trkpt>
      <trkpt lat="59.6992008" lon="17.9634813">
        <ele>34.2642</ele>
        <time>2013-05-30T19:30:26Z</time>
      </trkpt>
      <trkpt lat="59.6992224" lon="17.9636263">
        <ele>34.7449</ele>
        <time>2013-05-30T19:30:27Z</time>
      </trkpt>
      <trkpt lat="59.6992427" lon="17.9637626">
        <ele>35.2255</ele>
        <time>2013-05-30T19:30:28Z</time>
      </trkpt>
      <trkpt lat="59.6992608" lon="17.9638959">
        <ele>35.2255</ele>
        <time>2013-05-30T19:30:29Z</time>
      </trkpt>
      <trkpt lat="59.6992792" lon="17.9640266">
        <ele>35.7061</ele>
        <time>2013-05-30T19:30:30Z</time>
      </trkpt>
      <trkpt lat="59.6992973" lon="17.9641514">
        <ele>35.7061</ele>
        <time>2013-05-30T19:30:31Z</time>
      </trkpt>
      <trkpt lat="59.6993154" lon="17.9642748">
        <ele>36.6675</ele>
        <time>2013-05-30T19:30:32Z</time>
      </trkpt>
      <trkpt lat="59.6993336" lon="17.9643973">
        <ele>36.6675</ele>
        <time>2013-05-30T19:30:33Z</time>
      </trkpt>
      <trkpt lat="59.6993516" lon="17.9645163">
        <ele>37.1481</ele>
        <time>2013-05-30T19:30:34Z</time>
      </trkpt>
      <trkpt lat="59.699369" lon="17.9646336">
        <ele>37.6287</ele>
        <time>2013-05-30T19:30:35Z</time>
      </trkpt>
      <trkpt lat="59.6993859" lon="17.9647494">
        <ele>37.6287</ele>
        <time>2013-05-30T19:30:36Z</time>
      </trkpt>
      <trkpt lat="59.6994037" lon="17.9648652">
        <ele>38.1094</ele>
        <time>2013-05-30T19:30:37Z</time>
      </trkpt>
      <trkpt lat="59.6994218" lon="17.9649806">
        <ele>38.5901</ele>
        <time>2013-05-30T19:30:38Z</time>
      </trkpt>
      <trkpt lat="59.6994385" lon="17.9650974">
        <ele>39.0707</ele>
        <time>2013-05-30T19:30:39Z</time>
      </trkpt>
      <trkpt lat="59.6994583" lon="17.9652156">
        <ele>39.5513</ele>
        <time>2013-05-30T19:30:40Z</time>
      </trkpt>
      <trkpt lat="59.6994749" lon="17.9653337">
        <ele>40.0321</ele>
        <time>2013-05-30T19:30:41Z</time>
      </trkpt>
      <trkpt lat="59.6994944" lon="17.9654525">
        <ele>40.9934</ele>
        <time>2013-05-30T19:30:42Z</time>
      </trkpt>
      <trkpt lat="59.6995148" lon="17.9655713">
        <ele>41.474</ele>
        <time>2013-05-30T19:30:43Z</time>
      </trkpt>
      <trkpt lat="59.6995327" lon="17.9656908">
        <ele>41.474</ele>
        <time>2013-05-30T19:30:44Z</time>
      </trkpt>
      <trkpt lat="59.6995525" lon="17.9658162">
        <ele>42.4354</ele>
        <time>2013-05-30T19:30:45Z</time>
      </trkpt>
      <trkpt lat="59.6995698" lon="17.9659386">
        <ele>42.916</ele>
        <time>2013-05-30T19:30:46Z</time>
      </trkpt>
      <trkpt lat="59.6995865" lon="17.9660539">
        <ele>43.3966</ele>
        <time>2013-05-30T19:30:47Z</time>
      </trkpt>
      <trkpt lat="59.6996057" lon="17.9661682">
        <ele>43.3966</ele>
        <time>2013-05-30T19:30:48Z</time>
      </trkpt>
      <trkpt lat="59.6996244" lon="17.9662841">
        <ele>43.3966</ele>
        <time>2013-05-30T19:30:49Z</time>
      </trkpt>
      <trkpt lat="59.6996407" lon="17.9664051">
        <ele>43.8773</ele>
        <time>2013-05-30T19:30:50Z</time>
      </trkpt>
      <trkpt lat="59.6996573" lon="17.9665286">
        <ele>43.3966</ele>
        <time>2013-05-30T19:30:51Z</time>
      </trkpt>
      <trkpt lat="59.6996746" lon="17.9666515">
        <ele>43.3966</ele>
        <time>2013-05-30T19:30:52Z</time>
      </trkpt>
      <trkpt lat="59.699691" lon="17.9667757">
        <ele>43.3966</ele>
        <time>2013-05-30T19:30:53Z</time>
      </trkpt>
      <trkpt lat="59.6997089" lon="17.9668991">
        <ele>43.3966</ele>
        <time>2013-05-30T19:30:54Z</time>
      </trkpt>
      <trkpt lat="59.6997275" lon="17.9670238">
        <ele>43.3966</ele>
        <time>2013-05-30T19:30:55Z</time>
      </trkpt>
      <trkpt lat="59.6997458" lon="17.9671523">
        <ele>42.916</ele>
        <time>2013-05-30T19:30:56Z</time>
      </trkpt>
      <trkpt lat="59.6997651" lon="17.9672735">
        <ele>42.916</ele>
        <time>2013-05-30T19:30:57Z</time>
      </trkpt>
      <trkpt lat="59.6997814" lon="17.9673984">
        <ele>42.916</ele>
        <time>2013-05-30T19:30:58Z</time>
      </trkpt>
      <trkpt lat="59.6998002" lon="17.9675237">
        <ele>42.916</ele>
        <time>2013-05-30T19:30:59Z</time>
      </trkpt>
      <trkpt lat="59.6998162" lon="17.9676261">
        <ele>42.4354</ele>
        <time>2013-05-30T19:31:00Z</time>
      </trkpt>
      <trkpt lat="59.6998291" lon="17.9677391">
        <ele>41.474</ele>
        <time>2013-05-30T19:31:01Z</time>
      </trkpt>
      <trkpt lat="59.6998478" lon="17.9678787">
        <ele>40.5128</ele>
        <time>2013-05-30T19:31:02Z</time>
      </trkpt>
      <trkpt lat="59.6998687" lon="17.9680208">
        <ele>40.0321</ele>
        <time>2013-05-30T19:31:03Z</time>
      </trkpt>
      <trkpt lat="59.6998912" lon="17.9681676">
        <ele>39.5513</ele>
        <time>2013-05-30T19:31:04Z</time>
      </trkpt>
      <trkpt lat="59.6999124" lon="17.9683043">
        <ele>38.5901</ele>
        <time>2013-05-30T19:31:05Z</time>
      </trkpt>
      <trkpt lat="59.6999327" lon="17.9684427">
        <ele>37.6287</ele>
        <time>2013-05-30T19:31:06Z</time>
      </trkpt>
      <trkpt lat="59.6999523" lon="17.9685784">
        <ele>36.6675</ele>
        <time>2013-05-30T19:31:07Z</time>
      </trkpt>
      <trkpt lat="59.6999735" lon="17.968721">
        <ele>36.1868</ele>
        <time>2013-05-30T19:31:08Z</time>
      </trkpt>
      <trkpt lat="59.6999942" lon="17.9688761">
        <ele>35.7061</ele>
        <time>2013-05-30T19:31:09Z</time>
      </trkpt>
      <trkpt lat="59.7000161" lon="17.9690306">
        <ele>34.7449</ele>
        <time>2013-05-30T19:31:10Z</time>
      </trkpt>
      <trkpt lat="59.7000373" lon="17.9691755">
        <ele>33.3029</ele>
        <time>2013-05-30T19:31:11Z</time>
      </trkpt>
      <trkpt lat="59.7000607" lon="17.9693274">
        <ele>33.3029</ele>
        <time>2013-05-30T19:31:12Z</time>
      </trkpt>
      <trkpt lat="59.7000839" lon="17.9694839">
        <ele>32.8223</ele>
        <time>2013-05-30T19:31:13Z</time>
      </trkpt>
      <trkpt lat="59.7001077" lon="17.9696444">
        <ele>32.8223</ele>
        <time>2013-05-30T19:31:14Z</time>
      </trkpt>
      <trkpt lat="59.7001321" lon="17.969809">
        <ele>32.8223</ele>
        <time>2013-05-30T19:31:15Z</time>
      </trkpt>
      <trkpt lat="59.7001586" lon="17.9699779">
        <ele>32.3416</ele>
        <time>2013-05-30T19:31:16Z</time>
      </trkpt>
      <trkpt lat="59.7001857" lon="17.970149">
        <ele>31.8607</ele>
        <time>2013-05-30T19:31:17Z</time>
      </trkpt>
      <trkpt lat="59.7002178" lon="17.9703262">
        <ele>31.8607</ele>
        <time>2013-05-30T19:31:18Z</time>
      </trkpt>
      <trkpt lat="59.7002517" lon="17.9705029">
        <ele>30.8995</ele>
        <time>2013-05-30T19:31:19Z</time>
      </trkpt>
      <trkpt lat="59.7002875" lon="17.9706861">
        <ele>30.8995</ele>
        <time>2013-05-30T19:31:20Z</time>
      </trkpt>
      <trkpt lat="59.7003275" lon="17.970868">
        <ele>30.8995</ele>
        <time>2013-05-30T19:31:21Z</time>
      </trkpt>
      <trkpt lat="59.7003647" lon="17.971053">
        <ele>29.4575</ele>
        <time>2013-05-30T19:31:22Z</time>
      </trkpt>
      <trkpt lat="59.7004119" lon="17.9712513">
        <ele>29.4575</ele>
        <time>2013-05-30T19:31:23Z</time>
      </trkpt>
      <trkpt lat="59.7004575" lon="17.9714412">
        <ele>28.9769</ele>
        <time>2013-05-30T19:31:24Z</time>
      </trkpt>
      <trkpt lat="59.7005039" lon="17.9716336">
        <ele>28.9769</ele>
        <time>2013-05-30T19:31:25Z</time>
      </trkpt>
      <trkpt lat="59.7005523" lon="17.9718308">
        <ele>28.9769</ele>
        <time>2013-05-30T19:31:26Z</time>
      </trkpt>
      <trkpt lat="59.7006068" lon="17.9720312">
        <ele>28.9769</ele>
        <time>2013-05-30T19:31:27Z</time>
      </trkpt>
      <trkpt lat="59.7006612" lon="17.9722147">
        <ele>28.0155</ele>
        <time>2013-05-30T19:31:28Z</time>
      </trkpt>
      <trkpt lat="59.7007195" lon="17.9724066">
        <ele>27.5349</ele>
        <time>2013-05-30T19:31:29Z</time>
      </trkpt>
      <trkpt lat="59.700779" lon="17.9725995">
        <ele>27.0543</ele>
        <time>2013-05-30T19:31:30Z</time>
      </trkpt>
      <trkpt lat="59.7008409" lon="17.9727868">
        <ele>27.0543</ele>
        <time>2013-05-30T19:31:31Z</time>
      </trkpt>
      <trkpt lat="59.7009042" lon="17.9729658">
        <ele>26.5736</ele>
        <time>2013-05-30T19:31:32Z</time>
      </trkpt>
      <trkpt lat="59.7009671" lon="17.9731413">
        <ele>26.0929</ele>
        <time>2013-05-30T19:31:33Z</time>
      </trkpt>
      <trkpt lat="59.7010304" lon="17.9733159">
        <ele>25.6123</ele>
        <time>2013-05-30T19:31:34Z</time>
      </trkpt>
      <trkpt lat="59.7010935" lon="17.9734896">
        <ele>25.6123</ele>
        <time>2013-05-30T19:31:35Z</time>
      </trkpt>
      <trkpt lat="59.7011558" lon="17.973661">
        <ele>25.1317</ele>
        <time>2013-05-30T19:31:36Z</time>
      </trkpt>
      <trkpt lat="59.7012169" lon="17.97383">
        <ele>25.1317</ele>
        <time>2013-05-30T19:31:37Z</time>
      </trkpt>
      <trkpt lat="59.7012775" lon="17.9739995">
        <ele>24.651</ele>
        <time>2013-05-30T19:31:38Z</time>
      </trkpt>
      <trkpt lat="59.701339" lon="17.9741668">
        <ele>24.651</ele>
        <time>2013-05-30T19:31:39Z</time>
      </trkpt>
      <trkpt lat="59.7013993" lon="17.97433">
        <ele>24.1703</ele>
        <time>2013-05-30T19:31:40Z</time>
      </trkpt>
      <trkpt lat="59.7014581" lon="17.9744915">
        <ele>24.1703</ele>
        <time>2013-05-30T19:31:41Z</time>
      </trkpt>
      <trkpt lat="59.7015161" lon="17.9746526">
        <ele>23.209</ele>
        <time>2013-05-30T19:31:42Z</time>
      </trkpt>
      <trkpt lat="59.7015747" lon="17.9748135">
        <ele>23.209</ele>
        <time>2013-05-30T19:31:43Z</time>
      </trkpt>
      <trkpt lat="59.7016339" lon="17.9749733">
        <ele>23.209</ele>
        <time>2013-05-30T19:31:44Z</time>
      </trkpt>
      <trkpt lat="59.7016904" lon="17.9751301">
        <ele>22.7283</ele>
        <time>2013-05-30T19:31:45Z</time>
      </trkpt>
      <trkpt lat="59.7017441" lon="17.9752846">
        <ele>22.7283</ele>
        <time>2013-05-30T19:31:46Z</time>
      </trkpt>
      <trkpt lat="59.7017974" lon="17.9754377">
        <ele>22.7283</ele>
        <time>2013-05-30T19:31:47Z</time>
      </trkpt>
      <trkpt lat="59.701851" lon="17.9755889">
        <ele>22.2476</ele>
        <time>2013-05-30T19:31:48Z</time>
      </trkpt>
      <trkpt lat="59.7019043" lon="17.9757395">
        <ele>22.2476</ele>
        <time>2013-05-30T19:31:49Z</time>
      </trkpt>
      <trkpt lat="59.7019572" lon="17.9758891">
        <ele>22.2476</ele>
        <time>2013-05-30T19:31:50Z</time>
      </trkpt>
      <trkpt lat="59.7020075" lon="17.9760363">
        <ele>22.2476</ele>
        <time>2013-05-30T19:31:51Z</time>
      </trkpt>
      <trkpt lat="59.7020582" lon="17.9761828">
        <ele>22.2476</ele>
        <time>2013-05-30T19:31:52Z</time>
      </trkpt>
      <trkpt lat="59.7021124" lon="17.9763294">
        <ele>22.7283</ele>
        <time>2013-05-30T19:31:53Z</time>
      </trkpt>
      <trkpt lat="59.7021648" lon="17.9764739">
        <ele>22.7283</ele>
        <time>2013-05-30T19:31:54Z</time>
      </trkpt>
      <trkpt lat="59.7022171" lon="17.9766173">
        <ele>22.7283</ele>
        <time>2013-05-30T19:31:55Z</time>
      </trkpt>
      <trkpt lat="59.702269" lon="17.9767598">
        <ele>22.7283</ele>
        <time>2013-05-30T19:31:56Z</time>
      </trkpt>
      <trkpt lat="59.7023203" lon="17.9769023">
        <ele>22.7283</ele>
        <time>2013-05-30T19:31:57Z</time>
      </trkpt>
      <trkpt lat="59.7023711" lon="17.9770435">
        <ele>22.7283</ele>
        <time>2013-05-30T19:31:58Z</time>
      </trkpt>
      <trkpt lat="59.7024214" lon="17.9771815">
        <ele>22.7283</ele>
        <time>2013-05-30T19:31:59Z</time>
      </trkpt>
      <trkpt lat="59.7024706" lon="17.977317">
        <ele>23.209</ele>
        <time>2013-05-30T19:32:00Z</time>
      </trkpt>
      <trkpt lat="59.7025185" lon="17.9774494">
        <ele>22.7283</ele>
        <time>2013-05-30T19:32:01Z</time>
      </trkpt>
      <trkpt lat="59.7025649" lon="17.9775851">
        <ele>22.7283</ele>
        <time>2013-05-30T19:32:02Z</time>
      </trkpt>
      <trkpt lat="59.702613" lon="17.9777213">
        <ele>22.2476</ele>
        <time>2013-05-30T19:32:03Z</time>
      </trkpt>
      <trkpt lat="59.7026627" lon="17.9778548">
        <ele>22.2476</ele>
        <time>2013-05-30T19:32:04Z</time>
      </trkpt>
      <trkpt lat="59.7027127" lon="17.9779915">
        <ele>22.2476</ele>
        <time>2013-05-30T19:32:05Z</time>
      </trkpt>
      <trkpt lat="59.7027632" lon="17.978134">
        <ele>21.767</ele>
        <time>2013-05-30T19:32:06Z</time>
      </trkpt>
      <trkpt lat="59.702814" lon="17.9782791">
        <ele>21.2864</ele>
        <time>2013-05-30T19:32:07Z</time>
      </trkpt>
      <trkpt lat="59.7028659" lon="17.9784235">
        <ele>21.2864</ele>
        <time>2013-05-30T19:32:08Z</time>
      </trkpt>
      <trkpt lat="59.7029182" lon="17.9785667">
        <ele>21.2864</ele>
        <time>2013-05-30T19:32:09Z</time>
      </trkpt>
      <trkpt lat="59.7029699" lon="17.9787096">
        <ele>20.8057</ele>
        <time>2013-05-30T19:32:10Z</time>
      </trkpt>
      <trkpt lat="59.7030206" lon="17.9788516">
        <ele>20.8057</ele>
        <time>2013-05-30T19:32:11Z</time>
      </trkpt>
      <trkpt lat="59.7030702" lon="17.9789925">
        <ele>19.8444</ele>
        <time>2013-05-30T19:32:12Z</time>
      </trkpt>
      <trkpt lat="59.7031211" lon="17.9791322">
        <ele>19.3638</ele>
        <time>2013-05-30T19:32:13Z</time>
      </trkpt>
      <trkpt lat="59.7031741" lon="17.979271">
        <ele>19.3638</ele>
        <time>2013-05-30T19:32:14Z</time>
      </trkpt>
      <trkpt lat="59.7032264" lon="17.9794085">
        <ele>18.8831</ele>
        <time>2013-05-30T19:32:15Z</time>
      </trkpt>
      <trkpt lat="59.7032761" lon="17.979539">
        <ele>17.9218</ele>
        <time>2013-05-30T19:32:16Z</time>
      </trkpt>
      <trkpt lat="59.7033263" lon="17.9796742">
        <ele>17.4412</ele>
        <time>2013-05-30T19:32:17Z</time>
      </trkpt>
      <trkpt lat="59.7033753" lon="17.9798104">
        <ele>16.4797</ele>
        <time>2013-05-30T19:32:18Z</time>
      </trkpt>
      <trkpt lat="59.7034274" lon="17.9799509">
        <ele>16.4797</ele>
        <time>2013-05-30T19:32:19Z</time>
      </trkpt>
      <trkpt lat="59.70348" lon="17.9800974">
        <ele>16.4797</ele>
        <time>2013-05-30T19:32:20Z</time>
      </trkpt>
      <trkpt lat="59.7035319" lon="17.9802511">
        <ele>15.999</ele>
        <time>2013-05-30T19:32:21Z</time>
      </trkpt>
      <trkpt lat="59.7035832" lon="17.9804016">
        <ele>15.5184</ele>
        <time>2013-05-30T19:32:22Z</time>
      </trkpt>
      <trkpt lat="59.7036345" lon="17.9805578">
        <ele>15.0377</ele>
        <time>2013-05-30T19:32:23Z</time>
      </trkpt>
      <trkpt lat="59.7036867" lon="17.9807118">
        <ele>15.0377</ele>
        <time>2013-05-30T19:32:24Z</time>
      </trkpt>
      <trkpt lat="59.7037401" lon="17.9808618">
        <ele>14.557</ele>
        <time>2013-05-30T19:32:25Z</time>
      </trkpt>
      <trkpt lat="59.703794" lon="17.9810112">
        <ele>14.0764</ele>
        <time>2013-05-30T19:32:26Z</time>
      </trkpt>
      <trkpt lat="59.7038489" lon="17.9811609">
        <ele>14.0764</ele>
        <time>2013-05-30T19:32:27Z</time>
      </trkpt>
      <trkpt lat="59.703904" lon="17.981309">
        <ele>14.0764</ele>
        <time>2013-05-30T19:32:28Z</time>
      </trkpt>
      <trkpt lat="59.7039596" lon="17.9814559">
        <ele>13.5958</ele>
        <time>2013-05-30T19:32:29Z</time>
      </trkpt>
      <trkpt lat="59.7040153" lon="17.9816008">
        <ele>13.5958</ele>
        <time>2013-05-30T19:32:30Z</time>
      </trkpt>
      <trkpt lat="59.7040691" lon="17.9817337">
        <ele>13.1151</ele>
        <time>2013-05-30T19:32:31Z</time>
      </trkpt>
      <trkpt lat="59.7041187" lon="17.9818561">
        <ele>12.6344</ele>
        <time>2013-05-30T19:32:32Z</time>
      </trkpt>
      <trkpt lat="59.7041609" lon="17.9819633">
        <ele>12.1538</ele>
        <time>2013-05-30T19:32:33Z</time>
      </trkpt>
      <trkpt lat="59.704199" lon="17.9820654">
        <ele>12.1538</ele>
        <time>2013-05-30T19:32:34Z</time>
      </trkpt>
      <trkpt lat="59.7042354" lon="17.9821643">
        <ele>12.1538</ele>
        <time>2013-05-30T19:32:35Z</time>
      </trkpt>
      <trkpt lat="59.7042679" lon="17.9822549">
        <ele>12.1538</ele>
        <time>2013-05-30T19:32:36Z</time>
      </trkpt>
      <trkpt lat="59.7042925" lon="17.9823264">
        <ele>12.1538</ele>
        <time>2013-05-30T19:32:37Z</time>
      </trkpt>
      <trkpt lat="59.7043124" lon="17.9823879">
        <ele>12.6344</ele>
        <time>2013-05-30T19:32:38Z</time>
      </trkpt>
      <trkpt lat="59.7043316" lon="17.9824466">
        <ele>12.6344</ele>
        <time>2013-05-30T19:32:39Z</time>
      </trkpt>
      <trkpt lat="59.7043549" lon="17.9825067">
        <ele>12.6344</ele>
        <time>2013-05-30T19:32:40Z</time>
      </trkpt>
      <trkpt lat="59.7043763" lon="17.9825562">
        <ele>12.6344</ele>
        <time>2013-05-30T19:32:41Z</time>
      </trkpt>
      <trkpt lat="59.7044037" lon="17.9826247">
        <ele>12.6344</ele>
        <time>2013-05-30T19:32:42Z</time>
      </trkpt>
      <trkpt lat="59.7044359" lon="17.9827077">
        <ele>13.1151</ele>
        <time>2013-05-30T19:32:43Z</time>
      </trkpt>
      <trkpt lat="59.7044721" lon="17.9828013">
        <ele>13.5958</ele>
        <time>2013-05-30T19:32:44Z</time>
      </trkpt>
      <trkpt lat="59.704512" lon="17.9828983">
        <ele>13.5958</ele>
        <time>2013-05-30T19:32:45Z</time>
      </trkpt>
      <trkpt lat="59.7045551" lon="17.9829972">
        <ele>14.0764</ele>
        <time>2013-05-30T19:32:46Z</time>
      </trkpt>
      <trkpt lat="59.7046001" lon="17.9830961">
        <ele>14.557</ele>
        <time>2013-05-30T19:32:47Z</time>
      </trkpt>
      <trkpt lat="59.7046471" lon="17.9831935">
        <ele>14.557</ele>
        <time>2013-05-30T19:32:48Z</time>
      </trkpt>
      <trkpt lat="59.7046944" lon="17.9832914">
        <ele>15.0377</ele>
        <time>2013-05-30T19:32:49Z</time>
      </trkpt>
      <trkpt lat="59.7047435" lon="17.9833866">
        <ele>15.5184</ele>
        <time>2013-05-30T19:32:50Z</time>
      </trkpt>
      <trkpt lat="59.7047917" lon="17.9834779">
        <ele>15.999</ele>
        <time>2013-05-30T19:32:51Z</time>
      </trkpt>
      <trkpt lat="59.7048357" lon="17.9835696">
        <ele>15.999</ele>
        <time>2013-05-30T19:32:52Z</time>
      </trkpt>
      <trkpt lat="59.7048741" lon="17.983654">
        <ele>16.4797</ele>
        <time>2013-05-30T19:32:53Z</time>
      </trkpt>
      <trkpt lat="59.7049078" lon="17.9837235">
        <ele>16.4797</ele>
        <time>2013-05-30T19:32:54Z</time>
      </trkpt>
      <trkpt lat="59.7049348" lon="17.9837823">
        <ele>16.9604</ele>
        <time>2013-05-30T19:32:55Z</time>
      </trkpt>
      <trkpt lat="59.7049569" lon="17.9838313">
        <ele>16.9604</ele>
        <time>2013-05-30T19:32:56Z</time>
      </trkpt>
      <trkpt lat="59.7049795" lon="17.9838731">
        <ele>17.4412</ele>
        <time>2013-05-30T19:32:57Z</time>
      </trkpt>
      <trkpt lat="59.7050025" lon="17.9839089">
        <ele>17.4412</ele>
        <time>2013-05-30T19:32:58Z</time>
      </trkpt>
      <trkpt lat="59.7050269" lon="17.9839375">
        <ele>16.9604</ele>
        <time>2013-05-30T19:32:59Z</time>
      </trkpt>
      <trkpt lat="59.7050526" lon="17.9839496">
        <ele>15.999</ele>
        <time>2013-05-30T19:33:00Z</time>
      </trkpt>
      <trkpt lat="59.7050718" lon="17.9839306">
        <ele>15.999</ele>
        <time>2013-05-30T19:33:01Z</time>
      </trkpt>
      <trkpt lat="59.7050901" lon="17.9839142">
        <ele>15.999</ele>
        <time>2013-05-30T19:33:02Z</time>
      </trkpt>
      <trkpt lat="59.7051073" lon="17.983899">
        <ele>15.999</ele>
        <time>2013-05-30T19:33:03Z</time>
      </trkpt>
      <trkpt lat="59.7051239" lon="17.9838836">
        <ele>16.4797</ele>
        <time>2013-05-30T19:33:04Z</time>
      </trkpt>
      <trkpt lat="59.705141" lon="17.9838757">
        <ele>16.9604</ele>
        <time>2013-05-30T19:33:05Z</time>
      </trkpt>
      <trkpt lat="59.7051552" lon="17.9838636">
        <ele>17.4412</ele>
        <time>2013-05-30T19:33:06Z</time>
      </trkpt>
      <trkpt lat="59.7051642" lon="17.9838452">
        <ele>16.9604</ele>
        <time>2013-05-30T19:33:07Z</time>
      </trkpt>
      <trkpt lat="59.7051745" lon="17.9838329">
        <ele>16.9604</ele>
        <time>2013-05-30T19:33:08Z</time>
      </trkpt>
      <trkpt lat="59.7051839" lon="17.9838192">
        <ele>16.9604</ele>
        <time>2013-05-30T19:33:09Z</time>
      </trkpt>
      <trkpt lat="59.7051941" lon="17.9837996">
        <ele>17.4412</ele>
        <time>2013-05-30T19:33:10Z</time>
      </trkpt>
      <trkpt lat="59.7052059" lon="17.9837723">
        <ele>16.9604</ele>
        <time>2013-05-30T19:33:11Z</time>
      </trkpt>
      <trkpt lat="59.7052196" lon="17.9837401">
        <ele>16.4797</ele>
        <time>2013-05-30T19:33:12Z</time>
      </trkpt>
      <trkpt lat="59.7052372" lon="17.9837156">
        <ele>15.999</ele>
        <time>2013-05-30T19:33:13Z</time>
      </trkpt>
      <trkpt lat="59.7052564" lon="17.9836985">
        <ele>15.999</ele>
        <time>2013-05-30T19:33:14Z</time>
      </trkpt>
      <trkpt lat="59.7052754" lon="17.9836797">
        <ele>15.999</ele>
        <time>2013-05-30T19:33:15Z</time>
      </trkpt>
      <trkpt lat="59.7052925" lon="17.9836581">
        <ele>15.999</ele>
        <time>2013-05-30T19:33:16Z</time>
      </trkpt>
      <trkpt lat="59.7053083" lon="17.983639">
        <ele>15.999</ele>
        <time>2013-05-30T19:33:17Z</time>
      </trkpt>
      <trkpt lat="59.705321" lon="17.9836243">
        <ele>15.999</ele>
        <time>2013-05-30T19:33:18Z</time>
      </trkpt>
      <trkpt lat="59.7053263" lon="17.9836176">
        <ele>15.0377</ele>
        <time>2013-05-30T19:33:19Z</time>
      </trkpt>
      <trkpt lat="59.7053261" lon="17.9836131">
        <ele>15.0377</ele>
        <time>2013-05-30T19:33:20Z</time>
      </trkpt>
      <trkpt lat="59.7053248" lon="17.9836126">
        <ele>14.557</ele>
        <time>2013-05-30T19:33:21Z</time>
      </trkpt>
      <trkpt lat="59.7053896" lon="17.9835027">
        <ele>24.651</ele>
        <time>2013-05-30T19:37:02Z</time>
      </trkpt>
      <trkpt lat="59.7054109" lon="17.983471">
        <ele>24.1703</ele>
        <time>2013-05-30T19:37:03Z</time>
      </trkpt>
      <trkpt lat="59.7054383" lon="17.9834256">
        <ele>24.651</ele>
        <time>2013-05-30T19:37:04Z</time>
      </trkpt>
      <trkpt lat="59.7054672" lon="17.983376">
        <ele>24.651</ele>
        <time>2013-05-30T19:37:05Z</time>
      </trkpt>
      <trkpt lat="59.705496" lon="17.9833208">
        <ele>24.1703</ele>
        <time>2013-05-30T19:37:06Z</time>
      </trkpt>
      <trkpt lat="59.7055286" lon="17.9832581">
        <ele>24.1703</ele>
        <time>2013-05-30T19:37:07Z</time>
      </trkpt>
      <trkpt lat="59.7055642" lon="17.9831965">
        <ele>24.651</ele>
        <time>2013-05-30T19:37:08Z</time>
      </trkpt>
      <trkpt lat="59.7055996" lon="17.9831324">
        <ele>24.651</ele>
        <time>2013-05-30T19:37:09Z</time>
      </trkpt>
      <trkpt lat="59.7056351" lon="17.9830647">
        <ele>24.651</ele>
        <time>2013-05-30T19:37:10Z</time>
      </trkpt>
      <trkpt lat="59.7056708" lon="17.9829972">
        <ele>24.651</ele>
        <time>2013-05-30T19:37:11Z</time>
      </trkpt>
      <trkpt lat="59.7057046" lon="17.9829299">
        <ele>24.651</ele>
        <time>2013-05-30T19:37:12Z</time>
      </trkpt>
      <trkpt lat="59.7057365" lon="17.982864">
        <ele>24.651</ele>
        <time>2013-05-30T19:37:13Z</time>
      </trkpt>
      <trkpt lat="59.7057677" lon="17.9827998">
        <ele>24.651</ele>
        <time>2013-05-30T19:37:14Z</time>
      </trkpt>
      <trkpt lat="59.7057997" lon="17.9827283">
        <ele>25.6123</ele>
        <time>2013-05-30T19:37:15Z</time>
      </trkpt>
      <trkpt lat="59.7058317" lon="17.9826631">
        <ele>25.1317</ele>
        <time>2013-05-30T19:37:16Z</time>
      </trkpt>
      <trkpt lat="59.7058634" lon="17.9825945">
        <ele>25.6123</ele>
        <time>2013-05-30T19:37:17Z</time>
      </trkpt>
      <trkpt lat="59.7058952" lon="17.9825243">
        <ele>25.6123</ele>
        <time>2013-05-30T19:37:18Z</time>
      </trkpt>
      <trkpt lat="59.7059267" lon="17.9824546">
        <ele>26.0929</ele>
        <time>2013-05-30T19:37:19Z</time>
      </trkpt>
      <trkpt lat="59.7059563" lon="17.9823861">
        <ele>25.6123</ele>
        <time>2013-05-30T19:37:20Z</time>
      </trkpt>
      <trkpt lat="59.7059867" lon="17.9823181">
        <ele>25.6123</ele>
        <time>2013-05-30T19:37:21Z</time>
      </trkpt>
      <trkpt lat="59.7060179" lon="17.9822496">
        <ele>25.6123</ele>
        <time>2013-05-30T19:37:22Z</time>
      </trkpt>
      <trkpt lat="59.7060499" lon="17.9821792">
        <ele>25.1317</ele>
        <time>2013-05-30T19:37:23Z</time>
      </trkpt>
      <trkpt lat="59.7060819" lon="17.9821082">
        <ele>25.1317</ele>
        <time>2013-05-30T19:37:24Z</time>
      </trkpt>
      <trkpt lat="59.7061128" lon="17.9820356">
        <ele>24.651</ele>
        <time>2013-05-30T19:37:25Z</time>
      </trkpt>
      <trkpt lat="59.7061425" lon="17.981962">
        <ele>24.651</ele>
        <time>2013-05-30T19:37:26Z</time>
      </trkpt>
      <trkpt lat="59.7061699" lon="17.9818851">
        <ele>22.7283</ele>
        <time>2013-05-30T19:37:27Z</time>
      </trkpt>
      <trkpt lat="59.7061993" lon="17.981812">
        <ele>21.2864</ele>
        <time>2013-05-30T19:37:28Z</time>
      </trkpt>
      <trkpt lat="59.706229" lon="17.981736">
        <ele>19.8444</ele>
        <time>2013-05-30T19:37:29Z</time>
      </trkpt>
      <trkpt lat="59.7062582" lon="17.9816567">
        <ele>19.3638</ele>
        <time>2013-05-30T19:37:30Z</time>
      </trkpt>
      <trkpt lat="59.7062868" lon="17.9815745">
        <ele>18.4023</ele>
        <time>2013-05-30T19:37:31Z</time>
      </trkpt>
      <trkpt lat="59.7063161" lon="17.9814906">
        <ele>17.9218</ele>
        <time>2013-05-30T19:37:32Z</time>
      </trkpt>
      <trkpt lat="59.7063447" lon="17.9814057">
        <ele>17.4412</ele>
        <time>2013-05-30T19:37:33Z</time>
      </trkpt>
      <trkpt lat="59.7063738" lon="17.9813189">
        <ele>16.9604</ele>
        <time>2013-05-30T19:37:34Z</time>
      </trkpt>
      <trkpt lat="59.7064026" lon="17.9812321">
        <ele>16.9604</ele>
        <time>2013-05-30T19:37:35Z</time>
      </trkpt>
      <trkpt lat="59.7064326" lon="17.9811427">
        <ele>16.4797</ele>
        <time>2013-05-30T19:37:36Z</time>
      </trkpt>
      <trkpt lat="59.706464" lon="17.9810526">
        <ele>16.4797</ele>
        <time>2013-05-30T19:37:37Z</time>
      </trkpt>
      <trkpt lat="59.7064952" lon="17.9809628">
        <ele>16.9604</ele>
        <time>2013-05-30T19:37:38Z</time>
      </trkpt>
      <trkpt lat="59.7065254" lon="17.9808723">
        <ele>16.9604</ele>
        <time>2013-05-30T19:37:39Z</time>
      </trkpt>
      <trkpt lat="59.7065557" lon="17.9807812">
        <ele>17.4412</ele>
        <time>2013-05-30T19:37:40Z</time>
      </trkpt>
      <trkpt lat="59.7065866" lon="17.98069">
        <ele>17.4412</ele>
        <time>2013-05-30T19:37:41Z</time>
      </trkpt>
      <trkpt lat="59.7066157" lon="17.9805986">
        <ele>17.4412</ele>
        <time>2013-05-30T19:37:42Z</time>
      </trkpt>
      <trkpt lat="59.7066435" lon="17.9805071">
        <ele>17.4412</ele>
        <time>2013-05-30T19:37:43Z</time>
      </trkpt>
      <trkpt lat="59.7066705" lon="17.980415">
        <ele>17.9218</ele>
        <time>2013-05-30T19:37:44Z</time>
      </trkpt>
      <trkpt lat="59.7066953" lon="17.980322">
        <ele>17.4412</ele>
        <time>2013-05-30T19:37:45Z</time>
      </trkpt>
      <trkpt lat="59.7067199" lon="17.9802294">
        <ele>18.4023</ele>
        <time>2013-05-30T19:37:46Z</time>
      </trkpt>
      <trkpt lat="59.7067424" lon="17.9801374">
        <ele>18.4023</ele>
        <time>2013-05-30T19:37:47Z</time>
      </trkpt>
      <trkpt lat="59.7067628" lon="17.9800539">
        <ele>17.9218</ele>
        <time>2013-05-30T19:37:48Z</time>
      </trkpt>
      <trkpt lat="59.706786" lon="17.9799616">
        <ele>17.9218</ele>
        <time>2013-05-30T19:37:49Z</time>
      </trkpt>
      <trkpt lat="59.7068063" lon="17.9798663">
        <ele>17.9218</ele>
        <time>2013-05-30T19:37:50Z</time>
      </trkpt>
      <trkpt lat="59.7068263" lon="17.9797705">
        <ele>17.4412</ele>
        <time>2013-05-30T19:37:51Z</time>
      </trkpt>
      <trkpt lat="59.7068486" lon="17.9796705">
        <ele>17.4412</ele>
        <time>2013-05-30T19:37:52Z</time>
      </trkpt>
      <trkpt lat="59.7068689" lon="17.9795695">
        <ele>17.9218</ele>
        <time>2013-05-30T19:37:53Z</time>
      </trkpt>
      <trkpt lat="59.7068891" lon="17.9794753">
        <ele>17.9218</ele>
        <time>2013-05-30T19:37:54Z</time>
      </trkpt>
      <trkpt lat="59.7069117" lon="17.9793793">
        <ele>18.4023</ele>
        <time>2013-05-30T19:37:55Z</time>
      </trkpt>
      <trkpt lat="59.7069337" lon="17.9792815">
        <ele>18.8831</ele>
        <time>2013-05-30T19:37:56Z</time>
      </trkpt>
      <trkpt lat="59.706954" lon="17.9791846">
        <ele>19.3638</ele>
        <time>2013-05-30T19:37:57Z</time>
      </trkpt>
      <trkpt lat="59.7069742" lon="17.9790847">
        <ele>19.8444</ele>
        <time>2013-05-30T19:37:58Z</time>
      </trkpt>
      <trkpt lat="59.7069933" lon="17.9789852">
        <ele>20.8057</ele>
        <time>2013-05-30T19:37:59Z</time>
      </trkpt>
      <trkpt lat="59.7070115" lon="17.9788848">
        <ele>21.2864</ele>
        <time>2013-05-30T19:38:00Z</time>
      </trkpt>
      <trkpt lat="59.7070306" lon="17.9787895">
        <ele>21.767</ele>
        <time>2013-05-30T19:38:01Z</time>
      </trkpt>
      <trkpt lat="59.7070472" lon="17.9786924">
        <ele>22.2476</ele>
        <time>2013-05-30T19:38:02Z</time>
      </trkpt>
      <trkpt lat="59.7070637" lon="17.9785942">
        <ele>21.767</ele>
        <time>2013-05-30T19:38:03Z</time>
      </trkpt>
      <trkpt lat="59.7070793" lon="17.9784967">
        <ele>22.2476</ele>
        <time>2013-05-30T19:38:04Z</time>
      </trkpt>
      <trkpt lat="59.7070928" lon="17.9783986">
        <ele>22.2476</ele>
        <time>2013-05-30T19:38:05Z</time>
      </trkpt>
      <trkpt lat="59.7071108" lon="17.9783061">
        <ele>22.7283</ele>
        <time>2013-05-30T19:38:06Z</time>
      </trkpt>
      <trkpt lat="59.7071265" lon="17.9782139">
        <ele>23.6896</ele>
        <time>2013-05-30T19:38:07Z</time>
      </trkpt>
      <trkpt lat="59.7071419" lon="17.978117">
        <ele>23.6896</ele>
        <time>2013-05-30T19:38:08Z</time>
      </trkpt>
      <trkpt lat="59.7071601" lon="17.9780205">
        <ele>24.1703</ele>
        <time>2013-05-30T19:38:09Z</time>
      </trkpt>
      <trkpt lat="59.7071772" lon="17.9779141">
        <ele>25.1317</ele>
        <time>2013-05-30T19:38:10Z</time>
      </trkpt>
      <trkpt lat="59.7071942" lon="17.9778115">
        <ele>24.651</ele>
        <time>2013-05-30T19:38:11Z</time>
      </trkpt>
      <trkpt lat="59.7072088" lon="17.9777046">
        <ele>21.2864</ele>
        <time>2013-05-30T19:38:12Z</time>
      </trkpt>
      <trkpt lat="59.7072233" lon="17.9775869">
        <ele>19.3638</ele>
        <time>2013-05-30T19:38:13Z</time>
      </trkpt>
      <trkpt lat="59.7072378" lon="17.9774664">
        <ele>17.9218</ele>
        <time>2013-05-30T19:38:14Z</time>
      </trkpt>
      <trkpt lat="59.7072523" lon="17.9773436">
        <ele>16.4797</ele>
        <time>2013-05-30T19:38:15Z</time>
      </trkpt>
      <trkpt lat="59.7072652" lon="17.9772281">
        <ele>15.5184</ele>
        <time>2013-05-30T19:38:16Z</time>
      </trkpt>
      <trkpt lat="59.7072813" lon="17.9771188">
        <ele>14.557</ele>
        <time>2013-05-30T19:38:17Z</time>
      </trkpt>
      <trkpt lat="59.7072973" lon="17.9770085">
        <ele>13.1151</ele>
        <time>2013-05-30T19:38:18Z</time>
      </trkpt>
      <trkpt lat="59.7073139" lon="17.9768975">
        <ele>12.1538</ele>
        <time>2013-05-30T19:38:19Z</time>
      </trkpt>
      <trkpt lat="59.7073308" lon="17.9767826">
        <ele>11.1925</ele>
        <time>2013-05-30T19:38:20Z</time>
      </trkpt>
      <trkpt lat="59.7073481" lon="17.9766662">
        <ele>11.6732</ele>
        <time>2013-05-30T19:38:21Z</time>
      </trkpt>
      <trkpt lat="59.707365" lon="17.9765526">
        <ele>11.6732</ele>
        <time>2013-05-30T19:38:22Z</time>
      </trkpt>
      <trkpt lat="59.7073821" lon="17.976437">
        <ele>11.6732</ele>
        <time>2013-05-30T19:38:23Z</time>
      </trkpt>
      <trkpt lat="59.7073999" lon="17.9763238">
        <ele>11.6732</ele>
        <time>2013-05-30T19:38:24Z</time>
      </trkpt>
      <trkpt lat="59.7074153" lon="17.97622">
        <ele>11.6732</ele>
        <time>2013-05-30T19:38:25Z</time>
      </trkpt>
      <trkpt lat="59.7074308" lon="17.9761164">
        <ele>11.6732</ele>
        <time>2013-05-30T19:38:26Z</time>
      </trkpt>
      <trkpt lat="59.7074474" lon="17.9760165">
        <ele>11.6732</ele>
        <time>2013-05-30T19:38:27Z</time>
      </trkpt>
      <trkpt lat="59.7074671" lon="17.9759263">
        <ele>12.6344</ele>
        <time>2013-05-30T19:38:28Z</time>
      </trkpt>
      <trkpt lat="59.7074844" lon="17.9758258">
        <ele>12.1538</ele>
        <time>2013-05-30T19:38:29Z</time>
      </trkpt>
      <trkpt lat="59.7075003" lon="17.9757171">
        <ele>12.1538</ele>
        <time>2013-05-30T19:38:30Z</time>
      </trkpt>
      <trkpt lat="59.707517" lon="17.9756119">
        <ele>11.1925</ele>
        <time>2013-05-30T19:38:31Z</time>
      </trkpt>
      <trkpt lat="59.7075376" lon="17.9755021">
        <ele>9.75061</ele>
        <time>2013-05-30T19:38:32Z</time>
      </trkpt>
      <trkpt lat="59.7075593" lon="17.9753928">
        <ele>9.75061</ele>
        <time>2013-05-30T19:38:33Z</time>
      </trkpt>
      <trkpt lat="59.7075796" lon="17.9752918">
        <ele>9.75061</ele>
        <time>2013-05-30T19:38:34Z</time>
      </trkpt>
      <trkpt lat="59.7075983" lon="17.9751986">
        <ele>8.78918</ele>
        <time>2013-05-30T19:38:35Z</time>
      </trkpt>
      <trkpt lat="59.7076162" lon="17.9751012">
        <ele>9.2699</ele>
        <time>2013-05-30T19:38:36Z</time>
      </trkpt>
      <trkpt lat="59.7076421" lon="17.9750051">
        <ele>10.7118</ele>
        <time>2013-05-30T19:38:37Z</time>
      </trkpt>
      <trkpt lat="59.7076582" lon="17.9749065">
        <ele>10.7118</ele>
        <time>2013-05-30T19:38:38Z</time>
      </trkpt>
      <trkpt lat="59.7076574" lon="17.9748104">
        <ele>12.1538</ele>
        <time>2013-05-30T19:38:39Z</time>
      </trkpt>
      <trkpt lat="59.7076573" lon="17.9746997">
        <ele>12.1538</ele>
        <time>2013-05-30T19:38:40Z</time>
      </trkpt>
      <trkpt lat="59.7076542" lon="17.9745852">
        <ele>12.6344</ele>
        <time>2013-05-30T19:38:41Z</time>
      </trkpt>
      <trkpt lat="59.7076504" lon="17.9744692">
        <ele>13.5958</ele>
        <time>2013-05-30T19:38:42Z</time>
      </trkpt>
      <trkpt lat="59.7076523" lon="17.9743548">
        <ele>14.0764</ele>
        <time>2013-05-30T19:38:43Z</time>
      </trkpt>
      <trkpt lat="59.7076558" lon="17.9742481">
        <ele>15.5184</ele>
        <time>2013-05-30T19:38:44Z</time>
      </trkpt>
      <trkpt lat="59.7076595" lon="17.9741501">
        <ele>17.4412</ele>
        <time>2013-05-30T19:38:45Z</time>
      </trkpt>
      <trkpt lat="59.7076611" lon="17.9740506">
        <ele>18.4023</ele>
        <time>2013-05-30T19:38:46Z</time>
      </trkpt>
      <trkpt lat="59.7076718" lon="17.9739481">
        <ele>19.8444</ele>
        <time>2013-05-30T19:38:47Z</time>
      </trkpt>
      <trkpt lat="59.7076751" lon="17.9738458">
        <ele>19.8444</ele>
        <time>2013-05-30T19:38:48Z</time>
      </trkpt>
      <trkpt lat="59.7076795" lon="17.9737399">
        <ele>20.8057</ele>
        <time>2013-05-30T19:38:49Z</time>
      </trkpt>
      <trkpt lat="59.7076877" lon="17.9736392">
        <ele>21.2864</ele>
        <time>2013-05-30T19:38:50Z</time>
      </trkpt>
      <trkpt lat="59.7076926" lon="17.9735337">
        <ele>21.2864</ele>
        <time>2013-05-30T19:38:51Z</time>
      </trkpt>
      <trkpt lat="59.7076967" lon="17.9734263">
        <ele>21.767</ele>
        <time>2013-05-30T19:38:52Z</time>
      </trkpt>
      <trkpt lat="59.707703" lon="17.9733204">
        <ele>21.767</ele>
        <time>2013-05-30T19:38:53Z</time>
      </trkpt>
      <trkpt lat="59.7077142" lon="17.9732192">
        <ele>22.7283</ele>
        <time>2013-05-30T19:38:54Z</time>
      </trkpt>
      <trkpt lat="59.7077257" lon="17.9731194">
        <ele>23.209</ele>
        <time>2013-05-30T19:38:55Z</time>
      </trkpt>
      <trkpt lat="59.7077423" lon="17.9730306">
        <ele>24.1703</ele>
        <time>2013-05-30T19:38:56Z</time>
      </trkpt>
      <trkpt lat="59.707763" lon="17.972941">
        <ele>24.1703</ele>
        <time>2013-05-30T19:38:57Z</time>
      </trkpt>
      <trkpt lat="59.7077818" lon="17.9728463">
        <ele>24.651</ele>
        <time>2013-05-30T19:38:58Z</time>
      </trkpt>
      <trkpt lat="59.7077998" lon="17.9727494">
        <ele>25.1317</ele>
        <time>2013-05-30T19:38:59Z</time>
      </trkpt>
      <trkpt lat="59.7078203" lon="17.972662">
        <ele>25.6123</ele>
        <time>2013-05-30T19:39:00Z</time>
      </trkpt>
      <trkpt lat="59.7078424" lon="17.9725806">
        <ele>27.0543</ele>
        <time>2013-05-30T19:39:01Z</time>
      </trkpt>
      <trkpt lat="59.7078633" lon="17.972494">
        <ele>28.0155</ele>
        <time>2013-05-30T19:39:02Z</time>
      </trkpt>
      <trkpt lat="59.7078831" lon="17.9724023">
        <ele>28.9769</ele>
        <time>2013-05-30T19:39:03Z</time>
      </trkpt>
      <trkpt lat="59.7079055" lon="17.9723126">
        <ele>30.4188</ele>
        <time>2013-05-30T19:39:04Z</time>
      </trkpt>
      <trkpt lat="59.7079287" lon="17.9722258">
        <ele>31.8607</ele>
        <time>2013-05-30T19:39:05Z</time>
      </trkpt>
      <trkpt lat="59.7079531" lon="17.97214">
        <ele>33.3029</ele>
        <time>2013-05-30T19:39:06Z</time>
      </trkpt>
      <trkpt lat="59.707978" lon="17.9720641">
        <ele>32.8223</ele>
        <time>2013-05-30T19:39:07Z</time>
      </trkpt>
      <trkpt lat="59.708005" lon="17.9719853">
        <ele>32.8223</ele>
        <time>2013-05-30T19:39:08Z</time>
      </trkpt>
      <trkpt lat="59.7080317" lon="17.9719003">
        <ele>32.8223</ele>
        <time>2013-05-30T19:39:09Z</time>
      </trkpt>
      <trkpt lat="59.7080557" lon="17.9718133">
        <ele>32.8223</ele>
        <time>2013-05-30T19:39:10Z</time>
      </trkpt>
      <trkpt lat="59.7080796" lon="17.9717304">
        <ele>32.3416</ele>
        <time>2013-05-30T19:39:11Z</time>
      </trkpt>
      <trkpt lat="59.7081106" lon="17.9716619">
        <ele>32.3416</ele>
        <time>2013-05-30T19:39:12Z</time>
      </trkpt>
      <trkpt lat="59.7081413" lon="17.9715889">
        <ele>32.3416</ele>
        <time>2013-05-30T19:39:13Z</time>
      </trkpt>
      <trkpt lat="59.7081733" lon="17.9715153">
        <ele>32.3416</ele>
        <time>2013-05-30T19:39:14Z</time>
      </trkpt>
      <trkpt lat="59.7082069" lon="17.9714482">
        <ele>32.3416</ele>
        <time>2013-05-30T19:39:15Z</time>
      </trkpt>
      <trkpt lat="59.7082413" lon="17.9713819">
        <ele>31.8607</ele>
        <time>2013-05-30T19:39:16Z</time>
      </trkpt>
      <trkpt lat="59.7082772" lon="17.9713302">
        <ele>31.8607</ele>
        <time>2013-05-30T19:39:17Z</time>
      </trkpt>
      <trkpt lat="59.7083143" lon="17.9712761">
        <ele>32.8223</ele>
        <time>2013-05-30T19:39:18Z</time>
      </trkpt>
      <trkpt lat="59.7083493" lon="17.9712156">
        <ele>33.7834</ele>
        <time>2013-05-30T19:39:19Z</time>
      </trkpt>
      <trkpt lat="59.7083851" lon="17.9711568">
        <ele>34.7449</ele>
        <time>2013-05-30T19:39:20Z</time>
      </trkpt>
      <trkpt lat="59.7084199" lon="17.9711046">
        <ele>34.7449</ele>
        <time>2013-05-30T19:39:21Z</time>
      </trkpt>
      <trkpt lat="59.7084567" lon="17.9710574">
        <ele>34.7449</ele>
        <time>2013-05-30T19:39:22Z</time>
      </trkpt>
      <trkpt lat="59.7084934" lon="17.9710036">
        <ele>35.7061</ele>
        <time>2013-05-30T19:39:23Z</time>
      </trkpt>
      <trkpt lat="59.7085308" lon="17.9709557">
        <ele>36.1868</ele>
        <time>2013-05-30T19:39:24Z</time>
      </trkpt>
      <trkpt lat="59.7085702" lon="17.9709042">
        <ele>37.1481</ele>
        <time>2013-05-30T19:39:25Z</time>
      </trkpt>
      <trkpt lat="59.7086053" lon="17.9708683">
        <ele>35.7061</ele>
        <time>2013-05-30T19:39:26Z</time>
      </trkpt>
      <trkpt lat="59.7086419" lon="17.9708316">
        <ele>35.7061</ele>
        <time>2013-05-30T19:39:27Z</time>
      </trkpt>
      <trkpt lat="59.7086774" lon="17.9707928">
        <ele>35.7061</ele>
        <time>2013-05-30T19:39:28Z</time>
      </trkpt>
      <trkpt lat="59.7087194" lon="17.9707419">
        <ele>35.2255</ele>
        <time>2013-05-30T19:39:29Z</time>
      </trkpt>
      <trkpt lat="59.7087735" lon="17.9706733">
        <ele>36.6675</ele>
        <time>2013-05-30T19:39:30Z</time>
      </trkpt>
      <trkpt lat="59.7088239" lon="17.9706141">
        <ele>37.6287</ele>
        <time>2013-05-30T19:39:31Z</time>
      </trkpt>
      <trkpt lat="59.70887" lon="17.9705694">
        <ele>37.6287</ele>
        <time>2013-05-30T19:39:32Z</time>
      </trkpt>
      <trkpt lat="59.7089146" lon="17.9705219">
        <ele>38.5901</ele>
        <time>2013-05-30T19:39:33Z</time>
      </trkpt>
      <trkpt lat="59.7089591" lon="17.970469">
        <ele>38.1094</ele>
        <time>2013-05-30T19:39:34Z</time>
      </trkpt>
      <trkpt lat="59.7090062" lon="17.9704104">
        <ele>38.5901</ele>
        <time>2013-05-30T19:39:35Z</time>
      </trkpt>
      <trkpt lat="59.7090573" lon="17.9703443">
        <ele>38.5901</ele>
        <time>2013-05-30T19:39:36Z</time>
      </trkpt>
      <trkpt lat="59.7091048" lon="17.970277">
        <ele>36.6675</ele>
        <time>2013-05-30T19:39:37Z</time>
      </trkpt>
      <trkpt lat="59.7091478" lon="17.9702117">
        <ele>34.2642</ele>
        <time>2013-05-30T19:39:38Z</time>
      </trkpt>
      <trkpt lat="59.7091871" lon="17.9701516">
        <ele>33.7834</ele>
        <time>2013-05-30T19:39:39Z</time>
      </trkpt>
      <trkpt lat="59.7092247" lon="17.9700804">
        <ele>32.3416</ele>
        <time>2013-05-30T19:39:40Z</time>
      </trkpt>
      <trkpt lat="59.7092606" lon="17.9700137">
        <ele>32.8223</ele>
        <time>2013-05-30T19:39:41Z</time>
      </trkpt>
      <trkpt lat="59.7092949" lon="17.9699361">
        <ele>32.3416</ele>
        <time>2013-05-30T19:39:42Z</time>
      </trkpt>
      <trkpt lat="59.7093286" lon="17.9698521">
        <ele>31.8607</ele>
        <time>2013-05-30T19:39:43Z</time>
      </trkpt>
      <trkpt lat="59.7093681" lon="17.969775">
        <ele>32.3416</ele>
        <time>2013-05-30T19:39:44Z</time>
      </trkpt>
      <trkpt lat="59.7094076" lon="17.9696931">
        <ele>32.8223</ele>
        <time>2013-05-30T19:39:45Z</time>
      </trkpt>
      <trkpt lat="59.7094471" lon="17.9696154">
        <ele>32.3416</ele>
        <time>2013-05-30T19:39:46Z</time>
      </trkpt>
      <trkpt lat="59.7094915" lon="17.9695269">
        <ele>34.2642</ele>
        <time>2013-05-30T19:39:47Z</time>
      </trkpt>
      <trkpt lat="59.7095289" lon="17.9694374">
        <ele>35.2255</ele>
        <time>2013-05-30T19:39:48Z</time>
      </trkpt>
      <trkpt lat="59.7095657" lon="17.9693438">
        <ele>35.2255</ele>
        <time>2013-05-30T19:39:49Z</time>
      </trkpt>
      <trkpt lat="59.7096082" lon="17.9692554">
        <ele>36.1868</ele>
        <time>2013-05-30T19:39:50Z</time>
      </trkpt>
      <trkpt lat="59.7096475" lon="17.9691579">
        <ele>36.6675</ele>
        <time>2013-05-30T19:39:51Z</time>
      </trkpt>
      <trkpt lat="59.709689" lon="17.9690688">
        <ele>37.6287</ele>
        <time>2013-05-30T19:39:52Z</time>
      </trkpt>
      <trkpt lat="59.7097303" lon="17.9689912">
        <ele>38.1094</ele>
        <time>2013-05-30T19:39:53Z</time>
      </trkpt>
      <trkpt lat="59.7097687" lon="17.9689087">
        <ele>37.1481</ele>
        <time>2013-05-30T19:39:54Z</time>
      </trkpt>
      <trkpt lat="59.7098097" lon="17.9688191">
        <ele>37.6287</ele>
        <time>2013-05-30T19:39:55Z</time>
      </trkpt>
      <trkpt lat="59.7098521" lon="17.9687354">
        <ele>38.1094</ele>
        <time>2013-05-30T19:39:56Z</time>
      </trkpt>
      <trkpt lat="59.7098909" lon="17.9686517">
        <ele>39.0707</ele>
        <time>2013-05-30T19:39:57Z</time>
      </trkpt>
      <trkpt lat="59.7099326" lon="17.9685845">
        <ele>39.5513</ele>
        <time>2013-05-30T19:39:58Z</time>
      </trkpt>
      <trkpt lat="59.7099749" lon="17.9685168">
        <ele>40.0321</ele>
        <time>2013-05-30T19:39:59Z</time>
      </trkpt>
      <trkpt lat="59.7100193" lon="17.9684536">
        <ele>40.5128</ele>
        <time>2013-05-30T19:40:00Z</time>
      </trkpt>
      <trkpt lat="59.7100639" lon="17.9683925">
        <ele>41.474</ele>
        <time>2013-05-30T19:40:01Z</time>
      </trkpt>
      <trkpt lat="59.7101075" lon="17.968335">
        <ele>41.9547</ele>
        <time>2013-05-30T19:40:02Z</time>
      </trkpt>
      <trkpt lat="59.7101508" lon="17.9682811">
        <ele>41.9547</ele>
        <time>2013-05-30T19:40:03Z</time>
      </trkpt>
      <trkpt lat="59.7101947" lon="17.9682268">
        <ele>41.9547</ele>
        <time>2013-05-30T19:40:04Z</time>
      </trkpt>
      <trkpt lat="59.7102387" lon="17.9681749">
        <ele>41.9547</ele>
        <time>2013-05-30T19:40:05Z</time>
      </trkpt>
      <trkpt lat="59.7102822" lon="17.9681236">
        <ele>41.9547</ele>
        <time>2013-05-30T19:40:06Z</time>
      </trkpt>
      <trkpt lat="59.7103268" lon="17.9680754">
        <ele>41.9547</ele>
        <time>2013-05-30T19:40:07Z</time>
      </trkpt>
      <trkpt lat="59.7103768" lon="17.968023">
        <ele>42.4354</ele>
        <time>2013-05-30T19:40:08Z</time>
      </trkpt>
      <trkpt lat="59.7104246" lon="17.9679651">
        <ele>43.3966</ele>
        <time>2013-05-30T19:40:09Z</time>
      </trkpt>
      <trkpt lat="59.7104726" lon="17.9679096">
        <ele>43.8773</ele>
        <time>2013-05-30T19:40:10Z</time>
      </trkpt>
      <trkpt lat="59.7105199" lon="17.9678599">
        <ele>43.8773</ele>
        <time>2013-05-30T19:40:11Z</time>
      </trkpt>
      <trkpt lat="59.7105673" lon="17.967806">
        <ele>44.358</ele>
        <time>2013-05-30T19:40:12Z</time>
      </trkpt>
      <trkpt lat="59.7106121" lon="17.9677489">
        <ele>45.7999</ele>
        <time>2013-05-30T19:40:13Z</time>
      </trkpt>
      <trkpt lat="59.7106556" lon="17.9676893">
        <ele>46.2806</ele>
        <time>2013-05-30T19:40:14Z</time>
      </trkpt>
      <trkpt lat="59.7107" lon="17.9676263">
        <ele>47.2418</ele>
        <time>2013-05-30T19:40:15Z</time>
      </trkpt>
      <trkpt lat="59.7107463" lon="17.9675777">
        <ele>47.2418</ele>
        <time>2013-05-30T19:40:16Z</time>
      </trkpt>
      <trkpt lat="59.7107928" lon="17.9675287">
        <ele>47.7225</ele>
        <time>2013-05-30T19:40:17Z</time>
      </trkpt>
      <trkpt lat="59.71084" lon="17.9674869">
        <ele>47.2418</ele>
        <time>2013-05-30T19:40:18Z</time>
      </trkpt>
      <trkpt lat="59.7108855" lon="17.9674367">
        <ele>47.7225</ele>
        <time>2013-05-30T19:40:19Z</time>
      </trkpt>
      <trkpt lat="59.7109306" lon="17.9673858">
        <ele>48.2034</ele>
        <time>2013-05-30T19:40:20Z</time>
      </trkpt>
      <trkpt lat="59.7109735" lon="17.9673263">
        <ele>48.2034</ele>
        <time>2013-05-30T19:40:21Z</time>
      </trkpt>
      <trkpt lat="59.7110166" lon="17.9672772">
        <ele>48.684</ele>
        <time>2013-05-30T19:40:22Z</time>
      </trkpt>
      <trkpt lat="59.7110594" lon="17.967231">
        <ele>48.684</ele>
        <time>2013-05-30T19:40:23Z</time>
      </trkpt>
      <trkpt lat="59.7110979" lon="17.9671773">
        <ele>49.1646</ele>
        <time>2013-05-30T19:40:24Z</time>
      </trkpt>
      <trkpt lat="59.7111357" lon="17.9671316">
        <ele>47.2418</ele>
        <time>2013-05-30T19:40:25Z</time>
      </trkpt>
      <trkpt lat="59.7111756" lon="17.9670938">
        <ele>46.2806</ele>
        <time>2013-05-30T19:40:26Z</time>
      </trkpt>
      <trkpt lat="59.7112129" lon="17.9670532">
        <ele>45.3192</ele>
        <time>2013-05-30T19:40:27Z</time>
      </trkpt>
      <trkpt lat="59.7112508" lon="17.9669943">
        <ele>43.8773</ele>
        <time>2013-05-30T19:40:28Z</time>
      </trkpt>
      <trkpt lat="59.7112906" lon="17.9669451">
        <ele>44.358</ele>
        <time>2013-05-30T19:40:29Z</time>
      </trkpt>
      <trkpt lat="59.7113289" lon="17.966897">
        <ele>43.3966</ele>
        <time>2013-05-30T19:40:30Z</time>
      </trkpt>
      <trkpt lat="59.7113679" lon="17.9668337">
        <ele>43.3966</ele>
        <time>2013-05-30T19:40:31Z</time>
      </trkpt>
      <trkpt lat="59.7114106" lon="17.9667653">
        <ele>43.8773</ele>
        <time>2013-05-30T19:40:32Z</time>
      </trkpt>
      <trkpt lat="59.7114491" lon="17.9667061">
        <ele>43.8773</ele>
        <time>2013-05-30T19:40:33Z</time>
      </trkpt>
      <trkpt lat="59.71149" lon="17.9666533">
        <ele>44.358</ele>
        <time>2013-05-30T19:40:34Z</time>
      </trkpt>
      <trkpt lat="59.7115274" lon="17.9665939">
        <ele>42.916</ele>
        <time>2013-05-30T19:40:35Z</time>
      </trkpt>
      <trkpt lat="59.711563" lon="17.9665298">
        <ele>42.4354</ele>
        <time>2013-05-30T19:40:36Z</time>
      </trkpt>
      <trkpt lat="59.7115984" lon="17.96648">
        <ele>42.4354</ele>
        <time>2013-05-30T19:40:37Z</time>
      </trkpt>
      <trkpt lat="59.7116387" lon="17.9664339">
        <ele>43.3966</ele>
        <time>2013-05-30T19:40:38Z</time>
      </trkpt>
      <trkpt lat="59.7116823" lon="17.9664027">
        <ele>43.8773</ele>
        <time>2013-05-30T19:40:39Z</time>
      </trkpt>
      <trkpt lat="59.7117263" lon="17.9663694">
        <ele>44.358</ele>
        <time>2013-05-30T19:40:40Z</time>
      </trkpt>
      <trkpt lat="59.7117719" lon="17.9663445">
        <ele>44.358</ele>
        <time>2013-05-30T19:40:41Z</time>
      </trkpt>
      <trkpt lat="59.7118263" lon="17.966315">
        <ele>46.2806</ele>
        <time>2013-05-30T19:40:42Z</time>
      </trkpt>
      <trkpt lat="59.7118772" lon="17.9662871">
        <ele>47.2418</ele>
        <time>2013-05-30T19:40:43Z</time>
      </trkpt>
      <trkpt lat="59.7119318" lon="17.9662686">
        <ele>48.2034</ele>
        <time>2013-05-30T19:40:44Z</time>
      </trkpt>
      <trkpt lat="59.7119852" lon="17.9662546">
        <ele>48.684</ele>
        <time>2013-05-30T19:40:45Z</time>
      </trkpt>
      <trkpt lat="59.7120408" lon="17.9662497">
        <ele>48.2034</ele>
        <time>2013-05-30T19:40:46Z</time>
      </trkpt>
      <trkpt lat="59.7120946" lon="17.9662432">
        <ele>46.7612</ele>
        <time>2013-05-30T19:40:47Z</time>
      </trkpt>
      <trkpt lat="59.7121507" lon="17.9662334">
        <ele>47.7225</ele>
        <time>2013-05-30T19:40:48Z</time>
      </trkpt>
      <trkpt lat="59.712208" lon="17.9662373">
        <ele>48.2034</ele>
        <time>2013-05-30T19:40:49Z</time>
      </trkpt>
      <trkpt lat="59.7122644" lon="17.9662437">
        <ele>48.2034</ele>
        <time>2013-05-30T19:40:50Z</time>
      </trkpt>
      <trkpt lat="59.7123213" lon="17.9662614">
        <ele>47.2418</ele>
        <time>2013-05-30T19:40:51Z</time>
      </trkpt>
      <trkpt lat="59.7123768" lon="17.9662841">
        <ele>46.2806</ele>
        <time>2013-05-30T19:40:52Z</time>
      </trkpt>
      <trkpt lat="59.7124396" lon="17.9663007">
        <ele>46.7612</ele>
        <time>2013-05-30T19:40:53Z</time>
      </trkpt>
      <trkpt lat="59.7125044" lon="17.9663119">
        <ele>46.7612</ele>
        <time>2013-05-30T19:40:54Z</time>
      </trkpt>
      <trkpt lat="59.7125718" lon="17.9663112">
        <ele>47.2418</ele>
        <time>2013-05-30T19:40:55Z</time>
      </trkpt>
      <trkpt lat="59.7126396" lon="17.9663043">
        <ele>46.2806</ele>
        <time>2013-05-30T19:40:56Z</time>
      </trkpt>
      <trkpt lat="59.7127065" lon="17.9662722">
        <ele>44.8386</ele>
        <time>2013-05-30T19:40:57Z</time>
      </trkpt>
      <trkpt lat="59.7127706" lon="17.9662243">
        <ele>43.8773</ele>
        <time>2013-05-30T19:40:58Z</time>
      </trkpt>
      <trkpt lat="59.7128343" lon="17.9661567">
        <ele>42.916</ele>
        <time>2013-05-30T19:40:59Z</time>
      </trkpt>
      <trkpt lat="59.7128992" lon="17.9660662">
        <ele>41.9547</ele>
        <time>2013-05-30T19:41:00Z</time>
      </trkpt>
      <trkpt lat="59.7129602" lon="17.9659485">
        <ele>41.474</ele>
        <time>2013-05-30T19:41:01Z</time>
      </trkpt>
      <trkpt lat="59.7130228" lon="17.9658345">
        <ele>41.474</ele>
        <time>2013-05-30T19:41:02Z</time>
      </trkpt>
      <trkpt lat="59.7130869" lon="17.9657185">
        <ele>40.0321</ele>
        <time>2013-05-30T19:41:03Z</time>
      </trkpt>
      <trkpt lat="59.7131579" lon="17.9656142">
        <ele>39.5513</ele>
        <time>2013-05-30T19:41:04Z</time>
      </trkpt>
      <trkpt lat="59.7132347" lon="17.965511">
        <ele>40.0321</ele>
        <time>2013-05-30T19:41:05Z</time>
      </trkpt>
      <trkpt lat="59.71332" lon="17.9653904">
        <ele>39.5513</ele>
        <time>2013-05-30T19:41:06Z</time>
      </trkpt>
      <trkpt lat="59.7134082" lon="17.9652678">
        <ele>40.0321</ele>
        <time>2013-05-30T19:41:07Z</time>
      </trkpt>
      <trkpt lat="59.7134993" lon="17.9651518">
        <ele>40.9934</ele>
        <time>2013-05-30T19:41:08Z</time>
      </trkpt>
      <trkpt lat="59.7135906" lon="17.9650371">
        <ele>41.474</ele>
        <time>2013-05-30T19:41:09Z</time>
      </trkpt>
      <trkpt lat="59.7136853" lon="17.9649319">
        <ele>42.4354</ele>
        <time>2013-05-30T19:41:10Z</time>
      </trkpt>
      <trkpt lat="59.7137819" lon="17.9648351">
        <ele>41.9547</ele>
        <time>2013-05-30T19:41:11Z</time>
      </trkpt>
      <trkpt lat="59.713876" lon="17.9647338">
        <ele>42.4354</ele>
        <time>2013-05-30T19:41:12Z</time>
      </trkpt>
      <trkpt lat="59.7139653" lon="17.9646186">
        <ele>41.9547</ele>
        <time>2013-05-30T19:41:13Z</time>
      </trkpt>
      <trkpt lat="59.7140541" lon="17.9645094">
        <ele>42.4354</ele>
        <time>2013-05-30T19:41:14Z</time>
      </trkpt>
      <trkpt lat="59.7141375" lon="17.9644011">
        <ele>42.916</ele>
        <time>2013-05-30T19:41:15Z</time>
      </trkpt>
      <trkpt lat="59.7142175" lon="17.964293">
        <ele>42.916</ele>
        <time>2013-05-30T19:41:16Z</time>
      </trkpt>
      <trkpt lat="59.7142936" lon="17.9641887">
        <ele>42.916</ele>
        <time>2013-05-30T19:41:17Z</time>
      </trkpt>
      <trkpt lat="59.7143671" lon="17.9640865">
        <ele>42.4354</ele>
        <time>2013-05-30T19:41:18Z</time>
      </trkpt>
      <trkpt lat="59.7144374" lon="17.9639744">
        <ele>42.4354</ele>
        <time>2013-05-30T19:41:19Z</time>
      </trkpt>
      <trkpt lat="59.7145037" lon="17.963864">
        <ele>42.4354</ele>
        <time>2013-05-30T19:41:20Z</time>
      </trkpt>
      <trkpt lat="59.7145684" lon="17.9637527">
        <ele>42.4354</ele>
        <time>2013-05-30T19:41:21Z</time>
      </trkpt>
      <trkpt lat="59.7146335" lon="17.963635">
        <ele>42.916</ele>
        <time>2013-05-30T19:41:22Z</time>
      </trkpt>
      <trkpt lat="59.7147" lon="17.9635172">
        <ele>42.4354</ele>
        <time>2013-05-30T19:41:23Z</time>
      </trkpt>
      <trkpt lat="59.7147717" lon="17.9633936">
        <ele>43.3966</ele>
        <time>2013-05-30T19:41:24Z</time>
      </trkpt>
      <trkpt lat="59.7148484" lon="17.9632732">
        <ele>43.3966</ele>
        <time>2013-05-30T19:41:25Z</time>
      </trkpt>
      <trkpt lat="59.7149302" lon="17.9631414">
        <ele>44.358</ele>
        <time>2013-05-30T19:41:26Z</time>
      </trkpt>
      <trkpt lat="59.7150142" lon="17.9630088">
        <ele>45.7999</ele>
        <time>2013-05-30T19:41:27Z</time>
      </trkpt>
      <trkpt lat="59.7151028" lon="17.9628886">
        <ele>45.7999</ele>
        <time>2013-05-30T19:41:28Z</time>
      </trkpt>
      <trkpt lat="59.7151909" lon="17.9627692">
        <ele>44.8386</ele>
        <time>2013-05-30T19:41:29Z</time>
      </trkpt>
      <trkpt lat="59.7152777" lon="17.9626612">
        <ele>43.8773</ele>
        <time>2013-05-30T19:41:30Z</time>
      </trkpt>
      <trkpt lat="59.7153628" lon="17.9625558">
        <ele>43.3966</ele>
        <time>2013-05-30T19:41:31Z</time>
      </trkpt>
      <trkpt lat="59.7154444" lon="17.9624554">
        <ele>42.916</ele>
        <time>2013-05-30T19:41:32Z</time>
      </trkpt>
      <trkpt lat="59.7155238" lon="17.9623593">
        <ele>42.916</ele>
        <time>2013-05-30T19:41:33Z</time>
      </trkpt>
      <trkpt lat="59.7156008" lon="17.9622644">
        <ele>42.916</ele>
        <time>2013-05-30T19:41:34Z</time>
      </trkpt>
      <trkpt lat="59.7156763" lon="17.9621696">
        <ele>43.3966</ele>
        <time>2013-05-30T19:41:35Z</time>
      </trkpt>
      <trkpt lat="59.7157514" lon="17.9620737">
        <ele>43.3966</ele>
        <time>2013-05-30T19:41:36Z</time>
      </trkpt>
      <trkpt lat="59.7158296" lon="17.9619738">
        <ele>43.8773</ele>
        <time>2013-05-30T19:41:37Z</time>
      </trkpt>
      <trkpt lat="59.7159063" lon="17.961879">
        <ele>42.916</ele>
        <time>2013-05-30T19:41:38Z</time>
      </trkpt>
      <trkpt lat="59.7159837" lon="17.9617856">
        <ele>42.916</ele>
        <time>2013-05-30T19:41:39Z</time>
      </trkpt>
      <trkpt lat="59.7160604" lon="17.9616916">
        <ele>43.3966</ele>
        <time>2013-05-30T19:41:40Z</time>
      </trkpt>
      <trkpt lat="59.7161382" lon="17.9615931">
        <ele>43.3966</ele>
        <time>2013-05-30T19:41:41Z</time>
      </trkpt>
      <trkpt lat="59.7162184" lon="17.9614967">
        <ele>43.8773</ele>
        <time>2013-05-30T19:41:42Z</time>
      </trkpt>
      <trkpt lat="59.7162998" lon="17.9614107">
        <ele>43.8773</ele>
        <time>2013-05-30T19:41:43Z</time>
      </trkpt>
      <trkpt lat="59.7163837" lon="17.961331">
        <ele>44.8386</ele>
        <time>2013-05-30T19:41:44Z</time>
      </trkpt>
      <trkpt lat="59.7164676" lon="17.9612543">
        <ele>45.3192</ele>
        <time>2013-05-30T19:41:45Z</time>
      </trkpt>
      <trkpt lat="59.7165521" lon="17.9611833">
        <ele>45.7999</ele>
        <time>2013-05-30T19:41:46Z</time>
      </trkpt>
      <trkpt lat="59.7166354" lon="17.9611222">
        <ele>45.7999</ele>
        <time>2013-05-30T19:41:47Z</time>
      </trkpt>
      <trkpt lat="59.7167157" lon="17.9610656">
        <ele>45.7999</ele>
        <time>2013-05-30T19:41:48Z</time>
      </trkpt>
      <trkpt lat="59.7167961" lon="17.9610098">
        <ele>46.2806</ele>
        <time>2013-05-30T19:41:49Z</time>
      </trkpt>
      <trkpt lat="59.716876" lon="17.9609631">
        <ele>46.2806</ele>
        <time>2013-05-30T19:41:50Z</time>
      </trkpt>
      <trkpt lat="59.7169565" lon="17.960918">
        <ele>46.2806</ele>
        <time>2013-05-30T19:41:51Z</time>
      </trkpt>
      <trkpt lat="59.7170338" lon="17.9608602">
        <ele>47.2418</ele>
        <time>2013-05-30T19:41:52Z</time>
      </trkpt>
      <trkpt lat="59.7171067" lon="17.9608119">
        <ele>46.2806</ele>
        <time>2013-05-30T19:41:53Z</time>
      </trkpt>
      <trkpt lat="59.7171818" lon="17.9607704">
        <ele>46.7612</ele>
        <time>2013-05-30T19:41:54Z</time>
      </trkpt>
      <trkpt lat="59.7172525" lon="17.9607336">
        <ele>47.2418</ele>
        <time>2013-05-30T19:41:55Z</time>
      </trkpt>
      <trkpt lat="59.7173203" lon="17.9607024">
        <ele>47.7225</ele>
        <time>2013-05-30T19:41:56Z</time>
      </trkpt>
      <trkpt lat="59.717385" lon="17.9606751">
        <ele>47.7225</ele>
        <time>2013-05-30T19:41:57Z</time>
      </trkpt>
      <trkpt lat="59.7174457" lon="17.9606492">
        <ele>48.2034</ele>
        <time>2013-05-30T19:41:58Z</time>
      </trkpt>
      <trkpt lat="59.7175012" lon="17.9606248">
        <ele>48.2034</ele>
        <time>2013-05-30T19:41:59Z</time>
      </trkpt>
      <trkpt lat="59.7175545" lon="17.960601">
        <ele>48.684</ele>
        <time>2013-05-30T19:42:00Z</time>
      </trkpt>
      <trkpt lat="59.7176083" lon="17.9605786">
        <ele>49.1646</ele>
        <time>2013-05-30T19:42:01Z</time>
      </trkpt>
      <trkpt lat="59.7176641" lon="17.9605563">
        <ele>49.6453</ele>
        <time>2013-05-30T19:42:02Z</time>
      </trkpt>
      <trkpt lat="59.7177233" lon="17.9605437">
        <ele>50.126</ele>
        <time>2013-05-30T19:42:03Z</time>
      </trkpt>
      <trkpt lat="59.7177834" lon="17.960533">
        <ele>50.6066</ele>
        <time>2013-05-30T19:42:04Z</time>
      </trkpt>
      <trkpt lat="59.717845" lon="17.9605165">
        <ele>51.0872</ele>
        <time>2013-05-30T19:42:05Z</time>
      </trkpt>
      <trkpt lat="59.7179122" lon="17.9604882">
        <ele>51.0872</ele>
        <time>2013-05-30T19:42:06Z</time>
      </trkpt>
      <trkpt lat="59.7179855" lon="17.960441">
        <ele>51.5679</ele>
        <time>2013-05-30T19:42:07Z</time>
      </trkpt>
      <trkpt lat="59.7180635" lon="17.9603885">
        <ele>50.6066</ele>
        <time>2013-05-30T19:42:08Z</time>
      </trkpt>
      <trkpt lat="59.7181445" lon="17.9603251">
        <ele>50.126</ele>
        <time>2013-05-30T19:42:09Z</time>
      </trkpt>
      <trkpt lat="59.7182279" lon="17.9602589">
        <ele>49.6453</ele>
        <time>2013-05-30T19:42:10Z</time>
      </trkpt>
      <trkpt lat="59.7183174" lon="17.9601866">
        <ele>49.6453</ele>
        <time>2013-05-30T19:42:11Z</time>
      </trkpt>
      <trkpt lat="59.7184117" lon="17.960124">
        <ele>49.1646</ele>
        <time>2013-05-30T19:42:12Z</time>
      </trkpt>
      <trkpt lat="59.71851" lon="17.9600719">
        <ele>48.684</ele>
        <time>2013-05-30T19:42:13Z</time>
      </trkpt>
      <trkpt lat="59.718612" lon="17.9600312">
        <ele>48.684</ele>
        <time>2013-05-30T19:42:14Z</time>
      </trkpt>
      <trkpt lat="59.7187159" lon="17.9600094">
        <ele>48.684</ele>
        <time>2013-05-30T19:42:15Z</time>
      </trkpt>
      <trkpt lat="59.7188237" lon="17.960003">
        <ele>48.684</ele>
        <time>2013-05-30T19:42:16Z</time>
      </trkpt>
      <trkpt lat="59.7189297" lon="17.9600142">
        <ele>43.8773</ele>
        <time>2013-05-30T19:42:17Z</time>
      </trkpt>
      <trkpt lat="59.7190378" lon="17.9600549">
        <ele>41.9547</ele>
        <time>2013-05-30T19:42:18Z</time>
      </trkpt>
      <trkpt lat="59.7191437" lon="17.9601135">
        <ele>41.474</ele>
        <time>2013-05-30T19:42:19Z</time>
      </trkpt>
      <trkpt lat="59.7192478" lon="17.960172">
        <ele>40.9934</ele>
        <time>2013-05-30T19:42:20Z</time>
      </trkpt>
      <trkpt lat="59.7193497" lon="17.9602354">
        <ele>40.5128</ele>
        <time>2013-05-30T19:42:21Z</time>
      </trkpt>
      <trkpt lat="59.7194493" lon="17.9603001">
        <ele>40.0321</ele>
        <time>2013-05-30T19:42:22Z</time>
      </trkpt>
      <trkpt lat="59.7195475" lon="17.9603618">
        <ele>40.0321</ele>
        <time>2013-05-30T19:42:23Z</time>
      </trkpt>
      <trkpt lat="59.7196436" lon="17.960424">
        <ele>39.0707</ele>
        <time>2013-05-30T19:42:24Z</time>
      </trkpt>
      <trkpt lat="59.719738" lon="17.9604845">
        <ele>38.5901</ele>
        <time>2013-05-30T19:42:25Z</time>
      </trkpt>
      <trkpt lat="59.7198322" lon="17.9605394">
        <ele>37.6287</ele>
        <time>2013-05-30T19:42:26Z</time>
      </trkpt>
      <trkpt lat="59.7199257" lon="17.9605922">
        <ele>36.6675</ele>
        <time>2013-05-30T19:42:27Z</time>
      </trkpt>
      <trkpt lat="59.7200169" lon="17.9606492">
        <ele>35.2255</ele>
        <time>2013-05-30T19:42:28Z</time>
      </trkpt>
      <trkpt lat="59.7201098" lon="17.9606978">
        <ele>34.7449</ele>
        <time>2013-05-30T19:42:29Z</time>
      </trkpt>
      <trkpt lat="59.7202019" lon="17.9607404">
        <ele>33.7834</ele>
        <time>2013-05-30T19:42:30Z</time>
      </trkpt>
      <trkpt lat="59.7202933" lon="17.9607788">
        <ele>33.3029</ele>
        <time>2013-05-30T19:42:31Z</time>
      </trkpt>
      <trkpt lat="59.7203842" lon="17.9608124">
        <ele>32.8223</ele>
        <time>2013-05-30T19:42:32Z</time>
      </trkpt>
      <trkpt lat="59.7204755" lon="17.9608388">
        <ele>32.8223</ele>
        <time>2013-05-30T19:42:33Z</time>
      </trkpt>
      <trkpt lat="59.7205739" lon="17.9608529">
        <ele>33.3029</ele>
        <time>2013-05-30T19:42:34Z</time>
      </trkpt>
      <trkpt lat="59.7206672" lon="17.960872">
        <ele>33.3029</ele>
        <time>2013-05-30T19:42:35Z</time>
      </trkpt>
      <trkpt lat="59.7207613" lon="17.9608837">
        <ele>33.3029</ele>
        <time>2013-05-30T19:42:36Z</time>
      </trkpt>
      <trkpt lat="59.7208548" lon="17.9608904">
        <ele>33.3029</ele>
        <time>2013-05-30T19:42:37Z</time>
      </trkpt>
      <trkpt lat="59.7209479" lon="17.9608909">
        <ele>32.8223</ele>
        <time>2013-05-30T19:42:38Z</time>
      </trkpt>
      <trkpt lat="59.7210417" lon="17.9608876">
        <ele>32.8223</ele>
        <time>2013-05-30T19:42:39Z</time>
      </trkpt>
      <trkpt lat="59.7211344" lon="17.9608709">
        <ele>33.7834</ele>
        <time>2013-05-30T19:42:40Z</time>
      </trkpt>
      <trkpt lat="59.7212209" lon="17.96085">
        <ele>33.3029</ele>
        <time>2013-05-30T19:42:41Z</time>
      </trkpt>
      <trkpt lat="59.7213081" lon="17.9608247">
        <ele>33.3029</ele>
        <time>2013-05-30T19:42:42Z</time>
      </trkpt>
      <trkpt lat="59.7213943" lon="17.9607958">
        <ele>33.7834</ele>
        <time>2013-05-30T19:42:43Z</time>
      </trkpt>
      <trkpt lat="59.7214779" lon="17.9607658">
        <ele>33.7834</ele>
        <time>2013-05-30T19:42:44Z</time>
      </trkpt>
      <trkpt lat="59.7215623" lon="17.9607341">
        <ele>33.7834</ele>
        <time>2013-05-30T19:42:45Z</time>
      </trkpt>
      <trkpt lat="59.7216478" lon="17.9606985">
        <ele>33.7834</ele>
        <time>2013-05-30T19:42:46Z</time>
      </trkpt>
      <trkpt lat="59.7217322" lon="17.9606649">
        <ele>33.7834</ele>
        <time>2013-05-30T19:42:47Z</time>
      </trkpt>
      <trkpt lat="59.7218182" lon="17.9606304">
        <ele>33.7834</ele>
        <time>2013-05-30T19:42:48Z</time>
      </trkpt>
      <trkpt lat="59.7219047" lon="17.9605967">
        <ele>33.7834</ele>
        <time>2013-05-30T19:42:49Z</time>
      </trkpt>
      <trkpt lat="59.7219916" lon="17.9605627">
        <ele>34.2642</ele>
        <time>2013-05-30T19:42:50Z</time>
      </trkpt>
      <trkpt lat="59.7220766" lon="17.9605293">
        <ele>33.7834</ele>
        <time>2013-05-30T19:42:51Z</time>
      </trkpt>
      <trkpt lat="59.722161" lon="17.9604959">
        <ele>33.7834</ele>
        <time>2013-05-30T19:42:52Z</time>
      </trkpt>
      <trkpt lat="59.7222449" lon="17.9604627">
        <ele>34.2642</ele>
        <time>2013-05-30T19:42:53Z</time>
      </trkpt>
      <trkpt lat="59.7223268" lon="17.9604292">
        <ele>33.7834</ele>
        <time>2013-05-30T19:42:54Z</time>
      </trkpt>
      <trkpt lat="59.722408" lon="17.9603928">
        <ele>32.8223</ele>
        <time>2013-05-30T19:42:55Z</time>
      </trkpt>
      <trkpt lat="59.7224915" lon="17.9603534">
        <ele>32.3416</ele>
        <time>2013-05-30T19:42:56Z</time>
      </trkpt>
      <trkpt lat="59.722575" lon="17.960309">
        <ele>32.8223</ele>
        <time>2013-05-30T19:42:57Z</time>
      </trkpt>
      <trkpt lat="59.722657" lon="17.9602597">
        <ele>32.8223</ele>
        <time>2013-05-30T19:42:58Z</time>
      </trkpt>
      <trkpt lat="59.7227365" lon="17.9602018">
        <ele>32.8223</ele>
        <time>2013-05-30T19:42:59Z</time>
      </trkpt>
      <trkpt lat="59.7228132" lon="17.9601352">
        <ele>33.3029</ele>
        <time>2013-05-30T19:43:00Z</time>
      </trkpt>
      <trkpt lat="59.7228856" lon="17.9600616">
        <ele>33.7834</ele>
        <time>2013-05-30T19:43:01Z</time>
      </trkpt>
      <trkpt lat="59.7229526" lon="17.9599759">
        <ele>33.7834</ele>
        <time>2013-05-30T19:43:02Z</time>
      </trkpt>
      <trkpt lat="59.7230173" lon="17.9598872">
        <ele>34.2642</ele>
        <time>2013-05-30T19:43:03Z</time>
      </trkpt>
      <trkpt lat="59.7230826" lon="17.9597908">
        <ele>34.2642</ele>
        <time>2013-05-30T19:43:04Z</time>
      </trkpt>
      <trkpt lat="59.7231479" lon="17.9596967">
        <ele>35.2255</ele>
        <time>2013-05-30T19:43:05Z</time>
      </trkpt>
      <trkpt lat="59.7232111" lon="17.9595955">
        <ele>36.1868</ele>
        <time>2013-05-30T19:43:06Z</time>
      </trkpt>
      <trkpt lat="59.7232708" lon="17.9594903">
        <ele>36.1868</ele>
        <time>2013-05-30T19:43:07Z</time>
      </trkpt>
      <trkpt lat="59.7233269" lon="17.9593718">
        <ele>35.7061</ele>
        <time>2013-05-30T19:43:08Z</time>
      </trkpt>
      <trkpt lat="59.7233795" lon="17.9592531">
        <ele>35.7061</ele>
        <time>2013-05-30T19:43:09Z</time>
      </trkpt>
      <trkpt lat="59.7234274" lon="17.959136">
        <ele>35.7061</ele>
        <time>2013-05-30T19:43:10Z</time>
      </trkpt>
      <trkpt lat="59.723479" lon="17.9590305">
        <ele>34.7449</ele>
        <time>2013-05-30T19:43:11Z</time>
      </trkpt>
      <trkpt lat="59.7235259" lon="17.9589211">
        <ele>34.7449</ele>
        <time>2013-05-30T19:43:12Z</time>
      </trkpt>
      <trkpt lat="59.7235722" lon="17.9588029">
        <ele>34.2642</ele>
        <time>2013-05-30T19:43:13Z</time>
      </trkpt>
      <trkpt lat="59.7236146" lon="17.9586834">
        <ele>32.8223</ele>
        <time>2013-05-30T19:43:14Z</time>
      </trkpt>
      <trkpt lat="59.7236591" lon="17.9585684">
        <ele>32.8223</ele>
        <time>2013-05-30T19:43:15Z</time>
      </trkpt>
      <trkpt lat="59.7237043" lon="17.958442">
        <ele>32.3416</ele>
        <time>2013-05-30T19:43:16Z</time>
      </trkpt>
      <trkpt lat="59.7237467" lon="17.9583128">
        <ele>31.8607</ele>
        <time>2013-05-30T19:43:17Z</time>
      </trkpt>
      <trkpt lat="59.7237862" lon="17.9581944">
        <ele>31.3801</ele>
        <time>2013-05-30T19:43:18Z</time>
      </trkpt>
      <trkpt lat="59.7238313" lon="17.9580826">
        <ele>31.3801</ele>
        <time>2013-05-30T19:43:19Z</time>
      </trkpt>
      <trkpt lat="59.7238743" lon="17.9579795">
        <ele>30.8995</ele>
        <time>2013-05-30T19:43:20Z</time>
      </trkpt>
      <trkpt lat="59.7239213" lon="17.9578601">
        <ele>30.8995</ele>
        <time>2013-05-30T19:43:21Z</time>
      </trkpt>
      <trkpt lat="59.7239727" lon="17.9577582">
        <ele>31.8607</ele>
        <time>2013-05-30T19:43:22Z</time>
      </trkpt>
      <trkpt lat="59.7240259" lon="17.9576696">
        <ele>33.3029</ele>
        <time>2013-05-30T19:43:23Z</time>
      </trkpt>
      <trkpt lat="59.7240804" lon="17.9575867">
        <ele>32.8223</ele>
        <time>2013-05-30T19:43:24Z</time>
      </trkpt>
      <trkpt lat="59.7241382" lon="17.9575073">
        <ele>33.7834</ele>
        <time>2013-05-30T19:43:25Z</time>
      </trkpt>
      <trkpt lat="59.7242034" lon="17.9574468">
        <ele>35.2255</ele>
        <time>2013-05-30T19:43:26Z</time>
      </trkpt>
      <trkpt lat="59.7242675" lon="17.9573972">
        <ele>36.1868</ele>
        <time>2013-05-30T19:43:27Z</time>
      </trkpt>
      <trkpt lat="59.7243274" lon="17.9573565">
        <ele>37.1481</ele>
        <time>2013-05-30T19:43:28Z</time>
      </trkpt>
      <trkpt lat="59.7243907" lon="17.9573249">
        <ele>38.1094</ele>
        <time>2013-05-30T19:43:29Z</time>
      </trkpt>
      <trkpt lat="59.7244532" lon="17.9573065">
        <ele>38.5901</ele>
        <time>2013-05-30T19:43:30Z</time>
      </trkpt>
      <trkpt lat="59.7245148" lon="17.9572972">
        <ele>39.0707</ele>
        <time>2013-05-30T19:43:31Z</time>
      </trkpt>
      <trkpt lat="59.7245788" lon="17.9572852">
        <ele>39.5513</ele>
        <time>2013-05-30T19:43:32Z</time>
      </trkpt>
      <trkpt lat="59.7246415" lon="17.9572816">
        <ele>40.0321</ele>
        <time>2013-05-30T19:43:33Z</time>
      </trkpt>
      <trkpt lat="59.7247031" lon="17.9572797">
        <ele>40.9934</ele>
        <time>2013-05-30T19:43:34Z</time>
      </trkpt>
      <trkpt lat="59.7247662" lon="17.9572796">
        <ele>40.9934</ele>
        <time>2013-05-30T19:43:35Z</time>
      </trkpt>
      <trkpt lat="59.7248305" lon="17.9572853">
        <ele>41.474</ele>
        <time>2013-05-30T19:43:36Z</time>
      </trkpt>
      <trkpt lat="59.7248946" lon="17.9572887">
        <ele>41.474</ele>
        <time>2013-05-30T19:43:37Z</time>
      </trkpt>
      <trkpt lat="59.7249599" lon="17.9572887">
        <ele>41.474</ele>
        <time>2013-05-30T19:43:38Z</time>
      </trkpt>
      <trkpt lat="59.7250235" lon="17.9572878">
        <ele>41.474</ele>
        <time>2013-05-30T19:43:39Z</time>
      </trkpt>
      <trkpt lat="59.7250887" lon="17.9572856">
        <ele>41.474</ele>
        <time>2013-05-30T19:43:40Z</time>
      </trkpt>
      <trkpt lat="59.7251558" lon="17.9572738">
        <ele>42.4354</ele>
        <time>2013-05-30T19:43:41Z</time>
      </trkpt>
      <trkpt lat="59.7252236" lon="17.9572671">
        <ele>42.4354</ele>
        <time>2013-05-30T19:43:42Z</time>
      </trkpt>
      <trkpt lat="59.725293" lon="17.9572553">
        <ele>42.916</ele>
        <time>2013-05-30T19:43:43Z</time>
      </trkpt>
      <trkpt lat="59.7253632" lon="17.9572462">
        <ele>42.4354</ele>
        <time>2013-05-30T19:43:44Z</time>
      </trkpt>
      <trkpt lat="59.7254353" lon="17.9572428">
        <ele>42.916</ele>
        <time>2013-05-30T19:43:45Z</time>
      </trkpt>
      <trkpt lat="59.7255088" lon="17.9572393">
        <ele>42.4354</ele>
        <time>2013-05-30T19:43:46Z</time>
      </trkpt>
      <trkpt lat="59.7255842" lon="17.9572408">
        <ele>42.916</ele>
        <time>2013-05-30T19:43:47Z</time>
      </trkpt>
      <trkpt lat="59.7256614" lon="17.9572426">
        <ele>42.916</ele>
        <time>2013-05-30T19:43:48Z</time>
      </trkpt>
      <trkpt lat="59.7257385" lon="17.9572449">
        <ele>42.916</ele>
        <time>2013-05-30T19:43:49Z</time>
      </trkpt>
      <trkpt lat="59.7258178" lon="17.9572458">
        <ele>42.916</ele>
        <time>2013-05-30T19:43:50Z</time>
      </trkpt>
      <trkpt lat="59.725898" lon="17.9572424">
        <ele>42.4354</ele>
        <time>2013-05-30T19:43:51Z</time>
      </trkpt>
      <trkpt lat="59.7259768" lon="17.9572395">
        <ele>41.474</ele>
        <time>2013-05-30T19:43:52Z</time>
      </trkpt>
      <trkpt lat="59.7260586" lon="17.9572355">
        <ele>41.474</ele>
        <time>2013-05-30T19:43:53Z</time>
      </trkpt>
      <trkpt lat="59.7261431" lon="17.9572318">
        <ele>41.474</ele>
        <time>2013-05-30T19:43:54Z</time>
      </trkpt>
      <trkpt lat="59.7262285" lon="17.9572279">
        <ele>40.9934</ele>
        <time>2013-05-30T19:43:55Z</time>
      </trkpt>
      <trkpt lat="59.7263151" lon="17.9572227">
        <ele>40.9934</ele>
        <time>2013-05-30T19:43:56Z</time>
      </trkpt>
      <trkpt lat="59.7264041" lon="17.9572198">
        <ele>40.9934</ele>
        <time>2013-05-30T19:43:57Z</time>
      </trkpt>
      <trkpt lat="59.7264932" lon="17.9572191">
        <ele>40.5128</ele>
        <time>2013-05-30T19:43:58Z</time>
      </trkpt>
      <trkpt lat="59.7265858" lon="17.9572175">
        <ele>40.5128</ele>
        <time>2013-05-30T19:43:59Z</time>
      </trkpt>
      <trkpt lat="59.7266791" lon="17.9572148">
        <ele>40.0321</ele>
        <time>2013-05-30T19:44:00Z</time>
      </trkpt>
      <trkpt lat="59.7267734" lon="17.9572095">
        <ele>40.0321</ele>
        <time>2013-05-30T19:44:01Z</time>
      </trkpt>
      <trkpt lat="59.7268704" lon="17.9572042">
        <ele>40.0321</ele>
        <time>2013-05-30T19:44:02Z</time>
      </trkpt>
      <trkpt lat="59.7269693" lon="17.9572001">
        <ele>40.5128</ele>
        <time>2013-05-30T19:44:03Z</time>
      </trkpt>
      <trkpt lat="59.7270667" lon="17.9571963">
        <ele>41.474</ele>
        <time>2013-05-30T19:44:04Z</time>
      </trkpt>
      <trkpt lat="59.7271631" lon="17.9571923">
        <ele>41.474</ele>
        <time>2013-05-30T19:44:05Z</time>
      </trkpt>
      <trkpt lat="59.7272581" lon="17.9571894">
        <ele>41.474</ele>
        <time>2013-05-30T19:44:06Z</time>
      </trkpt>
      <trkpt lat="59.7273401" lon="17.9571825">
        <ele>35.7061</ele>
        <time>2013-05-30T19:44:07Z</time>
      </trkpt>
      <trkpt lat="59.7274338" lon="17.9571771">
        <ele>34.2642</ele>
        <time>2013-05-30T19:44:08Z</time>
      </trkpt>
      <trkpt lat="59.72752" lon="17.9571678">
        <ele>29.4575</ele>
        <time>2013-05-30T19:44:09Z</time>
      </trkpt>
      <trkpt lat="59.7276161" lon="17.9571615">
        <ele>28.0155</ele>
        <time>2013-05-30T19:44:10Z</time>
      </trkpt>
      <trkpt lat="59.7277106" lon="17.957155">
        <ele>25.6123</ele>
        <time>2013-05-30T19:44:11Z</time>
      </trkpt>
      <trkpt lat="59.7278049" lon="17.9571511">
        <ele>24.1703</ele>
        <time>2013-05-30T19:44:12Z</time>
      </trkpt>
      <trkpt lat="59.727901" lon="17.9571485">
        <ele>24.1703</ele>
        <time>2013-05-30T19:44:13Z</time>
      </trkpt>
      <trkpt lat="59.7279986" lon="17.9571483">
        <ele>23.6896</ele>
        <time>2013-05-30T19:44:14Z</time>
      </trkpt>
      <trkpt lat="59.7280979" lon="17.9571417">
        <ele>22.7283</ele>
        <time>2013-05-30T19:44:15Z</time>
      </trkpt>
      <trkpt lat="59.7281989" lon="17.9571278">
        <ele>22.2476</ele>
        <time>2013-05-30T19:44:16Z</time>
      </trkpt>
      <trkpt lat="59.7283043" lon="17.9571179">
        <ele>22.2476</ele>
        <time>2013-05-30T19:44:17Z</time>
      </trkpt>
      <trkpt lat="59.7284162" lon="17.9571092">
        <ele>21.767</ele>
        <time>2013-05-30T19:44:18Z</time>
      </trkpt>
      <trkpt lat="59.7285289" lon="17.95709">
        <ele>21.2864</ele>
        <time>2013-05-30T19:44:19Z</time>
      </trkpt>
      <trkpt lat="59.7286397" lon="17.9570559">
        <ele>20.8057</ele>
        <time>2013-05-30T19:44:20Z</time>
      </trkpt>
      <trkpt lat="59.72875" lon="17.9570097">
        <ele>20.325</ele>
        <time>2013-05-30T19:44:21Z</time>
      </trkpt>
      <trkpt lat="59.7288591" lon="17.9569546">
        <ele>20.325</ele>
        <time>2013-05-30T19:44:22Z</time>
      </trkpt>
      <trkpt lat="59.7289673" lon="17.9568909">
        <ele>20.325</ele>
        <time>2013-05-30T19:44:23Z</time>
      </trkpt>
      <trkpt lat="59.7290719" lon="17.9568179">
        <ele>19.3638</ele>
        <time>2013-05-30T19:44:24Z</time>
      </trkpt>
      <trkpt lat="59.7291739" lon="17.9567356">
        <ele>18.8831</ele>
        <time>2013-05-30T19:44:25Z</time>
      </trkpt>
      <trkpt lat="59.7292791" lon="17.9566412">
        <ele>20.8057</ele>
        <time>2013-05-30T19:44:26Z</time>
      </trkpt>
      <trkpt lat="59.7293765" lon="17.9565343">
        <ele>20.325</ele>
        <time>2013-05-30T19:44:27Z</time>
      </trkpt>
      <trkpt lat="59.7294722" lon="17.956425">
        <ele>19.3638</ele>
        <time>2013-05-30T19:44:28Z</time>
      </trkpt>
      <trkpt lat="59.7295681" lon="17.956311">
        <ele>18.8831</ele>
        <time>2013-05-30T19:44:29Z</time>
      </trkpt>
      <trkpt lat="59.7296613" lon="17.9561893">
        <ele>17.9218</ele>
        <time>2013-05-30T19:44:30Z</time>
      </trkpt>
      <trkpt lat="59.72975" lon="17.9560613">
        <ele>16.4797</ele>
        <time>2013-05-30T19:44:31Z</time>
      </trkpt>
      <trkpt lat="59.7298307" lon="17.9559286">
        <ele>15.5184</ele>
        <time>2013-05-30T19:44:32Z</time>
      </trkpt>
      <trkpt lat="59.7299096" lon="17.9557903">
        <ele>15.5184</ele>
        <time>2013-05-30T19:44:33Z</time>
      </trkpt>
      <trkpt lat="59.7299819" lon="17.9556521">
        <ele>15.0377</ele>
        <time>2013-05-30T19:44:34Z</time>
      </trkpt>
      <trkpt lat="59.7300512" lon="17.9555126">
        <ele>14.557</ele>
        <time>2013-05-30T19:44:35Z</time>
      </trkpt>
      <trkpt lat="59.7301188" lon="17.9553685">
        <ele>13.5958</ele>
        <time>2013-05-30T19:44:36Z</time>
      </trkpt>
      <trkpt lat="59.7301847" lon="17.9552183">
        <ele>13.1151</ele>
        <time>2013-05-30T19:44:37Z</time>
      </trkpt>
      <trkpt lat="59.7302496" lon="17.9550621">
        <ele>12.1538</ele>
        <time>2013-05-30T19:44:38Z</time>
      </trkpt>
      <trkpt lat="59.7303069" lon="17.9548952">
        <ele>12.6344</ele>
        <time>2013-05-30T19:44:39Z</time>
      </trkpt>
      <trkpt lat="59.7303627" lon="17.9547264">
        <ele>12.6344</ele>
        <time>2013-05-30T19:44:40Z</time>
      </trkpt>
      <trkpt lat="59.7304172" lon="17.9545652">
        <ele>12.6344</ele>
        <time>2013-05-30T19:44:41Z</time>
      </trkpt>
      <trkpt lat="59.7304747" lon="17.9544032">
        <ele>13.1151</ele>
        <time>2013-05-30T19:44:42Z</time>
      </trkpt>
      <trkpt lat="59.7305295" lon="17.954244">
        <ele>13.5958</ele>
        <time>2013-05-30T19:44:43Z</time>
      </trkpt>
      <trkpt lat="59.7305799" lon="17.9540835">
        <ele>13.5958</ele>
        <time>2013-05-30T19:44:44Z</time>
      </trkpt>
      <trkpt lat="59.730631" lon="17.9539281">
        <ele>12.1538</ele>
        <time>2013-05-30T19:44:45Z</time>
      </trkpt>
      <trkpt lat="59.7306856" lon="17.9537737">
        <ele>12.1538</ele>
        <time>2013-05-30T19:44:46Z</time>
      </trkpt>
      <trkpt lat="59.7307424" lon="17.9536241">
        <ele>11.6732</ele>
        <time>2013-05-30T19:44:47Z</time>
      </trkpt>
      <trkpt lat="59.730801" lon="17.9534696">
        <ele>12.1538</ele>
        <time>2013-05-30T19:44:48Z</time>
      </trkpt>
      <trkpt lat="59.7308559" lon="17.9533121">
        <ele>11.1925</ele>
        <time>2013-05-30T19:44:49Z</time>
      </trkpt>
      <trkpt lat="59.7309144" lon="17.9531446">
        <ele>13.1151</ele>
        <time>2013-05-30T19:44:50Z</time>
      </trkpt>
      <trkpt lat="59.7309735" lon="17.9529822">
        <ele>13.1151</ele>
        <time>2013-05-30T19:44:51Z</time>
      </trkpt>
      <trkpt lat="59.7310314" lon="17.9528188">
        <ele>13.1151</ele>
        <time>2013-05-30T19:44:52Z</time>
      </trkpt>
      <trkpt lat="59.7310868" lon="17.9526532">
        <ele>12.6344</ele>
        <time>2013-05-30T19:44:53Z</time>
      </trkpt>
      <trkpt lat="59.7311451" lon="17.9524911">
        <ele>13.1151</ele>
        <time>2013-05-30T19:44:54Z</time>
      </trkpt>
      <trkpt lat="59.7312029" lon="17.9523344">
        <ele>14.0764</ele>
        <time>2013-05-30T19:44:55Z</time>
      </trkpt>
      <trkpt lat="59.73126" lon="17.9521823">
        <ele>14.557</ele>
        <time>2013-05-30T19:44:56Z</time>
      </trkpt>
      <trkpt lat="59.7313183" lon="17.9520388">
        <ele>15.0377</ele>
        <time>2013-05-30T19:44:57Z</time>
      </trkpt>
      <trkpt lat="59.7313765" lon="17.9519">
        <ele>15.0377</ele>
        <time>2013-05-30T19:44:58Z</time>
      </trkpt>
      <trkpt lat="59.7314366" lon="17.951772">
        <ele>15.0377</ele>
        <time>2013-05-30T19:44:59Z</time>
      </trkpt>
      <trkpt lat="59.7314989" lon="17.9516534">
        <ele>15.5184</ele>
        <time>2013-05-30T19:45:00Z</time>
      </trkpt>
      <trkpt lat="59.7315578" lon="17.9515243">
        <ele>15.999</ele>
        <time>2013-05-30T19:45:01Z</time>
      </trkpt>
      <trkpt lat="59.7316112" lon="17.9513794">
        <ele>16.9604</ele>
        <time>2013-05-30T19:45:02Z</time>
      </trkpt>
      <trkpt lat="59.7316633" lon="17.951237">
        <ele>17.9218</ele>
        <time>2013-05-30T19:45:03Z</time>
      </trkpt>
      <trkpt lat="59.7317157" lon="17.9510636">
        <ele>17.9218</ele>
        <time>2013-05-30T19:45:04Z</time>
      </trkpt>
      <trkpt lat="59.7317664" lon="17.9509049">
        <ele>17.9218</ele>
        <time>2013-05-30T19:45:05Z</time>
      </trkpt>
      <trkpt lat="59.731813" lon="17.9507422">
        <ele>17.9218</ele>
        <time>2013-05-30T19:45:06Z</time>
      </trkpt>
      <trkpt lat="59.7318571" lon="17.9505724">
        <ele>17.9218</ele>
        <time>2013-05-30T19:45:07Z</time>
      </trkpt>
      <trkpt lat="59.7319028" lon="17.9504051">
        <ele>17.9218</ele>
        <time>2013-05-30T19:45:08Z</time>
      </trkpt>
      <trkpt lat="59.7319479" lon="17.9502365">
        <ele>18.4023</ele>
        <time>2013-05-30T19:45:09Z</time>
      </trkpt>
      <trkpt lat="59.7319891" lon="17.9500605">
        <ele>18.8831</ele>
        <time>2013-05-30T19:45:10Z</time>
      </trkpt>
      <trkpt lat="59.7320276" lon="17.9498845">
        <ele>19.3638</ele>
        <time>2013-05-30T19:45:11Z</time>
      </trkpt>
      <trkpt lat="59.7320668" lon="17.9497151">
        <ele>18.8831</ele>
        <time>2013-05-30T19:45:12Z</time>
      </trkpt>
      <trkpt lat="59.7321068" lon="17.9495441">
        <ele>18.4023</ele>
        <time>2013-05-30T19:45:13Z</time>
      </trkpt>
      <trkpt lat="59.7321462" lon="17.9493773">
        <ele>19.3638</ele>
        <time>2013-05-30T19:45:14Z</time>
      </trkpt>
      <trkpt lat="59.7321866" lon="17.9492136">
        <ele>19.3638</ele>
        <time>2013-05-30T19:45:15Z</time>
      </trkpt>
      <trkpt lat="59.732224" lon="17.9490463">
        <ele>19.3638</ele>
        <time>2013-05-30T19:45:16Z</time>
      </trkpt>
      <trkpt lat="59.7322592" lon="17.9488693">
        <ele>19.8444</ele>
        <time>2013-05-30T19:45:17Z</time>
      </trkpt>
      <trkpt lat="59.7322929" lon="17.9486828">
        <ele>19.8444</ele>
        <time>2013-05-30T19:45:18Z</time>
      </trkpt>
      <trkpt lat="59.7323245" lon="17.9484957">
        <ele>20.325</ele>
        <time>2013-05-30T19:45:19Z</time>
      </trkpt>
      <trkpt lat="59.7323557" lon="17.9483195">
        <ele>19.8444</ele>
        <time>2013-05-30T19:45:20Z</time>
      </trkpt>
      <trkpt lat="59.7323892" lon="17.9481499">
        <ele>18.8831</ele>
        <time>2013-05-30T19:45:21Z</time>
      </trkpt>
      <trkpt lat="59.7324224" lon="17.9479838">
        <ele>18.8831</ele>
        <time>2013-05-30T19:45:22Z</time>
      </trkpt>
      <trkpt lat="59.7324585" lon="17.9478072">
        <ele>18.8831</ele>
        <time>2013-05-30T19:45:23Z</time>
      </trkpt>
      <trkpt lat="59.7324907" lon="17.947634">
        <ele>18.8831</ele>
        <time>2013-05-30T19:45:24Z</time>
      </trkpt>
      <trkpt lat="59.7325219" lon="17.9474638">
        <ele>18.8831</ele>
        <time>2013-05-30T19:45:25Z</time>
      </trkpt>
      <trkpt lat="59.7325527" lon="17.9472895">
        <ele>18.8831</ele>
        <time>2013-05-30T19:45:26Z</time>
      </trkpt>
      <trkpt lat="59.7325898" lon="17.9471168">
        <ele>19.8444</ele>
        <time>2013-05-30T19:45:27Z</time>
      </trkpt>
      <trkpt lat="59.7326258" lon="17.9469432">
        <ele>20.325</ele>
        <time>2013-05-30T19:45:28Z</time>
      </trkpt>
      <trkpt lat="59.7326626" lon="17.9467676">
        <ele>20.325</ele>
        <time>2013-05-30T19:45:29Z</time>
      </trkpt>
      <trkpt lat="59.7327038" lon="17.9465928">
        <ele>21.767</ele>
        <time>2013-05-30T19:45:30Z</time>
      </trkpt>
      <trkpt lat="59.7327447" lon="17.9464184">
        <ele>22.7283</ele>
        <time>2013-05-30T19:45:31Z</time>
      </trkpt>
      <trkpt lat="59.7327875" lon="17.9462455">
        <ele>23.6896</ele>
        <time>2013-05-30T19:45:32Z</time>
      </trkpt>
      <trkpt lat="59.7328285" lon="17.9460722">
        <ele>24.1703</ele>
        <time>2013-05-30T19:45:33Z</time>
      </trkpt>
      <trkpt lat="59.7328694" lon="17.9458962">
        <ele>24.651</ele>
        <time>2013-05-30T19:45:34Z</time>
      </trkpt>
      <trkpt lat="59.7329122" lon="17.9457232">
        <ele>25.1317</ele>
        <time>2013-05-30T19:45:35Z</time>
      </trkpt>
      <trkpt lat="59.7329569" lon="17.945558">
        <ele>25.1317</ele>
        <time>2013-05-30T19:45:36Z</time>
      </trkpt>
      <trkpt lat="59.7330034" lon="17.945389">
        <ele>25.6123</ele>
        <time>2013-05-30T19:45:37Z</time>
      </trkpt>
      <trkpt lat="59.7330493" lon="17.9452254">
        <ele>25.1317</ele>
        <time>2013-05-30T19:45:38Z</time>
      </trkpt>
      <trkpt lat="59.7330964" lon="17.9450531">
        <ele>25.6123</ele>
        <time>2013-05-30T19:45:39Z</time>
      </trkpt>
      <trkpt lat="59.7331438" lon="17.9448793">
        <ele>25.1317</ele>
        <time>2013-05-30T19:45:40Z</time>
      </trkpt>
      <trkpt lat="59.7331904" lon="17.9447081">
        <ele>24.651</ele>
        <time>2013-05-30T19:45:41Z</time>
      </trkpt>
      <trkpt lat="59.7332399" lon="17.9445391">
        <ele>24.651</ele>
        <time>2013-05-30T19:45:42Z</time>
      </trkpt>
      <trkpt lat="59.7332886" lon="17.9443693">
        <ele>24.1703</ele>
        <time>2013-05-30T19:45:43Z</time>
      </trkpt>
      <trkpt lat="59.7333352" lon="17.9442044">
        <ele>23.209</ele>
        <time>2013-05-30T19:45:44Z</time>
      </trkpt>
      <trkpt lat="59.7333803" lon="17.9440385">
        <ele>22.2476</ele>
        <time>2013-05-30T19:45:45Z</time>
      </trkpt>
      <trkpt lat="59.7334221" lon="17.9438697">
        <ele>21.2864</ele>
        <time>2013-05-30T19:45:46Z</time>
      </trkpt>
      <trkpt lat="59.7334678" lon="17.9436987">
        <ele>21.767</ele>
        <time>2013-05-30T19:45:47Z</time>
      </trkpt>
      <trkpt lat="59.7335123" lon="17.9435362">
        <ele>20.8057</ele>
        <time>2013-05-30T19:45:48Z</time>
      </trkpt>
      <trkpt lat="59.7335573" lon="17.9433695">
        <ele>20.8057</ele>
        <time>2013-05-30T19:45:49Z</time>
      </trkpt>
      <trkpt lat="59.7336012" lon="17.9432045">
        <ele>20.325</ele>
        <time>2013-05-30T19:45:50Z</time>
      </trkpt>
      <trkpt lat="59.7336444" lon="17.9430393">
        <ele>19.8444</ele>
        <time>2013-05-30T19:45:51Z</time>
      </trkpt>
      <trkpt lat="59.7336844" lon="17.9428668">
        <ele>20.325</ele>
        <time>2013-05-30T19:45:52Z</time>
      </trkpt>
      <trkpt lat="59.7337205" lon="17.9426924">
        <ele>19.8444</ele>
        <time>2013-05-30T19:45:53Z</time>
      </trkpt>
      <trkpt lat="59.7337572" lon="17.9425115">
        <ele>19.8444</ele>
        <time>2013-05-30T19:45:54Z</time>
      </trkpt>
      <trkpt lat="59.7337909" lon="17.9423346">
        <ele>20.325</ele>
        <time>2013-05-30T19:45:55Z</time>
      </trkpt>
      <trkpt lat="59.7338231" lon="17.9421573">
        <ele>20.325</ele>
        <time>2013-05-30T19:45:56Z</time>
      </trkpt>
      <trkpt lat="59.7338553" lon="17.9419848">
        <ele>19.8444</ele>
        <time>2013-05-30T19:45:57Z</time>
      </trkpt>
      <trkpt lat="59.7338852" lon="17.9418129">
        <ele>19.8444</ele>
        <time>2013-05-30T19:45:58Z</time>
      </trkpt>
      <trkpt lat="59.7339112" lon="17.9416439">
        <ele>19.8444</ele>
        <time>2013-05-30T19:45:59Z</time>
      </trkpt>
      <trkpt lat="59.7339285" lon="17.9414866">
        <ele>19.3638</ele>
        <time>2013-05-30T19:46:00Z</time>
      </trkpt>
      <trkpt lat="59.7339397" lon="17.9413295">
        <ele>18.8831</ele>
        <time>2013-05-30T19:46:01Z</time>
      </trkpt>
      <trkpt lat="59.7339536" lon="17.941171">
        <ele>18.8831</ele>
        <time>2013-05-30T19:46:02Z</time>
      </trkpt>
      <trkpt lat="59.7339648" lon="17.9410172">
        <ele>19.3638</ele>
        <time>2013-05-30T19:46:03Z</time>
      </trkpt>
      <trkpt lat="59.7339738" lon="17.9408696">
        <ele>18.8831</ele>
        <time>2013-05-30T19:46:04Z</time>
      </trkpt>
      <trkpt lat="59.7339824" lon="17.9407228">
        <ele>18.8831</ele>
        <time>2013-05-30T19:46:05Z</time>
      </trkpt>
      <trkpt lat="59.7339925" lon="17.9405715">
        <ele>19.8444</ele>
        <time>2013-05-30T19:46:06Z</time>
      </trkpt>
      <trkpt lat="59.7339939" lon="17.9404147">
        <ele>19.3638</ele>
        <time>2013-05-30T19:46:07Z</time>
      </trkpt>
      <trkpt lat="59.733983" lon="17.9402835">
        <ele>16.4797</ele>
        <time>2013-05-30T19:46:08Z</time>
      </trkpt>
      <trkpt lat="59.7339835" lon="17.9401635">
        <ele>15.999</ele>
        <time>2013-05-30T19:46:09Z</time>
      </trkpt>
      <trkpt lat="59.7339873" lon="17.9400345">
        <ele>15.0377</ele>
        <time>2013-05-30T19:46:10Z</time>
      </trkpt>
      <trkpt lat="59.7339866" lon="17.9398789">
        <ele>13.5958</ele>
        <time>2013-05-30T19:46:11Z</time>
      </trkpt>
      <trkpt lat="59.7339957" lon="17.9397294">
        <ele>14.0764</ele>
        <time>2013-05-30T19:46:12Z</time>
      </trkpt>
      <trkpt lat="59.7340076" lon="17.9395874">
        <ele>13.1151</ele>
        <time>2013-05-30T19:46:13Z</time>
      </trkpt>
      <trkpt lat="59.7340224" lon="17.939448">
        <ele>13.1151</ele>
        <time>2013-05-30T19:46:14Z</time>
      </trkpt>
      <trkpt lat="59.7340344" lon="17.9393238">
        <ele>13.5958</ele>
        <time>2013-05-30T19:46:15Z</time>
      </trkpt>
      <trkpt lat="59.7340422" lon="17.939199">
        <ele>13.5958</ele>
        <time>2013-05-30T19:46:16Z</time>
      </trkpt>
      <trkpt lat="59.7340432" lon="17.9390757">
        <ele>15.5184</ele>
        <time>2013-05-30T19:46:17Z</time>
      </trkpt>
      <trkpt lat="59.7340412" lon="17.9389457">
        <ele>16.9604</ele>
        <time>2013-05-30T19:46:18Z</time>
      </trkpt>
      <trkpt lat="59.7340376" lon="17.9388242">
        <ele>17.9218</ele>
        <time>2013-05-30T19:46:19Z</time>
      </trkpt>
      <trkpt lat="59.7340382" lon="17.9386965">
        <ele>19.3638</ele>
        <time>2013-05-30T19:46:20Z</time>
      </trkpt>
      <trkpt lat="59.7340443" lon="17.9385726">
        <ele>21.2864</ele>
        <time>2013-05-30T19:46:21Z</time>
      </trkpt>
      <trkpt lat="59.7340477" lon="17.9384536">
        <ele>21.767</ele>
        <time>2013-05-30T19:46:22Z</time>
      </trkpt>
      <trkpt lat="59.7340493" lon="17.9383411">
        <ele>22.2476</ele>
        <time>2013-05-30T19:46:23Z</time>
      </trkpt>
      <trkpt lat="59.7340446" lon="17.9382152">
        <ele>19.3638</ele>
        <time>2013-05-30T19:46:24Z</time>
      </trkpt>
      <trkpt lat="59.7340406" lon="17.9381029">
        <ele>19.3638</ele>
        <time>2013-05-30T19:46:25Z</time>
      </trkpt>
      <trkpt lat="59.7340399" lon="17.9379852">
        <ele>18.8831</ele>
        <time>2013-05-30T19:46:26Z</time>
      </trkpt>
      <trkpt lat="59.7340287" lon="17.9378656">
        <ele>18.8831</ele>
        <time>2013-05-30T19:46:27Z</time>
      </trkpt>
      <trkpt lat="59.7340187" lon="17.9377366">
        <ele>19.3638</ele>
        <time>2013-05-30T19:46:28Z</time>
      </trkpt>
      <trkpt lat="59.7340142" lon="17.9376116">
        <ele>19.8444</ele>
        <time>2013-05-30T19:46:29Z</time>
      </trkpt>
      <trkpt lat="59.7340071" lon="17.9374945">
        <ele>18.8831</ele>
        <time>2013-05-30T19:46:30Z</time>
      </trkpt>
      <trkpt lat="59.7339951" lon="17.9373767">
        <ele>17.9218</ele>
        <time>2013-05-30T19:46:31Z</time>
      </trkpt>
      <trkpt lat="59.7339857" lon="17.9372647">
        <ele>17.4412</ele>
        <time>2013-05-30T19:46:32Z</time>
      </trkpt>
      <trkpt lat="59.7339655" lon="17.9371559">
        <ele>16.4797</ele>
        <time>2013-05-30T19:46:33Z</time>
      </trkpt>
      <trkpt lat="59.7339501" lon="17.9370382">
        <ele>15.999</ele>
        <time>2013-05-30T19:46:34Z</time>
      </trkpt>
      <trkpt lat="59.7339355" lon="17.9369071">
        <ele>15.5184</ele>
        <time>2013-05-30T19:46:35Z</time>
      </trkpt>
      <trkpt lat="59.7339158" lon="17.9367833">
        <ele>14.0764</ele>
        <time>2013-05-30T19:46:36Z</time>
      </trkpt>
      <trkpt lat="59.7338962" lon="17.9366565">
        <ele>12.6344</ele>
        <time>2013-05-30T19:46:37Z</time>
      </trkpt>
      <trkpt lat="59.7338747" lon="17.9365296">
        <ele>12.6344</ele>
        <time>2013-05-30T19:46:38Z</time>
      </trkpt>
      <trkpt lat="59.7338557" lon="17.9364072">
        <ele>12.1538</ele>
        <time>2013-05-30T19:46:39Z</time>
      </trkpt>
      <trkpt lat="59.7338391" lon="17.936284">
        <ele>12.6344</ele>
        <time>2013-05-30T19:46:40Z</time>
      </trkpt>
      <trkpt lat="59.7338164" lon="17.9361606">
        <ele>12.1538</ele>
        <time>2013-05-30T19:46:41Z</time>
      </trkpt>
      <trkpt lat="59.7337894" lon="17.9360401">
        <ele>10.7118</ele>
        <time>2013-05-30T19:46:42Z</time>
      </trkpt>
      <trkpt lat="59.7337691" lon="17.9359102">
        <ele>10.7118</ele>
        <time>2013-05-30T19:46:43Z</time>
      </trkpt>
      <trkpt lat="59.7337418" lon="17.9357897">
        <ele>10.2312</ele>
        <time>2013-05-30T19:46:44Z</time>
      </trkpt>
      <trkpt lat="59.7337175" lon="17.935652">
        <ele>10.7118</ele>
        <time>2013-05-30T19:46:45Z</time>
      </trkpt>
      <trkpt lat="59.7336961" lon="17.9355188">
        <ele>11.6732</ele>
        <time>2013-05-30T19:46:46Z</time>
      </trkpt>
      <trkpt lat="59.7336827" lon="17.9353838">
        <ele>12.1538</ele>
        <time>2013-05-30T19:46:47Z</time>
      </trkpt>
      <trkpt lat="59.7336644" lon="17.9352465">
        <ele>12.6344</ele>
        <time>2013-05-30T19:46:48Z</time>
      </trkpt>
      <trkpt lat="59.7336478" lon="17.935107">
        <ele>13.5958</ele>
        <time>2013-05-30T19:46:49Z</time>
      </trkpt>
      <trkpt lat="59.7336329" lon="17.9349739">
        <ele>13.5958</ele>
        <time>2013-05-30T19:46:50Z</time>
      </trkpt>
      <trkpt lat="59.7336221" lon="17.9348439">
        <ele>14.0764</ele>
        <time>2013-05-30T19:46:51Z</time>
      </trkpt>
      <trkpt lat="59.7336196" lon="17.9347031">
        <ele>15.0377</ele>
        <time>2013-05-30T19:46:52Z</time>
      </trkpt>
      <trkpt lat="59.7336178" lon="17.9345632">
        <ele>16.4797</ele>
        <time>2013-05-30T19:46:53Z</time>
      </trkpt>
      <trkpt lat="59.7336141" lon="17.9344269">
        <ele>15.0377</ele>
        <time>2013-05-30T19:46:54Z</time>
      </trkpt>
      <trkpt lat="59.7336154" lon="17.9342978">
        <ele>15.0377</ele>
        <time>2013-05-30T19:46:55Z</time>
      </trkpt>
      <trkpt lat="59.7336222" lon="17.9341731">
        <ele>15.5184</ele>
        <time>2013-05-30T19:46:56Z</time>
      </trkpt>
      <trkpt lat="59.7336231" lon="17.9340613">
        <ele>14.0764</ele>
        <time>2013-05-30T19:46:57Z</time>
      </trkpt>
      <trkpt lat="59.7336366" lon="17.9339669">
        <ele>13.1151</ele>
        <time>2013-05-30T19:46:58Z</time>
      </trkpt>
      <trkpt lat="59.7336564" lon="17.933854">
        <ele>13.1151</ele>
        <time>2013-05-30T19:46:59Z</time>
      </trkpt>
      <trkpt lat="59.7336729" lon="17.9337396">
        <ele>14.0764</ele>
        <time>2013-05-30T19:47:00Z</time>
      </trkpt>
      <trkpt lat="59.7336918" lon="17.9335999">
        <ele>16.4797</ele>
        <time>2013-05-30T19:47:01Z</time>
      </trkpt>
      <trkpt lat="59.7337022" lon="17.9334533">
        <ele>16.4797</ele>
        <time>2013-05-30T19:47:02Z</time>
      </trkpt>
      <trkpt lat="59.7337194" lon="17.9333118">
        <ele>17.4412</ele>
        <time>2013-05-30T19:47:03Z</time>
      </trkpt>
      <trkpt lat="59.7337407" lon="17.9331697">
        <ele>18.4023</ele>
        <time>2013-05-30T19:47:04Z</time>
      </trkpt>
      <trkpt lat="59.73377" lon="17.9330358">
        <ele>19.3638</ele>
        <time>2013-05-30T19:47:05Z</time>
      </trkpt>
      <trkpt lat="59.7338014" lon="17.9328953">
        <ele>20.8057</ele>
        <time>2013-05-30T19:47:06Z</time>
      </trkpt>
      <trkpt lat="59.733834" lon="17.9327575">
        <ele>22.7283</ele>
        <time>2013-05-30T19:47:07Z</time>
      </trkpt>
      <trkpt lat="59.7338691" lon="17.9326253">
        <ele>24.1703</ele>
        <time>2013-05-30T19:47:08Z</time>
      </trkpt>
      <trkpt lat="59.7339081" lon="17.9324953">
        <ele>25.6123</ele>
        <time>2013-05-30T19:47:09Z</time>
      </trkpt>
      <trkpt lat="59.7339511" lon="17.9323665">
        <ele>27.5349</ele>
        <time>2013-05-30T19:47:10Z</time>
      </trkpt>
      <trkpt lat="59.7339956" lon="17.9322404">
        <ele>29.9381</ele>
        <time>2013-05-30T19:47:11Z</time>
      </trkpt>
      <trkpt lat="59.7340437" lon="17.9321136">
        <ele>32.3416</ele>
        <time>2013-05-30T19:47:12Z</time>
      </trkpt>
      <trkpt lat="59.7340903" lon="17.9320032">
        <ele>32.8223</ele>
        <time>2013-05-30T19:47:13Z</time>
      </trkpt>
      <trkpt lat="59.7341384" lon="17.9318915">
        <ele>32.8223</ele>
        <time>2013-05-30T19:47:14Z</time>
      </trkpt>
      <trkpt lat="59.7341842" lon="17.9317638">
        <ele>33.7834</ele>
        <time>2013-05-30T19:47:15Z</time>
      </trkpt>
      <trkpt lat="59.7342313" lon="17.931633">
        <ele>33.7834</ele>
        <time>2013-05-30T19:47:16Z</time>
      </trkpt>
      <trkpt lat="59.7342797" lon="17.9315039">
        <ele>33.7834</ele>
        <time>2013-05-30T19:47:17Z</time>
      </trkpt>
      <trkpt lat="59.7343276" lon="17.9313708">
        <ele>34.7449</ele>
        <time>2013-05-30T19:47:18Z</time>
      </trkpt>
      <trkpt lat="59.7343751" lon="17.9312395">
        <ele>35.2255</ele>
        <time>2013-05-30T19:47:19Z</time>
      </trkpt>
      <trkpt lat="59.7344204" lon="17.9311107">
        <ele>35.2255</ele>
        <time>2013-05-30T19:47:20Z</time>
      </trkpt>
      <trkpt lat="59.7344653" lon="17.93098">
        <ele>36.1868</ele>
        <time>2013-05-30T19:47:21Z</time>
      </trkpt>
      <trkpt lat="59.7345105" lon="17.9308429">
        <ele>36.6675</ele>
        <time>2013-05-30T19:47:22Z</time>
      </trkpt>
      <trkpt lat="59.7345559" lon="17.9307175">
        <ele>37.6287</ele>
        <time>2013-05-30T19:47:23Z</time>
      </trkpt>
      <trkpt lat="59.7346049" lon="17.9305907">
        <ele>39.0707</ele>
        <time>2013-05-30T19:47:24Z</time>
      </trkpt>
      <trkpt lat="59.734652" lon="17.9304594">
        <ele>40.5128</ele>
        <time>2013-05-30T19:47:25Z</time>
      </trkpt>
      <trkpt lat="59.7346996" lon="17.9303257">
        <ele>41.9547</ele>
        <time>2013-05-30T19:47:26Z</time>
      </trkpt>
      <trkpt lat="59.7347472" lon="17.9301848">
        <ele>42.4354</ele>
        <time>2013-05-30T19:47:27Z</time>
      </trkpt>
      <trkpt lat="59.7347917" lon="17.9300473">
        <ele>42.4354</ele>
        <time>2013-05-30T19:47:28Z</time>
      </trkpt>
      <trkpt lat="59.7348369" lon="17.9299235">
        <ele>42.916</ele>
        <time>2013-05-30T19:47:29Z</time>
      </trkpt>
      <trkpt lat="59.7348845" lon="17.9297894">
        <ele>42.4354</ele>
        <time>2013-05-30T19:47:30Z</time>
      </trkpt>
      <trkpt lat="59.7349348" lon="17.9296629">
        <ele>42.916</ele>
        <time>2013-05-30T19:47:31Z</time>
      </trkpt>
      <trkpt lat="59.7349887" lon="17.9295386">
        <ele>43.3966</ele>
        <time>2013-05-30T19:47:32Z</time>
      </trkpt>
      <trkpt lat="59.7350443" lon="17.9294172">
        <ele>43.8773</ele>
        <time>2013-05-30T19:47:33Z</time>
      </trkpt>
      <trkpt lat="59.7351014" lon="17.9293006">
        <ele>44.358</ele>
        <time>2013-05-30T19:47:34Z</time>
      </trkpt>
      <trkpt lat="59.7351616" lon="17.9291872">
        <ele>45.3192</ele>
        <time>2013-05-30T19:47:35Z</time>
      </trkpt>
      <trkpt lat="59.7352257" lon="17.929076">
        <ele>45.7999</ele>
        <time>2013-05-30T19:47:36Z</time>
      </trkpt>
      <trkpt lat="59.7352933" lon="17.9289682">
        <ele>45.7999</ele>
        <time>2013-05-30T19:47:37Z</time>
      </trkpt>
      <trkpt lat="59.7353636" lon="17.9288688">
        <ele>46.2806</ele>
        <time>2013-05-30T19:47:38Z</time>
      </trkpt>
      <trkpt lat="59.735436" lon="17.9287813">
        <ele>45.7999</ele>
        <time>2013-05-30T19:47:39Z</time>
      </trkpt>
      <trkpt lat="59.7355113" lon="17.9287004">
        <ele>46.2806</ele>
        <time>2013-05-30T19:47:40Z</time>
      </trkpt>
      <trkpt lat="59.7355872" lon="17.9286326">
        <ele>45.7999</ele>
        <time>2013-05-30T19:47:41Z</time>
      </trkpt>
      <trkpt lat="59.7356645" lon="17.9285688">
        <ele>45.3192</ele>
        <time>2013-05-30T19:47:42Z</time>
      </trkpt>
      <trkpt lat="59.7357444" lon="17.9285164">
        <ele>44.8386</ele>
        <time>2013-05-30T19:47:43Z</time>
      </trkpt>
      <trkpt lat="59.7358277" lon="17.9284669">
        <ele>43.8773</ele>
        <time>2013-05-30T19:47:44Z</time>
      </trkpt>
      <trkpt lat="59.7359139" lon="17.9284198">
        <ele>43.3966</ele>
        <time>2013-05-30T19:47:45Z</time>
      </trkpt>
      <trkpt lat="59.7359997" lon="17.9283741">
        <ele>42.4354</ele>
        <time>2013-05-30T19:47:46Z</time>
      </trkpt>
      <trkpt lat="59.7360863" lon="17.9283247">
        <ele>41.9547</ele>
        <time>2013-05-30T19:47:47Z</time>
      </trkpt>
      <trkpt lat="59.7361748" lon="17.9282654">
        <ele>41.474</ele>
        <time>2013-05-30T19:47:48Z</time>
      </trkpt>
      <trkpt lat="59.7362632" lon="17.9282092">
        <ele>40.9934</ele>
        <time>2013-05-30T19:47:49Z</time>
      </trkpt>
      <trkpt lat="59.7363565" lon="17.9281653">
        <ele>41.9547</ele>
        <time>2013-05-30T19:47:50Z</time>
      </trkpt>
      <trkpt lat="59.7364459" lon="17.9281192">
        <ele>40.9934</ele>
        <time>2013-05-30T19:47:51Z</time>
      </trkpt>
      <trkpt lat="59.7365384" lon="17.9280732">
        <ele>40.5128</ele>
        <time>2013-05-30T19:47:52Z</time>
      </trkpt>
      <trkpt lat="59.7366328" lon="17.9280182">
        <ele>39.0707</ele>
        <time>2013-05-30T19:47:53Z</time>
      </trkpt>
      <trkpt lat="59.7367275" lon="17.9279694">
        <ele>38.5901</ele>
        <time>2013-05-30T19:47:54Z</time>
      </trkpt>
      <trkpt lat="59.7368203" lon="17.9279161">
        <ele>37.6287</ele>
        <time>2013-05-30T19:47:55Z</time>
      </trkpt>
      <trkpt lat="59.7369164" lon="17.9278538">
        <ele>36.6675</ele>
        <time>2013-05-30T19:47:56Z</time>
      </trkpt>
      <trkpt lat="59.7370154" lon="17.9277903">
        <ele>35.7061</ele>
        <time>2013-05-30T19:47:57Z</time>
      </trkpt>
      <trkpt lat="59.7371128" lon="17.927724">
        <ele>34.7449</ele>
        <time>2013-05-30T19:47:58Z</time>
      </trkpt>
      <trkpt lat="59.7372124" lon="17.9276533">
        <ele>34.2642</ele>
        <time>2013-05-30T19:47:59Z</time>
      </trkpt>
      <trkpt lat="59.7373134" lon="17.9275883">
        <ele>32.8223</ele>
        <time>2013-05-30T19:48:00Z</time>
      </trkpt>
      <trkpt lat="59.7374161" lon="17.9275096">
        <ele>31.8607</ele>
        <time>2013-05-30T19:48:01Z</time>
      </trkpt>
      <trkpt lat="59.7375191" lon="17.9274275">
        <ele>31.3801</ele>
        <time>2013-05-30T19:48:02Z</time>
      </trkpt>
      <trkpt lat="59.7376222" lon="17.9273418">
        <ele>30.8995</ele>
        <time>2013-05-30T19:48:03Z</time>
      </trkpt>
      <trkpt lat="59.737725" lon="17.9272525">
        <ele>30.4188</ele>
        <time>2013-05-30T19:48:04Z</time>
      </trkpt>
      <trkpt lat="59.7378279" lon="17.9271604">
        <ele>29.9381</ele>
        <time>2013-05-30T19:48:05Z</time>
      </trkpt>
      <trkpt lat="59.7379294" lon="17.9270644">
        <ele>28.9769</ele>
        <time>2013-05-30T19:48:06Z</time>
      </trkpt>
      <trkpt lat="59.7380314" lon="17.9269645">
        <ele>28.4962</ele>
        <time>2013-05-30T19:48:07Z</time>
      </trkpt>
      <trkpt lat="59.738132" lon="17.926859">
        <ele>27.5349</ele>
        <time>2013-05-30T19:48:08Z</time>
      </trkpt>
      <trkpt lat="59.7382355" lon="17.9267496">
        <ele>27.5349</ele>
        <time>2013-05-30T19:48:09Z</time>
      </trkpt>
      <trkpt lat="59.7383361" lon="17.9266352">
        <ele>27.0543</ele>
        <time>2013-05-30T19:48:10Z</time>
      </trkpt>
      <trkpt lat="59.7384391" lon="17.9265202">
        <ele>27.0543</ele>
        <time>2013-05-30T19:48:11Z</time>
      </trkpt>
      <trkpt lat="59.7385416" lon="17.9264028">
        <ele>27.0543</ele>
        <time>2013-05-30T19:48:12Z</time>
      </trkpt>
      <trkpt lat="59.738645" lon="17.9262786">
        <ele>27.0543</ele>
        <time>2013-05-30T19:48:13Z</time>
      </trkpt>
      <trkpt lat="59.7387462" lon="17.9261509">
        <ele>27.5349</ele>
        <time>2013-05-30T19:48:14Z</time>
      </trkpt>
      <trkpt lat="59.7388452" lon="17.9260208">
        <ele>27.5349</ele>
        <time>2013-05-30T19:48:15Z</time>
      </trkpt>
      <trkpt lat="59.7389422" lon="17.9258864">
        <ele>26.5736</ele>
        <time>2013-05-30T19:48:16Z</time>
      </trkpt>
      <trkpt lat="59.7390378" lon="17.9257478">
        <ele>26.5736</ele>
        <time>2013-05-30T19:48:17Z</time>
      </trkpt>
      <trkpt lat="59.7391302" lon="17.9256037">
        <ele>26.0929</ele>
        <time>2013-05-30T19:48:18Z</time>
      </trkpt>
      <trkpt lat="59.7392202" lon="17.9254639">
        <ele>25.6123</ele>
        <time>2013-05-30T19:48:19Z</time>
      </trkpt>
      <trkpt lat="59.7393083" lon="17.925322">
        <ele>25.6123</ele>
        <time>2013-05-30T19:48:20Z</time>
      </trkpt>
      <trkpt lat="59.7393958" lon="17.9251759">
        <ele>27.0543</ele>
        <time>2013-05-30T19:48:21Z</time>
      </trkpt>
      <trkpt lat="59.7394818" lon="17.9250301">
        <ele>28.0155</ele>
        <time>2013-05-30T19:48:22Z</time>
      </trkpt>
      <trkpt lat="59.7395655" lon="17.9248898">
        <ele>27.5349</ele>
        <time>2013-05-30T19:48:23Z</time>
      </trkpt>
      <trkpt lat="59.7396477" lon="17.9247518">
        <ele>27.5349</ele>
        <time>2013-05-30T19:48:24Z</time>
      </trkpt>
      <trkpt lat="59.739729" lon="17.9246165">
        <ele>28.0155</ele>
        <time>2013-05-30T19:48:25Z</time>
      </trkpt>
      <trkpt lat="59.7398091" lon="17.9244849">
        <ele>27.0543</ele>
        <time>2013-05-30T19:48:26Z</time>
      </trkpt>
      <trkpt lat="59.7398885" lon="17.9243532">
        <ele>26.0929</ele>
        <time>2013-05-30T19:48:27Z</time>
      </trkpt>
      <trkpt lat="59.7399683" lon="17.9242221">
        <ele>25.6123</ele>
        <time>2013-05-30T19:48:28Z</time>
      </trkpt>
      <trkpt lat="59.7400499" lon="17.9240894">
        <ele>25.6123</ele>
        <time>2013-05-30T19:48:29Z</time>
      </trkpt>
      <trkpt lat="59.7401312" lon="17.9239544">
        <ele>25.6123</ele>
        <time>2013-05-30T19:48:30Z</time>
      </trkpt>
      <trkpt lat="59.7402108" lon="17.9238208">
        <ele>26.0929</ele>
        <time>2013-05-30T19:48:31Z</time>
      </trkpt>
      <trkpt lat="59.7402884" lon="17.9236882">
        <ele>26.0929</ele>
        <time>2013-05-30T19:48:32Z</time>
      </trkpt>
      <trkpt lat="59.7403636" lon="17.9235607">
        <ele>26.0929</ele>
        <time>2013-05-30T19:48:33Z</time>
      </trkpt>
      <trkpt lat="59.7404371" lon="17.9234344">
        <ele>26.0929</ele>
        <time>2013-05-30T19:48:34Z</time>
      </trkpt>
      <trkpt lat="59.7405097" lon="17.9233095">
        <ele>26.0929</ele>
        <time>2013-05-30T19:48:35Z</time>
      </trkpt>
      <trkpt lat="59.7405817" lon="17.9231871">
        <ele>26.0929</ele>
        <time>2013-05-30T19:48:36Z</time>
      </trkpt>
      <trkpt lat="59.7406544" lon="17.9230674">
        <ele>26.5736</ele>
        <time>2013-05-30T19:48:37Z</time>
      </trkpt>
      <trkpt lat="59.7407256" lon="17.9229495">
        <ele>26.5736</ele>
        <time>2013-05-30T19:48:38Z</time>
      </trkpt>
      <trkpt lat="59.7407956" lon="17.9228271">
        <ele>26.5736</ele>
        <time>2013-05-30T19:48:39Z</time>
      </trkpt>
      <trkpt lat="59.7408669" lon="17.9227054">
        <ele>26.5736</ele>
        <time>2013-05-30T19:48:40Z</time>
      </trkpt>
      <trkpt lat="59.74094" lon="17.9225801">
        <ele>26.0929</ele>
        <time>2013-05-30T19:48:41Z</time>
      </trkpt>
      <trkpt lat="59.7410135" lon="17.9224579">
        <ele>25.6123</ele>
        <time>2013-05-30T19:48:42Z</time>
      </trkpt>
      <trkpt lat="59.7410891" lon="17.9223331">
        <ele>26.5736</ele>
        <time>2013-05-30T19:48:43Z</time>
      </trkpt>
      <trkpt lat="59.7411647" lon="17.9222092">
        <ele>26.0929</ele>
        <time>2013-05-30T19:48:44Z</time>
      </trkpt>
      <trkpt lat="59.7412447" lon="17.9220896">
        <ele>26.5736</ele>
        <time>2013-05-30T19:48:45Z</time>
      </trkpt>
      <trkpt lat="59.7413226" lon="17.921973">
        <ele>26.5736</ele>
        <time>2013-05-30T19:48:46Z</time>
      </trkpt>
      <trkpt lat="59.7413994" lon="17.9218578">
        <ele>26.5736</ele>
        <time>2013-05-30T19:48:47Z</time>
      </trkpt>
      <trkpt lat="59.7414759" lon="17.9217433">
        <ele>26.5736</ele>
        <time>2013-05-30T19:48:48Z</time>
      </trkpt>
      <trkpt lat="59.7415527" lon="17.9216331">
        <ele>25.6123</ele>
        <time>2013-05-30T19:48:49Z</time>
      </trkpt>
      <trkpt lat="59.741629" lon="17.9215242">
        <ele>25.1317</ele>
        <time>2013-05-30T19:48:50Z</time>
      </trkpt>
      <trkpt lat="59.7417036" lon="17.9214125">
        <ele>25.1317</ele>
        <time>2013-05-30T19:48:51Z</time>
      </trkpt>
      <trkpt lat="59.74178" lon="17.9213048">
        <ele>24.651</ele>
        <time>2013-05-30T19:48:52Z</time>
      </trkpt>
      <trkpt lat="59.7418553" lon="17.9211941">
        <ele>24.651</ele>
        <time>2013-05-30T19:48:53Z</time>
      </trkpt>
      <trkpt lat="59.7419293" lon="17.9210881">
        <ele>24.1703</ele>
        <time>2013-05-30T19:48:54Z</time>
      </trkpt>
      <trkpt lat="59.7420023" lon="17.9209791">
        <ele>23.6896</ele>
        <time>2013-05-30T19:48:55Z</time>
      </trkpt>
      <trkpt lat="59.7420755" lon="17.9208715">
        <ele>23.6896</ele>
        <time>2013-05-30T19:48:56Z</time>
      </trkpt>
      <trkpt lat="59.7421504" lon="17.9207634">
        <ele>23.209</ele>
        <time>2013-05-30T19:48:57Z</time>
      </trkpt>
      <trkpt lat="59.7422261" lon="17.9206609">
        <ele>23.209</ele>
        <time>2013-05-30T19:48:58Z</time>
      </trkpt>
      <trkpt lat="59.7423019" lon="17.9205597">
        <ele>23.209</ele>
        <time>2013-05-30T19:48:59Z</time>
      </trkpt>
      <trkpt lat="59.7423775" lon="17.9204584">
        <ele>23.209</ele>
        <time>2013-05-30T19:49:00Z</time>
      </trkpt>
      <trkpt lat="59.7424516" lon="17.9203572">
        <ele>22.2476</ele>
        <time>2013-05-30T19:49:01Z</time>
      </trkpt>
      <trkpt lat="59.7425281" lon="17.9202553">
        <ele>22.7283</ele>
        <time>2013-05-30T19:49:02Z</time>
      </trkpt>
      <trkpt lat="59.7426048" lon="17.9201547">
        <ele>23.6896</ele>
        <time>2013-05-30T19:49:03Z</time>
      </trkpt>
      <trkpt lat="59.74268" lon="17.9200562">
        <ele>24.1703</ele>
        <time>2013-05-30T19:49:04Z</time>
      </trkpt>
      <trkpt lat="59.7427536" lon="17.9199549">
        <ele>24.651</ele>
        <time>2013-05-30T19:49:05Z</time>
      </trkpt>
      <trkpt lat="59.7428264" lon="17.9198498">
        <ele>24.651</ele>
        <time>2013-05-30T19:49:06Z</time>
      </trkpt>
      <trkpt lat="59.7429006" lon="17.9197496">
        <ele>24.651</ele>
        <time>2013-05-30T19:49:07Z</time>
      </trkpt>
      <trkpt lat="59.7429747" lon="17.9196533">
        <ele>25.1317</ele>
        <time>2013-05-30T19:49:08Z</time>
      </trkpt>
      <trkpt lat="59.7430484" lon="17.9195518">
        <ele>25.1317</ele>
        <time>2013-05-30T19:49:09Z</time>
      </trkpt>
      <trkpt lat="59.743123" lon="17.9194452">
        <ele>25.1317</ele>
        <time>2013-05-30T19:49:10Z</time>
      </trkpt>
      <trkpt lat="59.743198" lon="17.9193471">
        <ele>25.1317</ele>
        <time>2013-05-30T19:49:11Z</time>
      </trkpt>
      <trkpt lat="59.7432717" lon="17.9192455">
        <ele>25.1317</ele>
        <time>2013-05-30T19:49:12Z</time>
      </trkpt>
      <trkpt lat="59.7433466" lon="17.9191421">
        <ele>25.6123</ele>
        <time>2013-05-30T19:49:13Z</time>
      </trkpt>
      <trkpt lat="59.7434182" lon="17.919043">
        <ele>25.1317</ele>
        <time>2013-05-30T19:49:14Z</time>
      </trkpt>
      <trkpt lat="59.7434876" lon="17.9189443">
        <ele>24.1703</ele>
        <time>2013-05-30T19:49:15Z</time>
      </trkpt>
      <trkpt lat="59.7435575" lon="17.9188423">
        <ele>24.1703</ele>
        <time>2013-05-30T19:49:16Z</time>
      </trkpt>
      <trkpt lat="59.7436272" lon="17.9187443">
        <ele>23.209</ele>
        <time>2013-05-30T19:49:17Z</time>
      </trkpt>
      <trkpt lat="59.7436984" lon="17.9186534">
        <ele>23.6896</ele>
        <time>2013-05-30T19:49:18Z</time>
      </trkpt>
      <trkpt lat="59.7437712" lon="17.9185595">
        <ele>24.1703</ele>
        <time>2013-05-30T19:49:19Z</time>
      </trkpt>
      <trkpt lat="59.7438453" lon="17.918468">
        <ele>24.1703</ele>
        <time>2013-05-30T19:49:20Z</time>
      </trkpt>
      <trkpt lat="59.7439194" lon="17.9183749">
        <ele>24.651</ele>
        <time>2013-05-30T19:49:21Z</time>
      </trkpt>
      <trkpt lat="59.7439916" lon="17.9182749">
        <ele>24.651</ele>
        <time>2013-05-30T19:49:22Z</time>
      </trkpt>
      <trkpt lat="59.7440636" lon="17.918172">
        <ele>24.651</ele>
        <time>2013-05-30T19:49:23Z</time>
      </trkpt>
      <trkpt lat="59.7441359" lon="17.9180735">
        <ele>25.1317</ele>
        <time>2013-05-30T19:49:24Z</time>
      </trkpt>
      <trkpt lat="59.7442085" lon="17.9179741">
        <ele>25.1317</ele>
        <time>2013-05-30T19:49:25Z</time>
      </trkpt>
      <trkpt lat="59.7442828" lon="17.9178684">
        <ele>24.651</ele>
        <time>2013-05-30T19:49:26Z</time>
      </trkpt>
      <trkpt lat="59.7443579" lon="17.9177602">
        <ele>24.651</ele>
        <time>2013-05-30T19:49:27Z</time>
      </trkpt>
      <trkpt lat="59.7444327" lon="17.9176552">
        <ele>24.651</ele>
        <time>2013-05-30T19:49:28Z</time>
      </trkpt>
      <trkpt lat="59.7445065" lon="17.9175523">
        <ele>25.1317</ele>
        <time>2013-05-30T19:49:29Z</time>
      </trkpt>
      <trkpt lat="59.7445799" lon="17.9174481">
        <ele>25.1317</ele>
        <time>2013-05-30T19:49:30Z</time>
      </trkpt>
      <trkpt lat="59.7446532" lon="17.9173461">
        <ele>25.6123</ele>
        <time>2013-05-30T19:49:31Z</time>
      </trkpt>
      <trkpt lat="59.7447259" lon="17.9172455">
        <ele>26.0929</ele>
        <time>2013-05-30T19:49:32Z</time>
      </trkpt>
      <trkpt lat="59.7447975" lon="17.9171452">
        <ele>26.5736</ele>
        <time>2013-05-30T19:49:33Z</time>
      </trkpt>
      <trkpt lat="59.74487" lon="17.9170437">
        <ele>26.5736</ele>
        <time>2013-05-30T19:49:34Z</time>
      </trkpt>
      <trkpt lat="59.7449427" lon="17.9169436">
        <ele>26.5736</ele>
        <time>2013-05-30T19:49:35Z</time>
      </trkpt>
      <trkpt lat="59.7450157" lon="17.9168438">
        <ele>26.0929</ele>
        <time>2013-05-30T19:49:36Z</time>
      </trkpt>
      <trkpt lat="59.7450889" lon="17.9167432">
        <ele>26.5736</ele>
        <time>2013-05-30T19:49:37Z</time>
      </trkpt>
      <trkpt lat="59.7451624" lon="17.9166423">
        <ele>26.5736</ele>
        <time>2013-05-30T19:49:38Z</time>
      </trkpt>
      <trkpt lat="59.7452352" lon="17.9165448">
        <ele>26.0929</ele>
        <time>2013-05-30T19:49:39Z</time>
      </trkpt>
      <trkpt lat="59.7453074" lon="17.9164464">
        <ele>26.0929</ele>
        <time>2013-05-30T19:49:40Z</time>
      </trkpt>
      <trkpt lat="59.7453774" lon="17.9163475">
        <ele>26.5736</ele>
        <time>2013-05-30T19:49:41Z</time>
      </trkpt>
      <trkpt lat="59.7454482" lon="17.9162486">
        <ele>26.5736</ele>
        <time>2013-05-30T19:49:42Z</time>
      </trkpt>
      <trkpt lat="59.7455182" lon="17.9161506">
        <ele>26.5736</ele>
        <time>2013-05-30T19:49:43Z</time>
      </trkpt>
      <trkpt lat="59.7455877" lon="17.916053">
        <ele>27.0543</ele>
        <time>2013-05-30T19:49:44Z</time>
      </trkpt>
      <trkpt lat="59.7456568" lon="17.9159567">
        <ele>26.5736</ele>
        <time>2013-05-30T19:49:45Z</time>
      </trkpt>
      <trkpt lat="59.7457238" lon="17.9158625">
        <ele>26.0929</ele>
        <time>2013-05-30T19:49:46Z</time>
      </trkpt>
      <trkpt lat="59.7457906" lon="17.9157684">
        <ele>25.1317</ele>
        <time>2013-05-30T19:49:47Z</time>
      </trkpt>
      <trkpt lat="59.7458597" lon="17.9156767">
        <ele>24.651</ele>
        <time>2013-05-30T19:49:48Z</time>
      </trkpt>
      <trkpt lat="59.7459309" lon="17.9155845">
        <ele>24.651</ele>
        <time>2013-05-30T19:49:49Z</time>
      </trkpt>
      <trkpt lat="59.746001" lon="17.9154895">
        <ele>24.651</ele>
        <time>2013-05-30T19:49:50Z</time>
      </trkpt>
      <trkpt lat="59.7460707" lon="17.9153943">
        <ele>24.651</ele>
        <time>2013-05-30T19:49:51Z</time>
      </trkpt>
      <trkpt lat="59.7461387" lon="17.9152981">
        <ele>24.651</ele>
        <time>2013-05-30T19:49:52Z</time>
      </trkpt>
      <trkpt lat="59.7462051" lon="17.9152047">
        <ele>24.651</ele>
        <time>2013-05-30T19:49:53Z</time>
      </trkpt>
      <trkpt lat="59.7462719" lon="17.9151109">
        <ele>24.651</ele>
        <time>2013-05-30T19:49:54Z</time>
      </trkpt>
      <trkpt lat="59.7463397" lon="17.9150203">
        <ele>24.1703</ele>
        <time>2013-05-30T19:49:55Z</time>
      </trkpt>
      <trkpt lat="59.7464088" lon="17.9149253">
        <ele>24.1703</ele>
        <time>2013-05-30T19:49:56Z</time>
      </trkpt>
      <trkpt lat="59.7464786" lon="17.9148319">
        <ele>24.651</ele>
        <time>2013-05-30T19:49:57Z</time>
      </trkpt>
      <trkpt lat="59.746547" lon="17.9147367">
        <ele>24.651</ele>
        <time>2013-05-30T19:49:58Z</time>
      </trkpt>
      <trkpt lat="59.7466164" lon="17.9146415">
        <ele>25.1317</ele>
        <time>2013-05-30T19:49:59Z</time>
      </trkpt>
      <trkpt lat="59.7466859" lon="17.9145482">
        <ele>24.651</ele>
        <time>2013-05-30T19:50:00Z</time>
      </trkpt>
      <trkpt lat="59.7467558" lon="17.914455">
        <ele>24.651</ele>
        <time>2013-05-30T19:50:01Z</time>
      </trkpt>
      <trkpt lat="59.7468255" lon="17.914361">
        <ele>24.651</ele>
        <time>2013-05-30T19:50:02Z</time>
      </trkpt>
      <trkpt lat="59.7468956" lon="17.9142665">
        <ele>24.651</ele>
        <time>2013-05-30T19:50:03Z</time>
      </trkpt>
      <trkpt lat="59.7469674" lon="17.9141708">
        <ele>25.1317</ele>
        <time>2013-05-30T19:50:04Z</time>
      </trkpt>
      <trkpt lat="59.7470396" lon="17.9140747">
        <ele>25.6123</ele>
        <time>2013-05-30T19:50:05Z</time>
      </trkpt>
      <trkpt lat="59.7471115" lon="17.9139818">
        <ele>26.0929</ele>
        <time>2013-05-30T19:50:06Z</time>
      </trkpt>
      <trkpt lat="59.7471835" lon="17.9138899">
        <ele>27.0543</ele>
        <time>2013-05-30T19:50:07Z</time>
      </trkpt>
      <trkpt lat="59.7472572" lon="17.9137968">
        <ele>28.9769</ele>
        <time>2013-05-30T19:50:08Z</time>
      </trkpt>
      <trkpt lat="59.7473312" lon="17.9137104">
        <ele>29.4575</ele>
        <time>2013-05-30T19:50:09Z</time>
      </trkpt>
      <trkpt lat="59.7474054" lon="17.9136242">
        <ele>29.4575</ele>
        <time>2013-05-30T19:50:10Z</time>
      </trkpt>
      <trkpt lat="59.7474799" lon="17.9135383">
        <ele>29.4575</ele>
        <time>2013-05-30T19:50:11Z</time>
      </trkpt>
      <trkpt lat="59.7475551" lon="17.9134526">
        <ele>29.9381</ele>
        <time>2013-05-30T19:50:12Z</time>
      </trkpt>
      <trkpt lat="59.7476307" lon="17.913368">
        <ele>30.8995</ele>
        <time>2013-05-30T19:50:13Z</time>
      </trkpt>
      <trkpt lat="59.7477056" lon="17.9132864">
        <ele>30.8995</ele>
        <time>2013-05-30T19:50:14Z</time>
      </trkpt>
      <trkpt lat="59.7477808" lon="17.9132063">
        <ele>31.3801</ele>
        <time>2013-05-30T19:50:15Z</time>
      </trkpt>
      <trkpt lat="59.7478563" lon="17.9131288">
        <ele>31.8607</ele>
        <time>2013-05-30T19:50:16Z</time>
      </trkpt>
      <trkpt lat="59.747932" lon="17.913052">
        <ele>31.8607</ele>
        <time>2013-05-30T19:50:17Z</time>
      </trkpt>
      <trkpt lat="59.7480078" lon="17.9129774">
        <ele>31.8607</ele>
        <time>2013-05-30T19:50:18Z</time>
      </trkpt>
      <trkpt lat="59.7480845" lon="17.9129053">
        <ele>31.8607</ele>
        <time>2013-05-30T19:50:19Z</time>
      </trkpt>
      <trkpt lat="59.7481621" lon="17.9128358">
        <ele>31.3801</ele>
        <time>2013-05-30T19:50:20Z</time>
      </trkpt>
      <trkpt lat="59.7482393" lon="17.9127669">
        <ele>31.3801</ele>
        <time>2013-05-30T19:50:21Z</time>
      </trkpt>
      <trkpt lat="59.7483164" lon="17.9127007">
        <ele>31.8607</ele>
        <time>2013-05-30T19:50:22Z</time>
      </trkpt>
      <trkpt lat="59.7483931" lon="17.9126373">
        <ele>32.3416</ele>
        <time>2013-05-30T19:50:23Z</time>
      </trkpt>
      <trkpt lat="59.7484687" lon="17.9125744">
        <ele>32.3416</ele>
        <time>2013-05-30T19:50:24Z</time>
      </trkpt>
      <trkpt lat="59.7485438" lon="17.91251">
        <ele>31.8607</ele>
        <time>2013-05-30T19:50:25Z</time>
      </trkpt>
      <trkpt lat="59.7486183" lon="17.9124442">
        <ele>31.8607</ele>
        <time>2013-05-30T19:50:26Z</time>
      </trkpt>
      <trkpt lat="59.7486929" lon="17.9123786">
        <ele>32.3416</ele>
        <time>2013-05-30T19:50:27Z</time>
      </trkpt>
      <trkpt lat="59.7487667" lon="17.9123158">
        <ele>30.8995</ele>
        <time>2013-05-30T19:50:28Z</time>
      </trkpt>
      <trkpt lat="59.7488407" lon="17.9122526">
        <ele>30.4188</ele>
        <time>2013-05-30T19:50:29Z</time>
      </trkpt>
      <trkpt lat="59.7489142" lon="17.9121873">
        <ele>29.4575</ele>
        <time>2013-05-30T19:50:30Z</time>
      </trkpt>
      <trkpt lat="59.7489873" lon="17.912122">
        <ele>28.9769</ele>
        <time>2013-05-30T19:50:31Z</time>
      </trkpt>
      <trkpt lat="59.7490601" lon="17.9120578">
        <ele>28.9769</ele>
        <time>2013-05-30T19:50:32Z</time>
      </trkpt>
      <trkpt lat="59.7491329" lon="17.9119925">
        <ele>29.4575</ele>
        <time>2013-05-30T19:50:33Z</time>
      </trkpt>
      <trkpt lat="59.7492037" lon="17.9119314">
        <ele>28.4962</ele>
        <time>2013-05-30T19:50:34Z</time>
      </trkpt>
      <trkpt lat="59.7492748" lon="17.9118698">
        <ele>28.0155</ele>
        <time>2013-05-30T19:50:35Z</time>
      </trkpt>
      <trkpt lat="59.749341" lon="17.9118035">
        <ele>23.6896</ele>
        <time>2013-05-30T19:50:36Z</time>
      </trkpt>
      <trkpt lat="59.7494113" lon="17.9117417">
        <ele>23.6896</ele>
        <time>2013-05-30T19:50:37Z</time>
      </trkpt>
      <trkpt lat="59.7494782" lon="17.9116795">
        <ele>22.7283</ele>
        <time>2013-05-30T19:50:38Z</time>
      </trkpt>
      <trkpt lat="59.7495481" lon="17.911617">
        <ele>21.767</ele>
        <time>2013-05-30T19:50:39Z</time>
      </trkpt>
      <trkpt lat="59.7496192" lon="17.9115523">
        <ele>21.2864</ele>
        <time>2013-05-30T19:50:40Z</time>
      </trkpt>
      <trkpt lat="59.7496892" lon="17.9114862">
        <ele>20.8057</ele>
        <time>2013-05-30T19:50:41Z</time>
      </trkpt>
      <trkpt lat="59.7497591" lon="17.9114211">
        <ele>20.325</ele>
        <time>2013-05-30T19:50:42Z</time>
      </trkpt>
      <trkpt lat="59.7498285" lon="17.9113584">
        <ele>20.325</ele>
        <time>2013-05-30T19:50:43Z</time>
      </trkpt>
      <trkpt lat="59.7498952" lon="17.9112994">
        <ele>19.8444</ele>
        <time>2013-05-30T19:50:44Z</time>
      </trkpt>
      <trkpt lat="59.7499596" lon="17.9112446">
        <ele>19.3638</ele>
        <time>2013-05-30T19:50:45Z</time>
      </trkpt>
      <trkpt lat="59.7500214" lon="17.9111927">
        <ele>19.3638</ele>
        <time>2013-05-30T19:50:46Z</time>
      </trkpt>
      <trkpt lat="59.7500808" lon="17.911144">
        <ele>19.3638</ele>
        <time>2013-05-30T19:50:47Z</time>
      </trkpt>
      <trkpt lat="59.7501368" lon="17.9110967">
        <ele>19.3638</ele>
        <time>2013-05-30T19:50:48Z</time>
      </trkpt>
      <trkpt lat="59.7501911" lon="17.9110498">
        <ele>19.3638</ele>
        <time>2013-05-30T19:50:49Z</time>
      </trkpt>
      <trkpt lat="59.7502457" lon="17.9110088">
        <ele>18.8831</ele>
        <time>2013-05-30T19:50:50Z</time>
      </trkpt>
      <trkpt lat="59.7503072" lon="17.9109809">
        <ele>18.4023</ele>
        <time>2013-05-30T19:50:51Z</time>
      </trkpt>
      <trkpt lat="59.7503748" lon="17.9109694">
        <ele>17.9218</ele>
        <time>2013-05-30T19:50:52Z</time>
      </trkpt>
      <trkpt lat="59.7504453" lon="17.910968">
        <ele>17.9218</ele>
        <time>2013-05-30T19:50:53Z</time>
      </trkpt>
      <trkpt lat="59.7505161" lon="17.9109689">
        <ele>17.9218</ele>
        <time>2013-05-30T19:50:54Z</time>
      </trkpt>
      <trkpt lat="59.750588" lon="17.9109762">
        <ele>17.4412</ele>
        <time>2013-05-30T19:50:55Z</time>
      </trkpt>
      <trkpt lat="59.7506594" lon="17.9109949">
        <ele>16.9604</ele>
        <time>2013-05-30T19:50:56Z</time>
      </trkpt>
      <trkpt lat="59.7507299" lon="17.9110171">
        <ele>16.9604</ele>
        <time>2013-05-30T19:50:57Z</time>
      </trkpt>
      <trkpt lat="59.7508014" lon="17.911045">
        <ele>16.4797</ele>
        <time>2013-05-30T19:50:58Z</time>
      </trkpt>
      <trkpt lat="59.7508735" lon="17.911076">
        <ele>15.999</ele>
        <time>2013-05-30T19:50:59Z</time>
      </trkpt>
      <trkpt lat="59.750951" lon="17.9111052">
        <ele>18.8831</ele>
        <time>2013-05-30T19:51:00Z</time>
      </trkpt>
      <trkpt lat="59.7510241" lon="17.9111322">
        <ele>18.8831</ele>
        <time>2013-05-30T19:51:01Z</time>
      </trkpt>
      <trkpt lat="59.7510972" lon="17.911161">
        <ele>18.8831</ele>
        <time>2013-05-30T19:51:02Z</time>
      </trkpt>
      <trkpt lat="59.7511706" lon="17.9111896">
        <ele>18.8831</ele>
        <time>2013-05-30T19:51:03Z</time>
      </trkpt>
      <trkpt lat="59.7512448" lon="17.9112197">
        <ele>18.4023</ele>
        <time>2013-05-30T19:51:04Z</time>
      </trkpt>
      <trkpt lat="59.7513193" lon="17.9112483">
        <ele>17.9218</ele>
        <time>2013-05-30T19:51:05Z</time>
      </trkpt>
      <trkpt lat="59.7513909" lon="17.9112762">
        <ele>17.9218</ele>
        <time>2013-05-30T19:51:06Z</time>
      </trkpt>
      <trkpt lat="59.7514592" lon="17.9113015">
        <ele>17.9218</ele>
        <time>2013-05-30T19:51:07Z</time>
      </trkpt>
      <trkpt lat="59.751525" lon="17.9113233">
        <ele>17.4412</ele>
        <time>2013-05-30T19:51:08Z</time>
      </trkpt>
      <trkpt lat="59.7515881" lon="17.911343">
        <ele>16.9604</ele>
        <time>2013-05-30T19:51:09Z</time>
      </trkpt>
      <trkpt lat="59.7516507" lon="17.911361">
        <ele>16.9604</ele>
        <time>2013-05-30T19:51:10Z</time>
      </trkpt>
      <trkpt lat="59.7517141" lon="17.9113734">
        <ele>16.9604</ele>
        <time>2013-05-30T19:51:11Z</time>
      </trkpt>
      <trkpt lat="59.7517797" lon="17.9113797">
        <ele>16.9604</ele>
        <time>2013-05-30T19:51:12Z</time>
      </trkpt>
      <trkpt lat="59.7518465" lon="17.9113822">
        <ele>16.9604</ele>
        <time>2013-05-30T19:51:13Z</time>
      </trkpt>
      <trkpt lat="59.7519151" lon="17.9113781">
        <ele>17.4412</ele>
        <time>2013-05-30T19:51:14Z</time>
      </trkpt>
      <trkpt lat="59.7519855" lon="17.911363">
        <ele>17.4412</ele>
        <time>2013-05-30T19:51:15Z</time>
      </trkpt>
      <trkpt lat="59.7520569" lon="17.9113409">
        <ele>16.9604</ele>
        <time>2013-05-30T19:51:16Z</time>
      </trkpt>
      <trkpt lat="59.7521284" lon="17.9113113">
        <ele>16.9604</ele>
        <time>2013-05-30T19:51:17Z</time>
      </trkpt>
      <trkpt lat="59.7522003" lon="17.9112653">
        <ele>16.9604</ele>
        <time>2013-05-30T19:51:18Z</time>
      </trkpt>
      <trkpt lat="59.7522713" lon="17.9112087">
        <ele>16.9604</ele>
        <time>2013-05-30T19:51:19Z</time>
      </trkpt>
      <trkpt lat="59.7523414" lon="17.9111436">
        <ele>16.4797</ele>
        <time>2013-05-30T19:51:20Z</time>
      </trkpt>
      <trkpt lat="59.7524108" lon="17.91107">
        <ele>16.4797</ele>
        <time>2013-05-30T19:51:21Z</time>
      </trkpt>
      <trkpt lat="59.7524787" lon="17.9109853">
        <ele>15.999</ele>
        <time>2013-05-30T19:51:22Z</time>
      </trkpt>
      <trkpt lat="59.7525445" lon="17.9108928">
        <ele>15.5184</ele>
        <time>2013-05-30T19:51:23Z</time>
      </trkpt>
      <trkpt lat="59.7526071" lon="17.910795">
        <ele>15.0377</ele>
        <time>2013-05-30T19:51:24Z</time>
      </trkpt>
      <trkpt lat="59.7526692" lon="17.9106913">
        <ele>15.0377</ele>
        <time>2013-05-30T19:51:25Z</time>
      </trkpt>
      <trkpt lat="59.7527292" lon="17.9105813">
        <ele>14.557</ele>
        <time>2013-05-30T19:51:26Z</time>
      </trkpt>
      <trkpt lat="59.7527873" lon="17.9104701">
        <ele>14.0764</ele>
        <time>2013-05-30T19:51:27Z</time>
      </trkpt>
      <trkpt lat="59.7528444" lon="17.9103577">
        <ele>13.5958</ele>
        <time>2013-05-30T19:51:28Z</time>
      </trkpt>
      <trkpt lat="59.7529001" lon="17.9102456">
        <ele>13.1151</ele>
        <time>2013-05-30T19:51:29Z</time>
      </trkpt>
      <trkpt lat="59.7529573" lon="17.9101333">
        <ele>12.6344</ele>
        <time>2013-05-30T19:51:30Z</time>
      </trkpt>
      <trkpt lat="59.7530164" lon="17.9100192">
        <ele>13.1151</ele>
        <time>2013-05-30T19:51:31Z</time>
      </trkpt>
      <trkpt lat="59.7530745" lon="17.909905">
        <ele>13.5958</ele>
        <time>2013-05-30T19:51:32Z</time>
      </trkpt>
      <trkpt lat="59.753132" lon="17.9097894">
        <ele>13.1151</ele>
        <time>2013-05-30T19:51:33Z</time>
      </trkpt>
      <trkpt lat="59.7531908" lon="17.9096717">
        <ele>12.6344</ele>
        <time>2013-05-30T19:51:34Z</time>
      </trkpt>
      <trkpt lat="59.7532515" lon="17.9095543">
        <ele>12.1538</ele>
        <time>2013-05-30T19:51:35Z</time>
      </trkpt>
      <trkpt lat="59.7533127" lon="17.9094361">
        <ele>12.1538</ele>
        <time>2013-05-30T19:51:36Z</time>
      </trkpt>
      <trkpt lat="59.7533742" lon="17.9093182">
        <ele>12.1538</ele>
        <time>2013-05-30T19:51:37Z</time>
      </trkpt>
      <trkpt lat="59.7534338" lon="17.9092004">
        <ele>11.1925</ele>
        <time>2013-05-30T19:51:38Z</time>
      </trkpt>
      <trkpt lat="59.753495" lon="17.9090803">
        <ele>10.7118</ele>
        <time>2013-05-30T19:51:39Z</time>
      </trkpt>
      <trkpt lat="59.7535555" lon="17.9089615">
        <ele>10.7118</ele>
        <time>2013-05-30T19:51:40Z</time>
      </trkpt>
      <trkpt lat="59.7536173" lon="17.9088476">
        <ele>10.2312</ele>
        <time>2013-05-30T19:51:41Z</time>
      </trkpt>
      <trkpt lat="59.7536804" lon="17.9087344">
        <ele>9.75061</ele>
        <time>2013-05-30T19:51:42Z</time>
      </trkpt>
      <trkpt lat="59.7537463" lon="17.908622">
        <ele>9.75061</ele>
        <time>2013-05-30T19:51:43Z</time>
      </trkpt>
      <trkpt lat="59.7538114" lon="17.9085079">
        <ele>9.75061</ele>
        <time>2013-05-30T19:51:44Z</time>
      </trkpt>
      <trkpt lat="59.7538767" lon="17.9083944">
        <ele>9.75061</ele>
        <time>2013-05-30T19:51:45Z</time>
      </trkpt>
      <trkpt lat="59.7539421" lon="17.9082815">
        <ele>9.2699</ele>
        <time>2013-05-30T19:51:46Z</time>
      </trkpt>
      <trkpt lat="59.7540057" lon="17.9081685">
        <ele>8.78918</ele>
        <time>2013-05-30T19:51:47Z</time>
      </trkpt>
      <trkpt lat="59.7540708" lon="17.9080598">
        <ele>8.30859</ele>
        <time>2013-05-30T19:51:48Z</time>
      </trkpt>
      <trkpt lat="59.7541353" lon="17.9079519">
        <ele>8.30859</ele>
        <time>2013-05-30T19:51:49Z</time>
      </trkpt>
      <trkpt lat="59.7541991" lon="17.9078396">
        <ele>8.30859</ele>
        <time>2013-05-30T19:51:50Z</time>
      </trkpt>
      <trkpt lat="59.7542635" lon="17.9077273">
        <ele>8.30859</ele>
        <time>2013-05-30T19:51:51Z</time>
      </trkpt>
      <trkpt lat="59.7543269" lon="17.9076113">
        <ele>9.2699</ele>
        <time>2013-05-30T19:51:52Z</time>
      </trkpt>
      <trkpt lat="59.7543892" lon="17.9074904">
        <ele>10.7118</ele>
        <time>2013-05-30T19:51:53Z</time>
      </trkpt>
      <trkpt lat="59.7544467" lon="17.9073824">
        <ele>10.2312</ele>
        <time>2013-05-30T19:51:54Z</time>
      </trkpt>
      <trkpt lat="59.754507" lon="17.9072728">
        <ele>10.2312</ele>
        <time>2013-05-30T19:51:55Z</time>
      </trkpt>
      <trkpt lat="59.7545707" lon="17.9071595">
        <ele>10.2312</ele>
        <time>2013-05-30T19:51:56Z</time>
      </trkpt>
      <trkpt lat="59.7546336" lon="17.9070466">
        <ele>10.7118</ele>
        <time>2013-05-30T19:51:57Z</time>
      </trkpt>
      <trkpt lat="59.7546967" lon="17.9069378">
        <ele>9.75061</ele>
        <time>2013-05-30T19:51:58Z</time>
      </trkpt>
      <trkpt lat="59.7547584" lon="17.9068221">
        <ele>9.75061</ele>
        <time>2013-05-30T19:51:59Z</time>
      </trkpt>
      <trkpt lat="59.7548185" lon="17.9067025">
        <ele>9.2699</ele>
        <time>2013-05-30T19:52:00Z</time>
      </trkpt>
      <trkpt lat="59.7548765" lon="17.9065804">
        <ele>9.2699</ele>
        <time>2013-05-30T19:52:01Z</time>
      </trkpt>
      <trkpt lat="59.754933" lon="17.9064527">
        <ele>9.2699</ele>
        <time>2013-05-30T19:52:02Z</time>
      </trkpt>
      <trkpt lat="59.7549877" lon="17.9063198">
        <ele>9.75061</ele>
        <time>2013-05-30T19:52:03Z</time>
      </trkpt>
      <trkpt lat="59.7550397" lon="17.9061836">
        <ele>9.75061</ele>
        <time>2013-05-30T19:52:04Z</time>
      </trkpt>
      <trkpt lat="59.7550858" lon="17.9060441">
        <ele>9.2699</ele>
        <time>2013-05-30T19:52:05Z</time>
      </trkpt>
      <trkpt lat="59.7551323" lon="17.9059028">
        <ele>9.2699</ele>
        <time>2013-05-30T19:52:06Z</time>
      </trkpt>
      <trkpt lat="59.7551806" lon="17.9057578">
        <ele>9.2699</ele>
        <time>2013-05-30T19:52:07Z</time>
      </trkpt>
      <trkpt lat="59.7552266" lon="17.9056116">
        <ele>8.78918</ele>
        <time>2013-05-30T19:52:08Z</time>
      </trkpt>
      <trkpt lat="59.7552721" lon="17.9054651">
        <ele>9.2699</ele>
        <time>2013-05-30T19:52:09Z</time>
      </trkpt>
      <trkpt lat="59.7553179" lon="17.9053193">
        <ele>9.2699</ele>
        <time>2013-05-30T19:52:10Z</time>
      </trkpt>
      <trkpt lat="59.7553633" lon="17.9051754">
        <ele>9.75061</ele>
        <time>2013-05-30T19:52:11Z</time>
      </trkpt>
      <trkpt lat="59.7554075" lon="17.9050337">
        <ele>9.75061</ele>
        <time>2013-05-30T19:52:12Z</time>
      </trkpt>
      <trkpt lat="59.7554524" lon="17.9048922">
        <ele>10.2312</ele>
        <time>2013-05-30T19:52:13Z</time>
      </trkpt>
      <trkpt lat="59.7554964" lon="17.9047518">
        <ele>10.2312</ele>
        <time>2013-05-30T19:52:14Z</time>
      </trkpt>
      <trkpt lat="59.75554" lon="17.9046117">
        <ele>10.2312</ele>
        <time>2013-05-30T19:52:15Z</time>
      </trkpt>
      <trkpt lat="59.7555848" lon="17.9044641">
        <ele>12.1538</ele>
        <time>2013-05-30T19:52:16Z</time>
      </trkpt>
      <trkpt lat="59.7556292" lon="17.9043198">
        <ele>13.1151</ele>
        <time>2013-05-30T19:52:17Z</time>
      </trkpt>
      <trkpt lat="59.7556733" lon="17.9041776">
        <ele>14.557</ele>
        <time>2013-05-30T19:52:18Z</time>
      </trkpt>
      <trkpt lat="59.7557183" lon="17.9040404">
        <ele>14.557</ele>
        <time>2013-05-30T19:52:19Z</time>
      </trkpt>
      <trkpt lat="59.7557613" lon="17.9039023">
        <ele>14.557</ele>
        <time>2013-05-30T19:52:20Z</time>
      </trkpt>
      <trkpt lat="59.7558051" lon="17.9037624">
        <ele>15.0377</ele>
        <time>2013-05-30T19:52:21Z</time>
      </trkpt>
      <trkpt lat="59.7558509" lon="17.9036219">
        <ele>15.999</ele>
        <time>2013-05-30T19:52:22Z</time>
      </trkpt>
      <trkpt lat="59.7558973" lon="17.903481">
        <ele>16.9604</ele>
        <time>2013-05-30T19:52:23Z</time>
      </trkpt>
      <trkpt lat="59.755943" lon="17.9033403">
        <ele>17.9218</ele>
        <time>2013-05-30T19:52:24Z</time>
      </trkpt>
      <trkpt lat="59.7559876" lon="17.9031999">
        <ele>18.4023</ele>
        <time>2013-05-30T19:52:25Z</time>
      </trkpt>
      <trkpt lat="59.7560333" lon="17.9030589">
        <ele>19.3638</ele>
        <time>2013-05-30T19:52:26Z</time>
      </trkpt>
      <trkpt lat="59.7560787" lon="17.9029171">
        <ele>19.3638</ele>
        <time>2013-05-30T19:52:27Z</time>
      </trkpt>
      <trkpt lat="59.7561247" lon="17.9027751">
        <ele>20.8057</ele>
        <time>2013-05-30T19:52:28Z</time>
      </trkpt>
      <trkpt lat="59.7561699" lon="17.9026331">
        <ele>21.767</ele>
        <time>2013-05-30T19:52:29Z</time>
      </trkpt>
      <trkpt lat="59.7562156" lon="17.9024891">
        <ele>22.7283</ele>
        <time>2013-05-30T19:52:30Z</time>
      </trkpt>
      <trkpt lat="59.7562589" lon="17.9023442">
        <ele>22.7283</ele>
        <time>2013-05-30T19:52:31Z</time>
      </trkpt>
      <trkpt lat="59.756302" lon="17.9021991">
        <ele>23.209</ele>
        <time>2013-05-30T19:52:32Z</time>
      </trkpt>
      <trkpt lat="59.756347" lon="17.9020538">
        <ele>23.6896</ele>
        <time>2013-05-30T19:52:33Z</time>
      </trkpt>
      <trkpt lat="59.7563923" lon="17.9019078">
        <ele>24.1703</ele>
        <time>2013-05-30T19:52:34Z</time>
      </trkpt>
      <trkpt lat="59.7564376" lon="17.901763">
        <ele>24.651</ele>
        <time>2013-05-30T19:52:35Z</time>
      </trkpt>
      <trkpt lat="59.7564824" lon="17.9016204">
        <ele>25.1317</ele>
        <time>2013-05-30T19:52:36Z</time>
      </trkpt>
      <trkpt lat="59.7565264" lon="17.9014824">
        <ele>26.0929</ele>
        <time>2013-05-30T19:52:37Z</time>
      </trkpt>
      <trkpt lat="59.7565724" lon="17.9013398">
        <ele>27.5349</ele>
        <time>2013-05-30T19:52:38Z</time>
      </trkpt>
      <trkpt lat="59.756617" lon="17.9011997">
        <ele>28.9769</ele>
        <time>2013-05-30T19:52:39Z</time>
      </trkpt>
      <trkpt lat="59.7566584" lon="17.9010707">
        <ele>29.9381</ele>
        <time>2013-05-30T19:52:40Z</time>
      </trkpt>
      <trkpt lat="59.7566999" lon="17.9009417">
        <ele>30.8995</ele>
        <time>2013-05-30T19:52:41Z</time>
      </trkpt>
      <trkpt lat="59.756743" lon="17.9008112">
        <ele>31.8607</ele>
        <time>2013-05-30T19:52:42Z</time>
      </trkpt>
      <trkpt lat="59.7567843" lon="17.9006824">
        <ele>32.3416</ele>
        <time>2013-05-30T19:52:43Z</time>
      </trkpt>
      <trkpt lat="59.7568274" lon="17.900551">
        <ele>33.3029</ele>
        <time>2013-05-30T19:52:44Z</time>
      </trkpt>
      <trkpt lat="59.7568688" lon="17.9004201">
        <ele>34.2642</ele>
        <time>2013-05-30T19:52:45Z</time>
      </trkpt>
      <trkpt lat="59.75691" lon="17.9002907">
        <ele>34.2642</ele>
        <time>2013-05-30T19:52:46Z</time>
      </trkpt>
      <trkpt lat="59.756952" lon="17.9001607">
        <ele>34.2642</ele>
        <time>2013-05-30T19:52:47Z</time>
      </trkpt>
      <trkpt lat="59.7569885" lon="17.9000318">
        <ele>34.2642</ele>
        <time>2013-05-30T19:52:48Z</time>
      </trkpt>
      <trkpt lat="59.7570253" lon="17.8999012">
        <ele>34.2642</ele>
        <time>2013-05-30T19:52:49Z</time>
      </trkpt>
      <trkpt lat="59.7570636" lon="17.8997675">
        <ele>34.2642</ele>
        <time>2013-05-30T19:52:50Z</time>
      </trkpt>
      <trkpt lat="59.757104" lon="17.8996307">
        <ele>34.7449</ele>
        <time>2013-05-30T19:52:51Z</time>
      </trkpt>
      <trkpt lat="59.7571414" lon="17.8994945">
        <ele>36.1868</ele>
        <time>2013-05-30T19:52:52Z</time>
      </trkpt>
      <trkpt lat="59.7571802" lon="17.8993575">
        <ele>36.6675</ele>
        <time>2013-05-30T19:52:53Z</time>
      </trkpt>
      <trkpt lat="59.7572178" lon="17.8992219">
        <ele>36.6675</ele>
        <time>2013-05-30T19:52:54Z</time>
      </trkpt>
      <trkpt lat="59.7572566" lon="17.8990857">
        <ele>37.1481</ele>
        <time>2013-05-30T19:52:55Z</time>
      </trkpt>
      <trkpt lat="59.7572955" lon="17.8989519">
        <ele>36.6675</ele>
        <time>2013-05-30T19:52:56Z</time>
      </trkpt>
      <trkpt lat="59.7573353" lon="17.8988147">
        <ele>37.1481</ele>
        <time>2013-05-30T19:52:57Z</time>
      </trkpt>
      <trkpt lat="59.7573744" lon="17.8986759">
        <ele>37.1481</ele>
        <time>2013-05-30T19:52:58Z</time>
      </trkpt>
      <trkpt lat="59.7574106" lon="17.8985361">
        <ele>36.1868</ele>
        <time>2013-05-30T19:52:59Z</time>
      </trkpt>
      <trkpt lat="59.7574481" lon="17.8983963">
        <ele>35.7061</ele>
        <time>2013-05-30T19:53:00Z</time>
      </trkpt>
      <trkpt lat="59.7574861" lon="17.898257">
        <ele>35.7061</ele>
        <time>2013-05-30T19:53:01Z</time>
      </trkpt>
      <trkpt lat="59.7575225" lon="17.8981186">
        <ele>35.7061</ele>
        <time>2013-05-30T19:53:02Z</time>
      </trkpt>
      <trkpt lat="59.7575599" lon="17.8979818">
        <ele>35.7061</ele>
        <time>2013-05-30T19:53:03Z</time>
      </trkpt>
      <trkpt lat="59.757597" lon="17.8978455">
        <ele>36.1868</ele>
        <time>2013-05-30T19:53:04Z</time>
      </trkpt>
      <trkpt lat="59.7576329" lon="17.8977104">
        <ele>36.1868</ele>
        <time>2013-05-30T19:53:05Z</time>
      </trkpt>
      <trkpt lat="59.7576686" lon="17.8975798">
        <ele>36.1868</ele>
        <time>2013-05-30T19:53:06Z</time>
      </trkpt>
      <trkpt lat="59.7577044" lon="17.8974541">
        <ele>37.1481</ele>
        <time>2013-05-30T19:53:07Z</time>
      </trkpt>
      <trkpt lat="59.757741" lon="17.8973339">
        <ele>37.6287</ele>
        <time>2013-05-30T19:53:08Z</time>
      </trkpt>
      <trkpt lat="59.7577702" lon="17.8972244">
        <ele>34.7449</ele>
        <time>2013-05-30T19:53:09Z</time>
      </trkpt>
      <trkpt lat="59.7578028" lon="17.8971054">
        <ele>34.2642</ele>
        <time>2013-05-30T19:53:10Z</time>
      </trkpt>
      <trkpt lat="59.7578371" lon="17.8969894">
        <ele>34.2642</ele>
        <time>2013-05-30T19:53:11Z</time>
      </trkpt>
      <trkpt lat="59.7578696" lon="17.8968836">
        <ele>33.7834</ele>
        <time>2013-05-30T19:53:12Z</time>
      </trkpt>
      <trkpt lat="59.7579007" lon="17.8967818">
        <ele>32.8223</ele>
        <time>2013-05-30T19:53:13Z</time>
      </trkpt>
      <trkpt lat="59.7579298" lon="17.896681">
        <ele>30.4188</ele>
        <time>2013-05-30T19:53:14Z</time>
      </trkpt>
      <trkpt lat="59.7579572" lon="17.8965823">
        <ele>27.5349</ele>
        <time>2013-05-30T19:53:15Z</time>
      </trkpt>
      <trkpt lat="59.7579868" lon="17.896475">
        <ele>27.0543</ele>
        <time>2013-05-30T19:53:16Z</time>
      </trkpt>
      <trkpt lat="59.7580176" lon="17.8963678">
        <ele>26.0929</ele>
        <time>2013-05-30T19:53:17Z</time>
      </trkpt>
      <trkpt lat="59.7580498" lon="17.896262">
        <ele>26.0929</ele>
        <time>2013-05-30T19:53:18Z</time>
      </trkpt>
      <trkpt lat="59.7580788" lon="17.8961653">
        <ele>23.209</ele>
        <time>2013-05-30T19:53:19Z</time>
      </trkpt>
      <trkpt lat="59.7581085" lon="17.8960621">
        <ele>22.2476</ele>
        <time>2013-05-30T19:53:20Z</time>
      </trkpt>
      <trkpt lat="59.7581362" lon="17.8959565">
        <ele>19.8444</ele>
        <time>2013-05-30T19:53:21Z</time>
      </trkpt>
      <trkpt lat="59.7581638" lon="17.8958466">
        <ele>18.8831</ele>
        <time>2013-05-30T19:53:22Z</time>
      </trkpt>
      <trkpt lat="59.7581928" lon="17.8957276">
        <ele>19.3638</ele>
        <time>2013-05-30T19:53:23Z</time>
      </trkpt>
      <trkpt lat="59.758223" lon="17.8956172">
        <ele>20.325</ele>
        <time>2013-05-30T19:53:24Z</time>
      </trkpt>
      <trkpt lat="59.7582561" lon="17.8955049">
        <ele>21.767</ele>
        <time>2013-05-30T19:53:25Z</time>
      </trkpt>
      <trkpt lat="59.7582921" lon="17.8953856">
        <ele>24.1703</ele>
        <time>2013-05-30T19:53:26Z</time>
      </trkpt>
      <trkpt lat="59.7583218" lon="17.8952645">
        <ele>24.1703</ele>
        <time>2013-05-30T19:53:27Z</time>
      </trkpt>
      <trkpt lat="59.7583528" lon="17.895137">
        <ele>24.1703</ele>
        <time>2013-05-30T19:53:28Z</time>
      </trkpt>
      <trkpt lat="59.7583859" lon="17.8950096">
        <ele>24.1703</ele>
        <time>2013-05-30T19:53:29Z</time>
      </trkpt>
      <trkpt lat="59.7584235" lon="17.8948749">
        <ele>24.651</ele>
        <time>2013-05-30T19:53:30Z</time>
      </trkpt>
      <trkpt lat="59.7584618" lon="17.8947356">
        <ele>24.651</ele>
        <time>2013-05-30T19:53:31Z</time>
      </trkpt>
      <trkpt lat="59.7585" lon="17.8945872">
        <ele>24.651</ele>
        <time>2013-05-30T19:53:32Z</time>
      </trkpt>
      <trkpt lat="59.758543" lon="17.8944375">
        <ele>25.6123</ele>
        <time>2013-05-30T19:53:33Z</time>
      </trkpt>
      <trkpt lat="59.7585843" lon="17.8942852">
        <ele>26.0929</ele>
        <time>2013-05-30T19:53:34Z</time>
      </trkpt>
      <trkpt lat="59.7586295" lon="17.8941322">
        <ele>28.4962</ele>
        <time>2013-05-30T19:53:35Z</time>
      </trkpt>
      <trkpt lat="59.7586754" lon="17.8939726">
        <ele>31.3801</ele>
        <time>2013-05-30T19:53:36Z</time>
      </trkpt>
      <trkpt lat="59.7587202" lon="17.8938068">
        <ele>32.3416</ele>
        <time>2013-05-30T19:53:37Z</time>
      </trkpt>
      <trkpt lat="59.7587666" lon="17.8936424">
        <ele>32.3416</ele>
        <time>2013-05-30T19:53:38Z</time>
      </trkpt>
      <trkpt lat="59.7588122" lon="17.8935018">
        <ele>29.4575</ele>
        <time>2013-05-30T19:53:39Z</time>
      </trkpt>
      <trkpt lat="59.7588652" lon="17.8933552">
        <ele>27.5349</ele>
        <time>2013-05-30T19:53:40Z</time>
      </trkpt>
      <trkpt lat="59.7589243" lon="17.893213">
        <ele>27.5349</ele>
        <time>2013-05-30T19:53:41Z</time>
      </trkpt>
      <trkpt lat="59.7589824" lon="17.8930618">
        <ele>26.5736</ele>
        <time>2013-05-30T19:53:42Z</time>
      </trkpt>
      <trkpt lat="59.7590357" lon="17.8929156">
        <ele>24.651</ele>
        <time>2013-05-30T19:53:43Z</time>
      </trkpt>
      <trkpt lat="59.7590945" lon="17.8927869">
        <ele>23.6896</ele>
        <time>2013-05-30T19:53:44Z</time>
      </trkpt>
      <trkpt lat="59.7591507" lon="17.8926589">
        <ele>22.2476</ele>
        <time>2013-05-30T19:53:45Z</time>
      </trkpt>
      <trkpt lat="59.7592074" lon="17.892537">
        <ele>20.8057</ele>
        <time>2013-05-30T19:53:46Z</time>
      </trkpt>
      <trkpt lat="59.7592647" lon="17.8924031">
        <ele>21.2864</ele>
        <time>2013-05-30T19:53:47Z</time>
      </trkpt>
      <trkpt lat="59.7593257" lon="17.8922718">
        <ele>21.767</ele>
        <time>2013-05-30T19:53:48Z</time>
      </trkpt>
      <trkpt lat="59.7593835" lon="17.8921383">
        <ele>21.767</ele>
        <time>2013-05-30T19:53:49Z</time>
      </trkpt>
      <trkpt lat="59.7594388" lon="17.8919957">
        <ele>22.2476</ele>
        <time>2013-05-30T19:53:50Z</time>
      </trkpt>
      <trkpt lat="59.7594941" lon="17.8918497">
        <ele>23.209</ele>
        <time>2013-05-30T19:53:51Z</time>
      </trkpt>
      <trkpt lat="59.75955" lon="17.891706">
        <ele>23.209</ele>
        <time>2013-05-30T19:53:52Z</time>
      </trkpt>
      <trkpt lat="59.7596094" lon="17.8915638">
        <ele>24.1703</ele>
        <time>2013-05-30T19:53:53Z</time>
      </trkpt>
      <trkpt lat="59.7596701" lon="17.8914186">
        <ele>25.1317</ele>
        <time>2013-05-30T19:53:54Z</time>
      </trkpt>
      <trkpt lat="59.7597298" lon="17.8912717">
        <ele>25.1317</ele>
        <time>2013-05-30T19:53:55Z</time>
      </trkpt>
      <trkpt lat="59.7597907" lon="17.8911307">
        <ele>24.1703</ele>
        <time>2013-05-30T19:53:56Z</time>
      </trkpt>
      <trkpt lat="59.759852" lon="17.8909847">
        <ele>24.1703</ele>
        <time>2013-05-30T19:53:57Z</time>
      </trkpt>
      <trkpt lat="59.7599133" lon="17.8908328">
        <ele>24.651</ele>
        <time>2013-05-30T19:53:58Z</time>
      </trkpt>
      <trkpt lat="59.7599764" lon="17.8906795">
        <ele>24.651</ele>
        <time>2013-05-30T19:53:59Z</time>
      </trkpt>
      <trkpt lat="59.76004" lon="17.8905246">
        <ele>24.651</ele>
        <time>2013-05-30T19:54:00Z</time>
      </trkpt>
      <trkpt lat="59.7601042" lon="17.890364">
        <ele>26.0929</ele>
        <time>2013-05-30T19:54:01Z</time>
      </trkpt>
      <trkpt lat="59.7601684" lon="17.8902082">
        <ele>25.6123</ele>
        <time>2013-05-30T19:54:02Z</time>
      </trkpt>
      <trkpt lat="59.7602333" lon="17.8900518">
        <ele>25.1317</ele>
        <time>2013-05-30T19:54:03Z</time>
      </trkpt>
      <trkpt lat="59.7602996" lon="17.8898936">
        <ele>25.1317</ele>
        <time>2013-05-30T19:54:04Z</time>
      </trkpt>
      <trkpt lat="59.7603655" lon="17.8897334">
        <ele>25.1317</ele>
        <time>2013-05-30T19:54:05Z</time>
      </trkpt>
      <trkpt lat="59.7604311" lon="17.8895767">
        <ele>25.1317</ele>
        <time>2013-05-30T19:54:06Z</time>
      </trkpt>
      <trkpt lat="59.7604959" lon="17.8894235">
        <ele>25.1317</ele>
        <time>2013-05-30T19:54:07Z</time>
      </trkpt>
      <trkpt lat="59.7605602" lon="17.8892711">
        <ele>25.1317</ele>
        <time>2013-05-30T19:54:08Z</time>
      </trkpt>
      <trkpt lat="59.760626" lon="17.8891201">
        <ele>25.6123</ele>
        <time>2013-05-30T19:54:09Z</time>
      </trkpt>
      <trkpt lat="59.7606921" lon="17.8889705">
        <ele>26.5736</ele>
        <time>2013-05-30T19:54:10Z</time>
      </trkpt>
      <trkpt lat="59.7607569" lon="17.8888203">
        <ele>27.0543</ele>
        <time>2013-05-30T19:54:11Z</time>
      </trkpt>
      <trkpt lat="59.7608213" lon="17.8886706">
        <ele>27.5349</ele>
        <time>2013-05-30T19:54:12Z</time>
      </trkpt>
      <trkpt lat="59.7608849" lon="17.8885299">
        <ele>28.0155</ele>
        <time>2013-05-30T19:54:13Z</time>
      </trkpt>
      <trkpt lat="59.7609476" lon="17.8883853">
        <ele>28.4962</ele>
        <time>2013-05-30T19:54:14Z</time>
      </trkpt>
      <trkpt lat="59.7610113" lon="17.8882335">
        <ele>28.4962</ele>
        <time>2013-05-30T19:54:15Z</time>
      </trkpt>
      <trkpt lat="59.7610725" lon="17.8880859">
        <ele>28.4962</ele>
        <time>2013-05-30T19:54:16Z</time>
      </trkpt>
      <trkpt lat="59.7611326" lon="17.8879397">
        <ele>28.4962</ele>
        <time>2013-05-30T19:54:17Z</time>
      </trkpt>
      <trkpt lat="59.761194" lon="17.8877937">
        <ele>28.0155</ele>
        <time>2013-05-30T19:54:18Z</time>
      </trkpt>
      <trkpt lat="59.7612553" lon="17.887648">
        <ele>28.0155</ele>
        <time>2013-05-30T19:54:19Z</time>
      </trkpt>
      <trkpt lat="59.7613171" lon="17.8875008">
        <ele>28.0155</ele>
        <time>2013-05-30T19:54:20Z</time>
      </trkpt>
      <trkpt lat="59.7613786" lon="17.8873544">
        <ele>28.4962</ele>
        <time>2013-05-30T19:54:21Z</time>
      </trkpt>
      <trkpt lat="59.7614386" lon="17.8872102">
        <ele>28.0155</ele>
        <time>2013-05-30T19:54:22Z</time>
      </trkpt>
      <trkpt lat="59.7614979" lon="17.887068">
        <ele>28.0155</ele>
        <time>2013-05-30T19:54:23Z</time>
      </trkpt>
      <trkpt lat="59.7615541" lon="17.8869306">
        <ele>26.5736</ele>
        <time>2013-05-30T19:54:24Z</time>
      </trkpt>
      <trkpt lat="59.7616103" lon="17.8867943">
        <ele>25.1317</ele>
        <time>2013-05-30T19:54:25Z</time>
      </trkpt>
      <trkpt lat="59.7616629" lon="17.8866603">
        <ele>22.2476</ele>
        <time>2013-05-30T19:54:26Z</time>
      </trkpt>
      <trkpt lat="59.761718" lon="17.886522">
        <ele>21.2864</ele>
        <time>2013-05-30T19:54:27Z</time>
      </trkpt>
      <trkpt lat="59.7617733" lon="17.8863841">
        <ele>20.8057</ele>
        <time>2013-05-30T19:54:28Z</time>
      </trkpt>
      <trkpt lat="59.7618301" lon="17.8862463">
        <ele>20.325</ele>
        <time>2013-05-30T19:54:29Z</time>
      </trkpt>
      <trkpt lat="59.7618866" lon="17.8861065">
        <ele>19.8444</ele>
        <time>2013-05-30T19:54:30Z</time>
      </trkpt>
      <trkpt lat="59.7619431" lon="17.8859682">
        <ele>19.3638</ele>
        <time>2013-05-30T19:54:31Z</time>
      </trkpt>
      <trkpt lat="59.7620006" lon="17.8858309">
        <ele>19.3638</ele>
        <time>2013-05-30T19:54:32Z</time>
      </trkpt>
      <trkpt lat="59.7620603" lon="17.8856937">
        <ele>19.8444</ele>
        <time>2013-05-30T19:54:33Z</time>
      </trkpt>
      <trkpt lat="59.7621147" lon="17.8855543">
        <ele>19.3638</ele>
        <time>2013-05-30T19:54:34Z</time>
      </trkpt>
      <trkpt lat="59.7621711" lon="17.8854151">
        <ele>19.3638</ele>
        <time>2013-05-30T19:54:35Z</time>
      </trkpt>
      <trkpt lat="59.7622281" lon="17.8852729">
        <ele>20.325</ele>
        <time>2013-05-30T19:54:36Z</time>
      </trkpt>
      <trkpt lat="59.7622856" lon="17.8851304">
        <ele>20.8057</ele>
        <time>2013-05-30T19:54:37Z</time>
      </trkpt>
      <trkpt lat="59.7623416" lon="17.8849919">
        <ele>20.325</ele>
        <time>2013-05-30T19:54:38Z</time>
      </trkpt>
      <trkpt lat="59.7623979" lon="17.8848541">
        <ele>20.325</ele>
        <time>2013-05-30T19:54:39Z</time>
      </trkpt>
      <trkpt lat="59.762454" lon="17.8847177">
        <ele>19.8444</ele>
        <time>2013-05-30T19:54:40Z</time>
      </trkpt>
      <trkpt lat="59.7625115" lon="17.884582">
        <ele>19.3638</ele>
        <time>2013-05-30T19:54:41Z</time>
      </trkpt>
      <trkpt lat="59.7625685" lon="17.8844459">
        <ele>19.8444</ele>
        <time>2013-05-30T19:54:42Z</time>
      </trkpt>
      <trkpt lat="59.7626804" lon="17.8841825">
        <ele>19.3638</ele>
        <time>2013-05-30T19:54:43Z</time>
      </trkpt>
      <trkpt lat="59.7627379" lon="17.8840639">
        <ele>20.325</ele>
        <time>2013-05-30T19:54:44Z</time>
      </trkpt>
      <trkpt lat="59.7627923" lon="17.8839458">
        <ele>20.8057</ele>
        <time>2013-05-30T19:54:45Z</time>
      </trkpt>
      <trkpt lat="59.7628433" lon="17.8838287">
        <ele>19.8444</ele>
        <time>2013-05-30T19:54:46Z</time>
      </trkpt>
      <trkpt lat="59.7628949" lon="17.8837082">
        <ele>18.8831</ele>
        <time>2013-05-30T19:54:47Z</time>
      </trkpt>
      <trkpt lat="59.7629446" lon="17.8835833">
        <ele>18.4023</ele>
        <time>2013-05-30T19:54:48Z</time>
      </trkpt>
      <trkpt lat="59.7629968" lon="17.883457">
        <ele>18.8831</ele>
        <time>2013-05-30T19:54:49Z</time>
      </trkpt>
      <trkpt lat="59.7630509" lon="17.8833289">
        <ele>20.325</ele>
        <time>2013-05-30T19:54:50Z</time>
      </trkpt>
      <trkpt lat="59.7631004" lon="17.8831946">
        <ele>20.325</ele>
        <time>2013-05-30T19:54:51Z</time>
      </trkpt>
      <trkpt lat="59.7631511" lon="17.883061">
        <ele>21.2864</ele>
        <time>2013-05-30T19:54:52Z</time>
      </trkpt>
      <trkpt lat="59.7632" lon="17.8829271">
        <ele>22.2476</ele>
        <time>2013-05-30T19:54:53Z</time>
      </trkpt>
      <trkpt lat="59.7632481" lon="17.8827999">
        <ele>22.7283</ele>
        <time>2013-05-30T19:54:54Z</time>
      </trkpt>
      <trkpt lat="59.7632945" lon="17.8826782">
        <ele>22.7283</ele>
        <time>2013-05-30T19:54:55Z</time>
      </trkpt>
      <trkpt lat="59.7633439" lon="17.8825483">
        <ele>23.209</ele>
        <time>2013-05-30T19:54:56Z</time>
      </trkpt>
      <trkpt lat="59.7633941" lon="17.8824153">
        <ele>24.1703</ele>
        <time>2013-05-30T19:54:57Z</time>
      </trkpt>
      <trkpt lat="59.763443" lon="17.8822759">
        <ele>26.5736</ele>
        <time>2013-05-30T19:54:58Z</time>
      </trkpt>
      <trkpt lat="59.7634894" lon="17.8821416">
        <ele>27.0543</ele>
        <time>2013-05-30T19:54:59Z</time>
      </trkpt>
      <trkpt lat="59.7635364" lon="17.8820117">
        <ele>27.5349</ele>
        <time>2013-05-30T19:55:00Z</time>
      </trkpt>
      <trkpt lat="59.7635829" lon="17.8818815">
        <ele>27.5349</ele>
        <time>2013-05-30T19:55:01Z</time>
      </trkpt>
      <trkpt lat="59.7636308" lon="17.8817485">
        <ele>28.9769</ele>
        <time>2013-05-30T19:55:02Z</time>
      </trkpt>
      <trkpt lat="59.7636781" lon="17.8816228">
        <ele>28.9769</ele>
        <time>2013-05-30T19:55:03Z</time>
      </trkpt>
      <trkpt lat="59.7637256" lon="17.8814898">
        <ele>29.4575</ele>
        <time>2013-05-30T19:55:04Z</time>
      </trkpt>
      <trkpt lat="59.7637738" lon="17.8813567">
        <ele>29.4575</ele>
        <time>2013-05-30T19:55:05Z</time>
      </trkpt>
      <trkpt lat="59.7638237" lon="17.8812274">
        <ele>29.4575</ele>
        <time>2013-05-30T19:55:06Z</time>
      </trkpt>
      <trkpt lat="59.7638728" lon="17.8811026">
        <ele>28.9769</ele>
        <time>2013-05-30T19:55:07Z</time>
      </trkpt>
      <trkpt lat="59.7639222" lon="17.8809822">
        <ele>28.4962</ele>
        <time>2013-05-30T19:55:08Z</time>
      </trkpt>
      <trkpt lat="59.7639732" lon="17.8808585">
        <ele>27.5349</ele>
        <time>2013-05-30T19:55:09Z</time>
      </trkpt>
      <trkpt lat="59.7640252" lon="17.8807358">
        <ele>27.5349</ele>
        <time>2013-05-30T19:55:10Z</time>
      </trkpt>
      <trkpt lat="59.7640769" lon="17.8806211">
        <ele>28.0155</ele>
        <time>2013-05-30T19:55:11Z</time>
      </trkpt>
      <trkpt lat="59.7641281" lon="17.880525">
        <ele>28.0155</ele>
        <time>2013-05-30T19:55:12Z</time>
      </trkpt>
      <trkpt lat="59.7641836" lon="17.880428">
        <ele>29.9381</ele>
        <time>2013-05-30T19:55:13Z</time>
      </trkpt>
      <trkpt lat="59.7642389" lon="17.8803373">
        <ele>31.3801</ele>
        <time>2013-05-30T19:55:14Z</time>
      </trkpt>
      <trkpt lat="59.7642924" lon="17.8802453">
        <ele>31.8607</ele>
        <time>2013-05-30T19:55:15Z</time>
      </trkpt>
      <trkpt lat="59.7643488" lon="17.880167">
        <ele>31.3801</ele>
        <time>2013-05-30T19:55:16Z</time>
      </trkpt>
      <trkpt lat="59.7643986" lon="17.880076">
        <ele>27.5349</ele>
        <time>2013-05-30T19:55:17Z</time>
      </trkpt>
      <trkpt lat="59.7644547" lon="17.8799873">
        <ele>25.6123</ele>
        <time>2013-05-30T19:55:18Z</time>
      </trkpt>
      <trkpt lat="59.7645101" lon="17.8799002">
        <ele>24.651</ele>
        <time>2013-05-30T19:55:19Z</time>
      </trkpt>
      <trkpt lat="59.7645647" lon="17.8798018">
        <ele>22.7283</ele>
        <time>2013-05-30T19:55:20Z</time>
      </trkpt>
      <trkpt lat="59.764622" lon="17.8796977">
        <ele>22.2476</ele>
        <time>2013-05-30T19:55:21Z</time>
      </trkpt>
      <trkpt lat="59.7646795" lon="17.8795861">
        <ele>21.767</ele>
        <time>2013-05-30T19:55:22Z</time>
      </trkpt>
      <trkpt lat="59.7647398" lon="17.8794677">
        <ele>21.2864</ele>
        <time>2013-05-30T19:55:23Z</time>
      </trkpt>
      <trkpt lat="59.764798" lon="17.8793434">
        <ele>20.8057</ele>
        <time>2013-05-30T19:55:24Z</time>
      </trkpt>
      <trkpt lat="59.7648571" lon="17.8792099">
        <ele>20.8057</ele>
        <time>2013-05-30T19:55:25Z</time>
      </trkpt>
      <trkpt lat="59.7649147" lon="17.8790655">
        <ele>20.8057</ele>
        <time>2013-05-30T19:55:26Z</time>
      </trkpt>
      <trkpt lat="59.7649724" lon="17.8789105">
        <ele>20.8057</ele>
        <time>2013-05-30T19:55:27Z</time>
      </trkpt>
      <trkpt lat="59.7650275" lon="17.8787493">
        <ele>21.2864</ele>
        <time>2013-05-30T19:55:28Z</time>
      </trkpt>
      <trkpt lat="59.7650757" lon="17.8785864">
        <ele>20.8057</ele>
        <time>2013-05-30T19:55:29Z</time>
      </trkpt>
      <trkpt lat="59.7651244" lon="17.8784251">
        <ele>20.325</ele>
        <time>2013-05-30T19:55:30Z</time>
      </trkpt>
      <trkpt lat="59.7651736" lon="17.8782673">
        <ele>19.8444</ele>
        <time>2013-05-30T19:55:31Z</time>
      </trkpt>
      <trkpt lat="59.7652226" lon="17.878111">
        <ele>19.8444</ele>
        <time>2013-05-30T19:55:32Z</time>
      </trkpt>
      <trkpt lat="59.7652695" lon="17.8779571">
        <ele>19.8444</ele>
        <time>2013-05-30T19:55:33Z</time>
      </trkpt>
      <trkpt lat="59.765315" lon="17.8778085">
        <ele>19.8444</ele>
        <time>2013-05-30T19:55:34Z</time>
      </trkpt>
      <trkpt lat="59.7653585" lon="17.8776645">
        <ele>19.3638</ele>
        <time>2013-05-30T19:55:35Z</time>
      </trkpt>
      <trkpt lat="59.7654011" lon="17.8775216">
        <ele>19.3638</ele>
        <time>2013-05-30T19:55:36Z</time>
      </trkpt>
      <trkpt lat="59.7654425" lon="17.8773859">
        <ele>17.4412</ele>
        <time>2013-05-30T19:55:37Z</time>
      </trkpt>
      <trkpt lat="59.7654823" lon="17.8772433">
        <ele>15.999</ele>
        <time>2013-05-30T19:55:38Z</time>
      </trkpt>
      <trkpt lat="59.7655232" lon="17.8771069">
        <ele>14.557</ele>
        <time>2013-05-30T19:55:39Z</time>
      </trkpt>
      <trkpt lat="59.7655631" lon="17.8769736">
        <ele>14.0764</ele>
        <time>2013-05-30T19:55:40Z</time>
      </trkpt>
      <trkpt lat="59.7656035" lon="17.8768412">
        <ele>13.1151</ele>
        <time>2013-05-30T19:55:41Z</time>
      </trkpt>
      <trkpt lat="59.7656451" lon="17.876712">
        <ele>12.1538</ele>
        <time>2013-05-30T19:55:42Z</time>
      </trkpt>
      <trkpt lat="59.7656858" lon="17.8765781">
        <ele>11.6732</ele>
        <time>2013-05-30T19:55:43Z</time>
      </trkpt>
      <trkpt lat="59.7657263" lon="17.8764528">
        <ele>10.2312</ele>
        <time>2013-05-30T19:55:44Z</time>
      </trkpt>
      <trkpt lat="59.7657614" lon="17.8763358">
        <ele>9.2699</ele>
        <time>2013-05-30T19:55:45Z</time>
      </trkpt>
      <trkpt lat="59.7657967" lon="17.8762165">
        <ele>9.2699</ele>
        <time>2013-05-30T19:55:46Z</time>
      </trkpt>
      <trkpt lat="59.7658314" lon="17.8760968">
        <ele>8.78918</ele>
        <time>2013-05-30T19:55:47Z</time>
      </trkpt>
      <trkpt lat="59.7658709" lon="17.8759684">
        <ele>8.78918</ele>
        <time>2013-05-30T19:55:48Z</time>
      </trkpt>
      <trkpt lat="59.765912" lon="17.8758354">
        <ele>10.2312</ele>
        <time>2013-05-30T19:55:49Z</time>
      </trkpt>
      <trkpt lat="59.7659559" lon="17.8757044">
        <ele>11.6732</ele>
        <time>2013-05-30T19:55:50Z</time>
      </trkpt>
      <trkpt lat="59.7659998" lon="17.8755688">
        <ele>15.0377</ele>
        <time>2013-05-30T19:55:51Z</time>
      </trkpt>
      <trkpt lat="59.7660358" lon="17.8754341">
        <ele>15.5184</ele>
        <time>2013-05-30T19:55:52Z</time>
      </trkpt>
      <trkpt lat="59.7660779" lon="17.8753014">
        <ele>17.4412</ele>
        <time>2013-05-30T19:55:53Z</time>
      </trkpt>
      <trkpt lat="59.766122" lon="17.8751857">
        <ele>17.9218</ele>
        <time>2013-05-30T19:55:54Z</time>
      </trkpt>
      <trkpt lat="59.766169" lon="17.8750801">
        <ele>18.4023</ele>
        <time>2013-05-30T19:55:55Z</time>
      </trkpt>
      <trkpt lat="59.7662177" lon="17.8749797">
        <ele>18.8831</ele>
        <time>2013-05-30T19:55:56Z</time>
      </trkpt>
      <trkpt lat="59.7662641" lon="17.8748631">
        <ele>20.325</ele>
        <time>2013-05-30T19:55:57Z</time>
      </trkpt>
      <trkpt lat="59.7663083" lon="17.8747575">
        <ele>21.2864</ele>
        <time>2013-05-30T19:55:58Z</time>
      </trkpt>
      <trkpt lat="59.7663506" lon="17.8746387">
        <ele>22.2476</ele>
        <time>2013-05-30T19:55:59Z</time>
      </trkpt>
      <trkpt lat="59.766394" lon="17.8745">
        <ele>23.209</ele>
        <time>2013-05-30T19:56:00Z</time>
      </trkpt>
      <trkpt lat="59.7664359" lon="17.874372">
        <ele>22.7283</ele>
        <time>2013-05-30T19:56:01Z</time>
      </trkpt>
      <trkpt lat="59.7664713" lon="17.8742213">
        <ele>20.8057</ele>
        <time>2013-05-30T19:56:02Z</time>
      </trkpt>
      <trkpt lat="59.7665136" lon="17.8740737">
        <ele>20.325</ele>
        <time>2013-05-30T19:56:03Z</time>
      </trkpt>
      <trkpt lat="59.7665541" lon="17.8739236">
        <ele>19.3638</ele>
        <time>2013-05-30T19:56:04Z</time>
      </trkpt>
      <trkpt lat="59.7665986" lon="17.8737756">
        <ele>18.8831</ele>
        <time>2013-05-30T19:56:05Z</time>
      </trkpt>
      <trkpt lat="59.7666414" lon="17.8736122">
        <ele>20.325</ele>
        <time>2013-05-30T19:56:06Z</time>
      </trkpt>
      <trkpt lat="59.766684" lon="17.8734508">
        <ele>21.767</ele>
        <time>2013-05-30T19:56:07Z</time>
      </trkpt>
      <trkpt lat="59.7667267" lon="17.8732816">
        <ele>23.209</ele>
        <time>2013-05-30T19:56:08Z</time>
      </trkpt>
      <trkpt lat="59.7667675" lon="17.8731157">
        <ele>24.651</ele>
        <time>2013-05-30T19:56:09Z</time>
      </trkpt>
      <trkpt lat="59.7668066" lon="17.8729517">
        <ele>26.0929</ele>
        <time>2013-05-30T19:56:10Z</time>
      </trkpt>
      <trkpt lat="59.7668468" lon="17.8727735">
        <ele>27.5349</ele>
        <time>2013-05-30T19:56:11Z</time>
      </trkpt>
      <trkpt lat="59.7668849" lon="17.8726203">
        <ele>28.4962</ele>
        <time>2013-05-30T19:56:12Z</time>
      </trkpt>
      <trkpt lat="59.7669211" lon="17.8724714">
        <ele>28.9769</ele>
        <time>2013-05-30T19:56:13Z</time>
      </trkpt>
      <trkpt lat="59.7669517" lon="17.8723139">
        <ele>29.9381</ele>
        <time>2013-05-30T19:56:14Z</time>
      </trkpt>
      <trkpt lat="59.7669808" lon="17.8721595">
        <ele>31.8607</ele>
        <time>2013-05-30T19:56:15Z</time>
      </trkpt>
      <trkpt lat="59.7670064" lon="17.8720053">
        <ele>32.8223</ele>
        <time>2013-05-30T19:56:16Z</time>
      </trkpt>
      <trkpt lat="59.7670301" lon="17.8718499">
        <ele>33.7834</ele>
        <time>2013-05-30T19:56:17Z</time>
      </trkpt>
      <trkpt lat="59.767053" lon="17.8716915">
        <ele>35.2255</ele>
        <time>2013-05-30T19:56:18Z</time>
      </trkpt>
      <trkpt lat="59.7670691" lon="17.8715322">
        <ele>36.1868</ele>
        <time>2013-05-30T19:56:19Z</time>
      </trkpt>
      <trkpt lat="59.7670736" lon="17.8713609">
        <ele>31.8607</ele>
        <time>2013-05-30T19:56:20Z</time>
      </trkpt>
      <trkpt lat="59.7670921" lon="17.8711863">
        <ele>32.8223</ele>
        <time>2013-05-30T19:56:21Z</time>
      </trkpt>
      <trkpt lat="59.7671051" lon="17.8710276">
        <ele>33.3029</ele>
        <time>2013-05-30T19:56:22Z</time>
      </trkpt>
      <trkpt lat="59.767114" lon="17.8708745">
        <ele>32.3416</ele>
        <time>2013-05-30T19:56:23Z</time>
      </trkpt>
      <trkpt lat="59.7671079" lon="17.8707066">
        <ele>28.0155</ele>
        <time>2013-05-30T19:56:24Z</time>
      </trkpt>
      <trkpt lat="59.7671128" lon="17.8705388">
        <ele>27.0543</ele>
        <time>2013-05-30T19:56:25Z</time>
      </trkpt>
      <trkpt lat="59.7671176" lon="17.8703573">
        <ele>26.5736</ele>
        <time>2013-05-30T19:56:26Z</time>
      </trkpt>
      <trkpt lat="59.7671263" lon="17.8701674">
        <ele>27.5349</ele>
        <time>2013-05-30T19:56:27Z</time>
      </trkpt>
      <trkpt lat="59.7671363" lon="17.8699751">
        <ele>28.0155</ele>
        <time>2013-05-30T19:56:28Z</time>
      </trkpt>
      <trkpt lat="59.767135" lon="17.8697893">
        <ele>26.0929</ele>
        <time>2013-05-30T19:56:29Z</time>
      </trkpt>
      <trkpt lat="59.7671388" lon="17.8696034">
        <ele>25.6123</ele>
        <time>2013-05-30T19:56:30Z</time>
      </trkpt>
      <trkpt lat="59.7671483" lon="17.8694094">
        <ele>26.0929</ele>
        <time>2013-05-30T19:56:31Z</time>
      </trkpt>
      <trkpt lat="59.7671534" lon="17.8692225">
        <ele>25.6123</ele>
        <time>2013-05-30T19:56:32Z</time>
      </trkpt>
      <trkpt lat="59.7671579" lon="17.8690417">
        <ele>25.6123</ele>
        <time>2013-05-30T19:56:33Z</time>
      </trkpt>
      <trkpt lat="59.7671617" lon="17.8688677">
        <ele>25.1317</ele>
        <time>2013-05-30T19:56:34Z</time>
      </trkpt>
      <trkpt lat="59.7671633" lon="17.8687005">
        <ele>24.651</ele>
        <time>2013-05-30T19:56:35Z</time>
      </trkpt>
      <trkpt lat="59.7671695" lon="17.8685358">
        <ele>25.1317</ele>
        <time>2013-05-30T19:56:36Z</time>
      </trkpt>
      <trkpt lat="59.7671734" lon="17.8683761">
        <ele>24.651</ele>
        <time>2013-05-30T19:56:37Z</time>
      </trkpt>
      <trkpt lat="59.7671775" lon="17.8682179">
        <ele>24.1703</ele>
        <time>2013-05-30T19:56:38Z</time>
      </trkpt>
      <trkpt lat="59.767182" lon="17.8680615">
        <ele>24.1703</ele>
        <time>2013-05-30T19:56:39Z</time>
      </trkpt>
      <trkpt lat="59.7671855" lon="17.8679151">
        <ele>23.6896</ele>
        <time>2013-05-30T19:56:40Z</time>
      </trkpt>
      <trkpt lat="59.7671928" lon="17.867768">
        <ele>24.1703</ele>
        <time>2013-05-30T19:56:41Z</time>
      </trkpt>
      <trkpt lat="59.7671988" lon="17.8676194">
        <ele>24.651</ele>
        <time>2013-05-30T19:56:42Z</time>
      </trkpt>
      <trkpt lat="59.7672019" lon="17.8674757">
        <ele>24.1703</ele>
        <time>2013-05-30T19:56:43Z</time>
      </trkpt>
      <trkpt lat="59.7672083" lon="17.8673249">
        <ele>24.651</ele>
        <time>2013-05-30T19:56:44Z</time>
      </trkpt>
      <trkpt lat="59.7672155" lon="17.8671748">
        <ele>24.651</ele>
        <time>2013-05-30T19:56:45Z</time>
      </trkpt>
      <trkpt lat="59.7672223" lon="17.8670254">
        <ele>24.651</ele>
        <time>2013-05-30T19:56:46Z</time>
      </trkpt>
      <trkpt lat="59.7672295" lon="17.8668848">
        <ele>23.6896</ele>
        <time>2013-05-30T19:56:47Z</time>
      </trkpt>
      <trkpt lat="59.7672368" lon="17.8667407">
        <ele>20.8057</ele>
        <time>2013-05-30T19:56:48Z</time>
      </trkpt>
      <trkpt lat="59.7672512" lon="17.8665988">
        <ele>20.8057</ele>
        <time>2013-05-30T19:56:49Z</time>
      </trkpt>
      <trkpt lat="59.7672627" lon="17.8664603">
        <ele>19.3638</ele>
        <time>2013-05-30T19:56:50Z</time>
      </trkpt>
      <trkpt lat="59.7672791" lon="17.8663195">
        <ele>18.8831</ele>
        <time>2013-05-30T19:56:51Z</time>
      </trkpt>
      <trkpt lat="59.7672917" lon="17.8661728">
        <ele>18.4023</ele>
        <time>2013-05-30T19:56:52Z</time>
      </trkpt>
      <trkpt lat="59.7673114" lon="17.8660176">
        <ele>18.8831</ele>
        <time>2013-05-30T19:56:53Z</time>
      </trkpt>
      <trkpt lat="59.7673309" lon="17.8658657">
        <ele>18.8831</ele>
        <time>2013-05-30T19:56:54Z</time>
      </trkpt>
      <trkpt lat="59.767349" lon="17.8657123">
        <ele>19.3638</ele>
        <time>2013-05-30T19:56:55Z</time>
      </trkpt>
      <trkpt lat="59.7673611" lon="17.8655446">
        <ele>16.9604</ele>
        <time>2013-05-30T19:56:56Z</time>
      </trkpt>
      <trkpt lat="59.767384" lon="17.8654006">
        <ele>18.8831</ele>
        <time>2013-05-30T19:56:57Z</time>
      </trkpt>
      <trkpt lat="59.7674051" lon="17.8652772">
        <ele>21.2864</ele>
        <time>2013-05-30T19:56:58Z</time>
      </trkpt>
      <trkpt lat="59.7674253" lon="17.8651567">
        <ele>22.2476</ele>
        <time>2013-05-30T19:56:59Z</time>
      </trkpt>
      <trkpt lat="59.7674466" lon="17.86504">
        <ele>22.7283</ele>
        <time>2013-05-30T19:57:00Z</time>
      </trkpt>
      <trkpt lat="59.7674609" lon="17.8649314">
        <ele>20.325</ele>
        <time>2013-05-30T19:57:01Z</time>
      </trkpt>
      <trkpt lat="59.767477" lon="17.8648297">
        <ele>19.8444</ele>
        <time>2013-05-30T19:57:02Z</time>
      </trkpt>
      <trkpt lat="59.7674933" lon="17.8647148">
        <ele>19.3638</ele>
        <time>2013-05-30T19:57:03Z</time>
      </trkpt>
      <trkpt lat="59.7675143" lon="17.8646063">
        <ele>20.8057</ele>
        <time>2013-05-30T19:57:04Z</time>
      </trkpt>
      <trkpt lat="59.7675304" lon="17.8644899">
        <ele>19.8444</ele>
        <time>2013-05-30T19:57:05Z</time>
      </trkpt>
      <trkpt lat="59.7675476" lon="17.864377">
        <ele>18.8831</ele>
        <time>2013-05-30T19:57:06Z</time>
      </trkpt>
      <trkpt lat="59.7675678" lon="17.8642515">
        <ele>19.8444</ele>
        <time>2013-05-30T19:57:07Z</time>
      </trkpt>
      <trkpt lat="59.7675828" lon="17.8641399">
        <ele>18.8831</ele>
        <time>2013-05-30T19:57:08Z</time>
      </trkpt>
      <trkpt lat="59.7675971" lon="17.8640433">
        <ele>17.4412</ele>
        <time>2013-05-30T19:57:09Z</time>
      </trkpt>
      <trkpt lat="59.7676106" lon="17.8639303">
        <ele>14.557</ele>
        <time>2013-05-30T19:57:10Z</time>
      </trkpt>
      <trkpt lat="59.7676342" lon="17.8638091">
        <ele>13.5958</ele>
        <time>2013-05-30T19:57:11Z</time>
      </trkpt>
      <trkpt lat="59.767658" lon="17.8636813">
        <ele>12.1538</ele>
        <time>2013-05-30T19:57:12Z</time>
      </trkpt>
      <trkpt lat="59.7676822" lon="17.8635455">
        <ele>12.1538</ele>
        <time>2013-05-30T19:57:13Z</time>
      </trkpt>
      <trkpt lat="59.7677078" lon="17.8633988">
        <ele>12.6344</ele>
        <time>2013-05-30T19:57:14Z</time>
      </trkpt>
      <trkpt lat="59.7677315" lon="17.8632468">
        <ele>10.2312</ele>
        <time>2013-05-30T19:57:15Z</time>
      </trkpt>
      <trkpt lat="59.7677605" lon="17.8630851">
        <ele>10.2312</ele>
        <time>2013-05-30T19:57:16Z</time>
      </trkpt>
      <trkpt lat="59.7677899" lon="17.8629218">
        <ele>10.7118</ele>
        <time>2013-05-30T19:57:17Z</time>
      </trkpt>
      <trkpt lat="59.7678237" lon="17.8627781">
        <ele>11.6732</ele>
        <time>2013-05-30T19:57:18Z</time>
      </trkpt>
      <trkpt lat="59.7678569" lon="17.8626288">
        <ele>12.6344</ele>
        <time>2013-05-30T19:57:19Z</time>
      </trkpt>
      <trkpt lat="59.7678941" lon="17.8624571">
        <ele>14.557</ele>
        <time>2013-05-30T19:57:20Z</time>
      </trkpt>
      <trkpt lat="59.7679309" lon="17.8622997">
        <ele>15.0377</ele>
        <time>2013-05-30T19:57:21Z</time>
      </trkpt>
      <trkpt lat="59.767963" lon="17.8621396">
        <ele>13.5958</ele>
        <time>2013-05-30T19:57:22Z</time>
      </trkpt>
      <trkpt lat="59.7679967" lon="17.8619612">
        <ele>14.0764</ele>
        <time>2013-05-30T19:57:23Z</time>
      </trkpt>
      <trkpt lat="59.768033" lon="17.8617972">
        <ele>14.557</ele>
        <time>2013-05-30T19:57:24Z</time>
      </trkpt>
      <trkpt lat="59.7680723" lon="17.8616321">
        <ele>15.5184</ele>
        <time>2013-05-30T19:57:25Z</time>
      </trkpt>
      <trkpt lat="59.768112" lon="17.8614716">
        <ele>15.999</ele>
        <time>2013-05-30T19:57:26Z</time>
      </trkpt>
      <trkpt lat="59.768155" lon="17.8613171">
        <ele>16.9604</ele>
        <time>2013-05-30T19:57:27Z</time>
      </trkpt>
      <trkpt lat="59.7682003" lon="17.8611685">
        <ele>16.9604</ele>
        <time>2013-05-30T19:57:28Z</time>
      </trkpt>
      <trkpt lat="59.7682491" lon="17.8610219">
        <ele>17.4412</ele>
        <time>2013-05-30T19:57:29Z</time>
      </trkpt>
      <trkpt lat="59.7682997" lon="17.8608743">
        <ele>17.4412</ele>
        <time>2013-05-30T19:57:30Z</time>
      </trkpt>
      <trkpt lat="59.7683525" lon="17.8607282">
        <ele>17.4412</ele>
        <time>2013-05-30T19:57:31Z</time>
      </trkpt>
      <trkpt lat="59.7684044" lon="17.8605829">
        <ele>17.4412</ele>
        <time>2013-05-30T19:57:32Z</time>
      </trkpt>
      <trkpt lat="59.7684556" lon="17.8604407">
        <ele>17.9218</ele>
        <time>2013-05-30T19:57:33Z</time>
      </trkpt>
      <trkpt lat="59.7685069" lon="17.8603008">
        <ele>17.9218</ele>
        <time>2013-05-30T19:57:34Z</time>
      </trkpt>
      <trkpt lat="59.7685589" lon="17.8601507">
        <ele>17.9218</ele>
        <time>2013-05-30T19:57:35Z</time>
      </trkpt>
      <trkpt lat="59.76861" lon="17.8600127">
        <ele>17.9218</ele>
        <time>2013-05-30T19:57:36Z</time>
      </trkpt>
      <trkpt lat="59.7686638" lon="17.8598814">
        <ele>17.9218</ele>
        <time>2013-05-30T19:57:37Z</time>
      </trkpt>
      <trkpt lat="59.7687167" lon="17.859748">
        <ele>17.9218</ele>
        <time>2013-05-30T19:57:38Z</time>
      </trkpt>
      <trkpt lat="59.7687725" lon="17.8596155">
        <ele>17.9218</ele>
        <time>2013-05-30T19:57:39Z</time>
      </trkpt>
      <trkpt lat="59.7688308" lon="17.8594804">
        <ele>18.8831</ele>
        <time>2013-05-30T19:57:40Z</time>
      </trkpt>
      <trkpt lat="59.7688855" lon="17.8593573">
        <ele>18.8831</ele>
        <time>2013-05-30T19:57:41Z</time>
      </trkpt>
      <trkpt lat="59.7689363" lon="17.8592331">
        <ele>16.9604</ele>
        <time>2013-05-30T19:57:42Z</time>
      </trkpt>
      <trkpt lat="59.768993" lon="17.8591176">
        <ele>15.5184</ele>
        <time>2013-05-30T19:57:43Z</time>
      </trkpt>
      <trkpt lat="59.7690538" lon="17.8590084">
        <ele>15.0377</ele>
        <time>2013-05-30T19:57:44Z</time>
      </trkpt>
      <trkpt lat="59.7691152" lon="17.8588995">
        <ele>14.0764</ele>
        <time>2013-05-30T19:57:45Z</time>
      </trkpt>
      <trkpt lat="59.7691784" lon="17.8587945">
        <ele>12.6344</ele>
        <time>2013-05-30T19:57:46Z</time>
      </trkpt>
      <trkpt lat="59.7692499" lon="17.8587003">
        <ele>13.5958</ele>
        <time>2013-05-30T19:57:47Z</time>
      </trkpt>
      <trkpt lat="59.7693205" lon="17.8586101">
        <ele>12.6344</ele>
        <time>2013-05-30T19:57:48Z</time>
      </trkpt>
      <trkpt lat="59.7693947" lon="17.8585316">
        <ele>12.6344</ele>
        <time>2013-05-30T19:57:49Z</time>
      </trkpt>
      <trkpt lat="59.7694708" lon="17.8584603">
        <ele>13.1151</ele>
        <time>2013-05-30T19:57:50Z</time>
      </trkpt>
      <trkpt lat="59.7695516" lon="17.8583903">
        <ele>13.5958</ele>
        <time>2013-05-30T19:57:51Z</time>
      </trkpt>
      <trkpt lat="59.7696332" lon="17.8583244">
        <ele>14.0764</ele>
        <time>2013-05-30T19:57:52Z</time>
      </trkpt>
      <trkpt lat="59.7697163" lon="17.8582625">
        <ele>14.0764</ele>
        <time>2013-05-30T19:57:53Z</time>
      </trkpt>
      <trkpt lat="59.7697947" lon="17.8582132">
        <ele>12.6344</ele>
        <time>2013-05-30T19:57:54Z</time>
      </trkpt>
      <trkpt lat="59.7698775" lon="17.85816">
        <ele>12.6344</ele>
        <time>2013-05-30T19:57:55Z</time>
      </trkpt>
      <trkpt lat="59.7699588" lon="17.8581032">
        <ele>11.6732</ele>
        <time>2013-05-30T19:57:56Z</time>
      </trkpt>
      <trkpt lat="59.7700465" lon="17.8580545">
        <ele>12.1538</ele>
        <time>2013-05-30T19:57:57Z</time>
      </trkpt>
      <trkpt lat="59.7701291" lon="17.8580201">
        <ele>10.7118</ele>
        <time>2013-05-30T19:57:58Z</time>
      </trkpt>
      <trkpt lat="59.7702127" lon="17.8579662">
        <ele>9.75061</ele>
        <time>2013-05-30T19:57:59Z</time>
      </trkpt>
      <trkpt lat="59.7702973" lon="17.8579184">
        <ele>10.2312</ele>
        <time>2013-05-30T19:58:00Z</time>
      </trkpt>
      <trkpt lat="59.7703773" lon="17.8578817">
        <ele>8.78918</ele>
        <time>2013-05-30T19:58:01Z</time>
      </trkpt>
      <trkpt lat="59.7704614" lon="17.857835">
        <ele>9.2699</ele>
        <time>2013-05-30T19:58:02Z</time>
      </trkpt>
      <trkpt lat="59.7705446" lon="17.8577824">
        <ele>9.75061</ele>
        <time>2013-05-30T19:58:03Z</time>
      </trkpt>
      <trkpt lat="59.7706242" lon="17.8577341">
        <ele>8.78918</ele>
        <time>2013-05-30T19:58:04Z</time>
      </trkpt>
      <trkpt lat="59.7707075" lon="17.8576646">
        <ele>9.75061</ele>
        <time>2013-05-30T19:58:05Z</time>
      </trkpt>
      <trkpt lat="59.7707934" lon="17.8576034">
        <ele>9.75061</ele>
        <time>2013-05-30T19:58:06Z</time>
      </trkpt>
      <trkpt lat="59.770878" lon="17.8575467">
        <ele>9.2699</ele>
        <time>2013-05-30T19:58:07Z</time>
      </trkpt>
      <trkpt lat="59.7709623" lon="17.8574863">
        <ele>9.2699</ele>
        <time>2013-05-30T19:58:08Z</time>
      </trkpt>
      <trkpt lat="59.7710476" lon="17.857426">
        <ele>8.30859</ele>
        <time>2013-05-30T19:58:09Z</time>
      </trkpt>
      <trkpt lat="59.7711344" lon="17.8573658">
        <ele>7.82788</ele>
        <time>2013-05-30T19:58:10Z</time>
      </trkpt>
      <trkpt lat="59.7712218" lon="17.8573128">
        <ele>9.75061</ele>
        <time>2013-05-30T19:58:11Z</time>
      </trkpt>
      <trkpt lat="59.7713024" lon="17.8572517">
        <ele>10.2312</ele>
        <time>2013-05-30T19:58:12Z</time>
      </trkpt>
      <trkpt lat="59.7713822" lon="17.8571972">
        <ele>9.2699</ele>
        <time>2013-05-30T19:58:13Z</time>
      </trkpt>
      <trkpt lat="59.7714635" lon="17.857155">
        <ele>9.2699</ele>
        <time>2013-05-30T19:58:14Z</time>
      </trkpt>
      <trkpt lat="59.7715429" lon="17.8571064">
        <ele>9.2699</ele>
        <time>2013-05-30T19:58:15Z</time>
      </trkpt>
      <trkpt lat="59.7716208" lon="17.8570462">
        <ele>8.78918</ele>
        <time>2013-05-30T19:58:16Z</time>
      </trkpt>
      <trkpt lat="59.7717046" lon="17.8569859">
        <ele>9.2699</ele>
        <time>2013-05-30T19:58:17Z</time>
      </trkpt>
      <trkpt lat="59.7717879" lon="17.856925">
        <ele>8.78918</ele>
        <time>2013-05-30T19:58:18Z</time>
      </trkpt>
      <trkpt lat="59.7718715" lon="17.8568487">
        <ele>8.78918</ele>
        <time>2013-05-30T19:58:19Z</time>
      </trkpt>
      <trkpt lat="59.7719532" lon="17.8567624">
        <ele>9.2699</ele>
        <time>2013-05-30T19:58:20Z</time>
      </trkpt>
      <trkpt lat="59.7720305" lon="17.8566638">
        <ele>9.75061</ele>
        <time>2013-05-30T19:58:21Z</time>
      </trkpt>
      <trkpt lat="59.7721025" lon="17.8565594">
        <ele>10.2312</ele>
        <time>2013-05-30T19:58:22Z</time>
      </trkpt>
      <trkpt lat="59.7721681" lon="17.8564587">
        <ele>10.2312</ele>
        <time>2013-05-30T19:58:23Z</time>
      </trkpt>
      <trkpt lat="59.7722304" lon="17.8563503">
        <ele>10.2312</ele>
        <time>2013-05-30T19:58:24Z</time>
      </trkpt>
      <trkpt lat="59.7722921" lon="17.8562327">
        <ele>10.7118</ele>
        <time>2013-05-30T19:58:25Z</time>
      </trkpt>
      <trkpt lat="59.7723497" lon="17.8561073">
        <ele>10.7118</ele>
        <time>2013-05-30T19:58:26Z</time>
      </trkpt>
      <trkpt lat="59.7724063" lon="17.8559775">
        <ele>11.1925</ele>
        <time>2013-05-30T19:58:27Z</time>
      </trkpt>
      <trkpt lat="59.7724635" lon="17.8558453">
        <ele>11.1925</ele>
        <time>2013-05-30T19:58:28Z</time>
      </trkpt>
      <trkpt lat="59.7725214" lon="17.8557113">
        <ele>11.1925</ele>
        <time>2013-05-30T19:58:29Z</time>
      </trkpt>
      <trkpt lat="59.7725774" lon="17.8555759">
        <ele>11.1925</ele>
        <time>2013-05-30T19:58:30Z</time>
      </trkpt>
      <trkpt lat="59.7726311" lon="17.8554398">
        <ele>11.6732</ele>
        <time>2013-05-30T19:58:31Z</time>
      </trkpt>
      <trkpt lat="59.7726841" lon="17.855302">
        <ele>12.1538</ele>
        <time>2013-05-30T19:58:32Z</time>
      </trkpt>
      <trkpt lat="59.77274" lon="17.8551667">
        <ele>12.1538</ele>
        <time>2013-05-30T19:58:33Z</time>
      </trkpt>
      <trkpt lat="59.7727975" lon="17.8550302">
        <ele>12.6344</ele>
        <time>2013-05-30T19:58:34Z</time>
      </trkpt>
      <trkpt lat="59.7728562" lon="17.8548916">
        <ele>12.6344</ele>
        <time>2013-05-30T19:58:35Z</time>
      </trkpt>
      <trkpt lat="59.7729143" lon="17.8547536">
        <ele>13.1151</ele>
        <time>2013-05-30T19:58:36Z</time>
      </trkpt>
      <trkpt lat="59.7729715" lon="17.8546121">
        <ele>13.1151</ele>
        <time>2013-05-30T19:58:37Z</time>
      </trkpt>
      <trkpt lat="59.773031" lon="17.8544701">
        <ele>14.557</ele>
        <time>2013-05-30T19:58:38Z</time>
      </trkpt>
      <trkpt lat="59.773086" lon="17.854336">
        <ele>14.0764</ele>
        <time>2013-05-30T19:58:39Z</time>
      </trkpt>
      <trkpt lat="59.7731398" lon="17.8542018">
        <ele>13.5958</ele>
        <time>2013-05-30T19:58:40Z</time>
      </trkpt>
      <trkpt lat="59.7731911" lon="17.8540676">
        <ele>12.1538</ele>
        <time>2013-05-30T19:58:41Z</time>
      </trkpt>
      <trkpt lat="59.7732436" lon="17.853931">
        <ele>12.6344</ele>
        <time>2013-05-30T19:58:42Z</time>
      </trkpt>
      <trkpt lat="59.7732961" lon="17.8537945">
        <ele>12.6344</ele>
        <time>2013-05-30T19:58:43Z</time>
      </trkpt>
      <trkpt lat="59.7733498" lon="17.8536549">
        <ele>13.1151</ele>
        <time>2013-05-30T19:58:44Z</time>
      </trkpt>
      <trkpt lat="59.7734001" lon="17.8535092">
        <ele>13.5958</ele>
        <time>2013-05-30T19:58:45Z</time>
      </trkpt>
      <trkpt lat="59.773447" lon="17.8533579">
        <ele>13.5958</ele>
        <time>2013-05-30T19:58:46Z</time>
      </trkpt>
      <trkpt lat="59.7734926" lon="17.8532024">
        <ele>14.0764</ele>
        <time>2013-05-30T19:58:47Z</time>
      </trkpt>
      <trkpt lat="59.7735361" lon="17.8530434">
        <ele>14.557</ele>
        <time>2013-05-30T19:58:48Z</time>
      </trkpt>
      <trkpt lat="59.7735784" lon="17.8528827">
        <ele>14.557</ele>
        <time>2013-05-30T19:58:49Z</time>
      </trkpt>
      <trkpt lat="59.7736218" lon="17.8527198">
        <ele>15.0377</ele>
        <time>2013-05-30T19:58:50Z</time>
      </trkpt>
      <trkpt lat="59.7736648" lon="17.8525564">
        <ele>15.5184</ele>
        <time>2013-05-30T19:58:51Z</time>
      </trkpt>
      <trkpt lat="59.7737057" lon="17.8523945">
        <ele>15.0377</ele>
        <time>2013-05-30T19:58:52Z</time>
      </trkpt>
      <trkpt lat="59.7737487" lon="17.8522283">
        <ele>15.999</ele>
        <time>2013-05-30T19:58:53Z</time>
      </trkpt>
      <trkpt lat="59.773793" lon="17.8520636">
        <ele>17.4412</ele>
        <time>2013-05-30T19:58:54Z</time>
      </trkpt>
      <trkpt lat="59.7738379" lon="17.8519049">
        <ele>18.8831</ele>
        <time>2013-05-30T19:58:55Z</time>
      </trkpt>
      <trkpt lat="59.7738829" lon="17.8517372">
        <ele>20.8057</ele>
        <time>2013-05-30T19:58:56Z</time>
      </trkpt>
      <trkpt lat="59.7739256" lon="17.8515737">
        <ele>21.767</ele>
        <time>2013-05-30T19:58:57Z</time>
      </trkpt>
      <trkpt lat="59.7739682" lon="17.8514145">
        <ele>23.6896</ele>
        <time>2013-05-30T19:58:58Z</time>
      </trkpt>
      <trkpt lat="59.7740046" lon="17.8512647">
        <ele>22.7283</ele>
        <time>2013-05-30T19:58:59Z</time>
      </trkpt>
      <trkpt lat="59.7740401" lon="17.8511264">
        <ele>21.2864</ele>
        <time>2013-05-30T19:59:00Z</time>
      </trkpt>
      <trkpt lat="59.7740755" lon="17.8509822">
        <ele>19.8444</ele>
        <time>2013-05-30T19:59:01Z</time>
      </trkpt>
      <trkpt lat="59.7741111" lon="17.8508456">
        <ele>18.4023</ele>
        <time>2013-05-30T19:59:02Z</time>
      </trkpt>
      <trkpt lat="59.7741485" lon="17.8507029">
        <ele>17.4412</ele>
        <time>2013-05-30T19:59:03Z</time>
      </trkpt>
      <trkpt lat="59.7741862" lon="17.8505592">
        <ele>16.4797</ele>
        <time>2013-05-30T19:59:04Z</time>
      </trkpt>
      <trkpt lat="59.7742245" lon="17.8504145">
        <ele>15.5184</ele>
        <time>2013-05-30T19:59:05Z</time>
      </trkpt>
      <trkpt lat="59.7742631" lon="17.8502686">
        <ele>15.0377</ele>
        <time>2013-05-30T19:59:06Z</time>
      </trkpt>
      <trkpt lat="59.7743028" lon="17.8501225">
        <ele>14.557</ele>
        <time>2013-05-30T19:59:07Z</time>
      </trkpt>
      <trkpt lat="59.7743434" lon="17.8499767">
        <ele>14.557</ele>
        <time>2013-05-30T19:59:08Z</time>
      </trkpt>
      <trkpt lat="59.7743872" lon="17.8498323">
        <ele>14.0764</ele>
        <time>2013-05-30T19:59:09Z</time>
      </trkpt>
      <trkpt lat="59.7744333" lon="17.8496873">
        <ele>14.0764</ele>
        <time>2013-05-30T19:59:10Z</time>
      </trkpt>
      <trkpt lat="59.7744805" lon="17.8495453">
        <ele>13.5958</ele>
        <time>2013-05-30T19:59:11Z</time>
      </trkpt>
      <trkpt lat="59.7745299" lon="17.8494043">
        <ele>13.5958</ele>
        <time>2013-05-30T19:59:12Z</time>
      </trkpt>
      <trkpt lat="59.7745817" lon="17.8492666">
        <ele>13.5958</ele>
        <time>2013-05-30T19:59:13Z</time>
      </trkpt>
      <trkpt lat="59.7746341" lon="17.8491306">
        <ele>13.1151</ele>
        <time>2013-05-30T19:59:14Z</time>
      </trkpt>
      <trkpt lat="59.7746873" lon="17.8489963">
        <ele>13.1151</ele>
        <time>2013-05-30T19:59:15Z</time>
      </trkpt>
      <trkpt lat="59.7747417" lon="17.8488647">
        <ele>12.6344</ele>
        <time>2013-05-30T19:59:16Z</time>
      </trkpt>
      <trkpt lat="59.7747956" lon="17.848734">
        <ele>12.1538</ele>
        <time>2013-05-30T19:59:17Z</time>
      </trkpt>
      <trkpt lat="59.7748482" lon="17.8486062">
        <ele>11.6732</ele>
        <time>2013-05-30T19:59:18Z</time>
      </trkpt>
      <trkpt lat="59.7749016" lon="17.8484855">
        <ele>11.1925</ele>
        <time>2013-05-30T19:59:19Z</time>
      </trkpt>
      <trkpt lat="59.7749546" lon="17.8483669">
        <ele>11.1925</ele>
        <time>2013-05-30T19:59:20Z</time>
      </trkpt>
      <trkpt lat="59.7750088" lon="17.8482492">
        <ele>11.1925</ele>
        <time>2013-05-30T19:59:21Z</time>
      </trkpt>
      <trkpt lat="59.7750647" lon="17.848129">
        <ele>11.1925</ele>
        <time>2013-05-30T19:59:22Z</time>
      </trkpt>
      <trkpt lat="59.7751214" lon="17.8480049">
        <ele>11.1925</ele>
        <time>2013-05-30T19:59:23Z</time>
      </trkpt>
      <trkpt lat="59.7751746" lon="17.8478809">
        <ele>9.2699</ele>
        <time>2013-05-30T19:59:24Z</time>
      </trkpt>
      <trkpt lat="59.7752288" lon="17.8477472">
        <ele>9.2699</ele>
        <time>2013-05-30T19:59:25Z</time>
      </trkpt>
      <trkpt lat="59.7752836" lon="17.8476168">
        <ele>9.75061</ele>
        <time>2013-05-30T19:59:26Z</time>
      </trkpt>
      <trkpt lat="59.7753386" lon="17.8474895">
        <ele>9.2699</ele>
        <time>2013-05-30T19:59:27Z</time>
      </trkpt>
      <trkpt lat="59.775397" lon="17.8473626">
        <ele>9.2699</ele>
        <time>2013-05-30T19:59:28Z</time>
      </trkpt>
      <trkpt lat="59.7754554" lon="17.8472356">
        <ele>8.30859</ele>
        <time>2013-05-30T19:59:29Z</time>
      </trkpt>
      <trkpt lat="59.7755128" lon="17.8471051">
        <ele>6.86646</ele>
        <time>2013-05-30T19:59:30Z</time>
      </trkpt>
      <trkpt lat="59.775569" lon="17.8469743">
        <ele>5.42456</ele>
        <time>2013-05-30T19:59:31Z</time>
      </trkpt>
      <trkpt lat="59.7756256" lon="17.8468435">
        <ele>4.94385</ele>
        <time>2013-05-30T19:59:32Z</time>
      </trkpt>
      <trkpt lat="59.7756835" lon="17.8467165">
        <ele>4.46326</ele>
        <time>2013-05-30T19:59:33Z</time>
      </trkpt>
      <trkpt lat="59.775741" lon="17.846591">
        <ele>4.46326</ele>
        <time>2013-05-30T19:59:34Z</time>
      </trkpt>
      <trkpt lat="59.7757984" lon="17.8464658">
        <ele>3.98267</ele>
        <time>2013-05-30T19:59:35Z</time>
      </trkpt>
      <trkpt lat="59.7758554" lon="17.8463367">
        <ele>3.50195</ele>
        <time>2013-05-30T19:59:36Z</time>
      </trkpt>
      <trkpt lat="59.775913" lon="17.8462054">
        <ele>3.02124</ele>
        <time>2013-05-30T19:59:37Z</time>
      </trkpt>
      <trkpt lat="59.7759711" lon="17.8460743">
        <ele>2.06006</ele>
        <time>2013-05-30T19:59:38Z</time>
      </trkpt>
      <trkpt lat="59.77603" lon="17.8459442">
        <ele>2.06006</ele>
        <time>2013-05-30T19:59:39Z</time>
      </trkpt>
      <trkpt lat="59.7760894" lon="17.845816">
        <ele>2.06006</ele>
        <time>2013-05-30T19:59:40Z</time>
      </trkpt>
      <trkpt lat="59.7761507" lon="17.8456887">
        <ele>3.02124</ele>
        <time>2013-05-30T19:59:41Z</time>
      </trkpt>
      <trkpt lat="59.7762109" lon="17.8455628">
        <ele>3.98267</ele>
        <time>2013-05-30T19:59:42Z</time>
      </trkpt>
      <trkpt lat="59.7762714" lon="17.8454386">
        <ele>3.98267</ele>
        <time>2013-05-30T19:59:43Z</time>
      </trkpt>
      <trkpt lat="59.776332" lon="17.8453162">
        <ele>3.98267</ele>
        <time>2013-05-30T19:59:44Z</time>
      </trkpt>
      <trkpt lat="59.7763932" lon="17.8451931">
        <ele>4.46326</ele>
        <time>2013-05-30T19:59:45Z</time>
      </trkpt>
      <trkpt lat="59.7764543" lon="17.8450696">
        <ele>4.94385</ele>
        <time>2013-05-30T19:59:46Z</time>
      </trkpt>
      <trkpt lat="59.7765158" lon="17.8449495">
        <ele>5.42456</ele>
        <time>2013-05-30T19:59:47Z</time>
      </trkpt>
      <trkpt lat="59.776576" lon="17.8448306">
        <ele>5.42456</ele>
        <time>2013-05-30T19:59:48Z</time>
      </trkpt>
      <trkpt lat="59.776635" lon="17.8447101">
        <ele>5.90527</ele>
        <time>2013-05-30T19:59:49Z</time>
      </trkpt>
      <trkpt lat="59.7766926" lon="17.8445891">
        <ele>5.90527</ele>
        <time>2013-05-30T19:59:50Z</time>
      </trkpt>
      <trkpt lat="59.7767507" lon="17.8444683">
        <ele>5.42456</ele>
        <time>2013-05-30T19:59:51Z</time>
      </trkpt>
      <trkpt lat="59.77681" lon="17.8443471">
        <ele>6.38586</ele>
        <time>2013-05-30T19:59:52Z</time>
      </trkpt>
      <trkpt lat="59.7768683" lon="17.844228">
        <ele>7.34717</ele>
        <time>2013-05-30T19:59:53Z</time>
      </trkpt>
      <trkpt lat="59.7769256" lon="17.8441104">
        <ele>7.82788</ele>
        <time>2013-05-30T19:59:54Z</time>
      </trkpt>
      <trkpt lat="59.7769827" lon="17.8439928">
        <ele>8.30859</ele>
        <time>2013-05-30T19:59:55Z</time>
      </trkpt>
      <trkpt lat="59.7770407" lon="17.8438756">
        <ele>8.78918</ele>
        <time>2013-05-30T19:59:56Z</time>
      </trkpt>
      <trkpt lat="59.7770987" lon="17.8437573">
        <ele>8.78918</ele>
        <time>2013-05-30T19:59:57Z</time>
      </trkpt>
      <trkpt lat="59.7771565" lon="17.8436392">
        <ele>8.78918</ele>
        <time>2013-05-30T19:59:58Z</time>
      </trkpt>
      <trkpt lat="59.7772152" lon="17.8435226">
        <ele>8.78918</ele>
        <time>2013-05-30T19:59:59Z</time>
      </trkpt>
      <trkpt lat="59.7772758" lon="17.8434073">
        <ele>8.78918</ele>
        <time>2013-05-30T20:00:00Z</time>
      </trkpt>
      <trkpt lat="59.777338" lon="17.8432941">
        <ele>8.78918</ele>
        <time>2013-05-30T20:00:01Z</time>
      </trkpt>
      <trkpt lat="59.7774034" lon="17.8431842">
        <ele>8.78918</ele>
        <time>2013-05-30T20:00:02Z</time>
      </trkpt>
      <trkpt lat="59.7774719" lon="17.843081">
        <ele>9.2699</ele>
        <time>2013-05-30T20:00:03Z</time>
      </trkpt>
      <trkpt lat="59.7775405" lon="17.8429832">
        <ele>9.2699</ele>
        <time>2013-05-30T20:00:04Z</time>
      </trkpt>
      <trkpt lat="59.7776114" lon="17.8428922">
        <ele>9.75061</ele>
        <time>2013-05-30T20:00:05Z</time>
      </trkpt>
      <trkpt lat="59.7776824" lon="17.8428012">
        <ele>9.75061</ele>
        <time>2013-05-30T20:00:06Z</time>
      </trkpt>
      <trkpt lat="59.7777528" lon="17.842716">
        <ele>9.75061</ele>
        <time>2013-05-30T20:00:07Z</time>
      </trkpt>
      <trkpt lat="59.7778235" lon="17.8426372">
        <ele>10.2312</ele>
        <time>2013-05-30T20:00:08Z</time>
      </trkpt>
      <trkpt lat="59.7778933" lon="17.8425626">
        <ele>10.2312</ele>
        <time>2013-05-30T20:00:09Z</time>
      </trkpt>
      <trkpt lat="59.7779644" lon="17.8424868">
        <ele>9.75061</ele>
        <time>2013-05-30T20:00:10Z</time>
      </trkpt>
      <trkpt lat="59.7780373" lon="17.8424103">
        <ele>9.75061</ele>
        <time>2013-05-30T20:00:11Z</time>
      </trkpt>
      <trkpt lat="59.7781117" lon="17.8423327">
        <ele>9.75061</ele>
        <time>2013-05-30T20:00:12Z</time>
      </trkpt>
      <trkpt lat="59.7781865" lon="17.8422554">
        <ele>9.75061</ele>
        <time>2013-05-30T20:00:13Z</time>
      </trkpt>
      <trkpt lat="59.7782609" lon="17.842177">
        <ele>9.75061</ele>
        <time>2013-05-30T20:00:14Z</time>
      </trkpt>
      <trkpt lat="59.7783292" lon="17.8420928">
        <ele>6.38586</ele>
        <time>2013-05-30T20:00:15Z</time>
      </trkpt>
      <trkpt lat="59.7784036" lon="17.8420156">
        <ele>5.90527</ele>
        <time>2013-05-30T20:00:16Z</time>
      </trkpt>
      <trkpt lat="59.7784777" lon="17.8419374">
        <ele>5.90527</ele>
        <time>2013-05-30T20:00:17Z</time>
      </trkpt>
      <trkpt lat="59.778551" lon="17.841866">
        <ele>4.46326</ele>
        <time>2013-05-30T20:00:18Z</time>
      </trkpt>
      <trkpt lat="59.7786237" lon="17.8417907">
        <ele>3.98267</ele>
        <time>2013-05-30T20:00:19Z</time>
      </trkpt>
      <trkpt lat="59.7786956" lon="17.8417136">
        <ele>3.50195</ele>
        <time>2013-05-30T20:00:20Z</time>
      </trkpt>
      <trkpt lat="59.7787672" lon="17.8416369">
        <ele>3.50195</ele>
        <time>2013-05-30T20:00:21Z</time>
      </trkpt>
      <trkpt lat="59.7788397" lon="17.8415573">
        <ele>3.02124</ele>
        <time>2013-05-30T20:00:22Z</time>
      </trkpt>
      <trkpt lat="59.7789127" lon="17.8414753">
        <ele>3.50195</ele>
        <time>2013-05-30T20:00:23Z</time>
      </trkpt>
      <trkpt lat="59.7789858" lon="17.8413961">
        <ele>3.02124</ele>
        <time>2013-05-30T20:00:24Z</time>
      </trkpt>
      <trkpt lat="59.7790593" lon="17.8413158">
        <ele>3.50195</ele>
        <time>2013-05-30T20:00:25Z</time>
      </trkpt>
      <trkpt lat="59.7791325" lon="17.8412356">
        <ele>3.50195</ele>
        <time>2013-05-30T20:00:26Z</time>
      </trkpt>
      <trkpt lat="59.7792064" lon="17.8411589">
        <ele>3.50195</ele>
        <time>2013-05-30T20:00:27Z</time>
      </trkpt>
      <trkpt lat="59.7792801" lon="17.8410831">
        <ele>3.02124</ele>
        <time>2013-05-30T20:00:28Z</time>
      </trkpt>
      <trkpt lat="59.7793555" lon="17.8410085">
        <ele>3.02124</ele>
        <time>2013-05-30T20:00:29Z</time>
      </trkpt>
      <trkpt lat="59.7794303" lon="17.8409333">
        <ele>3.02124</ele>
        <time>2013-05-30T20:00:30Z</time>
      </trkpt>
      <trkpt lat="59.7795049" lon="17.8408573">
        <ele>2.54065</ele>
        <time>2013-05-30T20:00:31Z</time>
      </trkpt>
      <trkpt lat="59.7795797" lon="17.8407782">
        <ele>2.54065</ele>
        <time>2013-05-30T20:00:32Z</time>
      </trkpt>
      <trkpt lat="59.7796541" lon="17.8406989">
        <ele>3.02124</ele>
        <time>2013-05-30T20:00:33Z</time>
      </trkpt>
      <trkpt lat="59.7797282" lon="17.8406201">
        <ele>3.02124</ele>
        <time>2013-05-30T20:00:34Z</time>
      </trkpt>
      <trkpt lat="59.7798016" lon="17.8405377">
        <ele>3.50195</ele>
        <time>2013-05-30T20:00:35Z</time>
      </trkpt>
      <trkpt lat="59.7798752" lon="17.8404559">
        <ele>4.46326</ele>
        <time>2013-05-30T20:00:36Z</time>
      </trkpt>
      <trkpt lat="59.7799493" lon="17.8403747">
        <ele>5.42456</ele>
        <time>2013-05-30T20:00:37Z</time>
      </trkpt>
      <trkpt lat="59.7800235" lon="17.8402918">
        <ele>5.90527</ele>
        <time>2013-05-30T20:00:38Z</time>
      </trkpt>
      <trkpt lat="59.7800978" lon="17.8402063">
        <ele>6.38586</ele>
        <time>2013-05-30T20:00:39Z</time>
      </trkpt>
      <trkpt lat="59.780172" lon="17.8401176">
        <ele>6.86646</ele>
        <time>2013-05-30T20:00:40Z</time>
      </trkpt>
      <trkpt lat="59.7802452" lon="17.8400243">
        <ele>7.34717</ele>
        <time>2013-05-30T20:00:41Z</time>
      </trkpt>
      <trkpt lat="59.7803168" lon="17.8399275">
        <ele>7.82788</ele>
        <time>2013-05-30T20:00:42Z</time>
      </trkpt>
      <trkpt lat="59.780387" lon="17.839826">
        <ele>8.30859</ele>
        <time>2013-05-30T20:00:43Z</time>
      </trkpt>
      <trkpt lat="59.7804552" lon="17.8397177">
        <ele>8.78918</ele>
        <time>2013-05-30T20:00:44Z</time>
      </trkpt>
      <trkpt lat="59.7805225" lon="17.8396042">
        <ele>8.78918</ele>
        <time>2013-05-30T20:00:45Z</time>
      </trkpt>
      <trkpt lat="59.7805886" lon="17.8394862">
        <ele>9.2699</ele>
        <time>2013-05-30T20:00:46Z</time>
      </trkpt>
      <trkpt lat="59.7806513" lon="17.8393629">
        <ele>9.75061</ele>
        <time>2013-05-30T20:00:47Z</time>
      </trkpt>
      <trkpt lat="59.7807105" lon="17.839238">
        <ele>10.2312</ele>
        <time>2013-05-30T20:00:48Z</time>
      </trkpt>
      <trkpt lat="59.7807667" lon="17.8391102">
        <ele>10.7118</ele>
        <time>2013-05-30T20:00:49Z</time>
      </trkpt>
      <trkpt lat="59.780821" lon="17.8389775">
        <ele>11.1925</ele>
        <time>2013-05-30T20:00:50Z</time>
      </trkpt>
      <trkpt lat="59.7808734" lon="17.8388413">
        <ele>11.6732</ele>
        <time>2013-05-30T20:00:51Z</time>
      </trkpt>
      <trkpt lat="59.7809252" lon="17.8387048">
        <ele>12.1538</ele>
        <time>2013-05-30T20:00:52Z</time>
      </trkpt>
      <trkpt lat="59.780975" lon="17.8385667">
        <ele>12.6344</ele>
        <time>2013-05-30T20:00:53Z</time>
      </trkpt>
      <trkpt lat="59.7810234" lon="17.8384273">
        <ele>12.6344</ele>
        <time>2013-05-30T20:00:54Z</time>
      </trkpt>
      <trkpt lat="59.7810717" lon="17.8382895">
        <ele>13.1151</ele>
        <time>2013-05-30T20:00:55Z</time>
      </trkpt>
      <trkpt lat="59.7811226" lon="17.838147">
        <ele>15.0377</ele>
        <time>2013-05-30T20:00:56Z</time>
      </trkpt>
      <trkpt lat="59.7811723" lon="17.838006">
        <ele>16.4797</ele>
        <time>2013-05-30T20:00:57Z</time>
      </trkpt>
      <trkpt lat="59.7812236" lon="17.8378592">
        <ele>18.4023</ele>
        <time>2013-05-30T20:00:58Z</time>
      </trkpt>
      <trkpt lat="59.7812684" lon="17.8377299">
        <ele>17.9218</ele>
        <time>2013-05-30T20:00:59Z</time>
      </trkpt>
      <trkpt lat="59.7813137" lon="17.8375981">
        <ele>18.4023</ele>
        <time>2013-05-30T20:01:00Z</time>
      </trkpt>
      <trkpt lat="59.7813572" lon="17.8374561">
        <ele>18.8831</ele>
        <time>2013-05-30T20:01:01Z</time>
      </trkpt>
      <trkpt lat="59.7814022" lon="17.8373151">
        <ele>19.8444</ele>
        <time>2013-05-30T20:01:02Z</time>
      </trkpt>
      <trkpt lat="59.781451" lon="17.8371789">
        <ele>20.8057</ele>
        <time>2013-05-30T20:01:03Z</time>
      </trkpt>
      <trkpt lat="59.7815026" lon="17.8370453">
        <ele>22.7283</ele>
        <time>2013-05-30T20:01:04Z</time>
      </trkpt>
      <trkpt lat="59.7815541" lon="17.8369094">
        <ele>24.1703</ele>
        <time>2013-05-30T20:01:05Z</time>
      </trkpt>
      <trkpt lat="59.7816059" lon="17.8367738">
        <ele>25.6123</ele>
        <time>2013-05-30T20:01:06Z</time>
      </trkpt>
      <trkpt lat="59.7816535" lon="17.8366359">
        <ele>26.0929</ele>
        <time>2013-05-30T20:01:07Z</time>
      </trkpt>
      <trkpt lat="59.7816992" lon="17.8364867">
        <ele>25.6123</ele>
        <time>2013-05-30T20:01:08Z</time>
      </trkpt>
      <trkpt lat="59.7817504" lon="17.8363368">
        <ele>27.5349</ele>
        <time>2013-05-30T20:01:09Z</time>
      </trkpt>
      <trkpt lat="59.7817987" lon="17.8361833">
        <ele>29.4575</ele>
        <time>2013-05-30T20:01:10Z</time>
      </trkpt>
      <trkpt lat="59.7818447" lon="17.8360277">
        <ele>30.8995</ele>
        <time>2013-05-30T20:01:11Z</time>
      </trkpt>
      <trkpt lat="59.7818895" lon="17.8358719">
        <ele>31.8607</ele>
        <time>2013-05-30T20:01:12Z</time>
      </trkpt>
      <trkpt lat="59.7819328" lon="17.8357156">
        <ele>33.3029</ele>
        <time>2013-05-30T20:01:13Z</time>
      </trkpt>
      <trkpt lat="59.7819741" lon="17.8355602">
        <ele>34.2642</ele>
        <time>2013-05-30T20:01:14Z</time>
      </trkpt>
      <trkpt lat="59.7820144" lon="17.8354068">
        <ele>35.7061</ele>
        <time>2013-05-30T20:01:15Z</time>
      </trkpt>
      <trkpt lat="59.7820513" lon="17.8352468">
        <ele>36.1868</ele>
        <time>2013-05-30T20:01:16Z</time>
      </trkpt>
      <trkpt lat="59.7820874" lon="17.8350981">
        <ele>37.1481</ele>
        <time>2013-05-30T20:01:17Z</time>
      </trkpt>
      <trkpt lat="59.7821234" lon="17.8349464">
        <ele>38.1094</ele>
        <time>2013-05-30T20:01:18Z</time>
      </trkpt>
      <trkpt lat="59.7821596" lon="17.8347924">
        <ele>39.5513</ele>
        <time>2013-05-30T20:01:19Z</time>
      </trkpt>
      <trkpt lat="59.7821949" lon="17.8346369">
        <ele>40.9934</ele>
        <time>2013-05-30T20:01:20Z</time>
      </trkpt>
      <trkpt lat="59.7822295" lon="17.8344799">
        <ele>41.9547</ele>
        <time>2013-05-30T20:01:21Z</time>
      </trkpt>
      <trkpt lat="59.7822632" lon="17.8343179">
        <ele>42.4354</ele>
        <time>2013-05-30T20:01:22Z</time>
      </trkpt>
      <trkpt lat="59.7822934" lon="17.8341558">
        <ele>41.9547</ele>
        <time>2013-05-30T20:01:23Z</time>
      </trkpt>
      <trkpt lat="59.7823212" lon="17.8339941">
        <ele>41.474</ele>
        <time>2013-05-30T20:01:24Z</time>
      </trkpt>
      <trkpt lat="59.7823498" lon="17.8338348">
        <ele>41.474</ele>
        <time>2013-05-30T20:01:25Z</time>
      </trkpt>
      <trkpt lat="59.7823777" lon="17.8336751">
        <ele>42.4354</ele>
        <time>2013-05-30T20:01:26Z</time>
      </trkpt>
      <trkpt lat="59.7823995" lon="17.8335161">
        <ele>40.5128</ele>
        <time>2013-05-30T20:01:27Z</time>
      </trkpt>
      <trkpt lat="59.782427" lon="17.8333589">
        <ele>41.474</ele>
        <time>2013-05-30T20:01:28Z</time>
      </trkpt>
      <trkpt lat="59.782443" lon="17.8331895">
        <ele>34.7449</ele>
        <time>2013-05-30T20:01:29Z</time>
      </trkpt>
      <trkpt lat="59.7824694" lon="17.8330385">
        <ele>34.7449</ele>
        <time>2013-05-30T20:01:30Z</time>
      </trkpt>
      <trkpt lat="59.7824954" lon="17.8328888">
        <ele>34.7449</ele>
        <time>2013-05-30T20:01:31Z</time>
      </trkpt>
      <trkpt lat="59.7825222" lon="17.8327271">
        <ele>35.7061</ele>
        <time>2013-05-30T20:01:32Z</time>
      </trkpt>
      <trkpt lat="59.7825474" lon="17.8325681">
        <ele>35.2255</ele>
        <time>2013-05-30T20:01:33Z</time>
      </trkpt>
      <trkpt lat="59.7825714" lon="17.832419">
        <ele>35.2255</ele>
        <time>2013-05-30T20:01:34Z</time>
      </trkpt>
      <trkpt lat="59.7825963" lon="17.8322716">
        <ele>35.7061</ele>
        <time>2013-05-30T20:01:35Z</time>
      </trkpt>
      <trkpt lat="59.7826217" lon="17.8321232">
        <ele>36.1868</ele>
        <time>2013-05-30T20:01:36Z</time>
      </trkpt>
      <trkpt lat="59.7826461" lon="17.8319731">
        <ele>36.1868</ele>
        <time>2013-05-30T20:01:37Z</time>
      </trkpt>
      <trkpt lat="59.7826708" lon="17.8318251">
        <ele>36.1868</ele>
        <time>2013-05-30T20:01:38Z</time>
      </trkpt>
      <trkpt lat="59.7826952" lon="17.8316761">
        <ele>36.1868</ele>
        <time>2013-05-30T20:01:39Z</time>
      </trkpt>
      <trkpt lat="59.7827187" lon="17.8315243">
        <ele>36.1868</ele>
        <time>2013-05-30T20:01:40Z</time>
      </trkpt>
      <trkpt lat="59.782743" lon="17.8313672">
        <ele>36.6675</ele>
        <time>2013-05-30T20:01:41Z</time>
      </trkpt>
      <trkpt lat="59.7827681" lon="17.8312084">
        <ele>37.1481</ele>
        <time>2013-05-30T20:01:42Z</time>
      </trkpt>
      <trkpt lat="59.7827935" lon="17.831053">
        <ele>37.1481</ele>
        <time>2013-05-30T20:01:43Z</time>
      </trkpt>
      <trkpt lat="59.7828183" lon="17.8308979">
        <ele>37.6287</ele>
        <time>2013-05-30T20:01:44Z</time>
      </trkpt>
      <trkpt lat="59.7828418" lon="17.8307409">
        <ele>37.6287</ele>
        <time>2013-05-30T20:01:45Z</time>
      </trkpt>
      <trkpt lat="59.7828666" lon="17.8305868">
        <ele>37.6287</ele>
        <time>2013-05-30T20:01:46Z</time>
      </trkpt>
      <trkpt lat="59.78289" lon="17.8304308">
        <ele>37.1481</ele>
        <time>2013-05-30T20:01:47Z</time>
      </trkpt>
      <trkpt lat="59.7829133" lon="17.8302692">
        <ele>36.6675</ele>
        <time>2013-05-30T20:01:48Z</time>
      </trkpt>
      <trkpt lat="59.7829372" lon="17.83011">
        <ele>36.1868</ele>
        <time>2013-05-30T20:01:49Z</time>
      </trkpt>
      <trkpt lat="59.782963" lon="17.8299509">
        <ele>37.1481</ele>
        <time>2013-05-30T20:01:50Z</time>
      </trkpt>
      <trkpt lat="59.7829927" lon="17.8297821">
        <ele>40.9934</ele>
        <time>2013-05-30T20:01:51Z</time>
      </trkpt>
      <trkpt lat="59.783017" lon="17.8296196">
        <ele>41.474</ele>
        <time>2013-05-30T20:01:52Z</time>
      </trkpt>
      <trkpt lat="59.7830341" lon="17.8294654">
        <ele>38.1094</ele>
        <time>2013-05-30T20:01:53Z</time>
      </trkpt>
      <trkpt lat="59.7830556" lon="17.8293048">
        <ele>37.6287</ele>
        <time>2013-05-30T20:01:54Z</time>
      </trkpt>
      <trkpt lat="59.7830786" lon="17.8291447">
        <ele>37.6287</ele>
        <time>2013-05-30T20:01:55Z</time>
      </trkpt>
      <trkpt lat="59.783104" lon="17.8289782">
        <ele>40.0321</ele>
        <time>2013-05-30T20:01:56Z</time>
      </trkpt>
      <trkpt lat="59.7831272" lon="17.8288203">
        <ele>40.5128</ele>
        <time>2013-05-30T20:01:57Z</time>
      </trkpt>
      <trkpt lat="59.783149" lon="17.8286649">
        <ele>40.0321</ele>
        <time>2013-05-30T20:01:58Z</time>
      </trkpt>
      <trkpt lat="59.7831734" lon="17.8285007">
        <ele>41.9547</ele>
        <time>2013-05-30T20:01:59Z</time>
      </trkpt>
      <trkpt lat="59.783197" lon="17.8283402">
        <ele>42.4354</ele>
        <time>2013-05-30T20:02:00Z</time>
      </trkpt>
      <trkpt lat="59.7832198" lon="17.8281907">
        <ele>41.9547</ele>
        <time>2013-05-30T20:02:01Z</time>
      </trkpt>
      <trkpt lat="59.7832417" lon="17.8280459">
        <ele>41.9547</ele>
        <time>2013-05-30T20:02:02Z</time>
      </trkpt>
      <trkpt lat="59.7832617" lon="17.8279004">
        <ele>41.474</ele>
        <time>2013-05-30T20:02:03Z</time>
      </trkpt>
      <trkpt lat="59.7832804" lon="17.8277548">
        <ele>40.9934</ele>
        <time>2013-05-30T20:02:04Z</time>
      </trkpt>
      <trkpt lat="59.7832951" lon="17.8276057">
        <ele>40.5128</ele>
        <time>2013-05-30T20:02:05Z</time>
      </trkpt>
      <trkpt lat="59.7833075" lon="17.8274505">
        <ele>39.5513</ele>
        <time>2013-05-30T20:02:06Z</time>
      </trkpt>
      <trkpt lat="59.7833159" lon="17.8272891">
        <ele>38.5901</ele>
        <time>2013-05-30T20:02:07Z</time>
      </trkpt>
      <trkpt lat="59.7833216" lon="17.8271266">
        <ele>37.6287</ele>
        <time>2013-05-30T20:02:08Z</time>
      </trkpt>
      <trkpt lat="59.7833272" lon="17.8269677">
        <ele>37.1481</ele>
        <time>2013-05-30T20:02:09Z</time>
      </trkpt>
      <trkpt lat="59.7833311" lon="17.8268063">
        <ele>36.6675</ele>
        <time>2013-05-30T20:02:10Z</time>
      </trkpt>
      <trkpt lat="59.7833324" lon="17.8266431">
        <ele>36.1868</ele>
        <time>2013-05-30T20:02:11Z</time>
      </trkpt>
      <trkpt lat="59.7833327" lon="17.8264775">
        <ele>35.2255</ele>
        <time>2013-05-30T20:02:12Z</time>
      </trkpt>
      <trkpt lat="59.7833304" lon="17.8263107">
        <ele>34.2642</ele>
        <time>2013-05-30T20:02:13Z</time>
      </trkpt>
      <trkpt lat="59.7833278" lon="17.8261488">
        <ele>34.2642</ele>
        <time>2013-05-30T20:02:14Z</time>
      </trkpt>
      <trkpt lat="59.7833249" lon="17.8259889">
        <ele>33.7834</ele>
        <time>2013-05-30T20:02:15Z</time>
      </trkpt>
      <trkpt lat="59.7833211" lon="17.8258288">
        <ele>33.7834</ele>
        <time>2013-05-30T20:02:16Z</time>
      </trkpt>
      <trkpt lat="59.7833164" lon="17.8256668">
        <ele>33.3029</ele>
        <time>2013-05-30T20:02:17Z</time>
      </trkpt>
      <trkpt lat="59.7833131" lon="17.8255049">
        <ele>32.3416</ele>
        <time>2013-05-30T20:02:18Z</time>
      </trkpt>
      <trkpt lat="59.7833118" lon="17.8253403">
        <ele>31.8607</ele>
        <time>2013-05-30T20:02:19Z</time>
      </trkpt>
      <trkpt lat="59.783312" lon="17.8251752">
        <ele>30.8995</ele>
        <time>2013-05-30T20:02:20Z</time>
      </trkpt>
      <trkpt lat="59.7833132" lon="17.8250104">
        <ele>29.9381</ele>
        <time>2013-05-30T20:02:21Z</time>
      </trkpt>
      <trkpt lat="59.7833193" lon="17.8248439">
        <ele>29.9381</ele>
        <time>2013-05-30T20:02:22Z</time>
      </trkpt>
      <trkpt lat="59.7833249" lon="17.8246769">
        <ele>29.4575</ele>
        <time>2013-05-30T20:02:23Z</time>
      </trkpt>
      <trkpt lat="59.7833303" lon="17.8245146">
        <ele>28.9769</ele>
        <time>2013-05-30T20:02:24Z</time>
      </trkpt>
      <trkpt lat="59.7833395" lon="17.8243529">
        <ele>28.0155</ele>
        <time>2013-05-30T20:02:25Z</time>
      </trkpt>
      <trkpt lat="59.7833494" lon="17.8241886">
        <ele>28.0155</ele>
        <time>2013-05-30T20:02:26Z</time>
      </trkpt>
      <trkpt lat="59.7833589" lon="17.8240282">
        <ele>27.0543</ele>
        <time>2013-05-30T20:02:27Z</time>
      </trkpt>
      <trkpt lat="59.7833707" lon="17.8238717">
        <ele>25.6123</ele>
        <time>2013-05-30T20:02:28Z</time>
      </trkpt>
      <trkpt lat="59.7833825" lon="17.8237123">
        <ele>25.6123</ele>
        <time>2013-05-30T20:02:29Z</time>
      </trkpt>
      <trkpt lat="59.7833954" lon="17.8235574">
        <ele>25.1317</ele>
        <time>2013-05-30T20:02:30Z</time>
      </trkpt>
      <trkpt lat="59.7834092" lon="17.8234021">
        <ele>24.1703</ele>
        <time>2013-05-30T20:02:31Z</time>
      </trkpt>
      <trkpt lat="59.7834232" lon="17.823248">
        <ele>23.6896</ele>
        <time>2013-05-30T20:02:32Z</time>
      </trkpt>
      <trkpt lat="59.7834386" lon="17.8230932">
        <ele>23.209</ele>
        <time>2013-05-30T20:02:33Z</time>
      </trkpt>
      <trkpt lat="59.7834568" lon="17.8229407">
        <ele>23.209</ele>
        <time>2013-05-30T20:02:34Z</time>
      </trkpt>
      <trkpt lat="59.7834705" lon="17.8227861">
        <ele>22.7283</ele>
        <time>2013-05-30T20:02:35Z</time>
      </trkpt>
      <trkpt lat="59.7834819" lon="17.8226366">
        <ele>21.767</ele>
        <time>2013-05-30T20:02:36Z</time>
      </trkpt>
      <trkpt lat="59.7834992" lon="17.8224953">
        <ele>22.2476</ele>
        <time>2013-05-30T20:02:37Z</time>
      </trkpt>
      <trkpt lat="59.7835189" lon="17.822364">
        <ele>21.767</ele>
        <time>2013-05-30T20:02:38Z</time>
      </trkpt>
      <trkpt lat="59.783542" lon="17.8222421">
        <ele>23.6896</ele>
        <time>2013-05-30T20:02:39Z</time>
      </trkpt>
      <trkpt lat="59.7835634" lon="17.8221173">
        <ele>24.1703</ele>
        <time>2013-05-30T20:02:40Z</time>
      </trkpt>
      <trkpt lat="59.7835836" lon="17.8219904">
        <ele>25.1317</ele>
        <time>2013-05-30T20:02:41Z</time>
      </trkpt>
      <trkpt lat="59.7836054" lon="17.8218515">
        <ele>26.5736</ele>
        <time>2013-05-30T20:02:42Z</time>
      </trkpt>
      <trkpt lat="59.7836288" lon="17.8217117">
        <ele>28.0155</ele>
        <time>2013-05-30T20:02:43Z</time>
      </trkpt>
      <trkpt lat="59.7836546" lon="17.8215644">
        <ele>29.4575</ele>
        <time>2013-05-30T20:02:44Z</time>
      </trkpt>
      <trkpt lat="59.783677" lon="17.8214165">
        <ele>30.4188</ele>
        <time>2013-05-30T20:02:45Z</time>
      </trkpt>
      <trkpt lat="59.7836987" lon="17.8212647">
        <ele>31.8607</ele>
        <time>2013-05-30T20:02:46Z</time>
      </trkpt>
      <trkpt lat="59.783723" lon="17.8211128">
        <ele>34.7449</ele>
        <time>2013-05-30T20:02:47Z</time>
      </trkpt>
      <trkpt lat="59.7837349" lon="17.8209601">
        <ele>31.3801</ele>
        <time>2013-05-30T20:02:48Z</time>
      </trkpt>
      <trkpt lat="59.7837507" lon="17.8208048">
        <ele>31.8607</ele>
        <time>2013-05-30T20:02:49Z</time>
      </trkpt>
      <trkpt lat="59.7837694" lon="17.8206471">
        <ele>33.3029</ele>
        <time>2013-05-30T20:02:50Z</time>
      </trkpt>
      <trkpt lat="59.7837891" lon="17.8204923">
        <ele>34.2642</ele>
        <time>2013-05-30T20:02:51Z</time>
      </trkpt>
      <trkpt lat="59.783808" lon="17.8203358">
        <ele>34.2642</ele>
        <time>2013-05-30T20:02:52Z</time>
      </trkpt>
      <trkpt lat="59.7838276" lon="17.8201748">
        <ele>35.7061</ele>
        <time>2013-05-30T20:02:53Z</time>
      </trkpt>
      <trkpt lat="59.7838494" lon="17.8200156">
        <ele>37.1481</ele>
        <time>2013-05-30T20:02:54Z</time>
      </trkpt>
      <trkpt lat="59.7838756" lon="17.819852">
        <ele>38.5901</ele>
        <time>2013-05-30T20:02:55Z</time>
      </trkpt>
      <trkpt lat="59.7839008" lon="17.8196872">
        <ele>37.6287</ele>
        <time>2013-05-30T20:02:56Z</time>
      </trkpt>
      <trkpt lat="59.7839281" lon="17.8195168">
        <ele>37.6287</ele>
        <time>2013-05-30T20:02:57Z</time>
      </trkpt>
      <trkpt lat="59.7839566" lon="17.8193443">
        <ele>37.1481</ele>
        <time>2013-05-30T20:02:58Z</time>
      </trkpt>
      <trkpt lat="59.7839897" lon="17.8191769">
        <ele>37.1481</ele>
        <time>2013-05-30T20:02:59Z</time>
      </trkpt>
      <trkpt lat="59.7840248" lon="17.8190123">
        <ele>36.6675</ele>
        <time>2013-05-30T20:03:00Z</time>
      </trkpt>
      <trkpt lat="59.7840606" lon="17.8188491">
        <ele>36.1868</ele>
        <time>2013-05-30T20:03:01Z</time>
      </trkpt>
      <trkpt lat="59.7840974" lon="17.8186953">
        <ele>34.7449</ele>
        <time>2013-05-30T20:03:02Z</time>
      </trkpt>
      <trkpt lat="59.7841403" lon="17.8185397">
        <ele>35.7061</ele>
        <time>2013-05-30T20:03:03Z</time>
      </trkpt>
      <trkpt lat="59.7841774" lon="17.8183798">
        <ele>35.7061</ele>
        <time>2013-05-30T20:03:04Z</time>
      </trkpt>
      <trkpt lat="59.7842176" lon="17.8182256">
        <ele>35.2255</ele>
        <time>2013-05-30T20:03:05Z</time>
      </trkpt>
      <trkpt lat="59.7842659" lon="17.8180639">
        <ele>34.2642</ele>
        <time>2013-05-30T20:03:06Z</time>
      </trkpt>
      <trkpt lat="59.7843089" lon="17.8179021">
        <ele>32.3416</ele>
        <time>2013-05-30T20:03:07Z</time>
      </trkpt>
      <trkpt lat="59.784356" lon="17.8177432">
        <ele>30.8995</ele>
        <time>2013-05-30T20:03:08Z</time>
      </trkpt>
      <trkpt lat="59.784399" lon="17.8175821">
        <ele>29.9381</ele>
        <time>2013-05-30T20:03:09Z</time>
      </trkpt>
      <trkpt lat="59.7844373" lon="17.817422">
        <ele>28.4962</ele>
        <time>2013-05-30T20:03:10Z</time>
      </trkpt>
      <trkpt lat="59.7844803" lon="17.8172645">
        <ele>28.0155</ele>
        <time>2013-05-30T20:03:11Z</time>
      </trkpt>
      <trkpt lat="59.7845217" lon="17.8171055">
        <ele>27.0543</ele>
        <time>2013-05-30T20:03:12Z</time>
      </trkpt>
      <trkpt lat="59.7845632" lon="17.8169468">
        <ele>26.5736</ele>
        <time>2013-05-30T20:03:13Z</time>
      </trkpt>
      <trkpt lat="59.7846065" lon="17.8167905">
        <ele>26.0929</ele>
        <time>2013-05-30T20:03:14Z</time>
      </trkpt>
      <trkpt lat="59.7846508" lon="17.8166357">
        <ele>26.0929</ele>
        <time>2013-05-30T20:03:15Z</time>
      </trkpt>
      <trkpt lat="59.7846953" lon="17.8164822">
        <ele>25.6123</ele>
        <time>2013-05-30T20:03:16Z</time>
      </trkpt>
      <trkpt lat="59.7847403" lon="17.8163306">
        <ele>25.1317</ele>
        <time>2013-05-30T20:03:17Z</time>
      </trkpt>
      <trkpt lat="59.7847885" lon="17.816183">
        <ele>24.651</ele>
        <time>2013-05-30T20:03:18Z</time>
      </trkpt>
      <trkpt lat="59.7848406" lon="17.8160421">
        <ele>24.1703</ele>
        <time>2013-05-30T20:03:19Z</time>
      </trkpt>
      <trkpt lat="59.7848961" lon="17.8159099">
        <ele>24.1703</ele>
        <time>2013-05-30T20:03:20Z</time>
      </trkpt>
      <trkpt lat="59.7849557" lon="17.8157835">
        <ele>23.209</ele>
        <time>2013-05-30T20:03:21Z</time>
      </trkpt>
      <trkpt lat="59.7850199" lon="17.815663">
        <ele>22.2476</ele>
        <time>2013-05-30T20:03:22Z</time>
      </trkpt>
      <trkpt lat="59.7850879" lon="17.8155461">
        <ele>21.767</ele>
        <time>2013-05-30T20:03:23Z</time>
      </trkpt>
      <trkpt lat="59.7851568" lon="17.8154282">
        <ele>21.2864</ele>
        <time>2013-05-30T20:03:24Z</time>
      </trkpt>
      <trkpt lat="59.7852266" lon="17.8153091">
        <ele>20.325</ele>
        <time>2013-05-30T20:03:25Z</time>
      </trkpt>
      <trkpt lat="59.7852972" lon="17.8151897">
        <ele>19.8444</ele>
        <time>2013-05-30T20:03:26Z</time>
      </trkpt>
      <trkpt lat="59.7853687" lon="17.8150707">
        <ele>19.3638</ele>
        <time>2013-05-30T20:03:27Z</time>
      </trkpt>
      <trkpt lat="59.785442" lon="17.8149501">
        <ele>19.3638</ele>
        <time>2013-05-30T20:03:28Z</time>
      </trkpt>
      <trkpt lat="59.7855146" lon="17.8148308">
        <ele>18.4023</ele>
        <time>2013-05-30T20:03:29Z</time>
      </trkpt>
      <trkpt lat="59.7855876" lon="17.8147124">
        <ele>17.9218</ele>
        <time>2013-05-30T20:03:30Z</time>
      </trkpt>
      <trkpt lat="59.7856602" lon="17.8145937">
        <ele>17.9218</ele>
        <time>2013-05-30T20:03:31Z</time>
      </trkpt>
      <trkpt lat="59.7857329" lon="17.8144746">
        <ele>17.4412</ele>
        <time>2013-05-30T20:03:32Z</time>
      </trkpt>
      <trkpt lat="59.7858052" lon="17.8143563">
        <ele>16.9604</ele>
        <time>2013-05-30T20:03:33Z</time>
      </trkpt>
      <trkpt lat="59.7858772" lon="17.8142389">
        <ele>16.4797</ele>
        <time>2013-05-30T20:03:34Z</time>
      </trkpt>
      <trkpt lat="59.7859499" lon="17.8141203">
        <ele>16.4797</ele>
        <time>2013-05-30T20:03:35Z</time>
      </trkpt>
      <trkpt lat="59.7860219" lon="17.8140021">
        <ele>16.4797</ele>
        <time>2013-05-30T20:03:36Z</time>
      </trkpt>
      <trkpt lat="59.786093" lon="17.8138876">
        <ele>16.4797</ele>
        <time>2013-05-30T20:03:37Z</time>
      </trkpt>
      <trkpt lat="59.7861634" lon="17.8137742">
        <ele>16.4797</ele>
        <time>2013-05-30T20:03:38Z</time>
      </trkpt>
      <trkpt lat="59.7862327" lon="17.8136602">
        <ele>16.4797</ele>
        <time>2013-05-30T20:03:39Z</time>
      </trkpt>
      <trkpt lat="59.786301" lon="17.8135416">
        <ele>16.4797</ele>
        <time>2013-05-30T20:03:40Z</time>
      </trkpt>
      <trkpt lat="59.7863679" lon="17.8134208">
        <ele>16.4797</ele>
        <time>2013-05-30T20:03:41Z</time>
      </trkpt>
      <trkpt lat="59.7864315" lon="17.8132971">
        <ele>15.999</ele>
        <time>2013-05-30T20:03:42Z</time>
      </trkpt>
      <trkpt lat="59.7864912" lon="17.8131634">
        <ele>16.4797</ele>
        <time>2013-05-30T20:03:43Z</time>
      </trkpt>
      <trkpt lat="59.7865447" lon="17.8130252">
        <ele>16.9604</ele>
        <time>2013-05-30T20:03:44Z</time>
      </trkpt>
      <trkpt lat="59.7865894" lon="17.8128755">
        <ele>16.9604</ele>
        <time>2013-05-30T20:03:45Z</time>
      </trkpt>
      <trkpt lat="59.7866283" lon="17.8127159">
        <ele>17.4412</ele>
        <time>2013-05-30T20:03:46Z</time>
      </trkpt>
      <trkpt lat="59.7866612" lon="17.8125538">
        <ele>17.9218</ele>
        <time>2013-05-30T20:03:47Z</time>
      </trkpt>
      <trkpt lat="59.7866901" lon="17.8123823">
        <ele>18.8831</ele>
        <time>2013-05-30T20:03:48Z</time>
      </trkpt>
      <trkpt lat="59.7867181" lon="17.8122084">
        <ele>20.8057</ele>
        <time>2013-05-30T20:03:49Z</time>
      </trkpt>
      <trkpt lat="59.7867393" lon="17.8120373">
        <ele>21.2864</ele>
        <time>2013-05-30T20:03:50Z</time>
      </trkpt>
      <trkpt lat="59.7867611" lon="17.8118716">
        <ele>22.7283</ele>
        <time>2013-05-30T20:03:51Z</time>
      </trkpt>
      <trkpt lat="59.7867826" lon="17.8117092">
        <ele>22.7283</ele>
        <time>2013-05-30T20:03:52Z</time>
      </trkpt>
      <trkpt lat="59.7868037" lon="17.8115445">
        <ele>23.209</ele>
        <time>2013-05-30T20:03:53Z</time>
      </trkpt>
      <trkpt lat="59.7868238" lon="17.8113756">
        <ele>23.209</ele>
        <time>2013-05-30T20:03:54Z</time>
      </trkpt>
      <trkpt lat="59.7868423" lon="17.8112029">
        <ele>23.6896</ele>
        <time>2013-05-30T20:03:55Z</time>
      </trkpt>
      <trkpt lat="59.7868606" lon="17.8110302">
        <ele>23.6896</ele>
        <time>2013-05-30T20:03:56Z</time>
      </trkpt>
      <trkpt lat="59.7868838" lon="17.8108599">
        <ele>24.1703</ele>
        <time>2013-05-30T20:03:57Z</time>
      </trkpt>
      <trkpt lat="59.7869059" lon="17.8106935">
        <ele>24.651</ele>
        <time>2013-05-30T20:03:58Z</time>
      </trkpt>
      <trkpt lat="59.7869292" lon="17.8105257">
        <ele>25.1317</ele>
        <time>2013-05-30T20:03:59Z</time>
      </trkpt>
      <trkpt lat="59.7869531" lon="17.8103629">
        <ele>25.1317</ele>
        <time>2013-05-30T20:04:00Z</time>
      </trkpt>
      <trkpt lat="59.7869795" lon="17.8102028">
        <ele>24.651</ele>
        <time>2013-05-30T20:04:01Z</time>
      </trkpt>
      <trkpt lat="59.7870109" lon="17.810045">
        <ele>23.6896</ele>
        <time>2013-05-30T20:04:02Z</time>
      </trkpt>
      <trkpt lat="59.7870484" lon="17.8098892">
        <ele>23.209</ele>
        <time>2013-05-30T20:04:03Z</time>
      </trkpt>
      <trkpt lat="59.7870898" lon="17.8097367">
        <ele>22.7283</ele>
        <time>2013-05-30T20:04:04Z</time>
      </trkpt>
      <trkpt lat="59.7871337" lon="17.8095883">
        <ele>22.2476</ele>
        <time>2013-05-30T20:04:05Z</time>
      </trkpt>
      <trkpt lat="59.7871794" lon="17.8094331">
        <ele>21.2864</ele>
        <time>2013-05-30T20:04:06Z</time>
      </trkpt>
      <trkpt lat="59.7872274" lon="17.8092727">
        <ele>20.8057</ele>
        <time>2013-05-30T20:04:07Z</time>
      </trkpt>
      <trkpt lat="59.787277" lon="17.8091065">
        <ele>19.3638</ele>
        <time>2013-05-30T20:04:08Z</time>
      </trkpt>
      <trkpt lat="59.7873264" lon="17.8089338">
        <ele>17.9218</ele>
        <time>2013-05-30T20:04:09Z</time>
      </trkpt>
      <trkpt lat="59.7873774" lon="17.8087586">
        <ele>16.4797</ele>
        <time>2013-05-30T20:04:10Z</time>
      </trkpt>
      <trkpt lat="59.7874299" lon="17.8085734">
        <ele>15.5184</ele>
        <time>2013-05-30T20:04:11Z</time>
      </trkpt>
      <trkpt lat="59.7874825" lon="17.8083872">
        <ele>14.557</ele>
        <time>2013-05-30T20:04:12Z</time>
      </trkpt>
      <trkpt lat="59.7875344" lon="17.8082026">
        <ele>14.0764</ele>
        <time>2013-05-30T20:04:13Z</time>
      </trkpt>
      <trkpt lat="59.7875859" lon="17.8080208">
        <ele>13.1151</ele>
        <time>2013-05-30T20:04:14Z</time>
      </trkpt>
      <trkpt lat="59.7876363" lon="17.807844">
        <ele>12.6344</ele>
        <time>2013-05-30T20:04:15Z</time>
      </trkpt>
      <trkpt lat="59.7876842" lon="17.8076698">
        <ele>11.1925</ele>
        <time>2013-05-30T20:04:16Z</time>
      </trkpt>
      <trkpt lat="59.7877316" lon="17.8074964">
        <ele>10.2312</ele>
        <time>2013-05-30T20:04:17Z</time>
      </trkpt>
      <trkpt lat="59.7877789" lon="17.8073255">
        <ele>9.2699</ele>
        <time>2013-05-30T20:04:18Z</time>
      </trkpt>
      <trkpt lat="59.787826" lon="17.8071566">
        <ele>8.30859</ele>
        <time>2013-05-30T20:04:19Z</time>
      </trkpt>
      <trkpt lat="59.7878725" lon="17.8069899">
        <ele>7.82788</ele>
        <time>2013-05-30T20:04:20Z</time>
      </trkpt>
      <trkpt lat="59.7879178" lon="17.8068236">
        <ele>7.34717</ele>
        <time>2013-05-30T20:04:21Z</time>
      </trkpt>
      <trkpt lat="59.7879642" lon="17.8066576">
        <ele>7.34717</ele>
        <time>2013-05-30T20:04:22Z</time>
      </trkpt>
      <trkpt lat="59.7880112" lon="17.8064913">
        <ele>6.86646</ele>
        <time>2013-05-30T20:04:23Z</time>
      </trkpt>
      <trkpt lat="59.7880588" lon="17.8063258">
        <ele>6.86646</ele>
        <time>2013-05-30T20:04:24Z</time>
      </trkpt>
      <trkpt lat="59.7881062" lon="17.8061605">
        <ele>6.86646</ele>
        <time>2013-05-30T20:04:25Z</time>
      </trkpt>
      <trkpt lat="59.7881526" lon="17.8059968">
        <ele>6.38586</ele>
        <time>2013-05-30T20:04:26Z</time>
      </trkpt>
      <trkpt lat="59.7881985" lon="17.8058389">
        <ele>5.90527</ele>
        <time>2013-05-30T20:04:27Z</time>
      </trkpt>
      <trkpt lat="59.7882457" lon="17.8056814">
        <ele>5.90527</ele>
        <time>2013-05-30T20:04:28Z</time>
      </trkpt>
      <trkpt lat="59.7882929" lon="17.805518">
        <ele>5.90527</ele>
        <time>2013-05-30T20:04:29Z</time>
      </trkpt>
      <trkpt lat="59.7883421" lon="17.8053479">
        <ele>7.34717</ele>
        <time>2013-05-30T20:04:30Z</time>
      </trkpt>
      <trkpt lat="59.7883904" lon="17.8051811">
        <ele>8.30859</ele>
        <time>2013-05-30T20:04:31Z</time>
      </trkpt>
      <trkpt lat="59.7884388" lon="17.8050162">
        <ele>8.78918</ele>
        <time>2013-05-30T20:04:32Z</time>
      </trkpt>
      <trkpt lat="59.7884861" lon="17.8048523">
        <ele>9.2699</ele>
        <time>2013-05-30T20:04:33Z</time>
      </trkpt>
      <trkpt lat="59.7885325" lon="17.8046883">
        <ele>9.75061</ele>
        <time>2013-05-30T20:04:34Z</time>
      </trkpt>
      <trkpt lat="59.7885786" lon="17.8045252">
        <ele>10.2312</ele>
        <time>2013-05-30T20:04:35Z</time>
      </trkpt>
      <trkpt lat="59.7886254" lon="17.8043635">
        <ele>10.7118</ele>
        <time>2013-05-30T20:04:36Z</time>
      </trkpt>
      <trkpt lat="59.7886722" lon="17.8042025">
        <ele>10.7118</ele>
        <time>2013-05-30T20:04:37Z</time>
      </trkpt>
      <trkpt lat="59.7887192" lon="17.8040393">
        <ele>11.1925</ele>
        <time>2013-05-30T20:04:38Z</time>
      </trkpt>
      <trkpt lat="59.7887654" lon="17.8038756">
        <ele>12.1538</ele>
        <time>2013-05-30T20:04:39Z</time>
      </trkpt>
      <trkpt lat="59.7888115" lon="17.803712">
        <ele>12.6344</ele>
        <time>2013-05-30T20:04:40Z</time>
      </trkpt>
      <trkpt lat="59.7888584" lon="17.8035507">
        <ele>13.1151</ele>
        <time>2013-05-30T20:04:41Z</time>
      </trkpt>
      <trkpt lat="59.7889062" lon="17.8033932">
        <ele>14.0764</ele>
        <time>2013-05-30T20:04:42Z</time>
      </trkpt>
      <trkpt lat="59.7889532" lon="17.803237">
        <ele>15.0377</ele>
        <time>2013-05-30T20:04:43Z</time>
      </trkpt>
      <trkpt lat="59.7889984" lon="17.8030815">
        <ele>15.0377</ele>
        <time>2013-05-30T20:04:44Z</time>
      </trkpt>
      <trkpt lat="59.7890441" lon="17.8029291">
        <ele>15.999</ele>
        <time>2013-05-30T20:04:45Z</time>
      </trkpt>
      <trkpt lat="59.7890896" lon="17.8027801">
        <ele>16.4797</ele>
        <time>2013-05-30T20:04:46Z</time>
      </trkpt>
      <trkpt lat="59.7891346" lon="17.8026337">
        <ele>17.4412</ele>
        <time>2013-05-30T20:04:47Z</time>
      </trkpt>
      <trkpt lat="59.7891781" lon="17.8024886">
        <ele>18.4023</ele>
        <time>2013-05-30T20:04:48Z</time>
      </trkpt>
      <trkpt lat="59.7892205" lon="17.8023421">
        <ele>18.8831</ele>
        <time>2013-05-30T20:04:49Z</time>
      </trkpt>
      <trkpt lat="59.7892635" lon="17.8021975">
        <ele>18.8831</ele>
        <time>2013-05-30T20:04:50Z</time>
      </trkpt>
      <trkpt lat="59.7893079" lon="17.8020547">
        <ele>19.3638</ele>
        <time>2013-05-30T20:04:51Z</time>
      </trkpt>
      <trkpt lat="59.789352" lon="17.8019119">
        <ele>19.3638</ele>
        <time>2013-05-30T20:04:52Z</time>
      </trkpt>
      <trkpt lat="59.7893962" lon="17.8017709">
        <ele>20.325</ele>
        <time>2013-05-30T20:04:53Z</time>
      </trkpt>
      <trkpt lat="59.7894407" lon="17.8016315">
        <ele>20.325</ele>
        <time>2013-05-30T20:04:54Z</time>
      </trkpt>
      <trkpt lat="59.7894862" lon="17.8014936">
        <ele>20.325</ele>
        <time>2013-05-30T20:04:55Z</time>
      </trkpt>
      <trkpt lat="59.7895336" lon="17.8013583">
        <ele>21.2864</ele>
        <time>2013-05-30T20:04:56Z</time>
      </trkpt>
      <trkpt lat="59.7895825" lon="17.8012265">
        <ele>21.2864</ele>
        <time>2013-05-30T20:04:57Z</time>
      </trkpt>
      <trkpt lat="59.789636" lon="17.8010974">
        <ele>21.767</ele>
        <time>2013-05-30T20:04:58Z</time>
      </trkpt>
      <trkpt lat="59.789691" lon="17.8009695">
        <ele>21.767</ele>
        <time>2013-05-30T20:04:59Z</time>
      </trkpt>
      <trkpt lat="59.7897458" lon="17.8008421">
        <ele>21.767</ele>
        <time>2013-05-30T20:05:00Z</time>
      </trkpt>
      <trkpt lat="59.7898026" lon="17.8007148">
        <ele>21.767</ele>
        <time>2013-05-30T20:05:01Z</time>
      </trkpt>
      <trkpt lat="59.7898622" lon="17.8005904">
        <ele>21.767</ele>
        <time>2013-05-30T20:05:02Z</time>
      </trkpt>
      <trkpt lat="59.7899247" lon="17.8004696">
        <ele>22.2476</ele>
        <time>2013-05-30T20:05:03Z</time>
      </trkpt>
      <trkpt lat="59.7899863" lon="17.8003529">
        <ele>21.767</ele>
        <time>2013-05-30T20:05:04Z</time>
      </trkpt>
      <trkpt lat="59.7900494" lon="17.8002403">
        <ele>22.2476</ele>
        <time>2013-05-30T20:05:05Z</time>
      </trkpt>
      <trkpt lat="59.7901129" lon="17.8001226">
        <ele>22.7283</ele>
        <time>2013-05-30T20:05:06Z</time>
      </trkpt>
      <trkpt lat="59.7901763" lon="17.8000017">
        <ele>22.7283</ele>
        <time>2013-05-30T20:05:07Z</time>
      </trkpt>
      <trkpt lat="59.7902393" lon="17.7998817">
        <ele>22.7283</ele>
        <time>2013-05-30T20:05:08Z</time>
      </trkpt>
      <trkpt lat="59.7903018" lon="17.799763">
        <ele>23.209</ele>
        <time>2013-05-30T20:05:09Z</time>
      </trkpt>
      <trkpt lat="59.7903612" lon="17.7996419">
        <ele>23.209</ele>
        <time>2013-05-30T20:05:10Z</time>
      </trkpt>
      <trkpt lat="59.7904196" lon="17.799519">
        <ele>23.6896</ele>
        <time>2013-05-30T20:05:11Z</time>
      </trkpt>
      <trkpt lat="59.7904768" lon="17.79939">
        <ele>24.1703</ele>
        <time>2013-05-30T20:05:12Z</time>
      </trkpt>
      <trkpt lat="59.79053" lon="17.7992611">
        <ele>23.6896</ele>
        <time>2013-05-30T20:05:13Z</time>
      </trkpt>
      <trkpt lat="59.7905799" lon="17.7991301">
        <ele>23.209</ele>
        <time>2013-05-30T20:05:14Z</time>
      </trkpt>
      <trkpt lat="59.7906275" lon="17.7989923">
        <ele>22.7283</ele>
        <time>2013-05-30T20:05:15Z</time>
      </trkpt>
      <trkpt lat="59.7906717" lon="17.7988487">
        <ele>22.2476</ele>
        <time>2013-05-30T20:05:16Z</time>
      </trkpt>
      <trkpt lat="59.7907149" lon="17.7987038">
        <ele>22.2476</ele>
        <time>2013-05-30T20:05:17Z</time>
      </trkpt>
      <trkpt lat="59.7907601" lon="17.7985518">
        <ele>24.1703</ele>
        <time>2013-05-30T20:05:18Z</time>
      </trkpt>
      <trkpt lat="59.790805" lon="17.7983948">
        <ele>26.0929</ele>
        <time>2013-05-30T20:05:19Z</time>
      </trkpt>
      <trkpt lat="59.7908492" lon="17.7982391">
        <ele>26.5736</ele>
        <time>2013-05-30T20:05:20Z</time>
      </trkpt>
      <trkpt lat="59.7908969" lon="17.7980836">
        <ele>28.0155</ele>
        <time>2013-05-30T20:05:21Z</time>
      </trkpt>
      <trkpt lat="59.7909409" lon="17.7979267">
        <ele>27.5349</ele>
        <time>2013-05-30T20:05:22Z</time>
      </trkpt>
      <trkpt lat="59.790986" lon="17.7977676">
        <ele>28.0155</ele>
        <time>2013-05-30T20:05:23Z</time>
      </trkpt>
      <trkpt lat="59.7910319" lon="17.7976046">
        <ele>27.5349</ele>
        <time>2013-05-30T20:05:24Z</time>
      </trkpt>
      <trkpt lat="59.7910781" lon="17.7974402">
        <ele>27.5349</ele>
        <time>2013-05-30T20:05:25Z</time>
      </trkpt>
      <trkpt lat="59.7911247" lon="17.7972752">
        <ele>27.5349</ele>
        <time>2013-05-30T20:05:26Z</time>
      </trkpt>
      <trkpt lat="59.7911699" lon="17.7971102">
        <ele>27.0543</ele>
        <time>2013-05-30T20:05:27Z</time>
      </trkpt>
      <trkpt lat="59.7912171" lon="17.7969498">
        <ele>27.5349</ele>
        <time>2013-05-30T20:05:28Z</time>
      </trkpt>
      <trkpt lat="59.7912626" lon="17.7967932">
        <ele>28.0155</ele>
        <time>2013-05-30T20:05:29Z</time>
      </trkpt>
      <trkpt lat="59.7913046" lon="17.7966322">
        <ele>27.5349</ele>
        <time>2013-05-30T20:05:30Z</time>
      </trkpt>
      <trkpt lat="59.7913487" lon="17.7964789">
        <ele>27.0543</ele>
        <time>2013-05-30T20:05:31Z</time>
      </trkpt>
      <trkpt lat="59.7913935" lon="17.796328">
        <ele>26.5736</ele>
        <time>2013-05-30T20:05:32Z</time>
      </trkpt>
      <trkpt lat="59.7914394" lon="17.7961698">
        <ele>25.6123</ele>
        <time>2013-05-30T20:05:33Z</time>
      </trkpt>
      <trkpt lat="59.7914843" lon="17.796012">
        <ele>24.651</ele>
        <time>2013-05-30T20:05:34Z</time>
      </trkpt>
      <trkpt lat="59.7915252" lon="17.7958512">
        <ele>22.7283</ele>
        <time>2013-05-30T20:05:35Z</time>
      </trkpt>
      <trkpt lat="59.7915751" lon="17.7957069">
        <ele>22.2476</ele>
        <time>2013-05-30T20:05:36Z</time>
      </trkpt>
      <trkpt lat="59.7916255" lon="17.7955694">
        <ele>20.8057</ele>
        <time>2013-05-30T20:05:37Z</time>
      </trkpt>
      <trkpt lat="59.7916791" lon="17.7954372">
        <ele>20.325</ele>
        <time>2013-05-30T20:05:38Z</time>
      </trkpt>
      <trkpt lat="59.7917348" lon="17.7953061">
        <ele>19.8444</ele>
        <time>2013-05-30T20:05:39Z</time>
      </trkpt>
      <trkpt lat="59.7917972" lon="17.7951808">
        <ele>21.767</ele>
        <time>2013-05-30T20:05:40Z</time>
      </trkpt>
      <trkpt lat="59.7918542" lon="17.7950604">
        <ele>21.2864</ele>
        <time>2013-05-30T20:05:41Z</time>
      </trkpt>
      <trkpt lat="59.7919125" lon="17.7949421">
        <ele>20.8057</ele>
        <time>2013-05-30T20:05:42Z</time>
      </trkpt>
      <trkpt lat="59.7919731" lon="17.7948219">
        <ele>19.8444</ele>
        <time>2013-05-30T20:05:43Z</time>
      </trkpt>
      <trkpt lat="59.7920342" lon="17.7946941">
        <ele>19.3638</ele>
        <time>2013-05-30T20:05:44Z</time>
      </trkpt>
      <trkpt lat="59.7920951" lon="17.7945639">
        <ele>18.4023</ele>
        <time>2013-05-30T20:05:45Z</time>
      </trkpt>
      <trkpt lat="59.7921563" lon="17.7944354">
        <ele>17.9218</ele>
        <time>2013-05-30T20:05:46Z</time>
      </trkpt>
      <trkpt lat="59.7922186" lon="17.7943065">
        <ele>16.9604</ele>
        <time>2013-05-30T20:05:47Z</time>
      </trkpt>
      <trkpt lat="59.7922821" lon="17.7941763">
        <ele>16.4797</ele>
        <time>2013-05-30T20:05:48Z</time>
      </trkpt>
      <trkpt lat="59.7923467" lon="17.7940526">
        <ele>16.9604</ele>
        <time>2013-05-30T20:05:49Z</time>
      </trkpt>
      <trkpt lat="59.7924103" lon="17.7939256">
        <ele>16.4797</ele>
        <time>2013-05-30T20:05:50Z</time>
      </trkpt>
      <trkpt lat="59.7924741" lon="17.7938003">
        <ele>16.4797</ele>
        <time>2013-05-30T20:05:51Z</time>
      </trkpt>
      <trkpt lat="59.7925362" lon="17.7936733">
        <ele>16.9604</ele>
        <time>2013-05-30T20:05:52Z</time>
      </trkpt>
      <trkpt lat="59.7925973" lon="17.7935468">
        <ele>16.9604</ele>
        <time>2013-05-30T20:05:53Z</time>
      </trkpt>
      <trkpt lat="59.7926581" lon="17.7934226">
        <ele>16.4797</ele>
        <time>2013-05-30T20:05:54Z</time>
      </trkpt>
      <trkpt lat="59.7927199" lon="17.7932984">
        <ele>16.9604</ele>
        <time>2013-05-30T20:05:55Z</time>
      </trkpt>
      <trkpt lat="59.7927813" lon="17.7931736">
        <ele>16.9604</ele>
        <time>2013-05-30T20:05:56Z</time>
      </trkpt>
      <trkpt lat="59.7928416" lon="17.7930493">
        <ele>16.9604</ele>
        <time>2013-05-30T20:05:57Z</time>
      </trkpt>
      <trkpt lat="59.7929009" lon="17.7929254">
        <ele>15.999</ele>
        <time>2013-05-30T20:05:58Z</time>
      </trkpt>
      <trkpt lat="59.7929612" lon="17.7928004">
        <ele>15.999</ele>
        <time>2013-05-30T20:05:59Z</time>
      </trkpt>
      <trkpt lat="59.7930222" lon="17.7926747">
        <ele>15.5184</ele>
        <time>2013-05-30T20:06:00Z</time>
      </trkpt>
      <trkpt lat="59.7930828" lon="17.7925492">
        <ele>15.0377</ele>
        <time>2013-05-30T20:06:01Z</time>
      </trkpt>
      <trkpt lat="59.7931449" lon="17.7924258">
        <ele>15.5184</ele>
        <time>2013-05-30T20:06:02Z</time>
      </trkpt>
      <trkpt lat="59.7932066" lon="17.7923116">
        <ele>15.5184</ele>
        <time>2013-05-30T20:06:03Z</time>
      </trkpt>
      <trkpt lat="59.7932678" lon="17.7921861">
        <ele>15.5184</ele>
        <time>2013-05-30T20:06:04Z</time>
      </trkpt>
      <trkpt lat="59.7933342" lon="17.792058">
        <ele>16.9604</ele>
        <time>2013-05-30T20:06:05Z</time>
      </trkpt>
      <trkpt lat="59.7933921" lon="17.7919235">
        <ele>15.999</ele>
        <time>2013-05-30T20:06:06Z</time>
      </trkpt>
      <trkpt lat="59.7934531" lon="17.7917873">
        <ele>14.557</ele>
        <time>2013-05-30T20:06:07Z</time>
      </trkpt>
      <trkpt lat="59.7935175" lon="17.791655">
        <ele>14.557</ele>
        <time>2013-05-30T20:06:08Z</time>
      </trkpt>
      <trkpt lat="59.7935802" lon="17.791524">
        <ele>14.557</ele>
        <time>2013-05-30T20:06:09Z</time>
      </trkpt>
      <trkpt lat="59.7936438" lon="17.7913892">
        <ele>14.557</ele>
        <time>2013-05-30T20:06:10Z</time>
      </trkpt>
      <trkpt lat="59.7937092" lon="17.791253">
        <ele>15.0377</ele>
        <time>2013-05-30T20:06:11Z</time>
      </trkpt>
      <trkpt lat="59.7937734" lon="17.7911147">
        <ele>14.557</ele>
        <time>2013-05-30T20:06:12Z</time>
      </trkpt>
      <trkpt lat="59.7938387" lon="17.7909782">
        <ele>15.0377</ele>
        <time>2013-05-30T20:06:13Z</time>
      </trkpt>
      <trkpt lat="59.7939055" lon="17.7908481">
        <ele>15.5184</ele>
        <time>2013-05-30T20:06:14Z</time>
      </trkpt>
      <trkpt lat="59.7939704" lon="17.790721">
        <ele>15.999</ele>
        <time>2013-05-30T20:06:15Z</time>
      </trkpt>
      <trkpt lat="59.7940336" lon="17.7905934">
        <ele>16.4797</ele>
        <time>2013-05-30T20:06:16Z</time>
      </trkpt>
      <trkpt lat="59.7940929" lon="17.7904654">
        <ele>16.4797</ele>
        <time>2013-05-30T20:06:17Z</time>
      </trkpt>
      <trkpt lat="59.7941486" lon="17.7903318">
        <ele>16.9604</ele>
        <time>2013-05-30T20:06:18Z</time>
      </trkpt>
      <trkpt lat="59.7942034" lon="17.7902011">
        <ele>17.4412</ele>
        <time>2013-05-30T20:06:19Z</time>
      </trkpt>
      <trkpt lat="59.7942562" lon="17.790069">
        <ele>16.9604</ele>
        <time>2013-05-30T20:06:20Z</time>
      </trkpt>
      <trkpt lat="59.7943083" lon="17.7899322">
        <ele>15.999</ele>
        <time>2013-05-30T20:06:21Z</time>
      </trkpt>
      <trkpt lat="59.7943617" lon="17.7897821">
        <ele>17.9218</ele>
        <time>2013-05-30T20:06:22Z</time>
      </trkpt>
      <trkpt lat="59.7944137" lon="17.7896261">
        <ele>19.8444</ele>
        <time>2013-05-30T20:06:23Z</time>
      </trkpt>
      <trkpt lat="59.7944594" lon="17.7894722">
        <ele>19.8444</ele>
        <time>2013-05-30T20:06:24Z</time>
      </trkpt>
      <trkpt lat="59.7945003" lon="17.7893138">
        <ele>18.8831</ele>
        <time>2013-05-30T20:06:25Z</time>
      </trkpt>
      <trkpt lat="59.7945424" lon="17.789153">
        <ele>19.8444</ele>
        <time>2013-05-30T20:06:26Z</time>
      </trkpt>
      <trkpt lat="59.7945825" lon="17.7889906">
        <ele>19.8444</ele>
        <time>2013-05-30T20:06:27Z</time>
      </trkpt>
      <trkpt lat="59.7946245" lon="17.7888327">
        <ele>19.3638</ele>
        <time>2013-05-30T20:06:28Z</time>
      </trkpt>
      <trkpt lat="59.794668" lon="17.7886792">
        <ele>17.9218</ele>
        <time>2013-05-30T20:06:29Z</time>
      </trkpt>
      <trkpt lat="59.7947134" lon="17.788526">
        <ele>16.4797</ele>
        <time>2013-05-30T20:06:30Z</time>
      </trkpt>
      <trkpt lat="59.7947632" lon="17.7883757">
        <ele>15.5184</ele>
        <time>2013-05-30T20:06:31Z</time>
      </trkpt>
      <trkpt lat="59.7948152" lon="17.7882284">
        <ele>14.557</ele>
        <time>2013-05-30T20:06:32Z</time>
      </trkpt>
      <trkpt lat="59.7948705" lon="17.7880856">
        <ele>14.0764</ele>
        <time>2013-05-30T20:06:33Z</time>
      </trkpt>
      <trkpt lat="59.7949243" lon="17.7879434">
        <ele>12.1538</ele>
        <time>2013-05-30T20:06:34Z</time>
      </trkpt>
      <trkpt lat="59.7949839" lon="17.787806">
        <ele>12.1538</ele>
        <time>2013-05-30T20:06:35Z</time>
      </trkpt>
      <trkpt lat="59.7950452" lon="17.7876736">
        <ele>11.6732</ele>
        <time>2013-05-30T20:06:36Z</time>
      </trkpt>
      <trkpt lat="59.7951103" lon="17.7875442">
        <ele>12.1538</ele>
        <time>2013-05-30T20:06:37Z</time>
      </trkpt>
      <trkpt lat="59.7951768" lon="17.7874177">
        <ele>12.6344</ele>
        <time>2013-05-30T20:06:38Z</time>
      </trkpt>
      <trkpt lat="59.7952431" lon="17.7872925">
        <ele>12.6344</ele>
        <time>2013-05-30T20:06:39Z</time>
      </trkpt>
      <trkpt lat="59.7953089" lon="17.7871667">
        <ele>12.6344</ele>
        <time>2013-05-30T20:06:40Z</time>
      </trkpt>
      <trkpt lat="59.7953735" lon="17.7870428">
        <ele>13.1151</ele>
        <time>2013-05-30T20:06:41Z</time>
      </trkpt>
      <trkpt lat="59.7954378" lon="17.7869212">
        <ele>13.5958</ele>
        <time>2013-05-30T20:06:42Z</time>
      </trkpt>
      <trkpt lat="59.795502" lon="17.7868025">
        <ele>14.0764</ele>
        <time>2013-05-30T20:06:43Z</time>
      </trkpt>
      <trkpt lat="59.7955652" lon="17.7866849">
        <ele>14.0764</ele>
        <time>2013-05-30T20:06:44Z</time>
      </trkpt>
      <trkpt lat="59.7956299" lon="17.7865682">
        <ele>14.0764</ele>
        <time>2013-05-30T20:06:45Z</time>
      </trkpt>
      <trkpt lat="59.7956967" lon="17.7864485">
        <ele>15.0377</ele>
        <time>2013-05-30T20:06:46Z</time>
      </trkpt>
      <trkpt lat="59.7957615" lon="17.7863294">
        <ele>15.5184</ele>
        <time>2013-05-30T20:06:47Z</time>
      </trkpt>
      <trkpt lat="59.7958238" lon="17.7862076">
        <ele>15.5184</ele>
        <time>2013-05-30T20:06:48Z</time>
      </trkpt>
      <trkpt lat="59.7958856" lon="17.7860823">
        <ele>15.999</ele>
        <time>2013-05-30T20:06:49Z</time>
      </trkpt>
      <trkpt lat="59.7959465" lon="17.7859524">
        <ele>16.9604</ele>
        <time>2013-05-30T20:06:50Z</time>
      </trkpt>
      <trkpt lat="59.7960014" lon="17.7858152">
        <ele>16.4797</ele>
        <time>2013-05-30T20:06:51Z</time>
      </trkpt>
      <trkpt lat="59.7960532" lon="17.7856747">
        <ele>15.999</ele>
        <time>2013-05-30T20:06:52Z</time>
      </trkpt>
      <trkpt lat="59.7961013" lon="17.7855297">
        <ele>15.5184</ele>
        <time>2013-05-30T20:06:53Z</time>
      </trkpt>
      <trkpt lat="59.7961463" lon="17.7853722">
        <ele>16.9604</ele>
        <time>2013-05-30T20:06:54Z</time>
      </trkpt>
      <trkpt lat="59.7961878" lon="17.7852183">
        <ele>17.4412</ele>
        <time>2013-05-30T20:06:55Z</time>
      </trkpt>
      <trkpt lat="59.7962257" lon="17.7850578">
        <ele>17.4412</ele>
        <time>2013-05-30T20:06:56Z</time>
      </trkpt>
      <trkpt lat="59.7962542" lon="17.7848932">
        <ele>14.0764</ele>
        <time>2013-05-30T20:06:57Z</time>
      </trkpt>
      <trkpt lat="59.7962882" lon="17.7847364">
        <ele>12.1538</ele>
        <time>2013-05-30T20:06:58Z</time>
      </trkpt>
      <trkpt lat="59.796328" lon="17.7845776">
        <ele>12.1538</ele>
        <time>2013-05-30T20:06:59Z</time>
      </trkpt>
      <trkpt lat="59.7963653" lon="17.7844181">
        <ele>12.1538</ele>
        <time>2013-05-30T20:07:00Z</time>
      </trkpt>
      <trkpt lat="59.7964032" lon="17.7842586">
        <ele>13.1151</ele>
        <time>2013-05-30T20:07:01Z</time>
      </trkpt>
      <trkpt lat="59.7964433" lon="17.7840993">
        <ele>13.5958</ele>
        <time>2013-05-30T20:07:02Z</time>
      </trkpt>
      <trkpt lat="59.7964882" lon="17.7839418">
        <ele>14.0764</ele>
        <time>2013-05-30T20:07:03Z</time>
      </trkpt>
      <trkpt lat="59.7965339" lon="17.7837924">
        <ele>13.5958</ele>
        <time>2013-05-30T20:07:04Z</time>
      </trkpt>
      <trkpt lat="59.7965841" lon="17.7836467">
        <ele>13.5958</ele>
        <time>2013-05-30T20:07:05Z</time>
      </trkpt>
      <trkpt lat="59.7966354" lon="17.7835058">
        <ele>13.5958</ele>
        <time>2013-05-30T20:07:06Z</time>
      </trkpt>
      <trkpt lat="59.7966888" lon="17.783367">
        <ele>13.1151</ele>
        <time>2013-05-30T20:07:07Z</time>
      </trkpt>
      <trkpt lat="59.7967437" lon="17.7832298">
        <ele>13.1151</ele>
        <time>2013-05-30T20:07:08Z</time>
      </trkpt>
      <trkpt lat="59.7967991" lon="17.7830962">
        <ele>12.6344</ele>
        <time>2013-05-30T20:07:09Z</time>
      </trkpt>
      <trkpt lat="59.7968539" lon="17.7829584">
        <ele>12.1538</ele>
        <time>2013-05-30T20:07:10Z</time>
      </trkpt>
      <trkpt lat="59.7969089" lon="17.7828236">
        <ele>11.6732</ele>
        <time>2013-05-30T20:07:11Z</time>
      </trkpt>
      <trkpt lat="59.7969622" lon="17.78269">
        <ele>11.1925</ele>
        <time>2013-05-30T20:07:12Z</time>
      </trkpt>
      <trkpt lat="59.7970156" lon="17.7825492">
        <ele>11.6732</ele>
        <time>2013-05-30T20:07:13Z</time>
      </trkpt>
      <trkpt lat="59.7970694" lon="17.7824047">
        <ele>12.1538</ele>
        <time>2013-05-30T20:07:14Z</time>
      </trkpt>
      <trkpt lat="59.7971224" lon="17.7822625">
        <ele>13.1151</ele>
        <time>2013-05-30T20:07:15Z</time>
      </trkpt>
      <trkpt lat="59.7971744" lon="17.7821197">
        <ele>13.1151</ele>
        <time>2013-05-30T20:07:16Z</time>
      </trkpt>
      <trkpt lat="59.7972254" lon="17.7819786">
        <ele>13.5958</ele>
        <time>2013-05-30T20:07:17Z</time>
      </trkpt>
      <trkpt lat="59.797271" lon="17.7818295">
        <ele>12.1538</ele>
        <time>2013-05-30T20:07:18Z</time>
      </trkpt>
      <trkpt lat="59.7973166" lon="17.7816849">
        <ele>10.7118</ele>
        <time>2013-05-30T20:07:19Z</time>
      </trkpt>
      <trkpt lat="59.7973663" lon="17.7815535">
        <ele>11.1925</ele>
        <time>2013-05-30T20:07:20Z</time>
      </trkpt>
      <trkpt lat="59.7974162" lon="17.7814209">
        <ele>10.7118</ele>
        <time>2013-05-30T20:07:21Z</time>
      </trkpt>
      <trkpt lat="59.7974653" lon="17.7812818">
        <ele>11.1925</ele>
        <time>2013-05-30T20:07:22Z</time>
      </trkpt>
      <trkpt lat="59.7975139" lon="17.781139">
        <ele>12.1538</ele>
        <time>2013-05-30T20:07:23Z</time>
      </trkpt>
      <trkpt lat="59.7975599" lon="17.7809923">
        <ele>12.6344</ele>
        <time>2013-05-30T20:07:24Z</time>
      </trkpt>
      <trkpt lat="59.7976075" lon="17.780847">
        <ele>13.1151</ele>
        <time>2013-05-30T20:07:25Z</time>
      </trkpt>
      <trkpt lat="59.7976557" lon="17.7807043">
        <ele>14.0764</ele>
        <time>2013-05-30T20:07:26Z</time>
      </trkpt>
      <trkpt lat="59.7977031" lon="17.7805551">
        <ele>15.0377</ele>
        <time>2013-05-30T20:07:27Z</time>
      </trkpt>
      <trkpt lat="59.7977485" lon="17.7804071">
        <ele>15.999</ele>
        <time>2013-05-30T20:07:28Z</time>
      </trkpt>
      <trkpt lat="59.7977921" lon="17.7802625">
        <ele>15.5184</ele>
        <time>2013-05-30T20:07:29Z</time>
      </trkpt>
      <trkpt lat="59.7978386" lon="17.7801181">
        <ele>15.5184</ele>
        <time>2013-05-30T20:07:30Z</time>
      </trkpt>
      <trkpt lat="59.7978854" lon="17.7799754">
        <ele>14.557</ele>
        <time>2013-05-30T20:07:31Z</time>
      </trkpt>
      <trkpt lat="59.7979337" lon="17.7798326">
        <ele>14.557</ele>
        <time>2013-05-30T20:07:32Z</time>
      </trkpt>
      <trkpt lat="59.7979853" lon="17.7796954">
        <ele>14.0764</ele>
        <time>2013-05-30T20:07:33Z</time>
      </trkpt>
      <trkpt lat="59.7980408" lon="17.7795631">
        <ele>14.557</ele>
        <time>2013-05-30T20:07:34Z</time>
      </trkpt>
      <trkpt lat="59.7980968" lon="17.7794327">
        <ele>14.557</ele>
        <time>2013-05-30T20:07:35Z</time>
      </trkpt>
      <trkpt lat="59.7981568" lon="17.7793053">
        <ele>14.557</ele>
        <time>2013-05-30T20:07:36Z</time>
      </trkpt>
      <trkpt lat="59.7982204" lon="17.7791844">
        <ele>14.557</ele>
        <time>2013-05-30T20:07:37Z</time>
      </trkpt>
      <trkpt lat="59.7982744" lon="17.779058">
        <ele>9.2699</ele>
        <time>2013-05-30T20:07:38Z</time>
      </trkpt>
      <trkpt lat="59.7983382" lon="17.7789412">
        <ele>8.30859</ele>
        <time>2013-05-30T20:07:39Z</time>
      </trkpt>
      <trkpt lat="59.7984049" lon="17.7788306">
        <ele>8.78918</ele>
        <time>2013-05-30T20:07:40Z</time>
      </trkpt>
      <trkpt lat="59.7984736" lon="17.7787209">
        <ele>9.2699</ele>
        <time>2013-05-30T20:07:41Z</time>
      </trkpt>
      <trkpt lat="59.7985442" lon="17.7786132">
        <ele>9.2699</ele>
        <time>2013-05-30T20:07:42Z</time>
      </trkpt>
      <trkpt lat="59.7986188" lon="17.7785081">
        <ele>10.2312</ele>
        <time>2013-05-30T20:07:43Z</time>
      </trkpt>
      <trkpt lat="59.798692" lon="17.7784071">
        <ele>11.1925</ele>
        <time>2013-05-30T20:07:44Z</time>
      </trkpt>
      <trkpt lat="59.798766" lon="17.7783114">
        <ele>11.6732</ele>
        <time>2013-05-30T20:07:45Z</time>
      </trkpt>
      <trkpt lat="59.7988395" lon="17.7782184">
        <ele>11.6732</ele>
        <time>2013-05-30T20:07:46Z</time>
      </trkpt>
      <trkpt lat="59.7989163" lon="17.778121">
        <ele>12.6344</ele>
        <time>2013-05-30T20:07:47Z</time>
      </trkpt>
      <trkpt lat="59.7989893" lon="17.7780325">
        <ele>13.1151</ele>
        <time>2013-05-30T20:07:48Z</time>
      </trkpt>
      <trkpt lat="59.7990618" lon="17.7779435">
        <ele>13.5958</ele>
        <time>2013-05-30T20:07:49Z</time>
      </trkpt>
      <trkpt lat="59.7991327" lon="17.7778527">
        <ele>14.557</ele>
        <time>2013-05-30T20:07:50Z</time>
      </trkpt>
      <trkpt lat="59.7992017" lon="17.7777497">
        <ele>14.557</ele>
        <time>2013-05-30T20:07:51Z</time>
      </trkpt>
      <trkpt lat="59.7992696" lon="17.7776403">
        <ele>15.0377</ele>
        <time>2013-05-30T20:07:52Z</time>
      </trkpt>
      <trkpt lat="59.7993384" lon="17.7775301">
        <ele>15.0377</ele>
        <time>2013-05-30T20:07:53Z</time>
      </trkpt>
      <trkpt lat="59.7994072" lon="17.7774089">
        <ele>14.557</ele>
        <time>2013-05-30T20:07:54Z</time>
      </trkpt>
      <trkpt lat="59.7994778" lon="17.777287">
        <ele>14.557</ele>
        <time>2013-05-30T20:07:55Z</time>
      </trkpt>
      <trkpt lat="59.7995485" lon="17.777166">
        <ele>14.557</ele>
        <time>2013-05-30T20:07:56Z</time>
      </trkpt>
      <trkpt lat="59.799619" lon="17.7770407">
        <ele>14.0764</ele>
        <time>2013-05-30T20:07:57Z</time>
      </trkpt>
      <trkpt lat="59.7996896" lon="17.7769131">
        <ele>13.5958</ele>
        <time>2013-05-30T20:07:58Z</time>
      </trkpt>
      <trkpt lat="59.7997585" lon="17.7767793">
        <ele>13.1151</ele>
        <time>2013-05-30T20:07:59Z</time>
      </trkpt>
      <trkpt lat="59.799831" lon="17.7766485">
        <ele>12.6344</ele>
        <time>2013-05-30T20:08:00Z</time>
      </trkpt>
      <trkpt lat="59.7999035" lon="17.7765226">
        <ele>13.1151</ele>
        <time>2013-05-30T20:08:01Z</time>
      </trkpt>
      <trkpt lat="59.7999762" lon="17.7764003">
        <ele>13.1151</ele>
        <time>2013-05-30T20:08:02Z</time>
      </trkpt>
      <trkpt lat="59.8000453" lon="17.7762764">
        <ele>12.6344</ele>
        <time>2013-05-30T20:08:03Z</time>
      </trkpt>
      <trkpt lat="59.8001111" lon="17.7761557">
        <ele>11.1925</ele>
        <time>2013-05-30T20:08:04Z</time>
      </trkpt>
      <trkpt lat="59.8001734" lon="17.776038">
        <ele>9.2699</ele>
        <time>2013-05-30T20:08:05Z</time>
      </trkpt>
      <trkpt lat="59.8002416" lon="17.775918">
        <ele>9.2699</ele>
        <time>2013-05-30T20:08:06Z</time>
      </trkpt>
      <trkpt lat="59.8003091" lon="17.7757972">
        <ele>8.78918</ele>
        <time>2013-05-30T20:08:07Z</time>
      </trkpt>
      <trkpt lat="59.8003771" lon="17.7756771">
        <ele>8.30859</ele>
        <time>2013-05-30T20:08:08Z</time>
      </trkpt>
      <trkpt lat="59.8004443" lon="17.7755549">
        <ele>7.82788</ele>
        <time>2013-05-30T20:08:09Z</time>
      </trkpt>
      <trkpt lat="59.8005115" lon="17.775432">
        <ele>7.82788</ele>
        <time>2013-05-30T20:08:10Z</time>
      </trkpt>
      <trkpt lat="59.8005801" lon="17.7753104">
        <ele>8.30859</ele>
        <time>2013-05-30T20:08:11Z</time>
      </trkpt>
      <trkpt lat="59.8006474" lon="17.7751861">
        <ele>8.30859</ele>
        <time>2013-05-30T20:08:12Z</time>
      </trkpt>
      <trkpt lat="59.8007123" lon="17.7750575">
        <ele>8.30859</ele>
        <time>2013-05-30T20:08:13Z</time>
      </trkpt>
      <trkpt lat="59.8007791" lon="17.7749251">
        <ele>8.78918</ele>
        <time>2013-05-30T20:08:14Z</time>
      </trkpt>
      <trkpt lat="59.8008492" lon="17.7747928">
        <ele>10.2312</ele>
        <time>2013-05-30T20:08:15Z</time>
      </trkpt>
      <trkpt lat="59.8009158" lon="17.7746606">
        <ele>10.2312</ele>
        <time>2013-05-30T20:08:16Z</time>
      </trkpt>
      <trkpt lat="59.800983" lon="17.7745256">
        <ele>10.2312</ele>
        <time>2013-05-30T20:08:17Z</time>
      </trkpt>
      <trkpt lat="59.8010508" lon="17.7743904">
        <ele>10.7118</ele>
        <time>2013-05-30T20:08:18Z</time>
      </trkpt>
      <trkpt lat="59.8011179" lon="17.7742564">
        <ele>11.6732</ele>
        <time>2013-05-30T20:08:19Z</time>
      </trkpt>
      <trkpt lat="59.801183" lon="17.7741226">
        <ele>11.6732</ele>
        <time>2013-05-30T20:08:20Z</time>
      </trkpt>
      <trkpt lat="59.801246" lon="17.7739864">
        <ele>10.7118</ele>
        <time>2013-05-30T20:08:21Z</time>
      </trkpt>
      <trkpt lat="59.8013109" lon="17.7738529">
        <ele>11.1925</ele>
        <time>2013-05-30T20:08:22Z</time>
      </trkpt>
      <trkpt lat="59.8013746" lon="17.7737202">
        <ele>11.1925</ele>
        <time>2013-05-30T20:08:23Z</time>
      </trkpt>
      <trkpt lat="59.8014362" lon="17.7735904">
        <ele>10.2312</ele>
        <time>2013-05-30T20:08:24Z</time>
      </trkpt>
      <trkpt lat="59.8014984" lon="17.7734581">
        <ele>10.2312</ele>
        <time>2013-05-30T20:08:25Z</time>
      </trkpt>
      <trkpt lat="59.8015605" lon="17.773326">
        <ele>10.2312</ele>
        <time>2013-05-30T20:08:26Z</time>
      </trkpt>
      <trkpt lat="59.8016216" lon="17.773195">
        <ele>9.75061</ele>
        <time>2013-05-30T20:08:27Z</time>
      </trkpt>
      <trkpt lat="59.8016874" lon="17.7730643">
        <ele>10.7118</ele>
        <time>2013-05-30T20:08:28Z</time>
      </trkpt>
      <trkpt lat="59.8017512" lon="17.7729347">
        <ele>10.7118</ele>
        <time>2013-05-30T20:08:29Z</time>
      </trkpt>
      <trkpt lat="59.8018151" lon="17.7728057">
        <ele>11.6732</ele>
        <time>2013-05-30T20:08:30Z</time>
      </trkpt>
      <trkpt lat="59.8018785" lon="17.7726774">
        <ele>12.1538</ele>
        <time>2013-05-30T20:08:31Z</time>
      </trkpt>
      <trkpt lat="59.8019435" lon="17.7725585">
        <ele>13.1151</ele>
        <time>2013-05-30T20:08:32Z</time>
      </trkpt>
      <trkpt lat="59.8020028" lon="17.7724318">
        <ele>12.6344</ele>
        <time>2013-05-30T20:08:33Z</time>
      </trkpt>
      <trkpt lat="59.8020635" lon="17.772303">
        <ele>13.1151</ele>
        <time>2013-05-30T20:08:34Z</time>
      </trkpt>
      <trkpt lat="59.8021247" lon="17.7721739">
        <ele>13.1151</ele>
        <time>2013-05-30T20:08:35Z</time>
      </trkpt>
      <trkpt lat="59.8021869" lon="17.7720444">
        <ele>13.5958</ele>
        <time>2013-05-30T20:08:36Z</time>
      </trkpt>
      <trkpt lat="59.8022486" lon="17.7719143">
        <ele>13.1151</ele>
        <time>2013-05-30T20:08:37Z</time>
      </trkpt>
      <trkpt lat="59.8023106" lon="17.7717843">
        <ele>13.1151</ele>
        <time>2013-05-30T20:08:38Z</time>
      </trkpt>
      <trkpt lat="59.8023734" lon="17.7716547">
        <ele>13.1151</ele>
        <time>2013-05-30T20:08:39Z</time>
      </trkpt>
      <trkpt lat="59.8024361" lon="17.7715252">
        <ele>13.1151</ele>
        <time>2013-05-30T20:08:40Z</time>
      </trkpt>
      <trkpt lat="59.8024972" lon="17.7713969">
        <ele>13.1151</ele>
        <time>2013-05-30T20:08:41Z</time>
      </trkpt>
      <trkpt lat="59.8025583" lon="17.771271">
        <ele>13.1151</ele>
        <time>2013-05-30T20:08:42Z</time>
      </trkpt>
      <trkpt lat="59.802619" lon="17.771145">
        <ele>12.1538</ele>
        <time>2013-05-30T20:08:43Z</time>
      </trkpt>
      <trkpt lat="59.8026795" lon="17.7710223">
        <ele>12.1538</ele>
        <time>2013-05-30T20:08:44Z</time>
      </trkpt>
      <trkpt lat="59.8027382" lon="17.7708973">
        <ele>12.6344</ele>
        <time>2013-05-30T20:08:45Z</time>
      </trkpt>
      <trkpt lat="59.8027971" lon="17.7707691">
        <ele>12.6344</ele>
        <time>2013-05-30T20:08:46Z</time>
      </trkpt>
      <trkpt lat="59.8028583" lon="17.7706431">
        <ele>13.1151</ele>
        <time>2013-05-30T20:08:47Z</time>
      </trkpt>
      <trkpt lat="59.8029197" lon="17.7705186">
        <ele>13.1151</ele>
        <time>2013-05-30T20:08:48Z</time>
      </trkpt>
      <trkpt lat="59.8029803" lon="17.770393">
        <ele>13.1151</ele>
        <time>2013-05-30T20:08:49Z</time>
      </trkpt>
      <trkpt lat="59.8030406" lon="17.7702661">
        <ele>13.1151</ele>
        <time>2013-05-30T20:08:50Z</time>
      </trkpt>
      <trkpt lat="59.8031008" lon="17.770141">
        <ele>12.6344</ele>
        <time>2013-05-30T20:08:51Z</time>
      </trkpt>
      <trkpt lat="59.8031619" lon="17.7700146">
        <ele>12.6344</ele>
        <time>2013-05-30T20:08:52Z</time>
      </trkpt>
      <trkpt lat="59.8032229" lon="17.7698853">
        <ele>12.1538</ele>
        <time>2013-05-30T20:08:53Z</time>
      </trkpt>
      <trkpt lat="59.8032795" lon="17.7697413">
        <ele>9.75061</ele>
        <time>2013-05-30T20:08:54Z</time>
      </trkpt>
      <trkpt lat="59.803341" lon="17.7696108">
        <ele>9.75061</ele>
        <time>2013-05-30T20:08:55Z</time>
      </trkpt>
      <trkpt lat="59.8034031" lon="17.7694816">
        <ele>9.75061</ele>
        <time>2013-05-30T20:08:56Z</time>
      </trkpt>
      <trkpt lat="59.803466" lon="17.7693528">
        <ele>9.75061</ele>
        <time>2013-05-30T20:08:57Z</time>
      </trkpt>
      <trkpt lat="59.8035292" lon="17.7692216">
        <ele>9.75061</ele>
        <time>2013-05-30T20:08:58Z</time>
      </trkpt>
      <trkpt lat="59.8035932" lon="17.7690882">
        <ele>9.75061</ele>
        <time>2013-05-30T20:08:59Z</time>
      </trkpt>
      <trkpt lat="59.8036576" lon="17.7689555">
        <ele>10.2312</ele>
        <time>2013-05-30T20:09:00Z</time>
      </trkpt>
      <trkpt lat="59.8037219" lon="17.7688237">
        <ele>10.7118</ele>
        <time>2013-05-30T20:09:01Z</time>
      </trkpt>
      <trkpt lat="59.803785" lon="17.7686942">
        <ele>10.7118</ele>
        <time>2013-05-30T20:09:02Z</time>
      </trkpt>
      <trkpt lat="59.8038451" lon="17.7685669">
        <ele>10.2312</ele>
        <time>2013-05-30T20:09:03Z</time>
      </trkpt>
      <trkpt lat="59.8039052" lon="17.7684389">
        <ele>10.7118</ele>
        <time>2013-05-30T20:09:04Z</time>
      </trkpt>
      <trkpt lat="59.8039646" lon="17.7683099">
        <ele>10.2312</ele>
        <time>2013-05-30T20:09:05Z</time>
      </trkpt>
      <trkpt lat="59.8040232" lon="17.7681795">
        <ele>9.75061</ele>
        <time>2013-05-30T20:09:06Z</time>
      </trkpt>
      <trkpt lat="59.8040811" lon="17.7680459">
        <ele>9.75061</ele>
        <time>2013-05-30T20:09:07Z</time>
      </trkpt>
      <trkpt lat="59.8041382" lon="17.7679094">
        <ele>9.2699</ele>
        <time>2013-05-30T20:09:08Z</time>
      </trkpt>
      <trkpt lat="59.8041953" lon="17.7677722">
        <ele>9.2699</ele>
        <time>2013-05-30T20:09:09Z</time>
      </trkpt>
      <trkpt lat="59.8042522" lon="17.7676316">
        <ele>9.75061</ele>
        <time>2013-05-30T20:09:10Z</time>
      </trkpt>
      <trkpt lat="59.8043072" lon="17.7674858">
        <ele>9.2699</ele>
        <time>2013-05-30T20:09:11Z</time>
      </trkpt>
      <trkpt lat="59.8043618" lon="17.7673358">
        <ele>9.2699</ele>
        <time>2013-05-30T20:09:12Z</time>
      </trkpt>
      <trkpt lat="59.8044147" lon="17.7671816">
        <ele>9.2699</ele>
        <time>2013-05-30T20:09:13Z</time>
      </trkpt>
      <trkpt lat="59.804465" lon="17.7670268">
        <ele>8.78918</ele>
        <time>2013-05-30T20:09:14Z</time>
      </trkpt>
      <trkpt lat="59.8045138" lon="17.7668694">
        <ele>8.30859</ele>
        <time>2013-05-30T20:09:15Z</time>
      </trkpt>
      <trkpt lat="59.8045616" lon="17.7667114">
        <ele>8.30859</ele>
        <time>2013-05-30T20:09:16Z</time>
      </trkpt>
      <trkpt lat="59.8046065" lon="17.7665523">
        <ele>8.78918</ele>
        <time>2013-05-30T20:09:17Z</time>
      </trkpt>
      <trkpt lat="59.8046493" lon="17.7663943">
        <ele>8.78918</ele>
        <time>2013-05-30T20:09:18Z</time>
      </trkpt>
      <trkpt lat="59.8046899" lon="17.7662373">
        <ele>8.78918</ele>
        <time>2013-05-30T20:09:19Z</time>
      </trkpt>
      <trkpt lat="59.8047293" lon="17.7660786">
        <ele>8.30859</ele>
        <time>2013-05-30T20:09:20Z</time>
      </trkpt>
      <trkpt lat="59.8047664" lon="17.7659091">
        <ele>9.2699</ele>
        <time>2013-05-30T20:09:21Z</time>
      </trkpt>
      <trkpt lat="59.8048011" lon="17.7657444">
        <ele>8.30859</ele>
        <time>2013-05-30T20:09:22Z</time>
      </trkpt>
      <trkpt lat="59.804838" lon="17.765575">
        <ele>8.78918</ele>
        <time>2013-05-30T20:09:23Z</time>
      </trkpt>
      <trkpt lat="59.8048727" lon="17.7654034">
        <ele>8.78918</ele>
        <time>2013-05-30T20:09:24Z</time>
      </trkpt>
      <trkpt lat="59.8049061" lon="17.7652315">
        <ele>9.2699</ele>
        <time>2013-05-30T20:09:25Z</time>
      </trkpt>
      <trkpt lat="59.8049356" lon="17.7650518">
        <ele>9.2699</ele>
        <time>2013-05-30T20:09:26Z</time>
      </trkpt>
      <trkpt lat="59.8049632" lon="17.7648702">
        <ele>8.78918</ele>
        <time>2013-05-30T20:09:27Z</time>
      </trkpt>
      <trkpt lat="59.8049894" lon="17.76469">
        <ele>9.75061</ele>
        <time>2013-05-30T20:09:28Z</time>
      </trkpt>
      <trkpt lat="59.8050188" lon="17.7645175">
        <ele>12.1538</ele>
        <time>2013-05-30T20:09:29Z</time>
      </trkpt>
      <trkpt lat="59.8050432" lon="17.7643347">
        <ele>13.1151</ele>
        <time>2013-05-30T20:09:30Z</time>
      </trkpt>
      <trkpt lat="59.805063" lon="17.7641498">
        <ele>13.5958</ele>
        <time>2013-05-30T20:09:31Z</time>
      </trkpt>
      <trkpt lat="59.8050793" lon="17.7639639">
        <ele>13.5958</ele>
        <time>2013-05-30T20:09:32Z</time>
      </trkpt>
      <trkpt lat="59.8050943" lon="17.7637806">
        <ele>14.0764</ele>
        <time>2013-05-30T20:09:33Z</time>
      </trkpt>
      <trkpt lat="59.8051101" lon="17.7636028">
        <ele>14.557</ele>
        <time>2013-05-30T20:09:34Z</time>
      </trkpt>
      <trkpt lat="59.8051245" lon="17.7634257">
        <ele>15.0377</ele>
        <time>2013-05-30T20:09:35Z</time>
      </trkpt>
      <trkpt lat="59.8051381" lon="17.7632487">
        <ele>15.5184</ele>
        <time>2013-05-30T20:09:36Z</time>
      </trkpt>
      <trkpt lat="59.8051518" lon="17.7630679">
        <ele>16.4797</ele>
        <time>2013-05-30T20:09:37Z</time>
      </trkpt>
      <trkpt lat="59.8051642" lon="17.7628887">
        <ele>16.9604</ele>
        <time>2013-05-30T20:09:38Z</time>
      </trkpt>
      <trkpt lat="59.8051768" lon="17.7627088">
        <ele>17.4412</ele>
        <time>2013-05-30T20:09:39Z</time>
      </trkpt>
      <trkpt lat="59.805195" lon="17.7625708">
        <ele>15.999</ele>
        <time>2013-05-30T20:09:40Z</time>
      </trkpt>
      <trkpt lat="59.8052138" lon="17.7623803">
        <ele>16.4797</ele>
        <time>2013-05-30T20:09:41Z</time>
      </trkpt>
      <trkpt lat="59.8052331" lon="17.7622058">
        <ele>16.4797</ele>
        <time>2013-05-30T20:09:42Z</time>
      </trkpt>
      <trkpt lat="59.8052766" lon="17.76213">
        <ele>17.9218</ele>
        <time>2013-05-30T20:09:43Z</time>
      </trkpt>
      <trkpt lat="59.8052373" lon="17.7619428">
        <ele>16.4797</ele>
        <time>2013-05-30T20:09:44Z</time>
      </trkpt>
      <trkpt lat="59.8052293" lon="17.7616373">
        <ele>13.5958</ele>
        <time>2013-05-30T20:09:45Z</time>
      </trkpt>
      <trkpt lat="59.8052249" lon="17.7614125">
        <ele>12.6344</ele>
        <time>2013-05-30T20:09:46Z</time>
      </trkpt>
      <trkpt lat="59.8052084" lon="17.7612035">
        <ele>11.1925</ele>
        <time>2013-05-30T20:09:47Z</time>
      </trkpt>
      <trkpt lat="59.8052183" lon="17.7610288">
        <ele>10.7118</ele>
        <time>2013-05-30T20:09:48Z</time>
      </trkpt>
      <trkpt lat="59.8052348" lon="17.7608678">
        <ele>10.7118</ele>
        <time>2013-05-30T20:09:49Z</time>
      </trkpt>
      <trkpt lat="59.8052549" lon="17.7607253">
        <ele>11.1925</ele>
        <time>2013-05-30T20:09:50Z</time>
      </trkpt>
      <trkpt lat="59.8052727" lon="17.7605989">
        <ele>10.7118</ele>
        <time>2013-05-30T20:09:51Z</time>
      </trkpt>
      <trkpt lat="59.8052871" lon="17.7604451">
        <ele>10.7118</ele>
        <time>2013-05-30T20:09:52Z</time>
      </trkpt>
      <trkpt lat="59.8053084" lon="17.7602794">
        <ele>11.1925</ele>
        <time>2013-05-30T20:09:53Z</time>
      </trkpt>
      <trkpt lat="59.8053306" lon="17.7601114">
        <ele>11.1925</ele>
        <time>2013-05-30T20:09:54Z</time>
      </trkpt>
      <trkpt lat="59.805354" lon="17.7599608">
        <ele>10.7118</ele>
        <time>2013-05-30T20:09:55Z</time>
      </trkpt>
      <trkpt lat="59.8053789" lon="17.759811">
        <ele>11.1925</ele>
        <time>2013-05-30T20:09:56Z</time>
      </trkpt>
      <trkpt lat="59.805411" lon="17.7596731">
        <ele>10.7118</ele>
        <time>2013-05-30T20:09:57Z</time>
      </trkpt>
      <trkpt lat="59.8054426" lon="17.7595374">
        <ele>10.7118</ele>
        <time>2013-05-30T20:09:58Z</time>
      </trkpt>
      <trkpt lat="59.8054759" lon="17.759408">
        <ele>10.2312</ele>
        <time>2013-05-30T20:09:59Z</time>
      </trkpt>
      <trkpt lat="59.8055162" lon="17.7592816">
        <ele>12.1538</ele>
        <time>2013-05-30T20:10:00Z</time>
      </trkpt>
      <trkpt lat="59.8055658" lon="17.7591464">
        <ele>14.0764</ele>
        <time>2013-05-30T20:10:01Z</time>
      </trkpt>
      <trkpt lat="59.8056113" lon="17.7590133">
        <ele>13.5958</ele>
        <time>2013-05-30T20:10:02Z</time>
      </trkpt>
      <trkpt lat="59.8056458" lon="17.7588759">
        <ele>9.75061</ele>
        <time>2013-05-30T20:10:03Z</time>
      </trkpt>
      <trkpt lat="59.8056892" lon="17.7587415">
        <ele>10.2312</ele>
        <time>2013-05-30T20:10:04Z</time>
      </trkpt>
      <trkpt lat="59.8057348" lon="17.7586171">
        <ele>10.2312</ele>
        <time>2013-05-30T20:10:05Z</time>
      </trkpt>
      <trkpt lat="59.8057845" lon="17.7584958">
        <ele>10.2312</ele>
        <time>2013-05-30T20:10:06Z</time>
      </trkpt>
      <trkpt lat="59.8058376" lon="17.7583771">
        <ele>10.7118</ele>
        <time>2013-05-30T20:10:07Z</time>
      </trkpt>
      <trkpt lat="59.8058953" lon="17.7582544">
        <ele>11.1925</ele>
        <time>2013-05-30T20:10:08Z</time>
      </trkpt>
      <trkpt lat="59.8059542" lon="17.7581311">
        <ele>10.7118</ele>
        <time>2013-05-30T20:10:09Z</time>
      </trkpt>
      <trkpt lat="59.806016" lon="17.7580185">
        <ele>10.7118</ele>
        <time>2013-05-30T20:10:10Z</time>
      </trkpt>
      <trkpt lat="59.8060764" lon="17.7578985">
        <ele>10.7118</ele>
        <time>2013-05-30T20:10:11Z</time>
      </trkpt>
      <trkpt lat="59.8061387" lon="17.7577855">
        <ele>11.1925</ele>
        <time>2013-05-30T20:10:12Z</time>
      </trkpt>
      <trkpt lat="59.8062004" lon="17.7576789">
        <ele>10.7118</ele>
        <time>2013-05-30T20:10:13Z</time>
      </trkpt>
      <trkpt lat="59.8062668" lon="17.7575784">
        <ele>10.7118</ele>
        <time>2013-05-30T20:10:14Z</time>
      </trkpt>
      <trkpt lat="59.8063347" lon="17.75748">
        <ele>10.7118</ele>
        <time>2013-05-30T20:10:15Z</time>
      </trkpt>
      <trkpt lat="59.8064039" lon="17.7573869">
        <ele>10.7118</ele>
        <time>2013-05-30T20:10:16Z</time>
      </trkpt>
      <trkpt lat="59.806475" lon="17.7573006">
        <ele>10.7118</ele>
        <time>2013-05-30T20:10:17Z</time>
      </trkpt>
      <trkpt lat="59.806548" lon="17.7572172">
        <ele>10.7118</ele>
        <time>2013-05-30T20:10:18Z</time>
      </trkpt>
      <trkpt lat="59.8066211" lon="17.757137">
        <ele>10.2312</ele>
        <time>2013-05-30T20:10:19Z</time>
      </trkpt>
      <trkpt lat="59.806696" lon="17.7570638">
        <ele>10.2312</ele>
        <time>2013-05-30T20:10:20Z</time>
      </trkpt>
      <trkpt lat="59.8067723" lon="17.7569951">
        <ele>10.2312</ele>
        <time>2013-05-30T20:10:21Z</time>
      </trkpt>
      <trkpt lat="59.8068493" lon="17.7569292">
        <ele>10.2312</ele>
        <time>2013-05-30T20:10:22Z</time>
      </trkpt>
      <trkpt lat="59.8069265" lon="17.7568678">
        <ele>9.75061</ele>
        <time>2013-05-30T20:10:23Z</time>
      </trkpt>
      <trkpt lat="59.807004" lon="17.7568114">
        <ele>9.75061</ele>
        <time>2013-05-30T20:10:24Z</time>
      </trkpt>
      <trkpt lat="59.8070824" lon="17.7567585">
        <ele>9.75061</ele>
        <time>2013-05-30T20:10:25Z</time>
      </trkpt>
      <trkpt lat="59.8071598" lon="17.7567097">
        <ele>9.75061</ele>
        <time>2013-05-30T20:10:26Z</time>
      </trkpt>
      <trkpt lat="59.8072375" lon="17.7566689">
        <ele>9.2699</ele>
        <time>2013-05-30T20:10:27Z</time>
      </trkpt>
      <trkpt lat="59.8073164" lon="17.7566332">
        <ele>9.2699</ele>
        <time>2013-05-30T20:10:28Z</time>
      </trkpt>
      <trkpt lat="59.8073964" lon="17.7566026">
        <ele>9.2699</ele>
        <time>2013-05-30T20:10:29Z</time>
      </trkpt>
      <trkpt lat="59.8074783" lon="17.7565762">
        <ele>9.75061</ele>
        <time>2013-05-30T20:10:30Z</time>
      </trkpt>
      <trkpt lat="59.8075609" lon="17.7565532">
        <ele>9.75061</ele>
        <time>2013-05-30T20:10:31Z</time>
      </trkpt>
      <trkpt lat="59.8076432" lon="17.7565352">
        <ele>9.2699</ele>
        <time>2013-05-30T20:10:32Z</time>
      </trkpt>
      <trkpt lat="59.807726" lon="17.7565221">
        <ele>9.2699</ele>
        <time>2013-05-30T20:10:33Z</time>
      </trkpt>
      <trkpt lat="59.8078092" lon="17.7565118">
        <ele>9.2699</ele>
        <time>2013-05-30T20:10:34Z</time>
      </trkpt>
      <trkpt lat="59.8078926" lon="17.7565009">
        <ele>8.30859</ele>
        <time>2013-05-30T20:10:35Z</time>
      </trkpt>
      <trkpt lat="59.8079778" lon="17.756493">
        <ele>8.30859</ele>
        <time>2013-05-30T20:10:36Z</time>
      </trkpt>
      <trkpt lat="59.8080606" lon="17.7565091">
        <ele>7.34717</ele>
        <time>2013-05-30T20:10:37Z</time>
      </trkpt>
      <trkpt lat="59.808142" lon="17.7565237">
        <ele>6.86646</ele>
        <time>2013-05-30T20:10:38Z</time>
      </trkpt>
      <trkpt lat="59.8082226" lon="17.7565327">
        <ele>5.90527</ele>
        <time>2013-05-30T20:10:39Z</time>
      </trkpt>
      <trkpt lat="59.808302" lon="17.7565389">
        <ele>5.42456</ele>
        <time>2013-05-30T20:10:40Z</time>
      </trkpt>
      <trkpt lat="59.8083802" lon="17.7565377">
        <ele>5.42456</ele>
        <time>2013-05-30T20:10:41Z</time>
      </trkpt>
      <trkpt lat="59.8084583" lon="17.7565347">
        <ele>4.94385</ele>
        <time>2013-05-30T20:10:42Z</time>
      </trkpt>
      <trkpt lat="59.8085357" lon="17.7565207">
        <ele>3.98267</ele>
        <time>2013-05-30T20:10:43Z</time>
      </trkpt>
      <trkpt lat="59.8086135" lon="17.7565097">
        <ele>2.54065</ele>
        <time>2013-05-30T20:10:44Z</time>
      </trkpt>
      <trkpt lat="59.8086925" lon="17.7564959">
        <ele>1.57935</ele>
        <time>2013-05-30T20:10:45Z</time>
      </trkpt>
      <trkpt lat="59.8087734" lon="17.7564762">
        <ele>1.09863</ele>
        <time>2013-05-30T20:10:46Z</time>
      </trkpt>
      <trkpt lat="59.8088563" lon="17.75645">
        <ele>1.09863</ele>
        <time>2013-05-30T20:10:47Z</time>
      </trkpt>
      <trkpt lat="59.8089375" lon="17.7564187">
        <ele>0.618042</ele>
        <time>2013-05-30T20:10:48Z</time>
      </trkpt>
      <trkpt lat="59.809018" lon="17.7563838">
        <ele>0.618042</ele>
        <time>2013-05-30T20:10:49Z</time>
      </trkpt>
      <trkpt lat="59.8090992" lon="17.7563461">
        <ele>0.618042</ele>
        <time>2013-05-30T20:10:50Z</time>
      </trkpt>
      <trkpt lat="59.8091786" lon="17.7563055">
        <ele>0.618042</ele>
        <time>2013-05-30T20:10:51Z</time>
      </trkpt>
      <trkpt lat="59.8092552" lon="17.7562595">
        <ele>0.618042</ele>
        <time>2013-05-30T20:10:52Z</time>
      </trkpt>
      <trkpt lat="59.8093298" lon="17.7562086">
        <ele>0.137451</ele>
        <time>2013-05-30T20:10:53Z</time>
      </trkpt>
      <trkpt lat="59.8094032" lon="17.756155">
        <ele>0.137451</ele>
        <time>2013-05-30T20:10:54Z</time>
      </trkpt>
      <trkpt lat="59.8094779" lon="17.7560983">
        <ele>0</ele>
        <time>2013-05-30T20:10:55Z</time>
      </trkpt>
      <trkpt lat="59.8095551" lon="17.7560336">
        <ele>0.137451</ele>
        <time>2013-05-30T20:10:56Z</time>
      </trkpt>
      <trkpt lat="59.8096331" lon="17.755961">
        <ele>0.137451</ele>
        <time>2013-05-30T20:10:57Z</time>
      </trkpt>
      <trkpt lat="59.8097108" lon="17.755882">
        <ele>0.137451</ele>
        <time>2013-05-30T20:10:58Z</time>
      </trkpt>
      <trkpt lat="59.8097856" lon="17.7558006">
        <ele>0.618042</ele>
        <time>2013-05-30T20:10:59Z</time>
      </trkpt>
      <trkpt lat="59.8098576" lon="17.7557157">
        <ele>0.618042</ele>
        <time>2013-05-30T20:11:00Z</time>
      </trkpt>
      <trkpt lat="59.8099292" lon="17.7556253">
        <ele>0.618042</ele>
        <time>2013-05-30T20:11:01Z</time>
      </trkpt>
      <trkpt lat="59.809999" lon="17.7555307">
        <ele>1.09863</ele>
        <time>2013-05-30T20:11:02Z</time>
      </trkpt>
      <trkpt lat="59.810067" lon="17.7554326">
        <ele>1.09863</ele>
        <time>2013-05-30T20:11:03Z</time>
      </trkpt>
      <trkpt lat="59.8101333" lon="17.7553292">
        <ele>1.57935</ele>
        <time>2013-05-30T20:11:04Z</time>
      </trkpt>
      <trkpt lat="59.8101979" lon="17.7552189">
        <ele>1.57935</ele>
        <time>2013-05-30T20:11:05Z</time>
      </trkpt>
      <trkpt lat="59.8102617" lon="17.7551061">
        <ele>1.57935</ele>
        <time>2013-05-30T20:11:06Z</time>
      </trkpt>
      <trkpt lat="59.8103252" lon="17.7549909">
        <ele>2.06006</ele>
        <time>2013-05-30T20:11:07Z</time>
      </trkpt>
      <trkpt lat="59.8103869" lon="17.7548708">
        <ele>2.06006</ele>
        <time>2013-05-30T20:11:08Z</time>
      </trkpt>
      <trkpt lat="59.8104485" lon="17.7547471">
        <ele>2.06006</ele>
        <time>2013-05-30T20:11:09Z</time>
      </trkpt>
      <trkpt lat="59.810508" lon="17.754621">
        <ele>2.06006</ele>
        <time>2013-05-30T20:11:10Z</time>
      </trkpt>
      <trkpt lat="59.8105657" lon="17.754493">
        <ele>2.54065</ele>
        <time>2013-05-30T20:11:11Z</time>
      </trkpt>
      <trkpt lat="59.8106232" lon="17.7543681">
        <ele>2.54065</ele>
        <time>2013-05-30T20:11:12Z</time>
      </trkpt>
      <trkpt lat="59.8106818" lon="17.7542482">
        <ele>3.02124</ele>
        <time>2013-05-30T20:11:13Z</time>
      </trkpt>
      <trkpt lat="59.8107401" lon="17.7541278">
        <ele>3.98267</ele>
        <time>2013-05-30T20:11:14Z</time>
      </trkpt>
      <trkpt lat="59.8107987" lon="17.7540055">
        <ele>4.46326</ele>
        <time>2013-05-30T20:11:15Z</time>
      </trkpt>
      <trkpt lat="59.8108572" lon="17.7538833">
        <ele>4.94385</ele>
        <time>2013-05-30T20:11:16Z</time>
      </trkpt>
      <trkpt lat="59.8109148" lon="17.7537613">
        <ele>5.42456</ele>
        <time>2013-05-30T20:11:17Z</time>
      </trkpt>
      <trkpt lat="59.8109712" lon="17.7536321">
        <ele>4.94385</ele>
        <time>2013-05-30T20:11:18Z</time>
      </trkpt>
      <trkpt lat="59.8110293" lon="17.7535079">
        <ele>4.94385</ele>
        <time>2013-05-30T20:11:19Z</time>
      </trkpt>
      <trkpt lat="59.8110868" lon="17.7533846">
        <ele>4.46326</ele>
        <time>2013-05-30T20:11:20Z</time>
      </trkpt>
      <trkpt lat="59.8111437" lon="17.7532618">
        <ele>4.46326</ele>
        <time>2013-05-30T20:11:21Z</time>
      </trkpt>
      <trkpt lat="59.8112022" lon="17.7531392">
        <ele>4.94385</ele>
        <time>2013-05-30T20:11:22Z</time>
      </trkpt>
      <trkpt lat="59.8112595" lon="17.7530122">
        <ele>4.46326</ele>
        <time>2013-05-30T20:11:23Z</time>
      </trkpt>
      <trkpt lat="59.81132" lon="17.7528885">
        <ele>4.94385</ele>
        <time>2013-05-30T20:11:24Z</time>
      </trkpt>
      <trkpt lat="59.8113795" lon="17.7527651">
        <ele>4.94385</ele>
        <time>2013-05-30T20:11:25Z</time>
      </trkpt>
      <trkpt lat="59.8114392" lon="17.7526405">
        <ele>5.42456</ele>
        <time>2013-05-30T20:11:26Z</time>
      </trkpt>
      <trkpt lat="59.8114995" lon="17.7525142">
        <ele>5.90527</ele>
        <time>2013-05-30T20:11:27Z</time>
      </trkpt>
      <trkpt lat="59.8115599" lon="17.7523889">
        <ele>5.90527</ele>
        <time>2013-05-30T20:11:28Z</time>
      </trkpt>
      <trkpt lat="59.8116205" lon="17.7522632">
        <ele>6.86646</ele>
        <time>2013-05-30T20:11:29Z</time>
      </trkpt>
      <trkpt lat="59.8116805" lon="17.7521408">
        <ele>7.82788</ele>
        <time>2013-05-30T20:11:30Z</time>
      </trkpt>
      <trkpt lat="59.8117406" lon="17.7520208">
        <ele>9.2699</ele>
        <time>2013-05-30T20:11:31Z</time>
      </trkpt>
      <trkpt lat="59.8117994" lon="17.7519">
        <ele>9.2699</ele>
        <time>2013-05-30T20:11:32Z</time>
      </trkpt>
      <trkpt lat="59.8118591" lon="17.7517779">
        <ele>10.2312</ele>
        <time>2013-05-30T20:11:33Z</time>
      </trkpt>
      <trkpt lat="59.8119177" lon="17.7516545">
        <ele>10.7118</ele>
        <time>2013-05-30T20:11:34Z</time>
      </trkpt>
      <trkpt lat="59.8119768" lon="17.75153">
        <ele>11.6732</ele>
        <time>2013-05-30T20:11:35Z</time>
      </trkpt>
      <trkpt lat="59.8120356" lon="17.7514061">
        <ele>12.1538</ele>
        <time>2013-05-30T20:11:36Z</time>
      </trkpt>
      <trkpt lat="59.8120948" lon="17.7512847">
        <ele>13.1151</ele>
        <time>2013-05-30T20:11:37Z</time>
      </trkpt>
      <trkpt lat="59.8121535" lon="17.7511629">
        <ele>13.5958</ele>
        <time>2013-05-30T20:11:38Z</time>
      </trkpt>
      <trkpt lat="59.8122115" lon="17.7510426">
        <ele>14.0764</ele>
        <time>2013-05-30T20:11:39Z</time>
      </trkpt>
      <trkpt lat="59.8122691" lon="17.7509214">
        <ele>14.557</ele>
        <time>2013-05-30T20:11:40Z</time>
      </trkpt>
      <trkpt lat="59.8123265" lon="17.7507998">
        <ele>14.557</ele>
        <time>2013-05-30T20:11:41Z</time>
      </trkpt>
      <trkpt lat="59.8123853" lon="17.7506784">
        <ele>15.5184</ele>
        <time>2013-05-30T20:11:42Z</time>
      </trkpt>
      <trkpt lat="59.8124447" lon="17.7505562">
        <ele>15.999</ele>
        <time>2013-05-30T20:11:43Z</time>
      </trkpt>
      <trkpt lat="59.8125026" lon="17.750433">
        <ele>15.999</ele>
        <time>2013-05-30T20:11:44Z</time>
      </trkpt>
      <trkpt lat="59.81256" lon="17.7503101">
        <ele>16.4797</ele>
        <time>2013-05-30T20:11:45Z</time>
      </trkpt>
      <trkpt lat="59.8126187" lon="17.7501896">
        <ele>16.9604</ele>
        <time>2013-05-30T20:11:46Z</time>
      </trkpt>
      <trkpt lat="59.8126783" lon="17.7500712">
        <ele>17.4412</ele>
        <time>2013-05-30T20:11:47Z</time>
      </trkpt>
      <trkpt lat="59.8127384" lon="17.7499523">
        <ele>17.9218</ele>
        <time>2013-05-30T20:11:48Z</time>
      </trkpt>
      <trkpt lat="59.8127985" lon="17.7498304">
        <ele>18.4023</ele>
        <time>2013-05-30T20:11:49Z</time>
      </trkpt>
      <trkpt lat="59.8128585" lon="17.7497052">
        <ele>18.8831</ele>
        <time>2013-05-30T20:11:50Z</time>
      </trkpt>
      <trkpt lat="59.8129179" lon="17.7495812">
        <ele>19.8444</ele>
        <time>2013-05-30T20:11:51Z</time>
      </trkpt>
      <trkpt lat="59.8129771" lon="17.7494569">
        <ele>20.325</ele>
        <time>2013-05-30T20:11:52Z</time>
      </trkpt>
      <trkpt lat="59.813036" lon="17.749333">
        <ele>21.2864</ele>
        <time>2013-05-30T20:11:53Z</time>
      </trkpt>
      <trkpt lat="59.813094" lon="17.7492109">
        <ele>21.2864</ele>
        <time>2013-05-30T20:11:54Z</time>
      </trkpt>
      <trkpt lat="59.8131532" lon="17.7490903">
        <ele>22.2476</ele>
        <time>2013-05-30T20:11:55Z</time>
      </trkpt>
      <trkpt lat="59.8132123" lon="17.7489717">
        <ele>23.6896</ele>
        <time>2013-05-30T20:11:56Z</time>
      </trkpt>
      <trkpt lat="59.8132701" lon="17.7488516">
        <ele>23.6896</ele>
        <time>2013-05-30T20:11:57Z</time>
      </trkpt>
      <trkpt lat="59.8133281" lon="17.7487298">
        <ele>24.1703</ele>
        <time>2013-05-30T20:11:58Z</time>
      </trkpt>
      <trkpt lat="59.8133873" lon="17.748608">
        <ele>24.651</ele>
        <time>2013-05-30T20:11:59Z</time>
      </trkpt>
      <trkpt lat="59.8134477" lon="17.7484863">
        <ele>25.6123</ele>
        <time>2013-05-30T20:12:00Z</time>
      </trkpt>
      <trkpt lat="59.8135091" lon="17.7483628">
        <ele>27.0543</ele>
        <time>2013-05-30T20:12:01Z</time>
      </trkpt>
      <trkpt lat="59.813569" lon="17.7482413">
        <ele>28.0155</ele>
        <time>2013-05-30T20:12:02Z</time>
      </trkpt>
      <trkpt lat="59.8136275" lon="17.7481222">
        <ele>28.4962</ele>
        <time>2013-05-30T20:12:03Z</time>
      </trkpt>
      <trkpt lat="59.8136857" lon="17.7480024">
        <ele>28.4962</ele>
        <time>2013-05-30T20:12:04Z</time>
      </trkpt>
      <trkpt lat="59.8137432" lon="17.7478821">
        <ele>28.9769</ele>
        <time>2013-05-30T20:12:05Z</time>
      </trkpt>
      <trkpt lat="59.8138002" lon="17.7477622">
        <ele>29.4575</ele>
        <time>2013-05-30T20:12:06Z</time>
      </trkpt>
      <trkpt lat="59.8138566" lon="17.7476424">
        <ele>29.9381</ele>
        <time>2013-05-30T20:12:07Z</time>
      </trkpt>
      <trkpt lat="59.8139122" lon="17.7475244">
        <ele>29.9381</ele>
        <time>2013-05-30T20:12:08Z</time>
      </trkpt>
      <trkpt lat="59.8139692" lon="17.7474082">
        <ele>29.9381</ele>
        <time>2013-05-30T20:12:09Z</time>
      </trkpt>
      <trkpt lat="59.8140267" lon="17.7472924">
        <ele>29.9381</ele>
        <time>2013-05-30T20:12:10Z</time>
      </trkpt>
      <trkpt lat="59.8140844" lon="17.7471758">
        <ele>29.9381</ele>
        <time>2013-05-30T20:12:11Z</time>
      </trkpt>
      <trkpt lat="59.8141413" lon="17.7470585">
        <ele>29.9381</ele>
        <time>2013-05-30T20:12:12Z</time>
      </trkpt>
      <trkpt lat="59.814198" lon="17.7469406">
        <ele>30.4188</ele>
        <time>2013-05-30T20:12:13Z</time>
      </trkpt>
      <trkpt lat="59.8142534" lon="17.7468239">
        <ele>30.4188</ele>
        <time>2013-05-30T20:12:14Z</time>
      </trkpt>
      <trkpt lat="59.8143073" lon="17.7467088">
        <ele>30.8995</ele>
        <time>2013-05-30T20:12:15Z</time>
      </trkpt>
      <trkpt lat="59.8143606" lon="17.7465945">
        <ele>30.8995</ele>
        <time>2013-05-30T20:12:16Z</time>
      </trkpt>
      <trkpt lat="59.8144135" lon="17.7464821">
        <ele>31.3801</ele>
        <time>2013-05-30T20:12:17Z</time>
      </trkpt>
      <trkpt lat="59.8144654" lon="17.7463711">
        <ele>31.3801</ele>
        <time>2013-05-30T20:12:18Z</time>
      </trkpt>
      <trkpt lat="59.8145161" lon="17.746261">
        <ele>31.3801</ele>
        <time>2013-05-30T20:12:19Z</time>
      </trkpt>
      <trkpt lat="59.8145679" lon="17.7461537">
        <ele>31.8607</ele>
        <time>2013-05-30T20:12:20Z</time>
      </trkpt>
      <trkpt lat="59.8146206" lon="17.7460466">
        <ele>32.3416</ele>
        <time>2013-05-30T20:12:21Z</time>
      </trkpt>
      <trkpt lat="59.8146736" lon="17.7459408">
        <ele>32.3416</ele>
        <time>2013-05-30T20:12:22Z</time>
      </trkpt>
      <trkpt lat="59.8147274" lon="17.7458316">
        <ele>32.8223</ele>
        <time>2013-05-30T20:12:23Z</time>
      </trkpt>
      <trkpt lat="59.8147812" lon="17.7457182">
        <ele>33.3029</ele>
        <time>2013-05-30T20:12:24Z</time>
      </trkpt>
      <trkpt lat="59.8148355" lon="17.7456039">
        <ele>33.7834</ele>
        <time>2013-05-30T20:12:25Z</time>
      </trkpt>
      <trkpt lat="59.8148896" lon="17.7454907">
        <ele>33.7834</ele>
        <time>2013-05-30T20:12:26Z</time>
      </trkpt>
      <trkpt lat="59.8149413" lon="17.7453802">
        <ele>34.2642</ele>
        <time>2013-05-30T20:12:27Z</time>
      </trkpt>
      <trkpt lat="59.8149902" lon="17.7452762">
        <ele>34.2642</ele>
        <time>2013-05-30T20:12:28Z</time>
      </trkpt>
      <trkpt lat="59.8150363" lon="17.7451788">
        <ele>33.7834</ele>
        <time>2013-05-30T20:12:29Z</time>
      </trkpt>
      <trkpt lat="59.8150829" lon="17.7450824">
        <ele>33.7834</ele>
        <time>2013-05-30T20:12:30Z</time>
      </trkpt>
      <trkpt lat="59.8151278" lon="17.7449878">
        <ele>33.7834</ele>
        <time>2013-05-30T20:12:31Z</time>
      </trkpt>
      <trkpt lat="59.8151727" lon="17.7448939">
        <ele>34.2642</ele>
        <time>2013-05-30T20:12:32Z</time>
      </trkpt>
      <trkpt lat="59.815217" lon="17.7448012">
        <ele>34.7449</ele>
        <time>2013-05-30T20:12:33Z</time>
      </trkpt>
      <trkpt lat="59.815261" lon="17.7447075">
        <ele>35.2255</ele>
        <time>2013-05-30T20:12:34Z</time>
      </trkpt>
      <trkpt lat="59.8153048" lon="17.744616">
        <ele>35.2255</ele>
        <time>2013-05-30T20:12:35Z</time>
      </trkpt>
      <trkpt lat="59.8153486" lon="17.7445266">
        <ele>35.7061</ele>
        <time>2013-05-30T20:12:36Z</time>
      </trkpt>
      <trkpt lat="59.8153951" lon="17.7444335">
        <ele>36.6675</ele>
        <time>2013-05-30T20:12:37Z</time>
      </trkpt>
      <trkpt lat="59.8154387" lon="17.7443412">
        <ele>37.1481</ele>
        <time>2013-05-30T20:12:38Z</time>
      </trkpt>
      <trkpt lat="59.8154822" lon="17.744249">
        <ele>37.6287</ele>
        <time>2013-05-30T20:12:39Z</time>
      </trkpt>
      <trkpt lat="59.8155262" lon="17.7441595">
        <ele>38.1094</ele>
        <time>2013-05-30T20:12:40Z</time>
      </trkpt>
      <trkpt lat="59.8155686" lon="17.7440716">
        <ele>38.5901</ele>
        <time>2013-05-30T20:12:41Z</time>
      </trkpt>
      <trkpt lat="59.8156075" lon="17.7439874">
        <ele>38.5901</ele>
        <time>2013-05-30T20:12:42Z</time>
      </trkpt>
      <trkpt lat="59.8156427" lon="17.7438971">
        <ele>37.1481</ele>
        <time>2013-05-30T20:12:43Z</time>
      </trkpt>
      <trkpt lat="59.8156628" lon="17.7438018">
        <ele>26.5736</ele>
        <time>2013-05-30T20:12:44Z</time>
      </trkpt>
      <trkpt lat="59.8157034" lon="17.7437195">
        <ele>26.5736</ele>
        <time>2013-05-30T20:12:45Z</time>
      </trkpt>
      <trkpt lat="59.8157332" lon="17.7436248">
        <ele>21.2864</ele>
        <time>2013-05-30T20:12:46Z</time>
      </trkpt>
      <trkpt lat="59.8157708" lon="17.7435352">
        <ele>19.8444</ele>
        <time>2013-05-30T20:12:47Z</time>
      </trkpt>
      <trkpt lat="59.8158074" lon="17.7434487">
        <ele>17.9218</ele>
        <time>2013-05-30T20:12:48Z</time>
      </trkpt>
      <trkpt lat="59.8158438" lon="17.7433656">
        <ele>16.4797</ele>
        <time>2013-05-30T20:12:49Z</time>
      </trkpt>
      <trkpt lat="59.8158805" lon="17.7432864">
        <ele>15.999</ele>
        <time>2013-05-30T20:12:50Z</time>
      </trkpt>
      <trkpt lat="59.8159147" lon="17.7432149">
        <ele>15.5184</ele>
        <time>2013-05-30T20:12:51Z</time>
      </trkpt>
      <trkpt lat="59.8159483" lon="17.7431444">
        <ele>14.557</ele>
        <time>2013-05-30T20:12:52Z</time>
      </trkpt>
      <trkpt lat="59.8159867" lon="17.7430693">
        <ele>14.0764</ele>
        <time>2013-05-30T20:12:53Z</time>
      </trkpt>
      <trkpt lat="59.8160266" lon="17.7429948">
        <ele>14.0764</ele>
        <time>2013-05-30T20:12:54Z</time>
      </trkpt>
      <trkpt lat="59.8160645" lon="17.742917">
        <ele>14.557</ele>
        <time>2013-05-30T20:12:55Z</time>
      </trkpt>
      <trkpt lat="59.8160999" lon="17.7428474">
        <ele>15.0377</ele>
        <time>2013-05-30T20:12:56Z</time>
      </trkpt>
      <trkpt lat="59.8161344" lon="17.7427756">
        <ele>15.0377</ele>
        <time>2013-05-30T20:12:57Z</time>
      </trkpt>
      <trkpt lat="59.8161737" lon="17.7427063">
        <ele>15.999</ele>
        <time>2013-05-30T20:12:58Z</time>
      </trkpt>
      <trkpt lat="59.8162134" lon="17.7426389">
        <ele>15.5184</ele>
        <time>2013-05-30T20:12:59Z</time>
      </trkpt>
      <trkpt lat="59.8162535" lon="17.7425652">
        <ele>15.5184</ele>
        <time>2013-05-30T20:13:00Z</time>
      </trkpt>
      <trkpt lat="59.8162971" lon="17.7424979">
        <ele>15.999</ele>
        <time>2013-05-30T20:13:01Z</time>
      </trkpt>
      <trkpt lat="59.8163436" lon="17.7424335">
        <ele>16.4797</ele>
        <time>2013-05-30T20:13:02Z</time>
      </trkpt>
      <trkpt lat="59.8163872" lon="17.7423593">
        <ele>16.4797</ele>
        <time>2013-05-30T20:13:03Z</time>
      </trkpt>
      <trkpt lat="59.8164291" lon="17.7422857">
        <ele>15.999</ele>
        <time>2013-05-30T20:13:04Z</time>
      </trkpt>
      <trkpt lat="59.8164709" lon="17.7422201">
        <ele>15.5184</ele>
        <time>2013-05-30T20:13:05Z</time>
      </trkpt>
      <trkpt lat="59.8165125" lon="17.7421638">
        <ele>15.5184</ele>
        <time>2013-05-30T20:13:06Z</time>
      </trkpt>
      <trkpt lat="59.816562" lon="17.7420999">
        <ele>15.5184</ele>
        <time>2013-05-30T20:13:07Z</time>
      </trkpt>
      <trkpt lat="59.8166109" lon="17.7420387">
        <ele>16.4797</ele>
        <time>2013-05-30T20:13:08Z</time>
      </trkpt>
      <trkpt lat="59.8166591" lon="17.7419825">
        <ele>16.9604</ele>
        <time>2013-05-30T20:13:09Z</time>
      </trkpt>
      <trkpt lat="59.8167047" lon="17.7419245">
        <ele>16.9604</ele>
        <time>2013-05-30T20:13:10Z</time>
      </trkpt>
      <trkpt lat="59.8167478" lon="17.7418656">
        <ele>16.4797</ele>
        <time>2013-05-30T20:13:11Z</time>
      </trkpt>
      <trkpt lat="59.8167936" lon="17.7418155">
        <ele>16.9604</ele>
        <time>2013-05-30T20:13:12Z</time>
      </trkpt>
      <trkpt lat="59.8168384" lon="17.7417703">
        <ele>16.4797</ele>
        <time>2013-05-30T20:13:13Z</time>
      </trkpt>
      <trkpt lat="59.8168845" lon="17.7417235">
        <ele>16.9604</ele>
        <time>2013-05-30T20:13:14Z</time>
      </trkpt>
      <trkpt lat="59.8169305" lon="17.741681">
        <ele>16.9604</ele>
        <time>2013-05-30T20:13:15Z</time>
      </trkpt>
      <trkpt lat="59.8169729" lon="17.7416408">
        <ele>16.4797</ele>
        <time>2013-05-30T20:13:16Z</time>
      </trkpt>
      <trkpt lat="59.8170129" lon="17.7415905">
        <ele>14.557</ele>
        <time>2013-05-30T20:13:17Z</time>
      </trkpt>
      <trkpt lat="59.8170616" lon="17.7415399">
        <ele>13.5958</ele>
        <time>2013-05-30T20:13:18Z</time>
      </trkpt>
      <trkpt lat="59.8171083" lon="17.7414881">
        <ele>13.1151</ele>
        <time>2013-05-30T20:13:19Z</time>
      </trkpt>
      <trkpt lat="59.8171611" lon="17.7414368">
        <ele>13.5958</ele>
        <time>2013-05-30T20:13:20Z</time>
      </trkpt>
      <trkpt lat="59.8172143" lon="17.7413865">
        <ele>14.0764</ele>
        <time>2013-05-30T20:13:21Z</time>
      </trkpt>
      <trkpt lat="59.8172677" lon="17.7413257">
        <ele>14.557</ele>
        <time>2013-05-30T20:13:22Z</time>
      </trkpt>
      <trkpt lat="59.817324" lon="17.7412698">
        <ele>15.5184</ele>
        <time>2013-05-30T20:13:23Z</time>
      </trkpt>
      <trkpt lat="59.8173812" lon="17.7412086">
        <ele>15.0377</ele>
        <time>2013-05-30T20:13:24Z</time>
      </trkpt>
      <trkpt lat="59.8174409" lon="17.741143">
        <ele>15.0377</ele>
        <time>2013-05-30T20:13:25Z</time>
      </trkpt>
      <trkpt lat="59.8175097" lon="17.7410688">
        <ele>15.999</ele>
        <time>2013-05-30T20:13:26Z</time>
      </trkpt>
      <trkpt lat="59.8175754" lon="17.7409978">
        <ele>15.999</ele>
        <time>2013-05-30T20:13:27Z</time>
      </trkpt>
      <trkpt lat="59.817638" lon="17.7409088">
        <ele>15.0377</ele>
        <time>2013-05-30T20:13:28Z</time>
      </trkpt>
      <trkpt lat="59.8176994" lon="17.7408273">
        <ele>15.0377</ele>
        <time>2013-05-30T20:13:29Z</time>
      </trkpt>
      <trkpt lat="59.81776" lon="17.7407545">
        <ele>15.0377</ele>
        <time>2013-05-30T20:13:30Z</time>
      </trkpt>
      <trkpt lat="59.8178203" lon="17.7406923">
        <ele>15.0377</ele>
        <time>2013-05-30T20:13:31Z</time>
      </trkpt>
      <trkpt lat="59.8178827" lon="17.7406197">
        <ele>15.0377</ele>
        <time>2013-05-30T20:13:32Z</time>
      </trkpt>
      <trkpt lat="59.8179509" lon="17.7405432">
        <ele>15.999</ele>
        <time>2013-05-30T20:13:33Z</time>
      </trkpt>
      <trkpt lat="59.8180204" lon="17.740468">
        <ele>15.999</ele>
        <time>2013-05-30T20:13:34Z</time>
      </trkpt>
      <trkpt lat="59.8180936" lon="17.7403878">
        <ele>15.999</ele>
        <time>2013-05-30T20:13:35Z</time>
      </trkpt>
      <trkpt lat="59.8181665" lon="17.7403053">
        <ele>15.999</ele>
        <time>2013-05-30T20:13:36Z</time>
      </trkpt>
      <trkpt lat="59.8182394" lon="17.7402219">
        <ele>15.999</ele>
        <time>2013-05-30T20:13:37Z</time>
      </trkpt>
      <trkpt lat="59.8183126" lon="17.7401395">
        <ele>15.5184</ele>
        <time>2013-05-30T20:13:38Z</time>
      </trkpt>
      <trkpt lat="59.8183852" lon="17.7400537">
        <ele>15.5184</ele>
        <time>2013-05-30T20:13:39Z</time>
      </trkpt>
      <trkpt lat="59.8184596" lon="17.7399697">
        <ele>15.0377</ele>
        <time>2013-05-30T20:13:40Z</time>
      </trkpt>
      <trkpt lat="59.8185342" lon="17.7398863">
        <ele>15.0377</ele>
        <time>2013-05-30T20:13:41Z</time>
      </trkpt>
      <trkpt lat="59.8186068" lon="17.7397998">
        <ele>15.0377</ele>
        <time>2013-05-30T20:13:42Z</time>
      </trkpt>
      <trkpt lat="59.8186768" lon="17.7397158">
        <ele>14.557</ele>
        <time>2013-05-30T20:13:43Z</time>
      </trkpt>
      <trkpt lat="59.8187471" lon="17.7396354">
        <ele>14.557</ele>
        <time>2013-05-30T20:13:44Z</time>
      </trkpt>
      <trkpt lat="59.8188187" lon="17.7395536">
        <ele>14.557</ele>
        <time>2013-05-30T20:13:45Z</time>
      </trkpt>
      <trkpt lat="59.8188902" lon="17.7394717">
        <ele>14.557</ele>
        <time>2013-05-30T20:13:46Z</time>
      </trkpt>
      <trkpt lat="59.8189606" lon="17.7393926">
        <ele>14.557</ele>
        <time>2013-05-30T20:13:47Z</time>
      </trkpt>
      <trkpt lat="59.8190275" lon="17.7393149">
        <ele>14.557</ele>
        <time>2013-05-30T20:13:48Z</time>
      </trkpt>
      <trkpt lat="59.8190937" lon="17.7392384">
        <ele>14.0764</ele>
        <time>2013-05-30T20:13:49Z</time>
      </trkpt>
      <trkpt lat="59.8191617" lon="17.7391632">
        <ele>15.0377</ele>
        <time>2013-05-30T20:13:50Z</time>
      </trkpt>
      <trkpt lat="59.8192275" lon="17.7390887">
        <ele>15.0377</ele>
        <time>2013-05-30T20:13:51Z</time>
      </trkpt>
      <trkpt lat="59.8192966" lon="17.7390141">
        <ele>16.9604</ele>
        <time>2013-05-30T20:13:52Z</time>
      </trkpt>
      <trkpt lat="59.819361" lon="17.7389434">
        <ele>17.4412</ele>
        <time>2013-05-30T20:13:53Z</time>
      </trkpt>
      <trkpt lat="59.8194287" lon="17.738872">
        <ele>18.8831</ele>
        <time>2013-05-30T20:13:54Z</time>
      </trkpt>
      <trkpt lat="59.8194894" lon="17.7388">
        <ele>16.4797</ele>
        <time>2013-05-30T20:13:55Z</time>
      </trkpt>
      <trkpt lat="59.8195532" lon="17.7387335">
        <ele>16.9604</ele>
        <time>2013-05-30T20:13:56Z</time>
      </trkpt>
      <trkpt lat="59.8196185" lon="17.7386597">
        <ele>17.4412</ele>
        <time>2013-05-30T20:13:57Z</time>
      </trkpt>
      <trkpt lat="59.8196837" lon="17.7385847">
        <ele>17.9218</ele>
        <time>2013-05-30T20:13:58Z</time>
      </trkpt>
      <trkpt lat="59.8197465" lon="17.738513">
        <ele>17.9218</ele>
        <time>2013-05-30T20:13:59Z</time>
      </trkpt>
      <trkpt lat="59.8198107" lon="17.7384416">
        <ele>18.4023</ele>
        <time>2013-05-30T20:14:00Z</time>
      </trkpt>
      <trkpt lat="59.8198687" lon="17.7383718">
        <ele>17.4412</ele>
        <time>2013-05-30T20:14:01Z</time>
      </trkpt>
      <trkpt lat="59.8199261" lon="17.7383052">
        <ele>15.999</ele>
        <time>2013-05-30T20:14:02Z</time>
      </trkpt>
      <trkpt lat="59.8199856" lon="17.7382433">
        <ele>15.5184</ele>
        <time>2013-05-30T20:14:03Z</time>
      </trkpt>
      <trkpt lat="59.8200463" lon="17.7381794">
        <ele>15.0377</ele>
        <time>2013-05-30T20:14:04Z</time>
      </trkpt>
      <trkpt lat="59.8201074" lon="17.7381111">
        <ele>14.557</ele>
        <time>2013-05-30T20:14:05Z</time>
      </trkpt>
      <trkpt lat="59.8201701" lon="17.7380365">
        <ele>14.557</ele>
        <time>2013-05-30T20:14:06Z</time>
      </trkpt>
      <trkpt lat="59.8202333" lon="17.737963">
        <ele>15.5184</ele>
        <time>2013-05-30T20:14:07Z</time>
      </trkpt>
      <trkpt lat="59.8202953" lon="17.7378825">
        <ele>16.4797</ele>
        <time>2013-05-30T20:14:08Z</time>
      </trkpt>
      <trkpt lat="59.8203645" lon="17.7377993">
        <ele>18.4023</ele>
        <time>2013-05-30T20:14:09Z</time>
      </trkpt>
      <trkpt lat="59.8204327" lon="17.7377204">
        <ele>18.8831</ele>
        <time>2013-05-30T20:14:10Z</time>
      </trkpt>
      <trkpt lat="59.8205018" lon="17.7376392">
        <ele>18.8831</ele>
        <time>2013-05-30T20:14:11Z</time>
      </trkpt>
      <trkpt lat="59.8205747" lon="17.7375455">
        <ele>19.3638</ele>
        <time>2013-05-30T20:14:12Z</time>
      </trkpt>
      <trkpt lat="59.820647" lon="17.7374511">
        <ele>19.3638</ele>
        <time>2013-05-30T20:14:13Z</time>
      </trkpt>
      <trkpt lat="59.8207234" lon="17.7373569">
        <ele>18.4023</ele>
        <time>2013-05-30T20:14:14Z</time>
      </trkpt>
      <trkpt lat="59.8208052" lon="17.7372434">
        <ele>17.4412</ele>
        <time>2013-05-30T20:14:15Z</time>
      </trkpt>
      <trkpt lat="59.8208845" lon="17.7371246">
        <ele>15.5184</ele>
        <time>2013-05-30T20:14:16Z</time>
      </trkpt>
      <trkpt lat="59.8209659" lon="17.7369957">
        <ele>15.5184</ele>
        <time>2013-05-30T20:14:17Z</time>
      </trkpt>
      <trkpt lat="59.8210564" lon="17.736886">
        <ele>15.999</ele>
        <time>2013-05-30T20:14:18Z</time>
      </trkpt>
      <trkpt lat="59.8211482" lon="17.7367718">
        <ele>15.999</ele>
        <time>2013-05-30T20:14:19Z</time>
      </trkpt>
      <trkpt lat="59.8212352" lon="17.7366466">
        <ele>15.0377</ele>
        <time>2013-05-30T20:14:20Z</time>
      </trkpt>
      <trkpt lat="59.8213227" lon="17.736519">
        <ele>14.557</ele>
        <time>2013-05-30T20:14:21Z</time>
      </trkpt>
      <trkpt lat="59.8214066" lon="17.7363974">
        <ele>13.5958</ele>
        <time>2013-05-30T20:14:22Z</time>
      </trkpt>
      <trkpt lat="59.8214945" lon="17.7362815">
        <ele>13.5958</ele>
        <time>2013-05-30T20:14:23Z</time>
      </trkpt>
      <trkpt lat="59.8215838" lon="17.7361674">
        <ele>15.5184</ele>
        <time>2013-05-30T20:14:24Z</time>
      </trkpt>
      <trkpt lat="59.8216698" lon="17.736062">
        <ele>15.5184</ele>
        <time>2013-05-30T20:14:25Z</time>
      </trkpt>
      <trkpt lat="59.8217573" lon="17.7359578">
        <ele>15.999</ele>
        <time>2013-05-30T20:14:26Z</time>
      </trkpt>
      <trkpt lat="59.8218428" lon="17.7358443">
        <ele>15.0377</ele>
        <time>2013-05-30T20:14:27Z</time>
      </trkpt>
      <trkpt lat="59.821933" lon="17.7357215">
        <ele>15.0377</ele>
        <time>2013-05-30T20:14:28Z</time>
      </trkpt>
      <trkpt lat="59.8220204" lon="17.7355982">
        <ele>14.0764</ele>
        <time>2013-05-30T20:14:29Z</time>
      </trkpt>
      <trkpt lat="59.8221091" lon="17.7354756">
        <ele>12.6344</ele>
        <time>2013-05-30T20:14:30Z</time>
      </trkpt>
      <trkpt lat="59.8221976" lon="17.7353628">
        <ele>10.2312</ele>
        <time>2013-05-30T20:14:31Z</time>
      </trkpt>
      <trkpt lat="59.822293" lon="17.7352522">
        <ele>8.30859</ele>
        <time>2013-05-30T20:14:32Z</time>
      </trkpt>
      <trkpt lat="59.8223862" lon="17.7351347">
        <ele>7.34717</ele>
        <time>2013-05-30T20:14:33Z</time>
      </trkpt>
      <trkpt lat="59.8224773" lon="17.7350143">
        <ele>6.86646</ele>
        <time>2013-05-30T20:14:34Z</time>
      </trkpt>
      <trkpt lat="59.8225665" lon="17.7348951">
        <ele>5.90527</ele>
        <time>2013-05-30T20:14:35Z</time>
      </trkpt>
      <trkpt lat="59.8226548" lon="17.7347746">
        <ele>5.42456</ele>
        <time>2013-05-30T20:14:36Z</time>
      </trkpt>
      <trkpt lat="59.8227442" lon="17.7346552">
        <ele>4.94385</ele>
        <time>2013-05-30T20:14:37Z</time>
      </trkpt>
      <trkpt lat="59.8228325" lon="17.7345384">
        <ele>4.94385</ele>
        <time>2013-05-30T20:14:38Z</time>
      </trkpt>
      <trkpt lat="59.8229191" lon="17.7344222">
        <ele>4.46326</ele>
        <time>2013-05-30T20:14:39Z</time>
      </trkpt>
      <trkpt lat="59.8230056" lon="17.7343045">
        <ele>3.98267</ele>
        <time>2013-05-30T20:14:40Z</time>
      </trkpt>
      <trkpt lat="59.823091" lon="17.7341875">
        <ele>3.98267</ele>
        <time>2013-05-30T20:14:41Z</time>
      </trkpt>
      <trkpt lat="59.8231754" lon="17.7340727">
        <ele>3.50195</ele>
        <time>2013-05-30T20:14:42Z</time>
      </trkpt>
      <trkpt lat="59.8232595" lon="17.7339599">
        <ele>3.50195</ele>
        <time>2013-05-30T20:14:43Z</time>
      </trkpt>
      <trkpt lat="59.8233438" lon="17.7338528">
        <ele>3.02124</ele>
        <time>2013-05-30T20:14:44Z</time>
      </trkpt>
      <trkpt lat="59.82343" lon="17.733743">
        <ele>3.02124</ele>
        <time>2013-05-30T20:14:45Z</time>
      </trkpt>
      <trkpt lat="59.8235189" lon="17.7336288">
        <ele>3.02124</ele>
        <time>2013-05-30T20:14:46Z</time>
      </trkpt>
      <trkpt lat="59.8236075" lon="17.7335059">
        <ele>3.02124</ele>
        <time>2013-05-30T20:14:47Z</time>
      </trkpt>
      <trkpt lat="59.8236986" lon="17.7333823">
        <ele>3.02124</ele>
        <time>2013-05-30T20:14:48Z</time>
      </trkpt>
      <trkpt lat="59.8237906" lon="17.73326">
        <ele>3.50195</ele>
        <time>2013-05-30T20:14:49Z</time>
      </trkpt>
      <trkpt lat="59.8238823" lon="17.7331364">
        <ele>3.50195</ele>
        <time>2013-05-30T20:14:50Z</time>
      </trkpt>
      <trkpt lat="59.8239728" lon="17.7330118">
        <ele>3.02124</ele>
        <time>2013-05-30T20:14:51Z</time>
      </trkpt>
      <trkpt lat="59.8240636" lon="17.7328863">
        <ele>3.02124</ele>
        <time>2013-05-30T20:14:52Z</time>
      </trkpt>
      <trkpt lat="59.8241555" lon="17.7327568">
        <ele>3.02124</ele>
        <time>2013-05-30T20:14:53Z</time>
      </trkpt>
      <trkpt lat="59.8242479" lon="17.7326269">
        <ele>3.02124</ele>
        <time>2013-05-30T20:14:54Z</time>
      </trkpt>
      <trkpt lat="59.8243408" lon="17.7325003">
        <ele>2.54065</ele>
        <time>2013-05-30T20:14:55Z</time>
      </trkpt>
      <trkpt lat="59.824435" lon="17.7323701">
        <ele>2.54065</ele>
        <time>2013-05-30T20:14:56Z</time>
      </trkpt>
      <trkpt lat="59.8245276" lon="17.7322374">
        <ele>2.06006</ele>
        <time>2013-05-30T20:14:57Z</time>
      </trkpt>
      <trkpt lat="59.8246204" lon="17.7321084">
        <ele>1.57935</ele>
        <time>2013-05-30T20:14:58Z</time>
      </trkpt>
      <trkpt lat="59.8247144" lon="17.7319795">
        <ele>1.09863</ele>
        <time>2013-05-30T20:14:59Z</time>
      </trkpt>
      <trkpt lat="59.8248083" lon="17.7318526">
        <ele>1.09863</ele>
        <time>2013-05-30T20:15:00Z</time>
      </trkpt>
      <trkpt lat="59.8249009" lon="17.7317266">
        <ele>1.57935</ele>
        <time>2013-05-30T20:15:01Z</time>
      </trkpt>
      <trkpt lat="59.8249918" lon="17.7316011">
        <ele>1.57935</ele>
        <time>2013-05-30T20:15:02Z</time>
      </trkpt>
      <trkpt lat="59.8250831" lon="17.7314811">
        <ele>1.57935</ele>
        <time>2013-05-30T20:15:03Z</time>
      </trkpt>
      <trkpt lat="59.8251736" lon="17.7313623">
        <ele>1.57935</ele>
        <time>2013-05-30T20:15:04Z</time>
      </trkpt>
      <trkpt lat="59.8252626" lon="17.7312426">
        <ele>1.57935</ele>
        <time>2013-05-30T20:15:05Z</time>
      </trkpt>
      <trkpt lat="59.8253506" lon="17.7311237">
        <ele>1.57935</ele>
        <time>2013-05-30T20:15:06Z</time>
      </trkpt>
      <trkpt lat="59.8254373" lon="17.7310025">
        <ele>1.09863</ele>
        <time>2013-05-30T20:15:07Z</time>
      </trkpt>
      <trkpt lat="59.8255252" lon="17.7308806">
        <ele>1.09863</ele>
        <time>2013-05-30T20:15:08Z</time>
      </trkpt>
      <trkpt lat="59.8256134" lon="17.7307588">
        <ele>1.57935</ele>
        <time>2013-05-30T20:15:09Z</time>
      </trkpt>
      <trkpt lat="59.8257004" lon="17.7306368">
        <ele>1.09863</ele>
        <time>2013-05-30T20:15:10Z</time>
      </trkpt>
      <trkpt lat="59.8257875" lon="17.7305129">
        <ele>1.57935</ele>
        <time>2013-05-30T20:15:11Z</time>
      </trkpt>
      <trkpt lat="59.8258714" lon="17.7303824">
        <ele>1.57935</ele>
        <time>2013-05-30T20:15:12Z</time>
      </trkpt>
      <trkpt lat="59.8259489" lon="17.7302399">
        <ele>2.06006</ele>
        <time>2013-05-30T20:15:13Z</time>
      </trkpt>
      <trkpt lat="59.8260216" lon="17.7300869">
        <ele>2.54065</ele>
        <time>2013-05-30T20:15:14Z</time>
      </trkpt>
      <trkpt lat="59.8260888" lon="17.7299218">
        <ele>2.54065</ele>
        <time>2013-05-30T20:15:15Z</time>
      </trkpt>
      <trkpt lat="59.8261514" lon="17.7297549">
        <ele>3.02124</ele>
        <time>2013-05-30T20:15:16Z</time>
      </trkpt>
      <trkpt lat="59.8262065" lon="17.7295856">
        <ele>3.02124</ele>
        <time>2013-05-30T20:15:17Z</time>
      </trkpt>
      <trkpt lat="59.8262519" lon="17.7294135">
        <ele>3.02124</ele>
        <time>2013-05-30T20:15:18Z</time>
      </trkpt>
      <trkpt lat="59.8262893" lon="17.7292395">
        <ele>3.02124</ele>
        <time>2013-05-30T20:15:19Z</time>
      </trkpt>
      <trkpt lat="59.8263206" lon="17.7290655">
        <ele>3.50195</ele>
        <time>2013-05-30T20:15:20Z</time>
      </trkpt>
      <trkpt lat="59.8263444" lon="17.7288934">
        <ele>3.02124</ele>
        <time>2013-05-30T20:15:21Z</time>
      </trkpt>
      <trkpt lat="59.8263613" lon="17.7287251">
        <ele>2.54065</ele>
        <time>2013-05-30T20:15:22Z</time>
      </trkpt>
      <trkpt lat="59.8263736" lon="17.7285574">
        <ele>2.06006</ele>
        <time>2013-05-30T20:15:23Z</time>
      </trkpt>
      <trkpt lat="59.8263837" lon="17.7283937">
        <ele>2.06006</ele>
        <time>2013-05-30T20:15:24Z</time>
      </trkpt>
      <trkpt lat="59.8263915" lon="17.728235">
        <ele>1.57935</ele>
        <time>2013-05-30T20:15:25Z</time>
      </trkpt>
      <trkpt lat="59.8263973" lon="17.7280823">
        <ele>0.618042</ele>
        <time>2013-05-30T20:15:26Z</time>
      </trkpt>
      <trkpt lat="59.8264008" lon="17.7279282">
        <ele>0.137451</ele>
        <time>2013-05-30T20:15:27Z</time>
      </trkpt>
      <trkpt lat="59.8264044" lon="17.7277771">
        <ele>0.137451</ele>
        <time>2013-05-30T20:15:28Z</time>
      </trkpt>
      <trkpt lat="59.8264081" lon="17.7276258">
        <ele>0.137451</ele>
        <time>2013-05-30T20:15:29Z</time>
      </trkpt>
      <trkpt lat="59.8264112" lon="17.7274753">
        <ele>0</ele>
        <time>2013-05-30T20:15:30Z</time>
      </trkpt>
      <trkpt lat="59.8264141" lon="17.7273278">
        <ele>0</ele>
        <time>2013-05-30T20:15:31Z</time>
      </trkpt>
      <trkpt lat="59.8264168" lon="17.7271821">
        <ele>0</ele>
        <time>2013-05-30T20:15:32Z</time>
      </trkpt>
      <trkpt lat="59.8264189" lon="17.7270371">
        <ele>0</ele>
        <time>2013-05-30T20:15:33Z</time>
      </trkpt>
      <trkpt lat="59.8264192" lon="17.7268942">
        <ele>0</ele>
        <time>2013-05-30T20:15:34Z</time>
      </trkpt>
      <trkpt lat="59.8264201" lon="17.7267523">
        <ele>0</ele>
        <time>2013-05-30T20:15:35Z</time>
      </trkpt>
      <trkpt lat="59.8264225" lon="17.7266087">
        <ele>0</ele>
        <time>2013-05-30T20:15:36Z</time>
      </trkpt>
      <trkpt lat="59.8264251" lon="17.7264655">
        <ele>0</ele>
        <time>2013-05-30T20:15:37Z</time>
      </trkpt>
      <trkpt lat="59.8264286" lon="17.726322">
        <ele>0</ele>
        <time>2013-05-30T20:15:38Z</time>
      </trkpt>
      <trkpt lat="59.8264315" lon="17.7261772">
        <ele>0</ele>
        <time>2013-05-30T20:15:39Z</time>
      </trkpt>
      <trkpt lat="59.826434" lon="17.7260324">
        <ele>0</ele>
        <time>2013-05-30T20:15:40Z</time>
      </trkpt>
      <trkpt lat="59.8264343" lon="17.7258846">
        <ele>0</ele>
        <time>2013-05-30T20:15:41Z</time>
      </trkpt>
      <trkpt lat="59.8264413" lon="17.7257362">
        <ele>0.137451</ele>
        <time>2013-05-30T20:15:42Z</time>
      </trkpt>
      <trkpt lat="59.8264483" lon="17.7255809">
        <ele>0.618042</ele>
        <time>2013-05-30T20:15:43Z</time>
      </trkpt>
      <trkpt lat="59.8264557" lon="17.7254239">
        <ele>1.09863</ele>
        <time>2013-05-30T20:15:44Z</time>
      </trkpt>
      <trkpt lat="59.8264656" lon="17.7252691">
        <ele>1.57935</ele>
        <time>2013-05-30T20:15:45Z</time>
      </trkpt>
      <trkpt lat="59.8264752" lon="17.7251086">
        <ele>2.06006</ele>
        <time>2013-05-30T20:15:46Z</time>
      </trkpt>
      <trkpt lat="59.8264884" lon="17.7249485">
        <ele>2.54065</ele>
        <time>2013-05-30T20:15:47Z</time>
      </trkpt>
      <trkpt lat="59.8265034" lon="17.7247801">
        <ele>3.02124</ele>
        <time>2013-05-30T20:15:48Z</time>
      </trkpt>
      <trkpt lat="59.8265209" lon="17.7246107">
        <ele>3.02124</ele>
        <time>2013-05-30T20:15:49Z</time>
      </trkpt>
      <trkpt lat="59.8265406" lon="17.7244413">
        <ele>3.50195</ele>
        <time>2013-05-30T20:15:50Z</time>
      </trkpt>
      <trkpt lat="59.8265633" lon="17.7242751">
        <ele>3.98267</ele>
        <time>2013-05-30T20:15:51Z</time>
      </trkpt>
      <trkpt lat="59.826586" lon="17.7241092">
        <ele>4.46326</ele>
        <time>2013-05-30T20:15:52Z</time>
      </trkpt>
      <trkpt lat="59.8266086" lon="17.7239425">
        <ele>5.42456</ele>
        <time>2013-05-30T20:15:53Z</time>
      </trkpt>
      <trkpt lat="59.8266376" lon="17.7237839">
        <ele>5.90527</ele>
        <time>2013-05-30T20:15:54Z</time>
      </trkpt>
      <trkpt lat="59.8266674" lon="17.7236245">
        <ele>6.86646</ele>
        <time>2013-05-30T20:15:55Z</time>
      </trkpt>
      <trkpt lat="59.8266965" lon="17.7234652">
        <ele>7.34717</ele>
        <time>2013-05-30T20:15:56Z</time>
      </trkpt>
      <trkpt lat="59.8267245" lon="17.7233042">
        <ele>8.30859</ele>
        <time>2013-05-30T20:15:57Z</time>
      </trkpt>
      <trkpt lat="59.826752" lon="17.7231448">
        <ele>8.78918</ele>
        <time>2013-05-30T20:15:58Z</time>
      </trkpt>
      <trkpt lat="59.8267796" lon="17.7229882">
        <ele>8.78918</ele>
        <time>2013-05-30T20:15:59Z</time>
      </trkpt>
      <trkpt lat="59.8268079" lon="17.7228313">
        <ele>9.2699</ele>
        <time>2013-05-30T20:16:00Z</time>
      </trkpt>
      <trkpt lat="59.8268349" lon="17.7226726">
        <ele>9.2699</ele>
        <time>2013-05-30T20:16:01Z</time>
      </trkpt>
      <trkpt lat="59.8268616" lon="17.7225152">
        <ele>9.75061</ele>
        <time>2013-05-30T20:16:02Z</time>
      </trkpt>
      <trkpt lat="59.8268887" lon="17.7223619">
        <ele>10.2312</ele>
        <time>2013-05-30T20:16:03Z</time>
      </trkpt>
      <trkpt lat="59.8269161" lon="17.722206">
        <ele>10.2312</ele>
        <time>2013-05-30T20:16:04Z</time>
      </trkpt>
      <trkpt lat="59.8269442" lon="17.7220497">
        <ele>11.1925</ele>
        <time>2013-05-30T20:16:05Z</time>
      </trkpt>
      <trkpt lat="59.8269723" lon="17.7218938">
        <ele>11.6732</ele>
        <time>2013-05-30T20:16:06Z</time>
      </trkpt>
      <trkpt lat="59.8270031" lon="17.7217379">
        <ele>11.6732</ele>
        <time>2013-05-30T20:16:07Z</time>
      </trkpt>
      <trkpt lat="59.8270344" lon="17.7215809">
        <ele>12.1538</ele>
        <time>2013-05-30T20:16:08Z</time>
      </trkpt>
      <trkpt lat="59.8270638" lon="17.7214173">
        <ele>12.1538</ele>
        <time>2013-05-30T20:16:09Z</time>
      </trkpt>
      <trkpt lat="59.8270954" lon="17.7212571">
        <ele>12.1538</ele>
        <time>2013-05-30T20:16:10Z</time>
      </trkpt>
      <trkpt lat="59.8271261" lon="17.7210965">
        <ele>11.6732</ele>
        <time>2013-05-30T20:16:11Z</time>
      </trkpt>
      <trkpt lat="59.8271548" lon="17.7209321">
        <ele>11.6732</ele>
        <time>2013-05-30T20:16:12Z</time>
      </trkpt>
      <trkpt lat="59.827184" lon="17.7207743">
        <ele>11.6732</ele>
        <time>2013-05-30T20:16:13Z</time>
      </trkpt>
      <trkpt lat="59.827211" lon="17.7206162">
        <ele>11.1925</ele>
        <time>2013-05-30T20:16:14Z</time>
      </trkpt>
      <trkpt lat="59.8272394" lon="17.7204563">
        <ele>11.1925</ele>
        <time>2013-05-30T20:16:15Z</time>
      </trkpt>
      <trkpt lat="59.8272649" lon="17.7202916">
        <ele>11.1925</ele>
        <time>2013-05-30T20:16:16Z</time>
      </trkpt>
      <trkpt lat="59.8272913" lon="17.7201306">
        <ele>11.1925</ele>
        <time>2013-05-30T20:16:17Z</time>
      </trkpt>
      <trkpt lat="59.8273156" lon="17.7199667">
        <ele>9.75061</ele>
        <time>2013-05-30T20:16:18Z</time>
      </trkpt>
      <trkpt lat="59.8273423" lon="17.719808">
        <ele>9.75061</ele>
        <time>2013-05-30T20:16:19Z</time>
      </trkpt>
      <trkpt lat="59.8273675" lon="17.7196558">
        <ele>9.2699</ele>
        <time>2013-05-30T20:16:20Z</time>
      </trkpt>
      <trkpt lat="59.8273949" lon="17.7195011">
        <ele>9.2699</ele>
        <time>2013-05-30T20:16:21Z</time>
      </trkpt>
      <trkpt lat="59.8274222" lon="17.719347">
        <ele>9.75061</ele>
        <time>2013-05-30T20:16:22Z</time>
      </trkpt>
      <trkpt lat="59.8274491" lon="17.7191954">
        <ele>9.2699</ele>
        <time>2013-05-30T20:16:23Z</time>
      </trkpt>
      <trkpt lat="59.827476" lon="17.7190431">
        <ele>9.2699</ele>
        <time>2013-05-30T20:16:24Z</time>
      </trkpt>
      <trkpt lat="59.8275026" lon="17.7188908">
        <ele>9.2699</ele>
        <time>2013-05-30T20:16:25Z</time>
      </trkpt>
      <trkpt lat="59.8275285" lon="17.7187386">
        <ele>9.2699</ele>
        <time>2013-05-30T20:16:26Z</time>
      </trkpt>
      <trkpt lat="59.8275534" lon="17.7185825">
        <ele>8.30859</ele>
        <time>2013-05-30T20:16:27Z</time>
      </trkpt>
      <trkpt lat="59.8275845" lon="17.7184416">
        <ele>9.75061</ele>
        <time>2013-05-30T20:16:28Z</time>
      </trkpt>
      <trkpt lat="59.8276119" lon="17.7182913">
        <ele>9.75061</ele>
        <time>2013-05-30T20:16:29Z</time>
      </trkpt>
      <trkpt lat="59.8276384" lon="17.7181397">
        <ele>9.2699</ele>
        <time>2013-05-30T20:16:30Z</time>
      </trkpt>
      <trkpt lat="59.8276657" lon="17.7179839">
        <ele>8.78918</ele>
        <time>2013-05-30T20:16:31Z</time>
      </trkpt>
      <trkpt lat="59.8276913" lon="17.7178235">
        <ele>8.78918</ele>
        <time>2013-05-30T20:16:32Z</time>
      </trkpt>
      <trkpt lat="59.8277195" lon="17.717665">
        <ele>7.82788</ele>
        <time>2013-05-30T20:16:33Z</time>
      </trkpt>
      <trkpt lat="59.8277462" lon="17.717507">
        <ele>7.34717</ele>
        <time>2013-05-30T20:16:34Z</time>
      </trkpt>
      <trkpt lat="59.827777" lon="17.717356">
        <ele>7.34717</ele>
        <time>2013-05-30T20:16:35Z</time>
      </trkpt>
      <trkpt lat="59.8278059" lon="17.717203">
        <ele>7.34717</ele>
        <time>2013-05-30T20:16:36Z</time>
      </trkpt>
      <trkpt lat="59.8278321" lon="17.7170479">
        <ele>6.86646</ele>
        <time>2013-05-30T20:16:37Z</time>
      </trkpt>
      <trkpt lat="59.82786" lon="17.7168914">
        <ele>7.34717</ele>
        <time>2013-05-30T20:16:38Z</time>
      </trkpt>
      <trkpt lat="59.827887" lon="17.7167334">
        <ele>7.34717</ele>
        <time>2013-05-30T20:16:39Z</time>
      </trkpt>
      <trkpt lat="59.8279147" lon="17.7165744">
        <ele>7.34717</ele>
        <time>2013-05-30T20:16:40Z</time>
      </trkpt>
      <trkpt lat="59.8279418" lon="17.7164148">
        <ele>7.82788</ele>
        <time>2013-05-30T20:16:41Z</time>
      </trkpt>
      <trkpt lat="59.8279688" lon="17.7162536">
        <ele>8.30859</ele>
        <time>2013-05-30T20:16:42Z</time>
      </trkpt>
      <trkpt lat="59.8279966" lon="17.7160898">
        <ele>8.30859</ele>
        <time>2013-05-30T20:16:43Z</time>
      </trkpt>
      <trkpt lat="59.8280254" lon="17.7159247">
        <ele>8.30859</ele>
        <time>2013-05-30T20:16:44Z</time>
      </trkpt>
      <trkpt lat="59.8280551" lon="17.7157603">
        <ele>8.30859</ele>
        <time>2013-05-30T20:16:45Z</time>
      </trkpt>
      <trkpt lat="59.8280862" lon="17.7155947">
        <ele>7.82788</ele>
        <time>2013-05-30T20:16:46Z</time>
      </trkpt>
      <trkpt lat="59.8281181" lon="17.7154273">
        <ele>7.82788</ele>
        <time>2013-05-30T20:16:47Z</time>
      </trkpt>
      <trkpt lat="59.8281494" lon="17.7152586">
        <ele>7.34717</ele>
        <time>2013-05-30T20:16:48Z</time>
      </trkpt>
      <trkpt lat="59.8281807" lon="17.7150958">
        <ele>6.86646</ele>
        <time>2013-05-30T20:16:49Z</time>
      </trkpt>
      <trkpt lat="59.8282107" lon="17.7149326">
        <ele>6.38586</ele>
        <time>2013-05-30T20:16:50Z</time>
      </trkpt>
      <trkpt lat="59.8282382" lon="17.7147674">
        <ele>5.90527</ele>
        <time>2013-05-30T20:16:51Z</time>
      </trkpt>
      <trkpt lat="59.8282661" lon="17.7146018">
        <ele>5.42456</ele>
        <time>2013-05-30T20:16:52Z</time>
      </trkpt>
      <trkpt lat="59.8282946" lon="17.7144355">
        <ele>5.42456</ele>
        <time>2013-05-30T20:16:53Z</time>
      </trkpt>
      <trkpt lat="59.8283206" lon="17.714267">
        <ele>4.94385</ele>
        <time>2013-05-30T20:16:54Z</time>
      </trkpt>
      <trkpt lat="59.8283462" lon="17.7141001">
        <ele>4.94385</ele>
        <time>2013-05-30T20:16:55Z</time>
      </trkpt>
      <trkpt lat="59.8283711" lon="17.7139343">
        <ele>4.94385</ele>
        <time>2013-05-30T20:16:56Z</time>
      </trkpt>
      <trkpt lat="59.8283971" lon="17.7137691">
        <ele>4.94385</ele>
        <time>2013-05-30T20:16:57Z</time>
      </trkpt>
      <trkpt lat="59.8284221" lon="17.7135984">
        <ele>4.46326</ele>
        <time>2013-05-30T20:16:58Z</time>
      </trkpt>
      <trkpt lat="59.8284469" lon="17.7134243">
        <ele>4.46326</ele>
        <time>2013-05-30T20:16:59Z</time>
      </trkpt>
      <trkpt lat="59.8284743" lon="17.7132514">
        <ele>4.46326</ele>
        <time>2013-05-30T20:17:00Z</time>
      </trkpt>
      <trkpt lat="59.8285008" lon="17.7130744">
        <ele>4.46326</ele>
        <time>2013-05-30T20:17:01Z</time>
      </trkpt>
      <trkpt lat="59.8285304" lon="17.7128983">
        <ele>4.46326</ele>
        <time>2013-05-30T20:17:02Z</time>
      </trkpt>
      <trkpt lat="59.8285567" lon="17.7127208">
        <ele>4.46326</ele>
        <time>2013-05-30T20:17:03Z</time>
      </trkpt>
      <trkpt lat="59.8285842" lon="17.71254">
        <ele>4.94385</ele>
        <time>2013-05-30T20:17:04Z</time>
      </trkpt>
      <trkpt lat="59.8286122" lon="17.7123562">
        <ele>5.42456</ele>
        <time>2013-05-30T20:17:05Z</time>
      </trkpt>
      <trkpt lat="59.8286452" lon="17.7121783">
        <ele>6.86646</ele>
        <time>2013-05-30T20:17:06Z</time>
      </trkpt>
      <trkpt lat="59.8286697" lon="17.7120035">
        <ele>7.34717</ele>
        <time>2013-05-30T20:17:07Z</time>
      </trkpt>
      <trkpt lat="59.8286908" lon="17.7118255">
        <ele>6.86646</ele>
        <time>2013-05-30T20:17:08Z</time>
      </trkpt>
      <trkpt lat="59.8287115" lon="17.7116485">
        <ele>6.38586</ele>
        <time>2013-05-30T20:17:09Z</time>
      </trkpt>
      <trkpt lat="59.8287334" lon="17.7114728">
        <ele>5.90527</ele>
        <time>2013-05-30T20:17:10Z</time>
      </trkpt>
      <trkpt lat="59.828756" lon="17.7112993">
        <ele>5.90527</ele>
        <time>2013-05-30T20:17:11Z</time>
      </trkpt>
      <trkpt lat="59.8287843" lon="17.7111268">
        <ele>6.38586</ele>
        <time>2013-05-30T20:17:12Z</time>
      </trkpt>
      <trkpt lat="59.8288116" lon="17.7109477">
        <ele>6.86646</ele>
        <time>2013-05-30T20:17:13Z</time>
      </trkpt>
      <trkpt lat="59.8288432" lon="17.7107674">
        <ele>6.86646</ele>
        <time>2013-05-30T20:17:14Z</time>
      </trkpt>
      <trkpt lat="59.8288742" lon="17.710584">
        <ele>7.34717</ele>
        <time>2013-05-30T20:17:15Z</time>
      </trkpt>
      <trkpt lat="59.8289039" lon="17.7104022">
        <ele>7.34717</ele>
        <time>2013-05-30T20:17:16Z</time>
      </trkpt>
      <trkpt lat="59.8289328" lon="17.7102213">
        <ele>7.34717</ele>
        <time>2013-05-30T20:17:17Z</time>
      </trkpt>
      <trkpt lat="59.8289614" lon="17.7100366">
        <ele>7.34717</ele>
        <time>2013-05-30T20:17:18Z</time>
      </trkpt>
      <trkpt lat="59.8289882" lon="17.709854">
        <ele>6.86646</ele>
        <time>2013-05-30T20:17:19Z</time>
      </trkpt>
      <trkpt lat="59.8290205" lon="17.7096655">
        <ele>7.82788</ele>
        <time>2013-05-30T20:17:20Z</time>
      </trkpt>
      <trkpt lat="59.8290561" lon="17.7094661">
        <ele>10.7118</ele>
        <time>2013-05-30T20:17:21Z</time>
      </trkpt>
      <trkpt lat="59.8290875" lon="17.7092766">
        <ele>11.6732</ele>
        <time>2013-05-30T20:17:22Z</time>
      </trkpt>
      <trkpt lat="59.8291129" lon="17.7090854">
        <ele>11.6732</ele>
        <time>2013-05-30T20:17:23Z</time>
      </trkpt>
      <trkpt lat="59.8291374" lon="17.7089048">
        <ele>10.7118</ele>
        <time>2013-05-30T20:17:24Z</time>
      </trkpt>
      <trkpt lat="59.8291674" lon="17.7087245">
        <ele>9.75061</ele>
        <time>2013-05-30T20:17:25Z</time>
      </trkpt>
      <trkpt lat="59.8292" lon="17.7085374">
        <ele>9.75061</ele>
        <time>2013-05-30T20:17:26Z</time>
      </trkpt>
      <trkpt lat="59.8292337" lon="17.7083492">
        <ele>9.75061</ele>
        <time>2013-05-30T20:17:27Z</time>
      </trkpt>
      <trkpt lat="59.8292731" lon="17.7081741">
        <ele>9.75061</ele>
        <time>2013-05-30T20:17:28Z</time>
      </trkpt>
      <trkpt lat="59.8293192" lon="17.7079959">
        <ele>11.1925</ele>
        <time>2013-05-30T20:17:29Z</time>
      </trkpt>
      <trkpt lat="59.8293678" lon="17.7078286">
        <ele>11.1925</ele>
        <time>2013-05-30T20:17:30Z</time>
      </trkpt>
      <trkpt lat="59.8294118" lon="17.7076572">
        <ele>10.7118</ele>
        <time>2013-05-30T20:17:31Z</time>
      </trkpt>
      <trkpt lat="59.8294626" lon="17.7075024">
        <ele>12.1538</ele>
        <time>2013-05-30T20:17:32Z</time>
      </trkpt>
      <trkpt lat="59.8295068" lon="17.7073302">
        <ele>12.1538</ele>
        <time>2013-05-30T20:17:33Z</time>
      </trkpt>
      <trkpt lat="59.8295529" lon="17.7071594">
        <ele>12.1538</ele>
        <time>2013-05-30T20:17:34Z</time>
      </trkpt>
      <trkpt lat="59.8295983" lon="17.706989">
        <ele>12.1538</ele>
        <time>2013-05-30T20:17:35Z</time>
      </trkpt>
      <trkpt lat="59.8296431" lon="17.7068161">
        <ele>12.1538</ele>
        <time>2013-05-30T20:17:36Z</time>
      </trkpt>
      <trkpt lat="59.8296892" lon="17.7066435">
        <ele>12.6344</ele>
        <time>2013-05-30T20:17:37Z</time>
      </trkpt>
      <trkpt lat="59.829734" lon="17.7064752">
        <ele>12.1538</ele>
        <time>2013-05-30T20:17:38Z</time>
      </trkpt>
      <trkpt lat="59.829777" lon="17.7063077">
        <ele>12.1538</ele>
        <time>2013-05-30T20:17:39Z</time>
      </trkpt>
      <trkpt lat="59.8298198" lon="17.7061452">
        <ele>11.6732</ele>
        <time>2013-05-30T20:17:40Z</time>
      </trkpt>
      <trkpt lat="59.8298637" lon="17.7059866">
        <ele>11.1925</ele>
        <time>2013-05-30T20:17:41Z</time>
      </trkpt>
      <trkpt lat="59.8299063" lon="17.7058247">
        <ele>11.1925</ele>
        <time>2013-05-30T20:17:42Z</time>
      </trkpt>
      <trkpt lat="59.8299505" lon="17.7056671">
        <ele>11.1925</ele>
        <time>2013-05-30T20:17:43Z</time>
      </trkpt>
      <trkpt lat="59.8299942" lon="17.7055086">
        <ele>11.1925</ele>
        <time>2013-05-30T20:17:44Z</time>
      </trkpt>
      <trkpt lat="59.8300382" lon="17.7053496">
        <ele>11.6732</ele>
        <time>2013-05-30T20:17:45Z</time>
      </trkpt>
      <trkpt lat="59.8300828" lon="17.7051926">
        <ele>11.6732</ele>
        <time>2013-05-30T20:17:46Z</time>
      </trkpt>
      <trkpt lat="59.8301268" lon="17.7050313">
        <ele>11.6732</ele>
        <time>2013-05-30T20:17:47Z</time>
      </trkpt>
      <trkpt lat="59.8301701" lon="17.7048662">
        <ele>11.6732</ele>
        <time>2013-05-30T20:17:48Z</time>
      </trkpt>
      <trkpt lat="59.8302149" lon="17.7047006">
        <ele>11.6732</ele>
        <time>2013-05-30T20:17:49Z</time>
      </trkpt>
      <trkpt lat="59.8302593" lon="17.7045325">
        <ele>11.6732</ele>
        <time>2013-05-30T20:17:50Z</time>
      </trkpt>
      <trkpt lat="59.8303045" lon="17.7043632">
        <ele>11.1925</ele>
        <time>2013-05-30T20:17:51Z</time>
      </trkpt>
      <trkpt lat="59.8303504" lon="17.7041919">
        <ele>11.1925</ele>
        <time>2013-05-30T20:17:52Z</time>
      </trkpt>
      <trkpt lat="59.8303973" lon="17.7040137">
        <ele>11.1925</ele>
        <time>2013-05-30T20:17:53Z</time>
      </trkpt>
      <trkpt lat="59.8304471" lon="17.7038389">
        <ele>11.1925</ele>
        <time>2013-05-30T20:17:54Z</time>
      </trkpt>
      <trkpt lat="59.8304967" lon="17.7036598">
        <ele>11.1925</ele>
        <time>2013-05-30T20:17:55Z</time>
      </trkpt>
      <trkpt lat="59.8305467" lon="17.7034769">
        <ele>11.6732</ele>
        <time>2013-05-30T20:17:56Z</time>
      </trkpt>
      <trkpt lat="59.8305977" lon="17.703292">
        <ele>11.6732</ele>
        <time>2013-05-30T20:17:57Z</time>
      </trkpt>
      <trkpt lat="59.8306501" lon="17.7031062">
        <ele>11.6732</ele>
        <time>2013-05-30T20:17:58Z</time>
      </trkpt>
      <trkpt lat="59.8307022" lon="17.7029179">
        <ele>11.6732</ele>
        <time>2013-05-30T20:17:59Z</time>
      </trkpt>
      <trkpt lat="59.8307548" lon="17.7027284">
        <ele>12.1538</ele>
        <time>2013-05-30T20:18:00Z</time>
      </trkpt>
      <trkpt lat="59.8308071" lon="17.7025371">
        <ele>12.6344</ele>
        <time>2013-05-30T20:18:01Z</time>
      </trkpt>
      <trkpt lat="59.8308581" lon="17.7023425">
        <ele>13.1151</ele>
        <time>2013-05-30T20:18:02Z</time>
      </trkpt>
      <trkpt lat="59.830908" lon="17.702145">
        <ele>13.1151</ele>
        <time>2013-05-30T20:18:03Z</time>
      </trkpt>
      <trkpt lat="59.8309589" lon="17.7019467">
        <ele>13.1151</ele>
        <time>2013-05-30T20:18:04Z</time>
      </trkpt>
      <trkpt lat="59.8310112" lon="17.7017523">
        <ele>12.6344</ele>
        <time>2013-05-30T20:18:05Z</time>
      </trkpt>
      <trkpt lat="59.8310624" lon="17.7015614">
        <ele>12.1538</ele>
        <time>2013-05-30T20:18:06Z</time>
      </trkpt>
      <trkpt lat="59.8311131" lon="17.7013715">
        <ele>11.6732</ele>
        <time>2013-05-30T20:18:07Z</time>
      </trkpt>
      <trkpt lat="59.8311634" lon="17.7011795">
        <ele>11.1925</ele>
        <time>2013-05-30T20:18:08Z</time>
      </trkpt>
      <trkpt lat="59.831214" lon="17.7009869">
        <ele>11.1925</ele>
        <time>2013-05-30T20:18:09Z</time>
      </trkpt>
      <trkpt lat="59.8312662" lon="17.7007984">
        <ele>11.1925</ele>
        <time>2013-05-30T20:18:10Z</time>
      </trkpt>
      <trkpt lat="59.8313177" lon="17.7006108">
        <ele>10.7118</ele>
        <time>2013-05-30T20:18:11Z</time>
      </trkpt>
      <trkpt lat="59.8313685" lon="17.7004236">
        <ele>10.2312</ele>
        <time>2013-05-30T20:18:12Z</time>
      </trkpt>
      <trkpt lat="59.831418" lon="17.7002363">
        <ele>10.2312</ele>
        <time>2013-05-30T20:18:13Z</time>
      </trkpt>
      <trkpt lat="59.831467" lon="17.7000512">
        <ele>10.2312</ele>
        <time>2013-05-30T20:18:14Z</time>
      </trkpt>
      <trkpt lat="59.8315178" lon="17.6998703">
        <ele>10.2312</ele>
        <time>2013-05-30T20:18:15Z</time>
      </trkpt>
      <trkpt lat="59.831569" lon="17.6996918">
        <ele>10.2312</ele>
        <time>2013-05-30T20:18:16Z</time>
      </trkpt>
      <trkpt lat="59.8316188" lon="17.6995126">
        <ele>10.2312</ele>
        <time>2013-05-30T20:18:17Z</time>
      </trkpt>
      <trkpt lat="59.8316675" lon="17.6993311">
        <ele>10.2312</ele>
        <time>2013-05-30T20:18:18Z</time>
      </trkpt>
      <trkpt lat="59.8317152" lon="17.699149">
        <ele>9.75061</ele>
        <time>2013-05-30T20:18:19Z</time>
      </trkpt>
      <trkpt lat="59.8317642" lon="17.6989697">
        <ele>9.75061</ele>
        <time>2013-05-30T20:18:20Z</time>
      </trkpt>
      <trkpt lat="59.8318131" lon="17.6987951">
        <ele>8.78918</ele>
        <time>2013-05-30T20:18:21Z</time>
      </trkpt>
      <trkpt lat="59.8318618" lon="17.6986221">
        <ele>8.30859</ele>
        <time>2013-05-30T20:18:22Z</time>
      </trkpt>
      <trkpt lat="59.8319103" lon="17.698446">
        <ele>8.30859</ele>
        <time>2013-05-30T20:18:23Z</time>
      </trkpt>
      <trkpt lat="59.8319589" lon="17.6982678">
        <ele>8.30859</ele>
        <time>2013-05-30T20:18:24Z</time>
      </trkpt>
      <trkpt lat="59.8320082" lon="17.6980897">
        <ele>7.82788</ele>
        <time>2013-05-30T20:18:25Z</time>
      </trkpt>
      <trkpt lat="59.8320569" lon="17.6979099">
        <ele>7.82788</ele>
        <time>2013-05-30T20:18:26Z</time>
      </trkpt>
      <trkpt lat="59.8321073" lon="17.6977311">
        <ele>7.34717</ele>
        <time>2013-05-30T20:18:27Z</time>
      </trkpt>
      <trkpt lat="59.8321598" lon="17.6975551">
        <ele>6.86646</ele>
        <time>2013-05-30T20:18:28Z</time>
      </trkpt>
      <trkpt lat="59.8322126" lon="17.6973815">
        <ele>5.90527</ele>
        <time>2013-05-30T20:18:29Z</time>
      </trkpt>
      <trkpt lat="59.8322671" lon="17.697212">
        <ele>5.90527</ele>
        <time>2013-05-30T20:18:30Z</time>
      </trkpt>
      <trkpt lat="59.8323225" lon="17.6970451">
        <ele>5.42456</ele>
        <time>2013-05-30T20:18:31Z</time>
      </trkpt>
      <trkpt lat="59.8323802" lon="17.6968809">
        <ele>4.94385</ele>
        <time>2013-05-30T20:18:32Z</time>
      </trkpt>
      <trkpt lat="59.832439" lon="17.6967175">
        <ele>4.94385</ele>
        <time>2013-05-30T20:18:33Z</time>
      </trkpt>
      <trkpt lat="59.8324983" lon="17.6965558">
        <ele>4.94385</ele>
        <time>2013-05-30T20:18:34Z</time>
      </trkpt>
      <trkpt lat="59.8325589" lon="17.6963962">
        <ele>4.94385</ele>
        <time>2013-05-30T20:18:35Z</time>
      </trkpt>
      <trkpt lat="59.8326216" lon="17.6962378">
        <ele>5.42456</ele>
        <time>2013-05-30T20:18:36Z</time>
      </trkpt>
      <trkpt lat="59.8326848" lon="17.6960834">
        <ele>4.94385</ele>
        <time>2013-05-30T20:18:37Z</time>
      </trkpt>
      <trkpt lat="59.8327516" lon="17.6959279">
        <ele>4.94385</ele>
        <time>2013-05-30T20:18:38Z</time>
      </trkpt>
      <trkpt lat="59.832822" lon="17.6957774">
        <ele>4.46326</ele>
        <time>2013-05-30T20:18:39Z</time>
      </trkpt>
      <trkpt lat="59.8328947" lon="17.6956291">
        <ele>3.98267</ele>
        <time>2013-05-30T20:18:40Z</time>
      </trkpt>
      <trkpt lat="59.8329681" lon="17.6954814">
        <ele>3.50195</ele>
        <time>2013-05-30T20:18:41Z</time>
      </trkpt>
      <trkpt lat="59.8330438" lon="17.6953368">
        <ele>3.50195</ele>
        <time>2013-05-30T20:18:42Z</time>
      </trkpt>
      <trkpt lat="59.8331199" lon="17.6951956">
        <ele>3.50195</ele>
        <time>2013-05-30T20:18:43Z</time>
      </trkpt>
      <trkpt lat="59.8331945" lon="17.6950519">
        <ele>3.02124</ele>
        <time>2013-05-30T20:18:44Z</time>
      </trkpt>
      <trkpt lat="59.8332685" lon="17.6949079">
        <ele>2.06006</ele>
        <time>2013-05-30T20:18:45Z</time>
      </trkpt>
      <trkpt lat="59.8333389" lon="17.6947547">
        <ele>0.618042</ele>
        <time>2013-05-30T20:18:46Z</time>
      </trkpt>
      <trkpt lat="59.8334126" lon="17.694611">
        <ele>0.618042</ele>
        <time>2013-05-30T20:18:47Z</time>
      </trkpt>
      <trkpt lat="59.8334856" lon="17.6944703">
        <ele>0</ele>
        <time>2013-05-30T20:18:48Z</time>
      </trkpt>
      <trkpt lat="59.8335587" lon="17.6943292">
        <ele>0</ele>
        <time>2013-05-30T20:18:49Z</time>
      </trkpt>
      <trkpt lat="59.8336327" lon="17.6941875">
        <ele>0</ele>
        <time>2013-05-30T20:18:50Z</time>
      </trkpt>
      <trkpt lat="59.8337067" lon="17.6940458">
        <ele>0</ele>
        <time>2013-05-30T20:18:51Z</time>
      </trkpt>
      <trkpt lat="59.8337805" lon="17.6939037">
        <ele>0</ele>
        <time>2013-05-30T20:18:52Z</time>
      </trkpt>
      <trkpt lat="59.8338545" lon="17.6937618">
        <ele>0</ele>
        <time>2013-05-30T20:18:53Z</time>
      </trkpt>
      <trkpt lat="59.833929" lon="17.6936204">
        <ele>0</ele>
        <time>2013-05-30T20:18:54Z</time>
      </trkpt>
      <trkpt lat="59.8340031" lon="17.6934774">
        <ele>0</ele>
        <time>2013-05-30T20:18:55Z</time>
      </trkpt>
      <trkpt lat="59.8340737" lon="17.6933261">
        <ele>0</ele>
        <time>2013-05-30T20:18:56Z</time>
      </trkpt>
      <trkpt lat="59.8341476" lon="17.6931885">
        <ele>0</ele>
        <time>2013-05-30T20:18:57Z</time>
      </trkpt>
      <trkpt lat="59.8342253" lon="17.6930609">
        <ele>0</ele>
        <time>2013-05-30T20:18:58Z</time>
      </trkpt>
      <trkpt lat="59.8343059" lon="17.6929426">
        <ele>0</ele>
        <time>2013-05-30T20:18:59Z</time>
      </trkpt>
      <trkpt lat="59.8343907" lon="17.6928337">
        <ele>0</ele>
        <time>2013-05-30T20:19:00Z</time>
      </trkpt>
      <trkpt lat="59.8344807" lon="17.6927342">
        <ele>0</ele>
        <time>2013-05-30T20:19:01Z</time>
      </trkpt>
      <trkpt lat="59.8345745" lon="17.6926436">
        <ele>0</ele>
        <time>2013-05-30T20:19:02Z</time>
      </trkpt>
      <trkpt lat="59.8346698" lon="17.6925651">
        <ele>0</ele>
        <time>2013-05-30T20:19:03Z</time>
      </trkpt>
      <trkpt lat="59.8347675" lon="17.6925019">
        <ele>0</ele>
        <time>2013-05-30T20:19:04Z</time>
      </trkpt>
      <trkpt lat="59.8348664" lon="17.6924531">
        <ele>0</ele>
        <time>2013-05-30T20:19:05Z</time>
      </trkpt>
      <trkpt lat="59.834964" lon="17.6924134">
        <ele>0</ele>
        <time>2013-05-30T20:19:06Z</time>
      </trkpt>
      <trkpt lat="59.8350631" lon="17.6923972">
        <ele>0</ele>
        <time>2013-05-30T20:19:07Z</time>
      </trkpt>
      <trkpt lat="59.8351637" lon="17.6923898">
        <ele>0</ele>
        <time>2013-05-30T20:19:08Z</time>
      </trkpt>
      <trkpt lat="59.8352606" lon="17.6923857">
        <ele>0</ele>
        <time>2013-05-30T20:19:09Z</time>
      </trkpt>
      <trkpt lat="59.8353564" lon="17.6923786">
        <ele>0.137451</ele>
        <time>2013-05-30T20:19:10Z</time>
      </trkpt>
      <trkpt lat="59.8354495" lon="17.6923704">
        <ele>0.137451</ele>
        <time>2013-05-30T20:19:11Z</time>
      </trkpt>
      <trkpt lat="59.8355398" lon="17.6923628">
        <ele>0.618042</ele>
        <time>2013-05-30T20:19:12Z</time>
      </trkpt>
      <trkpt lat="59.8356269" lon="17.6923583">
        <ele>0.618042</ele>
        <time>2013-05-30T20:19:13Z</time>
      </trkpt>
      <trkpt lat="59.8357113" lon="17.6923532">
        <ele>1.09863</ele>
        <time>2013-05-30T20:19:14Z</time>
      </trkpt>
      <trkpt lat="59.8357923" lon="17.6923444">
        <ele>1.09863</ele>
        <time>2013-05-30T20:19:15Z</time>
      </trkpt>
      <trkpt lat="59.835874" lon="17.6923369">
        <ele>1.57935</ele>
        <time>2013-05-30T20:19:16Z</time>
      </trkpt>
      <trkpt lat="59.8359513" lon="17.6923325">
        <ele>2.06006</ele>
        <time>2013-05-30T20:19:17Z</time>
      </trkpt>
      <trkpt lat="59.8360242" lon="17.6923312">
        <ele>2.54065</ele>
        <time>2013-05-30T20:19:18Z</time>
      </trkpt>
      <trkpt lat="59.8360942" lon="17.6923277">
        <ele>2.54065</ele>
        <time>2013-05-30T20:19:19Z</time>
      </trkpt>
      <trkpt lat="59.8361622" lon="17.6923152">
        <ele>2.54065</ele>
        <time>2013-05-30T20:19:20Z</time>
      </trkpt>
      <trkpt lat="59.8362264" lon="17.6922838">
        <ele>3.02124</ele>
        <time>2013-05-30T20:19:21Z</time>
      </trkpt>
      <trkpt lat="59.8362833" lon="17.6922309">
        <ele>3.02124</ele>
        <time>2013-05-30T20:19:22Z</time>
      </trkpt>
      <trkpt lat="59.8363284" lon="17.692147">
        <ele>3.02124</ele>
        <time>2013-05-30T20:19:23Z</time>
      </trkpt>
      <trkpt lat="59.836356" lon="17.6920479">
        <ele>2.06006</ele>
        <time>2013-05-30T20:19:24Z</time>
      </trkpt>
      <trkpt lat="59.8363782" lon="17.6919393">
        <ele>1.57935</ele>
        <time>2013-05-30T20:19:25Z</time>
      </trkpt>
      <trkpt lat="59.8364002" lon="17.691836">
        <ele>0.618042</ele>
        <time>2013-05-30T20:19:26Z</time>
      </trkpt>
      <trkpt lat="59.8364289" lon="17.6917534">
        <ele>0</ele>
        <time>2013-05-30T20:19:27Z</time>
      </trkpt>
      <trkpt lat="59.8364704" lon="17.6916926">
        <ele>0</ele>
        <time>2013-05-30T20:19:28Z</time>
      </trkpt>
      <trkpt lat="59.8365191" lon="17.6916719">
        <ele>0</ele>
        <time>2013-05-30T20:19:29Z</time>
      </trkpt>
      <trkpt lat="59.8365683" lon="17.6916754">
        <ele>0.137451</ele>
        <time>2013-05-30T20:19:30Z</time>
      </trkpt>
      <trkpt lat="59.8366165" lon="17.691687">
        <ele>0.137451</ele>
        <time>2013-05-30T20:19:31Z</time>
      </trkpt>
      <trkpt lat="59.836664" lon="17.6917015">
        <ele>0.618042</ele>
        <time>2013-05-30T20:19:32Z</time>
      </trkpt>
      <trkpt lat="59.8367102" lon="17.6917129">
        <ele>0.618042</ele>
        <time>2013-05-30T20:19:33Z</time>
      </trkpt>
      <trkpt lat="59.8367578" lon="17.6917083">
        <ele>0.618042</ele>
        <time>2013-05-30T20:19:34Z</time>
      </trkpt>
      <trkpt lat="59.8368066" lon="17.6916916">
        <ele>0.618042</ele>
        <time>2013-05-30T20:19:35Z</time>
      </trkpt>
      <trkpt lat="59.8368574" lon="17.6916711">
        <ele>0.618042</ele>
        <time>2013-05-30T20:19:36Z</time>
      </trkpt>
      <trkpt lat="59.8369103" lon="17.6916497">
        <ele>0.137451</ele>
        <time>2013-05-30T20:19:37Z</time>
      </trkpt>
      <trkpt lat="59.8369646" lon="17.6916257">
        <ele>0.137451</ele>
        <time>2013-05-30T20:19:38Z</time>
      </trkpt>
      <trkpt lat="59.8370195" lon="17.6915995">
        <ele>0.137451</ele>
        <time>2013-05-30T20:19:39Z</time>
      </trkpt>
      <trkpt lat="59.8370739" lon="17.6915695">
        <ele>0.618042</ele>
        <time>2013-05-30T20:19:40Z</time>
      </trkpt>
      <trkpt lat="59.8371293" lon="17.6915425">
        <ele>1.57935</ele>
        <time>2013-05-30T20:19:41Z</time>
      </trkpt>
      <trkpt lat="59.8371869" lon="17.6915041">
        <ele>2.06006</ele>
        <time>2013-05-30T20:19:42Z</time>
      </trkpt>
      <trkpt lat="59.8372461" lon="17.6914632">
        <ele>2.06006</ele>
        <time>2013-05-30T20:19:43Z</time>
      </trkpt>
      <trkpt lat="59.837308" lon="17.691418">
        <ele>2.54065</ele>
        <time>2013-05-30T20:19:44Z</time>
      </trkpt>
      <trkpt lat="59.8373706" lon="17.6913719">
        <ele>2.54065</ele>
        <time>2013-05-30T20:19:45Z</time>
      </trkpt>
      <trkpt lat="59.8374318" lon="17.6913268">
        <ele>2.54065</ele>
        <time>2013-05-30T20:19:46Z</time>
      </trkpt>
      <trkpt lat="59.8374914" lon="17.6912789">
        <ele>2.54065</ele>
        <time>2013-05-30T20:19:47Z</time>
      </trkpt>
      <trkpt lat="59.8375469" lon="17.6912255">
        <ele>2.54065</ele>
        <time>2013-05-30T20:19:48Z</time>
      </trkpt>
      <trkpt lat="59.8376025" lon="17.6911712">
        <ele>2.54065</ele>
        <time>2013-05-30T20:19:49Z</time>
      </trkpt>
      <trkpt lat="59.837656" lon="17.6911113">
        <ele>3.02124</ele>
        <time>2013-05-30T20:19:50Z</time>
      </trkpt>
      <trkpt lat="59.8377098" lon="17.6910535">
        <ele>3.02124</ele>
        <time>2013-05-30T20:19:51Z</time>
      </trkpt>
      <trkpt lat="59.8377644" lon="17.6909974">
        <ele>3.02124</ele>
        <time>2013-05-30T20:19:52Z</time>
      </trkpt>
      <trkpt lat="59.8378203" lon="17.6909385">
        <ele>3.02124</ele>
        <time>2013-05-30T20:19:53Z</time>
      </trkpt>
      <trkpt lat="59.8378767" lon="17.6908768">
        <ele>3.02124</ele>
        <time>2013-05-30T20:19:54Z</time>
      </trkpt>
      <trkpt lat="59.8379332" lon="17.6908146">
        <ele>2.54065</ele>
        <time>2013-05-30T20:19:55Z</time>
      </trkpt>
      <trkpt lat="59.8379897" lon="17.69075">
        <ele>2.54065</ele>
        <time>2013-05-30T20:19:56Z</time>
      </trkpt>
      <trkpt lat="59.8380472" lon="17.6906842">
        <ele>2.54065</ele>
        <time>2013-05-30T20:19:57Z</time>
      </trkpt>
      <trkpt lat="59.8381017" lon="17.6906168">
        <ele>2.06006</ele>
        <time>2013-05-30T20:19:58Z</time>
      </trkpt>
      <trkpt lat="59.8381579" lon="17.6905527">
        <ele>1.57935</ele>
        <time>2013-05-30T20:19:59Z</time>
      </trkpt>
      <trkpt lat="59.838216" lon="17.690491">
        <ele>1.57935</ele>
        <time>2013-05-30T20:20:00Z</time>
      </trkpt>
      <trkpt lat="59.8382756" lon="17.6904272">
        <ele>1.57935</ele>
        <time>2013-05-30T20:20:01Z</time>
      </trkpt>
      <trkpt lat="59.8383368" lon="17.6903621">
        <ele>1.57935</ele>
        <time>2013-05-30T20:20:02Z</time>
      </trkpt>
      <trkpt lat="59.8383982" lon="17.6902983">
        <ele>2.06006</ele>
        <time>2013-05-30T20:20:03Z</time>
      </trkpt>
      <trkpt lat="59.8384596" lon="17.6902356">
        <ele>2.06006</ele>
        <time>2013-05-30T20:20:04Z</time>
      </trkpt>
      <trkpt lat="59.8385226" lon="17.6901754">
        <ele>2.06006</ele>
        <time>2013-05-30T20:20:05Z</time>
      </trkpt>
      <trkpt lat="59.8385859" lon="17.6901165">
        <ele>2.06006</ele>
        <time>2013-05-30T20:20:06Z</time>
      </trkpt>
      <trkpt lat="59.8386495" lon="17.6900594">
        <ele>2.06006</ele>
        <time>2013-05-30T20:20:07Z</time>
      </trkpt>
      <trkpt lat="59.8387129" lon="17.6900071">
        <ele>2.06006</ele>
        <time>2013-05-30T20:20:08Z</time>
      </trkpt>
      <trkpt lat="59.838778" lon="17.6899599">
        <ele>2.06006</ele>
        <time>2013-05-30T20:20:09Z</time>
      </trkpt>
      <trkpt lat="59.8388444" lon="17.6899183">
        <ele>2.06006</ele>
        <time>2013-05-30T20:20:10Z</time>
      </trkpt>
      <trkpt lat="59.8389116" lon="17.6898787">
        <ele>1.57935</ele>
        <time>2013-05-30T20:20:11Z</time>
      </trkpt>
      <trkpt lat="59.8389777" lon="17.6898404">
        <ele>0.618042</ele>
        <time>2013-05-30T20:20:12Z</time>
      </trkpt>
      <trkpt lat="59.839047" lon="17.6898045">
        <ele>0.618042</ele>
        <time>2013-05-30T20:20:13Z</time>
      </trkpt>
      <trkpt lat="59.8391173" lon="17.6897729">
        <ele>1.09863</ele>
        <time>2013-05-30T20:20:14Z</time>
      </trkpt>
      <trkpt lat="59.8391873" lon="17.6897441">
        <ele>1.09863</ele>
        <time>2013-05-30T20:20:15Z</time>
      </trkpt>
      <trkpt lat="59.8392555" lon="17.68972">
        <ele>1.09863</ele>
        <time>2013-05-30T20:20:16Z</time>
      </trkpt>
      <trkpt lat="59.8393239" lon="17.6897051">
        <ele>2.06006</ele>
        <time>2013-05-30T20:20:17Z</time>
      </trkpt>
      <trkpt lat="59.83939" lon="17.6896885">
        <ele>2.54065</ele>
        <time>2013-05-30T20:20:18Z</time>
      </trkpt>
      <trkpt lat="59.8394537" lon="17.6896723">
        <ele>2.54065</ele>
        <time>2013-05-30T20:20:19Z</time>
      </trkpt>
      <trkpt lat="59.8395161" lon="17.6896585">
        <ele>2.54065</ele>
        <time>2013-05-30T20:20:20Z</time>
      </trkpt>
      <trkpt lat="59.8395768" lon="17.6896471">
        <ele>2.54065</ele>
        <time>2013-05-30T20:20:21Z</time>
      </trkpt>
      <trkpt lat="59.8396363" lon="17.6896392">
        <ele>2.54065</ele>
        <time>2013-05-30T20:20:22Z</time>
      </trkpt>
      <trkpt lat="59.8396955" lon="17.6896345">
        <ele>3.02124</ele>
        <time>2013-05-30T20:20:23Z</time>
      </trkpt>
      <trkpt lat="59.8397535" lon="17.689633">
        <ele>2.54065</ele>
        <time>2013-05-30T20:20:24Z</time>
      </trkpt>
      <trkpt lat="59.8398115" lon="17.6896361">
        <ele>2.54065</ele>
        <time>2013-05-30T20:20:25Z</time>
      </trkpt>
      <trkpt lat="59.839871" lon="17.689642">
        <ele>2.54065</ele>
        <time>2013-05-30T20:20:26Z</time>
      </trkpt>
      <trkpt lat="59.8399254" lon="17.6896497">
        <ele>0.137451</ele>
        <time>2013-05-30T20:20:27Z</time>
      </trkpt>
      <trkpt lat="59.8399851" lon="17.6896564">
        <ele>0</ele>
        <time>2013-05-30T20:20:28Z</time>
      </trkpt>
      <trkpt lat="59.8400499" lon="17.6896676">
        <ele>0</ele>
        <time>2013-05-30T20:20:29Z</time>
      </trkpt>
      <trkpt lat="59.8401197" lon="17.689688">
        <ele>0</ele>
        <time>2013-05-30T20:20:30Z</time>
      </trkpt>
      <trkpt lat="59.840197" lon="17.6897072">
        <ele>0</ele>
        <time>2013-05-30T20:20:31Z</time>
      </trkpt>
      <trkpt lat="59.8402829" lon="17.6897228">
        <ele>0</ele>
        <time>2013-05-30T20:20:32Z</time>
      </trkpt>
      <trkpt lat="59.8403705" lon="17.6897453">
        <ele>0</ele>
        <time>2013-05-30T20:20:33Z</time>
      </trkpt>
      <trkpt lat="59.8404692" lon="17.6897647">
        <ele>0.618042</ele>
        <time>2013-05-30T20:20:34Z</time>
      </trkpt>
      <trkpt lat="59.8405647" lon="17.68978">
        <ele>0.618042</ele>
        <time>2013-05-30T20:20:35Z</time>
      </trkpt>
      <trkpt lat="59.8406616" lon="17.6897942">
        <ele>1.57935</ele>
        <time>2013-05-30T20:20:36Z</time>
      </trkpt>
      <trkpt lat="59.840763" lon="17.6898117">
        <ele>2.06006</ele>
        <time>2013-05-30T20:20:37Z</time>
      </trkpt>
      <trkpt lat="59.8408627" lon="17.6898251">
        <ele>2.06006</ele>
        <time>2013-05-30T20:20:38Z</time>
      </trkpt>
      <trkpt lat="59.840964" lon="17.6898403">
        <ele>2.54065</ele>
        <time>2013-05-30T20:20:39Z</time>
      </trkpt>
      <trkpt lat="59.8410668" lon="17.6898596">
        <ele>2.54065</ele>
        <time>2013-05-30T20:20:40Z</time>
      </trkpt>
      <trkpt lat="59.8411682" lon="17.6898787">
        <ele>2.06006</ele>
        <time>2013-05-30T20:20:41Z</time>
      </trkpt>
      <trkpt lat="59.8412696" lon="17.6899004">
        <ele>1.09863</ele>
        <time>2013-05-30T20:20:42Z</time>
      </trkpt>
      <trkpt lat="59.8413744" lon="17.6899214">
        <ele>1.09863</ele>
        <time>2013-05-30T20:20:43Z</time>
      </trkpt>
      <trkpt lat="59.8414841" lon="17.6899422">
        <ele>2.06006</ele>
        <time>2013-05-30T20:20:44Z</time>
      </trkpt>
      <trkpt lat="59.8415899" lon="17.6899647">
        <ele>2.54065</ele>
        <time>2013-05-30T20:20:45Z</time>
      </trkpt>
      <trkpt lat="59.8416966" lon="17.6899901">
        <ele>2.54065</ele>
        <time>2013-05-30T20:20:46Z</time>
      </trkpt>
      <trkpt lat="59.8418016" lon="17.6900123">
        <ele>2.54065</ele>
        <time>2013-05-30T20:20:47Z</time>
      </trkpt>
      <trkpt lat="59.8419048" lon="17.690036">
        <ele>2.54065</ele>
        <time>2013-05-30T20:20:48Z</time>
      </trkpt>
      <trkpt lat="59.8420074" lon="17.6900629">
        <ele>3.02124</ele>
        <time>2013-05-30T20:20:49Z</time>
      </trkpt>
      <trkpt lat="59.8421089" lon="17.6900888">
        <ele>3.02124</ele>
        <time>2013-05-30T20:20:50Z</time>
      </trkpt>
      <trkpt lat="59.8422079" lon="17.6901118">
        <ele>3.02124</ele>
        <time>2013-05-30T20:20:51Z</time>
      </trkpt>
      <trkpt lat="59.8423032" lon="17.6901357">
        <ele>2.54065</ele>
        <time>2013-05-30T20:20:52Z</time>
      </trkpt>
      <trkpt lat="59.842396" lon="17.6901634">
        <ele>2.54065</ele>
        <time>2013-05-30T20:20:53Z</time>
      </trkpt>
      <trkpt lat="59.8424845" lon="17.6902017">
        <ele>2.54065</ele>
        <time>2013-05-30T20:20:54Z</time>
      </trkpt>
      <trkpt lat="59.8425709" lon="17.6902408">
        <ele>2.54065</ele>
        <time>2013-05-30T20:20:55Z</time>
      </trkpt>
      <trkpt lat="59.8426544" lon="17.6902758">
        <ele>1.57935</ele>
        <time>2013-05-30T20:20:56Z</time>
      </trkpt>
      <trkpt lat="59.8427357" lon="17.6903106">
        <ele>1.57935</ele>
        <time>2013-05-30T20:20:57Z</time>
      </trkpt>
      <trkpt lat="59.842814" lon="17.6903407">
        <ele>1.57935</ele>
        <time>2013-05-30T20:20:58Z</time>
      </trkpt>
      <trkpt lat="59.8428919" lon="17.6903614">
        <ele>1.57935</ele>
        <time>2013-05-30T20:20:59Z</time>
      </trkpt>
      <trkpt lat="59.8429674" lon="17.6903806">
        <ele>1.57935</ele>
        <time>2013-05-30T20:21:00Z</time>
      </trkpt>
      <trkpt lat="59.8430419" lon="17.6903945">
        <ele>2.06006</ele>
        <time>2013-05-30T20:21:01Z</time>
      </trkpt>
      <trkpt lat="59.8431071" lon="17.6904065">
        <ele>1.57935</ele>
        <time>2013-05-30T20:21:02Z</time>
      </trkpt>
      <trkpt lat="59.8431677" lon="17.6904111">
        <ele>0.618042</ele>
        <time>2013-05-30T20:21:03Z</time>
      </trkpt>
      <trkpt lat="59.8432263" lon="17.6904241">
        <ele>0.618042</ele>
        <time>2013-05-30T20:21:04Z</time>
      </trkpt>
      <trkpt lat="59.84328" lon="17.6904552">
        <ele>1.09863</ele>
        <time>2013-05-30T20:21:05Z</time>
      </trkpt>
      <trkpt lat="59.8433277" lon="17.6904879">
        <ele>2.06006</ele>
        <time>2013-05-30T20:21:06Z</time>
      </trkpt>
      <trkpt lat="59.8433652" lon="17.6904977">
        <ele>2.54065</ele>
        <time>2013-05-30T20:21:07Z</time>
      </trkpt>
      <trkpt lat="59.8433981" lon="17.6904884">
        <ele>3.50195</ele>
        <time>2013-05-30T20:21:08Z</time>
      </trkpt>
      <trkpt lat="59.8434211" lon="17.6904643">
        <ele>3.98267</ele>
        <time>2013-05-30T20:21:09Z</time>
      </trkpt>
      <trkpt lat="59.8434239" lon="17.6904332">
        <ele>3.02124</ele>
        <time>2013-05-30T20:21:10Z</time>
      </trkpt>
      <trkpt lat="59.8434216" lon="17.6904168">
        <ele>2.06006</ele>
        <time>2013-05-30T20:21:11Z</time>
      </trkpt>
      <trkpt lat="59.8434172" lon="17.6904101">
        <ele>1.57935</ele>
        <time>2013-05-30T20:21:12Z</time>
      </trkpt>
      <trkpt lat="59.8434126" lon="17.6904068">
        <ele>1.09863</ele>
        <time>2013-05-30T20:21:13Z</time>
      </trkpt>
      <trkpt lat="59.8434091" lon="17.6904046">
        <ele>0.618042</ele>
        <time>2013-05-30T20:21:14Z</time>
      </trkpt>
      <trkpt lat="59.8434058" lon="17.6904017">
        <ele>0.137451</ele>
        <time>2013-05-30T20:21:15Z</time>
      </trkpt>
      <trkpt lat="59.843424" lon="17.6903155">
        <ele>0.618042</ele>
        <time>2013-05-30T20:21:28Z</time>
      </trkpt>
      <trkpt lat="59.8434392" lon="17.6902784">
        <ele>0.137451</ele>
        <time>2013-05-30T20:21:29Z</time>
      </trkpt>
      <trkpt lat="59.8434643" lon="17.6902428">
        <ele>0</ele>
        <time>2013-05-30T20:21:30Z</time>
      </trkpt>
      <trkpt lat="59.8434982" lon="17.69021">
        <ele>0</ele>
        <time>2013-05-30T20:21:31Z</time>
      </trkpt>
      <trkpt lat="59.8435391" lon="17.6901948">
        <ele>0</ele>
        <time>2013-05-30T20:21:32Z</time>
      </trkpt>
      <trkpt lat="59.8435809" lon="17.6902029">
        <ele>0</ele>
        <time>2013-05-30T20:21:33Z</time>
      </trkpt>
      <trkpt lat="59.8436244" lon="17.6902284">
        <ele>0</ele>
        <time>2013-05-30T20:21:34Z</time>
      </trkpt>
      <trkpt lat="59.8436718" lon="17.6902525">
        <ele>0</ele>
        <time>2013-05-30T20:21:35Z</time>
      </trkpt>
      <trkpt lat="59.8437241" lon="17.6902727">
        <ele>0</ele>
        <time>2013-05-30T20:21:36Z</time>
      </trkpt>
      <trkpt lat="59.8437778" lon="17.6902998">
        <ele>0</ele>
        <time>2013-05-30T20:21:37Z</time>
      </trkpt>
      <trkpt lat="59.8438256" lon="17.6903297">
        <ele>0</ele>
        <time>2013-05-30T20:21:38Z</time>
      </trkpt>
      <trkpt lat="59.8438687" lon="17.6903677">
        <ele>0.137451</ele>
        <time>2013-05-30T20:21:39Z</time>
      </trkpt>
      <trkpt lat="59.8439054" lon="17.6904016">
        <ele>0</ele>
        <time>2013-05-30T20:21:40Z</time>
      </trkpt>
      <trkpt lat="59.8439392" lon="17.69042">
        <ele>0</ele>
        <time>2013-05-30T20:21:41Z</time>
      </trkpt>
      <trkpt lat="59.8439765" lon="17.6904324">
        <ele>0</ele>
        <time>2013-05-30T20:21:42Z</time>
      </trkpt>
      <trkpt lat="59.8440026" lon="17.6904318">
        <ele>0</ele>
        <time>2013-05-30T20:21:43Z</time>
      </trkpt>
      <trkpt lat="59.8440245" lon="17.6904236">
        <ele>0</ele>
        <time>2013-05-30T20:21:44Z</time>
      </trkpt>
      <trkpt lat="59.8440442" lon="17.6904177">
        <ele>0</ele>
        <time>2013-05-30T20:21:45Z</time>
      </trkpt>
      <trkpt lat="59.8440608" lon="17.6904138">
        <ele>0</ele>
        <time>2013-05-30T20:21:46Z</time>
      </trkpt>
      <trkpt lat="59.8440758" lon="17.6904051">
        <ele>0</ele>
        <time>2013-05-30T20:21:47Z</time>
      </trkpt>
      <trkpt lat="59.8440888" lon="17.6904051">
        <ele>0</ele>
        <time>2013-05-30T20:21:48Z</time>
      </trkpt>
      <trkpt lat="59.8441041" lon="17.6904063">
        <ele>0</ele>
        <time>2013-05-30T20:21:49Z</time>
      </trkpt>
      <trkpt lat="59.8441192" lon="17.6904086">
        <ele>0</ele>
        <time>2013-05-30T20:21:50Z</time>
      </trkpt>
      <trkpt lat="59.8441332" lon="17.6904122">
        <ele>0</ele>
        <time>2013-05-30T20:21:51Z</time>
      </trkpt>
      <trkpt lat="59.8441488" lon="17.6904116">
        <ele>0</ele>
        <time>2013-05-30T20:21:52Z</time>
      </trkpt>
      <trkpt lat="59.844168" lon="17.6904106">
        <ele>0</ele>
        <time>2013-05-30T20:21:53Z</time>
      </trkpt>
      <trkpt lat="59.8441861" lon="17.6904153">
        <ele>0</ele>
        <time>2013-05-30T20:21:54Z</time>
      </trkpt>
      <trkpt lat="59.8442037" lon="17.6904153">
        <ele>0</ele>
        <time>2013-05-30T20:21:55Z</time>
      </trkpt>
      <trkpt lat="59.8442188" lon="17.6904153">
        <ele>0</ele>
        <time>2013-05-30T20:21:56Z</time>
      </trkpt>
      <trkpt lat="59.8442322" lon="17.6904148">
        <ele>0</ele>
        <time>2013-05-30T20:21:57Z</time>
      </trkpt>
      <trkpt lat="59.8442467" lon="17.6904174">
        <ele>0</ele>
        <time>2013-05-30T20:21:58Z</time>
      </trkpt>
      <trkpt lat="59.8442629" lon="17.6904213">
        <ele>0</ele>
        <time>2013-05-30T20:21:59Z</time>
      </trkpt>
      <trkpt lat="59.844275" lon="17.6904226">
        <ele>0</ele>
        <time>2013-05-30T20:22:00Z</time>
      </trkpt>
      <trkpt lat="59.8442845" lon="17.6904224">
        <ele>0</ele>
        <time>2013-05-30T20:22:01Z</time>
      </trkpt>
      <trkpt lat="59.8442969" lon="17.6904205">
        <ele>0</ele>
        <time>2013-05-30T20:22:02Z</time>
      </trkpt>
      <trkpt lat="59.8443106" lon="17.6904183">
        <ele>0</ele>
        <time>2013-05-30T20:22:03Z</time>
      </trkpt>
      <trkpt lat="59.8443251" lon="17.6904116">
        <ele>0</ele>
        <time>2013-05-30T20:22:04Z</time>
      </trkpt>
      <trkpt lat="59.8443418" lon="17.6904079">
        <ele>0</ele>
        <time>2013-05-30T20:22:05Z</time>
      </trkpt>
      <trkpt lat="59.844356" lon="17.6904107">
        <ele>0</ele>
        <time>2013-05-30T20:22:06Z</time>
      </trkpt>
      <trkpt lat="59.8443658" lon="17.6904215">
        <ele>0</ele>
        <time>2013-05-30T20:22:07Z</time>
      </trkpt>
      <trkpt lat="59.8443821" lon="17.6904291">
        <ele>0.137451</ele>
        <time>2013-05-30T20:22:08Z</time>
      </trkpt>
      <trkpt lat="59.8444" lon="17.6904387">
        <ele>0.618042</ele>
        <time>2013-05-30T20:22:09Z</time>
      </trkpt>
      <trkpt lat="59.8444114" lon="17.6904431">
        <ele>1.09863</ele>
        <time>2013-05-30T20:22:10Z</time>
      </trkpt>
      <trkpt lat="59.8444219" lon="17.6904463">
        <ele>2.06006</ele>
        <time>2013-05-30T20:22:11Z</time>
      </trkpt>
      <trkpt lat="59.8444392" lon="17.6904486">
        <ele>3.50195</ele>
        <time>2013-05-30T20:22:12Z</time>
      </trkpt>
      <trkpt lat="59.8444539" lon="17.6904498">
        <ele>4.94385</ele>
        <time>2013-05-30T20:22:13Z</time>
      </trkpt>
      <trkpt lat="59.8444598" lon="17.690448">
        <ele>5.42456</ele>
        <time>2013-05-30T20:22:14Z</time>
      </trkpt>
      <trkpt lat="59.8444611" lon="17.6904475">
        <ele>5.42456</ele>
        <time>2013-05-30T20:22:15Z</time>
      </trkpt>
      <trkpt lat="59.8444607" lon="17.6904462">
        <ele>5.42456</ele>
        <time>2013-05-30T20:22:16Z</time>
      </trkpt>
      <trkpt lat="59.8445105" lon="17.6904718">
        <ele>3.98267</ele>
        <time>2013-05-30T20:22:27Z</time>
      </trkpt>
      <trkpt lat="59.8445306" lon="17.690485">
        <ele>3.50195</ele>
        <time>2013-05-30T20:22:28Z</time>
      </trkpt>
      <trkpt lat="59.8445525" lon="17.690494">
        <ele>3.98267</ele>
        <time>2013-05-30T20:22:29Z</time>
      </trkpt>
      <trkpt lat="59.8445727" lon="17.6904971">
        <ele>3.50195</ele>
        <time>2013-05-30T20:22:30Z</time>
      </trkpt>
      <trkpt lat="59.8445892" lon="17.6904936">
        <ele>1.09863</ele>
        <time>2013-05-30T20:22:31Z</time>
      </trkpt>
      <trkpt lat="59.8446047" lon="17.6904972">
        <ele>0</ele>
        <time>2013-05-30T20:22:32Z</time>
      </trkpt>
      <trkpt lat="59.8446228" lon="17.6905024">
        <ele>0</ele>
        <time>2013-05-30T20:22:33Z</time>
      </trkpt>
      <trkpt lat="59.8446446" lon="17.6905066">
        <ele>0.137451</ele>
        <time>2013-05-30T20:22:34Z</time>
      </trkpt>
      <trkpt lat="59.8446732" lon="17.69051">
        <ele>3.50195</ele>
        <time>2013-05-30T20:22:35Z</time>
      </trkpt>
      <trkpt lat="59.8446949" lon="17.6905117">
        <ele>3.50195</ele>
        <time>2013-05-30T20:22:36Z</time>
      </trkpt>
      <trkpt lat="59.8447125" lon="17.6905123">
        <ele>3.02124</ele>
        <time>2013-05-30T20:22:37Z</time>
      </trkpt>
      <trkpt lat="59.8447305" lon="17.6905157">
        <ele>2.06006</ele>
        <time>2013-05-30T20:22:38Z</time>
      </trkpt>
      <trkpt lat="59.8447514" lon="17.690522">
        <ele>1.57935</ele>
        <time>2013-05-30T20:22:39Z</time>
      </trkpt>
      <trkpt lat="59.8447739" lon="17.6905266">
        <ele>1.09863</ele>
        <time>2013-05-30T20:22:40Z</time>
      </trkpt>
      <trkpt lat="59.8447975" lon="17.6905312">
        <ele>1.09863</ele>
        <time>2013-05-30T20:22:41Z</time>
      </trkpt>
      <trkpt lat="59.8448191" lon="17.6905301">
        <ele>0.618042</ele>
        <time>2013-05-30T20:22:42Z</time>
      </trkpt>
      <trkpt lat="59.8448472" lon="17.690526">
        <ele>1.09863</ele>
        <time>2013-05-30T20:22:43Z</time>
      </trkpt>
      <trkpt lat="59.8448735" lon="17.6905241">
        <ele>1.09863</ele>
        <time>2013-05-30T20:22:44Z</time>
      </trkpt>
      <trkpt lat="59.8448975" lon="17.6905281">
        <ele>1.09863</ele>
        <time>2013-05-30T20:22:45Z</time>
      </trkpt>
      <trkpt lat="59.8449243" lon="17.6905252">
        <ele>1.09863</ele>
        <time>2013-05-30T20:22:46Z</time>
      </trkpt>
      <trkpt lat="59.8449564" lon="17.6905304">
        <ele>1.57935</ele>
        <time>2013-05-30T20:22:47Z</time>
      </trkpt>
      <trkpt lat="59.8449906" lon="17.6905346">
        <ele>1.09863</ele>
        <time>2013-05-30T20:22:48Z</time>
      </trkpt>
      <trkpt lat="59.8450332" lon="17.6905381">
        <ele>1.09863</ele>
        <time>2013-05-30T20:22:49Z</time>
      </trkpt>
      <trkpt lat="59.8450594" lon="17.6905365">
        <ele>0</ele>
        <time>2013-05-30T20:22:50Z</time>
      </trkpt>
      <trkpt lat="59.8450912" lon="17.690532">
        <ele>0</ele>
        <time>2013-05-30T20:22:51Z</time>
      </trkpt>
      <trkpt lat="59.8451315" lon="17.6905345">
        <ele>0</ele>
        <time>2013-05-30T20:22:52Z</time>
      </trkpt>
      <trkpt lat="59.845166" lon="17.6905501">
        <ele>0</ele>
        <time>2013-05-30T20:22:53Z</time>
      </trkpt>
      <trkpt lat="59.8451953" lon="17.6905806">
        <ele>0</ele>
        <time>2013-05-30T20:22:54Z</time>
      </trkpt>
      <trkpt lat="59.8452222" lon="17.690622">
        <ele>0</ele>
        <time>2013-05-30T20:22:55Z</time>
      </trkpt>
      <trkpt lat="59.8452557" lon="17.6906629">
        <ele>0</ele>
        <time>2013-05-30T20:22:56Z</time>
      </trkpt>
      <trkpt lat="59.8452948" lon="17.6906961">
        <ele>0</ele>
        <time>2013-05-30T20:22:57Z</time>
      </trkpt>
      <trkpt lat="59.8453371" lon="17.6907178">
        <ele>0</ele>
        <time>2013-05-30T20:22:58Z</time>
      </trkpt>
      <trkpt lat="59.8453751" lon="17.6907303">
        <ele>0</ele>
        <time>2013-05-30T20:22:59Z</time>
      </trkpt>
      <trkpt lat="59.8454106" lon="17.6907392">
        <ele>0</ele>
        <time>2013-05-30T20:23:00Z</time>
      </trkpt>
      <trkpt lat="59.8454479" lon="17.6907453">
        <ele>0</ele>
        <time>2013-05-30T20:23:01Z</time>
      </trkpt>
      <trkpt lat="59.8454908" lon="17.6907464">
        <ele>0</ele>
        <time>2013-05-30T20:23:02Z</time>
      </trkpt>
      <trkpt lat="59.8455359" lon="17.6907358">
        <ele>0</ele>
        <time>2013-05-30T20:23:03Z</time>
      </trkpt>
      <trkpt lat="59.8455796" lon="17.6906956">
        <ele>0</ele>
        <time>2013-05-30T20:23:04Z</time>
      </trkpt>
      <trkpt lat="59.8456242" lon="17.6906431">
        <ele>0.137451</ele>
        <time>2013-05-30T20:23:05Z</time>
      </trkpt>
      <trkpt lat="59.8456728" lon="17.6906033">
        <ele>0.137451</ele>
        <time>2013-05-30T20:23:06Z</time>
      </trkpt>
      <trkpt lat="59.8457275" lon="17.6905868">
        <ele>0.618042</ele>
        <time>2013-05-30T20:23:07Z</time>
      </trkpt>
      <trkpt lat="59.8457806" lon="17.6905878">
        <ele>0.618042</ele>
        <time>2013-05-30T20:23:08Z</time>
      </trkpt>
      <trkpt lat="59.8458327" lon="17.6906004">
        <ele>0.618042</ele>
        <time>2013-05-30T20:23:09Z</time>
      </trkpt>
      <trkpt lat="59.8458862" lon="17.6906095">
        <ele>1.09863</ele>
        <time>2013-05-30T20:23:10Z</time>
      </trkpt>
      <trkpt lat="59.8459322" lon="17.6906192">
        <ele>1.09863</ele>
        <time>2013-05-30T20:23:11Z</time>
      </trkpt>
      <trkpt lat="59.8459772" lon="17.6906261">
        <ele>1.09863</ele>
        <time>2013-05-30T20:23:12Z</time>
      </trkpt>
      <trkpt lat="59.8460259" lon="17.6906299">
        <ele>2.54065</ele>
        <time>2013-05-30T20:23:13Z</time>
      </trkpt>
      <trkpt lat="59.8460721" lon="17.6906335">
        <ele>3.98267</ele>
        <time>2013-05-30T20:23:14Z</time>
      </trkpt>
      <trkpt lat="59.8461141" lon="17.6906373">
        <ele>4.46326</ele>
        <time>2013-05-30T20:23:15Z</time>
      </trkpt>
      <trkpt lat="59.8461559" lon="17.6906428">
        <ele>4.94385</ele>
        <time>2013-05-30T20:23:16Z</time>
      </trkpt>
      <trkpt lat="59.8461979" lon="17.6906487">
        <ele>5.42456</ele>
        <time>2013-05-30T20:23:17Z</time>
      </trkpt>
      <trkpt lat="59.8462365" lon="17.6906522">
        <ele>5.90527</ele>
        <time>2013-05-30T20:23:18Z</time>
      </trkpt>
      <trkpt lat="59.8462723" lon="17.6906474">
        <ele>6.38586</ele>
        <time>2013-05-30T20:23:19Z</time>
      </trkpt>
      <trkpt lat="59.8463031" lon="17.6906463">
        <ele>6.38586</ele>
        <time>2013-05-30T20:23:20Z</time>
      </trkpt>
      <trkpt lat="59.8463317" lon="17.6906501">
        <ele>6.86646</ele>
        <time>2013-05-30T20:23:21Z</time>
      </trkpt>
      <trkpt lat="59.8463616" lon="17.6906541">
        <ele>6.86646</ele>
        <time>2013-05-30T20:23:22Z</time>
      </trkpt>
      <trkpt lat="59.8463994" lon="17.6906608">
        <ele>6.86646</ele>
        <time>2013-05-30T20:23:23Z</time>
      </trkpt>
      <trkpt lat="59.8464395" lon="17.6906645">
        <ele>7.34717</ele>
        <time>2013-05-30T20:23:24Z</time>
      </trkpt>
      <trkpt lat="59.8464854" lon="17.6906731">
        <ele>7.34717</ele>
        <time>2013-05-30T20:23:25Z</time>
      </trkpt>
      <trkpt lat="59.8465322" lon="17.6906817">
        <ele>7.34717</ele>
        <time>2013-05-30T20:23:26Z</time>
      </trkpt>
      <trkpt lat="59.8465777" lon="17.6906895">
        <ele>7.34717</ele>
        <time>2013-05-30T20:23:27Z</time>
      </trkpt>
      <trkpt lat="59.8466243" lon="17.6906966">
        <ele>7.34717</ele>
        <time>2013-05-30T20:23:28Z</time>
      </trkpt>
      <trkpt lat="59.8466742" lon="17.6907023">
        <ele>7.82788</ele>
        <time>2013-05-30T20:23:29Z</time>
      </trkpt>
      <trkpt lat="59.8467263" lon="17.6907062">
        <ele>8.30859</ele>
        <time>2013-05-30T20:23:30Z</time>
      </trkpt>
      <trkpt lat="59.8467792" lon="17.6907081">
        <ele>8.30859</ele>
        <time>2013-05-30T20:23:31Z</time>
      </trkpt>
      <trkpt lat="59.8468327" lon="17.6907127">
        <ele>8.30859</ele>
        <time>2013-05-30T20:23:32Z</time>
      </trkpt>
      <trkpt lat="59.8468853" lon="17.6907184">
        <ele>8.30859</ele>
        <time>2013-05-30T20:23:33Z</time>
      </trkpt>
      <trkpt lat="59.8469368" lon="17.6907255">
        <ele>8.30859</ele>
        <time>2013-05-30T20:23:34Z</time>
      </trkpt>
      <trkpt lat="59.8469882" lon="17.6907334">
        <ele>8.30859</ele>
        <time>2013-05-30T20:23:35Z</time>
      </trkpt>
      <trkpt lat="59.847041" lon="17.6907437">
        <ele>8.78918</ele>
        <time>2013-05-30T20:23:36Z</time>
      </trkpt>
      <trkpt lat="59.8470925" lon="17.6907629">
        <ele>8.78918</ele>
        <time>2013-05-30T20:23:37Z</time>
      </trkpt>
      <trkpt lat="59.8471436" lon="17.6907962">
        <ele>9.75061</ele>
        <time>2013-05-30T20:23:38Z</time>
      </trkpt>
      <trkpt lat="59.8471901" lon="17.6908443">
        <ele>10.2312</ele>
        <time>2013-05-30T20:23:39Z</time>
      </trkpt>
      <trkpt lat="59.847232" lon="17.6908964">
        <ele>10.2312</ele>
        <time>2013-05-30T20:23:40Z</time>
      </trkpt>
      <trkpt lat="59.8472766" lon="17.6909302">
        <ele>10.2312</ele>
        <time>2013-05-30T20:23:41Z</time>
      </trkpt>
      <trkpt lat="59.8473227" lon="17.6909458">
        <ele>9.2699</ele>
        <time>2013-05-30T20:23:42Z</time>
      </trkpt>
      <trkpt lat="59.8473734" lon="17.6909515">
        <ele>9.2699</ele>
        <time>2013-05-30T20:23:43Z</time>
      </trkpt>
      <trkpt lat="59.8474242" lon="17.6909386">
        <ele>9.2699</ele>
        <time>2013-05-30T20:23:44Z</time>
      </trkpt>
      <trkpt lat="59.8474779" lon="17.6908857">
        <ele>10.2312</ele>
        <time>2013-05-30T20:23:45Z</time>
      </trkpt>
      <trkpt lat="59.8475289" lon="17.6908254">
        <ele>10.7118</ele>
        <time>2013-05-30T20:23:46Z</time>
      </trkpt>
      <trkpt lat="59.8475817" lon="17.6907868">
        <ele>11.1925</ele>
        <time>2013-05-30T20:23:47Z</time>
      </trkpt>
      <trkpt lat="59.8476367" lon="17.6907717">
        <ele>11.1925</ele>
        <time>2013-05-30T20:23:48Z</time>
      </trkpt>
      <trkpt lat="59.8476913" lon="17.6907732">
        <ele>11.6732</ele>
        <time>2013-05-30T20:23:49Z</time>
      </trkpt>
      <trkpt lat="59.8477434" lon="17.690785">
        <ele>11.1925</ele>
        <time>2013-05-30T20:23:50Z</time>
      </trkpt>
      <trkpt lat="59.8477942" lon="17.6908021">
        <ele>10.7118</ele>
        <time>2013-05-30T20:23:51Z</time>
      </trkpt>
      <trkpt lat="59.8478472" lon="17.6908168">
        <ele>10.7118</ele>
        <time>2013-05-30T20:23:52Z</time>
      </trkpt>
      <trkpt lat="59.8479003" lon="17.6908316">
        <ele>10.7118</ele>
        <time>2013-05-30T20:23:53Z</time>
      </trkpt>
      <trkpt lat="59.8479553" lon="17.6908514">
        <ele>10.7118</ele>
        <time>2013-05-30T20:23:54Z</time>
      </trkpt>
      <trkpt lat="59.848013" lon="17.6908753">
        <ele>10.7118</ele>
        <time>2013-05-30T20:23:55Z</time>
      </trkpt>
      <trkpt lat="59.8480728" lon="17.6909017">
        <ele>10.7118</ele>
        <time>2013-05-30T20:23:56Z</time>
      </trkpt>
      <trkpt lat="59.8481329" lon="17.6909318">
        <ele>10.2312</ele>
        <time>2013-05-30T20:23:57Z</time>
      </trkpt>
      <trkpt lat="59.8481939" lon="17.6909632">
        <ele>10.2312</ele>
        <time>2013-05-30T20:23:58Z</time>
      </trkpt>
      <trkpt lat="59.8482555" lon="17.6909906">
        <ele>10.2312</ele>
        <time>2013-05-30T20:23:59Z</time>
      </trkpt>
      <trkpt lat="59.8483111" lon="17.6910198">
        <ele>9.75061</ele>
        <time>2013-05-30T20:24:00Z</time>
      </trkpt>
      <trkpt lat="59.8483695" lon="17.691053">
        <ele>9.75061</ele>
        <time>2013-05-30T20:24:01Z</time>
      </trkpt>
      <trkpt lat="59.8484274" lon="17.6910862">
        <ele>9.75061</ele>
        <time>2013-05-30T20:24:02Z</time>
      </trkpt>
      <trkpt lat="59.8484846" lon="17.6911219">
        <ele>9.75061</ele>
        <time>2013-05-30T20:24:03Z</time>
      </trkpt>
      <trkpt lat="59.8485399" lon="17.6911601">
        <ele>9.75061</ele>
        <time>2013-05-30T20:24:04Z</time>
      </trkpt>
      <trkpt lat="59.8485921" lon="17.691198">
        <ele>9.2699</ele>
        <time>2013-05-30T20:24:05Z</time>
      </trkpt>
      <trkpt lat="59.8486432" lon="17.6912369">
        <ele>8.78918</ele>
        <time>2013-05-30T20:24:06Z</time>
      </trkpt>
      <trkpt lat="59.8486969" lon="17.6912758">
        <ele>8.78918</ele>
        <time>2013-05-30T20:24:07Z</time>
      </trkpt>
      <trkpt lat="59.8487511" lon="17.6913151">
        <ele>8.78918</ele>
        <time>2013-05-30T20:24:08Z</time>
      </trkpt>
      <trkpt lat="59.8488056" lon="17.6913566">
        <ele>8.78918</ele>
        <time>2013-05-30T20:24:09Z</time>
      </trkpt>
      <trkpt lat="59.8488596" lon="17.6914021">
        <ele>8.78918</ele>
        <time>2013-05-30T20:24:10Z</time>
      </trkpt>
      <trkpt lat="59.8489133" lon="17.6914493">
        <ele>9.2699</ele>
        <time>2013-05-30T20:24:11Z</time>
      </trkpt>
      <trkpt lat="59.8489674" lon="17.6914958">
        <ele>9.2699</ele>
        <time>2013-05-30T20:24:12Z</time>
      </trkpt>
      <trkpt lat="59.8490202" lon="17.6915444">
        <ele>9.75061</ele>
        <time>2013-05-30T20:24:13Z</time>
      </trkpt>
      <trkpt lat="59.8490705" lon="17.6915965">
        <ele>9.75061</ele>
        <time>2013-05-30T20:24:14Z</time>
      </trkpt>
      <trkpt lat="59.8491181" lon="17.6916508">
        <ele>10.2312</ele>
        <time>2013-05-30T20:24:15Z</time>
      </trkpt>
      <trkpt lat="59.8491647" lon="17.6917035">
        <ele>10.2312</ele>
        <time>2013-05-30T20:24:16Z</time>
      </trkpt>
      <trkpt lat="59.8492112" lon="17.691756">
        <ele>10.7118</ele>
        <time>2013-05-30T20:24:17Z</time>
      </trkpt>
      <trkpt lat="59.8492526" lon="17.6918015">
        <ele>11.1925</ele>
        <time>2013-05-30T20:24:18Z</time>
      </trkpt>
      <trkpt lat="59.8492906" lon="17.6918163">
        <ele>12.1538</ele>
        <time>2013-05-30T20:24:19Z</time>
      </trkpt>
      <trkpt lat="59.8493207" lon="17.6917987">
        <ele>12.6344</ele>
        <time>2013-05-30T20:24:20Z</time>
      </trkpt>
      <trkpt lat="59.8493383" lon="17.6917553">
        <ele>12.6344</ele>
        <time>2013-05-30T20:24:21Z</time>
      </trkpt>
      <trkpt lat="59.8493543" lon="17.6917025">
        <ele>13.1151</ele>
        <time>2013-05-30T20:24:22Z</time>
      </trkpt>
      <trkpt lat="59.8493715" lon="17.6916408">
        <ele>13.1151</ele>
        <time>2013-05-30T20:24:23Z</time>
      </trkpt>
      <trkpt lat="59.8493906" lon="17.6915688">
        <ele>13.5958</ele>
        <time>2013-05-30T20:24:24Z</time>
      </trkpt>
      <trkpt lat="59.8494143" lon="17.691499">
        <ele>14.0764</ele>
        <time>2013-05-30T20:24:25Z</time>
      </trkpt>
      <trkpt lat="59.8494382" lon="17.6914183">
        <ele>14.557</ele>
        <time>2013-05-30T20:24:26Z</time>
      </trkpt>
      <trkpt lat="59.8494662" lon="17.6913446">
        <ele>15.0377</ele>
        <time>2013-05-30T20:24:27Z</time>
      </trkpt>
      <trkpt lat="59.8494984" lon="17.6912885">
        <ele>15.0377</ele>
        <time>2013-05-30T20:24:28Z</time>
      </trkpt>
      <trkpt lat="59.8495351" lon="17.6912445">
        <ele>15.0377</ele>
        <time>2013-05-30T20:24:29Z</time>
      </trkpt>
      <trkpt lat="59.8495733" lon="17.6912047">
        <ele>15.0377</ele>
        <time>2013-05-30T20:24:30Z</time>
      </trkpt>
      <trkpt lat="59.8496154" lon="17.691174">
        <ele>15.5184</ele>
        <time>2013-05-30T20:24:31Z</time>
      </trkpt>
      <trkpt lat="59.8496599" lon="17.6911529">
        <ele>15.5184</ele>
        <time>2013-05-30T20:24:32Z</time>
      </trkpt>
      <trkpt lat="59.8497035" lon="17.6911374">
        <ele>15.0377</ele>
        <time>2013-05-30T20:24:33Z</time>
      </trkpt>
      <trkpt lat="59.8497526" lon="17.6911249">
        <ele>14.557</ele>
        <time>2013-05-30T20:24:34Z</time>
      </trkpt>
      <trkpt lat="59.8498035" lon="17.6911064">
        <ele>14.557</ele>
        <time>2013-05-30T20:24:35Z</time>
      </trkpt>
      <trkpt lat="59.8498527" lon="17.6910774">
        <ele>14.0764</ele>
        <time>2013-05-30T20:24:36Z</time>
      </trkpt>
      <trkpt lat="59.8499016" lon="17.6910368">
        <ele>13.5958</ele>
        <time>2013-05-30T20:24:37Z</time>
      </trkpt>
      <trkpt lat="59.8499494" lon="17.6909892">
        <ele>13.1151</ele>
        <time>2013-05-30T20:24:38Z</time>
      </trkpt>
      <trkpt lat="59.8499965" lon="17.6909291">
        <ele>12.6344</ele>
        <time>2013-05-30T20:24:39Z</time>
      </trkpt>
      <trkpt lat="59.8500417" lon="17.6908566">
        <ele>12.6344</ele>
        <time>2013-05-30T20:24:40Z</time>
      </trkpt>
      <trkpt lat="59.8500864" lon="17.6907817">
        <ele>12.6344</ele>
        <time>2013-05-30T20:24:41Z</time>
      </trkpt>
      <trkpt lat="59.850133" lon="17.6907115">
        <ele>13.1151</ele>
        <time>2013-05-30T20:24:42Z</time>
      </trkpt>
      <trkpt lat="59.8501829" lon="17.6906389">
        <ele>13.1151</ele>
        <time>2013-05-30T20:24:43Z</time>
      </trkpt>
      <trkpt lat="59.8502298" lon="17.6905604">
        <ele>13.5958</ele>
        <time>2013-05-30T20:24:44Z</time>
      </trkpt>
      <trkpt lat="59.8502765" lon="17.6904801">
        <ele>14.0764</ele>
        <time>2013-05-30T20:24:45Z</time>
      </trkpt>
      <trkpt lat="59.8503204" lon="17.6904016">
        <ele>14.557</ele>
        <time>2013-05-30T20:24:46Z</time>
      </trkpt>
      <trkpt lat="59.8503609" lon="17.6903271">
        <ele>14.0764</ele>
        <time>2013-05-30T20:24:47Z</time>
      </trkpt>
      <trkpt lat="59.8504048" lon="17.6902476">
        <ele>14.557</ele>
        <time>2013-05-30T20:24:48Z</time>
      </trkpt>
      <trkpt lat="59.8504499" lon="17.6901688">
        <ele>14.557</ele>
        <time>2013-05-30T20:24:49Z</time>
      </trkpt>
      <trkpt lat="59.8504956" lon="17.690087">
        <ele>15.0377</ele>
        <time>2013-05-30T20:24:50Z</time>
      </trkpt>
      <trkpt lat="59.8505396" lon="17.6900056">
        <ele>15.0377</ele>
        <time>2013-05-30T20:24:51Z</time>
      </trkpt>
      <trkpt lat="59.8505844" lon="17.6899242">
        <ele>15.0377</ele>
        <time>2013-05-30T20:24:52Z</time>
      </trkpt>
      <trkpt lat="59.8506301" lon="17.6898403">
        <ele>15.0377</ele>
        <time>2013-05-30T20:24:53Z</time>
      </trkpt>
      <trkpt lat="59.8506762" lon="17.6897568">
        <ele>15.5184</ele>
        <time>2013-05-30T20:24:54Z</time>
      </trkpt>
      <trkpt lat="59.8507214" lon="17.6896736">
        <ele>15.5184</ele>
        <time>2013-05-30T20:24:55Z</time>
      </trkpt>
      <trkpt lat="59.8507663" lon="17.6895905">
        <ele>15.5184</ele>
        <time>2013-05-30T20:24:56Z</time>
      </trkpt>
      <trkpt lat="59.8508099" lon="17.6895062">
        <ele>15.5184</ele>
        <time>2013-05-30T20:24:57Z</time>
      </trkpt>
      <trkpt lat="59.8508536" lon="17.6894233">
        <ele>15.0377</ele>
        <time>2013-05-30T20:24:58Z</time>
      </trkpt>
      <trkpt lat="59.8508978" lon="17.6893437">
        <ele>15.0377</ele>
        <time>2013-05-30T20:24:59Z</time>
      </trkpt>
      <trkpt lat="59.8509409" lon="17.6892662">
        <ele>15.0377</ele>
        <time>2013-05-30T20:25:00Z</time>
      </trkpt>
      <trkpt lat="59.8509831" lon="17.6891891">
        <ele>15.0377</ele>
        <time>2013-05-30T20:25:01Z</time>
      </trkpt>
      <trkpt lat="59.8510264" lon="17.6891124">
        <ele>15.5184</ele>
        <time>2013-05-30T20:25:02Z</time>
      </trkpt>
      <trkpt lat="59.8510694" lon="17.6890353">
        <ele>15.5184</ele>
        <time>2013-05-30T20:25:03Z</time>
      </trkpt>
      <trkpt lat="59.8511138" lon="17.6889571">
        <ele>16.4797</ele>
        <time>2013-05-30T20:25:04Z</time>
      </trkpt>
      <trkpt lat="59.8511585" lon="17.6888762">
        <ele>16.9604</ele>
        <time>2013-05-30T20:25:05Z</time>
      </trkpt>
      <trkpt lat="59.8512025" lon="17.6887943">
        <ele>16.9604</ele>
        <time>2013-05-30T20:25:06Z</time>
      </trkpt>
      <trkpt lat="59.851248" lon="17.6887146">
        <ele>16.9604</ele>
        <time>2013-05-30T20:25:07Z</time>
      </trkpt>
      <trkpt lat="59.8512916" lon="17.688636">
        <ele>16.4797</ele>
        <time>2013-05-30T20:25:08Z</time>
      </trkpt>
      <trkpt lat="59.8513353" lon="17.6885519">
        <ele>15.999</ele>
        <time>2013-05-30T20:25:09Z</time>
      </trkpt>
      <trkpt lat="59.8513788" lon="17.6884733">
        <ele>16.4797</ele>
        <time>2013-05-30T20:25:10Z</time>
      </trkpt>
      <trkpt lat="59.8514196" lon="17.6883977">
        <ele>15.999</ele>
        <time>2013-05-30T20:25:11Z</time>
      </trkpt>
      <trkpt lat="59.8514599" lon="17.6883241">
        <ele>15.999</ele>
        <time>2013-05-30T20:25:12Z</time>
      </trkpt>
      <trkpt lat="59.851503" lon="17.688249">
        <ele>15.999</ele>
        <time>2013-05-30T20:25:13Z</time>
      </trkpt>
      <trkpt lat="59.8515464" lon="17.6881691">
        <ele>15.999</ele>
        <time>2013-05-30T20:25:14Z</time>
      </trkpt>
      <trkpt lat="59.8515911" lon="17.6880858">
        <ele>15.999</ele>
        <time>2013-05-30T20:25:15Z</time>
      </trkpt>
      <trkpt lat="59.8516305" lon="17.6880025">
        <ele>15.999</ele>
        <time>2013-05-30T20:25:16Z</time>
      </trkpt>
      <trkpt lat="59.8516677" lon="17.687923">
        <ele>15.5184</ele>
        <time>2013-05-30T20:25:17Z</time>
      </trkpt>
      <trkpt lat="59.8517045" lon="17.6878474">
        <ele>14.557</ele>
        <time>2013-05-30T20:25:18Z</time>
      </trkpt>
      <trkpt lat="59.8517373" lon="17.6877792">
        <ele>13.5958</ele>
        <time>2013-05-30T20:25:19Z</time>
      </trkpt>
      <trkpt lat="59.8517746" lon="17.6877103">
        <ele>13.1151</ele>
        <time>2013-05-30T20:25:20Z</time>
      </trkpt>
      <trkpt lat="59.8518144" lon="17.6876382">
        <ele>13.5958</ele>
        <time>2013-05-30T20:25:21Z</time>
      </trkpt>
      <trkpt lat="59.8518542" lon="17.6875638">
        <ele>13.5958</ele>
        <time>2013-05-30T20:25:22Z</time>
      </trkpt>
      <trkpt lat="59.8518916" lon="17.6874957">
        <ele>12.6344</ele>
        <time>2013-05-30T20:25:23Z</time>
      </trkpt>
      <trkpt lat="59.8519274" lon="17.6874306">
        <ele>13.1151</ele>
        <time>2013-05-30T20:25:24Z</time>
      </trkpt>
      <trkpt lat="59.8519598" lon="17.687363">
        <ele>12.1538</ele>
        <time>2013-05-30T20:25:25Z</time>
      </trkpt>
      <trkpt lat="59.8520054" lon="17.6872967">
        <ele>13.1151</ele>
        <time>2013-05-30T20:25:26Z</time>
      </trkpt>
      <trkpt lat="59.852048" lon="17.687227">
        <ele>13.1151</ele>
        <time>2013-05-30T20:25:27Z</time>
      </trkpt>
      <trkpt lat="59.8520851" lon="17.6871586">
        <ele>12.6344</ele>
        <time>2013-05-30T20:25:28Z</time>
      </trkpt>
      <trkpt lat="59.8521275" lon="17.6870819">
        <ele>13.1151</ele>
        <time>2013-05-30T20:25:29Z</time>
      </trkpt>
      <trkpt lat="59.8521702" lon="17.6870042">
        <ele>13.1151</ele>
        <time>2013-05-30T20:25:30Z</time>
      </trkpt>
      <trkpt lat="59.8522132" lon="17.6869243">
        <ele>13.1151</ele>
        <time>2013-05-30T20:25:31Z</time>
      </trkpt>
      <trkpt lat="59.8522543" lon="17.6868395">
        <ele>13.5958</ele>
        <time>2013-05-30T20:25:32Z</time>
      </trkpt>
      <trkpt lat="59.8522925" lon="17.6867545">
        <ele>13.1151</ele>
        <time>2013-05-30T20:25:33Z</time>
      </trkpt>
      <trkpt lat="59.8523339" lon="17.6866736">
        <ele>13.1151</ele>
        <time>2013-05-30T20:25:34Z</time>
      </trkpt>
      <trkpt lat="59.8523721" lon="17.6865956">
        <ele>13.1151</ele>
        <time>2013-05-30T20:25:35Z</time>
      </trkpt>
      <trkpt lat="59.8524097" lon="17.6865192">
        <ele>13.1151</ele>
        <time>2013-05-30T20:25:36Z</time>
      </trkpt>
      <trkpt lat="59.8524454" lon="17.6864411">
        <ele>12.6344</ele>
        <time>2013-05-30T20:25:37Z</time>
      </trkpt>
      <trkpt lat="59.8524814" lon="17.6863624">
        <ele>13.1151</ele>
        <time>2013-05-30T20:25:38Z</time>
      </trkpt>
      <trkpt lat="59.8525163" lon="17.6862873">
        <ele>12.6344</ele>
        <time>2013-05-30T20:25:39Z</time>
      </trkpt>
      <trkpt lat="59.8525478" lon="17.6862143">
        <ele>12.6344</ele>
        <time>2013-05-30T20:25:40Z</time>
      </trkpt>
      <trkpt lat="59.8525792" lon="17.6861454">
        <ele>13.1151</ele>
        <time>2013-05-30T20:25:41Z</time>
      </trkpt>
      <trkpt lat="59.8526096" lon="17.6860801">
        <ele>12.6344</ele>
        <time>2013-05-30T20:25:42Z</time>
      </trkpt>
      <trkpt lat="59.8526362" lon="17.6860126">
        <ele>13.1151</ele>
        <time>2013-05-30T20:25:43Z</time>
      </trkpt>
      <trkpt lat="59.8526515" lon="17.6859413">
        <ele>13.1151</ele>
        <time>2013-05-30T20:25:44Z</time>
      </trkpt>
      <trkpt lat="59.8526519" lon="17.6858766">
        <ele>13.5958</ele>
        <time>2013-05-30T20:25:45Z</time>
      </trkpt>
      <trkpt lat="59.8526376" lon="17.6858221">
        <ele>14.557</ele>
        <time>2013-05-30T20:25:46Z</time>
      </trkpt>
      <trkpt lat="59.8526115" lon="17.685776">
        <ele>15.999</ele>
        <time>2013-05-30T20:25:47Z</time>
      </trkpt>
      <trkpt lat="59.8525779" lon="17.6857297">
        <ele>15.5184</ele>
        <time>2013-05-30T20:25:48Z</time>
      </trkpt>
      <trkpt lat="59.8525324" lon="17.685685">
        <ele>11.6732</ele>
        <time>2013-05-30T20:25:49Z</time>
      </trkpt>
      <trkpt lat="59.8524831" lon="17.6856537">
        <ele>10.7118</ele>
        <time>2013-05-30T20:25:50Z</time>
      </trkpt>
      <trkpt lat="59.8524349" lon="17.6856401">
        <ele>10.2312</ele>
        <time>2013-05-30T20:25:51Z</time>
      </trkpt>
      <trkpt lat="59.8523924" lon="17.6856342">
        <ele>11.1925</ele>
        <time>2013-05-30T20:25:52Z</time>
      </trkpt>
      <trkpt lat="59.8523612" lon="17.6856408">
        <ele>11.6732</ele>
        <time>2013-05-30T20:25:53Z</time>
      </trkpt>
      <trkpt lat="59.8523391" lon="17.6856556">
        <ele>11.1925</ele>
        <time>2013-05-30T20:25:54Z</time>
      </trkpt>
      <trkpt lat="59.8523199" lon="17.6856678">
        <ele>12.1538</ele>
        <time>2013-05-30T20:25:55Z</time>
      </trkpt>
      <trkpt lat="59.8523003" lon="17.6856703">
        <ele>14.0764</ele>
        <time>2013-05-30T20:25:56Z</time>
      </trkpt>
      <trkpt lat="59.8522806" lon="17.6856615">
        <ele>15.5184</ele>
        <time>2013-05-30T20:25:57Z</time>
      </trkpt>
      <trkpt lat="59.8522592" lon="17.6856508">
        <ele>15.999</ele>
        <time>2013-05-30T20:25:58Z</time>
      </trkpt>
      <trkpt lat="59.8522328" lon="17.6856639">
        <ele>16.4797</ele>
        <time>2013-05-30T20:25:59Z</time>
      </trkpt>
      <trkpt lat="59.8522153" lon="17.6856696">
        <ele>16.4797</ele>
        <time>2013-05-30T20:26:00Z</time>
      </trkpt>
      <trkpt lat="59.8521971" lon="17.6856969">
        <ele>15.999</ele>
        <time>2013-05-30T20:26:01Z</time>
      </trkpt>
      <trkpt lat="59.8521923" lon="17.6857304">
        <ele>16.4797</ele>
        <time>2013-05-30T20:26:02Z</time>
      </trkpt>
      <trkpt lat="59.8521935" lon="17.6857535">
        <ele>16.9604</ele>
        <time>2013-05-30T20:26:03Z</time>
      </trkpt>
      <trkpt lat="59.8521909" lon="17.685778">
        <ele>16.9604</ele>
        <time>2013-05-30T20:26:04Z</time>
      </trkpt>
    </trkseg>
  </trk>
</gpx>